
Distance (Route):
Temperature : 14.6°C
Humidity : 77.4%
Pressure : 1007.25hPa| Receiver | Frames | First received | Last received |
|---|---|---|---|
| DL1XH-west | 812 | 2026-09-01 22:55:44 | 2026-09-02 01:22:26 |
| DF8AY | 802 | 2026-09-01 22:57:25 | 2026-09-02 01:27:12 |
| AA1-15 | 688 | 2026-09-01 23:01:07 | 2026-09-02 01:23:30 |
| DO2SHX-10 | 624 | 2026-09-01 23:06:24 | 2026-09-02 01:22:50 |
| BIOWL1-15 | 618 | 2026-09-01 22:55:42 | 2026-09-02 01:22:35 |
| DM0DOS-11 | 592 | 2026-09-01 22:54:33 | 2026-09-02 01:25:09 |
| DB0DAN | 529 | 2026-09-01 22:52:55 | 2026-09-02 01:28:25 |
| DL1XH-15 | 474 | 2026-09-01 22:55:57 | 2026-09-02 01:23:40 |
| DL1XH1-15 | 430 | 2026-09-01 22:56:24 | 2026-09-02 01:22:15 |
| HSKMA3-T | 278 | 2026-09-01 23:36:10 | 2026-09-02 00:56:54 |
| DL1NUX | 273 | 2026-09-01 23:36:41 | 2026-09-02 00:58:02 |
| DD8BA-10 | 219 | 2026-09-01 22:59:54 | 2026-09-02 01:16:35 |
| GOEST3-10 | 173 | 2026-09-01 23:11:52 | 2026-09-02 01:08:14 |
| DL3AQ-11 | 83 | 2026-09-01 23:08:19 | 2026-09-02 01:08:19 |
| DF8AY-15 | 76 | 2026-09-01 22:58:58 | 2026-09-02 01:23:59 |
| DL4XJ-10 | 69 | 2026-09-01 22:55:19 | 2026-09-02 01:09:53 |
| AM1SDL-15 | 69 | 2026-09-01 22:59:51 | 2026-09-02 01:28:03 |
| DF7ER-10 | 69 | 2026-09-01 23:15:26 | 2026-09-02 01:23:26 |
| DL4BBY-15 | 67 | 2026-09-01 22:58:05 | 2026-09-02 01:12:05 |
| DB0UT-7 | 61 | 2026-09-01 23:19:14 | 2026-09-02 01:02:44 |
| SMARD9-15 | 43 | 2026-09-01 23:06:13 | 2026-09-02 01:10:56 |
| EDDB2-11 | 39 | 2026-09-01 23:26:49 | 2026-09-02 01:15:28 |
| BIOWL9-15 | 36 | 2026-09-01 23:00:13 | 2026-09-02 01:12:43 |
| EDDB2-12 | 36 | 2026-09-01 23:15:04 | 2026-09-02 01:23:54 |
| DB0NH | 32 | 2026-09-01 23:14:28 | 2026-09-02 01:11:00 |
| SONDE2-11 | 32 | 2026-09-01 23:16:45 | 2026-09-02 01:22:31 |
| HTAHTA | 31 | 2026-09-01 23:16:46 | 2026-09-02 01:04:56 |
| DO3MHA-11 | 31 | 2026-09-02 00:07:20 | 2026-09-02 00:53:52 |
| BUE01 | 28 | 2026-09-01 23:12:55 | 2026-09-02 01:06:46 |
| SMARD9-10 | 27 | 2026-09-01 22:55:06 | 2026-09-02 01:12:53 |
| TFSTFS | 25 | 2026-09-01 23:27:04 | 2026-09-02 01:11:33 |
| SONCRA | 24 | 2026-09-01 23:09:33 | 2026-09-02 01:18:56 |
| S3001 | 23 | 2026-09-01 23:02:50 | 2026-09-02 01:22:02 |
| DL3OBA | 21 | 2026-09-01 23:59:44 | 2026-09-02 00:49:17 |
| DJ2DS-15 | 18 | 2026-09-01 23:12:34 | 2026-09-02 01:11:36 |
| DF7PN | 18 | 2026-09-01 23:58:56 | 2026-09-02 00:56:56 |
| DL8OAI-8 | 16 | 2026-09-01 23:01:11 | 2026-09-01 23:48:13 |
| MECKS9 | 16 | 2026-09-01 23:44:59 | 2026-09-02 01:00:54 |
| AU51GT2 | 14 | 2026-09-02 00:15:19 | 2026-09-02 00:49:27 |
| DJ8HS-15 | 13 | 2026-09-02 00:27:58 | 2026-09-02 00:49:53 |
| DO9LL-15 | 12 | 2026-09-01 23:13:04 | 2026-09-02 00:52:27 |
| DK1YY | 11 | 2026-09-01 23:35:58 | 2026-09-02 00:52:02 |
| AP2371 | 10 | 2026-09-01 23:07:41 | 2026-09-02 01:10:03 |
| DO2JMG | 10 | 2026-09-02 00:34:49 | 2026-09-02 00:45:49 |
| SP3BTT-10 | 9 | 2026-09-01 23:51:33 | 2026-09-02 00:49:29 |
| DL1LOL-11 | 8 | 2026-09-01 23:03:03 | 2026-09-02 01:12:56 |
| SO1NDE-10 | 8 | 2026-09-01 23:57:56 | 2026-09-02 00:23:56 |
| BIOWL7-15 | 6 | 2026-09-01 23:05:14 | 2026-09-02 01:04:26 |
| SP3WXH-11 | 6 | 2026-09-02 00:41:53 | 2026-09-02 00:57:55 |
| DL1CLM-18 | 5 | 2026-09-01 23:20:28 | 2026-09-02 00:33:12 |
| DB0ND-19 | 5 | 2026-09-01 23:23:13 | 2026-09-01 23:37:42 |
| DL2RXE-15 | 4 | 2026-09-01 23:30:11 | 2026-09-02 01:15:11 |
| NBG1-10 | 4 | 2026-09-02 00:13:43 | 2026-09-02 00:53:58 |
| 13BRC | 4 | 2026-09-02 00:32:51 | 2026-09-02 00:55:57 |
| DK9SH | 4 | 2026-09-02 01:14:02 | 2026-09-02 01:16:26 |
| DL1ZP-14 | 2 | 2026-09-01 23:24:25 | 2026-09-01 23:24:56 |
| SP6BVK | 2 | 2026-09-02 00:53:57 | 2026-09-02 00:55:42 |
| DO2LYB-13 | 1 | 2026-09-01 23:59:48 | 2026-09-01 23:59:48 |
| DK7RCA | 1 | 2026-09-02 00:54:41 | 2026-09-02 00:54:41 |
| Receiver | Date | Latitude | Longitude | Direction | Speed | Altitude | Climb | Temperature | Humidity | Pressure | Voltage | Killtimer | Uptime | BKT | XDATA |
|---|---|---|---|---|---|---|---|---|---|---|---|---|---|---|---|
| DB0DAN | 2026-09-02 01:28:25 | 52.76707 | 11.19328 | 71° | 13km/h | 140m | -6.2m/s | 14.6°C | 77.4% | 1007.25hPa | 2.7V | 00:00:00 | 00:00:00 | 00:00:00 | |
| AM1SDL-15 | 2026-09-02 01:28:03 | 52.76724 | 11.19197 | 123° | 18km/h | 270m | -5.7m/s | 14.4°C | 75.3% | 991.7hPa | 2.6V | 00:00:00 | 03:35:49 | 00:00:00 | |
| AM1SDL-15 | 2026-09-02 01:28:01 | 52.76729 | 11.19184 | 123° | 18km/h | 282m | -6.0m/s | 14.4°C | 75.4% | 990.4hPa | 2.6V | 02:26:00 | 03:35:47 | 00:00:00 | |
| AM1SDL-15 | 2026-09-02 01:27:59 | 52.76734 | 11.19172 | 123° | 18km/h | 294m | -6.0m/s | 14.4°C | 74.9% | 989.0hPa | 2.7V | 00:00:00 | 03:35:45 | 00:00:00 | |
| DB0DAN | 2026-09-02 01:27:55 | 52.76746 | 11.19145 | 127° | 20km/h | 318m | -6.1m/s | 14.4°C | 74% | 986.13hPa | 2.7V | 00:00:00 | 00:00:00 | 00:00:00 | |
| AM1SDL-15 | 2026-09-02 01:27:55 | 52.76746 | 11.19145 | 127° | 20km/h | 318m | -6.1m/s | 14.4°C | 73.9% | 986.1hPa | 2.7V | 00:00:00 | 03:35:41 | 00:00:00 | |
| AM1SDL-15 | 2026-09-02 01:27:53 | 52.76752 | 11.19131 | 128° | 22km/h | 331m | -6.1m/s | 14.4°C | 72.9% | 984.8hPa | 2.7V | 02:26:00 | 03:35:39 | 00:00:00 | |
| AM1SDL-15 | 2026-09-02 01:27:51 | 52.76759 | 11.19117 | 128° | 20km/h | 343m | -6.2m/s | 14.5°C | 71.0% | 983.2hPa | 2.7V | 00:00:00 | 03:35:37 | 00:00:00 | |
| AM1SDL-15 | 2026-09-02 01:27:49 | 52.76765 | 11.19103 | 127° | 20km/h | 355m | -6.0m/s | 14.5°C | 65.9% | 981.9hPa | 2.7V | 00:00:00 | 03:35:35 | 00:00:00 | |
| AM1SDL-15 | 2026-09-02 01:27:47 | 52.76771 | 11.19089 | 125° | 22km/h | 368m | -5.9m/s | 14.5°C | 65.0% | 980.5hPa | 2.7V | 02:26:00 | 03:35:33 | 00:00:00 | |
| AM1SDL-15 | 2026-09-02 01:27:45 | 52.76778 | 11.19075 | 128° | 22km/h | 379m | -6.0m/s | 14.5°C | 66.4% | 979.1hPa | 2.7V | 00:00:00 | 03:35:31 | 00:00:00 | |
| AM1SDL-15 | 2026-09-02 01:27:43 | 52.76784 | 11.19060 | 127° | 22km/h | 391m | -6.1m/s | 14.5°C | 64.8% | 977.9hPa | 2.7V | 00:00:00 | 03:35:29 | 00:00:00 | |
| AM1SDL-15 | 2026-09-02 01:27:41 | 52.76791 | 11.19045 | 127° | 22km/h | 404m | -6.0m/s | 14.4°C | 64.6% | 976.4hPa | 2.7V | 02:26:00 | 03:35:27 | 00:00:00 | |
| AM1SDL-15 | 2026-09-02 01:27:39 | 52.76798 | 11.19030 | 127° | 22km/h | 415m | -6.1m/s | 14.3°C | 65.4% | 974.7hPa | 2.7V | 00:00:00 | 03:35:25 | 00:00:00 | |
| AM1SDL-15 | 2026-09-02 01:27:37 | 52.76804 | 11.19015 | 126° | 22km/h | 428m | -6.4m/s | 14.2°C | 65.7% | 973.5hPa | 2.7V | 00:00:00 | 03:35:23 | 00:00:00 | |
| AM1SDL-15 | 2026-09-02 01:27:35 | 52.76810 | 11.19000 | 124° | 22km/h | 440m | -6.1m/s | 14.1°C | 65.3% | 972.1hPa | 2.7V | 02:26:00 | 03:35:21 | 00:00:00 | |
| AM1SDL-15 | 2026-09-02 01:27:33 | 52.76817 | 11.18985 | 125° | 22km/h | 453m | -6.1m/s | 14.0°C | 65.6% | 970.6hPa | 2.7V | 00:00:00 | 03:35:19 | 00:00:00 | |
| AM1SDL-15 | 2026-09-02 01:27:31 | 52.76823 | 11.18970 | 124° | 22km/h | 465m | -6.2m/s | 13.9°C | 65.8% | 969.3hPa | 2.7V | 00:00:00 | 03:35:17 | 00:00:00 | |
| AM1SDL-15 | 2026-09-02 01:27:29 | 52.76829 | 11.18954 | 125° | 22km/h | 477m | -6.0m/s | 13.8°C | 65.9% | 967.8hPa | 2.7V | 02:26:00 | 03:35:15 | 00:00:00 | |
| AM1SDL-15 | 2026-09-02 01:27:27 | 52.76836 | 11.18938 | 124° | 22km/h | 489m | -6.1m/s | 13.7°C | 68.4% | 966.4hPa | 2.6V | 00:00:00 | 03:35:13 | 00:00:00 | |
| DB0DAN | 2026-09-02 01:27:25 | 52.76842 | 11.18923 | 121° | 22km/h | 501m | -6.3m/s | 13.6°C | 71.7% | 965.01hPa | 2.6V | 00:00:00 | 00:00:00 | 00:00:00 | |
| DF8AY | 2026-09-02 01:27:12 | 52.76878 | 11.18816 | 119° | 22km/h | 581m | -6.2m/s | 13°C | 82.8% | 956hPa | 2.7V | 02:27:53 | 03:34:58 | 00:00:00 | |
| DB0DAN | 2026-09-02 01:27:10 | 52.76883 | 11.18800 | 118° | 22km/h | 593m | -6.1m/s | 12.9°C | 76.7% | 954.56hPa | 2.7V | 00:00:00 | 00:00:00 | 00:00:00 | |
| DF8AY | 2026-09-02 01:27:10 | 52.76883 | 11.18800 | 118° | 22km/h | 593m | -6.1m/s | 12.9°C | 83.3% | 954.6hPa | 2.7V | 02:27:53 | 03:34:56 | 00:00:00 | |
| DF8AY | 2026-09-02 01:27:09 | 52.76886 | 11.18792 | 119° | 22km/h | 600m | -6.2m/s | 12.9°C | 83.2% | 953.9hPa | 2.6V | 02:27:53 | 03:34:55 | 00:00:00 | |
| DF8AY | 2026-09-02 01:27:08 | 52.76891 | 11.18775 | 116° | 22km/h | 612m | -6.1m/s | 12.8°C | 83.1% | 952.4hPa | 2.7V | 02:27:53 | 03:34:53 | 00:00:00 | |
| DF8AY | 2026-09-02 01:27:07 | 52.76894 | 11.18767 | 116° | 22km/h | 618m | -6.2m/s | 12.8°C | 82.4% | 951.9hPa | 2.7V | 02:27:53 | 03:34:52 | 00:00:00 | |
| DF8AY | 2026-09-02 01:27:06 | 52.76896 | 11.18758 | 115° | 24km/h | 624m | -6.3m/s | 12.8°C | 81.2% | 951.1hPa | 2.7V | 02:27:53 | 03:34:51 | 00:00:00 | |
| DF8AY | 2026-09-02 01:27:03 | 52.76901 | 11.18741 | 115° | 22km/h | 637m | -6.1m/s | 12.7°C | 80.4% | 949.8hPa | 2.7V | 02:27:53 | 03:34:49 | 00:00:00 | |
| DF8AY | 2026-09-02 01:27:01 | 52.76906 | 11.18724 | 116° | 22km/h | 649m | -6.1m/s | 12.7°C | 79.8% | 948.4hPa | 2.6V | 02:27:53 | 03:34:47 | 00:00:00 | |
| DF8AY | 2026-09-02 01:26:59 | 52.76910 | 11.18707 | 114° | 22km/h | 661m | -6.1m/s | 12.5°C | 80% | 947hPa | 2.7V | 02:27:53 | 03:34:45 | 00:00:00 | |
| DF8AY | 2026-09-02 01:26:57 | 52.76915 | 11.18690 | 113° | 22km/h | 673m | -6.1m/s | 12.5°C | 78.3% | 945.6hPa | 2.7V | 02:27:53 | 03:34:43 | 00:00:00 | |
| DF8AY | 2026-09-02 01:26:56 | 52.76917 | 11.18682 | 113° | 22km/h | 680m | -6.1m/s | 12.4°C | 79.2% | 944.9hPa | 2.7V | 02:27:53 | 03:34:42 | 00:00:00 | |
| DF8AY | 2026-09-02 01:26:54 | 52.76921 | 11.18665 | 111° | 22km/h | 692m | -6.1m/s | 12.4°C | 78.9% | 943.4hPa | 2.7V | 02:27:53 | 03:34:40 | 00:00:00 | |
| DF8AY | 2026-09-02 01:26:52 | 52.76925 | 11.18648 | 111° | 22km/h | 704m | -6.3m/s | 12.3°C | 78.3% | 942hPa | 2.7V | 02:27:53 | 03:34:38 | 00:00:00 | |
| DF8AY | 2026-09-02 01:26:50 | 52.76929 | 11.18631 | 110° | 22km/h | 716m | -6.1m/s | 12.2°C | 78.4% | 940.8hPa | 2.7V | 02:27:53 | 03:34:36 | 00:00:00 | |
| DF8AY | 2026-09-02 01:26:49 | 52.76931 | 11.18622 | 109° | 22km/h | 723m | -6.2m/s | 12.2°C | 77.8% | 940.2hPa | 2.7V | 02:27:53 | 03:34:35 | 00:00:00 | |
| DF8AY | 2026-09-02 01:26:47 | 52.76935 | 11.18605 | 109° | 22km/h | 735m | -6.1m/s | 12.1°C | 77.5% | 938.6hPa | 2.7V | 02:27:53 | 03:34:33 | 00:00:00 | |
| DF8AY | 2026-09-02 01:26:46 | 52.76936 | 11.18596 | 108° | 22km/h | 741m | -6.4m/s | 12°C | 79.1% | 938hPa | 2.7V | 02:27:53 | 03:34:32 | 00:00:00 | |
| DF8AY | 2026-09-02 01:26:44 | 52.76940 | 11.18579 | 107° | 22km/h | 753m | -6.3m/s | 11.9°C | 77.8% | 936.5hPa | 2.7V | 02:27:53 | 03:34:30 | 00:00:00 | |
| DF8AY | 2026-09-02 01:26:44 | 52.76941 | 11.18570 | 106° | 22km/h | 760m | -6.3m/s | 11.9°C | 77.5% | 935.9hPa | 2.7V | 02:27:53 | 03:34:29 | 00:00:00 | |
| DF8AY | 2026-09-02 01:26:42 | 52.76943 | 11.18561 | 106° | 22km/h | 766m | -6.5m/s | 11.9°C | 77.6% | 935.2hPa | 2.7V | 02:27:53 | 03:34:28 | 00:00:00 | |
| DB0DAN | 2026-09-02 01:26:40 | 52.76946 | 11.18543 | 104° | 20km/h | 778m | -6m/s | 11.8°C | 70.9% | 933.87hPa | 2.7V | 00:00:00 | 00:00:00 | 00:00:00 | |
| DF8AY | 2026-09-02 01:26:40 | 52.76946 | 11.18543 | 104° | 22km/h | 778m | -6m/s | 11.8°C | 77.6% | 933.9hPa | 2.7V | 02:27:53 | 03:34:26 | 00:00:00 | |
| DF8AY | 2026-09-02 01:26:38 | 52.76949 | 11.18526 | 105° | 22km/h | 790m | -6.3m/s | 11.7°C | 78.5% | 932.4hPa | 2.7V | 02:27:53 | 03:34:24 | 00:00:00 | |
| DF8AY | 2026-09-02 01:26:36 | 52.76951 | 11.18508 | 104° | 22km/h | 803m | -6.1m/s | 11.6°C | 78.8% | 931.1hPa | 2.7V | 02:27:53 | 03:34:22 | 00:00:00 | |
| DF8AY | 2026-09-02 01:26:35 | 52.76953 | 11.18499 | 105° | 22km/h | 809m | -6.3m/s | 11.6°C | 78.9% | 930.2hPa | 2.7V | 02:27:53 | 03:34:21 | 00:00:00 | |
| DF8AY | 2026-09-02 01:26:34 | 52.76954 | 11.18491 | 105° | 22km/h | 815m | -6.3m/s | 11.5°C | 79.3% | 929.8hPa | 2.7V | 02:27:53 | 03:34:20 | 00:00:00 | |
| DF8AY | 2026-09-02 01:26:32 | 52.76957 | 11.18473 | 102° | 22km/h | 828m | -6.3m/s | 11.4°C | 80.5% | 928.5hPa | 2.7V | 02:27:53 | 03:34:18 | 00:00:00 | |
| DF8AY | 2026-09-02 01:26:30 | 52.76959 | 11.18456 | 101° | 22km/h | 840m | -6.3m/s | 11.3°C | 79.6% | 926.8hPa | 2.6V | 02:27:53 | 03:34:16 | 00:00:00 | |
| DF8AY | 2026-09-02 01:26:28 | 52.76962 | 11.18430 | 105° | 22km/h | 859m | -6.3m/s | 11.2°C | 79.9% | 924.7hPa | 2.7V | 02:27:53 | 03:34:13 | 00:00:00 | |
| DB0DAN | 2026-09-02 01:26:25 | 52.76965 | 11.18413 | 103° | 20km/h | 871m | -6.4m/s | 11°C | 73.6% | 923.48hPa | 2.7V | 00:00:00 | 00:00:00 | 00:00:00 | |
| DF8AY | 2026-09-02 01:26:25 | 52.76965 | 11.18413 | 103° | 22km/h | 871m | -6.4m/s | 11°C | 80.5% | 923.5hPa | 2.7V | 02:28:44 | 03:34:11 | 00:00:00 | |
| DF8AY | 2026-09-02 01:26:24 | 52.76966 | 11.18405 | 102° | 20km/h | 878m | -6.4m/s | 11°C | 82% | 922.8hPa | 2.7V | 02:28:44 | 03:34:10 | 00:00:00 | |
| DF8AY | 2026-09-02 01:26:22 | 52.76969 | 11.18388 | 105° | 22km/h | 890m | -6.4m/s | 10.9°C | 82.1% | 921.4hPa | 2.7V | 02:28:44 | 03:34:08 | 00:00:00 | |
| DF8AY | 2026-09-02 01:26:21 | 52.76970 | 11.18379 | 106° | 22km/h | 896m | -6.3m/s | 10.8°C | 82.8% | 920.6hPa | 2.7V | 02:28:44 | 03:34:07 | 00:00:00 | |
| DF8AY | 2026-09-02 01:26:20 | 52.76972 | 11.18371 | 105° | 22km/h | 903m | -6.4m/s | 10.7°C | 83.2% | 920hPa | 2.7V | 02:28:44 | 03:34:06 | 00:00:00 | |
| DF8AY | 2026-09-02 01:26:18 | 52.76974 | 11.18354 | 103° | 20km/h | 915m | -6.3m/s | 10.6°C | 84.3% | 918.7hPa | 2.7V | 02:28:44 | 03:34:04 | 00:00:00 | |
| DF8AY | 2026-09-02 01:26:16 | 52.76976 | 11.18337 | 100° | 22km/h | 928m | -6.3m/s | 10.5°C | 84.8% | 917.1hPa | 2.7V | 02:28:44 | 03:34:02 | 00:00:00 | |
| DF8AY | 2026-09-02 01:26:16 | 52.76977 | 11.18328 | 99° | 20km/h | 934m | -6.1m/s | 10.4°C | 85.2% | 916.4hPa | 2.7V | 02:28:44 | 03:34:01 | 00:00:00 | |
| DF8AY | 2026-09-02 01:26:13 | 52.76979 | 11.18311 | 100° | 20km/h | 946m | -6.1m/s | 10.3°C | 85.8% | 915.2hPa | 2.7V | 02:28:44 | 03:33:59 | 00:00:00 | |
| DF8AY | 2026-09-02 01:26:13 | 52.76980 | 11.18303 | 102° | 20km/h | 953m | -6.5m/s | 10.2°C | 86.2% | 914.7hPa | 2.7V | 02:28:44 | 03:33:58 | 00:00:00 | |
| DF8AY | 2026-09-02 01:26:10 | 52.76982 | 11.18286 | 102° | 20km/h | 965m | -6.4m/s | 10.1°C | 86.6% | 913.3hPa | 2.6V | 02:28:44 | 03:33:56 | 00:00:00 | |
| DF8AY | 2026-09-02 01:26:09 | 52.76983 | 11.18277 | 102° | 22km/h | 972m | -6.4m/s | 10.1°C | 86.4% | 912.3hPa | 2.7V | 02:28:44 | 03:33:55 | 00:00:00 | |
| DF8AY | 2026-09-02 01:26:08 | 52.76985 | 11.18268 | 102° | 22km/h | 978m | -6.4m/s | 10°C | 85.9% | 911.7hPa | 2.7V | 02:28:44 | 03:33:54 | 00:00:00 | |
| DF8AY | 2026-09-02 01:26:06 | 52.76987 | 11.18250 | 101° | 22km/h | 991m | -6.4m/s | 10°C | 85% | 910.3hPa | 2.7V | 02:28:44 | 03:33:52 | 00:00:00 | |
| DF8AY | 2026-09-02 01:26:04 | 52.76992 | 11.18196 | 97° | 22km/h | 1028m | -6.3m/s | 9.7°C | 84.5% | 906.1hPa | 2.7V | 02:28:44 | 03:33:46 | 00:00:00 | |
| DF8AY | 2026-09-02 01:26:04 | 52.76992 | 11.18186 | 95° | 22km/h | 1035m | -6.3m/s | 9.6°C | 84.2% | 905.6hPa | 2.7V | 02:28:44 | 03:33:45 | 00:00:00 | |
| DF8AY | 2026-09-02 01:25:57 | 52.76993 | 11.18167 | 96° | 24km/h | 1047m | -6.2m/s | 9.6°C | 81.1% | 904.3hPa | 2.7V | 02:28:44 | 03:33:43 | 00:00:00 | |
| DB0DAN | 2026-09-02 01:25:55 | 52.76994 | 11.18148 | 95° | 22km/h | 1060m | -6.3m/s | 9.5°C | 74.7% | 902.8hPa | 2.7V | 00:00:00 | 00:00:00 | 00:00:00 | |
| DF8AY | 2026-09-02 01:25:55 | 52.76994 | 11.18148 | 95° | 22km/h | 1060m | -6.3m/s | 9.5°C | 80.8% | 902.8hPa | 2.7V | 02:28:44 | 03:33:41 | 00:00:00 | |
| DF8AY | 2026-09-02 01:25:54 | 52.76995 | 11.18139 | 95° | 24km/h | 1066m | -6.2m/s | 9.5°C | 80.8% | 902.1hPa | 2.7V | 02:28:44 | 03:33:40 | 00:00:00 | |
| DF8AY | 2026-09-02 01:25:53 | 52.76995 | 11.18129 | 97° | 24km/h | 1073m | -6.3m/s | 9.4°C | 81% | 901.5hPa | 2.7V | 02:28:44 | 03:33:39 | 00:00:00 | |
| DF8AY | 2026-09-02 01:25:52 | 52.76996 | 11.18120 | 97° | 24km/h | 1079m | -6.4m/s | 9.4°C | 81.1% | 900.9hPa | 2.6V | 02:28:44 | 03:33:38 | 00:00:00 | |
| DF8AY | 2026-09-02 01:25:51 | 52.76997 | 11.18110 | 99° | 24km/h | 1085m | -6.4m/s | 9.3°C | 81.1% | 899.9hPa | 2.6V | 02:28:44 | 03:33:37 | 00:00:00 | |
| DF8AY | 2026-09-02 01:25:49 | 52.76999 | 11.18091 | 99° | 24km/h | 1098m | -6.5m/s | 9.2°C | 81% | 898.8hPa | 2.7V | 02:28:44 | 03:33:35 | 00:00:00 | |
| DF8AY | 2026-09-02 01:25:48 | 52.77000 | 11.18081 | 99° | 24km/h | 1105m | -6.3m/s | 9.2°C | 80.3% | 898hPa | 2.7V | 02:28:44 | 03:33:34 | 00:00:00 | |
| DF8AY | 2026-09-02 01:25:46 | 52.77002 | 11.18061 | 98° | 26km/h | 1117m | -6.5m/s | 9.2°C | 76.7% | 896.6hPa | 2.7V | 02:28:44 | 03:33:32 | 00:00:00 | |
| DF8AY | 2026-09-02 01:25:44 | 52.77003 | 11.18039 | 98° | 26km/h | 1130m | -6.3m/s | 9.1°C | 75.7% | 895.3hPa | 2.7V | 02:28:44 | 03:33:30 | 00:00:00 | |
| DF8AY | 2026-09-02 01:25:43 | 52.77004 | 11.18029 | 97° | 26km/h | 1136m | -6.2m/s | 9.1°C | 76.2% | 894.7hPa | 2.7V | 02:28:44 | 03:33:29 | 00:00:00 | |
| DF8AY | 2026-09-02 01:25:41 | 52.77006 | 11.18007 | 98° | 26km/h | 1148m | -6.1m/s | 9.1°C | 76.1% | 893.2hPa | 2.7V | 02:28:44 | 03:33:27 | 00:00:00 | |
| DB0DAN | 2026-09-02 01:25:40 | 52.77006 | 11.17996 | 98° | 26km/h | 1154m | -6.4m/s | 9.1°C | 70.4% | 892.48hPa | 2.6V | 00:00:00 | 00:00:00 | 00:00:00 | |
| DF8AY | 2026-09-02 01:25:40 | 52.77006 | 11.17996 | 98° | 26km/h | 1154m | -6.4m/s | 9.1°C | 76.2% | 892.5hPa | 2.6V | 02:28:44 | 03:33:26 | 00:00:00 | |
| DF8AY | 2026-09-02 01:25:38 | 52.77008 | 11.17974 | 98° | 26km/h | 1167m | -6.4m/s | 9°C | 75.9% | 891.2hPa | 2.7V | 02:28:44 | 03:33:24 | 00:00:00 | |
| DF8AY | 2026-09-02 01:25:37 | 52.77009 | 11.17963 | 99° | 26km/h | 1173m | -6.3m/s | 9°C | 73.5% | 890.6hPa | 2.7V | 02:28:44 | 03:33:23 | 00:00:00 | |
| DF8AY | 2026-09-02 01:25:36 | 52.77010 | 11.17953 | 99° | 26km/h | 1179m | -6.3m/s | 9°C | 73.9% | 889.8hPa | 2.7V | 02:28:44 | 03:33:22 | 00:00:00 | |
| DF8AY | 2026-09-02 01:25:34 | 52.77014 | 11.17920 | 100° | 26km/h | 1198m | -6.2m/s | 8.9°C | 74% | 887.9hPa | 2.7V | 02:29:35 | 03:33:19 | 00:00:00 | |
| DF8AY | 2026-09-02 01:25:31 | 52.77016 | 11.17899 | 99° | 26km/h | 1211m | -6.3m/s | 8.9°C | 73.3% | 886.6hPa | 2.7V | 02:29:35 | 03:33:17 | 00:00:00 | |
| DF8AY | 2026-09-02 01:25:30 | 52.77017 | 11.17888 | 100° | 26km/h | 1217m | -6.3m/s | 8.9°C | 73.4% | 885.9hPa | 2.7V | 02:29:35 | 03:33:16 | 00:00:00 | |
| DF8AY | 2026-09-02 01:25:29 | 52.77018 | 11.17878 | 99° | 27km/h | 1223m | -6.4m/s | 8.9°C | 73.3% | 885hPa | 2.7V | 02:29:35 | 03:33:15 | 00:00:00 | |
| DF8AY | 2026-09-02 01:25:27 | 52.77020 | 11.17856 | 98° | 27km/h | 1236m | -6.4m/s | 8.9°C | 72.7% | 883.9hPa | 2.7V | 02:29:35 | 03:33:13 | 00:00:00 | |
| DB0DAN | 2026-09-02 01:25:25 | 52.77022 | 11.17834 | 100° | 26km/h | 1248m | -6.4m/s | 8.8°C | 66.7% | 882.44hPa | 2.7V | 00:00:00 | 00:00:00 | 00:00:00 | |
| DF8AY | 2026-09-02 01:25:25 | 52.77022 | 11.17834 | 100° | 26km/h | 1248m | -6.4m/s | 8.8°C | 72.7% | 882.4hPa | 2.7V | 02:29:35 | 03:33:11 | 00:00:00 | |
| DF8AY | 2026-09-02 01:25:24 | 52.77023 | 11.17823 | 100° | 26km/h | 1255m | -6.4m/s | 8.8°C | 72.8% | 881.8hPa | 2.7V | 02:29:35 | 03:33:10 | 00:00:00 | |
| DF8AY | 2026-09-02 01:25:22 | 52.77027 | 11.17792 | 101° | 26km/h | 1273m | -6.3m/s | 8.7°C | 72.5% | 879.7hPa | 2.7V | 02:29:35 | 03:33:07 | 00:00:00 | |
| DF8AY | 2026-09-02 01:25:21 | 52.77032 | 11.17750 | 102° | 26km/h | 1299m | -6.4m/s | 8.7°C | 70.8% | 877hPa | 2.7V | 02:29:35 | 03:33:03 | 00:00:00 | |
| DF8AY | 2026-09-02 01:25:21 | 52.77034 | 11.17739 | 103° | 26km/h | 1306m | -6.5m/s | 8.8°C | 69.8% | 876.3hPa | 2.7V | 02:29:35 | 03:33:02 | 00:00:00 | |
| DF8AY | 2026-09-02 01:25:15 | 52.77035 | 11.17729 | 103° | 27km/h | 1312m | -6.4m/s | 8.8°C | 69.7% | 875.7hPa | 2.7V | 02:29:35 | 03:33:01 | 00:00:00 | |
| DF8AY | 2026-09-02 01:25:14 | 52.77037 | 11.17718 | 105° | 27km/h | 1319m | -6.5m/s | 8.8°C | 68.4% | 875hPa | 2.6V | 02:29:35 | 03:33:00 | 00:00:00 | |
| DF8AY | 2026-09-02 01:25:12 | 52.77040 | 11.17696 | 105° | 27km/h | 1332m | -6.3m/s | 8.8°C | 68% | 873.5hPa | 2.7V | 02:29:35 | 03:32:58 | 00:00:00 | |
| DF8AY | 2026-09-02 01:25:11 | 52.77042 | 11.17686 | 106° | 26km/h | 1338m | -6.5m/s | 8.7°C | 67.9% | 873hPa | 2.7V | 02:29:35 | 03:32:57 | 00:00:00 | |
| DB0DAN | 2026-09-02 01:25:10 | 52.77044 | 11.17675 | 106° | 26km/h | 1344m | -6.4m/s | 8.7°C | 62.1% | 872.36hPa | 2.7V | 00:00:00 | 00:00:00 | 00:00:00 | |
| DM0DOS-11 | 2026-09-02 01:25:09 | 52.77052 | 11.17633 | 108° | 26km/h | 1370m | -6.6m/s | 8.6°C | 62% | 869.5hPa | 2.7V | 02:29:13 | 03:32:52 | 00:00:00 | |
| DM0DOS-11 | 2026-09-02 01:25:09 | 52.77056 | 11.17612 | 108° | 27km/h | 1383m | -6.4m/s | 8.6°C | 61.3% | 868.2hPa | 2.7V | 02:29:15 | 03:32:50 | 00:00:00 | |
| DF8AY | 2026-09-02 01:25:09 | 52.77046 | 11.17665 | 107° | 26km/h | 1351m | -6.5m/s | 8.7°C | 67.9% | 871.7hPa | 2.7V | 02:29:35 | 03:32:55 | 00:00:00 | |
| DF8AY | 2026-09-02 01:25:07 | 52.77050 | 11.17643 | 107° | 26km/h | 1363m | -6.6m/s | 8.6°C | 67.5% | 870.5hPa | 2.7V | 02:29:35 | 03:32:53 | 00:00:00 | |
| DF8AY | 2026-09-02 01:25:07 | 52.77052 | 11.17633 | 108° | 26km/h | 1370m | -6.6m/s | 8.6°C | 67.8% | 869.5hPa | 2.7V | 02:29:35 | 03:32:52 | 00:00:00 | |
| DF8AY | 2026-09-02 01:25:05 | 52.77054 | 11.17622 | 107° | 27km/h | 1376m | -6.5m/s | 8.6°C | 67.6% | 869hPa | 2.7V | 02:29:35 | 03:32:51 | 00:00:00 | |
| DM0DOS-11 | 2026-09-02 01:25:04 | 52.77061 | 11.17590 | 109° | 27km/h | 1396m | -6.6m/s | 8.6°C | 60.9% | 866.8hPa | 2.6V | 02:29:17 | 03:32:48 | 00:00:00 | |
| DM0DOS-11 | 2026-09-02 01:25:04 | 52.77065 | 11.17568 | 108° | 27km/h | 1408m | -6.2m/s | 8.6°C | 60.4% | 865.5hPa | 2.7V | 02:29:19 | 03:32:46 | 00:00:00 | |
| DF8AY | 2026-09-02 01:25:03 | 52.77058 | 11.17601 | 109° | 27km/h | 1390m | -6.4m/s | 8.6°C | 67.2% | 867.6hPa | 2.7V | 02:29:35 | 03:32:49 | 00:00:00 | |
| DF8AY | 2026-09-02 01:25:01 | 52.77063 | 11.17580 | 109° | 27km/h | 1402m | -6.4m/s | 8.6°C | 66.9% | 866.2hPa | 2.7V | 02:29:35 | 03:32:47 | 00:00:00 | |
| DF8AY | 2026-09-02 01:25:00 | 52.77065 | 11.17569 | 108° | 27km/h | 1408m | -6.2m/s | 8.6°C | 66.4% | 865.5hPa | 2.7V | 02:29:35 | 03:32:46 | 00:00:00 | |
| DF8AY | 2026-09-02 01:24:58 | 52.77070 | 11.17546 | 108° | 27km/h | 1421m | -6.6m/s | 8.6°C | 65% | 864.4hPa | 2.7V | 02:29:35 | 03:32:44 | 00:00:00 | |
| DF8AY | 2026-09-02 01:24:57 | 52.77072 | 11.17535 | 109° | 29km/h | 1427m | -6.5m/s | 8.5°C | 65.2% | 863.6hPa | 2.7V | 02:29:35 | 03:32:43 | 00:00:00 | |
| DF8AY | 2026-09-02 01:24:55 | 52.77076 | 11.17512 | 108° | 27km/h | 1440m | -6.6m/s | 8.5°C | 64.1% | 862.2hPa | 2.7V | 02:29:35 | 03:32:41 | 00:00:00 | |
| DM0DOS-11 | 2026-09-02 01:24:55 | 52.77083 | 11.17479 | 108° | 27km/h | 1460m | -6.7m/s | 8.4°C | 57.4% | 860.2hPa | 2.7V | 02:29:27 | 03:32:38 | 00:00:00 | |
| DM0DOS-11 | 2026-09-02 01:24:55 | 52.77087 | 11.17457 | 106° | 27km/h | 1473m | -6.3m/s | 8.4°C | 58.8% | 858.8hPa | 2.7V | 02:29:29 | 03:32:36 | 00:00:00 | |
| DF8AY | 2026-09-02 01:24:54 | 52.77079 | 11.17501 | 109° | 27km/h | 1447m | -6.8m/s | 8.5°C | 63.8% | 861.6hPa | 2.7V | 02:29:35 | 03:32:40 | 00:00:00 | |
| DF8AY | 2026-09-02 01:24:53 | 52.77081 | 11.17490 | 108° | 27km/h | 1453m | -6.7m/s | 8.4°C | 63.6% | 860.9hPa | 2.7V | 02:29:35 | 03:32:39 | 00:00:00 | |
| DF8AY | 2026-09-02 01:24:51 | 52.77085 | 11.17468 | 108° | 27km/h | 1466m | -6.5m/s | 8.4°C | 64.9% | 859.5hPa | 2.7V | 02:29:35 | 03:32:37 | 00:00:00 | |
| DF8AY | 2026-09-02 01:24:49 | 52.77090 | 11.17446 | 106° | 27km/h | 1479m | -6.5m/s | 8.4°C | 64.8% | 858.3hPa | 2.7V | 02:29:35 | 03:32:35 | 00:00:00 | |
| DM0DOS-11 | 2026-09-02 01:24:49 | 52.77092 | 11.17435 | 105° | 27km/h | 1486m | -6.5m/s | 8.3°C | 58.6% | 857.6hPa | 2.7V | 02:29:31 | 03:32:34 | 00:00:00 | |
| DF8AY | 2026-09-02 01:24:47 | 52.77093 | 11.17424 | 106° | 27km/h | 1492m | -6.3m/s | 8.3°C | 64.7% | 857hPa | 2.6V | 02:29:35 | 03:32:33 | 00:00:00 | |
| DF8AY | 2026-09-02 01:24:45 | 52.77097 | 11.17402 | 107° | 27km/h | 1505m | -6.6m/s | 8.3°C | 63.7% | 855.7hPa | 2.7V | 02:29:35 | 03:32:31 | 00:00:00 | |
| DF8AY | 2026-09-02 01:24:43 | 52.77102 | 11.17379 | 107° | 29km/h | 1518m | -6.4m/s | 8.3°C | 63.9% | 854.3hPa | 2.7V | 02:30:26 | 03:32:29 | 00:00:00 | |
| DM0DOS-11 | 2026-09-02 01:24:43 | 52.77108 | 11.17344 | 107° | 29km/h | 1537m | -6.4m/s | 8.1°C | 58% | 852.2hPa | 2.6V | 02:29:39 | 03:32:26 | 00:00:00 | |
| DF8AY | 2026-09-02 01:24:41 | 52.77106 | 11.17356 | 108° | 29km/h | 1531m | -6.3m/s | 8.2°C | 64.1% | 853hPa | 2.7V | 02:30:26 | 03:32:27 | 00:00:00 | |
| DF8AY | 2026-09-02 01:24:40 | 52.77108 | 11.17344 | 108° | 29km/h | 1537m | -6.4m/s | 8.1°C | 64.2% | 852.2hPa | 2.6V | 02:30:26 | 03:32:26 | 00:00:00 | |
| DF8AY | 2026-09-02 01:24:39 | 52.77110 | 11.17333 | 108° | 29km/h | 1543m | -6.6m/s | 8.1°C | 64.2% | 851.6hPa | 2.7V | 02:30:26 | 03:32:25 | 00:00:00 | |
| DF8AY | 2026-09-02 01:24:38 | 52.77113 | 11.17321 | 108° | 29km/h | 1550m | -6.6m/s | 8°C | 64.3% | 851.1hPa | 2.7V | 02:30:26 | 03:32:24 | 00:00:00 | |
| DF8AY | 2026-09-02 01:24:37 | 52.77115 | 11.17309 | 107° | 29km/h | 1556m | -6.6m/s | 8°C | 64.6% | 850.3hPa | 2.7V | 02:30:26 | 03:32:23 | 00:00:00 | |
| DF8AY | 2026-09-02 01:24:35 | 52.77119 | 11.17285 | 106° | 31km/h | 1569m | -6.3m/s | 7.9°C | 64.9% | 849.1hPa | 2.7V | 02:30:26 | 03:32:21 | 00:00:00 | |
| DF8AY | 2026-09-02 01:24:33 | 52.77123 | 11.17261 | 106° | 31km/h | 1582m | -6.4m/s | 7.8°C | 65% | 847.5hPa | 2.7V | 02:30:26 | 03:32:19 | 00:00:00 | |
| DF8AY | 2026-09-02 01:24:31 | 52.77128 | 11.17236 | 107° | 29km/h | 1595m | -6.5m/s | 7.8°C | 64.9% | 846.4hPa | 2.6V | 02:30:26 | 03:32:17 | 00:00:00 | |
| DF8AY | 2026-09-02 01:24:30 | 52.77130 | 11.17225 | 108° | 29km/h | 1601m | -6.5m/s | 7.7°C | 64.8% | 845.6hPa | 2.6V | 02:30:26 | 03:32:16 | 00:00:00 | |
| DF8AY | 2026-09-02 01:24:29 | 52.77132 | 11.17212 | 106° | 31km/h | 1608m | -6.5m/s | 7.7°C | 64.4% | 845.1hPa | 2.7V | 02:30:26 | 03:32:15 | 00:00:00 | |
| DF8AY | 2026-09-02 01:24:28 | 52.77135 | 11.17200 | 107° | 31km/h | 1614m | -6.4m/s | 7.7°C | 64.2% | 844.4hPa | 2.7V | 02:30:26 | 03:32:14 | 00:00:00 | |
| DF8AY | 2026-09-02 01:24:26 | 52.77139 | 11.17175 | 105° | 31km/h | 1627m | -6.5m/s | 7.6°C | 63.8% | 842.9hPa | 2.7V | 02:30:26 | 03:32:12 | 00:00:00 | |
| DB0DAN | 2026-09-02 01:24:25 | 52.77141 | 11.17162 | 104° | 31km/h | 1633m | -6.6m/s | 7.6°C | 56.8% | 842.51hPa | 2.7V | 00:00:00 | 00:00:00 | 00:00:00 | |
| DF8AY | 2026-09-02 01:24:25 | 52.77141 | 11.17162 | 104° | 33km/h | 1633m | -6.6m/s | 7.6°C | 63.3% | 842.5hPa | 2.7V | 02:30:26 | 03:32:11 | 00:00:00 | |
| DF8AY | 2026-09-02 01:24:23 | 52.77145 | 11.17136 | 103° | 31km/h | 1646m | -6.3m/s | 7.5°C | 62.6% | 841.1hPa | 2.7V | 02:30:26 | 03:32:09 | 00:00:00 | |
| DF8AY | 2026-09-02 01:24:22 | 52.77147 | 11.17123 | 104° | 31km/h | 1653m | -6.5m/s | 7.4°C | 62.4% | 840.4hPa | 2.7V | 02:30:26 | 03:32:08 | 00:00:00 | |
| DF8AY | 2026-09-02 01:24:20 | 52.77159 | 11.17050 | 106° | 31km/h | 1692m | -6.4m/s | 7.4°C | 64.1% | 836.3hPa | 2.7V | 02:30:26 | 03:32:02 | 00:00:00 | |
| DF8AY | 2026-09-02 01:24:20 | 52.77161 | 11.17038 | 105° | 31km/h | 1699m | -6.4m/s | 7.4°C | 63.2% | 835.7hPa | 2.7V | 02:30:26 | 03:32:01 | 00:00:00 | |
| DF8AY | 2026-09-02 01:24:13 | 52.77165 | 11.17013 | 104° | 31km/h | 1712m | -6.5m/s | 7.3°C | 62.8% | 834.3hPa | 2.7V | 02:30:26 | 03:31:59 | 00:00:00 | |
| DF8AY | 2026-09-02 01:24:13 | 52.77167 | 11.17000 | 103° | 31km/h | 1718m | -6.6m/s | 7.3°C | 61.6% | 833.8hPa | 2.7V | 02:30:26 | 03:31:58 | 00:00:00 | |
| DB0DAN | 2026-09-02 01:24:10 | 52.77170 | 11.16974 | 103° | 29km/h | 1731m | -6.7m/s | 7.2°C | 55.3% | 832.41hPa | 2.6V | 00:00:00 | 00:00:00 | 00:00:00 | |
| DF8AY | 2026-09-02 01:24:10 | 52.77170 | 11.16974 | 103° | 31km/h | 1731m | -6.7m/s | 7.2°C | 61.6% | 832.4hPa | 2.6V | 02:30:26 | 03:31:56 | 00:00:00 | |
| DF8AY | 2026-09-02 01:24:09 | 52.77172 | 11.16962 | 103° | 31km/h | 1738m | -6.7m/s | 7.2°C | 61.7% | 831.8hPa | 2.7V | 02:30:26 | 03:31:55 | 00:00:00 | |
| DF8AY | 2026-09-02 01:24:07 | 52.77175 | 11.16937 | 101° | 29km/h | 1751m | -6.7m/s | 7.3°C | 59.2% | 830.5hPa | 2.7V | 02:30:26 | 03:31:53 | 00:00:00 | |
| DF8AY | 2026-09-02 01:24:06 | 52.77176 | 11.16924 | 100° | 29km/h | 1757m | -6.6m/s | 7.2°C | 58.5% | 829.8hPa | 2.7V | 02:30:26 | 03:31:52 | 00:00:00 | |
| DF8AY | 2026-09-02 01:24:05 | 52.77178 | 11.16912 | 100° | 29km/h | 1764m | -6.7m/s | 7.2°C | 58.4% | 829hPa | 2.7V | 02:30:26 | 03:31:51 | 00:00:00 | |
| DF8AY | 2026-09-02 01:24:03 | 52.77185 | 11.16840 | 99° | 29km/h | 1804m | -6.6m/s | 7°C | 60.4% | 825.1hPa | 2.6V | 02:30:26 | 03:31:45 | 00:00:00 | |
| DF8AY | 2026-09-02 01:24:03 | 52.77186 | 11.16828 | 99° | 27km/h | 1810m | -6.7m/s | 6.9°C | 60.4% | 824.5hPa | 2.7V | 02:30:26 | 03:31:44 | 00:00:00 | |
| DM0DOS-11 | 2026-09-02 01:24:03 | 52.77186 | 11.16828 | 99° | 27km/h | 1810m | -6.7m/s | 6.9°C | 54.1% | 824.5hPa | 2.7V | 02:30:21 | 03:31:44 | 00:00:00 | |
| AM1SDL-15 | 2026-09-02 01:24:01 | 52.77182 | 11.16864 | 100° | 29km/h | 1791m | -6.6m/s | 7.0°C | 55.1% | 826.4hPa | 2.7V | 02:30:00 | 03:31:47 | 00:00:00 | |
| DF8AY-15 | 2026-09-02 01:23:59 | 52.77185 | 11.16840 | 100° | 29km/h | 1804m | -6.6m/s | 6.9°C | 54.0% | 825.1hPa | 2.6V | 02:30:00 | 03:31:45 | 00:00:00 | |
| DM0DOS-11 | 2026-09-02 01:23:58 | 52.77191 | 11.16769 | 97° | 29km/h | 1843m | -6.6m/s | 6.8°C | 52.5% | 821.2hPa | 2.7V | 02:30:26 | 03:31:39 | 00:00:00 | |
| DF8AY | 2026-09-02 01:23:56 | 52.77188 | 11.16804 | 99° | 27km/h | 1823m | -6.9m/s | 6.8°C | 60% | 823.1hPa | 2.7V | 02:30:26 | 03:31:42 | 00:00:00 | |
| DB0DAN | 2026-09-02 01:23:55 | 52.77189 | 11.16793 | 99° | 27km/h | 1830m | -6.7m/s | 6.8°C | 52.9% | 822.29hPa | 2.7V | 00:00:00 | 00:00:00 | 00:00:00 | |
| DF8AY | 2026-09-02 01:23:54 | 52.77190 | 11.16781 | 98° | 29km/h | 1836m | -6.7m/s | 6.8°C | 59.1% | 821.8hPa | 2.6V | 02:30:26 | 03:31:40 | 00:00:00 | |
| EDDB2-12 | 2026-09-02 01:23:54 | 52.77195 | 11.16709 | 94° | 29km/h | 1876m | -6.7m/s | 6.6°C | 48.7% | 818.0hPa | 2.7V | 00:00:00 | 00:00:00 | 00:00:00 | |
| DM0DOS-11 | 2026-09-02 01:23:52 | 52.77193 | 11.16745 | 95° | 29km/h | 1856m | -6.5m/s | 6.7°C | 51.9% | 819.8hPa | 2.7V | 02:30:28 | 03:31:37 | 00:00:00 | |
| DF8AY | 2026-09-02 01:23:52 | 52.77192 | 11.16757 | 98° | 29km/h | 1850m | -6.7m/s | 6.7°C | 58.3% | 820.4hPa | 2.7V | 02:31:17 | 03:31:38 | 00:00:00 | |
| DF8AY | 2026-09-02 01:23:51 | 52.77193 | 11.16745 | 96° | 29km/h | 1856m | -6.5m/s | 6.7°C | 58% | 819.8hPa | 2.7V | 02:31:17 | 03:31:37 | 00:00:00 | |
| DF8AY | 2026-09-02 01:23:50 | 52.77194 | 11.16733 | 96° | 29km/h | 1863m | -6.6m/s | 6.6°C | 57.6% | 819.1hPa | 2.7V | 02:31:17 | 03:31:36 | 00:00:00 | |
| DF8AY | 2026-09-02 01:23:48 | 52.77195 | 11.16709 | 94° | 29km/h | 1876m | -6.7m/s | 6.6°C | 55.1% | 818hPa | 2.7V | 02:31:17 | 03:31:34 | 00:00:00 | |
| DF8AY | 2026-09-02 01:23:46 | 52.77196 | 11.16684 | 93° | 29km/h | 1890m | -6.6m/s | 6.6°C | 53.6% | 816.5hPa | 2.6V | 02:31:17 | 03:31:32 | 00:00:00 | |
| DM0DOS-11 | 2026-09-02 01:23:46 | 52.77197 | 11.16648 | 93° | 27km/h | 1909m | -6.7m/s | 6.6°C | 45.3% | 814.6hPa | 2.7V | 02:30:36 | 03:31:29 | 00:00:00 | |
| DM0DOS-11 | 2026-09-02 01:23:46 | 52.77198 | 11.16624 | 92° | 29km/h | 1922m | -6.8m/s | 6.5°C | 44.5% | 813.2hPa | 2.7V | 02:30:38 | 03:31:27 | 00:00:00 | |
| DF8AY | 2026-09-02 01:23:45 | 52.77196 | 11.16672 | 93° | 29km/h | 1896m | -6.7m/s | 6.6°C | 53.6% | 815.9hPa | 2.6V | 02:31:17 | 03:31:31 | 00:00:00 | |
| DF8AY | 2026-09-02 01:23:44 | 52.77197 | 11.16660 | 93° | 29km/h | 1903m | -6.8m/s | 6.6°C | 52.3% | 815.2hPa | 2.7V | 02:31:17 | 03:31:30 | 00:00:00 | |
| DF8AY | 2026-09-02 01:23:43 | 52.77197 | 11.16648 | 94° | 27km/h | 1909m | -6.7m/s | 6.6°C | 51.4% | 814.6hPa | 2.7V | 02:31:17 | 03:31:29 | 00:00:00 | |
| DF8AY | 2026-09-02 01:23:41 | 52.77198 | 11.16624 | 92° | 29km/h | 1923m | -6.8m/s | 6.5°C | 50.5% | 813.2hPa | 2.7V | 02:31:17 | 03:31:27 | 00:00:00 | |
| DB0DAN | 2026-09-02 01:23:40 | 52.77199 | 11.16612 | 93° | 27km/h | 1929m | -6.6m/s | 6.5°C | 44.6% | 812.56hPa | 2.7V | 00:00:00 | 00:00:00 | 00:00:00 | |
| DF8AY | 2026-09-02 01:23:40 | 52.77199 | 11.16612 | 93° | 29km/h | 1929m | -6.6m/s | 6.5°C | 50.9% | 812.6hPa | 2.7V | 02:31:17 | 03:31:26 | 00:00:00 | |
| DM0DOS-11 | 2026-09-02 01:23:40 | 52.77199 | 11.16600 | 92° | 29km/h | 1935m | -6.5m/s | 6.4°C | 43.8% | 811.8hPa | 2.7V | 02:30:40 | 03:31:25 | 00:00:00 | |
| DL1XH-15 | 2026-09-02 01:23:40 | 52.77199 | 11.16575 | 90° | 29km/h | 1949m | -6.8m/s | 6.4°C | 43.6% | 810.5hPa | 2.6V | 02:30:42 | 03:31:23 | 00:00:00 | |
| DF8AY | 2026-09-02 01:23:39 | 52.77199 | 11.16600 | 92° | 29km/h | 1935m | -6.5m/s | 6.4°C | 49.7% | 811.8hPa | 2.7V | 02:31:17 | 03:31:25 | 00:00:00 | |
| DF8AY | 2026-09-02 01:23:38 | 52.77199 | 11.16587 | 91° | 29km/h | 1942m | -6.7m/s | 6.4°C | 49.5% | 811.3hPa | 2.7V | 02:31:17 | 03:31:24 | 00:00:00 | |
| DF8AY | 2026-09-02 01:23:36 | 52.77199 | 11.16562 | 91° | 29km/h | 1956m | -7m/s | 6.3°C | 52.4% | 809.9hPa | 2.6V | 02:31:17 | 03:31:22 | 00:00:00 | |
| DL1XH-15 | 2026-09-02 01:23:35 | 52.77199 | 11.16512 | 88° | 31km/h | 1982m | -6.6m/s | 6.1°C | 47.9% | 807.4hPa | 2.7V | 02:30:47 | 03:31:18 | 00:00:00 | |
| DL1XH-15 | 2026-09-02 01:23:35 | 52.77199 | 11.16486 | 88° | 31km/h | 1995m | -6.8m/s | 6°C | 48.2% | 806hPa | 2.7V | 02:30:49 | 03:31:16 | 00:00:00 | |
| DM0DOS-11 | 2026-09-02 01:23:34 | 52.77199 | 11.16524 | 90° | 31km/h | 1975m | -6.9m/s | 6.2°C | 48.2% | 808.1hPa | 2.7V | 02:30:46 | 03:31:19 | 00:00:00 | |
| DM0DOS-11 | 2026-09-02 01:23:34 | 52.77199 | 11.16499 | 90° | 31km/h | 1989m | -6.5m/s | 6.1°C | 47.8% | 806.7hPa | 2.7V | 02:30:48 | 03:31:17 | 00:00:00 | |
| DM0DOS-11 | 2026-09-02 01:23:34 | 52.77199 | 11.16473 | 87° | 31km/h | 2002m | -6.7m/s | 6°C | 49.1% | 805.5hPa | 2.7V | 02:30:50 | 03:31:15 | 00:00:00 | |
| DF8AY | 2026-09-02 01:23:34 | 52.77199 | 11.16537 | 90° | 31km/h | 1969m | -6.8m/s | 6.2°C | 54.6% | 808.6hPa | 2.7V | 02:31:17 | 03:31:20 | 00:00:00 | |
| DF8AY | 2026-09-02 01:23:33 | 52.77199 | 11.16524 | 90° | 31km/h | 1976m | -6.9m/s | 6.2°C | 54.4% | 808.1hPa | 2.7V | 02:31:17 | 03:31:19 | 00:00:00 | |
| DF8AY | 2026-09-02 01:23:31 | 52.77199 | 11.16499 | 90° | 31km/h | 1989m | -6.5m/s | 6.1°C | 53.9% | 806.7hPa | 2.7V | 02:31:17 | 03:31:17 | 00:00:00 | |
| DL1XH-15 | 2026-09-02 01:23:30 | 52.77198 | 11.16421 | 86° | 31km/h | 2029m | -6.7m/s | 5.8°C | 50.6% | 802.7hPa | 2.7V | 02:30:54 | 03:31:11 | 00:00:00 | |
| AA1-15 | 2026-09-02 01:23:30 | 52.77199 | 11.16486 | 89° | 31km/h | 1995m | -6.8m/s | 6°C | 54.3% | 806hPa | 2.7V | 02:32:08 | 03:31:16 | 00:00:00 | |
| DF8AY | 2026-09-02 01:23:29 | 52.77199 | 11.16473 | 88° | 31km/h | 2002m | -6.7m/s | 6°C | 55.3% | 805.5hPa | 2.7V | 02:31:17 | 03:31:15 | 00:00:00 | |
| DF8AY-15 | 2026-09-02 01:23:29 | 52.77199 | 11.16473 | 88° | 33km/h | 2002m | -6.7m/s | 5.9°C | 49.1% | 805.4hPa | 2.7V | 02:30:00 | 03:31:15 | 00:00:00 | |
| DF7ER-10 | 2026-09-02 01:23:26 | 52.77198 | 11.16447 | 89° | 31km/h | 2015m | -6.8m/s | 5.9°C | 50.4% | 804.1hPa | 2.7V | 02:31:00 | 00:00:00 | 00:00:00 | |
| DB0DAN | 2026-09-02 01:23:25 | 52.77198 | 11.16421 | 86° | 29km/h | 2029m | -6.7m/s | 5.8°C | 50.2% | 802.73hPa | 2.7V | 00:00:00 | 00:00:00 | 00:00:00 | |
| DL1XH-15 | 2026-09-02 01:23:25 | 52.77194 | 11.16354 | 84° | 33km/h | 2061m | -6.6m/s | 5.6°C | 50.6% | 799.5hPa | 2.7V | 02:30:59 | 03:31:06 | 00:00:00 | |
| DM0DOS-11 | 2026-09-02 01:23:24 | 52.77193 | 11.16340 | 84° | 33km/h | 2068m | -6.6m/s | 5.5°C | 50.4% | 798.7hPa | 2.6V | 02:31:00 | 03:31:05 | 00:00:00 | |
| AA1-15 | 2026-09-02 01:23:22 | 52.77196 | 11.16381 | 84° | 33km/h | 2048m | -6.6m/s | 5.6°C | 57.1% | 800.9hPa | 2.7V | 02:32:08 | 03:31:08 | 00:00:00 | |
| DL1XH-15 | 2026-09-02 01:23:20 | 52.77190 | 11.16284 | 84° | 35km/h | 2094m | -6.7m/s | 5.3°C | 51.1% | 796.3hPa | 2.7V | 02:31:04 | 03:31:01 | 00:00:00 | |
| DF8AY | 2026-09-02 01:23:19 | 52.77193 | 11.16340 | 85° | 33km/h | 2068m | -6.6m/s | 5.5°C | 56.5% | 798.7hPa | 2.6V | 02:31:17 | 03:31:05 | 00:00:00 | |
| DF7ER-10 | 2026-09-02 01:23:15 | 52.77191 | 11.16298 | 86° | 35km/h | 2088m | -6.8m/s | 5.4°C | 50.6% | 796.9hPa | 2.7V | 02:31:00 | 00:00:00 | 00:00:00 | |
| DM0DOS-11 | 2026-09-02 01:23:14 | 52.77184 | 11.16197 | 82° | 35km/h | 2134m | -6.7m/s | 5.1°C | 48.8% | 792.4hPa | 2.7V | 02:31:10 | 03:30:55 | 00:00:00 | |
| AM1SDL-15 | 2026-09-02 01:23:13 | 52.77188 | 11.16255 | 85° | 35km/h | 2108m | -6.9m/s | 5.2°C | 51.6% | 794.9hPa | 2.7V | 00:00:00 | 03:30:59 | 00:00:00 | |
| DB0DAN | 2026-09-02 01:23:10 | 52.77185 | 11.16212 | 82° | 33km/h | 2128m | -6.7m/s | 5.1°C | 49.6% | 792.96hPa | 2.7V | 00:00:00 | 00:00:00 | 00:00:00 | |
| DF8AY | 2026-09-02 01:23:08 | 52.77183 | 11.16183 | 82° | 35km/h | 2141m | -6.6m/s | 5.1°C | 54% | 791.9hPa | 2.7V | 02:31:17 | 03:30:54 | 00:00:00 | |
| DL1XH-15 | 2026-09-02 01:23:08 | 52.77179 | 11.16112 | 86° | 35km/h | 2175m | -7.1m/s | 4.9°C | 55.7% | 788.5hPa | 2.7V | 02:31:16 | 03:30:49 | 00:00:00 | |
| DF7ER-10 | 2026-09-02 01:23:05 | 52.77181 | 11.16155 | 85° | 35km/h | 2154m | -6.7m/s | 5.0°C | 52.4% | 790.5hPa | 2.7V | 02:31:00 | 00:00:00 | 00:00:00 | |
| DM0DOS-11 | 2026-09-02 01:23:04 | 52.77176 | 11.16051 | 85° | 37km/h | 2202m | -6.7m/s | 4.9°C | 54.3% | 786hPa | 2.7V | 02:31:20 | 03:30:45 | 00:00:00 | |
| DF8AY | 2026-09-02 01:22:58 | 52.77175 | 11.16036 | 85° | 37km/h | 2208m | -6.8m/s | 4.9°C | 60.9% | 785.2hPa | 2.7V | 02:32:08 | 03:30:44 | 00:00:00 | |
| DB0DAN | 2026-09-02 01:22:55 | 52.77173 | 11.15990 | 84° | 35km/h | 2228m | -6.7m/s | 4.8°C | 53.3% | 783.34hPa | 2.7V | 00:00:00 | 00:00:00 | 00:00:00 | |
| DF7ER-10 | 2026-09-02 01:22:54 | 52.77172 | 11.15990 | 85° | 37km/h | 2228m | -6.7m/s | 4.8°C | 53.3% | 783.3hPa | 2.6V | 02:32:00 | 00:00:00 | 00:00:00 | |
| DL1XH-15 | 2026-09-02 01:22:53 | 52.77166 | 11.15883 | 85° | 38km/h | 2275m | -7m/s | 4.6°C | 52.6% | 778.8hPa | 2.6V | 02:31:31 | 03:30:34 | 00:00:00 | |
| DF8AY | 2026-09-02 01:22:53 | 52.77166 | 11.15883 | 85° | 38km/h | 2276m | -7m/s | 4.6°C | 59.3% | 778.8hPa | 2.6V | 02:32:08 | 03:30:34 | 00:00:00 | |
| EDDB2-12 | 2026-09-02 01:22:51 | 52.77169 | 11.15930 | 85° | 35km/h | 2255m | -6.7m/s | 4.7°C | 53.3% | 780.7hPa | 2.7V | 00:00:00 | 00:00:00 | 00:00:00 | |
| DO2SHX-10 | 2026-09-02 01:22:50 | 52.77168 | 11.15914 | 85° | 38km/h | 2262m | -6.8m/s | 4.6°C | 53.4% | 780.1hPa | 2.7V | 00:00:00 | 03:30:36 | 00:00:00 | |
| DM0DOS-11 | 2026-09-02 01:22:49 | 52.77163 | 11.15819 | 83° | 38km/h | 2302m | -6.8m/s | 4.4°C | 52.8% | 776.2hPa | 2.7V | 02:31:35 | 03:30:30 | 00:00:00 | |
| DF8AY-15 | 2026-09-02 01:22:49 | 52.77167 | 11.15899 | 85° | 38km/h | 2269m | -6.7m/s | 4.6°C | 52.9% | 779.3hPa | 2.7V | 00:00:00 | 03:30:35 | 00:00:00 | |
| DL1XH-15 | 2026-09-02 01:22:43 | 52.77156 | 11.15723 | 83° | 38km/h | 2343m | -7m/s | 4.1°C | 53.5% | 772.4hPa | 2.7V | 02:31:41 | 03:30:24 | 00:00:00 | |
| AA1-15 | 2026-09-02 01:22:42 | 52.77160 | 11.15787 | 83° | 38km/h | 2316m | -6.5m/s | 4.3°C | 59.7% | 774.9hPa | 2.7V | 02:32:08 | 03:30:28 | 00:00:00 | |
| DB0DAN | 2026-09-02 01:22:40 | 52.77158 | 11.15755 | 83° | 37km/h | 2329m | -7m/s | 4.2°C | 52.8% | 773.79hPa | 2.6V | 00:00:00 | 00:00:00 | 00:00:00 | |
| DM0DOS-11 | 2026-09-02 01:22:39 | 52.77151 | 11.15658 | 82° | 40km/h | 2370m | -6.6m/s | 4°C | 53.9% | 769.9hPa | 2.6V | 02:31:45 | 03:30:20 | 00:00:00 | |
| DL1XH-15 | 2026-09-02 01:22:38 | 52.77150 | 11.15641 | 83° | 40km/h | 2376m | -6.9m/s | 4°C | 53.9% | 769.1hPa | 2.7V | 02:31:46 | 03:30:19 | 00:00:00 | |
| DF8AY | 2026-09-02 01:22:38 | 52.77156 | 11.15723 | 83° | 38km/h | 2343m | -7m/s | 4.1°C | 60.1% | 772.4hPa | 2.7V | 02:32:08 | 03:30:24 | 00:00:00 | |
| BIOWL1-15 | 2026-09-02 01:22:35 | 52.77150 | 11.15641 | 83° | 40km/h | 2376m | -6.9m/s | 4°C | 60.6% | 769.1hPa | 2.7V | 02:32:08 | 03:30:19 | 00:00:00 | |
| DL1XH-15 | 2026-09-02 01:22:33 | 52.77144 | 11.15559 | 83° | 38km/h | 2410m | -6.8m/s | 3.7°C | 53.3% | 765.8hPa | 2.6V | 02:31:51 | 03:30:14 | 00:00:00 | |
| DF7ER-10 | 2026-09-02 01:22:32 | 52.77150 | 11.15641 | 84° | 40km/h | 2376m | -6.9m/s | 4.0°C | 53.4% | 769.1hPa | 2.6V | 02:32:00 | 00:00:00 | 00:00:00 | |
| SONDE2-11 | 2026-09-02 01:22:31 | 52.77146 | 11.15592 | 83° | 38km/h | 2397m | -6.8m/s | 3.9°C | 52.3% | 767.3hPa | 2.6V | 00:00:00 | 00:00:00 | 00:00:00 | |
| DO2SHX-10 | 2026-09-02 01:22:30 | 52.77146 | 11.15592 | 84° | 40km/h | 2397m | -6.8m/s | 3.8°C | 52.8% | 767.2hPa | 2.6V | 00:00:00 | 03:30:16 | 00:00:00 | |
| DM0DOS-11 | 2026-09-02 01:22:29 | 52.77140 | 11.15494 | 85° | 40km/h | 2438m | -7m/s | 3.5°C | 53.9% | 763.5hPa | 2.6V | 02:31:55 | 03:30:10 | 00:00:00 | |
| DF8AY | 2026-09-02 01:22:27 | 52.77143 | 11.15543 | 84° | 40km/h | 2417m | -6.8m/s | 3.7°C | 60.1% | 765.3hPa | 2.7V | 02:32:08 | 03:30:13 | 00:00:00 | |
| DL1XH-15 | 2026-09-02 01:22:27 | 52.77138 | 11.15460 | 85° | 40km/h | 2451m | -6.9m/s | 3.4°C | 54.1% | 762.2hPa | 2.7V | 02:31:57 | 03:30:08 | 00:00:00 | |
| DL1XH-west | 2026-09-02 01:22:26 | 52.77142 | 11.15526 | 84° | 38km/h | 2424m | -6.8m/s | 3.6°C | 60.3% | 764.6hPa | 2.6V | 02:32:08 | 03:30:12 | 00:00:00 | |
| BIOWL1-15 | 2026-09-02 01:22:25 | 52.77139 | 11.15477 | 85° | 40km/h | 2445m | -6.7m/s | 3.5°C | 60.7% | 762.7hPa | 2.6V | 02:32:08 | 03:30:09 | 00:00:00 | |
| DM0DOS-11 | 2026-09-02 01:22:24 | 52.77135 | 11.15409 | 84° | 42km/h | 2472m | -6.8m/s | 3.2°C | 54.6% | 760.4hPa | 2.6V | 02:32:00 | 03:30:05 | 00:00:00 | |
| DL1XH-15 | 2026-09-02 01:22:22 | 52.77134 | 11.15374 | 83° | 42km/h | 2485m | -6.7m/s | 3.1°C | 54.3% | 759.1hPa | 2.6V | 02:32:02 | 03:30:03 | 00:00:00 | |
| DF7ER-10 | 2026-09-02 01:22:21 | 52.77138 | 11.15460 | 86° | 40km/h | 2451m | -6.9m/s | 3.4°C | 53.6% | 762.2hPa | 2.7V | 02:32:00 | 00:00:00 | 00:00:00 | |
| DO2SHX-10 | 2026-09-02 01:22:20 | 52.77136 | 11.15426 | 85° | 42km/h | 2465m | -6.7m/s | 3.2°C | 54.5% | 760.9hPa | 2.7V | 00:00:00 | 03:30:06 | 00:00:00 | |
| DM0DOS-11 | 2026-09-02 01:22:19 | 52.77131 | 11.15322 | 84° | 42km/h | 2505m | -6.7m/s | 3°C | 51.8% | 757.1hPa | 2.7V | 02:32:05 | 03:30:00 | 00:00:00 | |
| DL1XH-15 | 2026-09-02 01:22:17 | 52.77129 | 11.15287 | 84° | 42km/h | 2519m | -6.8m/s | 2.9°C | 53.7% | 755.8hPa | 2.7V | 02:32:07 | 03:29:58 | 00:00:00 | |
| DF8AY | 2026-09-02 01:22:16 | 52.77132 | 11.15357 | 84° | 42km/h | 2492m | -6.9m/s | 3.1°C | 60.6% | 758.4hPa | 2.6V | 02:32:08 | 03:30:02 | 00:00:00 | |
| DL1XH1-15 | 2026-09-02 01:22:15 | 52.77127 | 11.15252 | 85° | 42km/h | 2532m | -7m/s | 2.8°C | 54.7% | 754.7hPa | 2.6V | 02:32:09 | 03:29:56 | 00:00:00 | |
| DM0DOS-11 | 2026-09-02 01:22:14 | 52.77126 | 11.15235 | 84° | 42km/h | 2539m | -6.7m/s | 2.8°C | 54.8% | 754.1hPa | 2.6V | 02:32:10 | 03:29:55 | 00:00:00 | |
| DL1XH-west | 2026-09-02 01:22:13 | 52.77129 | 11.15305 | 85° | 42km/h | 2512m | -6.8m/s | 3°C | 58.8% | 756.4hPa | 2.6V | 02:32:08 | 03:29:59 | 00:00:00 | |
| DL1XH-15 | 2026-09-02 01:22:12 | 52.77124 | 11.15199 | 85° | 42km/h | 2552m | -7m/s | 2.7°C | 55% | 752.7hPa | 2.6V | 02:32:12 | 03:29:53 | 00:00:00 | |
| DB0DAN | 2026-09-02 01:22:10 | 52.77127 | 11.15252 | 85° | 40km/h | 2532m | -7m/s | 2.8°C | 54.1% | 754.69hPa | 2.6V | 00:00:00 | 00:00:00 | 00:00:00 | |
| DL1XH1-15 | 2026-09-02 01:22:10 | 52.77123 | 11.15163 | 85° | 42km/h | 2566m | -7m/s | 2.6°C | 55.3% | 751.4hPa | 2.7V | 02:32:14 | 03:29:51 | 00:00:00 | |
| DO2SHX-10 | 2026-09-02 01:22:10 | 52.77127 | 11.15252 | 86° | 42km/h | 2532m | -6.9m/s | 2.8°C | 54.7% | 754.6hPa | 2.6V | 02:32:00 | 03:29:56 | 00:00:00 | |
| DM0DOS-11 | 2026-09-02 01:22:09 | 52.77122 | 11.15146 | 85° | 42km/h | 2573m | -6.9m/s | 2.5°C | 55.2% | 750.9hPa | 2.6V | 02:32:15 | 03:29:50 | 00:00:00 | |
| DF8AY-15 | 2026-09-02 01:22:09 | 52.77126 | 11.15234 | 85° | 42km/h | 2539m | -6.6m/s | 2.7°C | 54.8% | 754.1hPa | 2.6V | 00:00:00 | 03:29:55 | 00:00:00 | |
| DL1XH-15 | 2026-09-02 01:22:07 | 52.77120 | 11.15110 | 85° | 42km/h | 2586m | -6.6m/s | 2.4°C | 55.5% | 749.5hPa | 2.6V | 02:32:17 | 03:29:48 | 00:00:00 | |
| AA1-15 | 2026-09-02 01:22:05 | 52.77123 | 11.15163 | 85° | 42km/h | 2566m | -7m/s | 2.6°C | 62% | 751.4hPa | 2.7V | 02:32:59 | 03:29:51 | 00:00:00 | |
| DM0DOS-11 | 2026-09-02 01:22:04 | 52.77118 | 11.15057 | 86° | 42km/h | 2607m | -6.8m/s | 2.2°C | 55.9% | 747.7hPa | 2.6V | 02:32:20 | 03:29:45 | 00:00:00 | |
| BIOWL1-15 | 2026-09-02 01:22:02 | 52.77120 | 11.15110 | 86° | 42km/h | 2586m | -6.6m/s | 2.4°C | 62.2% | 749.5hPa | 2.6V | 02:32:59 | 03:29:48 | 00:00:00 | |
| S3001 | 2026-09-02 01:22:02 | 52.77118 | 11.15075 | 85° | 42km/h | 2600m | -6.8m/s | 2.3°C | 55.2% | 748.3hPa | 2.6V | 00:00:00 | 00:00:00 | 00:00:00 | |
| AM1SDL-15 | 2026-09-02 01:22:01 | 52.77119 | 11.15092 | 86° | 42km/h | 2593m | -6.8m/s | 2.3°C | 55.6% | 748.8hPa | 2.6V | 00:00:00 | 03:29:47 | 00:00:00 | |
| DL1XH1-15 | 2026-09-02 01:22:00 | 52.77115 | 11.14987 | 86° | 42km/h | 2633m | -6.9m/s | 2°C | 55.6% | 745.2hPa | 2.6V | 02:32:24 | 03:29:41 | 00:00:00 | |
| DF7ER-10 | 2026-09-02 01:22:00 | 52.77118 | 11.15075 | 87° | 42km/h | 2600m | -6.8m/s | 2.3°C | 55.2% | 748.3hPa | 2.6V | 02:32:00 | 00:00:00 | 00:00:00 | |
| DM0DOS-11 | 2026-09-02 01:21:59 | 52.77114 | 11.14969 | 87° | 42km/h | 2640m | -6.9m/s | 1.9°C | 55.6% | 744.5hPa | 2.6V | 02:32:25 | 03:29:40 | 00:00:00 | |
| DB0DAN | 2026-09-02 01:21:55 | 52.77115 | 11.14987 | 86° | 40km/h | 2634m | -6.9m/s | 2°C | 54.9% | 745.22hPa | 2.6V | 00:00:00 | 00:00:00 | 00:00:00 | |
| AA1-15 | 2026-09-02 01:21:55 | 52.77115 | 11.14987 | 87° | 42km/h | 2634m | -6.9m/s | 2°C | 62.1% | 745.2hPa | 2.6V | 02:32:59 | 03:29:41 | 00:00:00 | |
| DM0DOS-11 | 2026-09-02 01:21:54 | 52.77112 | 11.14880 | 86° | 44km/h | 2674m | -6.9m/s | 1.6°C | 56.1% | 741.5hPa | 2.6V | 02:32:30 | 03:29:35 | 00:00:00 | |
| DL1XH-west | 2026-09-02 01:21:52 | 52.77113 | 11.14934 | 87° | 42km/h | 2654m | -6.8m/s | 1.8°C | 62.3% | 743.2hPa | 2.6V | 02:32:59 | 03:29:38 | 00:00:00 | |
| DL1XH-15 | 2026-09-02 01:21:50 | 52.77109 | 11.14807 | 87° | 44km/h | 2701m | -6.8m/s | 1.4°C | 56.9% | 738.8hPa | 2.6V | 02:32:34 | 03:29:31 | 00:00:00 | |
| DO2SHX-10 | 2026-09-02 01:21:50 | 52.77112 | 11.14898 | 87° | 44km/h | 2668m | -6.8m/s | 1.6°C | 56.0% | 742.1hPa | 2.6V | 00:00:00 | 03:29:36 | 00:00:00 | |
| DM0DOS-11 | 2026-09-02 01:21:49 | 52.77109 | 11.14788 | 87° | 46km/h | 2708m | -7m/s | 1.3°C | 57.2% | 738.3hPa | 2.6V | 02:32:35 | 03:29:30 | 00:00:00 | |
| DF8AY-15 | 2026-09-02 01:21:49 | 52.77112 | 11.14880 | 87° | 46km/h | 2674m | -6.8m/s | 1.6°C | 56.1% | 741.5hPa | 2.6V | 00:00:00 | 03:29:35 | 00:00:00 | |
| DL1XH-15 | 2026-09-02 01:21:45 | 52.77107 | 11.14713 | 88° | 46km/h | 2735m | -6.7m/s | 1.1°C | 57.9% | 735.8hPa | 2.6V | 02:32:39 | 03:29:26 | 00:00:00 | |
| DF8AY | 2026-09-02 01:21:44 | 52.77109 | 11.14788 | 87° | 46km/h | 2708m | -7m/s | 1.3°C | 63.4% | 738.3hPa | 2.6V | 02:32:59 | 03:29:30 | 00:00:00 | |
| BIOWL1-15 | 2026-09-02 01:21:41 | 52.77107 | 11.14732 | 88° | 46km/h | 2729m | -6.8m/s | 1.1°C | 64.2% | 736.5hPa | 2.6V | 02:32:59 | 03:29:27 | 00:00:00 | |
| DO2SHX-10 | 2026-09-02 01:21:40 | 52.77107 | 11.14713 | 89° | 46km/h | 2735m | -6.7m/s | 1.0°C | 57.9% | 735.7hPa | 2.6V | 02:32:00 | 03:29:26 | 00:00:00 | |
| DM0DOS-11 | 2026-09-02 01:21:39 | 52.77107 | 11.14600 | 90° | 46km/h | 2776m | -6.8m/s | 0.8°C | 57.4% | 732.1hPa | 2.6V | 02:32:45 | 03:29:20 | 00:00:00 | |
| DF7ER-10 | 2026-09-02 01:21:38 | 52.77107 | 11.14694 | 91° | 46km/h | 2742m | -6.9m/s | 1.0°C | 58.1% | 735.3hPa | 2.6V | 02:32:00 | 00:00:00 | 00:00:00 | |
| AM1SDL-15 | 2026-09-02 01:21:37 | 52.77107 | 11.14656 | 90° | 46km/h | 2756m | -7.0m/s | 0.9°C | 58.4% | 734.0hPa | 2.6V | 02:32:00 | 03:29:23 | 00:00:00 | |
| DL1XH-15 | 2026-09-02 01:21:35 | 52.77108 | 11.14523 | 92° | 46km/h | 2804m | -6.7m/s | 0.7°C | 56.2% | 729.5hPa | 2.6V | 02:32:49 | 03:29:16 | 00:00:00 | |
| DM0DOS-11 | 2026-09-02 01:21:34 | 52.77109 | 11.14504 | 92° | 46km/h | 2811m | -6.9m/s | 0.7°C | 55.8% | 728.9hPa | 2.6V | 02:32:50 | 03:29:15 | 00:00:00 | |
| DF8AY | 2026-09-02 01:21:34 | 52.77107 | 11.14600 | 90° | 46km/h | 2776m | -6.9m/s | 0.8°C | 63.2% | 732.1hPa | 2.6V | 02:32:59 | 03:29:20 | 00:00:00 | |
| BIOWL1-15 | 2026-09-02 01:21:32 | 52.77108 | 11.14523 | 92° | 46km/h | 2804m | -6.7m/s | 0.7°C | 62.2% | 729.6hPa | 2.6V | 02:32:59 | 03:29:16 | 00:00:00 | |
| DL1XH-west | 2026-09-02 01:21:31 | 52.77108 | 11.14542 | 92° | 46km/h | 2797m | -6.8m/s | 0.8°C | 62.4% | 730.2hPa | 2.6V | 02:32:59 | 03:29:17 | 00:00:00 | |
| DO2SHX-10 | 2026-09-02 01:21:30 | 52.77108 | 11.14523 | 93° | 46km/h | 2804m | -6.7m/s | 0.7°C | 56.2% | 729.5hPa | 2.6V | 00:00:00 | 03:29:16 | 00:00:00 | |
| DM0DOS-11 | 2026-09-02 01:21:29 | 52.77113 | 11.14408 | 96° | 46km/h | 2844m | -6.8m/s | 0.4°C | 54.5% | 726hPa | 2.6V | 02:32:55 | 03:29:10 | 00:00:00 | |
| DF7ER-10 | 2026-09-02 01:21:29 | 52.77109 | 11.14503 | 94° | 46km/h | 2811m | -6.9m/s | 0.7°C | 55.1% | 728.9hPa | 2.6V | 02:32:00 | 00:00:00 | 00:00:00 | |
| SONDE2-11 | 2026-09-02 01:21:28 | 52.77109 | 11.14484 | 93° | 46km/h | 2817m | -6.8m/s | 0.6°C | 54.5% | 728.4hPa | 2.6V | 00:00:00 | 00:00:00 | 00:00:00 | |
| DL1XH-15 | 2026-09-02 01:21:25 | 52.77119 | 11.14331 | 96° | 47km/h | 2872m | -7.1m/s | 0.2°C | 53.7% | 723.4hPa | 2.6V | 02:32:59 | 03:29:06 | 00:00:00 | |
| DM0DOS-11 | 2026-09-02 01:21:24 | 52.77120 | 11.14311 | 97° | 47km/h | 2879m | -6.8m/s | 0.2°C | 53.7% | 722.9hPa | 2.6V | 02:33:00 | 03:29:05 | 00:00:00 | |
| DF8AY | 2026-09-02 01:21:23 | 52.77115 | 11.14389 | 96° | 46km/h | 2851m | -6.8m/s | 0.4°C | 60.2% | 725.3hPa | 2.6V | 02:32:59 | 03:29:09 | 00:00:00 | |
| DL1XH-west | 2026-09-02 01:21:21 | 52.77117 | 11.14350 | 97° | 47km/h | 2865m | -7m/s | 0.3°C | 59.4% | 724hPa | 2.6V | 02:32:59 | 03:29:07 | 00:00:00 | |
| AA1-15 | 2026-09-02 01:21:20 | 52.77119 | 11.14331 | 97° | 47km/h | 2872m | -7.1m/s | 0.2°C | 59.5% | 723.4hPa | 2.6V | 02:32:59 | 03:29:06 | 00:00:00 | |
| DL1XH-15 | 2026-09-02 01:21:20 | 52.77126 | 11.14233 | 97° | 46km/h | 2906m | -6.9m/s | 0°C | 49.9% | 720.2hPa | 2.6V | 02:33:04 | 03:29:01 | 00:00:00 | |
| BIOWL1-15 | 2026-09-02 01:21:19 | 52.77120 | 11.14311 | 97° | 47km/h | 2879m | -6.8m/s | 0.2°C | 59.6% | 722.9hPa | 2.6V | 02:33:50 | 03:29:05 | 00:00:00 | |
| EDDB2-12 | 2026-09-02 01:21:18 | 52.77122 | 11.14292 | 97° | 47km/h | 2886m | -6.9m/s | 0.1°C | 52.9% | 722.2hPa | 2.6V | 00:00:00 | 00:00:00 | 00:00:00 | |
| DL1XH-15 | 2026-09-02 01:21:15 | 52.77139 | 11.14098 | 98° | 47km/h | 2954m | -7m/s | -0.1°C | 43% | 716.1hPa | 2.6V | 02:33:11 | 03:28:54 | 00:00:00 | |
| DM0DOS-11 | 2026-09-02 01:21:14 | 52.77139 | 11.14098 | 98° | 47km/h | 2954m | -7m/s | -0.1°C | 43% | 716.1hPa | 2.6V | 02:33:11 | 03:28:54 | 00:00:00 | |
| DF8AY | 2026-09-02 01:21:12 | 52.77131 | 11.14175 | 98° | 47km/h | 2927m | -6.8m/s | -0°C | 54.4% | 718.5hPa | 2.6V | 02:33:50 | 03:28:58 | 00:00:00 | |
| AA1-15 | 2026-09-02 01:21:10 | 52.77137 | 11.14118 | 99° | 47km/h | 2947m | -6.7m/s | -0.1°C | 50.7% | 716.7hPa | 2.6V | 02:33:50 | 03:28:55 | 00:00:00 | |
| DF8AY-15 | 2026-09-02 01:21:09 | 52.77137 | 11.14118 | 99° | 47km/h | 2948m | -6.7m/s | -0.0°C | 44.9% | 716.6hPa | 2.6V | 00:00:00 | 03:28:55 | 00:00:00 | |
| DF7ER-10 | 2026-09-02 01:21:08 | 52.77136 | 11.14118 | 99° | 47km/h | 2948m | -6.7m/s | -0.1°C | 44.2% | 716.7hPa | 2.6V | 02:33:00 | 00:00:00 | 00:00:00 | |
| DL1XH1-15 | 2026-09-02 01:21:03 | 52.77152 | 11.13905 | 96° | 47km/h | 3023m | -6.8m/s | -0.3°C | 35.7% | 709.9hPa | 2.6V | 02:33:21 | 03:28:44 | 00:00:00 | |
| DF8AY | 2026-09-02 01:21:01 | 52.77148 | 11.13963 | 96° | 47km/h | 3002m | -7m/s | -0.2°C | 41% | 711.6hPa | 2.5V | 02:33:50 | 03:28:47 | 00:00:00 | |
| DL1XH-west | 2026-09-02 01:20:58 | 52.77152 | 11.13905 | 97° | 47km/h | 3023m | -6.8m/s | -0.3°C | 41.4% | 709.9hPa | 2.6V | 02:33:50 | 03:28:44 | 00:00:00 | |
| AA1-15 | 2026-09-02 01:20:58 | 52.77153 | 11.13885 | 97° | 47km/h | 3029m | -6.9m/s | -0.4°C | 42.9% | 709.3hPa | 2.6V | 02:33:50 | 03:28:43 | 00:00:00 | |
| DO2SHX-10 | 2026-09-02 01:20:57 | 52.77153 | 11.13885 | 97° | 47km/h | 3029m | -6.8m/s | -0.3°C | 37.2% | 709.3hPa | 2.6V | 00:00:00 | 03:28:43 | 00:00:00 | |
| DB0DAN | 2026-09-02 01:20:55 | 52.77156 | 11.13846 | 98° | 46km/h | 3043m | -6.9m/s | -0.5°C | 39.7% | 708.05hPa | 2.6V | 00:00:00 | 00:00:00 | 00:00:00 | |
| DO2SHX-10 | 2026-09-02 01:20:54 | 52.77158 | 11.13826 | 98° | 47km/h | 3050m | -7.0m/s | -0.5°C | 41.7% | 707.5hPa | 2.6V | 02:33:00 | 03:28:40 | 00:00:00 | |
| DL1XH-15 | 2026-09-02 01:20:53 | 52.77168 | 11.13706 | 98° | 49km/h | 3092m | -7m/s | -0.9°C | 49.2% | 703.9hPa | 2.6V | 02:33:31 | 03:28:34 | 00:00:00 | |
| DF8AY | 2026-09-02 01:20:51 | 52.77163 | 11.13767 | 98° | 47km/h | 3071m | -7m/s | -0.8°C | 51.9% | 705.6hPa | 2.6V | 02:33:50 | 03:28:37 | 00:00:00 | |
| DL1XH-west | 2026-09-02 01:20:47 | 52.77170 | 11.13686 | 99° | 49km/h | 3099m | -7m/s | -1°C | 57.6% | 703.2hPa | 2.5V | 02:33:50 | 03:28:33 | 00:00:00 | |
| EDDB2-12 | 2026-09-02 01:20:47 | 52.77170 | 11.13686 | 98° | 49km/h | 3099m | -7.0m/s | -1.0°C | 50.7% | 703.2hPa | 2.6V | 00:00:00 | 00:00:00 | 00:00:00 | |
| DF8AY | 2026-09-02 01:20:41 | 52.77181 | 11.13562 | 98° | 49km/h | 3141m | -7.2m/s | -1.3°C | 62.2% | 699.6hPa | 2.6V | 02:33:50 | 03:28:27 | 00:00:00 | |
| DO2SHX-10 | 2026-09-02 01:20:39 | 52.77185 | 11.13521 | 99° | 49km/h | 3155m | -7.0m/s | -1.4°C | 57.2% | 698.2hPa | 2.6V | 00:00:00 | 03:28:25 | 00:00:00 | |
| DL1XH1-15 | 2026-09-02 01:20:38 | 52.77199 | 11.13396 | 102° | 53km/h | 3197m | -7m/s | -1.7°C | 62.9% | 694.6hPa | 2.6V | 02:33:46 | 03:28:19 | 00:00:00 | |
| AA1-15 | 2026-09-02 01:20:37 | 52.77189 | 11.13480 | 101° | 49km/h | 3169m | -6.9m/s | -1.5°C | 63.9% | 697.1hPa | 2.6V | 02:33:50 | 03:28:23 | 00:00:00 | |
| DL1XH-west | 2026-09-02 01:20:36 | 52.77191 | 11.13459 | 101° | 51km/h | 3176m | -6.9m/s | -1.6°C | 64.2% | 696.5hPa | 2.6V | 02:33:50 | 03:28:22 | 00:00:00 | |
| BIOWL1-15 | 2026-09-02 01:20:34 | 52.77196 | 11.13417 | 102° | 53km/h | 3190m | -6.9m/s | -1.7°C | 66.3% | 695.2hPa | 2.6V | 02:33:50 | 03:28:20 | 00:00:00 | |
| DM0DOS-11 | 2026-09-02 01:20:33 | 52.77213 | 11.13286 | 101° | 55km/h | 3231m | -6.8m/s | -2°C | 66.6% | 691.7hPa | 2.6V | 02:33:51 | 03:28:14 | 00:00:00 | |
| DF8AY | 2026-09-02 01:20:30 | 52.77207 | 11.13330 | 102° | 53km/h | 3217m | -7m/s | -1.9°C | 71.7% | 692.9hPa | 2.6V | 02:33:50 | 03:28:16 | 00:00:00 | |
| DO2SHX-10 | 2026-09-02 01:20:30 | 52.77207 | 11.13330 | 102° | 55km/h | 3217m | -7.0m/s | -1.8°C | 65.8% | 692.8hPa | 2.6V | 00:00:00 | 03:28:16 | 00:00:00 | |
| DF8AY-15 | 2026-09-02 01:20:29 | 52.77210 | 11.13308 | 102° | 57km/h | 3224m | -6.8m/s | -1.9°C | 66.2% | 692.2hPa | 2.6V | 02:33:00 | 03:28:15 | 00:00:00 | |
| DL1XH1-15 | 2026-09-02 01:20:28 | 52.77228 | 11.13173 | 102° | 57km/h | 3265m | -7.1m/s | -2.1°C | 67.9% | 688.7hPa | 2.6V | 02:33:56 | 03:28:09 | 00:00:00 | |
| AA1-15 | 2026-09-02 01:20:27 | 52.77216 | 11.13264 | 102° | 55km/h | 3238m | -6.8m/s | -2°C | 73.1% | 690.9hPa | 2.6V | 02:34:41 | 03:28:13 | 00:00:00 | |
| DL1XH-west | 2026-09-02 01:20:26 | 52.77219 | 11.13242 | 102° | 55km/h | 3245m | -6.9m/s | -2°C | 73.4% | 690.5hPa | 2.5V | 02:34:41 | 03:28:12 | 00:00:00 | |
| DB0DAN | 2026-09-02 01:20:25 | 52.77222 | 11.13219 | 102° | 53km/h | 3251m | -6.9m/s | -2.1°C | 66.5% | 689.83hPa | 2.5V | 00:00:00 | 00:00:00 | 00:00:00 | |
| BIOWL1-15 | 2026-09-02 01:20:24 | 52.77231 | 11.13151 | 104° | 57km/h | 3272m | -6.9m/s | -2.2°C | 73.8% | 688hPa | 2.6V | 02:34:41 | 03:28:08 | 00:00:00 | |
| DO2SHX-10 | 2026-09-02 01:20:24 | 52.77225 | 11.13196 | 103° | 57km/h | 3258m | -7.0m/s | -2.0°C | 67.8% | 689.2hPa | 2.6V | 00:00:00 | 03:28:10 | 00:00:00 | |
| DL1XH1-15 | 2026-09-02 01:20:23 | 52.77246 | 11.13058 | 104° | 58km/h | 3300m | -7m/s | -2.3°C | 67.9% | 685.5hPa | 2.6V | 02:34:01 | 03:28:04 | 00:00:00 | |
| DF8AY | 2026-09-02 01:20:19 | 52.77242 | 11.13081 | 105° | 58km/h | 3293m | -7m/s | -2.3°C | 73.8% | 686.2hPa | 2.5V | 02:34:41 | 03:28:05 | 00:00:00 | |
| DL1XH1-15 | 2026-09-02 01:20:18 | 52.77265 | 11.12939 | 104° | 60km/h | 3336m | -7.4m/s | -2.4°C | 68% | 682.7hPa | 2.5V | 02:34:06 | 03:27:59 | 00:00:00 | |
| AA1-15 | 2026-09-02 01:20:16 | 52.77253 | 11.13011 | 105° | 58km/h | 3314m | -7.1m/s | -2.4°C | 73.9% | 684.3hPa | 2.6V | 02:34:41 | 03:28:02 | 00:00:00 | |
| DL1XH-west | 2026-09-02 01:20:15 | 52.77257 | 11.12987 | 105° | 60km/h | 3322m | -7.1m/s | -2.4°C | 74.1% | 683.8hPa | 2.6V | 02:34:41 | 03:28:01 | 00:00:00 | |
| DO2SHX-10 | 2026-09-02 01:20:15 | 52.77257 | 11.12987 | 105° | 60km/h | 3322m | -7.1m/s | -2.4°C | 68.1% | 683.7hPa | 2.6V | 00:00:00 | 03:28:01 | 00:00:00 | |
| DL1XH1-15 | 2026-09-02 01:20:13 | 52.77284 | 11.12819 | 105° | 58km/h | 3371m | -7m/s | -2.7°C | 68.4% | 679.5hPa | 2.6V | 02:34:11 | 03:27:54 | 00:00:00 | |
| BIOWL1-15 | 2026-09-02 01:20:11 | 52.77273 | 11.12891 | 105° | 60km/h | 3350m | -7.2m/s | -2.5°C | 74.1% | 681.3hPa | 2.6V | 02:34:41 | 03:27:57 | 00:00:00 | |
| DF8AY | 2026-09-02 01:20:09 | 52.77280 | 11.12843 | 105° | 60km/h | 3364m | -6.9m/s | -2.6°C | 74.3% | 680.1hPa | 2.6V | 02:34:41 | 03:27:55 | 00:00:00 | |
| DO2SHX-10 | 2026-09-02 01:20:09 | 52.77280 | 11.12843 | 105° | 58km/h | 3364m | -6.9m/s | -2.6°C | 68.2% | 680.0hPa | 2.6V | 02:34:00 | 03:27:55 | 00:00:00 | |
| DL1XH1-15 | 2026-09-02 01:20:08 | 52.77304 | 11.12700 | 105° | 58km/h | 3406m | -6.9m/s | -2.9°C | 69.7% | 676.4hPa | 2.6V | 02:34:16 | 03:27:49 | 00:00:00 | |
| AA1-15 | 2026-09-02 01:20:05 | 52.77296 | 11.12748 | 105° | 58km/h | 3392m | -7m/s | -2.8°C | 75.1% | 677.8hPa | 2.5V | 02:34:41 | 03:27:51 | 00:00:00 | |
| DL1XH-west | 2026-09-02 01:20:04 | 52.77300 | 11.12724 | 105° | 58km/h | 3399m | -6.8m/s | -2.9°C | 75.5% | 677.1hPa | 2.6V | 02:34:41 | 03:27:50 | 00:00:00 | |
| BIOWL1-15 | 2026-09-02 01:20:01 | 52.77312 | 11.12653 | 106° | 60km/h | 3420m | -7m/s | -3.1°C | 76.2% | 675.3hPa | 2.6V | 02:34:41 | 03:27:47 | 00:00:00 | |
| DF8AY | 2026-09-02 01:19:59 | 52.77320 | 11.12605 | 106° | 60km/h | 3434m | -7.1m/s | -3.2°C | 76.4% | 674.1hPa | 2.5V | 02:34:41 | 03:27:45 | 00:00:00 | |
| AA1-15 | 2026-09-02 01:19:56 | 52.77338 | 11.12510 | 106° | 60km/h | 3463m | -7m/s | -3.4°C | 77.2% | 671.8hPa | 2.6V | 02:34:41 | 03:27:41 | 00:00:00 | |
| DB0DAN | 2026-09-02 01:19:55 | 52.77338 | 11.12510 | 106° | 57km/h | 3463m | -7m/s | -3.4°C | 70.2% | 671.82hPa | 2.6V | 00:00:00 | 00:00:00 | 00:00:00 | |
| BIOWL1-15 | 2026-09-02 01:19:55 | 52.77354 | 11.12415 | 106° | 60km/h | 3491m | -7.3m/s | -3.7°C | 78.1% | 669.3hPa | 2.6V | 02:34:41 | 03:27:37 | 00:00:00 | |
| DL1XH-west | 2026-09-02 01:19:53 | 52.77346 | 11.12462 | 106° | 60km/h | 3477m | -7m/s | -3.5°C | 77.7% | 670.5hPa | 2.5V | 02:34:41 | 03:27:39 | 00:00:00 | |
| DO2SHX-10 | 2026-09-02 01:19:51 | 52.77354 | 11.12414 | 107° | 60km/h | 3491m | -7.3m/s | -3.6°C | 72.6% | 669.3hPa | 2.6V | 02:34:00 | 03:27:37 | 00:00:00 | |
| DM0DOS-11 | 2026-09-02 01:19:50 | 52.77380 | 11.12270 | 106° | 60km/h | 3533m | -7m/s | -4°C | 74% | 665.8hPa | 2.6V | 02:34:34 | 03:27:31 | 00:00:00 | |
| DF8AY | 2026-09-02 01:19:48 | 52.77367 | 11.12343 | 106° | 60km/h | 3512m | -7.2m/s | -3.8°C | 78.7% | 667.6hPa | 2.6V | 02:34:41 | 03:27:34 | 00:00:00 | |
| AA1-15 | 2026-09-02 01:19:45 | 52.77380 | 11.12270 | 106° | 60km/h | 3533m | -7m/s | -4°C | 79.2% | 665.8hPa | 2.6V | 02:34:41 | 03:27:31 | 00:00:00 | |
| DO2SHX-10 | 2026-09-02 01:19:45 | 52.77380 | 11.12270 | 107° | 60km/h | 3533m | -6.9m/s | -4.0°C | 74.0% | 665.8hPa | 2.6V | 00:00:00 | 03:27:31 | 00:00:00 | |
| DL1XH1-15 | 2026-09-02 01:19:43 | 52.77409 | 11.12101 | 105° | 58km/h | 3582m | -6.8m/s | -4.4°C | 75.6% | 661.5hPa | 2.6V | 02:34:41 | 03:27:24 | 00:00:00 | |
| DL1XH-west | 2026-09-02 01:19:42 | 52.77392 | 11.12197 | 105° | 60km/h | 3554m | -7m/s | -4.2°C | 79.5% | 663.9hPa | 2.6V | 02:34:41 | 03:27:28 | 00:00:00 | |
| DO2SHX-10 | 2026-09-02 01:19:42 | 52.77392 | 11.12197 | 106° | 60km/h | 3554m | -6.9m/s | -4.2°C | 74.5% | 663.9hPa | 2.6V | 02:34:00 | 03:27:28 | 00:00:00 | |
| DB0DAN | 2026-09-02 01:19:40 | 52.77401 | 11.12149 | 105° | 57km/h | 3568m | -7.2m/s | -4.3°C | 73.7% | 662.74hPa | 2.5V | 00:00:00 | 00:00:00 | 00:00:00 | |
| BIOWL1-15 | 2026-09-02 01:19:40 | 52.77401 | 11.12149 | 105° | 60km/h | 3568m | -7.2m/s | -4.3°C | 79.8% | 662.7hPa | 2.5V | 02:34:41 | 03:27:26 | 00:00:00 | |
| DO2SHX-10 | 2026-09-02 01:19:39 | 52.77405 | 11.12125 | 106° | 58km/h | 3575m | -7.1m/s | -4.3°C | 75.4% | 662.1hPa | 2.5V | 00:00:00 | 03:27:25 | 00:00:00 | |
| DL1XH1-15 | 2026-09-02 01:19:38 | 52.77428 | 11.11982 | 104° | 60km/h | 3617m | -7.2m/s | -4.7°C | 76.5% | 658.7hPa | 2.5V | 02:34:46 | 03:27:19 | 00:00:00 | |
| DF8AY | 2026-09-02 01:19:37 | 52.77413 | 11.12077 | 105° | 58km/h | 3589m | -7.1m/s | -4.5°C | 80.4% | 661hPa | 2.6V | 02:35:32 | 03:27:23 | 00:00:00 | |
| DO2SHX-10 | 2026-09-02 01:19:36 | 52.77416 | 11.12053 | 105° | 58km/h | 3596m | -7.0m/s | -4.5°C | 76.3% | 660.4hPa | 2.6V | 00:00:00 | 03:27:22 | 00:00:00 | |
| DM0DOS-11 | 2026-09-02 01:19:35 | 52.77438 | 11.11909 | 103° | 60km/h | 3639m | -7.3m/s | -4.8°C | 76.8% | 656.8hPa | 2.6V | 02:34:49 | 03:27:16 | 00:00:00 | |
| AA1-15 | 2026-09-02 01:19:34 | 52.77424 | 11.12006 | 104° | 60km/h | 3610m | -7.1m/s | -4.7°C | 80.6% | 659.2hPa | 2.5V | 02:35:32 | 03:27:20 | 00:00:00 | |
| BIOWL1-15 | 2026-09-02 01:19:34 | 52.77438 | 11.11909 | 103° | 60km/h | 3639m | -7.3m/s | -4.8°C | 80.4% | 656.8hPa | 2.6V | 02:36:23 | 03:27:16 | 00:00:00 | |
| DL1XH1-15 | 2026-09-02 01:19:33 | 52.77446 | 11.11861 | 102° | 58km/h | 3653m | -7.1m/s | -4.8°C | 75.2% | 655.8hPa | 2.5V | 02:34:51 | 03:27:14 | 00:00:00 | |
| DL1XH-west | 2026-09-02 01:19:32 | 52.77431 | 11.11958 | 104° | 60km/h | 3624m | -7.1m/s | -4.8°C | 80.3% | 658.1hPa | 2.6V | 02:35:32 | 03:27:18 | 00:00:00 | |
| DM0DOS-11 | 2026-09-02 01:19:30 | 52.77456 | 11.11790 | 102° | 57km/h | 3674m | -7.3m/s | -4.9°C | 73.4% | 653.9hPa | 2.6V | 02:34:54 | 03:27:11 | 00:00:00 | |
| DO2SHX-10 | 2026-09-02 01:19:30 | 52.77438 | 11.11909 | 104° | 60km/h | 3639m | -7.2m/s | -4.8°C | 76.8% | 656.8hPa | 2.6V | 00:00:00 | 03:27:16 | 00:00:00 | |
| DF8AY-15 | 2026-09-02 01:19:29 | 52.77442 | 11.11885 | 104° | 57km/h | 3646m | -6.9m/s | -4.8°C | 76.6% | 656.2hPa | 2.6V | 02:34:00 | 03:27:15 | 00:00:00 | |
| DL1XH1-15 | 2026-09-02 01:19:28 | 52.77462 | 11.11744 | 102° | 57km/h | 3689m | -7.3m/s | -5°C | 72.7% | 652.7hPa | 2.6V | 02:34:56 | 03:27:09 | 00:00:00 | |
| DF8AY | 2026-09-02 01:19:27 | 52.77449 | 11.11837 | 103° | 58km/h | 3660m | -7.4m/s | -4.9°C | 78.9% | 655hPa | 2.5V | 02:35:32 | 03:27:13 | 00:00:00 | |
| DO2SHX-10 | 2026-09-02 01:19:27 | 52.77449 | 11.11837 | 104° | 58km/h | 3660m | -7.3m/s | -4.8°C | 75.3% | 654.9hPa | 2.6V | 00:00:00 | 03:27:13 | 00:00:00 | |
| DB0DAN | 2026-09-02 01:19:25 | 52.77455 | 11.11790 | 103° | 55km/h | 3674m | -7.3m/s | -4.9°C | 72% | 653.93hPa | 2.6V | 00:00:00 | 00:00:00 | 00:00:00 | |
| DM0DOS-11 | 2026-09-02 01:19:25 | 52.77471 | 11.11675 | 100° | 57km/h | 3711m | -7m/s | -5.2°C | 72% | 650.9hPa | 2.5V | 02:34:59 | 03:27:06 | 00:00:00 | |
| AA1-15 | 2026-09-02 01:19:24 | 52.77459 | 11.11767 | 103° | 57km/h | 3682m | -7.2m/s | -5°C | 76.8% | 653.3hPa | 2.6V | 02:35:32 | 03:27:10 | 00:00:00 | |
| DL1XH-west | 2026-09-02 01:19:21 | 52.77468 | 11.11698 | 102° | 57km/h | 3704m | -7.1m/s | -5.1°C | 76.5% | 651.5hPa | 2.5V | 02:35:32 | 03:27:07 | 00:00:00 | |
| DO2SHX-10 | 2026-09-02 01:19:21 | 52.77468 | 11.11698 | 102° | 57km/h | 3704m | -7.0m/s | -5.1°C | 72.7% | 651.4hPa | 2.5V | 00:00:00 | 03:27:07 | 00:00:00 | |
| DM0DOS-11 | 2026-09-02 01:19:20 | 52.77483 | 11.11559 | 99° | 57km/h | 3747m | -7.2m/s | -5.4°C | 65.8% | 647.9hPa | 2.5V | 02:35:04 | 03:27:01 | 00:00:00 | |
| BIOWL1-15 | 2026-09-02 01:19:19 | 52.77474 | 11.11651 | 101° | 57km/h | 3718m | -7m/s | -5.3°C | 75.8% | 650.4hPa | 2.6V | 02:36:23 | 03:27:05 | 00:00:00 | |
| DL1XH1-15 | 2026-09-02 01:19:18 | 52.77488 | 11.11512 | 99° | 57km/h | 3761m | -7.3m/s | -5.4°C | 65.5% | 646.7hPa | 2.6V | 02:35:06 | 03:26:59 | 00:00:00 | |
| DF8AY | 2026-09-02 01:19:16 | 52.77481 | 11.11582 | 100° | 57km/h | 3739m | -7.2m/s | -5.3°C | 70.3% | 648.5hPa | 2.6V | 02:35:32 | 03:27:02 | 00:00:00 | |
| DM0DOS-11 | 2026-09-02 01:19:15 | 52.77495 | 11.11444 | 99° | 55km/h | 3782m | -7.4m/s | -5.4°C | 60.3% | 644.9hPa | 2.6V | 02:35:09 | 03:26:56 | 00:00:00 | |
| AA1-15 | 2026-09-02 01:19:13 | 52.77488 | 11.11512 | 100° | 57km/h | 3761m | -7.3m/s | -5.4°C | 69.4% | 646.7hPa | 2.6V | 02:35:32 | 03:26:59 | 00:00:00 | |
| DL1XH-west | 2026-09-02 01:19:11 | 52.77493 | 11.11467 | 99° | 55km/h | 3775m | -7.2m/s | -5.4°C | 65.7% | 645.5hPa | 2.6V | 02:35:32 | 03:26:57 | 00:00:00 | |
| DB0DAN | 2026-09-02 01:19:10 | 52.77495 | 11.11444 | 99° | 53km/h | 3782m | -7.4m/s | -5.4°C | 59.1% | 644.86hPa | 2.6V | 00:00:00 | 00:00:00 | 00:00:00 | |
| DM0DOS-11 | 2026-09-02 01:19:10 | 52.77505 | 11.11329 | 97° | 57km/h | 3819m | -7.4m/s | -5.2°C | 55.2% | 641.9hPa | 2.6V | 02:35:14 | 03:26:51 | 00:00:00 | |
| DF8AY-15 | 2026-09-02 01:19:09 | 52.77497 | 11.11421 | 99° | 55km/h | 3790m | -7.3m/s | -5.3°C | 60.5% | 644.2hPa | 2.5V | 00:00:00 | 03:26:55 | 00:00:00 | |
| DL1XH1-15 | 2026-09-02 01:19:08 | 52.77512 | 11.11259 | 98° | 57km/h | 3841m | -7.5m/s | -5.2°C | 52.7% | 640.2hPa | 2.5V | 02:35:17 | 03:26:48 | 00:00:00 | |
| DF8AY | 2026-09-02 01:19:07 | 52.77504 | 11.11352 | 98° | 57km/h | 3812m | -7.4m/s | -5.3°C | 61.5% | 642.6hPa | 2.6V | 02:35:32 | 03:26:52 | 00:00:00 | |
| AA1-15 | 2026-09-02 01:19:03 | 52.77511 | 11.11259 | 98° | 57km/h | 3841m | -7.5m/s | -5.2°C | 58% | 640.2hPa | 2.5V | 02:35:32 | 03:26:48 | 00:00:00 | |
| DL1XH1-15 | 2026-09-02 01:19:02 | 52.77522 | 11.11145 | 98° | 55km/h | 3877m | -7.5m/s | -5.3°C | 52.7% | 637.1hPa | 2.5V | 02:35:22 | 03:26:43 | 00:00:00 | |
| DL1XH-west | 2026-09-02 01:19:00 | 52.77516 | 11.11214 | 98° | 55km/h | 3856m | -7.2m/s | -5.2°C | 58.2% | 639hPa | 2.6V | 02:35:32 | 03:26:46 | 00:00:00 | |
| DO2SHX-10 | 2026-09-02 01:19:00 | 52.77516 | 11.11214 | 99° | 55km/h | 3856m | -7.1m/s | -5.2°C | 52.8% | 638.9hPa | 2.6V | 00:00:00 | 03:26:46 | 00:00:00 | |
| DL1XH-15 | 2026-09-02 01:18:58 | 52.77520 | 11.11168 | 98° | 55km/h | 3870m | -7.3m/s | -5.3°C | 52.7% | 637.7hPa | 2.6V | 02:35:21 | 03:26:44 | 00:00:00 | |
| DL1XH-15 | 2026-09-02 01:18:58 | 52.77530 | 11.11057 | 98° | 53km/h | 3907m | -7.4m/s | -5.5°C | 52.5% | 634.8hPa | 2.6V | 02:35:26 | 03:26:39 | 00:00:00 | |
| DL1XH1-15 | 2026-09-02 01:18:57 | 52.77531 | 11.11035 | 98° | 53km/h | 3914m | -7.6m/s | -5.5°C | 52.3% | 634.2hPa | 2.6V | 02:35:27 | 03:26:38 | 00:00:00 | |
| SONCRA | 2026-09-02 01:18:56 | 52.77526 | 11.11101 | 98° | 53km/h | 3892m | -7.4m/s | -5.4°C | 51.8% | 636.1hPa | 2.6V | 00:00:00 | 00:00:00 | 00:00:00 | |
| DB0DAN | 2026-09-02 01:18:55 | 52.77526 | 11.11101 | 98° | 51km/h | 3892m | -7.4m/s | -5.4°C | 51.8% | 636.11hPa | 2.6V | 00:00:00 | 00:00:00 | 00:00:00 | |
| DF8AY | 2026-09-02 01:18:55 | 52.77526 | 11.11101 | 98° | 53km/h | 3892m | -7.4m/s | -5.4°C | 58.4% | 636.1hPa | 2.6V | 02:35:32 | 03:26:41 | 00:00:00 | |
| DM0DOS-11 | 2026-09-02 01:18:55 | 52.77536 | 11.10991 | 99° | 53km/h | 3929m | -7.4m/s | -5.6°C | 51.6% | 633.1hPa | 2.5V | 02:35:29 | 03:26:36 | 00:00:00 | |
| SONDE2-11 | 2026-09-02 01:18:53 | 52.77529 | 11.11056 | 98° | 53km/h | 3907m | -7.4m/s | -5.5°C | 51.3% | 634.8hPa | 2.6V | 00:00:00 | 00:00:00 | 00:00:00 | |
| DL1XH-15 | 2026-09-02 01:18:53 | 52.77540 | 11.10948 | 98° | 53km/h | 3944m | -7.4m/s | -5.8°C | 52% | 631.8hPa | 2.6V | 02:35:31 | 03:26:34 | 00:00:00 | |
| DL1XH1-15 | 2026-09-02 01:18:52 | 52.77542 | 11.10926 | 99° | 53km/h | 3951m | -7.6m/s | -5.8°C | 52.2% | 631.2hPa | 2.6V | 02:35:32 | 03:26:33 | 00:00:00 | |
| BIOWL1-15 | 2026-09-02 01:18:52 | 52.77531 | 11.11035 | 99° | 53km/h | 3914m | -7.6m/s | -5.5°C | 57.9% | 634.2hPa | 2.6V | 02:36:23 | 03:26:38 | 00:00:00 | |
| AA1-15 | 2026-09-02 01:18:51 | 52.77533 | 11.11013 | 99° | 53km/h | 3922m | -7.4m/s | -5.6°C | 57.4% | 633.6hPa | 2.5V | 02:35:32 | 03:26:37 | 00:00:00 | |
| DL1XH-west | 2026-09-02 01:18:50 | 52.77536 | 11.10991 | 99° | 53km/h | 3929m | -7.4m/s | -5.6°C | 57.3% | 633.1hPa | 2.5V | 02:35:32 | 03:26:36 | 00:00:00 | |
| DM0DOS-11 | 2026-09-02 01:18:50 | 52.77546 | 11.10882 | 98° | 53km/h | 3966m | -7.5m/s | -6°C | 52.6% | 629.9hPa | 2.5V | 02:35:34 | 03:26:31 | 00:00:00 | |
| DF8AY-15 | 2026-09-02 01:18:49 | 52.77538 | 11.10969 | 99° | 51km/h | 3936m | -7.4m/s | -5.6°C | 51.8% | 632.3hPa | 2.6V | 00:00:00 | 03:26:35 | 00:00:00 | |
| DL1XH-15 | 2026-09-02 01:18:48 | 52.77550 | 11.10838 | 97° | 53km/h | 3981m | -7.8m/s | -6.1°C | 52.7% | 628.9hPa | 2.6V | 02:35:36 | 03:26:29 | 00:00:00 | |
| DO2SHX-10 | 2026-09-02 01:18:48 | 52.77540 | 11.10948 | 99° | 53km/h | 3944m | -7.3m/s | -5.7°C | 52.0% | 631.8hPa | 2.6V | 02:35:00 | 03:26:34 | 00:00:00 | |
| DL1XH1-15 | 2026-09-02 01:18:47 | 52.77552 | 11.10816 | 97° | 53km/h | 3989m | -7.6m/s | -6.2°C | 52.7% | 628.2hPa | 2.6V | 02:35:37 | 03:26:28 | 00:00:00 | |
| AM1SDL-15 | 2026-09-02 01:18:46 | 52.77544 | 11.10904 | 100° | 53km/h | 3959m | -7.4m/s | -5.8°C | 52.4% | 630.7hPa | 2.6V | 00:00:00 | 03:26:32 | 00:00:00 | |
| DM0DOS-11 | 2026-09-02 01:18:45 | 52.77555 | 11.10772 | 97° | 53km/h | 4004m | -7.6m/s | -6.3°C | 52.4% | 627hPa | 2.6V | 02:35:39 | 03:26:26 | 00:00:00 | |
| DF8AY | 2026-09-02 01:18:44 | 52.77548 | 11.10860 | 98° | 53km/h | 3974m | -7.6m/s | -6°C | 58.1% | 629.4hPa | 2.5V | 02:36:23 | 03:26:30 | 00:00:00 | |
| DL1XH-15 | 2026-09-02 01:18:43 | 52.77559 | 11.10730 | 98° | 51km/h | 4019m | -7.6m/s | -6.3°C | 51.9% | 625.9hPa | 2.5V | 02:35:41 | 03:26:24 | 00:00:00 | |
| DL1XH1-15 | 2026-09-02 01:18:42 | 52.77562 | 11.10709 | 98° | 51km/h | 4027m | -7.6m/s | -6.3°C | 52.2% | 625.3hPa | 2.6V | 02:35:42 | 03:26:23 | 00:00:00 | |
| DO2SHX-10 | 2026-09-02 01:18:42 | 52.77552 | 11.10816 | 98° | 53km/h | 3989m | -7.6m/s | -6.1°C | 52.7% | 628.1hPa | 2.6V | 00:00:00 | 03:26:28 | 00:00:00 | |
| DF7ER-10 | 2026-09-02 01:18:41 | 52.77552 | 11.10816 | 99° | 53km/h | 3989m | -7.6m/s | -6.2°C | 51.5% | 628.2hPa | 2.6V | 02:36:00 | 00:00:00 | 00:00:00 | |
| DB0DAN | 2026-09-02 01:18:40 | 52.77556 | 11.10772 | 98° | 49km/h | 4004m | -7.6m/s | -6.3°C | 51.2% | 626.95hPa | 2.6V | 00:00:00 | 00:00:00 | 00:00:00 | |
| AA1-15 | 2026-09-02 01:18:40 | 52.77556 | 11.10772 | 98° | 53km/h | 4004m | -7.6m/s | -6.3°C | 57.4% | 627hPa | 2.6V | 02:36:23 | 03:26:26 | 00:00:00 | |
| DL1XH-west | 2026-09-02 01:18:39 | 52.77557 | 11.10751 | 98° | 51km/h | 4012m | -7.6m/s | -6.3°C | 57.2% | 626.4hPa | 2.5V | 02:36:23 | 03:26:25 | 00:00:00 | |
| DO2SHX-10 | 2026-09-02 01:18:39 | 52.77557 | 11.10751 | 99° | 51km/h | 4012m | -7.5m/s | -6.3°C | 52.2% | 626.3hPa | 2.5V | 02:35:00 | 03:26:25 | 00:00:00 | |
| DL1XH1-15 | 2026-09-02 01:18:37 | 52.77572 | 11.10605 | 99° | 51km/h | 4064m | -7.6m/s | -6.3°C | 51.2% | 622.2hPa | 2.5V | 02:35:47 | 03:26:18 | 00:00:00 | |
| DM0DOS-11 | 2026-09-02 01:18:35 | 52.77576 | 11.10564 | 99° | 51km/h | 4079m | -7.5m/s | -6.4°C | 49.8% | 621hPa | 2.6V | 02:35:49 | 03:26:16 | 00:00:00 | |
| DF8AY | 2026-09-02 01:18:33 | 52.77570 | 11.10626 | 99° | 51km/h | 4057m | -7.6m/s | -6.3°C | 57.1% | 622.8hPa | 2.5V | 02:36:23 | 03:26:19 | 00:00:00 | |
| DO2SHX-10 | 2026-09-02 01:18:33 | 52.77570 | 11.10626 | 100° | 51km/h | 4057m | -7.5m/s | -6.3°C | 51.9% | 622.7hPa | 2.5V | 00:00:00 | 03:26:19 | 00:00:00 | |
| DL1XH1-15 | 2026-09-02 01:18:32 | 52.77582 | 11.10501 | 99° | 49km/h | 4102m | -7.7m/s | -6.5°C | 49.2% | 619.2hPa | 2.5V | 02:35:52 | 03:26:13 | 00:00:00 | |
| AA1-15 | 2026-09-02 01:18:30 | 52.77576 | 11.10564 | 99° | 51km/h | 4079m | -7.5m/s | -6.4°C | 55.2% | 621hPa | 2.6V | 02:36:23 | 03:26:16 | 00:00:00 | |
| DL1XH-west | 2026-09-02 01:18:29 | 52.77580 | 11.10522 | 100° | 51km/h | 4094m | -7.4m/s | -6.5°C | 54.5% | 619.8hPa | 2.6V | 02:36:23 | 03:26:14 | 00:00:00 | |
| DF8AY-15 | 2026-09-02 01:18:29 | 52.77578 | 11.10543 | 100° | 51km/h | 4087m | -7.4m/s | -6.4°C | 49.9% | 620.3hPa | 2.6V | 02:35:00 | 03:26:15 | 00:00:00 | |
| DL1XH-15 | 2026-09-02 01:18:28 | 52.77591 | 11.10419 | 98° | 49km/h | 4132m | -7.5m/s | -6.7°C | 51.3% | 616.9hPa | 2.6V | 02:35:56 | 03:26:09 | 00:00:00 | |
| DO2SHX-10 | 2026-09-02 01:18:27 | 52.77582 | 11.10501 | 100° | 49km/h | 4102m | -7.6m/s | -6.5°C | 49.2% | 619.1hPa | 2.6V | 00:00:00 | 03:26:13 | 00:00:00 | |
| DB0DAN | 2026-09-02 01:18:25 | 52.77586 | 11.10460 | 99° | 47km/h | 4117m | -7.6m/s | -6.6°C | 48.4% | 617.94hPa | 2.6V | 00:00:00 | 00:00:00 | 00:00:00 | |
| DM0DOS-11 | 2026-09-02 01:18:25 | 52.77596 | 11.10357 | 97° | 51km/h | 4154m | -7.8m/s | -6.8°C | 51.4% | 615hPa | 2.5V | 02:35:59 | 03:26:06 | 00:00:00 | |
| DF8AY | 2026-09-02 01:18:23 | 52.77590 | 11.10419 | 98° | 49km/h | 4132m | -7.5m/s | -6.7°C | 56.5% | 616.9hPa | 2.6V | 02:36:23 | 03:26:09 | 00:00:00 | |
| SONDE2-11 | 2026-09-02 01:18:22 | 52.77594 | 11.10377 | 97° | 49km/h | 4147m | -7.7m/s | -6.8°C | 50.2% | 615.6hPa | 2.5V | 00:00:00 | 00:00:00 | 00:00:00 | |
| DO2SHX-10 | 2026-09-02 01:18:21 | 52.77594 | 11.10377 | 98° | 51km/h | 4147m | -7.7m/s | -6.7°C | 51.4% | 615.6hPa | 2.5V | 02:35:00 | 03:26:07 | 00:00:00 | |
| DM0DOS-11 | 2026-09-02 01:18:20 | 52.77604 | 11.10252 | 97° | 51km/h | 4193m | -7.5m/s | -7°C | 49.9% | 612.1hPa | 2.5V | 02:36:04 | 03:26:01 | 00:00:00 | |
| AA1-15 | 2026-09-02 01:18:19 | 52.77598 | 11.10336 | 97° | 51km/h | 4162m | -7.7m/s | -6.9°C | 56.6% | 614.5hPa | 2.6V | 02:36:23 | 03:26:05 | 00:00:00 | |
| DL1XH-west | 2026-09-02 01:18:18 | 52.77601 | 11.10294 | 97° | 51km/h | 4178m | -7.3m/s | -7°C | 56.5% | 613.1hPa | 2.6V | 02:36:23 | 03:26:03 | 00:00:00 | |
| DO2SHX-10 | 2026-09-02 01:18:18 | 52.77599 | 11.10314 | 98° | 51km/h | 4170m | -7.6m/s | -6.9°C | 51.7% | 613.6hPa | 2.6V | 00:00:00 | 03:26:04 | 00:00:00 | |
| DL1XH1-15 | 2026-09-02 01:18:17 | 52.77610 | 11.10189 | 98° | 51km/h | 4215m | -7.7m/s | -7°C | 44.8% | 610.2hPa | 2.6V | 02:36:07 | 03:25:58 | 00:00:00 | |
| DM0DOS-11 | 2026-09-02 01:18:15 | 52.77614 | 11.10148 | 99° | 49km/h | 4231m | -7.8m/s | -7.1°C | 43.9% | 609hPa | 2.5V | 02:36:09 | 03:25:56 | 00:00:00 | |
| DF8AY | 2026-09-02 01:18:12 | 52.77610 | 11.10189 | 99° | 51km/h | 4215m | -7.7m/s | -7°C | 49.9% | 610.2hPa | 2.6V | 02:36:23 | 03:25:58 | 00:00:00 | |
| DO2SHX-10 | 2026-09-02 01:18:12 | 52.77610 | 11.10189 | 99° | 49km/h | 4215m | -7.7m/s | -7.0°C | 44.8% | 610.2hPa | 2.6V | 02:36:00 | 03:25:58 | 00:00:00 | |
| DM0DOS-11 | 2026-09-02 01:18:10 | 52.77624 | 11.10046 | 98° | 49km/h | 4269m | -8m/s | -7.3°C | 42.3% | 606hPa | 2.6V | 02:36:14 | 03:25:51 | 00:00:00 | |
| AA1-15 | 2026-09-02 01:18:09 | 52.77616 | 11.10127 | 100° | 49km/h | 4239m | -7.8m/s | -7.2°C | 48.7% | 608.4hPa | 2.5V | 02:36:23 | 03:25:55 | 00:00:00 | |
| BIOWL1-15 | 2026-09-02 01:18:07 | 52.77632 | 11.09967 | 99° | 47km/h | 4300m | -7.7m/s | -7.3°C | 49.6% | 603.6hPa | 2.6V | 02:36:23 | 03:25:47 | 00:00:00 | |
| DL1XH1-15 | 2026-09-02 01:18:07 | 52.77630 | 11.09986 | 99° | 47km/h | 4292m | -7.7m/s | -7.3°C | 43.1% | 604.3hPa | 2.6V | 02:36:17 | 03:25:48 | 00:00:00 | |
| DL1XH-west | 2026-09-02 01:18:07 | 52.77622 | 11.10066 | 99° | 49km/h | 4261m | -7.6m/s | -7.2°C | 47.9% | 606.6hPa | 2.6V | 02:36:23 | 03:25:52 | 00:00:00 | |
| DO2SHX-10 | 2026-09-02 01:18:06 | 52.77622 | 11.10066 | 99° | 49km/h | 4262m | -7.5m/s | -7.2°C | 43.0% | 606.6hPa | 2.6V | 00:00:00 | 03:25:52 | 00:00:00 | |
| DM0DOS-11 | 2026-09-02 01:18:05 | 52.77634 | 11.09948 | 100° | 47km/h | 4308m | -7.8m/s | -7.4°C | 45.5% | 603.1hPa | 2.6V | 02:36:19 | 03:25:46 | 00:00:00 | |
| DF8AY | 2026-09-02 01:18:02 | 52.77630 | 11.09987 | 99° | 47km/h | 4292m | -7.7m/s | -7.3°C | 48% | 604.3hPa | 2.6V | 02:36:23 | 03:25:48 | 00:00:00 | |
| DM0DOS-11 | 2026-09-02 01:18:00 | 52.77644 | 11.09853 | 100° | 46km/h | 4346m | -7.7m/s | -7.3°C | 40.6% | 600.1hPa | 2.6V | 02:36:24 | 03:25:41 | 00:00:00 | |
| AA1-15 | 2026-09-02 01:17:58 | 52.77638 | 11.09909 | 101° | 46km/h | 4323m | -7.8m/s | -7.4°C | 50.2% | 601.9hPa | 2.5V | 02:36:23 | 03:25:44 | 00:00:00 | |
| DL1XH-west | 2026-09-02 01:17:55 | 52.77644 | 11.09853 | 100° | 46km/h | 4346m | -7.7m/s | -7.4°C | 46.2% | 600.1hPa | 2.6V | 02:37:14 | 03:25:41 | 00:00:00 | |
| DB0DAN | 2026-09-02 01:17:55 | 52.77644 | 11.09853 | 100° | 44km/h | 4346m | -7.7m/s | -7.4°C | 39.6% | 600.11hPa | 2.6V | 00:00:00 | 00:00:00 | 00:00:00 | |
| BIOWL1-15 | 2026-09-02 01:17:53 | 52.77649 | 11.09815 | 100° | 46km/h | 4362m | -7.9m/s | -7.5°C | 45.8% | 599hPa | 2.5V | 02:38:56 | 03:25:39 | 00:00:00 | |
| DO2SHX-10 | 2026-09-02 01:17:53 | 52.77649 | 11.09815 | 101° | 46km/h | 4362m | -7.8m/s | -7.4°C | 40.3% | 598.9hPa | 2.5V | 02:36:00 | 03:25:39 | 00:00:00 | |
| DL1XH1-15 | 2026-09-02 01:17:52 | 52.77660 | 11.09706 | 99° | 44km/h | 4409m | -7.7m/s | -7.7°C | 38.1% | 595.3hPa | 2.5V | 02:36:32 | 03:25:33 | 00:00:00 | |
| DF8AY | 2026-09-02 01:17:51 | 52.77653 | 11.09779 | 101° | 44km/h | 4378m | -7.8m/s | -7.6°C | 45.3% | 597.7hPa | 2.6V | 02:37:14 | 03:25:37 | 00:00:00 | |
| AA1-15 | 2026-09-02 01:17:48 | 52.77660 | 11.09706 | 100° | 44km/h | 4409m | -7.7m/s | -7.7°C | 43.4% | 595.3hPa | 2.5V | 02:37:14 | 03:25:33 | 00:00:00 | |
| DL1XH1-15 | 2026-09-02 01:17:47 | 52.77670 | 11.09616 | 98° | 44km/h | 4448m | -7.6m/s | -7.8°C | 36.7% | 592.3hPa | 2.5V | 02:36:37 | 03:25:28 | 00:00:00 | |
| DL1XH-west | 2026-09-02 01:17:45 | 52.77664 | 11.09670 | 99° | 44km/h | 4425m | -7.6m/s | -7.8°C | 43.4% | 594.1hPa | 2.6V | 02:37:14 | 03:25:31 | 00:00:00 | |
| DF8AY | 2026-09-02 01:17:41 | 52.77671 | 11.09598 | 98° | 44km/h | 4456m | -7.8m/s | -7.9°C | 41.3% | 591.7hPa | 2.5V | 02:37:14 | 03:25:27 | 00:00:00 | |
| DB0DAN | 2026-09-02 01:17:40 | 52.77673 | 11.09580 | 98° | 42km/h | 4463m | -7.9m/s | -7.9°C | 34.9% | 591.2hPa | 2.6V | 00:00:00 | 00:00:00 | 00:00:00 | |
| DM0DOS-11 | 2026-09-02 01:17:40 | 52.77680 | 11.09492 | 98° | 42km/h | 4502m | -7.9m/s | -8.2°C | 36.5% | 588.1hPa | 2.5V | 02:36:44 | 03:25:21 | 00:00:00 | |
| DO2SHX-10 | 2026-09-02 01:17:38 | 52.77675 | 11.09544 | 98° | 42km/h | 4479m | -7.6m/s | -8.0°C | 36.1% | 589.8hPa | 2.6V | 00:00:00 | 03:25:24 | 00:00:00 | |
| DL1XH1-15 | 2026-09-02 01:17:37 | 52.77685 | 11.09439 | 98° | 44km/h | 4526m | -7.8m/s | -8.4°C | 36.4% | 586.4hPa | 2.6V | 02:36:47 | 03:25:18 | 00:00:00 | |
| AA1-15 | 2026-09-02 01:17:36 | 52.77679 | 11.09509 | 98° | 42km/h | 4495m | -8m/s | -8.2°C | 41.3% | 588.7hPa | 2.5V | 02:37:14 | 03:25:22 | 00:00:00 | |
| DL1XH-west | 2026-09-02 01:17:34 | 52.77682 | 11.09474 | 98° | 42km/h | 4510m | -7.8m/s | -8.3°C | 41.5% | 587.5hPa | 2.6V | 02:37:14 | 03:25:20 | 00:00:00 | |
| AM1SDL-15 | 2026-09-02 01:17:34 | 52.77682 | 11.09474 | 99° | 44km/h | 4510m | -7.7m/s | -8.2°C | 36.6% | 587.5hPa | 2.6V | 00:00:00 | 03:25:20 | 00:00:00 | |
| DL1XH1-15 | 2026-09-02 01:17:32 | 52.77692 | 11.09349 | 97° | 44km/h | 4565m | -7.7m/s | -8.7°C | 36% | 583.5hPa | 2.6V | 02:36:52 | 03:25:13 | 00:00:00 | |
| BIOWL1-15 | 2026-09-02 01:17:31 | 52.77689 | 11.09385 | 98° | 44km/h | 4549m | -7.8m/s | -8.6°C | 40.9% | 584.6hPa | 2.6V | 02:38:56 | 03:25:15 | 00:00:00 | |
| DF8AY | 2026-09-02 01:17:30 | 52.77688 | 11.09403 | 98° | 44km/h | 4542m | -7.9m/s | -8.5°C | 41.2% | 585.2hPa | 2.5V | 02:37:14 | 03:25:16 | 00:00:00 | |
| DO2SHX-10 | 2026-09-02 01:17:29 | 52.77689 | 11.09385 | 98° | 44km/h | 4550m | -7.8m/s | -8.5°C | 36.1% | 584.6hPa | 2.6V | 00:00:00 | 03:25:15 | 00:00:00 | |
| DL1XH1-15 | 2026-09-02 01:17:27 | 52.77698 | 11.09262 | 96° | 42km/h | 4604m | -7.8m/s | -9°C | 35.3% | 580.5hPa | 2.6V | 02:36:57 | 03:25:08 | 00:00:00 | |
| DF7ER-10 | 2026-09-02 01:17:26 | 52.77692 | 11.09349 | 98° | 44km/h | 4565m | -7.7m/s | -8.7°C | 35.0% | 583.5hPa | 2.5V | 02:37:00 | 00:00:00 | 00:00:00 | |
| DB0DAN | 2026-09-02 01:17:25 | 52.77695 | 11.09314 | 96° | 40km/h | 4581m | -7.9m/s | -8.8°C | 34.7% | 582.27hPa | 2.5V | 00:00:00 | 00:00:00 | 00:00:00 | |
| AA1-15 | 2026-09-02 01:17:25 | 52.77695 | 11.09314 | 97° | 42km/h | 4581m | -7.9m/s | -8.8°C | 40.4% | 582.3hPa | 2.5V | 02:37:14 | 03:25:11 | 00:00:00 | |
| DL1XH-west | 2026-09-02 01:17:24 | 52.77696 | 11.09296 | 96° | 42km/h | 4588m | -7.7m/s | -8.9°C | 40.4% | 581.6hPa | 2.5V | 02:37:14 | 03:25:10 | 00:00:00 | |
| SONCRA | 2026-09-02 01:17:23 | 52.77697 | 11.09279 | 95° | 42km/h | 4596m | -7.7m/s | -9.0°C | 34.7% | 581.0hPa | 2.6V | 00:00:00 | 00:00:00 | 00:00:00 | |
| DL1XH-15 | 2026-09-02 01:17:22 | 52.77704 | 11.09175 | 96° | 44km/h | 4643m | -8m/s | -9.2°C | 35% | 577.6hPa | 2.6V | 02:37:02 | 03:25:03 | 00:00:00 | |
| BIOWL1-15 | 2026-09-02 01:17:21 | 52.77699 | 11.09244 | 96° | 42km/h | 4612m | -7.7m/s | -9°C | 39.7% | 579.9hPa | 2.6V | 02:38:56 | 03:25:07 | 00:00:00 | |
| DF8AY | 2026-09-02 01:17:20 | 52.77700 | 11.09227 | 96° | 42km/h | 4620m | -7.9m/s | -9.1°C | 39.8% | 579.4hPa | 2.5V | 02:37:14 | 03:25:06 | 00:00:00 | |
| DO2SHX-10 | 2026-09-02 01:17:19 | 52.77701 | 11.09210 | 97° | 42km/h | 4627m | -7.9m/s | -9.1°C | 35.2% | 578.8hPa | 2.6V | 00:00:00 | 03:25:05 | 00:00:00 | |
| DL1XH-15 | 2026-09-02 01:17:17 | 52.77710 | 11.09085 | 95° | 44km/h | 4682m | -7.7m/s | -9.3°C | 33.1% | 574.6hPa | 2.6V | 02:37:07 | 03:24:58 | 00:00:00 | |
| DO2SHX-10 | 2026-09-02 01:17:16 | 52.77705 | 11.09157 | 98° | 44km/h | 4651m | -7.8m/s | -9.2°C | 34.8% | 576.9hPa | 2.6V | 02:37:00 | 03:25:02 | 00:00:00 | |
| DM0DOS-11 | 2026-09-02 01:17:15 | 52.77713 | 11.09048 | 95° | 44km/h | 4698m | -7.8m/s | -9.3°C | 30.8% | 573.6hPa | 2.6V | 02:37:09 | 03:24:56 | 00:00:00 | |
| DL1XH-west | 2026-09-02 01:17:14 | 52.77708 | 11.09121 | 97° | 44km/h | 4667m | -8m/s | -9.3°C | 39% | 575.9hPa | 2.5V | 02:37:14 | 03:25:00 | 00:00:00 | |
| DO2SHX-10 | 2026-09-02 01:17:13 | 52.77709 | 11.09103 | 97° | 44km/h | 4675m | -7.8m/s | -9.3°C | 33.9% | 575.2hPa | 2.5V | 00:00:00 | 03:24:59 | 00:00:00 | |
| DL1XH-15 | 2026-09-02 01:17:12 | 52.77716 | 11.08993 | 93° | 44km/h | 4720m | -7.8m/s | -9.4°C | 30% | 571.8hPa | 2.5V | 02:37:12 | 03:24:53 | 00:00:00 | |
| DB0DAN | 2026-09-02 01:17:10 | 52.77713 | 11.09048 | 96° | 42km/h | 4698m | -7.8m/s | -9.3°C | 29.8% | 573.57hPa | 2.6V | 00:00:00 | 00:00:00 | 00:00:00 | |
| DF8AY | 2026-09-02 01:17:09 | 52.77714 | 11.09029 | 95° | 44km/h | 4705m | -7.6m/s | -9.3°C | 34.4% | 573hPa | 2.6V | 02:37:14 | 03:24:55 | 00:00:00 | |
| DF8AY-15 | 2026-09-02 01:17:09 | 52.77714 | 11.09029 | 95° | 42km/h | 4706m | -7.5m/s | -9.3°C | 30.0% | 572.9hPa | 2.6V | 00:00:00 | 03:24:55 | 00:00:00 | |
| DL1XH1-15 | 2026-09-02 01:17:07 | 52.77719 | 11.08901 | 92° | 44km/h | 4759m | -7.8m/s | -9.6°C | 32% | 568.9hPa | 2.6V | 02:37:17 | 03:24:48 | 00:00:00 | |
| DM0DOS-11 | 2026-09-02 01:17:05 | 52.77721 | 11.08847 | 92° | 42km/h | 4783m | -7.7m/s | -9.7°C | 30.2% | 567.2hPa | 2.6V | 02:37:20 | 03:24:45 | 00:00:00 | |
| DL1XH-west | 2026-09-02 01:17:04 | 52.77718 | 11.08937 | 94° | 44km/h | 4744m | -7.8m/s | -9.6°C | 36.4% | 570.1hPa | 2.6V | 02:38:05 | 03:24:50 | 00:00:00 | |
| AA1-15 | 2026-09-02 01:17:03 | 52.77719 | 11.08919 | 93° | 44km/h | 4752m | -7.6m/s | -9.6°C | 36.5% | 569.5hPa | 2.6V | 02:38:05 | 03:24:49 | 00:00:00 | |
| DF8AY | 2026-09-02 01:16:59 | 52.77721 | 11.08847 | 93° | 42km/h | 4783m | -7.7m/s | -9.7°C | 34.6% | 567.2hPa | 2.6V | 02:38:05 | 03:24:45 | 00:00:00 | |
| BIOWL1-15 | 2026-09-02 01:16:58 | 52.77721 | 11.08830 | 93° | 42km/h | 4791m | -7.7m/s | -9.7°C | 31.4% | 566.8hPa | 2.6V | 02:38:56 | 03:24:44 | 00:00:00 | |
| AM1SDL-15 | 2026-09-02 01:16:58 | 52.77721 | 11.08830 | 93° | 40km/h | 4791m | -7.6m/s | -9.6°C | 27.0% | 566.7hPa | 2.6V | 00:00:00 | 03:24:44 | 00:00:00 | |
| DL1XH1-15 | 2026-09-02 01:16:57 | 52.77723 | 11.08726 | 89° | 40km/h | 4837m | -7.7m/s | -9.8°C | 22.4% | 563.2hPa | 2.6V | 02:37:27 | 03:24:38 | 00:00:00 | |
| DO2SHX-10 | 2026-09-02 01:16:55 | 52.77722 | 11.08777 | 92° | 42km/h | 4814m | -7.7m/s | -9.6°C | 24.7% | 564.9hPa | 2.6V | 00:00:00 | 03:24:41 | 00:00:00 | |
| DM0DOS-11 | 2026-09-02 01:16:54 | 52.77723 | 11.08676 | 89° | 40km/h | 4861m | -7.8m/s | -9.9°C | 22.4% | 561.6hPa | 2.6V | 02:37:30 | 03:24:35 | 00:00:00 | |
| DL1XH-west | 2026-09-02 01:16:53 | 52.77723 | 11.08743 | 90° | 40km/h | 4830m | -7.7m/s | -9.7°C | 27.3% | 563.8hPa | 2.5V | 02:38:05 | 03:24:39 | 00:00:00 | |
| AA1-15 | 2026-09-02 01:16:52 | 52.77723 | 11.08726 | 89° | 40km/h | 4837m | -7.7m/s | -9.8°C | 26.5% | 563.2hPa | 2.6V | 02:38:05 | 03:24:38 | 00:00:00 | |
| DF8AY | 2026-09-02 01:16:49 | 52.77723 | 11.08676 | 89° | 40km/h | 4861m | -7.8m/s | -9.9°C | 26.5% | 561.6hPa | 2.6V | 02:38:05 | 03:24:35 | 00:00:00 | |
| DF8AY-15 | 2026-09-02 01:16:49 | 52.77723 | 11.08676 | 90° | 38km/h | 4861m | -7.8m/s | -9.8°C | 22.4% | 561.5hPa | 2.5V | 00:00:00 | 03:24:35 | 00:00:00 | |
| DO2SHX-10 | 2026-09-02 01:16:48 | 52.77722 | 11.08659 | 89° | 38km/h | 4869m | -8.1m/s | -9.9°C | 23.2% | 560.9hPa | 2.5V | 00:00:00 | 03:24:34 | 00:00:00 | |
| DL1XH1-15 | 2026-09-02 01:16:47 | 52.77722 | 11.08563 | 89° | 38km/h | 4916m | -7.7m/s | -10.3°C | 26.5% | 557.6hPa | 2.5V | 02:37:37 | 03:24:28 | 00:00:00 | |
| AM1SDL-15 | 2026-09-02 01:16:46 | 52.77722 | 11.08627 | 90° | 38km/h | 4884m | -7.6m/s | -10.0°C | 24.2% | 559.8hPa | 2.6V | 02:37:00 | 03:24:32 | 00:00:00 | |
| DO2SHX-10 | 2026-09-02 01:16:45 | 52.77722 | 11.08611 | 90° | 38km/h | 4892m | -7.6m/s | -10.0°C | 24.7% | 559.2hPa | 2.6V | 00:00:00 | 03:24:31 | 00:00:00 | |
| DF7ER-10 | 2026-09-02 01:16:44 | 52.77722 | 11.08611 | 91° | 38km/h | 4892m | -7.6m/s | -10.1°C | 23.9% | 559.3hPa | 2.6V | 02:38:00 | 00:00:00 | 00:00:00 | |
| DM0DOS-11 | 2026-09-02 01:16:43 | 52.77722 | 11.08516 | 89° | 38km/h | 4939m | -7.7m/s | -10.4°C | 26.2% | 555.8hPa | 2.6V | 02:37:40 | 03:24:25 | 00:00:00 | |
| DL1XH-west | 2026-09-02 01:16:42 | 52.77722 | 11.08563 | 90° | 38km/h | 4916m | -7.7m/s | -10.3°C | 31.2% | 557.6hPa | 2.5V | 02:38:05 | 03:24:28 | 00:00:00 | |
| AA1-15 | 2026-09-02 01:16:41 | 52.77722 | 11.08547 | 89° | 38km/h | 4923m | -7.6m/s | -10.3°C | 30% | 557hPa | 2.6V | 02:38:05 | 03:24:27 | 00:00:00 | |
| DB0DAN | 2026-09-02 01:16:40 | 52.77722 | 11.08532 | 90° | 37km/h | 4931m | -7.5m/s | -10.4°C | 24.6% | 556.48hPa | 2.6V | 00:00:00 | 00:00:00 | 00:00:00 | |
| DF8AY | 2026-09-02 01:16:38 | 52.77722 | 11.08500 | 90° | 38km/h | 4946m | -7.8m/s | -10.5°C | 30.3% | 555.4hPa | 2.5V | 02:38:05 | 03:24:24 | 00:00:00 | |
| DL1XH1-15 | 2026-09-02 01:16:37 | 52.77721 | 11.08406 | 90° | 38km/h | 4992m | -8m/s | -10.9°C | 30.7% | 551.9hPa | 2.5V | 02:37:47 | 03:24:18 | 00:00:00 | |
| DM0DOS-11 | 2026-09-02 01:16:36 | 52.77721 | 11.08437 | 89° | 38km/h | 4977m | -7.8m/s | -10.8°C | 27.2% | 553hPa | 2.6V | 02:37:45 | 03:24:20 | 00:00:00 | |
| DO2SHX-10 | 2026-09-02 01:16:36 | 52.77721 | 11.08469 | 90° | 38km/h | 4962m | -7.6m/s | -10.6°C | 25.3% | 554.2hPa | 2.6V | 00:00:00 | 03:24:22 | 00:00:00 | |
| DD8BA-10 | 2026-09-02 01:16:35 | 52.77721 | 11.08453 | 90° | 38km/h | 4969m | -7.6m/s | -10.7°C | 25.9% | 553.5hPa | 2.6V | 02:37:00 | 00:00:00 | 00:00:00 | |
| AM1SDL-15 | 2026-09-02 01:16:34 | 52.77721 | 11.08437 | 90° | 38km/h | 4977m | -7.8m/s | -10.7°C | 27.2% | 553.0hPa | 2.5V | 00:00:00 | 03:24:20 | 00:00:00 | |
| DF7ER-10 | 2026-09-02 01:16:33 | 52.77721 | 11.08437 | 90° | 38km/h | 4977m | -7.8m/s | -10.8°C | 26.2% | 553.0hPa | 2.5V | 02:38:00 | 00:00:00 | 00:00:00 | |
| DL1XH1-15 | 2026-09-02 01:16:32 | 52.77722 | 11.08327 | 90° | 38km/h | 5031m | -7.8m/s | -11.3°C | 31.3% | 549.2hPa | 2.5V | 02:37:52 | 03:24:13 | 00:00:00 | |
| DM0DOS-11 | 2026-09-02 01:16:31 | 52.77722 | 11.08359 | 90° | 38km/h | 5015m | -7.7m/s | -11.2°C | 32.8% | 550.3hPa | 2.6V | 02:37:50 | 03:24:15 | 00:00:00 | |
| AA1-15 | 2026-09-02 01:16:31 | 52.77721 | 11.08390 | 90° | 38km/h | 5000m | -7.8m/s | -11°C | 37.2% | 551.4hPa | 2.6V | 02:38:05 | 03:24:17 | 00:00:00 | |
| BIOWL1-15 | 2026-09-02 01:16:30 | 52.77722 | 11.08374 | 91° | 38km/h | 5008m | -7.6m/s | -11.1°C | 37.7% | 550.9hPa | 2.6V | 02:38:56 | 03:24:16 | 00:00:00 | |
| DF8AY | 2026-09-02 01:16:28 | 52.77722 | 11.08343 | 91° | 38km/h | 5023m | -7.8m/s | -11.2°C | 37.1% | 549.7hPa | 2.5V | 02:38:05 | 03:24:14 | 00:00:00 | |
| DK9SH | 2026-09-02 01:16:26 | 52.77722 | 11.08327 | 92° | 38km/h | 5031m | -7.8m/s | -11.3°C | 0% | 549.2hPa | 2.6V | 02:38:00 | 00:00:00 | 00:00:00 | |
| DB0DAN | 2026-09-02 01:16:25 | 52.77722 | 11.08296 | 91° | 37km/h | 5047m | -8m/s | -11.4°C | 30.5% | 548.08hPa | 2.6V | 00:00:00 | 00:00:00 | 00:00:00 | |
| DD8BA-10 | 2026-09-02 01:16:25 | 52.77722 | 11.08295 | 92° | 37km/h | 5047m | -7.9m/s | -11.4°C | 31.6% | 548.0hPa | 2.5V | 00:00:00 | 00:00:00 | 00:00:00 | |
| DL1XH1-15 | 2026-09-02 01:16:22 | 52.77724 | 11.08173 | 90° | 35km/h | 5110m | -8m/s | -12°C | 36.2% | 543.5hPa | 2.5V | 02:38:02 | 03:24:03 | 00:00:00 | |
| DL1XH-west | 2026-09-02 01:16:21 | 52.77723 | 11.08233 | 91° | 37km/h | 5078m | -8m/s | -11.7°C | 38.8% | 545.9hPa | 2.6V | 02:38:05 | 03:24:07 | 00:00:00 | |
| AA1-15 | 2026-09-02 01:16:21 | 52.77724 | 11.08218 | 91° | 37km/h | 5086m | -8m/s | -11.8°C | 38.9% | 545.3hPa | 2.6V | 02:38:05 | 03:24:06 | 00:00:00 | |
| DF8AY | 2026-09-02 01:16:17 | 52.77724 | 11.08173 | 90° | 35km/h | 5110m | -8m/s | -12°C | 41.2% | 543.5hPa | 2.5V | 02:38:05 | 03:24:03 | 00:00:00 | |
| DO2SHX-10 | 2026-09-02 01:16:17 | 52.77724 | 11.08173 | 91° | 35km/h | 5110m | -7.9m/s | -11.9°C | 36.2% | 543.5hPa | 2.5V | 02:38:00 | 03:24:03 | 00:00:00 | |
| DD8BA-10 | 2026-09-02 01:16:15 | 52.77724 | 11.08144 | 90° | 37km/h | 5126m | -7.6m/s | -12.1°C | 36.7% | 542.5hPa | 2.5V | 00:00:00 | 00:00:00 | 00:00:00 | |
| DO2SHX-10 | 2026-09-02 01:16:14 | 52.77724 | 11.08129 | 89° | 37km/h | 5133m | -7.3m/s | -12.2°C | 37.1% | 541.9hPa | 2.5V | 00:00:00 | 03:24:00 | 00:00:00 | |
| DL1XH1-15 | 2026-09-02 01:16:12 | 52.77723 | 11.08025 | 88° | 37km/h | 5186m | -7.8m/s | -12.7°C | 38.6% | 538.1hPa | 2.5V | 02:38:12 | 03:23:53 | 00:00:00 | |
| DL1XH-west | 2026-09-02 01:16:10 | 52.77723 | 11.08069 | 90° | 37km/h | 5163m | -7.9m/s | -12.5°C | 44% | 539.8hPa | 2.6V | 02:38:56 | 03:23:56 | 00:00:00 | |
| DL1XH-15 | 2026-09-02 01:16:10 | 52.77723 | 11.08010 | 88° | 35km/h | 5193m | -8m/s | -12.7°C | 38.7% | 537.5hPa | 2.6V | 02:38:13 | 03:23:52 | 00:00:00 | |
| DF8AY | 2026-09-02 01:16:06 | 52.77723 | 11.08010 | 89° | 35km/h | 5193m | -8m/s | -12.7°C | 43.5% | 537.5hPa | 2.6V | 02:38:56 | 03:23:52 | 00:00:00 | |
| DO2SHX-10 | 2026-09-02 01:16:05 | 52.77723 | 11.07995 | 89° | 35km/h | 5201m | -7.7m/s | -12.7°C | 38.8% | 536.9hPa | 2.6V | 00:00:00 | 03:23:51 | 00:00:00 | |
| BIOWL1-15 | 2026-09-02 01:16:05 | 52.77723 | 11.07966 | 89° | 35km/h | 5217m | -8.1m/s | -12.9°C | 43.3% | 536hPa | 2.5V | 02:38:56 | 03:23:49 | 00:00:00 | |
| DK9SH | 2026-09-02 01:16:04 | 52.77723 | 11.07995 | 89° | 35km/h | 5201m | -7.7m/s | -12.8°C | 0% | 536.9hPa | 2.6V | 00:00:00 | 00:00:00 | 00:00:00 | |
| DM0DOS-11 | 2026-09-02 01:16:03 | 52.77723 | 11.07909 | 89° | 35km/h | 5248m | -8.1m/s | -13°C | 38% | 533.7hPa | 2.6V | 02:38:20 | 03:23:45 | 00:00:00 | |
| DL1XH1-15 | 2026-09-02 01:16:02 | 52.77723 | 11.07880 | 89° | 35km/h | 5264m | -8.2m/s | -13.1°C | 37.8% | 532.7hPa | 2.5V | 02:38:22 | 03:23:43 | 00:00:00 | |
| DO2SHX-10 | 2026-09-02 01:16:02 | 52.77723 | 11.07952 | 90° | 35km/h | 5225m | -7.9m/s | -12.9°C | 38.6% | 535.3hPa | 2.6V | 00:00:00 | 03:23:48 | 00:00:00 | |
| DF7ER-10 | 2026-09-02 01:16:01 | 52.77723 | 11.07952 | 90° | 35km/h | 5225m | -7.9m/s | -12.9°C | 37.2% | 535.3hPa | 2.6V | 02:38:00 | 00:00:00 | 00:00:00 | |
| DL1XH-15 | 2026-09-02 01:16:00 | 52.77722 | 11.07865 | 88° | 35km/h | 5272m | -8.2m/s | -13.1°C | 37.6% | 532.1hPa | 2.6V | 02:38:23 | 03:23:42 | 00:00:00 | |
| DL1XH-west | 2026-09-02 01:16:00 | 52.77722 | 11.07923 | 90° | 35km/h | 5240m | -8m/s | -13°C | 42.9% | 534.3hPa | 2.6V | 02:38:56 | 03:23:46 | 00:00:00 | |
| AA1-15 | 2026-09-02 01:15:59 | 52.77722 | 11.07909 | 90° | 35km/h | 5248m | -8.1m/s | -13°C | 42.7% | 533.7hPa | 2.6V | 02:38:56 | 03:23:45 | 00:00:00 | |
| DF8AY | 2026-09-02 01:15:56 | 52.77722 | 11.07865 | 89° | 35km/h | 5272m | -8.2m/s | -13.1°C | 42.3% | 532.1hPa | 2.6V | 02:38:56 | 03:23:42 | 00:00:00 | |
| DB0DAN | 2026-09-02 01:15:55 | 52.77722 | 11.07851 | 89° | 33km/h | 5280m | -7.8m/s | -13.2°C | 36.2% | 531.62hPa | 2.6V | 00:00:00 | 00:00:00 | 00:00:00 | |
| BIOWL1-15 | 2026-09-02 01:15:53 | 52.77722 | 11.07822 | 90° | 35km/h | 5296m | -8m/s | -13.3°C | 42.6% | 530.6hPa | 2.6V | 02:38:56 | 03:23:39 | 00:00:00 | |
| DO2SHX-10 | 2026-09-02 01:15:53 | 52.77722 | 11.07822 | 91° | 35km/h | 5296m | -7.9m/s | -13.3°C | 37.8% | 530.5hPa | 2.6V | 00:00:00 | 03:23:39 | 00:00:00 | |
| DM0DOS-11 | 2026-09-02 01:15:52 | 52.77723 | 11.07765 | 89° | 35km/h | 5327m | -8m/s | -13.6°C | 38.4% | 528.3hPa | 2.6V | 02:38:30 | 03:23:35 | 00:00:00 | |
| DL1XH1-15 | 2026-09-02 01:15:52 | 52.77723 | 11.07736 | 90° | 35km/h | 5343m | -8m/s | -13.7°C | 38.9% | 527.2hPa | 2.6V | 02:38:32 | 03:23:33 | 00:00:00 | |
| DF7ER-10 | 2026-09-02 01:15:51 | 52.77723 | 11.07808 | 90° | 35km/h | 5304m | -7.8m/s | -13.4°C | 36.5% | 529.9hPa | 2.5V | 02:38:00 | 00:00:00 | 00:00:00 | |
| DL1XH-15 | 2026-09-02 01:15:50 | 52.77723 | 11.07721 | 90° | 35km/h | 5350m | -8.1m/s | -13.8°C | 39% | 526.8hPa | 2.5V | 02:38:33 | 03:23:32 | 00:00:00 | |
| AA1-15 | 2026-09-02 01:15:49 | 52.77722 | 11.07765 | 89° | 35km/h | 5327m | -8m/s | -13.6°C | 43% | 528.3hPa | 2.6V | 02:38:56 | 03:23:35 | 00:00:00 | |
| DF8AY | 2026-09-02 01:15:45 | 52.77723 | 11.07707 | 90° | 35km/h | 5358m | -7.8m/s | -13.9°C | 43.5% | 526.2hPa | 2.5V | 02:38:56 | 03:23:31 | 00:00:00 | |
| DD8BA-10 | 2026-09-02 01:15:45 | 52.77723 | 11.07707 | 90° | 37km/h | 5358m | -7.8m/s | -13.8°C | 38.9% | 526.1hPa | 2.6V | 00:00:00 | 00:00:00 | 00:00:00 | |
| DO2SHX-10 | 2026-09-02 01:15:44 | 52.77723 | 11.07692 | 89° | 35km/h | 5366m | -7.6m/s | -13.9°C | 38.4% | 525.6hPa | 2.6V | 00:00:00 | 03:23:30 | 00:00:00 | |
| DK9SH | 2026-09-02 01:15:43 | 52.77723 | 11.07692 | 90° | 37km/h | 5366m | -7.7m/s | -13.9°C | 0% | 525.7hPa | 2.6V | 00:00:00 | 00:00:00 | 00:00:00 | |
| DL1XH1-15 | 2026-09-02 01:15:42 | 52.77722 | 11.07587 | 88° | 35km/h | 5420m | -7.8m/s | -14.3°C | 37.3% | 522hPa | 2.6V | 02:38:42 | 03:23:23 | 00:00:00 | |
| DO2SHX-10 | 2026-09-02 01:15:41 | 52.77723 | 11.07647 | 89° | 37km/h | 5389m | -7.8m/s | -14.0°C | 37.2% | 524.0hPa | 2.6V | 02:38:00 | 03:23:27 | 00:00:00 | |
| DL1XH-15 | 2026-09-02 01:15:40 | 52.77722 | 11.07572 | 87° | 37km/h | 5428m | -7.7m/s | -14.4°C | 38.1% | 521.4hPa | 2.6V | 02:38:43 | 03:23:22 | 00:00:00 | |
| DL1XH-west | 2026-09-02 01:15:39 | 52.77723 | 11.07618 | 89° | 37km/h | 5405m | -8.3m/s | -14.2°C | 41.6% | 522.9hPa | 2.5V | 02:38:56 | 03:23:25 | 00:00:00 | |
| AA1-15 | 2026-09-02 01:15:38 | 52.77722 | 11.07602 | 88° | 37km/h | 5413m | -7.9m/s | -14.3°C | 41.7% | 522.4hPa | 2.5V | 02:38:56 | 03:23:24 | 00:00:00 | |
| DF8AY | 2026-09-02 01:15:34 | 52.77721 | 11.07542 | 89° | 37km/h | 5443m | -8.1m/s | -14.5°C | 43% | 520.3hPa | 2.6V | 02:38:56 | 03:23:20 | 00:00:00 | |
| DL1XH1-15 | 2026-09-02 01:15:32 | 52.77717 | 11.07432 | 84° | 38km/h | 5498m | -7.9m/s | -14.8°C | 37.1% | 516.6hPa | 2.6V | 02:38:52 | 03:23:13 | 00:00:00 | |
| DL1XH-15 | 2026-09-02 01:15:30 | 52.77716 | 11.07416 | 84° | 37km/h | 5506m | -7.9m/s | -14.8°C | 36.7% | 516hPa | 2.5V | 02:38:53 | 03:23:12 | 00:00:00 | |
| DL1XH-west | 2026-09-02 01:15:29 | 52.77719 | 11.07463 | 86° | 38km/h | 5482m | -7.7m/s | -14.8°C | 42.6% | 517.6hPa | 2.6V | 02:38:56 | 03:23:15 | 00:00:00 | |
| AA1-15 | 2026-09-02 01:15:28 | 52.77718 | 11.07447 | 85° | 38km/h | 5490m | -7.7m/s | -14.8°C | 42.1% | 517.1hPa | 2.6V | 02:38:56 | 03:23:14 | 00:00:00 | |
| EDDB2-11 | 2026-09-02 01:15:28 | 52.77717 | 11.07432 | 84° | 37km/h | 5498m | -7.9m/s | -14.8°C | 35.6% | 516.6hPa | 2.5V | 00:00:00 | 00:00:00 | 00:00:00 | |
| DB0DAN | 2026-09-02 01:15:25 | 52.77716 | 11.07401 | 85° | 35km/h | 5514m | -8.2m/s | -14.9°C | 35.6% | 515.44hPa | 2.5V | 00:00:00 | 00:00:00 | 00:00:00 | |
| DF8AY | 2026-09-02 01:15:25 | 52.77715 | 11.07385 | 84° | 38km/h | 5521m | -8.3m/s | -14.9°C | 41.3% | 514.9hPa | 2.5V | 02:38:56 | 03:23:10 | 00:00:00 | |
| BIOWL1-15 | 2026-09-02 01:15:23 | 52.77714 | 11.07369 | 84° | 38km/h | 5530m | -7.9m/s | -15°C | 41.3% | 514.4hPa | 2.6V | 02:38:56 | 03:23:09 | 00:00:00 | |
| DL1XH1-15 | 2026-09-02 01:15:22 | 52.77707 | 11.07272 | 83° | 40km/h | 5576m | -7.6m/s | -15.3°C | 37.3% | 511.3hPa | 2.5V | 02:39:02 | 03:23:03 | 00:00:00 | |
| DO2SHX-10 | 2026-09-02 01:15:22 | 52.77713 | 11.07353 | 84° | 38km/h | 5537m | -7.7m/s | -15.0°C | 37.5% | 513.7hPa | 2.6V | 00:00:00 | 03:23:08 | 00:00:00 | |
| DL1XH-15 | 2026-09-02 01:15:20 | 52.77706 | 11.07255 | 83° | 38km/h | 5583m | -8m/s | -15.4°C | 37.2% | 510.6hPa | 2.6V | 02:39:03 | 03:23:02 | 00:00:00 | |
| AA1-15 | 2026-09-02 01:15:18 | 52.77708 | 11.07288 | 83° | 40km/h | 5568m | -8m/s | -15.3°C | 41.4% | 511.8hPa | 2.5V | 02:39:47 | 03:23:04 | 00:00:00 | |
| BIOWL1-15 | 2026-09-02 01:15:13 | 52.77703 | 11.07207 | 84° | 38km/h | 5607m | -8.3m/s | -15.6°C | 41.4% | 509.2hPa | 2.6V | 02:40:38 | 03:22:59 | 00:00:00 | |
| DO2SHX-10 | 2026-09-02 01:15:13 | 52.77703 | 11.07207 | 84° | 38km/h | 5607m | -8.3m/s | -15.5°C | 37.0% | 509.1hPa | 2.6V | 00:00:00 | 03:22:59 | 00:00:00 | |
| DL1XH1-15 | 2026-09-02 01:15:12 | 52.77697 | 11.07111 | 82° | 38km/h | 5655m | -7.9m/s | -16°C | 37.9% | 505.9hPa | 2.6V | 02:39:12 | 03:22:53 | 00:00:00 | |
| DL2RXE-15 | 2026-09-02 01:15:11 | 52.77702 | 11.07191 | 84° | 38km/h | 5615m | -8.2m/s | -15.7°C | 35.2% | 508.6hPa | 2.6V | 02:39:00 | 00:00:00 | 00:00:00 | |
| DL1XH-15 | 2026-09-02 01:15:10 | 52.77695 | 11.07095 | 82° | 40km/h | 5663m | -8.1m/s | -16.1°C | 37.9% | 505.5hPa | 2.6V | 02:39:13 | 03:22:52 | 00:00:00 | |
| DB0DAN | 2026-09-02 01:15:10 | 52.77700 | 11.07159 | 83° | 37km/h | 5631m | -7.9m/s | -15.8°C | 35.5% | 507.48hPa | 2.5V | 00:00:00 | 00:00:00 | 00:00:00 | |
| DL1XH-west | 2026-09-02 01:15:07 | 52.77696 | 11.07111 | 82° | 38km/h | 5655m | -7.9m/s | -16°C | 42.1% | 505.9hPa | 2.6V | 02:39:47 | 03:22:53 | 00:00:00 | |
| AA1-15 | 2026-09-02 01:15:07 | 52.77695 | 11.07095 | 83° | 40km/h | 5663m | -8.1m/s | -16.1°C | 42% | 505.5hPa | 2.6V | 02:39:47 | 03:22:52 | 00:00:00 | |
| DO2SHX-10 | 2026-09-02 01:15:07 | 52.77696 | 11.07111 | 83° | 40km/h | 5656m | -7.8m/s | -16.0°C | 37.9% | 505.8hPa | 2.5V | 00:00:00 | 03:22:53 | 00:00:00 | |
| EDDB2-12 | 2026-09-02 01:15:06 | 52.77694 | 11.07079 | 83° | 38km/h | 5671m | -8.2m/s | -16.2°C | 36.6% | 504.9hPa | 2.5V | 00:00:00 | 00:00:00 | 00:00:00 | |
| DD8BA-10 | 2026-09-02 01:15:05 | 52.77694 | 11.07079 | 84° | 40km/h | 5671m | -8.1m/s | -16.1°C | 38.2% | 504.8hPa | 2.5V | 02:39:00 | 00:00:00 | 00:00:00 | |
| DO2SHX-10 | 2026-09-02 01:15:04 | 52.77693 | 11.07062 | 84° | 40km/h | 5679m | -8.3m/s | -16.2°C | 37.8% | 504.3hPa | 2.6V | 00:00:00 | 03:22:50 | 00:00:00 | |
| DM0DOS-11 | 2026-09-02 01:15:03 | 52.77688 | 11.06978 | 85° | 40km/h | 5719m | -8.2m/s | -16.6°C | 38.4% | 501.7hPa | 2.6V | 02:39:20 | 03:22:45 | 00:00:00 | |
| BIOWL1-15 | 2026-09-02 01:15:03 | 52.77692 | 11.07045 | 84° | 40km/h | 5687m | -8m/s | -16.3°C | 41.7% | 503.8hPa | 2.5V | 02:40:38 | 03:22:49 | 00:00:00 | |
| DL1XH1-15 | 2026-09-02 01:15:02 | 52.77687 | 11.06944 | 86° | 40km/h | 5735m | -8.1m/s | -16.7°C | 38.2% | 500.7hPa | 2.5V | 02:39:22 | 03:22:43 | 00:00:00 | |
| DL1XH-15 | 2026-09-02 01:15:00 | 52.77686 | 11.06927 | 86° | 42km/h | 5742m | -8.2m/s | -16.7°C | 36.8% | 500.1hPa | 2.5V | 02:39:23 | 03:22:42 | 00:00:00 | |
| DL1XH-west | 2026-09-02 01:14:57 | 52.77687 | 11.06944 | 86° | 40km/h | 5735m | -8.1m/s | -16.7°C | 41.9% | 500.7hPa | 2.5V | 02:39:47 | 03:22:43 | 00:00:00 | |
| AA1-15 | 2026-09-02 01:14:55 | 52.77686 | 11.06910 | 86° | 42km/h | 5750m | -8.1m/s | -16.8°C | 40.3% | 499.6hPa | 2.6V | 02:39:47 | 03:22:41 | 00:00:00 | |
| DB0DAN | 2026-09-02 01:14:55 | 52.77686 | 11.06910 | 86° | 40km/h | 5750m | -8.1m/s | -16.8°C | 34.8% | 499.58hPa | 2.6V | 00:00:00 | 00:00:00 | 00:00:00 | |
| DF8AY | 2026-09-02 01:14:53 | 52.77684 | 11.06874 | 87° | 44km/h | 5766m | -8m/s | -16.9°C | 39.4% | 498.5hPa | 2.6V | 02:39:47 | 03:22:39 | 00:00:00 | |
| DO2SHX-10 | 2026-09-02 01:14:52 | 52.77684 | 11.06856 | 86° | 44km/h | 5774m | -7.9m/s | -16.8°C | 35.3% | 497.9hPa | 2.5V | 00:00:00 | 03:22:38 | 00:00:00 | |
| DL1XH-15 | 2026-09-02 01:14:50 | 52.77679 | 11.06743 | 86° | 46km/h | 5822m | -8.2m/s | -17.1°C | 32.9% | 494.8hPa | 2.5V | 02:39:33 | 03:22:32 | 00:00:00 | |
| DL1XH-west | 2026-09-02 01:14:47 | 52.77679 | 11.06743 | 87° | 46km/h | 5822m | -8.2m/s | -17.1°C | 37.1% | 494.8hPa | 2.5V | 02:39:47 | 03:22:32 | 00:00:00 | |
| AA1-15 | 2026-09-02 01:14:45 | 52.77678 | 11.06704 | 87° | 47km/h | 5838m | -8.3m/s | -17.2°C | 34.7% | 493.8hPa | 2.6V | 02:39:47 | 03:22:30 | 00:00:00 | |
| AM1SDL-15 | 2026-09-02 01:14:44 | 52.77678 | 11.06704 | 87° | 49km/h | 5838m | -8.3m/s | -17.2°C | 30.5% | 493.7hPa | 2.5V | 00:00:00 | 03:22:30 | 00:00:00 | |
| DM0DOS-11 | 2026-09-02 01:14:43 | 52.77674 | 11.06604 | 85° | 47km/h | 5879m | -8.2m/s | -17.5°C | 28.5% | 491.2hPa | 2.5V | 02:39:40 | 03:22:25 | 00:00:00 | |
| DF8AY | 2026-09-02 01:14:42 | 52.77676 | 11.06664 | 86° | 47km/h | 5854m | -8.1m/s | -17.3°C | 33.3% | 492.8hPa | 2.6V | 02:39:47 | 03:22:28 | 00:00:00 | |
| DB0DAN | 2026-09-02 01:14:40 | 52.77675 | 11.06624 | 85° | 47km/h | 5870m | -8.4m/s | -17.4°C | 27% | 491.66hPa | 2.5V | 00:00:00 | 00:00:00 | 00:00:00 | |
| DL1XH-15 | 2026-09-02 01:14:40 | 52.77671 | 11.06543 | 85° | 49km/h | 5903m | -8.1m/s | -17.7°C | 29.3% | 489.5hPa | 2.6V | 02:39:43 | 03:22:22 | 00:00:00 | |
| DL1XH-west | 2026-09-02 01:14:36 | 52.77671 | 11.06543 | 85° | 49km/h | 5903m | -8.1m/s | -17.7°C | 33.3% | 489.5hPa | 2.6V | 02:39:47 | 03:22:22 | 00:00:00 | |
| DD8BA-10 | 2026-09-02 01:14:35 | 52.77670 | 11.06523 | 85° | 51km/h | 5911m | -8.0m/s | -17.8°C | 29.1% | 488.9hPa | 2.6V | 02:39:00 | 00:00:00 | 00:00:00 | |
| DM0DOS-11 | 2026-09-02 01:14:34 | 52.77663 | 11.06396 | 84° | 53km/h | 5959m | -7.9m/s | -18.2°C | 29.5% | 485.9hPa | 2.5V | 02:39:50 | 03:22:15 | 00:00:00 | |
| AA1-15 | 2026-09-02 01:14:33 | 52.77668 | 11.06481 | 85° | 49km/h | 5927m | -8.4m/s | -18°C | 33.2% | 487.9hPa | 2.5V | 02:39:47 | 03:22:19 | 00:00:00 | |
| DF8AY | 2026-09-02 01:14:31 | 52.77665 | 11.06438 | 85° | 51km/h | 5943m | -7.9m/s | -18.1°C | 33.4% | 486.8hPa | 2.6V | 02:40:38 | 03:22:17 | 00:00:00 | |
| DL1XH-west | 2026-09-02 01:14:25 | 52.77658 | 11.06309 | 84° | 53km/h | 5992m | -8.2m/s | -18.5°C | 33.5% | 483.8hPa | 2.6V | 02:40:38 | 03:22:11 | 00:00:00 | |
| DB0DAN | 2026-09-02 01:14:25 | 52.77658 | 11.06309 | 84° | 49km/h | 5992m | -8.2m/s | -18.5°C | 28% | 483.79hPa | 2.6V | 00:00:00 | 00:00:00 | 00:00:00 | |
| AA1-15 | 2026-09-02 01:14:22 | 52.77654 | 11.06244 | 85° | 53km/h | 6016m | -8.5m/s | -18.8°C | 34.8% | 482.1hPa | 2.5V | 02:40:38 | 03:22:08 | 00:00:00 | |
| DL1XH1-15 | 2026-09-02 01:14:22 | 52.77647 | 11.06133 | 83° | 53km/h | 6057m | -8.7m/s | -19.2°C | 33.5% | 479.5hPa | 2.6V | 02:40:02 | 03:22:03 | 00:00:00 | |
| DF8AY | 2026-09-02 01:14:21 | 52.77652 | 11.06222 | 84° | 53km/h | 6025m | -8.2m/s | -18.9°C | 35.4% | 481.6hPa | 2.5V | 02:40:38 | 03:22:07 | 00:00:00 | |
| DL1XH-west | 2026-09-02 01:14:14 | 52.77643 | 11.06068 | 85° | 53km/h | 6082m | -8.3m/s | -19.4°C | 38.2% | 477.9hPa | 2.6V | 02:40:38 | 03:22:00 | 00:00:00 | |
| SONDE2-11 | 2026-09-02 01:14:13 | 52.77642 | 11.06046 | 84° | 51km/h | 6090m | -8.2m/s | -19.5°C | 33.0% | 477.4hPa | 2.5V | 00:00:00 | 00:00:00 | 00:00:00 | |
| DL1XH1-15 | 2026-09-02 01:14:12 | 52.77635 | 11.05917 | 85° | 51km/h | 6139m | -8.4m/s | -19.9°C | 36.3% | 474.3hPa | 2.5V | 02:40:12 | 03:21:53 | 00:00:00 | |
| AA1-15 | 2026-09-02 01:14:11 | 52.77640 | 11.06003 | 84° | 53km/h | 6107m | -8.4m/s | -19.6°C | 39.2% | 476.4hPa | 2.5V | 02:40:38 | 03:21:57 | 00:00:00 | |
| DB0DAN | 2026-09-02 01:14:10 | 52.77638 | 11.05981 | 85° | 49km/h | 6115m | -8.1m/s | -19.7°C | 34% | 475.81hPa | 2.6V | 00:00:00 | 00:00:00 | 00:00:00 | |
| DF8AY | 2026-09-02 01:14:10 | 52.77638 | 11.05981 | 85° | 51km/h | 6115m | -8.1m/s | -19.7°C | 39.4% | 475.8hPa | 2.6V | 02:40:38 | 03:21:56 | 00:00:00 | |
| DL1XH-west | 2026-09-02 01:14:03 | 52.77631 | 11.05831 | 86° | 51km/h | 6172m | -8.2m/s | -20.2°C | 38.1% | 472.2hPa | 2.6V | 02:40:38 | 03:21:49 | 00:00:00 | |
| DM0DOS-11 | 2026-09-02 01:14:03 | 52.77627 | 11.05746 | 85° | 49km/h | 6205m | -8.4m/s | -20.5°C | 34% | 470hPa | 2.5V | 02:40:20 | 03:21:45 | 00:00:00 | |
| DL1XH1-15 | 2026-09-02 01:14:02 | 52.77625 | 11.05704 | 85° | 51km/h | 6221m | -8.6m/s | -20.6°C | 34.4% | 469hPa | 2.6V | 02:40:22 | 03:21:43 | 00:00:00 | |
| DK9SH | 2026-09-02 01:14:02 | 52.77631 | 11.05831 | 87° | 51km/h | 6172m | -8.2m/s | -20.2°C | 0% | 472.2hPa | 2.6V | 02:40:00 | 00:00:00 | 00:00:00 | |
| DL1XH-15 | 2026-09-02 01:14:01 | 52.77624 | 11.05683 | 85° | 51km/h | 6230m | -8.4m/s | -20.7°C | 34.7% | 468.5hPa | 2.6V | 02:40:23 | 03:21:42 | 00:00:00 | |
| DF8AY | 2026-09-02 01:14:00 | 52.77628 | 11.05767 | 85° | 51km/h | 6197m | -8.4m/s | -20.4°C | 37.4% | 470.6hPa | 2.5V | 02:40:38 | 03:21:46 | 00:00:00 | |
| DO2SHX-10 | 2026-09-02 01:13:58 | 52.77626 | 11.05725 | 85° | 51km/h | 6213m | -8.7m/s | -20.5°C | 34.2% | 469.5hPa | 2.5V | 02:40:00 | 03:21:44 | 00:00:00 | |
| DB0DAN | 2026-09-02 01:13:55 | 52.77623 | 11.05662 | 85° | 47km/h | 6238m | -8.6m/s | -20.7°C | 33.2% | 467.93hPa | 2.6V | 00:00:00 | 00:00:00 | 00:00:00 | |
| EDDB2-11 | 2026-09-02 01:13:55 | 52.77622 | 11.05641 | 85° | 51km/h | 6246m | -8.5m/s | -20.8°C | 34.4% | 467.4hPa | 2.6V | 00:00:00 | 00:00:00 | 00:00:00 | |
| DF7ER-10 | 2026-09-02 01:13:54 | 52.77623 | 11.05662 | 86° | 51km/h | 6238m | -8.6m/s | -20.7°C | 33.2% | 467.9hPa | 2.6V | 02:40:00 | 00:00:00 | 00:00:00 | |
| DM0DOS-11 | 2026-09-02 01:13:53 | 52.77617 | 11.05536 | 85° | 51km/h | 6288m | -8.1m/s | -21.1°C | 36.7% | 464.9hPa | 2.6V | 02:40:30 | 03:21:35 | 00:00:00 | |
| DL1XH-west | 2026-09-02 01:13:53 | 52.77621 | 11.05619 | 85° | 49km/h | 6255m | -8.8m/s | -20.9°C | 41.7% | 466.9hPa | 2.5V | 02:40:38 | 03:21:39 | 00:00:00 | |
| DL1XH1-15 | 2026-09-02 01:13:52 | 52.77615 | 11.05493 | 85° | 51km/h | 6304m | -8.3m/s | -21.2°C | 35.6% | 463.8hPa | 2.5V | 02:40:32 | 03:21:33 | 00:00:00 | |
| AA1-15 | 2026-09-02 01:13:50 | 52.77618 | 11.05557 | 84° | 51km/h | 6280m | -8.3m/s | -21°C | 40.5% | 465.3hPa | 2.6V | 02:40:38 | 03:21:36 | 00:00:00 | |
| DF8AY | 2026-09-02 01:13:49 | 52.77617 | 11.05536 | 85° | 51km/h | 6288m | -8.1m/s | -21.1°C | 40.4% | 464.9hPa | 2.6V | 02:40:38 | 03:21:35 | 00:00:00 | |
| SONCRA | 2026-09-02 01:13:46 | 52.77612 | 11.05451 | 84° | 51km/h | 6321m | -8.5m/s | -21.4°C | 34.1% | 462.7hPa | 2.6V | 00:00:00 | 00:00:00 | 00:00:00 | |
| DD8BA-10 | 2026-09-02 01:13:45 | 52.77612 | 11.05451 | 85° | 53km/h | 6321m | -8.5m/s | 0°C | 0% | 0hPa | 2.6V | 00:00:00 | 00:00:00 | 00:00:00 | |
| AM1SDL-15 | 2026-09-02 01:13:44 | 52.77611 | 11.05430 | 85° | 53km/h | 6329m | -8.4m/s | -21.4°C | 36.6% | 462.3hPa | 2.6V | 02:40:00 | 03:21:30 | 00:00:00 | |
| DM0DOS-11 | 2026-09-02 01:13:43 | 52.77604 | 11.05322 | 84° | 53km/h | 6370m | -8.6m/s | -21.9°C | 39.9% | 459.6hPa | 2.5V | 02:40:40 | 03:21:25 | 00:00:00 | |
| DL1XH-west | 2026-09-02 01:13:42 | 52.77608 | 11.05387 | 84° | 51km/h | 6345m | -8.6m/s | -21.6°C | 41.8% | 461.2hPa | 2.6V | 02:40:38 | 03:21:28 | 00:00:00 | |
| DL1XH1-15 | 2026-09-02 01:13:42 | 52.77602 | 11.05278 | 84° | 53km/h | 6386m | -8.6m/s | -22°C | 40.5% | 458.6hPa | 2.6V | 02:40:42 | 03:21:23 | 00:00:00 | |
| DL1XH-15 | 2026-09-02 01:13:41 | 52.77600 | 11.05257 | 84° | 53km/h | 6395m | -8.8m/s | -22.1°C | 40.4% | 458.1hPa | 2.6V | 02:40:43 | 03:21:22 | 00:00:00 | |
| BIOWL1-15 | 2026-09-02 01:13:40 | 52.77600 | 11.05257 | 85° | 53km/h | 6395m | -8.8m/s | -22.1°C | 43.9% | 458.1hPa | 2.6V | 02:42:20 | 03:21:22 | 00:00:00 | |
| DB0DAN | 2026-09-02 01:13:40 | 52.77606 | 11.05344 | 84° | 49km/h | 6362m | -8.4m/s | -21.8°C | 37% | 460.13hPa | 2.5V | 00:00:00 | 00:00:00 | 00:00:00 | |
| AA1-15 | 2026-09-02 01:13:39 | 52.77604 | 11.05322 | 85° | 53km/h | 6370m | -8.6m/s | -21.9°C | 43.5% | 459.6hPa | 2.5V | 02:41:29 | 03:21:25 | 00:00:00 | |
| DF8AY | 2026-09-02 01:13:38 | 52.77603 | 11.05300 | 85° | 53km/h | 6378m | -8.5m/s | -21.9°C | 43.8% | 459.1hPa | 2.6V | 02:41:29 | 03:21:24 | 00:00:00 | |
| DO2SHX-10 | 2026-09-02 01:13:37 | 52.77602 | 11.05278 | 85° | 53km/h | 6386m | -8.6m/s | -22.0°C | 40.5% | 458.6hPa | 2.5V | 00:00:00 | 03:21:23 | 00:00:00 | |
| DD8BA-10 | 2026-09-02 01:13:35 | 52.77599 | 11.05234 | 85° | 53km/h | 6404m | -8.8m/s | -22.0°C | 38.6% | 457.6hPa | 2.5V | 02:40:00 | 00:00:00 | 00:00:00 | |
| DO2SHX-10 | 2026-09-02 01:13:34 | 52.77598 | 11.05212 | 85° | 53km/h | 6412m | -8.5m/s | -22.1°C | 38.5% | 457.1hPa | 2.5V | 00:00:00 | 03:21:20 | 00:00:00 | |
| DM0DOS-11 | 2026-09-02 01:13:33 | 52.77592 | 11.05101 | 84° | 53km/h | 6453m | -8.7m/s | -22.4°C | 37.6% | 454.5hPa | 2.5V | 02:40:50 | 03:21:15 | 00:00:00 | |
| BIOWL1-15 | 2026-09-02 01:13:32 | 52.77593 | 11.05123 | 84° | 53km/h | 6445m | -8.4m/s | -22.4°C | 42% | 454.9hPa | 2.5V | 02:42:20 | 03:21:16 | 00:00:00 | |
| DL1XH-west | 2026-09-02 01:13:32 | 52.77596 | 11.05168 | 84° | 55km/h | 6429m | -8.7m/s | -22.2°C | 42.9% | 456.1hPa | 2.6V | 02:41:29 | 03:21:18 | 00:00:00 | |
| AA1-15 | 2026-09-02 01:13:28 | 52.77590 | 11.05078 | 84° | 55km/h | 6462m | -8.9m/s | -22.5°C | 40.6% | 453.9hPa | 2.5V | 02:41:29 | 03:21:14 | 00:00:00 | |
| DO2SHX-10 | 2026-09-02 01:13:28 | 52.77590 | 11.05078 | 85° | 55km/h | 6462m | -8.9m/s | -22.4°C | 36.8% | 453.8hPa | 2.6V | 00:00:00 | 03:21:14 | 00:00:00 | |
| DB0DAN | 2026-09-02 01:13:25 | 52.77587 | 11.05011 | 86° | 51km/h | 6487m | -8.5m/s | -22.7°C | 32.9% | 452.43hPa | 2.6V | 00:00:00 | 00:00:00 | 00:00:00 | |
| DO2SHX-10 | 2026-09-02 01:13:25 | 52.77587 | 11.05011 | 86° | 55km/h | 6487m | -8.4m/s | -22.6°C | 35.0% | 452.4hPa | 2.6V | 00:00:00 | 03:21:11 | 00:00:00 | |
| EDDB2-11 | 2026-09-02 01:13:24 | 52.77585 | 11.04966 | 85° | 53km/h | 6504m | -8.9m/s | -22.8°C | 31.8% | 451.4hPa | 2.6V | 00:00:00 | 00:00:00 | 00:00:00 | |
| DM0DOS-11 | 2026-09-02 01:13:23 | 52.77581 | 11.04875 | 84° | 55km/h | 6538m | -8.4m/s | -23.1°C | 33.7% | 449.3hPa | 2.6V | 02:41:00 | 03:21:05 | 00:00:00 | |
| DL1XH1-15 | 2026-09-02 01:13:22 | 52.77578 | 11.04830 | 84° | 55km/h | 6554m | -8.7m/s | -23.2°C | 34.3% | 448.2hPa | 2.5V | 02:41:02 | 03:21:03 | 00:00:00 | |
| DL1XH-west | 2026-09-02 01:13:22 | 52.77584 | 11.04944 | 85° | 55km/h | 6513m | -8.7m/s | -22.9°C | 37.2% | 450.9hPa | 2.5V | 02:41:29 | 03:21:08 | 00:00:00 | |
| AA1-15 | 2026-09-02 01:13:17 | 52.77578 | 11.04830 | 84° | 55km/h | 6554m | -8.7m/s | -23.3°C | 38.2% | 448.2hPa | 2.5V | 02:41:29 | 03:21:03 | 00:00:00 | |
| DO2SHX-10 | 2026-09-02 01:13:16 | 52.77577 | 11.04807 | 85° | 55km/h | 6563m | -8.7m/s | -23.3°C | 34.6% | 447.7hPa | 2.5V | 00:00:00 | 03:21:02 | 00:00:00 | |
| SONCRA | 2026-09-02 01:13:15 | 52.77574 | 11.04761 | 83° | 55km/h | 6580m | -8.9m/s | -23.5°C | 32.5% | 446.7hPa | 2.5V | 00:00:00 | 00:00:00 | 00:00:00 | |
| DD8BA-10 | 2026-09-02 01:13:14 | 52.77573 | 11.04761 | 84° | 57km/h | 6580m | -8.8m/s | -23.4°C | 34.6% | 446.6hPa | 2.5V | 00:00:00 | 00:00:00 | 00:00:00 | |
| DM0DOS-11 | 2026-09-02 01:13:13 | 52.77566 | 11.04644 | 84° | 57km/h | 6623m | -8.9m/s | -23.8°C | 34.9% | 444.2hPa | 2.5V | 02:41:10 | 03:20:55 | 00:00:00 | |
| DL1XH1-15 | 2026-09-02 01:13:12 | 52.77563 | 11.04597 | 84° | 58km/h | 6640m | -8.4m/s | -24°C | 35.6% | 443.1hPa | 2.5V | 02:41:12 | 03:20:53 | 00:00:00 | |
| DL1XH-west | 2026-09-02 01:13:11 | 52.77569 | 11.04691 | 84° | 57km/h | 6606m | -8.6m/s | -23.7°C | 38.2% | 445.2hPa | 2.6V | 02:41:29 | 03:20:57 | 00:00:00 | |
| BIOWL1-15 | 2026-09-02 01:13:10 | 52.77567 | 11.04668 | 83° | 57km/h | 6614m | -8.6m/s | -23.8°C | 38.5% | 444.6hPa | 2.6V | 02:42:20 | 03:20:56 | 00:00:00 | |
| DB0DAN | 2026-09-02 01:13:10 | 52.77567 | 11.04668 | 83° | 55km/h | 6614m | -8.6m/s | -23.8°C | 32.5% | 444.58hPa | 2.6V | 00:00:00 | 00:00:00 | 00:00:00 | |
| DF8AY | 2026-09-02 01:13:07 | 52.77563 | 11.04597 | 84° | 58km/h | 6640m | -8.4m/s | -24°C | 39.5% | 443.1hPa | 2.5V | 02:41:29 | 03:20:53 | 00:00:00 | |
| AA1-15 | 2026-09-02 01:13:06 | 52.77562 | 11.04573 | 84° | 58km/h | 6648m | -8.9m/s | -24.1°C | 39.7% | 442.6hPa | 2.6V | 02:41:29 | 03:20:52 | 00:00:00 | |
| DO2SHX-10 | 2026-09-02 01:13:04 | 52.77559 | 11.04525 | 84° | 58km/h | 6665m | -8.5m/s | -24.2°C | 36.2% | 441.5hPa | 2.6V | 02:41:00 | 03:20:50 | 00:00:00 | |
| DL1XH1-15 | 2026-09-02 01:13:02 | 52.77551 | 11.04357 | 86° | 58km/h | 6726m | -8.7m/s | -24.7°C | 33.7% | 437.9hPa | 2.5V | 02:41:22 | 03:20:43 | 00:00:00 | |
| DL1XH-west | 2026-09-02 01:13:01 | 52.77554 | 11.04430 | 85° | 58km/h | 6700m | -9.1m/s | -24.5°C | 38.9% | 439.5hPa | 2.6V | 02:41:29 | 03:20:46 | 00:00:00 | |
| BIOWL1-15 | 2026-09-02 01:12:59 | 52.77551 | 11.04357 | 86° | 58km/h | 6726m | -8.7m/s | -24.7°C | 37.5% | 437.9hPa | 2.5V | 02:42:20 | 03:20:43 | 00:00:00 | |
| DF8AY | 2026-09-02 01:12:57 | 52.77550 | 11.04333 | 86° | 57km/h | 6735m | -8.6m/s | -24.8°C | 37.8% | 437.4hPa | 2.5V | 02:41:29 | 03:20:42 | 00:00:00 | |
| DL1LOL-11 | 2026-09-02 01:12:56 | 52.77551 | 11.04357 | 87° | 58km/h | 6726m | -8.7m/s | -24.7°C | 31.5% | 437.9hPa | 2.6V | 00:00:00 | 00:00:00 | 00:00:00 | |
| DB0DAN | 2026-09-02 01:12:55 | 52.77549 | 11.04309 | 86° | 55km/h | 6743m | -8.5m/s | -24.8°C | 32.3% | 436.84hPa | 2.6V | 00:00:00 | 00:00:00 | 00:00:00 | |
| AA1-15 | 2026-09-02 01:12:55 | 52.77549 | 11.04309 | 86° | 58km/h | 6743m | -8.5m/s | -24.8°C | 38.5% | 436.8hPa | 2.6V | 02:41:29 | 03:20:41 | 00:00:00 | |
| DO2SHX-10 | 2026-09-02 01:12:55 | 52.77549 | 11.04309 | 86° | 58km/h | 6743m | -8.5m/s | -24.8°C | 34.6% | 436.8hPa | 2.6V | 02:41:00 | 03:20:41 | 00:00:00 | |
| DD8BA-10 | 2026-09-02 01:12:54 | 52.77548 | 11.04285 | 87° | 58km/h | 6751m | -8.8m/s | -24.9°C | 35.9% | 436.3hPa | 2.6V | 00:00:00 | 00:00:00 | 00:00:00 | |
| SMARD9-10 | 2026-09-02 01:12:53 | 52.77548 | 11.04285 | 88° | 58km/h | 6751m | -8.8m/s | -24.9°C | 33.6% | 436.3hPa | 2.6V | 02:41:00 | 00:00:00 | 00:00:00 | |
| DL1XH1-15 | 2026-09-02 01:12:52 | 52.77542 | 11.04117 | 86° | 58km/h | 6810m | -9m/s | -25.5°C | 39.4% | 432.8hPa | 2.6V | 02:41:32 | 03:20:33 | 00:00:00 | |
| DL1XH-west | 2026-09-02 01:12:50 | 52.77545 | 11.04189 | 87° | 58km/h | 6785m | -8.7m/s | -25.2°C | 42.3% | 434.4hPa | 2.6V | 02:41:29 | 03:20:36 | 00:00:00 | |
| BIOWL1-15 | 2026-09-02 01:12:46 | 52.77542 | 11.04093 | 86° | 58km/h | 6819m | -8.8m/s | -25.6°C | 43.5% | 432.3hPa | 2.6V | 02:42:20 | 03:20:32 | 00:00:00 | |
| AA1-15 | 2026-09-02 01:12:45 | 52.77541 | 11.04069 | 86° | 58km/h | 6828m | -9m/s | -25.6°C | 43.9% | 431.8hPa | 2.6V | 02:42:20 | 03:20:31 | 00:00:00 | |
| DF8AY | 2026-09-02 01:12:43 | 52.77539 | 11.04020 | 86° | 58km/h | 6844m | -9m/s | -25.8°C | 44.9% | 430.8hPa | 2.5V | 02:42:20 | 03:20:29 | 00:00:00 | |
| DM0DOS-11 | 2026-09-02 01:12:43 | 52.77535 | 11.03924 | 86° | 57km/h | 6879m | -9.1m/s | -26.1°C | 41.7% | 428.7hPa | 2.6V | 02:41:40 | 03:20:25 | 00:00:00 | |
| BIOWL9-15 | 2026-09-02 01:12:43 | 52.77538 | 11.03996 | 86° | 57km/h | 6853m | -9.0m/s | -25.9°C | 38.9% | 430.2hPa | 2.5V | 00:00:00 | 00:00:00 | 00:00:00 | |
| DL1XH1-15 | 2026-09-02 01:12:42 | 52.77533 | 11.03878 | 85° | 57km/h | 6897m | -9.4m/s | -26.3°C | 41.8% | 427.6hPa | 2.5V | 02:41:42 | 03:20:23 | 00:00:00 | |
| DB0DAN | 2026-09-02 01:12:40 | 52.77536 | 11.03948 | 86° | 55km/h | 6870m | -9.1m/s | -26.1°C | 39.1% | 429.22hPa | 2.6V | 00:00:00 | 00:00:00 | 00:00:00 | |
| DL1XH-west | 2026-09-02 01:12:40 | 52.77536 | 11.03948 | 86° | 58km/h | 6870m | -9.1m/s | -26.1°C | 45.4% | 429.2hPa | 2.6V | 02:42:20 | 03:20:26 | 00:00:00 | |
| DO2SHX-10 | 2026-09-02 01:12:40 | 52.77536 | 11.03948 | 87° | 57km/h | 6870m | -9.0m/s | -26.0°C | 41.8% | 429.2hPa | 2.5V | 00:00:00 | 03:20:26 | 00:00:00 | |
| DL1XH-15 | 2026-09-02 01:12:39 | 52.77532 | 11.03854 | 85° | 57km/h | 6906m | -9.1m/s | -26.4°C | 42.1% | 427.2hPa | 2.5V | 02:41:43 | 03:20:22 | 00:00:00 | |
| BIOWL1-15 | 2026-09-02 01:12:35 | 52.77531 | 11.03831 | 86° | 57km/h | 6915m | -9m/s | -26.5°C | 45.3% | 426.7hPa | 2.6V | 02:42:20 | 03:20:21 | 00:00:00 | |
| DO2SHX-10 | 2026-09-02 01:12:34 | 52.77530 | 11.03808 | 86° | 57km/h | 6924m | -8.5m/s | -26.5°C | 42.7% | 426.1hPa | 2.6V | 00:00:00 | 03:20:20 | 00:00:00 | |
| DM0DOS-11 | 2026-09-02 01:12:33 | 52.77526 | 11.03692 | 86° | 55km/h | 6967m | -8.6m/s | -26.9°C | 46.7% | 423.6hPa | 2.6V | 02:41:50 | 03:20:15 | 00:00:00 | |
| DF8AY | 2026-09-02 01:12:33 | 52.77529 | 11.03785 | 85° | 55km/h | 6933m | -8.4m/s | -26.6°C | 46% | 425.7hPa | 2.6V | 02:42:20 | 03:20:19 | 00:00:00 | |
| DL1XH1-15 | 2026-09-02 01:12:32 | 52.77525 | 11.03646 | 87° | 57km/h | 6984m | -8.8m/s | -27.1°C | 47.6% | 422.6hPa | 2.6V | 02:41:52 | 03:20:13 | 00:00:00 | |
| DL1XH-west | 2026-09-02 01:12:30 | 52.77527 | 11.03716 | 86° | 57km/h | 6959m | -8.8m/s | -26.8°C | 48.2% | 424.1hPa | 2.5V | 02:42:20 | 03:20:16 | 00:00:00 | |
| DF8AY-15 | 2026-09-02 01:12:29 | 52.77526 | 11.03692 | 87° | 58km/h | 6967m | -8.6m/s | -26.9°C | 46.7% | 423.6hPa | 2.6V | 02:41:00 | 03:20:15 | 00:00:00 | |
| DO2SHX-10 | 2026-09-02 01:12:28 | 52.77525 | 11.03669 | 87° | 57km/h | 6975m | -8.5m/s | -27.0°C | 47.4% | 423.2hPa | 2.6V | 02:41:00 | 03:20:14 | 00:00:00 | |
| DB0DAN | 2026-09-02 01:12:25 | 52.77523 | 11.03598 | 87° | 55km/h | 7002m | -9.2m/s | -27.2°C | 44.5% | 421.59hPa | 2.5V | 00:00:00 | 00:00:00 | 00:00:00 | |
| AA1-15 | 2026-09-02 01:12:24 | 52.77523 | 11.03573 | 87° | 58km/h | 7010m | -8.8m/s | -27.3°C | 49.4% | 421hPa | 2.5V | 02:42:20 | 03:20:10 | 00:00:00 | |
| DF8AY | 2026-09-02 01:12:22 | 52.77521 | 11.03525 | 87° | 58km/h | 7028m | -8.8m/s | -27.4°C | 46.6% | 420.1hPa | 2.6V | 02:42:20 | 03:20:08 | 00:00:00 | |
| DL1XH-west | 2026-09-02 01:12:19 | 52.77519 | 11.03454 | 86° | 57km/h | 7053m | -8.8m/s | -27.3°C | 30.3% | 418.5hPa | 2.5V | 02:42:20 | 03:20:05 | 00:00:00 | |
| DO2SHX-10 | 2026-09-02 01:12:19 | 52.77519 | 11.03453 | 86° | 57km/h | 7053m | -8.8m/s | -27.2°C | 27.7% | 418.5hPa | 2.5V | 02:42:00 | 03:20:05 | 00:00:00 | |
| DL1XH-15 | 2026-09-02 01:12:18 | 52.77516 | 11.03382 | 87° | 57km/h | 7079m | -9m/s | -27.1°C | 21.6% | 417hPa | 2.6V | 02:42:03 | 03:20:02 | 00:00:00 | |
| BIOWL1-15 | 2026-09-02 01:12:15 | 52.77514 | 11.03237 | 88° | 57km/h | 7131m | -8.9m/s | -27.4°C | 23.5% | 414hPa | 2.6V | 02:42:20 | 03:19:56 | 00:00:00 | |
| AA1-15 | 2026-09-02 01:12:14 | 52.77515 | 11.03334 | 88° | 58km/h | 7097m | -8.7m/s | -27.3°C | 24% | 416hPa | 2.5V | 02:42:20 | 03:20:00 | 00:00:00 | |
| DF8AY | 2026-09-02 01:12:12 | 52.77514 | 11.03285 | 90° | 58km/h | 7114m | -9m/s | -27.3°C | 23.7% | 415hPa | 2.5V | 02:42:20 | 03:19:58 | 00:00:00 | |
| DL1XH1-15 | 2026-09-02 01:12:12 | 52.77512 | 11.03166 | 87° | 57km/h | 7158m | -8.8m/s | -27.4°C | 24% | 412.5hPa | 2.5V | 02:42:12 | 03:19:53 | 00:00:00 | |
| BIOWL9-15 | 2026-09-02 01:12:12 | 52.77514 | 11.03261 | 88° | 57km/h | 7123m | -8.9m/s | -27.4°C | 19.8% | 414.5hPa | 2.6V | 00:00:00 | 00:00:00 | 00:00:00 | |
| DM0DOS-11 | 2026-09-02 01:12:10 | 52.77513 | 11.03213 | 87° | 57km/h | 7140m | -9.1m/s | -27.4°C | 20.4% | 413.5hPa | 2.6V | 02:42:10 | 03:19:55 | 00:00:00 | |
| DB0DAN | 2026-09-02 01:12:10 | 52.77514 | 11.03237 | 87° | 55km/h | 7131m | -8.9m/s | -27.4°C | 19.2% | 414.03hPa | 2.6V | 00:00:00 | 00:00:00 | 00:00:00 | |
| DL1XH-west | 2026-09-02 01:12:09 | 52.77513 | 11.03213 | 88° | 57km/h | 7140m | -9.1m/s | -27.4°C | 23% | 413.5hPa | 2.6V | 02:42:20 | 03:19:55 | 00:00:00 | |
| DF8AY-15 | 2026-09-02 01:12:09 | 52.77513 | 11.03213 | 88° | 53km/h | 7140m | -9.1m/s | -27.3°C | 20.4% | 413.4hPa | 2.6V | 00:00:00 | 03:19:55 | 00:00:00 | |
| AM1SDL-15 | 2026-09-02 01:12:08 | 52.77512 | 11.03189 | 87° | 55km/h | 7149m | -9.3m/s | -27.4°C | 21.3% | 413.0hPa | 2.6V | 00:00:00 | 03:19:54 | 00:00:00 | |
| DO2SHX-10 | 2026-09-02 01:12:07 | 52.77512 | 11.03166 | 88° | 55km/h | 7158m | -8.8m/s | -27.4°C | 24.0% | 412.5hPa | 2.6V | 00:00:00 | 03:19:53 | 00:00:00 | |
| SMARD9-10 | 2026-09-02 01:12:06 | 52.77512 | 11.03166 | 88° | 57km/h | 7158m | -8.8m/s | -27.4°C | 22.0% | 412.5hPa | 2.6V | 00:00:00 | 00:00:00 | 00:00:00 | |
| DL4BBY-15 | 2026-09-02 01:12:05 | 52.77510 | 11.03120 | 87° | 51km/h | 7177m | -8.9m/s | -27.1°C | 0% | 0hPa | 2.6V | 00:00:00 | 00:00:00 | 00:00:00 | |
| DM0DOS-11 | 2026-09-02 01:12:04 | 52.77505 | 11.02964 | 84° | 53km/h | 7238m | -8.9m/s | -27.7°C | 20.8% | 408hPa | 2.6V | 02:42:21 | 03:19:44 | 00:00:00 | |
| BIOWL1-15 | 2026-09-02 01:12:03 | 52.77509 | 11.03075 | 88° | 53km/h | 7194m | -9.1m/s | -27.6°C | 25.1% | 410.5hPa | 2.6V | 02:42:20 | 03:19:49 | 00:00:00 | |
| DF8AY | 2026-09-02 01:12:02 | 52.77508 | 11.03030 | 86° | 55km/h | 7211m | -9.3m/s | -27.6°C | 23.7% | 409.5hPa | 2.5V | 02:42:20 | 03:19:47 | 00:00:00 | |
| DL1XH1-15 | 2026-09-02 01:12:02 | 52.77504 | 11.02942 | 82° | 53km/h | 7247m | -8.8m/s | -27.7°C | 20.7% | 407.5hPa | 2.6V | 02:42:22 | 03:19:43 | 00:00:00 | |
| DL1XH-west | 2026-09-02 01:11:59 | 52.77505 | 11.02964 | 84° | 53km/h | 7238m | -8.9m/s | -27.7°C | 23.5% | 408hPa | 2.6V | 02:43:11 | 03:19:44 | 00:00:00 | |
| DO2SHX-10 | 2026-09-02 01:11:58 | 52.77505 | 11.02964 | 85° | 53km/h | 7238m | -8.9m/s | -27.6°C | 20.8% | 407.9hPa | 2.5V | 00:00:00 | 03:19:44 | 00:00:00 | |
| DF7ER-10 | 2026-09-02 01:11:57 | 52.77505 | 11.02964 | 85° | 53km/h | 7238m | -8.9m/s | -27.7°C | 19.1% | 408.0hPa | 2.5V | 02:43:00 | 00:00:00 | 00:00:00 | |
| DB0DAN | 2026-09-02 01:11:55 | 52.77501 | 11.02898 | 83° | 49km/h | 7265m | -9m/s | -27.8°C | 18.5% | 406.5hPa | 2.5V | 00:00:00 | 00:00:00 | 00:00:00 | |
| DO2SHX-10 | 2026-09-02 01:11:55 | 52.77501 | 11.02898 | 84° | 53km/h | 7265m | -9.0m/s | -27.8°C | 20.3% | 406.5hPa | 2.5V | 00:00:00 | 03:19:41 | 00:00:00 | |
| DD8BA-10 | 2026-09-02 01:11:54 | 52.77499 | 11.02877 | 83° | 51km/h | 7273m | -8.9m/s | -27.8°C | 19.6% | 405.9hPa | 2.5V | 00:00:00 | 00:00:00 | 00:00:00 | |
| DM0DOS-11 | 2026-09-02 01:11:53 | 52.77491 | 11.02772 | 81° | 49km/h | 7317m | -9.2m/s | -27.8°C | 12.6% | 403.5hPa | 2.5V | 02:42:30 | 03:19:35 | 00:00:00 | |
| AA1-15 | 2026-09-02 01:11:52 | 52.77496 | 11.02834 | 82° | 51km/h | 7291m | -8.8m/s | -27.9°C | 19.5% | 405.1hPa | 2.6V | 02:43:11 | 03:19:38 | 00:00:00 | |
| DF8AY | 2026-09-02 01:11:50 | 52.77492 | 11.02792 | 82° | 49km/h | 7308m | -9.1m/s | -27.8°C | 15.6% | 404hPa | 2.5V | 02:43:11 | 03:19:36 | 00:00:00 | |
| DL1XH-west | 2026-09-02 01:11:48 | 52.77489 | 11.02751 | 82° | 49km/h | 7326m | -9.3m/s | -27.7°C | 13.9% | 403hPa | 2.5V | 02:43:11 | 03:19:34 | 00:00:00 | |
| DL1XH-15 | 2026-09-02 01:11:48 | 52.77485 | 11.02709 | 80° | 51km/h | 7344m | -9.3m/s | -27.8°C | 12.3% | 402hPa | 2.6V | 02:42:33 | 03:19:32 | 00:00:00 | |
| DO2SHX-10 | 2026-09-02 01:11:46 | 52.77485 | 11.02709 | 81° | 51km/h | 7344m | -9.2m/s | -27.7°C | 12.3% | 402.0hPa | 2.6V | 00:00:00 | 03:19:32 | 00:00:00 | |
| DD8BA-10 | 2026-09-02 01:11:44 | 52.77480 | 11.02667 | 81° | 51km/h | 7362m | -9.4m/s | -27.7°C | 13.7% | 400.9hPa | 2.6V | 00:00:00 | 00:00:00 | 00:00:00 | |
| DM0DOS-11 | 2026-09-02 01:11:43 | 52.77470 | 11.02563 | 80° | 51km/h | 7407m | -9.2m/s | -28.1°C | 21.6% | 398.6hPa | 2.6V | 02:42:40 | 03:19:25 | 00:00:00 | |
| AA1-15 | 2026-09-02 01:11:42 | 52.77476 | 11.02625 | 80° | 51km/h | 7380m | -9.1m/s | -27.9°C | 20.5% | 400hPa | 2.6V | 02:43:11 | 03:19:28 | 00:00:00 | |
| DB0DAN | 2026-09-02 01:11:40 | 52.77472 | 11.02584 | 80° | 47km/h | 7398m | -9.3m/s | -28.1°C | 18.9% | 399.04hPa | 2.5V | 00:00:00 | 00:00:00 | 00:00:00 | |
| DF8AY | 2026-09-02 01:11:40 | 52.77472 | 11.02584 | 80° | 51km/h | 7398m | -9.3m/s | -28.1°C | 24% | 399hPa | 2.5V | 02:43:11 | 03:19:26 | 00:00:00 | |
| DO2SHX-10 | 2026-09-02 01:11:40 | 52.77472 | 11.02584 | 80° | 51km/h | 7398m | -9.3m/s | -28.0°C | 20.8% | 399.0hPa | 2.5V | 00:00:00 | 03:19:26 | 00:00:00 | |
| DL1XH-15 | 2026-09-02 01:11:38 | 52.77464 | 11.02501 | 80° | 49km/h | 7433m | -9.2m/s | -28.4°C | 21.4% | 397hPa | 2.5V | 02:42:43 | 03:19:22 | 00:00:00 | |
| DL1XH-west | 2026-09-02 01:11:37 | 52.77465 | 11.02521 | 81° | 49km/h | 7425m | -9.1m/s | -28.3°C | 24.5% | 397.5hPa | 2.5V | 02:43:11 | 03:19:23 | 00:00:00 | |
| DJ2DS-15 | 2026-09-02 01:11:36 | 52.77463 | 11.02501 | 80° | 49km/h | 7433m | -9.2m/s | -28.4°C | 19.5% | 397.0hPa | 2.6V | 00:00:00 | 00:00:00 | 00:00:00 | |
| DL4BBY-15 | 2026-09-02 01:11:35 | 52.77462 | 11.02480 | 82° | 44km/h | 7443m | -9.1m/s | -28.1°C | 0% | 0hPa | 2.6V | 00:00:00 | 00:00:00 | 00:00:00 | |
| DO2SHX-10 | 2026-09-02 01:11:34 | 52.77460 | 11.02460 | 81° | 49km/h | 7452m | -9.0m/s | -28.5°C | 22.0% | 396.0hPa | 2.6V | 02:42:00 | 03:19:20 | 00:00:00 | |
| TFSTFS | 2026-09-02 01:11:33 | 52.77460 | 11.02460 | 81° | 49km/h | 7452m | -9.1m/s | -28.5°C | 20.1% | 396.0hPa | 2.6V | 00:00:00 | 00:00:00 | 00:00:00 | |
| DM0DOS-11 | 2026-09-02 01:11:32 | 52.77449 | 11.02359 | 80° | 47km/h | 7496m | -9.2m/s | -28.8°C | 20.1% | 393.6hPa | 2.6V | 02:42:50 | 03:19:15 | 00:00:00 | |
| AA1-15 | 2026-09-02 01:11:31 | 52.77454 | 11.02398 | 80° | 49km/h | 7479m | -9.2m/s | -28.7°C | 25.2% | 394.5hPa | 2.5V | 02:43:11 | 03:19:17 | 00:00:00 | |
| DL1XH1-15 | 2026-09-02 01:11:31 | 52.77446 | 11.02320 | 80° | 46km/h | 7514m | -9.3m/s | -28.8°C | 19% | 392.6hPa | 2.5V | 02:42:52 | 03:19:13 | 00:00:00 | |
| DF8AY | 2026-09-02 01:11:29 | 52.77450 | 11.02359 | 81° | 47km/h | 7497m | -9.2m/s | -28.8°C | 23.1% | 393.6hPa | 2.6V | 02:43:11 | 03:19:15 | 00:00:00 | |
| DL1XH-west | 2026-09-02 01:11:27 | 52.77445 | 11.02320 | 81° | 46km/h | 7514m | -9.4m/s | -28.8°C | 22.1% | 392.6hPa | 2.5V | 02:43:11 | 03:19:13 | 00:00:00 | |
| DF7ER-10 | 2026-09-02 01:11:27 | 52.77445 | 11.02320 | 82° | 46km/h | 7515m | -9.4m/s | -28.8°C | 17.2% | 392.6hPa | 2.5V | 02:43:00 | 00:00:00 | 00:00:00 | |
| DB0DAN | 2026-09-02 01:11:25 | 52.77442 | 11.02282 | 81° | 44km/h | 7532m | -9.5m/s | -29°C | 16.7% | 391.58hPa | 2.5V | 00:00:00 | 00:00:00 | 00:00:00 | |
| AA1-15 | 2026-09-02 01:11:21 | 52.77434 | 11.02207 | 79° | 46km/h | 7568m | -8.8m/s | -29.1°C | 18.5% | 389.6hPa | 2.5V | 02:43:11 | 03:19:07 | 00:00:00 | |
| DM0DOS-11 | 2026-09-02 01:11:21 | 52.77430 | 11.02171 | 78° | 44km/h | 7586m | -9.1m/s | -29.2°C | 14.8% | 388.7hPa | 2.5V | 02:43:00 | 03:19:05 | 00:00:00 | |
| DL1XH1-15 | 2026-09-02 01:11:21 | 52.77426 | 11.02136 | 78° | 42km/h | 7604m | -8.9m/s | -29.3°C | 14.8% | 387.6hPa | 2.6V | 02:43:02 | 03:19:03 | 00:00:00 | |
| DF8AY | 2026-09-02 01:11:19 | 52.77428 | 11.02153 | 79° | 42km/h | 7595m | -9.1m/s | -29.2°C | 17.3% | 388.2hPa | 2.6V | 02:43:11 | 03:19:04 | 00:00:00 | |
| DL1XH-west | 2026-09-02 01:11:16 | 52.77424 | 11.02119 | 79° | 42km/h | 7613m | -9.1m/s | -29.3°C | 17.6% | 387.2hPa | 2.6V | 02:43:11 | 03:19:02 | 00:00:00 | |
| DO2SHX-10 | 2026-09-02 01:11:16 | 52.77424 | 11.02119 | 79° | 42km/h | 7613m | -9.0m/s | -29.3°C | 15.0% | 387.1hPa | 2.6V | 02:43:00 | 03:19:02 | 00:00:00 | |
| DF7ER-10 | 2026-09-02 01:11:15 | 52.77424 | 11.02119 | 80° | 42km/h | 7613m | -9.1m/s | -29.3°C | 13.4% | 387.2hPa | 2.5V | 02:43:00 | 00:00:00 | 00:00:00 | |
| DD8BA-10 | 2026-09-02 01:11:14 | 52.77420 | 11.02085 | 80° | 40km/h | 7631m | -9.2m/s | -29.4°C | 15.5% | 386.2hPa | 2.5V | 00:00:00 | 00:00:00 | 00:00:00 | |
| DO2SHX-10 | 2026-09-02 01:11:13 | 52.77418 | 11.02068 | 79° | 40km/h | 7640m | -9.2m/s | -29.5°C | 15.7% | 385.7hPa | 2.5V | 00:00:00 | 03:18:59 | 00:00:00 | |
| DM0DOS-11 | 2026-09-02 01:11:11 | 52.77412 | 11.02002 | 80° | 40km/h | 7675m | -9.7m/s | -29.9°C | 17.1% | 383.8hPa | 2.5V | 02:43:10 | 03:18:55 | 00:00:00 | |
| DL1XH1-15 | 2026-09-02 01:11:11 | 52.77409 | 11.01968 | 81° | 40km/h | 7694m | -9.7m/s | -30°C | 18.5% | 382.9hPa | 2.6V | 02:43:12 | 03:18:53 | 00:00:00 | |
| AA1-15 | 2026-09-02 01:11:11 | 52.77413 | 11.02018 | 81° | 40km/h | 7667m | -9.4m/s | -29.8°C | 19.6% | 384.3hPa | 2.5V | 02:43:11 | 03:18:56 | 00:00:00 | |
| DB0DAN | 2026-09-02 01:11:10 | 52.77413 | 11.02018 | 81° | 38km/h | 7667m | -9.4m/s | -29.8°C | 14.9% | 384.28hPa | 2.5V | 00:00:00 | 00:00:00 | 00:00:00 | |
| DF8AY | 2026-09-02 01:11:08 | 52.77410 | 11.01985 | 81° | 40km/h | 7685m | -9.6m/s | -29.9°C | 20.8% | 383.3hPa | 2.6V | 02:43:11 | 03:18:54 | 00:00:00 | |
| BIOWL1-15 | 2026-09-02 01:11:07 | 52.77409 | 11.01968 | 82° | 40km/h | 7694m | -9.7m/s | -30°C | 21.6% | 382.9hPa | 2.6V | 02:44:02 | 03:18:53 | 00:00:00 | |
| DL1XH-west | 2026-09-02 01:11:06 | 52.77408 | 11.01952 | 82° | 40km/h | 7704m | -9.6m/s | -30.1°C | 22.5% | 382.4hPa | 2.5V | 02:44:02 | 03:18:52 | 00:00:00 | |
| DL4BBY-15 | 2026-09-02 01:11:05 | 52.77406 | 11.01935 | 83° | 44km/h | 7714m | -9.5m/s | -29.8°C | 0% | 0hPa | 2.5V | 00:00:00 | 00:00:00 | 00:00:00 | |
| DO2SHX-10 | 2026-09-02 01:11:04 | 52.77405 | 11.01918 | 85° | 40km/h | 7723m | -9.3m/s | -30.2°C | 19.8% | 381.3hPa | 2.5V | 00:00:00 | 03:18:50 | 00:00:00 | |
| DM0DOS-11 | 2026-09-02 01:11:01 | 52.77402 | 11.01833 | 87° | 40km/h | 7768m | -9.3m/s | -30.6°C | 19.9% | 378.9hPa | 2.5V | 02:43:20 | 03:18:45 | 00:00:00 | |
| DL1XH1-15 | 2026-09-02 01:11:01 | 52.77401 | 11.01799 | 87° | 40km/h | 7786m | -9.3m/s | -30.8°C | 19.8% | 377.9hPa | 2.6V | 02:43:22 | 03:18:43 | 00:00:00 | |
| AA1-15 | 2026-09-02 01:11:00 | 52.77403 | 11.01850 | 87° | 40km/h | 7759m | -9.1m/s | -30.5°C | 23.1% | 379.4hPa | 2.5V | 02:44:02 | 03:18:46 | 00:00:00 | |
| DB0NH | 2026-09-02 01:11:00 | 52.77403 | 11.01850 | 88° | 44km/h | 7759m | -9.1m/s | -30.5°C | 19.9% | 379.4hPa | 2.5V | 02:43:00 | 03:18:46 | 00:00:00 | |
| DL1XH-15 | 2026-09-02 01:10:58 | 52.77401 | 11.01782 | 87° | 42km/h | 7795m | -9.2m/s | -30.8°C | 19.7% | 377.4hPa | 2.6V | 02:43:23 | 03:18:42 | 00:00:00 | |
| DF8AY | 2026-09-02 01:10:58 | 52.77402 | 11.01816 | 87° | 40km/h | 7777m | -9.2m/s | -30.7°C | 23.1% | 378.5hPa | 2.5V | 02:44:02 | 03:18:44 | 00:00:00 | |
| BIOWL1-15 | 2026-09-02 01:10:57 | 52.77400 | 11.01677 | 91° | 42km/h | 7850m | -9.4m/s | -31.2°C | 22.5% | 374.6hPa | 2.6V | 02:44:02 | 03:18:36 | 00:00:00 | |
| SMARD9-15 | 2026-09-02 01:10:56 | 52.77400 | 11.01747 | 87° | 40km/h | 7814m | -9.3m/s | -31.0°C | 17.6% | 376.4hPa | 2.6V | 00:00:00 | 00:00:00 | 00:00:00 | |
| DB0DAN | 2026-09-02 01:10:55 | 52.77401 | 11.01765 | 87° | 40km/h | 7805m | -9.2m/s | -30.9°C | 17.7% | 377.06hPa | 2.6V | 00:00:00 | 00:00:00 | 00:00:00 | |
| DL1XH-west | 2026-09-02 01:10:55 | 52.77401 | 11.01765 | 88° | 42km/h | 7805m | -9.2m/s | -30.9°C | 22.9% | 377.1hPa | 2.6V | 02:44:02 | 03:18:41 | 00:00:00 | |
| DO2SHX-10 | 2026-09-02 01:10:55 | 52.77401 | 11.01765 | 88° | 42km/h | 7805m | -9.2m/s | -30.8°C | 19.7% | 377.0hPa | 2.5V | 00:00:00 | 03:18:41 | 00:00:00 | |
| DD8BA-10 | 2026-09-02 01:10:54 | 52.77400 | 11.01747 | 88° | 44km/h | 7814m | -9.3m/s | -30.9°C | 19.6% | 376.4hPa | 2.5V | 00:00:00 | 00:00:00 | 00:00:00 | |
| DM0DOS-11 | 2026-09-02 01:10:53 | 52.77400 | 11.01659 | 90° | 44km/h | 7860m | -9.6m/s | -31.2°C | 19.2% | 374.1hPa | 2.5V | 02:43:30 | 03:18:35 | 00:00:00 | |
| DO2SHX-10 | 2026-09-02 01:10:52 | 52.77400 | 11.01712 | 90° | 42km/h | 7832m | -9.3m/s | -31.0°C | 19.5% | 375.5hPa | 2.6V | 00:00:00 | 03:18:38 | 00:00:00 | |
| DL1XH1-15 | 2026-09-02 01:10:51 | 52.77401 | 11.01623 | 90° | 44km/h | 7878m | -9.3m/s | -31.4°C | 19.1% | 373.1hPa | 2.6V | 02:43:32 | 03:18:33 | 00:00:00 | |
| AA1-15 | 2026-09-02 01:10:49 | 52.77400 | 11.01659 | 91° | 44km/h | 7860m | -9.6m/s | -31.2°C | 22.4% | 374.1hPa | 2.5V | 02:44:02 | 03:18:35 | 00:00:00 | |
| DF8AY | 2026-09-02 01:10:48 | 52.77400 | 11.01641 | 90° | 44km/h | 7869m | -9.2m/s | -31.3°C | 22.3% | 373.7hPa | 2.5V | 02:44:02 | 03:18:34 | 00:00:00 | |
| DL1XH-15 | 2026-09-02 01:10:48 | 52.77401 | 11.01605 | 91° | 44km/h | 7887m | -9.3m/s | -31.5°C | 18.9% | 372.6hPa | 2.6V | 02:43:33 | 03:18:32 | 00:00:00 | |
| DL1XH-west | 2026-09-02 01:10:44 | 52.77402 | 11.01567 | 93° | 46km/h | 7906m | -9.7m/s | -31.6°C | 21.2% | 371.6hPa | 2.5V | 02:44:02 | 03:18:30 | 00:00:00 | |
| BIOWL1-15 | 2026-09-02 01:10:43 | 52.77403 | 11.01529 | 92° | 46km/h | 7925m | -9.4m/s | -31.7°C | 20.8% | 370.6hPa | 2.6V | 02:44:02 | 03:18:28 | 00:00:00 | |
| DM0DOS-11 | 2026-09-02 01:10:41 | 52.77405 | 11.01472 | 93° | 46km/h | 7952m | -9.4m/s | -31.9°C | 17.8% | 369.2hPa | 2.5V | 02:43:40 | 03:18:25 | 00:00:00 | |
| DB0DAN | 2026-09-02 01:10:40 | 52.77404 | 11.01491 | 93° | 44km/h | 7943m | -9.5m/s | -31.8°C | 15.8% | 369.71hPa | 2.6V | 00:00:00 | 00:00:00 | 00:00:00 | |
| AA1-15 | 2026-09-02 01:10:39 | 52.77405 | 11.01472 | 93° | 46km/h | 7952m | -9.4m/s | -31.9°C | 20.9% | 369.2hPa | 2.5V | 02:44:02 | 03:18:25 | 00:00:00 | |
| BIOWL9-15 | 2026-09-02 01:10:39 | 52.77405 | 11.01453 | 93° | 46km/h | 7961m | -9.5m/s | -32.0°C | -1.0% | 368.7hPa | 2.6V | 00:00:00 | 00:00:00 | 00:00:00 | |
| DL1XH-15 | 2026-09-02 01:10:38 | 52.77407 | 11.01415 | 92° | 46km/h | 7979m | -9.4m/s | -32.1°C | 16.4% | 367.8hPa | 2.6V | 02:43:43 | 03:18:22 | 00:00:00 | |
| DF8AY | 2026-09-02 01:10:38 | 52.77406 | 11.01434 | 92° | 46km/h | 7971m | -9.3m/s | -32°C | 19.8% | 368.3hPa | 2.5V | 02:44:02 | 03:18:23 | 00:00:00 | |
| DL1XH-west | 2026-09-02 01:10:33 | 52.77410 | 11.01337 | 94° | 47km/h | 8017m | -9.5m/s | -32.4°C | 20.9% | 365.8hPa | 2.6V | 02:44:02 | 03:18:18 | 00:00:00 | |
| DL1XH1-15 | 2026-09-02 01:10:32 | 52.77413 | 11.01237 | 93° | 47km/h | 8063m | -9.4m/s | -32.8°C | 17.8% | 363.5hPa | 2.6V | 02:43:52 | 03:18:13 | 00:00:00 | |
| DO2SHX-10 | 2026-09-02 01:10:31 | 52.77410 | 11.01317 | 94° | 47km/h | 8027m | -9.2m/s | -32.4°C | 18.1% | 365.3hPa | 2.6V | 02:43:00 | 03:18:17 | 00:00:00 | |
| DM0DOS-11 | 2026-09-02 01:10:30 | 52.77412 | 11.01277 | 92° | 47km/h | 8045m | -9.4m/s | -32.6°C | 18% | 364.5hPa | 2.5V | 02:43:50 | 03:18:15 | 00:00:00 | |
| AA1-15 | 2026-09-02 01:10:28 | 52.77412 | 11.01257 | 93° | 47km/h | 8054m | -9.6m/s | -32.7°C | 20.8% | 363.9hPa | 2.5V | 02:44:02 | 03:18:14 | 00:00:00 | |
| DF8AY | 2026-09-02 01:10:27 | 52.77413 | 11.01237 | 93° | 49km/h | 8063m | -9.4m/s | -32.8°C | 20.9% | 363.5hPa | 2.6V | 02:44:02 | 03:18:13 | 00:00:00 | |
| DB0DAN | 2026-09-02 01:10:25 | 52.77415 | 11.01196 | 94° | 47km/h | 8082m | -9.1m/s | -33°C | 16.1% | 362.56hPa | 2.6V | 00:00:00 | 00:00:00 | 00:00:00 | |
| SMARD9-15 | 2026-09-02 01:10:25 | 52.77416 | 11.01176 | 93° | 47km/h | 8091m | -9.5m/s | -33.1°C | 16.2% | 362.0hPa | 2.5V | 00:00:00 | 00:00:00 | 00:00:00 | |
| DM0DOS-11 | 2026-09-02 01:10:24 | 52.77420 | 11.01073 | 93° | 49km/h | 8137m | -9.4m/s | -33.5°C | 18.5% | 359.6hPa | 2.5V | 02:44:00 | 03:18:05 | 00:00:00 | |
| DL1XH-west | 2026-09-02 01:10:21 | 52.77418 | 11.01114 | 93° | 49km/h | 8119m | -9.2m/s | -33.3°C | 21.5% | 360.6hPa | 2.6V | 02:44:02 | 03:18:07 | 00:00:00 | |
| AM1SDL-15 | 2026-09-02 01:10:20 | 52.77419 | 11.01093 | 94° | 49km/h | 8128m | -9.4m/s | -33.3°C | 18.5% | 360.1hPa | 2.6V | 00:00:00 | 03:18:06 | 00:00:00 | |
| DO2SHX-10 | 2026-09-02 01:10:19 | 52.77420 | 11.01073 | 94° | 49km/h | 8137m | -9.4m/s | -33.4°C | 18.5% | 359.6hPa | 2.6V | 00:00:00 | 03:18:05 | 00:00:00 | |
| DL1XH1-15 | 2026-09-02 01:10:18 | 52.77421 | 11.01032 | 92° | 49km/h | 8156m | -9.4m/s | -33.6°C | 18.7% | 358.6hPa | 2.6V | 02:44:02 | 03:18:03 | 00:00:00 | |
| DL1XH-15 | 2026-09-02 01:10:18 | 52.77422 | 11.01012 | 92° | 49km/h | 8164m | -9.4m/s | -33.7°C | 18.8% | 358.1hPa | 2.6V | 02:44:03 | 03:18:02 | 00:00:00 | |
| BIOWL1-15 | 2026-09-02 01:10:18 | 52.77423 | 11.00991 | 93° | 49km/h | 8174m | -9.5m/s | -33.8°C | 21.9% | 357.7hPa | 2.5V | 02:44:53 | 03:18:01 | 00:00:00 | |
| AA1-15 | 2026-09-02 01:10:17 | 52.77421 | 11.01032 | 93° | 49km/h | 8156m | -9.4m/s | -33.6°C | 21.8% | 358.6hPa | 2.6V | 02:44:02 | 03:18:03 | 00:00:00 | |
| DF8AY | 2026-09-02 01:10:17 | 52.77422 | 11.01012 | 93° | 49km/h | 8164m | -9.4m/s | -33.7°C | 21.9% | 358.1hPa | 2.6V | 02:44:53 | 03:18:02 | 00:00:00 | |
| DO2SHX-10 | 2026-09-02 01:10:16 | 52.77422 | 11.01012 | 93° | 49km/h | 8165m | -9.4m/s | -33.7°C | 18.8% | 358.1hPa | 2.5V | 00:00:00 | 03:18:02 | 00:00:00 | |
| DM0DOS-11 | 2026-09-02 01:10:14 | 52.77427 | 11.00866 | 93° | 49km/h | 8229m | -9.6m/s | -34.3°C | 18.9% | 354.9hPa | 2.5V | 02:44:10 | 03:17:55 | 00:00:00 | |
| DD8BA-10 | 2026-09-02 01:10:14 | 52.77423 | 11.00971 | 93° | 51km/h | 8183m | -9.6m/s | -33.8°C | 18.8% | 357.2hPa | 2.5V | 00:00:00 | 00:00:00 | 00:00:00 | |
| DO2SHX-10 | 2026-09-02 01:10:13 | 52.77424 | 11.00950 | 94° | 51km/h | 8192m | -9.6m/s | -33.9°C | 18.9% | 356.8hPa | 2.5V | 02:44:00 | 03:17:59 | 00:00:00 | |
| DL1XH1-15 | 2026-09-02 01:10:12 | 52.77429 | 11.00824 | 94° | 51km/h | 8248m | -9.6m/s | -34.5°C | 18.9% | 353.9hPa | 2.5V | 02:44:12 | 03:17:53 | 00:00:00 | |
| DL1XH-west | 2026-09-02 01:10:10 | 52.77426 | 11.00887 | 94° | 51km/h | 8220m | -9.5m/s | -34.2°C | 22.1% | 355.4hPa | 2.6V | 02:44:53 | 03:17:56 | 00:00:00 | |
| DB0DAN | 2026-09-02 01:10:10 | 52.77426 | 11.00887 | 94° | 49km/h | 8220m | -9.5m/s | -34.2°C | 16.8% | 355.44hPa | 2.6V | 00:00:00 | 00:00:00 | 00:00:00 | |
| DO2SHX-10 | 2026-09-02 01:10:10 | 52.77426 | 11.00887 | 94° | 51km/h | 8220m | -9.4m/s | -34.2°C | 19.0% | 355.4hPa | 2.6V | 00:00:00 | 03:17:56 | 00:00:00 | |
| DF8AY-15 | 2026-09-02 01:10:09 | 52.77427 | 11.00866 | 94° | 51km/h | 8229m | -9.6m/s | -34.3°C | 18.9% | 354.8hPa | 2.6V | 00:00:00 | 03:17:55 | 00:00:00 | |
| DL1XH-15 | 2026-09-02 01:10:08 | 52.77430 | 11.00803 | 94° | 49km/h | 8257m | -9.7m/s | -34.6°C | 18.9% | 353.4hPa | 2.6V | 02:44:13 | 03:17:52 | 00:00:00 | |
| BIOWL1-15 | 2026-09-02 01:10:07 | 52.77431 | 11.00782 | 95° | 51km/h | 8266m | -10.1m/s | -34.7°C | 22.1% | 353hPa | 2.6V | 02:44:53 | 03:17:51 | 00:00:00 | |
| DF8AY | 2026-09-02 01:10:06 | 52.77430 | 11.00803 | 95° | 49km/h | 8257m | -9.7m/s | -34.6°C | 22% | 353.4hPa | 2.6V | 02:44:53 | 03:17:52 | 00:00:00 | |
| SONDE2-11 | 2026-09-02 01:10:05 | 52.77431 | 11.00782 | 94° | 49km/h | 8266m | -10.1m/s | -34.7°C | 16.8% | 353.0hPa | 2.5V | 00:00:00 | 00:00:00 | 00:00:00 | |
| DO2SHX-10 | 2026-09-02 01:10:04 | 52.77432 | 11.00761 | 96° | 51km/h | 8277m | -10.1m/s | -34.7°C | 19.2% | 352.4hPa | 2.5V | 02:44:00 | 03:17:50 | 00:00:00 | |
| AP2371 | 2026-09-02 01:10:03 | 52.77432 | 11.00761 | 97° | 51km/h | 8277m | -10.1m/s | -34.7°C | 17.0% | 352.4hPa | 2.6V | 02:44:00 | 00:00:00 | 00:00:00 | |
| DM0DOS-11 | 2026-09-02 01:10:02 | 52.77439 | 11.00655 | 97° | 51km/h | 8324m | -9.6m/s | -35.1°C | 19.7% | 350.2hPa | 2.6V | 02:44:20 | 03:17:45 | 00:00:00 | |
| DL1XH1-15 | 2026-09-02 01:10:02 | 52.77443 | 11.00612 | 97° | 51km/h | 8342m | -9.8m/s | -35.3°C | 19.9% | 349.2hPa | 2.5V | 02:44:22 | 03:17:43 | 00:00:00 | |
| DL1XH-west | 2026-09-02 01:10:00 | 52.77439 | 11.00655 | 97° | 51km/h | 8324m | -9.6m/s | -35.1°C | 22.7% | 350.2hPa | 2.6V | 02:44:53 | 03:17:45 | 00:00:00 | |
| DL1XH-15 | 2026-09-02 01:09:58 | 52.77444 | 11.00591 | 97° | 51km/h | 8352m | -9.9m/s | -35.3°C | 20.2% | 348.7hPa | 2.5V | 02:44:23 | 03:17:42 | 00:00:00 | |
| AA1-15 | 2026-09-02 01:09:56 | 52.77444 | 11.00591 | 98° | 51km/h | 8352m | -9.9m/s | -35.3°C | 23.2% | 348.7hPa | 2.5V | 02:44:53 | 03:17:42 | 00:00:00 | |
| DF8AY | 2026-09-02 01:09:56 | 52.77446 | 11.00570 | 98° | 53km/h | 8362m | -9.8m/s | -35.4°C | 23.6% | 348.2hPa | 2.6V | 02:44:53 | 03:17:41 | 00:00:00 | |
| DB0DAN | 2026-09-02 01:09:55 | 52.77446 | 11.00570 | 98° | 49km/h | 8362m | -9.8m/s | -35.4°C | 18.1% | 348.19hPa | 2.6V | 00:00:00 | 00:00:00 | 00:00:00 | |
| SMARD9-15 | 2026-09-02 01:09:54 | 52.77450 | 11.00526 | 98° | 53km/h | 8381m | -9.7m/s | -35.6°C | 18.7% | 347.3hPa | 2.5V | 00:00:00 | 00:00:00 | 00:00:00 | |
| DL4XJ-10 | 2026-09-02 01:09:53 | 52.77450 | 11.00526 | 99° | 55km/h | 8381m | -9.6m/s | -35.2°C | 0% | 0hPa | 2.5V | 00:00:00 | 00:00:00 | 00:00:00 | |
| DL1XH1-15 | 2026-09-02 01:09:52 | 52.77463 | 11.00394 | 99° | 53km/h | 8438m | -10.1m/s | -36°C | 22.2% | 344.6hPa | 2.5V | 02:44:32 | 03:17:33 | 00:00:00 | |
| DL1XH-west | 2026-09-02 01:09:49 | 52.77458 | 11.00438 | 99° | 53km/h | 8419m | -9.7m/s | -35.8°C | 25.4% | 345.4hPa | 2.6V | 02:44:53 | 03:17:35 | 00:00:00 | |
| DL1XH-15 | 2026-09-02 01:09:48 | 52.77465 | 11.00372 | 99° | 55km/h | 8448m | -9.9m/s | -36°C | 22.3% | 344.1hPa | 2.5V | 02:44:33 | 03:17:32 | 00:00:00 | |
| DF8AY | 2026-09-02 01:09:45 | 52.77467 | 11.00349 | 98° | 55km/h | 8458m | -9.6m/s | -36.1°C | 25.7% | 343.5hPa | 2.5V | 02:44:53 | 03:17:31 | 00:00:00 | |
| BIOWL1-15 | 2026-09-02 01:09:44 | 52.77469 | 11.00327 | 99° | 55km/h | 8467m | -9.5m/s | -36.2°C | 26.2% | 343.1hPa | 2.6V | 02:44:53 | 03:17:30 | 00:00:00 | |
| DD8BA-10 | 2026-09-02 01:09:44 | 52.77469 | 11.00327 | 99° | 55km/h | 8467m | -9.4m/s | -36.1°C | 23.0% | 343.0hPa | 2.6V | 00:00:00 | 00:00:00 | 00:00:00 | |
| DO2SHX-10 | 2026-09-02 01:09:43 | 52.77471 | 11.00304 | 98° | 55km/h | 8476m | -9.4m/s | -36.2°C | 23.4% | 342.7hPa | 2.6V | 00:00:00 | 03:17:29 | 00:00:00 | |
| DL1XH1-15 | 2026-09-02 01:09:42 | 52.77481 | 11.00168 | 94° | 55km/h | 8532m | -10m/s | -36.8°C | 25.7% | 339.8hPa | 2.6V | 02:44:42 | 03:17:23 | 00:00:00 | |
| DL1XH-west | 2026-09-02 01:09:39 | 52.77478 | 11.00213 | 96° | 55km/h | 8513m | -9.8m/s | -36.6°C | 28.6% | 340.7hPa | 2.6V | 02:44:53 | 03:17:25 | 00:00:00 | |
| DF8AY | 2026-09-02 01:09:35 | 52.77488 | 10.99990 | 92° | 53km/h | 8608m | -9.7m/s | -37.3°C | 26.6% | 336.1hPa | 2.5V | 02:44:53 | 03:17:15 | 00:00:00 | |
| AA1-15 | 2026-09-02 01:09:35 | 52.77484 | 11.00100 | 95° | 53km/h | 8561m | -9.6m/s | -37°C | 28.6% | 338.4hPa | 2.5V | 02:44:53 | 03:17:20 | 00:00:00 | |
| BIOWL1-15 | 2026-09-02 01:09:33 | 52.77485 | 11.00078 | 93° | 53km/h | 8571m | -9.6m/s | -37.1°C | 28% | 337.9hPa | 2.6V | 02:44:53 | 03:17:19 | 00:00:00 | |
| DL4XJ-10 | 2026-09-02 01:09:33 | 52.77485 | 11.00078 | 94° | 51km/h | 8571m | -9.5m/s | -36.7°C | 0% | 0hPa | 2.6V | 00:00:00 | 00:00:00 | 00:00:00 | |
| DL1XH1-15 | 2026-09-02 01:09:32 | 52.77489 | 10.99946 | 92° | 53km/h | 8627m | -9.7m/s | -37.4°C | 23.9% | 335.1hPa | 2.6V | 02:44:52 | 03:17:13 | 00:00:00 | |
| DL1XH-west | 2026-09-02 01:09:28 | 52.77489 | 10.99968 | 93° | 53km/h | 8618m | -9.8m/s | -37.4°C | 27% | 335.6hPa | 2.6V | 02:44:53 | 03:17:14 | 00:00:00 | |
| DO2SHX-10 | 2026-09-02 01:09:28 | 52.77488 | 10.99968 | 93° | 53km/h | 8618m | -9.7m/s | -37.3°C | 23.6% | 335.5hPa | 2.6V | 02:44:00 | 03:17:14 | 00:00:00 | |
| DB0DAN | 2026-09-02 01:09:25 | 52.77490 | 10.99902 | 92° | 49km/h | 8646m | -9.7m/s | -37.6°C | 21.5% | 334.21hPa | 2.5V | 00:00:00 | 00:00:00 | 00:00:00 | |
| DF8AY | 2026-09-02 01:09:23 | 52.77491 | 10.99859 | 91° | 51km/h | 8665m | -10m/s | -37.8°C | 28.2% | 333.3hPa | 2.5V | 02:45:44 | 03:17:09 | 00:00:00 | |
| BIOWL1-15 | 2026-09-02 01:09:23 | 52.77492 | 10.99794 | 91° | 51km/h | 8694m | -10.1m/s | -38°C | 28.5% | 331.9hPa | 2.6V | 02:45:44 | 03:17:06 | 00:00:00 | |
| SMARD9-15 | 2026-09-02 01:09:23 | 52.77491 | 10.99837 | 90° | 51km/h | 8674m | -9.9m/s | -37.9°C | 21.8% | 332.9hPa | 2.5V | 00:00:00 | 00:00:00 | 00:00:00 | |
| DL1XH1-15 | 2026-09-02 01:09:22 | 52.77492 | 10.99731 | 89° | 49km/h | 8722m | -9.6m/s | -38.3°C | 25.5% | 330.6hPa | 2.5V | 02:45:02 | 03:17:03 | 00:00:00 | |
| DL1XH-west | 2026-09-02 01:09:18 | 52.77492 | 10.99752 | 90° | 51km/h | 8713m | -9.8m/s | -38.2°C | 28.8% | 331hPa | 2.5V | 02:45:44 | 03:17:04 | 00:00:00 | |
| DL1XH-15 | 2026-09-02 01:09:18 | 52.77492 | 10.99711 | 90° | 49km/h | 8732m | -9.6m/s | -38.4°C | 25.7% | 330.1hPa | 2.5V | 02:45:03 | 03:17:02 | 00:00:00 | |
| DO2SHX-10 | 2026-09-02 01:09:16 | 52.77492 | 10.99710 | 91° | 49km/h | 8732m | -9.5m/s | -38.4°C | 25.7% | 330.0hPa | 2.6V | 00:00:00 | 03:17:02 | 00:00:00 | |
| EDDB2-11 | 2026-09-02 01:09:15 | 52.77492 | 10.99690 | 89° | 47km/h | 8741m | -9.7m/s | -38.5°C | 22.8% | 329.6hPa | 2.6V | 00:00:00 | 00:00:00 | 00:00:00 | |
| DM0DOS-11 | 2026-09-02 01:09:14 | 52.77493 | 10.99567 | 90° | 49km/h | 8798m | -10.1m/s | -39°C | 27.7% | 326.9hPa | 2.6V | 02:45:10 | 03:16:55 | 00:00:00 | |
| DF8AY | 2026-09-02 01:09:13 | 52.77492 | 10.99649 | 90° | 49km/h | 8760m | -9.8m/s | -38.7°C | 29.8% | 328.8hPa | 2.5V | 02:45:44 | 03:16:59 | 00:00:00 | |
| BIOWL1-15 | 2026-09-02 01:09:10 | 52.77492 | 10.99588 | 90° | 49km/h | 8789m | -10.1m/s | -38.9°C | 30.6% | 327.4hPa | 2.6V | 02:45:44 | 03:16:56 | 00:00:00 | |
| DB0DAN | 2026-09-02 01:09:10 | 52.77492 | 10.99588 | 90° | 47km/h | 8789m | -10.1m/s | -38.9°C | 23.9% | 327.36hPa | 2.6V | 00:00:00 | 00:00:00 | 00:00:00 | |
| DF8AY-15 | 2026-09-02 01:09:09 | 52.77492 | 10.99567 | 91° | 49km/h | 8799m | -10.0m/s | -39.0°C | 27.7% | 326.8hPa | 2.5V | 00:00:00 | 03:16:55 | 00:00:00 | |
| DL1XH-15 | 2026-09-02 01:09:08 | 52.77493 | 10.99505 | 89° | 49km/h | 8828m | -9.9m/s | -39.3°C | 29.5% | 325.5hPa | 2.5V | 02:45:13 | 03:16:52 | 00:00:00 | |
| DL1XH-west | 2026-09-02 01:09:07 | 52.77493 | 10.99526 | 90° | 49km/h | 8818m | -9.9m/s | -39.2°C | 32.2% | 325.9hPa | 2.5V | 02:45:44 | 03:16:53 | 00:00:00 | |
| DO2SHX-10 | 2026-09-02 01:09:07 | 52.77493 | 10.99526 | 91° | 49km/h | 8818m | -9.8m/s | -39.1°C | 28.8% | 325.9hPa | 2.5V | 00:00:00 | 03:16:53 | 00:00:00 | |
| BIOWL9-15 | 2026-09-02 01:09:06 | 52.77498 | 10.99218 | 93° | 47km/h | 8963m | -9.9m/s | -40.4°C | 31.0% | 319.1hPa | 2.5V | 00:00:00 | 00:00:00 | 00:00:00 | |
| DM0DOS-11 | 2026-09-02 01:09:04 | 52.77494 | 10.99361 | 91° | 47km/h | 8896m | -10.4m/s | -39.9°C | 33.2% | 322.2hPa | 2.5V | 02:45:20 | 03:16:45 | 00:00:00 | |
| DF8AY | 2026-09-02 01:09:03 | 52.77493 | 10.99443 | 90° | 49km/h | 8857m | -9.8m/s | -39.5°C | 34.9% | 324.1hPa | 2.6V | 02:45:44 | 03:16:49 | 00:00:00 | |
| AA1-15 | 2026-09-02 01:09:02 | 52.77493 | 10.99422 | 90° | 49km/h | 8867m | -9.8m/s | -39.6°C | 35.5% | 323.7hPa | 2.6V | 02:45:44 | 03:16:48 | 00:00:00 | |
| BIOWL1-15 | 2026-09-02 01:08:59 | 52.77500 | 10.99157 | 93° | 49km/h | 8992m | -10.1m/s | -40.7°C | 39.2% | 317.8hPa | 2.5V | 02:45:44 | 03:16:35 | 00:00:00 | |
| DL1XH-west | 2026-09-02 01:08:57 | 52.77495 | 10.99300 | 92° | 49km/h | 8925m | -9.6m/s | -40.2°C | 37.3% | 320.9hPa | 2.6V | 02:45:44 | 03:16:42 | 00:00:00 | |
| DB0DAN | 2026-09-02 01:08:55 | 52.77496 | 10.99280 | 92° | 46km/h | 8935m | -9.8m/s | -40.2°C | 30.4% | 320.5hPa | 2.5V | 00:00:00 | 00:00:00 | 00:00:00 | |
| DO2SHX-10 | 2026-09-02 01:08:55 | 52.77496 | 10.99280 | 93° | 49km/h | 8935m | -9.7m/s | -40.2°C | 34.3% | 320.4hPa | 2.5V | 00:00:00 | 03:16:41 | 00:00:00 | |
| DM0DOS-11 | 2026-09-02 01:08:54 | 52.77501 | 10.99157 | 93° | 49km/h | 8992m | -10.1m/s | -40.7°C | 35.6% | 317.8hPa | 2.5V | 02:45:30 | 03:16:35 | 00:00:00 | |
| DF8AY | 2026-09-02 01:08:52 | 52.77498 | 10.99218 | 93° | 49km/h | 8963m | -9.9m/s | -40.4°C | 38.4% | 319.1hPa | 2.6V | 02:45:44 | 03:16:38 | 00:00:00 | |
| AA1-15 | 2026-09-02 01:08:51 | 52.77499 | 10.99198 | 94° | 49km/h | 8972m | -9.9m/s | -40.5°C | 38.7% | 318.7hPa | 2.6V | 02:45:44 | 03:16:37 | 00:00:00 | |
| DF8AY-15 | 2026-09-02 01:08:50 | 52.77500 | 10.99157 | 94° | 51km/h | 8992m | -10.1m/s | -40.6°C | 35.6% | 317.7hPa | 2.5V | 00:00:00 | 03:16:35 | 00:00:00 | |
| DF7ER-10 | 2026-09-02 01:08:49 | 52.77501 | 10.99157 | 94° | 49km/h | 8992m | -10.1m/s | -40.7°C | 31.5% | 317.8hPa | 2.5V | 02:45:00 | 00:00:00 | 00:00:00 | |
| DL1XH-15 | 2026-09-02 01:08:48 | 52.77502 | 10.99095 | 92° | 49km/h | 9021m | -10.6m/s | -40.9°C | 36.4% | 316.4hPa | 2.5V | 02:45:33 | 03:16:32 | 00:00:00 | |
| DL1XH-west | 2026-09-02 01:08:45 | 52.77503 | 10.99074 | 94° | 49km/h | 9032m | -10.1m/s | -41°C | 40% | 316hPa | 2.6V | 02:45:44 | 03:16:31 | 00:00:00 | |
| DM0DOS-11 | 2026-09-02 01:08:44 | 52.77509 | 10.98946 | 94° | 53km/h | 9089m | -10.1m/s | -41.5°C | 37.8% | 313.3hPa | 2.6V | 02:45:40 | 03:16:25 | 00:00:00 | |
| DD8BA-10 | 2026-09-02 01:08:44 | 52.77504 | 10.99053 | 94° | 51km/h | 9041m | -9.9m/s | -41.0°C | 36.3% | 315.5hPa | 2.6V | 00:00:00 | 00:00:00 | 00:00:00 | |
| DO2SHX-10 | 2026-09-02 01:08:43 | 52.77505 | 10.99032 | 94° | 51km/h | 9051m | -10.0m/s | -41.1°C | 36.3% | 315.0hPa | 2.6V | 02:45:00 | 03:16:29 | 00:00:00 | |
| DL1XH1-15 | 2026-09-02 01:08:42 | 52.77511 | 10.98903 | 93° | 53km/h | 9109m | -10.1m/s | -41.7°C | 38.4% | 312.4hPa | 2.5V | 02:45:42 | 03:16:23 | 00:00:00 | |
| DF8AY | 2026-09-02 01:08:41 | 52.77507 | 10.98990 | 93° | 51km/h | 9070m | -10.1m/s | -41.3°C | 40.5% | 314.1hPa | 2.5V | 02:45:44 | 03:16:27 | 00:00:00 | |
| DB0DAN | 2026-09-02 01:08:40 | 52.77508 | 10.98968 | 94° | 49km/h | 9080m | -10m/s | -41.4°C | 33% | 313.68hPa | 2.5V | 00:00:00 | 00:00:00 | 00:00:00 | |
| AA1-15 | 2026-09-02 01:08:40 | 52.77508 | 10.98968 | 94° | 53km/h | 9080m | -10m/s | -41.4°C | 40.9% | 313.7hPa | 2.5V | 02:45:44 | 03:16:26 | 00:00:00 | |
| BIOWL1-15 | 2026-09-02 01:08:36 | 52.77512 | 10.98881 | 93° | 53km/h | 9119m | -10.6m/s | -41.8°C | 42.4% | 311.9hPa | 2.5V | 02:45:44 | 03:16:22 | 00:00:00 | |
| DL1XH-west | 2026-09-02 01:08:35 | 52.77512 | 10.98860 | 94° | 53km/h | 9129m | -10.4m/s | -41.9°C | 42.9% | 311.4hPa | 2.5V | 02:45:44 | 03:16:21 | 00:00:00 | |
| SONCRA | 2026-09-02 01:08:35 | 52.77512 | 10.98860 | 93° | 51km/h | 9129m | -10.4m/s | -41.9°C | 34.7% | 311.4hPa | 2.6V | 00:00:00 | 00:00:00 | 00:00:00 | |
| DL2RXE-15 | 2026-09-02 01:08:34 | 52.77512 | 10.98860 | 95° | 53km/h | 9129m | -10.4m/s | -41.9°C | 34.7% | 311.4hPa | 2.6V | 02:45:00 | 00:00:00 | 00:00:00 | |
| DL4XJ-10 | 2026-09-02 01:08:33 | 52.77514 | 10.98816 | 93° | 53km/h | 9149m | -9.8m/s | -41.7°C | 0% | 0hPa | 2.6V | 00:00:00 | 00:00:00 | 00:00:00 | |
| DL1XH1-15 | 2026-09-02 01:08:32 | 52.77520 | 10.98684 | 95° | 53km/h | 9207m | -10.5m/s | -42.6°C | 43% | 307.8hPa | 2.6V | 02:45:52 | 03:16:13 | 00:00:00 | |
| DF8AY | 2026-09-02 01:08:31 | 52.77516 | 10.98772 | 94° | 53km/h | 9167m | -10.3m/s | -42.3°C | 44.6% | 309.7hPa | 2.5V | 02:46:35 | 03:16:17 | 00:00:00 | |
| AA1-15 | 2026-09-02 01:08:29 | 52.77518 | 10.98728 | 95° | 53km/h | 9188m | -10.6m/s | -42.5°C | 45.6% | 308.8hPa | 2.5V | 02:46:35 | 03:16:15 | 00:00:00 | |
| DO2SHX-10 | 2026-09-02 01:08:29 | 52.77518 | 10.98728 | 96° | 53km/h | 9188m | -10.6m/s | -42.4°C | 41.9% | 308.7hPa | 2.6V | 00:00:00 | 03:16:15 | 00:00:00 | |
| DL1XH-15 | 2026-09-02 01:08:28 | 52.77521 | 10.98662 | 93° | 55km/h | 9217m | -10.5m/s | -42.7°C | 43.8% | 307.4hPa | 2.6V | 02:45:53 | 03:16:12 | 00:00:00 | |
| BIOWL1-15 | 2026-09-02 01:08:26 | 52.77521 | 10.98662 | 93° | 55km/h | 9217m | -10.5m/s | -42.7°C | 47.5% | 307.4hPa | 2.6V | 02:46:35 | 03:16:12 | 00:00:00 | |
| DB0DAN | 2026-09-02 01:08:25 | 52.77522 | 10.98640 | 94° | 51km/h | 9228m | -10.4m/s | -42.8°C | 39.6% | 306.93hPa | 2.6V | 00:00:00 | 00:00:00 | 00:00:00 | |
| DL1XH-west | 2026-09-02 01:08:25 | 52.77522 | 10.98640 | 94° | 53km/h | 9228m | -10.4m/s | -42.8°C | 48.3% | 306.9hPa | 2.6V | 02:46:35 | 03:16:11 | 00:00:00 | |
| DD8BA-10 | 2026-09-02 01:08:24 | 52.77523 | 10.98617 | 94° | 55km/h | 9238m | -10.2m/s | -42.9°C | 45.7% | 306.4hPa | 2.5V | 00:00:00 | 00:00:00 | 00:00:00 | |
| DO2SHX-10 | 2026-09-02 01:08:23 | 52.77524 | 10.98595 | 94° | 53km/h | 9248m | -10.5m/s | -43.0°C | 47.0% | 306.0hPa | 2.5V | 00:00:00 | 03:16:09 | 00:00:00 | |
| DL1XH1-15 | 2026-09-02 01:08:22 | 52.77530 | 10.98461 | 94° | 53km/h | 9308m | -10.3m/s | -43.4°C | 54.6% | 303.3hPa | 2.5V | 02:46:02 | 03:16:03 | 00:00:00 | |
| DF8AY | 2026-09-02 01:08:20 | 52.77527 | 10.98528 | 94° | 53km/h | 9278m | -10.3m/s | -43.3°C | 54.2% | 304.7hPa | 2.6V | 02:46:35 | 03:16:06 | 00:00:00 | |
| DO2SHX-10 | 2026-09-02 01:08:20 | 52.77527 | 10.98527 | 95° | 53km/h | 9278m | -10.3m/s | -43.2°C | 50.8% | 304.6hPa | 2.5V | 00:00:00 | 03:16:06 | 00:00:00 | |
| DL3AQ-11 | 2026-09-02 01:08:19 | 52.77529 | 10.98483 | 94° | 53km/h | 9298m | -10.2m/s | -43.4°C | 47.9% | 303.8hPa | 2.5V | 00:00:00 | 00:00:00 | 00:00:00 | |
| DL1XH-15 | 2026-09-02 01:08:18 | 52.77531 | 10.98438 | 94° | 55km/h | 9318m | -10.4m/s | -43.5°C | 55.2% | 302.9hPa | 2.5V | 02:46:03 | 03:16:02 | 00:00:00 | |
| AA1-15 | 2026-09-02 01:08:18 | 52.77529 | 10.98483 | 94° | 53km/h | 9298m | -10.2m/s | -43.4°C | 57.2% | 303.8hPa | 2.6V | 02:46:35 | 03:16:04 | 00:00:00 | |
| BIOWL1-15 | 2026-09-02 01:08:15 | 52.77535 | 10.98370 | 95° | 55km/h | 9348m | -10.3m/s | -43.8°C | 60.2% | 301.5hPa | 2.6V | 02:46:35 | 03:15:59 | 00:00:00 | |
| DL1XH-west | 2026-09-02 01:08:14 | 52.77534 | 10.98393 | 94° | 55km/h | 9338m | -10.5m/s | -43.7°C | 59.7% | 302hPa | 2.6V | 02:46:35 | 03:16:00 | 00:00:00 | |
| GOEST3-10 | 2026-09-02 01:08:14 | 52.77534 | 10.98393 | 95° | 55km/h | 9338m | -10.4m/s | -43.7°C | 56.3% | 301.9hPa | 2.6V | 02:46:00 | 00:00:00 | 00:00:00 | |
| DL4XJ-10 | 2026-09-02 01:08:13 | 52.77535 | 10.98370 | 95° | 53km/h | 9348m | -10.2m/s | -43.5°C | 0% | 0hPa | 2.6V | 00:00:00 | 00:00:00 | 00:00:00 | |
| DL1XH1-15 | 2026-09-02 01:08:12 | 52.77542 | 10.98236 | 95° | 53km/h | 9407m | -10.1m/s | -44.4°C | 59.5% | 298.8hPa | 2.6V | 02:46:12 | 03:15:53 | 00:00:00 | |
| SMARD9-10 | 2026-09-02 01:08:11 | 52.77536 | 10.98347 | 95° | 53km/h | 9358m | -10.1m/s | -43.9°C | 50.9% | 301.1hPa | 2.5V | 00:00:00 | 00:00:00 | 00:00:00 | |
| DB0DAN | 2026-09-02 01:08:10 | 52.77538 | 10.98303 | 95° | 51km/h | 9378m | -10.3m/s | -44.1°C | 51.6% | 300.21hPa | 2.5V | 00:00:00 | 00:00:00 | 00:00:00 | |
| DF8AY | 2026-09-02 01:08:09 | 52.77546 | 10.98170 | 95° | 53km/h | 9437m | -10.4m/s | -44.7°C | 64.6% | 297.5hPa | 2.5V | 02:46:35 | 03:15:50 | 00:00:00 | |
| DF8AY-15 | 2026-09-02 01:08:09 | 52.77540 | 10.98281 | 95° | 53km/h | 9388m | -10.2m/s | -44.2°C | 58.5% | 299.7hPa | 2.5V | 00:00:00 | 03:15:55 | 00:00:00 | |
| DL1XH-15 | 2026-09-02 01:08:08 | 52.77543 | 10.98214 | 94° | 53km/h | 9417m | -10.2m/s | -44.5°C | 60% | 298.4hPa | 2.5V | 02:46:13 | 03:15:52 | 00:00:00 | |
| AA1-15 | 2026-09-02 01:08:08 | 52.77541 | 10.98258 | 94° | 55km/h | 9397m | -10.3m/s | -44.3°C | 62.4% | 299.3hPa | 2.6V | 02:46:35 | 03:15:54 | 00:00:00 | |
| BIOWL1-15 | 2026-09-02 01:08:05 | 52.77544 | 10.98192 | 95° | 53km/h | 9427m | -10.3m/s | -44.6°C | 64.1% | 298.1hPa | 2.5V | 02:46:35 | 03:15:51 | 00:00:00 | |
| DD8BA-10 | 2026-09-02 01:08:04 | 52.77545 | 10.98170 | 95° | 53km/h | 9437m | -10.4m/s | -44.6°C | 61.3% | 297.5hPa | 2.5V | 02:46:00 | 00:00:00 | 00:00:00 | |
| BIOWL9-15 | 2026-09-02 01:08:03 | 52.77547 | 10.98148 | 95° | 51km/h | 9447m | -10.3m/s | -44.8°C | 55.0% | 297.1hPa | 2.5V | 00:00:00 | 00:00:00 | 00:00:00 | |
| DL1XH-west | 2026-09-02 01:08:03 | 52.77547 | 10.98148 | 96° | 53km/h | 9447m | -10.3m/s | -44.8°C | 64.9% | 297.1hPa | 2.5V | 02:46:35 | 03:15:49 | 00:00:00 | |
| DL1XH1-15 | 2026-09-02 01:08:02 | 52.77554 | 10.98016 | 94° | 53km/h | 9507m | -10.5m/s | -45.3°C | 64.6% | 294.4hPa | 2.5V | 02:46:22 | 03:15:43 | 00:00:00 | |
| DO2SHX-10 | 2026-09-02 01:08:02 | 52.77548 | 10.98126 | 96° | 53km/h | 9457m | -10.1m/s | -44.8°C | 61.9% | 296.6hPa | 2.6V | 00:00:00 | 03:15:48 | 00:00:00 | |
| SONDE2-11 | 2026-09-02 01:08:01 | 52.77550 | 10.98104 | 94° | 53km/h | 9467m | -10.3m/s | -45.0°C | 55.5% | 296.2hPa | 2.6V | 00:00:00 | 00:00:00 | 00:00:00 | |
| DB0NH | 2026-09-02 01:08:00 | 52.77551 | 10.98082 | 95° | 51km/h | 9477m | -10.3m/s | -45.0°C | 62.8% | 295.7hPa | 2.6V | 02:46:00 | 03:15:46 | 00:00:00 | |
| DO2SHX-10 | 2026-09-02 01:07:59 | 52.77552 | 10.98060 | 95° | 53km/h | 9487m | -10.1m/s | -45.1°C | 63.3% | 295.2hPa | 2.5V | 02:46:00 | 03:15:45 | 00:00:00 | |
| DL1XH-15 | 2026-09-02 01:07:58 | 52.77555 | 10.97995 | 95° | 53km/h | 9517m | -10.2m/s | -45.4°C | 65.3% | 294hPa | 2.5V | 02:46:23 | 03:15:42 | 00:00:00 | |
| AA1-15 | 2026-09-02 01:07:58 | 52.77553 | 10.98038 | 95° | 53km/h | 9497m | -10.5m/s | -45.3°C | 67.1% | 294.9hPa | 2.5V | 02:46:35 | 03:15:44 | 00:00:00 | |
| DF8AY | 2026-09-02 01:07:55 | 52.77556 | 10.97973 | 95° | 53km/h | 9527m | -10m/s | -45.5°C | 69.2% | 293.6hPa | 2.6V | 02:46:35 | 03:15:41 | 00:00:00 | |
| BIOWL1-15 | 2026-09-02 01:07:54 | 52.77563 | 10.97823 | 94° | 51km/h | 9598m | -10.3m/s | -46.2°C | 70.5% | 290.5hPa | 2.6V | 02:46:35 | 03:15:34 | 00:00:00 | |
| DD8BA-10 | 2026-09-02 01:07:54 | 52.77557 | 10.97951 | 96° | 51km/h | 9537m | -10.4m/s | -45.6°C | 66.3% | 293.1hPa | 2.6V | 00:00:00 | 00:00:00 | 00:00:00 | |
| DM0DOS-11 | 2026-09-02 01:07:53 | 52.77562 | 10.97844 | 93° | 51km/h | 9587m | -10.6m/s | -46.1°C | 67% | 290.9hPa | 2.6V | 02:46:30 | 03:15:35 | 00:00:00 | |
| DL1XH-west | 2026-09-02 01:07:53 | 52.77559 | 10.97930 | 95° | 51km/h | 9547m | -10.2m/s | -45.7°C | 69.6% | 292.7hPa | 2.6V | 02:46:35 | 03:15:39 | 00:00:00 | |
| EDDB2-12 | 2026-09-02 01:07:51 | 52.77561 | 10.97887 | 93° | 51km/h | 9567m | -10.4m/s | -45.9°C | 59.6% | 291.8hPa | 2.5V | 00:00:00 | 00:00:00 | 00:00:00 | |
| DO2SHX-10 | 2026-09-02 01:07:50 | 52.77562 | 10.97865 | 95° | 51km/h | 9577m | -10.3m/s | -45.9°C | 67.0% | 291.3hPa | 2.5V | 02:46:00 | 03:15:36 | 00:00:00 | |
| DF8AY-15 | 2026-09-02 01:07:49 | 52.77562 | 10.97844 | 94° | 49km/h | 9587m | -10.6m/s | -46.0°C | 67.0% | 290.9hPa | 2.5V | 00:00:00 | 03:15:35 | 00:00:00 | |
| DL1XH-15 | 2026-09-02 01:07:48 | 52.77565 | 10.97780 | 93° | 51km/h | 9618m | -10.5m/s | -46.3°C | 67.7% | 289.6hPa | 2.5V | 02:46:33 | 03:15:32 | 00:00:00 | |
| AA1-15 | 2026-09-02 01:07:47 | 52.77564 | 10.97801 | 93° | 51km/h | 9608m | -10.3m/s | -46.2°C | 70.5% | 290.1hPa | 2.5V | 02:46:35 | 03:15:33 | 00:00:00 | |
| DF8AY | 2026-09-02 01:07:43 | 52.77567 | 10.97717 | 93° | 51km/h | 9649m | -10.4m/s | -46.6°C | 71.7% | 288.3hPa | 2.6V | 02:47:26 | 03:15:29 | 00:00:00 | |
| DM0DOS-11 | 2026-09-02 01:07:43 | 52.77571 | 10.97634 | 93° | 49km/h | 9690m | -10.5m/s | -47°C | 69.1% | 286.5hPa | 2.5V | 02:46:40 | 03:15:25 | 00:00:00 | |
| DL1XH-west | 2026-09-02 01:07:42 | 52.77568 | 10.97696 | 94° | 49km/h | 9659m | -10.4m/s | -46.7°C | 71.9% | 287.8hPa | 2.6V | 02:47:26 | 03:15:28 | 00:00:00 | |
| EDDB2-11 | 2026-09-02 01:07:42 | 52.77568 | 10.97696 | 93° | 49km/h | 9659m | -10.4m/s | -46.7°C | 61.1% | 287.8hPa | 2.5V | 00:00:00 | 00:00:00 | 00:00:00 | |
| DB0DAN | 2026-09-02 01:07:40 | 52.77570 | 10.97654 | 93° | 47km/h | 9680m | -10.3m/s | -46.9°C | 61.2% | 286.95hPa | 2.5V | 00:00:00 | 00:00:00 | 00:00:00 | |
| AA1-15 | 2026-09-02 01:07:36 | 52.77573 | 10.97572 | 94° | 49km/h | 9720m | -10.2m/s | -47.3°C | 72.4% | 285.2hPa | 2.6V | 02:47:26 | 03:15:22 | 00:00:00 | |
| DO2SHX-10 | 2026-09-02 01:07:35 | 52.77574 | 10.97552 | 94° | 49km/h | 9731m | -10.4m/s | -47.3°C | 69.2% | 284.7hPa | 2.5V | 00:00:00 | 03:15:21 | 00:00:00 | |
| DD8BA-10 | 2026-09-02 01:07:34 | 52.77575 | 10.97532 | 95° | 51km/h | 9741m | -10.4m/s | -47.4°C | 69.1% | 284.2hPa | 2.5V | 02:46:00 | 00:00:00 | 00:00:00 | |
| DM0DOS-11 | 2026-09-02 01:07:33 | 52.77580 | 10.97429 | 94° | 51km/h | 9792m | -10.2m/s | -48°C | 67.9% | 282.2hPa | 2.6V | 02:46:50 | 03:15:15 | 00:00:00 | |
| DF8AY | 2026-09-02 01:07:32 | 52.77577 | 10.97491 | 94° | 49km/h | 9762m | -10.5m/s | -47.7°C | 71.9% | 283.4hPa | 2.5V | 02:47:26 | 03:15:18 | 00:00:00 | |
| DL1XH1-15 | 2026-09-02 01:07:32 | 52.77582 | 10.97387 | 94° | 51km/h | 9812m | -10.6m/s | -48.1°C | 66.8% | 281.2hPa | 2.5V | 02:46:52 | 03:15:13 | 00:00:00 | |
| BIOWL1-15 | 2026-09-02 01:07:32 | 52.77582 | 10.97387 | 94° | 51km/h | 9812m | -10.6m/s | -48.2°C | 69.6% | 281.3hPa | 2.5V | 02:47:26 | 03:15:13 | 00:00:00 | |
| DL1XH-west | 2026-09-02 01:07:31 | 52.77578 | 10.97471 | 94° | 49km/h | 9772m | -10.6m/s | -47.8°C | 71.5% | 283hPa | 2.5V | 02:47:26 | 03:15:17 | 00:00:00 | |
| AA1-15 | 2026-09-02 01:07:26 | 52.77583 | 10.97365 | 95° | 51km/h | 9823m | -10.8m/s | -48.2°C | 68.7% | 280.9hPa | 2.5V | 02:47:26 | 03:15:12 | 00:00:00 | |
| DB0DAN | 2026-09-02 01:07:25 | 52.77584 | 10.97344 | 95° | 49km/h | 9833m | -10.4m/s | -48.3°C | 57.3% | 280.45hPa | 2.5V | 00:00:00 | 00:00:00 | 00:00:00 | |
| DD8BA-10 | 2026-09-02 01:07:24 | 52.77585 | 10.97322 | 95° | 55km/h | 9844m | -10.4m/s | -48.3°C | 63.5% | 279.9hPa | 2.6V | 00:00:00 | 00:00:00 | 00:00:00 | |
| DO2SHX-10 | 2026-09-02 01:07:23 | 52.77586 | 10.97300 | 95° | 53km/h | 9854m | -10.1m/s | -48.4°C | 61.9% | 279.4hPa | 2.6V | 02:46:00 | 03:15:09 | 00:00:00 | |
| DL1XH1-15 | 2026-09-02 01:07:22 | 52.77592 | 10.97164 | 94° | 55km/h | 9915m | -10.5m/s | -48.9°C | 60.1% | 276.9hPa | 2.6V | 02:47:02 | 03:15:03 | 00:00:00 | |
| DF8AY | 2026-09-02 01:07:21 | 52.77588 | 10.97255 | 95° | 55km/h | 9875m | -10.6m/s | -48.6°C | 64.2% | 278.7hPa | 2.5V | 02:47:26 | 03:15:07 | 00:00:00 | |
| DL1XH-west | 2026-09-02 01:07:20 | 52.77589 | 10.97233 | 94° | 55km/h | 9885m | -10.5m/s | -48.7°C | 63.7% | 278.2hPa | 2.5V | 02:47:26 | 03:15:06 | 00:00:00 | |
| DM0DOS-11 | 2026-09-02 01:07:20 | 52.77591 | 10.97210 | 94° | 55km/h | 9895m | -10.4m/s | -48.8°C | 60.6% | 277.8hPa | 2.6V | 02:47:00 | 03:15:05 | 00:00:00 | |
| BIOWL1-15 | 2026-09-02 01:07:19 | 52.77592 | 10.97164 | 95° | 55km/h | 9916m | -10.5m/s | -48.9°C | 63% | 276.9hPa | 2.6V | 02:47:26 | 03:15:03 | 00:00:00 | |
| AA1-15 | 2026-09-02 01:07:16 | 52.77594 | 10.97142 | 95° | 55km/h | 9926m | -10.5m/s | -49°C | 62.9% | 276.4hPa | 2.5V | 02:47:26 | 03:15:02 | 00:00:00 | |
| DM0DOS-11 | 2026-09-02 01:07:14 | 52.77602 | 10.96983 | 94° | 55km/h | 9999m | -10.5m/s | -49.6°C | 58.6% | 273.4hPa | 2.5V | 02:47:10 | 03:14:55 | 00:00:00 | |
| DO2SHX-10 | 2026-09-02 01:07:14 | 52.77596 | 10.97097 | 95° | 55km/h | 9947m | -10.5m/s | -49.2°C | 59.6% | 275.5hPa | 2.5V | 02:47:00 | 03:15:00 | 00:00:00 | |
| DD8BA-10 | 2026-09-02 01:07:13 | 52.77597 | 10.97074 | 95° | 55km/h | 9958m | -10.6m/s | -49.3°C | 59.7% | 275.1hPa | 2.5V | 00:00:00 | 00:00:00 | 00:00:00 | |
| DL1XH1-15 | 2026-09-02 01:07:12 | 52.77604 | 10.96937 | 94° | 55km/h | 10020m | -10.8m/s | -49.8°C | 57.5% | 272.6hPa | 2.5V | 02:47:12 | 03:14:53 | 00:00:00 | |
| DF8AY | 2026-09-02 01:07:11 | 52.77600 | 10.97006 | 94° | 55km/h | 9988m | -10.3m/s | -49.6°C | 62% | 273.9hPa | 2.6V | 02:47:26 | 03:14:56 | 00:00:00 | |
| DB0DAN | 2026-09-02 01:07:10 | 52.77600 | 10.97006 | 94° | 53km/h | 9988m | -10.3m/s | -49.6°C | 51.6% | 273.87hPa | 2.6V | 00:00:00 | 00:00:00 | 00:00:00 | |
| DL1XH-west | 2026-09-02 01:07:09 | 52.77601 | 10.96983 | 95° | 55km/h | 9999m | -10.5m/s | -49.6°C | 61.7% | 273.4hPa | 2.5V | 02:47:26 | 03:14:55 | 00:00:00 | |
| BIOWL1-15 | 2026-09-02 01:07:08 | 52.77603 | 10.96960 | 95° | 55km/h | 10009m | -10.6m/s | -49.7°C | 61.3% | 273hPa | 2.5V | 02:47:26 | 03:14:54 | 00:00:00 | |
| DO2SHX-10 | 2026-09-02 01:07:08 | 52.77603 | 10.96960 | 95° | 57km/h | 10009m | -10.5m/s | -49.7°C | 58.0% | 273.0hPa | 2.5V | 00:00:00 | 03:14:54 | 00:00:00 | |
| DL1XH-15 | 2026-09-02 01:07:07 | 52.77605 | 10.96914 | 94° | 57km/h | 10030m | -10.5m/s | -49.9°C | 57.4% | 272.1hPa | 2.5V | 02:47:13 | 03:14:52 | 00:00:00 | |
| AA1-15 | 2026-09-02 01:07:05 | 52.77606 | 10.96891 | 94° | 55km/h | 10040m | -10.5m/s | -49.9°C | 60.2% | 271.7hPa | 2.6V | 02:47:26 | 03:14:51 | 00:00:00 | |
| DO2SHX-10 | 2026-09-02 01:07:05 | 52.77606 | 10.96891 | 95° | 57km/h | 10040m | -10.4m/s | -49.9°C | 57.0% | 271.6hPa | 2.6V | 02:47:00 | 03:14:51 | 00:00:00 | |
| DD8BA-10 | 2026-09-02 01:07:03 | 52.77608 | 10.96845 | 95° | 55km/h | 10061m | -10.4m/s | -50.0°C | 56.7% | 270.8hPa | 2.6V | 02:47:00 | 00:00:00 | 00:00:00 | |
| DL1XH1-15 | 2026-09-02 01:07:02 | 52.77615 | 10.96707 | 94° | 55km/h | 10123m | -10.3m/s | -50.6°C | 59.8% | 268.3hPa | 2.5V | 02:47:22 | 03:14:43 | 00:00:00 | |
| DF8AY | 2026-09-02 01:07:00 | 52.77612 | 10.96776 | 94° | 55km/h | 10092m | -10.6m/s | -50.3°C | 62.3% | 269.6hPa | 2.5V | 02:47:26 | 03:14:46 | 00:00:00 | |
| DL1XH-west | 2026-09-02 01:06:59 | 52.77613 | 10.96753 | 95° | 55km/h | 10103m | -10.3m/s | -50.4°C | 62.7% | 269.1hPa | 2.6V | 02:47:26 | 03:14:45 | 00:00:00 | |
| BIOWL1-15 | 2026-09-02 01:06:59 | 52.77615 | 10.96707 | 95° | 55km/h | 10123m | -10.4m/s | -50.6°C | 63.3% | 268.3hPa | 2.5V | 02:47:26 | 03:14:43 | 00:00:00 | |
| DL1XH-15 | 2026-09-02 01:06:57 | 52.77617 | 10.96685 | 94° | 55km/h | 10134m | -10.5m/s | -50.7°C | 59.7% | 267.9hPa | 2.5V | 02:47:23 | 03:14:42 | 00:00:00 | |
| DB0DAN | 2026-09-02 01:06:55 | 52.77618 | 10.96662 | 95° | 51km/h | 10144m | -10.5m/s | -50.8°C | 51.7% | 267.46hPa | 2.5V | 00:00:00 | 00:00:00 | 00:00:00 | |
| AA1-15 | 2026-09-02 01:06:54 | 52.77619 | 10.96640 | 95° | 53km/h | 10154m | -10.7m/s | -50.9°C | 62.5% | 267.1hPa | 2.6V | 02:47:26 | 03:14:40 | 00:00:00 | |
| TFSTFS | 2026-09-02 01:06:54 | 52.77619 | 10.96640 | 96° | 53km/h | 10154m | -10.7m/s | -50.9°C | 51.5% | 267.1hPa | 2.6V | 02:47:00 | 00:00:00 | 00:00:00 | |
| DO2SHX-10 | 2026-09-02 01:06:53 | 52.77620 | 10.96618 | 95° | 53km/h | 10165m | -10.4m/s | -50.9°C | 59.2% | 266.5hPa | 2.6V | 00:00:00 | 03:14:39 | 00:00:00 | |
| DL1XH1-15 | 2026-09-02 01:06:52 | 52.77627 | 10.96487 | 95° | 51km/h | 10228m | -10.5m/s | -51.4°C | 59.7% | 264.1hPa | 2.6V | 02:47:32 | 03:14:33 | 00:00:00 | |
| DF8AY | 2026-09-02 01:06:49 | 52.77625 | 10.96530 | 95° | 51km/h | 10207m | -10.6m/s | -51.2°C | 62.7% | 264.9hPa | 2.5V | 02:48:17 | 03:14:35 | 00:00:00 | |
| DL1XH-west | 2026-09-02 01:06:48 | 52.77626 | 10.96509 | 95° | 53km/h | 10218m | -10.3m/s | -51.3°C | 62.9% | 264.5hPa | 2.5V | 02:48:17 | 03:14:34 | 00:00:00 | |
| DL1XH-15 | 2026-09-02 01:06:48 | 52.77628 | 10.96466 | 95° | 53km/h | 10238m | -10.5m/s | -51.5°C | 59.8% | 263.6hPa | 2.6V | 02:47:33 | 03:14:32 | 00:00:00 | |
| BIOWL1-15 | 2026-09-02 01:06:47 | 52.77630 | 10.96444 | 95° | 53km/h | 10249m | -10.4m/s | -51.6°C | 63.3% | 263.1hPa | 2.6V | 02:48:17 | 03:14:31 | 00:00:00 | |
| BUE01 | 2026-09-02 01:06:46 | 52.77628 | 10.96466 | 95° | 51km/h | 10238m | -10.5m/s | -51.5°C | 51.7% | 263.6hPa | 2.5V | 00:00:00 | 00:00:00 | 00:00:00 | |
| AA1-15 | 2026-09-02 01:06:43 | 52.77632 | 10.96400 | 96° | 53km/h | 10270m | -10.4m/s | -51.8°C | 63.6% | 262.4hPa | 2.5V | 02:48:17 | 03:14:29 | 00:00:00 | |
| DD8BA-10 | 2026-09-02 01:06:43 | 52.77632 | 10.96400 | 97° | 55km/h | 10270m | -10.3m/s | -51.7°C | 60.4% | 262.3hPa | 2.5V | 00:00:00 | 00:00:00 | 00:00:00 | |
| DL1XH1-15 | 2026-09-02 01:06:42 | 52.77641 | 10.96265 | 95° | 55km/h | 10332m | -10.3m/s | -52.3°C | 61.7% | 259.9hPa | 2.5V | 02:47:42 | 03:14:23 | 00:00:00 | |
| DB0DAN | 2026-09-02 01:06:40 | 52.77637 | 10.96333 | 97° | 51km/h | 10301m | -10.5m/s | -52°C | 52.8% | 261.11hPa | 2.6V | 00:00:00 | 00:00:00 | 00:00:00 | |
| DF8AY | 2026-09-02 01:06:39 | 52.77638 | 10.96310 | 96° | 55km/h | 10311m | -10.3m/s | -52.1°C | 64.4% | 260.7hPa | 2.6V | 02:48:17 | 03:14:25 | 00:00:00 | |
| DL1XH-west | 2026-09-02 01:06:38 | 52.77640 | 10.96287 | 96° | 55km/h | 10322m | -10.4m/s | -52.2°C | 64.6% | 260.3hPa | 2.6V | 02:48:17 | 03:14:24 | 00:00:00 | |
| DO2SHX-10 | 2026-09-02 01:06:38 | 52.77640 | 10.96287 | 96° | 55km/h | 10322m | -10.3m/s | -52.2°C | 61.6% | 260.2hPa | 2.6V | 02:47:00 | 03:14:24 | 00:00:00 | |
| DL1XH-15 | 2026-09-02 01:06:37 | 52.77643 | 10.96241 | 96° | 55km/h | 10342m | -10.5m/s | -52.4°C | 62% | 259.4hPa | 2.5V | 02:47:43 | 03:14:22 | 00:00:00 | |
| BIOWL1-15 | 2026-09-02 01:06:35 | 52.77644 | 10.96218 | 96° | 57km/h | 10353m | -10.3m/s | -52.5°C | 65.3% | 259.1hPa | 2.5V | 02:48:17 | 03:14:21 | 00:00:00 | |
| DO2SHX-10 | 2026-09-02 01:06:35 | 52.77644 | 10.96218 | 97° | 57km/h | 10353m | -10.2m/s | -52.4°C | 62.2% | 259.0hPa | 2.6V | 00:00:00 | 03:14:21 | 00:00:00 | |
| DM0DOS-11 | 2026-09-02 01:06:33 | 52.77655 | 10.96077 | 97° | 57km/h | 10415m | -10.6m/s | -53°C | 63.5% | 256.6hPa | 2.6V | 02:47:50 | 03:14:15 | 00:00:00 | |
| AA1-15 | 2026-09-02 01:06:33 | 52.77648 | 10.96172 | 97° | 57km/h | 10374m | -10.4m/s | -52.6°C | 65.6% | 258.2hPa | 2.6V | 02:48:17 | 03:14:19 | 00:00:00 | |
| DD8BA-10 | 2026-09-02 01:06:33 | 52.77647 | 10.96172 | 97° | 57km/h | 10374m | -10.4m/s | -52.6°C | 62.5% | 258.2hPa | 2.6V | 02:47:00 | 00:00:00 | 00:00:00 | |
| DL1XH1-15 | 2026-09-02 01:06:32 | 52.77658 | 10.96030 | 96° | 57km/h | 10436m | -10.5m/s | -53.2°C | 64.1% | 255.7hPa | 2.6V | 02:47:52 | 03:14:13 | 00:00:00 | |
| DL1XH-west | 2026-09-02 01:06:28 | 52.77656 | 10.96054 | 97° | 57km/h | 10426m | -10.2m/s | -53.1°C | 66.7% | 256.2hPa | 2.6V | 02:48:17 | 03:14:14 | 00:00:00 | |
| DL1XH-15 | 2026-09-02 01:06:27 | 52.77660 | 10.96006 | 96° | 58km/h | 10447m | -10.3m/s | -53.3°C | 64.3% | 255.2hPa | 2.5V | 02:47:53 | 03:14:12 | 00:00:00 | |
| DL4XJ-10 | 2026-09-02 01:06:27 | 52.77658 | 10.96030 | 97° | 60km/h | 10437m | -10.5m/s | -52.9°C | 0% | 0hPa | 2.5V | 00:00:00 | 00:00:00 | 00:00:00 | |
| DB0DAN | 2026-09-02 01:06:25 | 52.77662 | 10.95982 | 97° | 55km/h | 10457m | -10.5m/s | -53.4°C | 55.6% | 254.91hPa | 2.5V | 00:00:00 | 00:00:00 | 00:00:00 | |
| BIOWL1-15 | 2026-09-02 01:06:23 | 52.77665 | 10.95934 | 97° | 58km/h | 10479m | -10.6m/s | -53.6°C | 68% | 254hPa | 2.5V | 02:48:17 | 03:14:09 | 00:00:00 | |
| DD8BA-10 | 2026-09-02 01:06:23 | 52.77665 | 10.95934 | 98° | 58km/h | 10479m | -10.5m/s | -53.6°C | 65.1% | 254.0hPa | 2.5V | 00:00:00 | 00:00:00 | 00:00:00 | |
| DL1XH1-15 | 2026-09-02 01:06:22 | 52.77678 | 10.95789 | 98° | 60km/h | 10542m | -10.4m/s | -54.2°C | 65.8% | 251.6hPa | 2.5V | 02:48:02 | 03:14:03 | 00:00:00 | |
| AA1-15 | 2026-09-02 01:06:22 | 52.77667 | 10.95910 | 97° | 58km/h | 10489m | -10.5m/s | -53.7°C | 68.1% | 253.7hPa | 2.6V | 02:48:17 | 03:14:08 | 00:00:00 | |
| DM0DOS-11 | 2026-09-02 01:06:21 | 52.77673 | 10.95837 | 97° | 58km/h | 10521m | -10.4m/s | -54°C | 65.9% | 252.4hPa | 2.5V | 02:48:00 | 03:14:05 | 00:00:00 | |
| DF8AY | 2026-09-02 01:06:17 | 52.77677 | 10.95789 | 99° | 60km/h | 10542m | -10.4m/s | -54.2°C | 68.5% | 251.6hPa | 2.5V | 02:48:17 | 03:14:03 | 00:00:00 | |
| DO2SHX-10 | 2026-09-02 01:06:17 | 52.77677 | 10.95789 | 99° | 60km/h | 10542m | -10.3m/s | -54.2°C | 65.8% | 251.5hPa | 2.6V | 00:00:00 | 03:14:03 | 00:00:00 | |
| SMARD9-15 | 2026-09-02 01:06:16 | 52.77680 | 10.95764 | 99° | 58km/h | 10552m | -10.5m/s | -54.3°C | 56.6% | 251.1hPa | 2.6V | 00:00:00 | 00:00:00 | 00:00:00 | |
| BUE01 | 2026-09-02 01:06:15 | 52.77682 | 10.95740 | 99° | 58km/h | 10563m | -10.5m/s | -54.4°C | 56.6% | 250.7hPa | 2.6V | 00:00:00 | 00:00:00 | 00:00:00 | |
| DM0DOS-11 | 2026-09-02 01:06:14 | 52.77697 | 10.95590 | 98° | 62km/h | 10626m | -10.3m/s | -54.9°C | 65.1% | 248.3hPa | 2.6V | 02:48:10 | 03:13:55 | 00:00:00 | |
| AA1-15 | 2026-09-02 01:06:12 | 52.77690 | 10.95665 | 100° | 60km/h | 10595m | -10.5m/s | -54.7°C | 67.8% | 249.5hPa | 2.5V | 02:48:17 | 03:13:58 | 00:00:00 | |
| DL1XH1-15 | 2026-09-02 01:06:12 | 52.77702 | 10.95539 | 98° | 62km/h | 10648m | -10.4m/s | -55.1°C | 64.7% | 247.4hPa | 2.5V | 02:48:12 | 03:13:53 | 00:00:00 | |
| DB0DAN | 2026-09-02 01:06:10 | 52.77695 | 10.95615 | 99° | 58km/h | 10616m | -10.5m/s | -54.9°C | 55.9% | 248.67hPa | 2.6V | 00:00:00 | 00:00:00 | 00:00:00 | |
| DL1XH-west | 2026-09-02 01:06:07 | 52.77702 | 10.95539 | 99° | 64km/h | 10648m | -10.4m/s | -55.1°C | 67.1% | 247.4hPa | 2.5V | 02:48:17 | 03:13:53 | 00:00:00 | |
| DL1XH-15 | 2026-09-02 01:06:07 | 52.77705 | 10.95513 | 98° | 62km/h | 10658m | -10.6m/s | -55.2°C | 64.8% | 247hPa | 2.5V | 02:48:13 | 03:13:52 | 00:00:00 | |
| DF8AY | 2026-09-02 01:06:06 | 52.77705 | 10.95513 | 99° | 62km/h | 10658m | -10.6m/s | -55.2°C | 67% | 247hPa | 2.5V | 02:48:17 | 03:13:52 | 00:00:00 | |
| DO2SHX-10 | 2026-09-02 01:06:06 | 52.77707 | 10.95488 | 99° | 62km/h | 10668m | -10.4m/s | -55.3°C | 64.5% | 246.6hPa | 2.6V | 00:00:00 | 03:13:51 | 00:00:00 | |
| GOEST3-10 | 2026-09-02 01:06:05 | 52.77710 | 10.95462 | 99° | 62km/h | 10679m | -10.5m/s | -55.4°C | 64.4% | 246.2hPa | 2.6V | 02:48:00 | 00:00:00 | 00:00:00 | |
| DL1XH1-15 | 2026-09-02 01:06:03 | 52.77728 | 10.95281 | 98° | 64km/h | 10752m | -10.4m/s | -56.1°C | 62.8% | 243.4hPa | 2.6V | 02:48:22 | 03:13:43 | 00:00:00 | |
| AA1-15 | 2026-09-02 01:06:01 | 52.77720 | 10.95359 | 99° | 62km/h | 10721m | -10.7m/s | -55.8°C | 65.7% | 244.7hPa | 2.5V | 02:49:08 | 03:13:46 | 00:00:00 | |
| DL1XH-15 | 2026-09-02 01:06:01 | 52.77730 | 10.95254 | 98° | 64km/h | 10763m | -10.5m/s | -56.2°C | 62.4% | 243hPa | 2.5V | 02:48:23 | 03:13:42 | 00:00:00 | |
| DL1XH-west | 2026-09-02 01:05:57 | 52.77728 | 10.95281 | 99° | 64km/h | 10753m | -10.4m/s | -56.1°C | 64.6% | 243.4hPa | 2.6V | 02:49:08 | 03:13:43 | 00:00:00 | |
| SONDE2-11 | 2026-09-02 01:05:57 | 52.77730 | 10.95254 | 98° | 64km/h | 10763m | -10.5m/s | -56.2°C | 52.8% | 243.0hPa | 2.5V | 00:00:00 | 00:00:00 | 00:00:00 | |
| DF7ER-10 | 2026-09-02 01:05:56 | 52.77727 | 10.95281 | 100° | 64km/h | 10753m | -10.4m/s | -56.1°C | 53.3% | 243.4hPa | 2.5V | 02:49:00 | 00:00:00 | 00:00:00 | |
| DB0DAN | 2026-09-02 01:05:55 | 52.77733 | 10.95228 | 99° | 62km/h | 10774m | -10.6m/s | -56.3°C | 52.4% | 242.61hPa | 2.5V | 00:00:00 | 00:00:00 | 00:00:00 | |
| DF8AY | 2026-09-02 01:05:55 | 52.77733 | 10.95228 | 99° | 64km/h | 10774m | -10.6m/s | -56.3°C | 63.5% | 242.6hPa | 2.5V | 02:49:08 | 03:13:41 | 00:00:00 | |
| GOEST3-10 | 2026-09-02 01:05:54 | 52.77735 | 10.95201 | 99° | 66km/h | 10785m | -10.5m/s | -56.4°C | 61.3% | 242.2hPa | 2.6V | 00:00:00 | 00:00:00 | 00:00:00 | |
| DD8BA-10 | 2026-09-02 01:05:53 | 52.77738 | 10.95175 | 98° | 66km/h | 10795m | -10.6m/s | -56.5°C | 60.8% | 241.8hPa | 2.6V | 00:00:00 | 00:00:00 | 00:00:00 | |
| DL1XH1-15 | 2026-09-02 01:05:52 | 52.77750 | 10.95011 | 96° | 66km/h | 10859m | -10.8m/s | -57.1°C | 56.6% | 239.4hPa | 2.6V | 02:48:32 | 03:13:33 | 00:00:00 | |
| DL3AQ-11 | 2026-09-02 01:05:52 | 52.77742 | 10.95120 | 97° | 64km/h | 10816m | -10.7m/s | -56.7°C | 50.2% | 241.0hPa | 2.6V | 00:00:00 | 00:00:00 | 00:00:00 | |
| DL1XH-15 | 2026-09-02 01:05:51 | 52.77752 | 10.94983 | 96° | 68km/h | 10869m | -10.9m/s | -57.2°C | 55.7% | 239hPa | 2.6V | 02:48:33 | 03:13:32 | 00:00:00 | |
| AA1-15 | 2026-09-02 01:05:49 | 52.77746 | 10.95066 | 96° | 66km/h | 10837m | -10.6m/s | -56.9°C | 59.5% | 240.2hPa | 2.5V | 02:49:08 | 03:13:35 | 00:00:00 | |
| DL1XH-west | 2026-09-02 01:05:47 | 52.77749 | 10.95011 | 97° | 66km/h | 10859m | -10.8m/s | -57.1°C | 57.7% | 239.4hPa | 2.6V | 02:49:08 | 03:13:33 | 00:00:00 | |
| BIOWL1-15 | 2026-09-02 01:05:45 | 52.77757 | 10.94899 | 96° | 69km/h | 10902m | -10.8m/s | -57.4°C | 54% | 237.7hPa | 2.5V | 02:49:08 | 03:13:29 | 00:00:00 | |
| DF8AY | 2026-09-02 01:05:44 | 52.77755 | 10.94927 | 96° | 68km/h | 10891m | -10.6m/s | -57.4°C | 54.6% | 238.1hPa | 2.5V | 02:49:08 | 03:13:30 | 00:00:00 | |
| DM0DOS-11 | 2026-09-02 01:05:44 | 52.77764 | 10.94783 | 95° | 71km/h | 10945m | -10.6m/s | -57.7°C | 51.8% | 236.1hPa | 2.5V | 02:48:40 | 03:13:25 | 00:00:00 | |
| DO2SHX-10 | 2026-09-02 01:05:44 | 52.77755 | 10.94927 | 97° | 69km/h | 10891m | -10.6m/s | -57.3°C | 53.5% | 238.1hPa | 2.5V | 02:48:00 | 03:13:30 | 00:00:00 | |
| DD8BA-10 | 2026-09-02 01:05:43 | 52.77757 | 10.94899 | 96° | 71km/h | 10902m | -10.8m/s | -57.4°C | 53.1% | 237.7hPa | 2.5V | 00:00:00 | 00:00:00 | 00:00:00 | |
| DL1XH1-15 | 2026-09-02 01:05:42 | 52.77768 | 10.94724 | 95° | 71km/h | 10966m | -10.9m/s | -57.9°C | 51.3% | 235.3hPa | 2.5V | 02:48:42 | 03:13:23 | 00:00:00 | |
| DB0DAN | 2026-09-02 01:05:40 | 52.77762 | 10.94812 | 96° | 68km/h | 10934m | -10.6m/s | -57.7°C | 42.9% | 236.52hPa | 2.6V | 00:00:00 | 00:00:00 | 00:00:00 | |
| AA1-15 | 2026-09-02 01:05:39 | 52.77764 | 10.94783 | 96° | 71km/h | 10945m | -10.6m/s | -57.7°C | 52.4% | 236.1hPa | 2.5V | 02:49:08 | 03:13:25 | 00:00:00 | |
| DL1XH-west | 2026-09-02 01:05:36 | 52.77770 | 10.94694 | 96° | 73km/h | 10977m | -11m/s | -58°C | 51.4% | 234.9hPa | 2.5V | 02:49:08 | 03:13:22 | 00:00:00 | |
| DF8AY | 2026-09-02 01:05:34 | 52.77773 | 10.94632 | 96° | 75km/h | 10998m | -10.7m/s | -58.1°C | 50.6% | 234.1hPa | 2.6V | 02:49:08 | 03:13:20 | 00:00:00 | |
| BIOWL1-15 | 2026-09-02 01:05:33 | 52.77775 | 10.94601 | 96° | 75km/h | 11009m | -10.7m/s | -58.2°C | 50.3% | 233.8hPa | 2.6V | 02:49:08 | 03:13:19 | 00:00:00 | |
| DD8BA-10 | 2026-09-02 01:05:33 | 52.77775 | 10.94601 | 97° | 78km/h | 11009m | -10.7m/s | -58.1°C | 50.1% | 233.7hPa | 2.6V | 02:48:00 | 00:00:00 | 00:00:00 | |
| DL1XH1-15 | 2026-09-02 01:05:32 | 52.77789 | 10.94408 | 98° | 80km/h | 11074m | -10.8m/s | -58.6°C | 47.9% | 231.4hPa | 2.5V | 02:48:52 | 03:13:13 | 00:00:00 | |
| DO2SHX-10 | 2026-09-02 01:05:32 | 52.77777 | 10.94570 | 96° | 77km/h | 11020m | -10.7m/s | -58.2°C | 49.6% | 233.3hPa | 2.5V | 00:00:00 | 03:13:18 | 00:00:00 | |
| DL1XH-15 | 2026-09-02 01:05:31 | 52.77792 | 10.94375 | 99° | 80km/h | 11085m | -10.7m/s | -58.7°C | 47.6% | 230.9hPa | 2.5V | 02:48:53 | 03:13:12 | 00:00:00 | |
| AA1-15 | 2026-09-02 01:05:28 | 52.77786 | 10.94441 | 98° | 80km/h | 11063m | -10.6m/s | -58.5°C | 48.6% | 231.8hPa | 2.6V | 02:49:08 | 03:13:14 | 00:00:00 | |
| DL1XH-west | 2026-09-02 01:05:26 | 52.77793 | 10.94375 | 99° | 80km/h | 11085m | -10.7m/s | -58.7°C | 48% | 230.9hPa | 2.5V | 02:49:08 | 03:13:12 | 00:00:00 | |
| DB0DAN | 2026-09-02 01:05:25 | 52.77796 | 10.94341 | 99° | 78km/h | 11096m | -10.9m/s | -58.8°C | 38.5% | 230.6hPa | 2.5V | 00:00:00 | 00:00:00 | 00:00:00 | |
| DF8AY | 2026-09-02 01:05:24 | 52.77799 | 10.94307 | 100° | 82km/h | 11106m | -10.9m/s | -58.9°C | 47.4% | 230.2hPa | 2.6V | 02:49:08 | 03:13:10 | 00:00:00 | |
| BIOWL1-15 | 2026-09-02 01:05:23 | 52.77814 | 10.94169 | 101° | 86km/h | 11150m | -11.1m/s | -59.1°C | 45.8% | 228.6hPa | 2.5V | 02:49:08 | 03:13:06 | 00:00:00 | |
| DL1XH1-15 | 2026-09-02 01:05:22 | 52.77826 | 10.94064 | 99° | 84km/h | 11183m | -11m/s | -59.3°C | 45.5% | 227.3hPa | 2.6V | 02:49:02 | 03:13:03 | 00:00:00 | |
| DL1XH-15 | 2026-09-02 01:05:21 | 52.77829 | 10.94030 | 99° | 84km/h | 11194m | -11.2m/s | -59.3°C | 45.1% | 227hPa | 2.5V | 02:49:03 | 03:13:02 | 00:00:00 | |
| AA1-15 | 2026-09-02 01:05:18 | 52.77822 | 10.94099 | 100° | 84km/h | 11172m | -11m/s | -59.2°C | 45.2% | 227.8hPa | 2.6V | 02:49:08 | 03:13:04 | 00:00:00 | |
| DF8AY | 2026-09-02 01:05:18 | 52.77840 | 10.93929 | 100° | 80km/h | 11228m | -10.8m/s | -59.4°C | 44% | 225.7hPa | 2.6V | 02:49:08 | 03:12:59 | 00:00:00 | |
| DL1XH-west | 2026-09-02 01:05:15 | 52.77833 | 10.93996 | 100° | 82km/h | 11205m | -11.2m/s | -59.3°C | 44.3% | 226.6hPa | 2.5V | 02:49:08 | 03:13:01 | 00:00:00 | |
| DM0DOS-11 | 2026-09-02 01:05:14 | 52.77853 | 10.93799 | 98° | 77km/h | 11272m | -11.1m/s | -59.4°C | 43.5% | 224.2hPa | 2.5V | 02:49:10 | 03:12:55 | 00:00:00 | |
| DO2SHX-10 | 2026-09-02 01:05:14 | 52.77836 | 10.93962 | 101° | 80km/h | 11217m | -11.2m/s | -59.3°C | 44.4% | 226.1hPa | 2.6V | 00:00:00 | 03:13:00 | 00:00:00 | |
| DD8BA-10 | 2026-09-02 01:05:13 | 52.77840 | 10.93929 | 100° | 77km/h | 11228m | -10.8m/s | -59.4°C | 44.5% | 225.7hPa | 2.6V | 00:00:00 | 00:00:00 | 00:00:00 | |
| DL1XH1-15 | 2026-09-02 01:05:12 | 52.77859 | 10.93738 | 98° | 75km/h | 11293m | -10.9m/s | -59.5°C | 43.3% | 223.3hPa | 2.6V | 02:49:12 | 03:12:53 | 00:00:00 | |
| GOEST3-10 | 2026-09-02 01:05:12 | 52.77843 | 10.93896 | 100° | 78km/h | 11238m | -10.9m/s | -59.5°C | 44.7% | 225.4hPa | 2.5V | 00:00:00 | 00:00:00 | 00:00:00 | |
| DB0DAN | 2026-09-02 01:05:10 | 52.77850 | 10.93831 | 99° | 75km/h | 11260m | -11m/s | -59.5°C | 35.8% | 224.56hPa | 2.5V | 00:00:00 | 00:00:00 | 00:00:00 | |
| AA1-15 | 2026-09-02 01:05:07 | 52.77859 | 10.93738 | 98° | 75km/h | 11293m | -10.9m/s | -59.5°C | 43% | 223.3hPa | 2.6V | 02:49:59 | 03:12:53 | 00:00:00 | |
| DL1XH-west | 2026-09-02 01:05:05 | 52.77864 | 10.93677 | 98° | 71km/h | 11316m | -10.9m/s | -59.6°C | 42.4% | 222.6hPa | 2.5V | 02:49:59 | 03:12:51 | 00:00:00 | |
| DF8AY | 2026-09-02 01:05:03 | 52.77869 | 10.93619 | 97° | 69km/h | 11338m | -11.4m/s | -59.7°C | 41.8% | 221.8hPa | 2.5V | 02:49:59 | 03:12:49 | 00:00:00 | |
| DD8BA-10 | 2026-09-02 01:05:03 | 52.77869 | 10.93619 | 97° | 64km/h | 11338m | -11.3m/s | -59.7°C | 42.2% | 221.8hPa | 2.5V | 02:49:00 | 00:00:00 | 00:00:00 | |
| DL1XH1-15 | 2026-09-02 01:05:02 | 52.77880 | 10.93456 | 95° | 60km/h | 11404m | -11m/s | -60.1°C | 41.5% | 219.5hPa | 2.5V | 02:49:22 | 03:12:43 | 00:00:00 | |
| AA1-15 | 2026-09-02 01:04:57 | 52.77881 | 10.93456 | 96° | 60km/h | 11404m | -11m/s | -60.2°C | 39.4% | 219.5hPa | 2.5V | 02:49:59 | 03:12:43 | 00:00:00 | |
| BIOWL9-15 | 2026-09-02 01:04:57 | 52.77882 | 10.93430 | 95° | 58km/h | 11415m | -11.0m/s | -60.2°C | 32.4% | 219.0hPa | 2.6V | 00:00:00 | 00:00:00 | 00:00:00 | |
| HTAHTA | 2026-09-02 01:04:56 | 52.77882 | 10.93430 | 95° | 58km/h | 11415m | -11.0m/s | -60.2°C | 32.4% | 219.0hPa | 2.6V | 00:00:00 | 00:00:00 | 00:00:00 | |
| DB0DAN | 2026-09-02 01:04:55 | 52.77884 | 10.93406 | 95° | 57km/h | 11426m | -10.8m/s | -60.3°C | 32.4% | 218.68hPa | 2.6V | 00:00:00 | 00:00:00 | 00:00:00 | |
| BIOWL1-15 | 2026-09-02 01:04:55 | 52.77888 | 10.93289 | 92° | 55km/h | 11482m | -11.3m/s | -60.7°C | 35.4% | 216.8hPa | 2.6V | 02:49:59 | 03:12:36 | 00:00:00 | |
| DL1XH-west | 2026-09-02 01:04:54 | 52.77885 | 10.93382 | 94° | 58km/h | 11437m | -11.2m/s | -60.4°C | 37.7% | 218.3hPa | 2.5V | 02:49:59 | 03:12:40 | 00:00:00 | |
| DF8AY | 2026-09-02 01:04:52 | 52.77887 | 10.93335 | 94° | 55km/h | 11459m | -11.4m/s | -60.5°C | 36.6% | 217.6hPa | 2.5V | 02:49:59 | 03:12:38 | 00:00:00 | |
| DL1XH1-15 | 2026-09-02 01:04:52 | 52.77889 | 10.93219 | 89° | 58km/h | 11514m | -11.1m/s | -60.9°C | 39.7% | 215.6hPa | 2.5V | 02:49:32 | 03:12:33 | 00:00:00 | |
| DL2RXE-15 | 2026-09-02 01:04:51 | 52.77887 | 10.93334 | 95° | 55km/h | 11459m | -11.4m/s | -60.5°C | 32.1% | 217.6hPa | 2.5V | 00:00:00 | 00:00:00 | 00:00:00 | |
| DL1XH-15 | 2026-09-02 01:04:50 | 52.77888 | 10.93194 | 89° | 58km/h | 11526m | -11.2m/s | -61°C | 39.2% | 215.2hPa | 2.5V | 02:49:33 | 03:12:32 | 00:00:00 | |
| AA1-15 | 2026-09-02 01:04:47 | 52.77889 | 10.93219 | 90° | 58km/h | 11514m | -11.1m/s | -60.9°C | 33.5% | 215.6hPa | 2.5V | 02:49:59 | 03:12:33 | 00:00:00 | |
| EDDB2-12 | 2026-09-02 01:04:45 | 52.77888 | 10.93169 | 88° | 60km/h | 11537m | -11.1m/s | -61.0°C | 29.6% | 214.9hPa | 2.6V | 00:00:00 | 00:00:00 | 00:00:00 | |
| DM0DOS-11 | 2026-09-02 01:04:44 | 52.77886 | 10.93013 | 88° | 62km/h | 11603m | -11.1m/s | -61.1°C | 31.7% | 212.6hPa | 2.6V | 02:49:40 | 03:12:25 | 00:00:00 | |
| DL1XH-west | 2026-09-02 01:04:43 | 52.77888 | 10.93118 | 89° | 62km/h | 11559m | -11.2m/s | -61.1°C | 30% | 214.1hPa | 2.5V | 02:49:59 | 03:12:29 | 00:00:00 | |
| BIOWL1-15 | 2026-09-02 01:04:43 | 52.77887 | 10.93039 | 88° | 64km/h | 11592m | -11.1m/s | -61.2°C | 26.8% | 212.9hPa | 2.6V | 02:49:59 | 03:12:26 | 00:00:00 | |
| DF8AY | 2026-09-02 01:04:42 | 52.77887 | 10.93092 | 89° | 62km/h | 11570m | -11m/s | -61.2°C | 28.9% | 213.7hPa | 2.5V | 02:49:59 | 03:12:28 | 00:00:00 | |
| GOEST3-10 | 2026-09-02 01:04:42 | 52.77887 | 10.93092 | 89° | 62km/h | 11570m | -10.9m/s | -61.1°C | 35.2% | 213.6hPa | 2.6V | 00:00:00 | 00:00:00 | 00:00:00 | |
| DF7ER-10 | 2026-09-02 01:04:41 | 52.77887 | 10.93092 | 90° | 62km/h | 11570m | -11.0m/s | -61.2°C | 26.8% | 213.7hPa | 2.6V | 02:49:00 | 00:00:00 | 00:00:00 | |
| DB0DAN | 2026-09-02 01:04:40 | 52.77887 | 10.93039 | 88° | 60km/h | 11592m | -11.1m/s | -61.2°C | 24.8% | 212.95hPa | 2.6V | 00:00:00 | 00:00:00 | 00:00:00 | |
| DL1XH-15 | 2026-09-02 01:04:40 | 52.77885 | 10.92934 | 88° | 64km/h | 11637m | -11.5m/s | -60.7°C | 27.2% | 211.4hPa | 2.5V | 02:49:43 | 03:12:22 | 00:00:00 | |
| AA1-15 | 2026-09-02 01:04:36 | 52.77885 | 10.92934 | 89° | 64km/h | 11637m | -11.5m/s | -60.7°C | 21.8% | 211.4hPa | 2.5V | 02:49:59 | 03:12:22 | 00:00:00 | |
| EDDB2-11 | 2026-09-02 01:04:36 | 52.77885 | 10.92934 | 88° | 62km/h | 11637m | -11.5m/s | -60.7°C | 19.8% | 211.4hPa | 2.6V | 00:00:00 | 00:00:00 | 00:00:00 | |
| DO2SHX-10 | 2026-09-02 01:04:35 | 52.77884 | 10.92908 | 89° | 64km/h | 11648m | -11.2m/s | -60.5°C | 26.0% | 210.9hPa | 2.6V | 00:00:00 | 03:12:21 | 00:00:00 | |
| DM0DOS-11 | 2026-09-02 01:04:34 | 52.77884 | 10.92747 | 89° | 64km/h | 11715m | -11.5m/s | -57.5°C | 16.9% | 208.7hPa | 2.6V | 02:49:50 | 03:12:15 | 00:00:00 | |
| DL1XH-west | 2026-09-02 01:04:34 | 52.77884 | 10.92854 | 90° | 64km/h | 11670m | -11.1m/s | -59.5°C | 17.6% | 210.3hPa | 2.6V | 02:49:59 | 03:12:19 | 00:00:00 | |
| DF8AY | 2026-09-02 01:04:32 | 52.77884 | 10.92827 | 90° | 64km/h | 11681m | -11.3m/s | -58.7°C | 16.3% | 209.9hPa | 2.5V | 02:49:59 | 03:12:18 | 00:00:00 | |
| GOEST3-10 | 2026-09-02 01:04:32 | 52.77884 | 10.92827 | 90° | 64km/h | 11682m | -11.3m/s | -58.7°C | 19.5% | 209.8hPa | 2.5V | 02:49:00 | 00:00:00 | 00:00:00 | |
| DF7ER-10 | 2026-09-02 01:04:31 | 52.77884 | 10.92827 | 91° | 64km/h | 11682m | -11.3m/s | -58.7°C | 13.8% | 209.9hPa | 2.5V | 02:49:00 | 00:00:00 | 00:00:00 | |
| DL1XH-15 | 2026-09-02 01:04:30 | 52.77883 | 10.92663 | 88° | 69km/h | 11750m | -11.5m/s | -56.6°C | 15% | 207.7hPa | 2.5V | 02:49:53 | 03:12:12 | 00:00:00 | |
| BIOWL1-15 | 2026-09-02 01:04:30 | 52.77884 | 10.92747 | 89° | 64km/h | 11715m | -11.5m/s | -57.5°C | 14.6% | 208.7hPa | 2.6V | 02:49:59 | 03:12:15 | 00:00:00 | |
| DF8AY-15 | 2026-09-02 01:04:29 | 52.77884 | 10.92747 | 90° | 75km/h | 11716m | -11.5m/s | -57.5°C | 16.9% | 208.7hPa | 2.6V | 02:49:00 | 03:12:15 | 00:00:00 | |
| TFSTFS | 2026-09-02 01:04:28 | 52.77884 | 10.92747 | 90° | 64km/h | 11716m | -11.5m/s | -57.5°C | 11.8% | 208.7hPa | 2.5V | 02:49:00 | 00:00:00 | 00:00:00 | |
| GOEST3-10 | 2026-09-02 01:04:27 | 52.77884 | 10.92691 | 90° | 71km/h | 11738m | -11.7m/s | -56.6°C | 15.1% | 207.9hPa | 2.5V | 00:00:00 | 03:12:13 | 00:00:00 | |
| BIOWL7-15 | 2026-09-02 01:04:26 | 52.77884 | 10.92691 | 90° | 68km/h | 11738m | -11.7m/s | -56.6°C | 10.5% | 208.0hPa | 2.5V | 00:00:00 | 00:00:00 | 00:00:00 | |
| DB0DAN | 2026-09-02 01:04:25 | 52.77883 | 10.92634 | 89° | 68km/h | 11761m | -11.6m/s | -56.7°C | 10.3% | 207.28hPa | 2.5V | 00:00:00 | 00:00:00 | 00:00:00 | |
| AA1-15 | 2026-09-02 01:04:25 | 52.77883 | 10.92634 | 89° | 71km/h | 11761m | -11.6m/s | -56.7°C | 13.3% | 207.3hPa | 2.5V | 02:49:59 | 03:12:11 | 00:00:00 | |
| DL1XH-west | 2026-09-02 01:04:22 | 52.77882 | 10.92542 | 89° | 75km/h | 11795m | -11.3m/s | -56.8°C | 12.6% | 206.2hPa | 2.6V | 02:49:59 | 03:12:08 | 00:00:00 | |
| DF8AY | 2026-09-02 01:04:21 | 52.77882 | 10.92511 | 90° | 75km/h | 11806m | -11.5m/s | -56.8°C | 12.4% | 205.8hPa | 2.5V | 02:49:59 | 03:12:07 | 00:00:00 | |
| BIOWL1-15 | 2026-09-02 01:04:18 | 52.77882 | 10.92414 | 90° | 78km/h | 11841m | -11.3m/s | -56.8°C | 11.5% | 204.8hPa | 2.6V | 02:50:50 | 03:12:04 | 00:00:00 | |
| DO2SHX-10 | 2026-09-02 01:04:17 | 52.77882 | 10.92381 | 91° | 80km/h | 11852m | -11.4m/s | -56.8°C | 13.7% | 204.3hPa | 2.5V | 00:00:00 | 03:12:03 | 00:00:00 | |
| DM0DOS-11 | 2026-09-02 01:04:14 | 52.77893 | 10.92117 | 97° | 77km/h | 11943m | -11.6m/s | -56.3°C | 10.7% | 201.4hPa | 2.5V | 02:50:10 | 03:11:55 | 00:00:00 | |
| AA1-15 | 2026-09-02 01:04:14 | 52.77883 | 10.92281 | 93° | 80km/h | 11886m | -11.6m/s | -56.8°C | 10.1% | 203.2hPa | 2.6V | 02:50:50 | 03:12:00 | 00:00:00 | |
| DO2SHX-10 | 2026-09-02 01:04:14 | 52.77883 | 10.92281 | 93° | 80km/h | 11886m | -11.6m/s | -56.8°C | 12.8% | 203.2hPa | 2.6V | 02:50:00 | 03:12:00 | 00:00:00 | |
| DD8BA-10 | 2026-09-02 01:04:13 | 52.77884 | 10.92247 | 95° | 77km/h | 11898m | -11.3m/s | -56.7°C | 12.4% | 202.9hPa | 2.6V | 00:00:00 | 00:00:00 | 00:00:00 | |
| DL1XH1-15 | 2026-09-02 01:04:12 | 52.77899 | 10.92054 | 98° | 75km/h | 11966m | -11.4m/s | -56.1°C | 10.1% | 200.7hPa | 2.6V | 02:50:12 | 03:11:53 | 00:00:00 | |
| DL1XH-west | 2026-09-02 01:04:12 | 52.77886 | 10.92214 | 95° | 80km/h | 11909m | -11.3m/s | -56.6°C | 9.2% | 202.4hPa | 2.6V | 02:50:50 | 03:11:58 | 00:00:00 | |
| DF8AY | 2026-09-02 01:04:11 | 52.77888 | 10.92181 | 96° | 78km/h | 11920m | -11.5m/s | -56.5°C | 8.8% | 202.2hPa | 2.5V | 02:50:50 | 03:11:57 | 00:00:00 | |
| DB0DAN | 2026-09-02 01:04:10 | 52.77891 | 10.92148 | 97° | 73km/h | 11932m | -11.7m/s | -56.4°C | 6.9% | 201.79hPa | 2.5V | 00:00:00 | 00:00:00 | 00:00:00 | |
| BIOWL1-15 | 2026-09-02 01:04:08 | 52.77899 | 10.92054 | 99° | 75km/h | 11966m | -11.4m/s | -56.1°C | 7.4% | 200.7hPa | 2.6V | 02:50:50 | 03:11:53 | 00:00:00 | |
| DL4XJ-10 | 2026-09-02 01:04:07 | 52.77899 | 10.92054 | 99° | 66km/h | 11966m | -11.4m/s | -55.8°C | 0% | 0hPa | 2.5V | 00:00:00 | 00:00:00 | 00:00:00 | |
| DO2SHX-10 | 2026-09-02 01:04:05 | 52.77904 | 10.91993 | 99° | 71km/h | 11989m | -11.4m/s | -55.9°C | 9.6% | 199.9hPa | 2.5V | 02:50:00 | 03:11:51 | 00:00:00 | |
| DM0DOS-11 | 2026-09-02 01:04:04 | 52.77918 | 10.91822 | 94° | 64km/h | 12059m | -12m/s | -54.5°C | 8.4% | 197.8hPa | 2.5V | 02:50:20 | 03:11:45 | 00:00:00 | |
| AA1-15 | 2026-09-02 01:04:03 | 52.77910 | 10.91934 | 99° | 71km/h | 12012m | -11.6m/s | -55.8°C | 6.5% | 199.3hPa | 2.6V | 02:50:50 | 03:11:49 | 00:00:00 | |
| DL1XH-west | 2026-09-02 01:04:01 | 52.77914 | 10.91877 | 97° | 68km/h | 12035m | -11.8m/s | -55.3°C | 6.3% | 198.5hPa | 2.6V | 02:50:50 | 03:11:47 | 00:00:00 | |
| DF8AY | 2026-09-02 01:04:00 | 52.77917 | 10.91849 | 97° | 66km/h | 12047m | -11.4m/s | -54.9°C | 6.1% | 198.1hPa | 2.5V | 02:50:50 | 03:11:46 | 00:00:00 | |
| BIOWL1-15 | 2026-09-02 01:03:56 | 52.77921 | 10.91741 | 93° | 64km/h | 12094m | -11.7m/s | -54.7°C | 5.4% | 196.7hPa | 2.6V | 02:50:50 | 03:11:42 | 00:00:00 | |
| SONCRA | 2026-09-02 01:03:56 | 52.77922 | 10.91715 | 92° | 62km/h | 12105m | -11.7m/s | -54.7°C | 4.7% | 196.4hPa | 2.5V | 00:00:00 | 00:00:00 | 00:00:00 | |
| DB0DAN | 2026-09-02 01:03:55 | 52.77922 | 10.91715 | 92° | 60km/h | 12105m | -11.7m/s | -54.7°C | 4.7% | 196.38hPa | 2.5V | 00:00:00 | 00:00:00 | 00:00:00 | |
| SMARD9-10 | 2026-09-02 01:03:55 | 52.77922 | 10.91715 | 93° | 64km/h | 12105m | -11.7m/s | -54.7°C | 4.7% | 196.4hPa | 2.5V | 02:50:00 | 00:00:00 | 00:00:00 | |
| AP2371 | 2026-09-02 01:03:54 | 52.77922 | 10.91688 | 93° | 64km/h | 12117m | -11.8m/s | -54.8°C | 4.6% | 196.0hPa | 2.5V | 00:00:00 | 00:00:00 | 00:00:00 | |
| DM0DOS-11 | 2026-09-02 01:03:53 | 52.77925 | 10.91559 | 90° | 60km/h | 12176m | -11.6m/s | -54.9°C | 7.2% | 194.2hPa | 2.5V | 02:50:30 | 03:11:35 | 00:00:00 | |
| AA1-15 | 2026-09-02 01:03:52 | 52.77924 | 10.91635 | 92° | 62km/h | 12140m | -11.8m/s | -54.9°C | 4.7% | 195.3hPa | 2.6V | 02:50:50 | 03:11:38 | 00:00:00 | |
| DL1XH1-15 | 2026-09-02 01:03:52 | 52.77925 | 10.91510 | 88° | 58km/h | 12199m | -11.7m/s | -54.1°C | 6.5% | 193.5hPa | 2.5V | 02:50:32 | 03:11:33 | 00:00:00 | |
| DL1XH-west | 2026-09-02 01:03:50 | 52.77925 | 10.91584 | 91° | 60km/h | 12164m | -11.8m/s | -55°C | 4.3% | 194.6hPa | 2.6V | 02:50:50 | 03:11:36 | 00:00:00 | |
| DF8AY | 2026-09-02 01:03:49 | 52.77925 | 10.91559 | 91° | 60km/h | 12176m | -11.6m/s | -54.9°C | 4% | 194.3hPa | 2.5V | 02:50:50 | 03:11:35 | 00:00:00 | |
| BIOWL1-15 | 2026-09-02 01:03:46 | 52.77925 | 10.91486 | 88° | 58km/h | 12210m | -11.8m/s | -53.7°C | 3.2% | 193.2hPa | 2.6V | 02:50:50 | 03:11:32 | 00:00:00 | |
| DO2SHX-10 | 2026-09-02 01:03:44 | 52.77924 | 10.91438 | 89° | 57km/h | 12234m | -11.9m/s | -52.9°C | 5.6% | 192.4hPa | 2.5V | 00:00:00 | 03:11:30 | 00:00:00 | |
| DM0DOS-11 | 2026-09-02 01:03:43 | 52.77922 | 10.91321 | 87° | 57km/h | 12293m | -12.2m/s | -52°C | 4.8% | 190.7hPa | 2.5V | 02:50:40 | 03:11:25 | 00:00:00 | |
| DL1XH1-15 | 2026-09-02 01:03:42 | 52.77921 | 10.91274 | 87° | 57km/h | 12316m | -12.2m/s | -52.1°C | 4.7% | 190hPa | 2.6V | 02:50:42 | 03:11:23 | 00:00:00 | |
| AA1-15 | 2026-09-02 01:03:41 | 52.77923 | 10.91368 | 88° | 57km/h | 12269m | -11.9m/s | -52.4°C | 2.3% | 191.4hPa | 2.6V | 02:50:50 | 03:11:27 | 00:00:00 | |
| DL1XH-west | 2026-09-02 01:03:40 | 52.77923 | 10.91345 | 88° | 57km/h | 12281m | -12m/s | -52.1°C | 2.2% | 191.1hPa | 2.5V | 02:50:50 | 03:11:26 | 00:00:00 | |
| DF8AY | 2026-09-02 01:03:39 | 52.77922 | 10.91321 | 88° | 57km/h | 12293m | -12.2m/s | -52°C | 2% | 190.7hPa | 2.5V | 02:50:50 | 03:11:25 | 00:00:00 | |
| BIOWL1-15 | 2026-09-02 01:03:37 | 52.77919 | 10.91227 | 86° | 58km/h | 12340m | -12.1m/s | -52.3°C | 1.8% | 189.3hPa | 2.6V | 02:50:50 | 03:11:21 | 00:00:00 | |
| DO2SHX-10 | 2026-09-02 01:03:35 | 52.77919 | 10.91227 | 87° | 58km/h | 12340m | -12.0m/s | -52.2°C | 4.7% | 189.3hPa | 2.5V | 00:00:00 | 03:11:21 | 00:00:00 | |
| EDDB2-11 | 2026-09-02 01:03:34 | 52.77918 | 10.91178 | 85° | 57km/h | 12364m | -11.9m/s | -52.5°C | 2.3% | 188.6hPa | 2.5V | 00:00:00 | 00:00:00 | 00:00:00 | |
| DD8BA-10 | 2026-09-02 01:03:33 | 52.77918 | 10.91178 | 86° | 62km/h | 12364m | -11.9m/s | -52.4°C | 4.8% | 188.6hPa | 2.5V | 02:50:00 | 00:00:00 | 00:00:00 | |
| DL1XH1-15 | 2026-09-02 01:03:32 | 52.77909 | 10.91025 | 84° | 64km/h | 12436m | -12.1m/s | -52.9°C | 4.8% | 186.5hPa | 2.5V | 02:50:52 | 03:11:13 | 00:00:00 | |
| AA1-15 | 2026-09-02 01:03:31 | 52.77914 | 10.91103 | 85° | 62km/h | 12399m | -12.1m/s | -52.5°C | 1.7% | 187.6hPa | 2.6V | 02:50:50 | 03:11:16 | 00:00:00 | |
| DM0DOS-11 | 2026-09-02 01:03:30 | 52.77913 | 10.91078 | 84° | 62km/h | 12411m | -12.1m/s | -52.6°C | 4.8% | 187.2hPa | 2.5V | 02:50:50 | 03:11:15 | 00:00:00 | |
| DL1XH-west | 2026-09-02 01:03:29 | 52.77913 | 10.91078 | 85° | 62km/h | 12411m | -12.1m/s | -52.6°C | 1.8% | 187.2hPa | 2.5V | 02:50:50 | 03:11:15 | 00:00:00 | |
| DF8AY | 2026-09-02 01:03:28 | 52.77911 | 10.91052 | 84° | 64km/h | 12424m | -12.2m/s | -52.7°C | 1.7% | 186.9hPa | 2.5V | 02:51:41 | 03:11:14 | 00:00:00 | |
| DL3AQ-11 | 2026-09-02 01:03:28 | 52.77909 | 10.91025 | 84° | 62km/h | 12436m | -12.1m/s | -52.9°C | 2.2% | 186.5hPa | 2.6V | 00:00:00 | 00:00:00 | 00:00:00 | |
| DL4XJ-10 | 2026-09-02 01:03:27 | 52.77909 | 10.91025 | 85° | 68km/h | 12436m | -12.1m/s | -52.6°C | 0% | 0hPa | 2.6V | 00:00:00 | 00:00:00 | 00:00:00 | |
| TFSTFS | 2026-09-02 01:03:26 | 52.77909 | 10.91025 | 85° | 64km/h | 12436m | -12.1m/s | -52.9°C | 2.2% | 186.5hPa | 2.6V | 00:00:00 | 00:00:00 | 00:00:00 | |
| DB0DAN | 2026-09-02 01:03:25 | 52.77906 | 10.90972 | 85° | 60km/h | 12459m | -12m/s | -53.1°C | 2.2% | 185.84hPa | 2.6V | 00:00:00 | 00:00:00 | 00:00:00 | |
| BIOWL1-15 | 2026-09-02 01:03:24 | 52.77901 | 10.90836 | 88° | 68km/h | 12519m | -12.3m/s | -53.4°C | 1.5% | 184.1hPa | 2.6V | 02:51:41 | 03:11:06 | 00:00:00 | |
| HTAHTA | 2026-09-02 01:03:24 | 52.77903 | 10.90919 | 86° | 64km/h | 12483m | -12.1m/s | -53.3°C | 2.3% | 185.2hPa | 2.6V | 00:00:00 | 00:00:00 | 00:00:00 | |
| DM0DOS-11 | 2026-09-02 01:03:23 | 52.77900 | 10.90808 | 88° | 69km/h | 12531m | -12.2m/s | -53.4°C | 5% | 183.8hPa | 2.6V | 02:51:00 | 03:11:05 | 00:00:00 | |
| DO2SHX-10 | 2026-09-02 01:03:23 | 52.77903 | 10.90919 | 87° | 66km/h | 12483m | -12.1m/s | -53.3°C | 5.1% | 185.1hPa | 2.5V | 00:00:00 | 03:11:09 | 00:00:00 | |
| DL1XH1-15 | 2026-09-02 01:03:22 | 52.77900 | 10.90749 | 89° | 71km/h | 12555m | -12.2m/s | -53.4°C | 5% | 183.1hPa | 2.5V | 02:51:02 | 03:11:03 | 00:00:00 | |
| GOEST3-10 | 2026-09-02 01:03:22 | 52.77903 | 10.90892 | 87° | 68km/h | 12495m | -12.2m/s | -53.4°C | 5.1% | 184.8hPa | 2.6V | 00:00:00 | 00:00:00 | 00:00:00 | |
| SONDE2-11 | 2026-09-02 01:03:21 | 52.77902 | 10.90865 | 87° | 66km/h | 12507m | -12.2m/s | -53.5°C | 2.2% | 184.5hPa | 2.6V | 00:00:00 | 00:00:00 | 00:00:00 | |
| DL1XH-15 | 2026-09-02 01:03:20 | 52.77900 | 10.90719 | 90° | 71km/h | 12567m | -12.1m/s | -53.2°C | 5% | 182.7hPa | 2.6V | 02:51:03 | 03:11:02 | 00:00:00 | |
| DL1XH-west | 2026-09-02 01:03:19 | 52.77900 | 10.90808 | 88° | 69km/h | 12531m | -12.3m/s | -53.4°C | 1.5% | 183.8hPa | 2.6V | 02:51:41 | 03:11:05 | 00:00:00 | |
| DF8AY | 2026-09-02 01:03:18 | 52.77900 | 10.90749 | 90° | 71km/h | 12555m | -12.2m/s | -53.4°C | 1.5% | 183.1hPa | 2.5V | 02:51:41 | 03:11:03 | 00:00:00 | |
| DO2SHX-10 | 2026-09-02 01:03:17 | 52.77899 | 10.90749 | 90° | 71km/h | 12556m | -12.1m/s | -53.3°C | 5.0% | 183.1hPa | 2.6V | 00:00:00 | 03:11:03 | 00:00:00 | |
| DO2SHX-10 | 2026-09-02 01:03:14 | 52.77901 | 10.90660 | 92° | 69km/h | 12592m | -12.2m/s | -52.7°C | 4.7% | 182.0hPa | 2.6V | 00:00:00 | 03:11:00 | 00:00:00 | |
| DD8BA-10 | 2026-09-02 01:03:13 | 52.77901 | 10.90630 | 93° | 66km/h | 12604m | -12.4m/s | -52.7°C | 4.8% | 181.7hPa | 2.6V | 00:00:00 | 00:00:00 | 00:00:00 | |
| DM0DOS-11 | 2026-09-02 01:03:12 | 52.77904 | 10.90517 | 92° | 66km/h | 12653m | -12.2m/s | -52.5°C | 4.6% | 180.4hPa | 2.6V | 02:51:10 | 03:10:55 | 00:00:00 | |
| DL1XH1-15 | 2026-09-02 01:03:12 | 52.77906 | 10.90463 | 93° | 66km/h | 12677m | -12.1m/s | -52.1°C | 4.4% | 179.7hPa | 2.5V | 02:51:12 | 03:10:53 | 00:00:00 | |
| BIOWL1-15 | 2026-09-02 01:03:10 | 52.77903 | 10.90545 | 92° | 66km/h | 12640m | -12.3m/s | -52.7°C | 1.2% | 180.7hPa | 2.6V | 02:51:41 | 03:10:56 | 00:00:00 | |
| DL1XH-15 | 2026-09-02 01:03:10 | 52.77906 | 10.90436 | 93° | 64km/h | 12689m | -12.2m/s | -51.8°C | 4.3% | 179.5hPa | 2.5V | 02:51:13 | 03:10:52 | 00:00:00 | |
| DL1XH-west | 2026-09-02 01:03:08 | 52.77905 | 10.90490 | 93° | 66km/h | 12665m | -12.1m/s | -52.3°C | 1.1% | 180.1hPa | 2.5V | 02:51:41 | 03:10:54 | 00:00:00 | |
| DF8AY | 2026-09-02 01:03:06 | 52.77906 | 10.90436 | 93° | 64km/h | 12689m | -12.2m/s | -51.8°C | 0.9% | 179.5hPa | 2.5V | 02:51:41 | 03:10:52 | 00:00:00 | |
| DL4XJ-10 | 2026-09-02 01:03:06 | 52.77906 | 10.90436 | 94° | 66km/h | 12690m | -12.2m/s | -51.5°C | 0% | 0hPa | 2.6V | 00:00:00 | 00:00:00 | 00:00:00 | |
| DO2SHX-10 | 2026-09-02 01:03:05 | 52.77907 | 10.90410 | 94° | 62km/h | 12701m | -12.2m/s | -51.4°C | 4.1% | 179.0hPa | 2.6V | 00:00:00 | 03:10:51 | 00:00:00 | |
| DM0DOS-11 | 2026-09-02 01:03:04 | 52.77909 | 10.90256 | 88° | 62km/h | 12774m | -12.3m/s | -50.7°C | 3.7% | 177hPa | 2.6V | 02:51:20 | 03:10:45 | 00:00:00 | |
| EDDB2-11 | 2026-09-02 01:03:03 | 52.77909 | 10.90333 | 90° | 60km/h | 12737m | -12.5m/s | -50.9°C | 1.4% | 178.0hPa | 2.5V | 00:00:00 | 00:00:00 | 00:00:00 | |
| DL1XH1-15 | 2026-09-02 01:03:02 | 52.77908 | 10.90203 | 87° | 64km/h | 12799m | -12.5m/s | -50.6°C | 3.7% | 176.4hPa | 2.5V | 02:51:22 | 03:10:43 | 00:00:00 | |
| DO2SHX-10 | 2026-09-02 01:03:02 | 52.77909 | 10.90332 | 91° | 62km/h | 12738m | -12.5m/s | -50.8°C | 3.8% | 178.0hPa | 2.5V | 02:51:00 | 03:10:48 | 00:00:00 | |
| DL1XH-15 | 2026-09-02 01:03:01 | 52.77907 | 10.90176 | 87° | 66km/h | 12811m | -12.7m/s | -50.6°C | 3.6% | 176.1hPa | 2.5V | 02:51:23 | 03:10:42 | 00:00:00 | |
| BIOWL1-15 | 2026-09-02 01:03:00 | 52.77909 | 10.90256 | 89° | 62km/h | 12774m | -12.3m/s | -50.7°C | 0.3% | 177hPa | 2.6V | 02:51:41 | 03:10:45 | 00:00:00 | |
| AA1-15 | 2026-09-02 01:02:58 | 52.77908 | 10.90203 | 88° | 64km/h | 12799m | -12.5m/s | -50.6°C | 0.4% | 176.4hPa | 2.5V | 02:51:41 | 03:10:43 | 00:00:00 | |
| DF8AY | 2026-09-02 01:02:55 | 52.77906 | 10.90149 | 87° | 68km/h | 12824m | -12.4m/s | -50.6°C | 0.3% | 175.8hPa | 2.5V | 02:51:41 | 03:10:41 | 00:00:00 | |
| DB0DAN | 2026-09-02 01:02:55 | 52.77906 | 10.90149 | 87° | 64km/h | 12824m | -12.4m/s | -50.6°C | 1.4% | 175.76hPa | 2.5V | 00:00:00 | 00:00:00 | 00:00:00 | |
| SONCRA | 2026-09-02 01:02:54 | 52.77904 | 10.90092 | 86° | 68km/h | 12848m | -12.5m/s | -50.6°C | 1.3% | 175.1hPa | 2.6V | 00:00:00 | 00:00:00 | 00:00:00 | |
| BIOWL9-15 | 2026-09-02 01:02:53 | 52.77903 | 10.90063 | 86° | 69km/h | 12861m | -12.7m/s | -50.5°C | 1.3% | 174.7hPa | 2.6V | 00:00:00 | 00:00:00 | 00:00:00 | |
| DM0DOS-11 | 2026-09-02 01:02:52 | 52.77900 | 10.89977 | 86° | 68km/h | 12897m | -12.2m/s | -50.3°C | 3.5% | 173.7hPa | 2.6V | 02:51:30 | 03:10:35 | 00:00:00 | |
| DL1XH1-15 | 2026-09-02 01:02:52 | 52.77898 | 10.89920 | 87° | 68km/h | 12922m | -12.6m/s | -50.4°C | 3.5% | 173.1hPa | 2.5V | 02:51:32 | 03:10:33 | 00:00:00 | |
| GOEST3-10 | 2026-09-02 01:02:52 | 52.77903 | 10.90063 | 87° | 69km/h | 12861m | -12.7m/s | -50.4°C | 3.6% | 174.7hPa | 2.5V | 00:00:00 | 00:00:00 | 00:00:00 | |
| DL1XH-15 | 2026-09-02 01:02:51 | 52.77897 | 10.89892 | 87° | 68km/h | 12934m | -12.7m/s | -50.4°C | 3.5% | 172.8hPa | 2.5V | 02:51:33 | 03:10:32 | 00:00:00 | |
| BIOWL1-15 | 2026-09-02 01:02:48 | 52.77899 | 10.89948 | 87° | 68km/h | 12909m | -12.5m/s | -50.4°C | 0.2% | 173.4hPa | 2.5V | 02:51:41 | 03:10:34 | 00:00:00 | |
| AA1-15 | 2026-09-02 01:02:47 | 52.77898 | 10.89920 | 87° | 68km/h | 12922m | -12.6m/s | -50.4°C | 0.1% | 173.1hPa | 2.5V | 02:51:41 | 03:10:33 | 00:00:00 | |
| DL1XH-west | 2026-09-02 01:02:47 | 52.77897 | 10.89892 | 87° | 68km/h | 12934m | -12.7m/s | -50.4°C | 0.2% | 172.8hPa | 2.5V | 02:51:41 | 03:10:32 | 00:00:00 | |
| DF8AY | 2026-09-02 01:02:45 | 52.77895 | 10.89835 | 87° | 68km/h | 12959m | -12.8m/s | -50.3°C | 0.1% | 172.1hPa | 2.6V | 02:51:41 | 03:10:30 | 00:00:00 | |
| DM0DOS-11 | 2026-09-02 01:02:44 | 52.77892 | 10.89699 | 88° | 62km/h | 13021m | -12.4m/s | -50°C | 3.3% | 170.5hPa | 2.6V | 02:51:40 | 03:10:25 | 00:00:00 | |
| DB0UT-7 | 2026-09-02 01:02:44 | 52.77895 | 10.89835 | 88° | 68km/h | 12959m | -12.7m/s | -50.3°C | 3.4% | 172.1hPa | 2.5V | 00:00:00 | 03:10:30 | 00:00:00 | |
| DD8BA-10 | 2026-09-02 01:02:43 | 52.77894 | 10.89807 | 88° | 64km/h | 12971m | -12.5m/s | -50.2°C | 3.4% | 171.7hPa | 2.5V | 00:00:00 | 00:00:00 | 00:00:00 | |
| GOEST3-10 | 2026-09-02 01:02:42 | 52.77894 | 10.89779 | 89° | 64km/h | 12984m | -12.8m/s | -50.0°C | 3.4% | 171.4hPa | 2.5V | 00:00:00 | 00:00:00 | 00:00:00 | |
| DL1XH-15 | 2026-09-02 01:02:41 | 52.77892 | 10.89621 | 89° | 64km/h | 13058m | -12.8m/s | -50.2°C | 3.3% | 169.5hPa | 2.5V | 02:51:43 | 03:10:22 | 00:00:00 | |
| DL1XH1-15 | 2026-09-02 01:02:41 | 52.77892 | 10.89647 | 89° | 62km/h | 13045m | -12.9m/s | -50.1°C | 3.3% | 169.8hPa | 2.5V | 02:51:42 | 03:10:23 | 00:00:00 | |
| DB0DAN | 2026-09-02 01:02:40 | 52.77893 | 10.89725 | 89° | 60km/h | 13008m | -12.7m/s | -50°C | 1.2% | 170.82hPa | 2.5V | 00:00:00 | 00:00:00 | 00:00:00 | |
| BIOWL1-15 | 2026-09-02 01:02:37 | 52.77892 | 10.89594 | 90° | 66km/h | 13071m | -12.9m/s | -50.2°C | 0% | 169.2hPa | 2.5V | 02:52:32 | 03:10:21 | 00:00:00 | |
| DL1XH-west | 2026-09-02 01:02:36 | 52.77892 | 10.89621 | 89° | 64km/h | 13058m | -12.8m/s | -50.2°C | 0% | 169.5hPa | 2.5V | 02:52:32 | 03:10:22 | 00:00:00 | |
| DO2SHX-10 | 2026-09-02 01:02:35 | 52.77892 | 10.89594 | 91° | 66km/h | 13071m | -12.9m/s | -50.2°C | 3.3% | 169.2hPa | 2.5V | 02:51:00 | 03:10:21 | 00:00:00 | |
| DM0DOS-11 | 2026-09-02 01:02:34 | 52.77896 | 10.89427 | 94° | 69km/h | 13146m | -12.9m/s | -50.4°C | 3.3% | 167.2hPa | 2.5V | 02:51:50 | 03:10:15 | 00:00:00 | |
| DF8AY | 2026-09-02 01:02:33 | 52.77899 | 10.89368 | 94° | 73km/h | 13172m | -12.6m/s | -50.3°C | 0% | 166.6hPa | 2.6V | 02:52:32 | 03:10:13 | 00:00:00 | |
| DD8BA-10 | 2026-09-02 01:02:33 | 52.77892 | 10.89540 | 93° | 71km/h | 13096m | -12.6m/s | -50.3°C | 3.3% | 168.5hPa | 2.6V | 02:51:00 | 00:00:00 | 00:00:00 | |
| EDDB2-11 | 2026-09-02 01:02:32 | 52.77894 | 10.89484 | 94° | 66km/h | 13121m | -12.9m/s | -50.4°C | 1.1% | 167.9hPa | 2.5V | 00:00:00 | 00:00:00 | 00:00:00 | |
| DL1XH-15 | 2026-09-02 01:02:31 | 52.77900 | 10.89337 | 93° | 75km/h | 13184m | -12.8m/s | -50.3°C | 3.3% | 166.3hPa | 2.5V | 02:51:53 | 03:10:12 | 00:00:00 | |
| DL1XH1-15 | 2026-09-02 01:02:31 | 52.77899 | 10.89368 | 94° | 73km/h | 13172m | -12.6m/s | -50.3°C | 3.3% | 166.6hPa | 2.6V | 02:51:52 | 03:10:13 | 00:00:00 | |
| DL1XH-west | 2026-09-02 01:02:26 | 52.77900 | 10.89337 | 93° | 75km/h | 13184m | -12.9m/s | -50.3°C | 0% | 166.3hPa | 2.5V | 02:52:32 | 03:10:12 | 00:00:00 | |
| DB0DAN | 2026-09-02 01:02:25 | 52.77902 | 10.89306 | 94° | 71km/h | 13196m | -12.7m/s | -50.3°C | 1% | 166.01hPa | 2.5V | 00:00:00 | 00:00:00 | 00:00:00 | |
| AA1-15 | 2026-09-02 01:02:25 | 52.77902 | 10.89306 | 94° | 73km/h | 13196m | -12.7m/s | -50.3°C | 0% | 166hPa | 2.5V | 02:52:32 | 03:10:11 | 00:00:00 | |
| TFSTFS | 2026-09-02 01:02:25 | 52.77902 | 10.89306 | 95° | 75km/h | 13197m | -12.7m/s | -50.3°C | 1.0% | 166.0hPa | 2.5V | 02:52:00 | 00:00:00 | 00:00:00 | |
| DL4XJ-10 | 2026-09-02 01:02:24 | 52.77903 | 10.89276 | 94° | 66km/h | 13210m | -12.7m/s | -50.0°C | 0% | 0hPa | 2.5V | 00:00:00 | 00:00:00 | 00:00:00 | |
| DO2SHX-10 | 2026-09-02 01:02:23 | 52.77904 | 10.89245 | 94° | 73km/h | 13222m | -12.9m/s | -50.4°C | 3.3% | 165.3hPa | 2.5V | 00:00:00 | 03:10:09 | 00:00:00 | |
| BIOWL9-15 | 2026-09-02 01:02:22 | 52.77906 | 10.89185 | 92° | 71km/h | 13247m | -13.2m/s | -50.5°C | 1.0% | 164.7hPa | 2.5V | 00:00:00 | 00:00:00 | 00:00:00 | |
| DL1XH-15 | 2026-09-02 01:02:21 | 52.77908 | 10.89037 | 90° | 68km/h | 13311m | -13m/s | -50.3°C | 3.3% | 163.1hPa | 2.5V | 02:52:03 | 03:10:02 | 00:00:00 | |
| DL1XH1-15 | 2026-09-02 01:02:21 | 52.77908 | 10.89066 | 90° | 71km/h | 13298m | -12.9m/s | -50.5°C | 3.3% | 163.4hPa | 2.6V | 02:52:02 | 03:10:03 | 00:00:00 | |
| DF8AY | 2026-09-02 01:02:18 | 52.77907 | 10.89095 | 90° | 71km/h | 13286m | -12.8m/s | -50.6°C | 0% | 163.8hPa | 2.6V | 02:52:32 | 03:10:04 | 00:00:00 | |
| BIOWL1-15 | 2026-09-02 01:02:16 | 52.77907 | 10.89037 | 90° | 68km/h | 13311m | -13m/s | -50.3°C | 0% | 163.1hPa | 2.5V | 02:52:32 | 03:10:02 | 00:00:00 | |
| DL1XH-west | 2026-09-02 01:02:15 | 52.77907 | 10.89008 | 90° | 68km/h | 13324m | -13m/s | -50.3°C | 0% | 162.8hPa | 2.5V | 02:52:32 | 03:10:01 | 00:00:00 | |
| AA1-15 | 2026-09-02 01:02:15 | 52.77907 | 10.88980 | 90° | 68km/h | 13337m | -13m/s | -50.3°C | 0% | 162.4hPa | 2.5V | 02:52:32 | 03:10:00 | 00:00:00 | |
| DO2SHX-10 | 2026-09-02 01:02:14 | 52.77907 | 10.88980 | 90° | 66km/h | 13337m | -12.9m/s | -50.2°C | 3.3% | 162.4hPa | 2.6V | 00:00:00 | 03:10:00 | 00:00:00 | |
| DD8BA-10 | 2026-09-02 01:02:13 | 52.77907 | 10.88953 | 91° | 60km/h | 13350m | -13.1m/s | -50.3°C | 3.2% | 162.1hPa | 2.6V | 00:00:00 | 00:00:00 | 00:00:00 | |
| DL1XH1-15 | 2026-09-02 01:02:12 | 52.77908 | 10.88798 | 89° | 58km/h | 13426m | -13.1m/s | -50.5°C | 3.3% | 160.2hPa | 2.6V | 02:52:12 | 03:09:53 | 00:00:00 | |
| DL1XH-15 | 2026-09-02 01:02:11 | 52.77908 | 10.88774 | 91° | 57km/h | 13440m | -13.2m/s | -50.6°C | 3.3% | 159.9hPa | 2.6V | 02:52:13 | 03:09:52 | 00:00:00 | |
| DB0DAN | 2026-09-02 01:02:10 | 52.77908 | 10.88873 | 90° | 58km/h | 13388m | -13.1m/s | -50.5°C | 1% | 161.14hPa | 2.5V | 00:00:00 | 00:00:00 | 00:00:00 | |
| DF8AY | 2026-09-02 01:02:08 | 52.77908 | 10.88822 | 90° | 60km/h | 13414m | -13.1m/s | -50.5°C | 0% | 160.6hPa | 2.6V | 02:52:32 | 03:09:54 | 00:00:00 | |
| BIOWL1-15 | 2026-09-02 01:02:05 | 52.77908 | 10.88751 | 89° | 55km/h | 13452m | -13.1m/s | -50.7°C | 0% | 159.6hPa | 2.5V | 02:52:32 | 03:09:51 | 00:00:00 | |
| DL1XH-west | 2026-09-02 01:02:04 | 52.77908 | 10.88728 | 88° | 55km/h | 13466m | -13.4m/s | -50.7°C | 0% | 159.2hPa | 2.5V | 02:52:32 | 03:09:50 | 00:00:00 | |
| AA1-15 | 2026-09-02 01:02:03 | 52.77907 | 10.88705 | 90° | 55km/h | 13479m | -13.2m/s | -50.7°C | 0% | 158.9hPa | 2.5V | 02:52:32 | 03:09:49 | 00:00:00 | |
| DM0DOS-11 | 2026-09-02 01:02:03 | 52.77905 | 10.88617 | 83° | 51km/h | 13531m | -13.3m/s | -50.7°C | 3.3% | 157.7hPa | 2.5V | 02:52:20 | 03:09:45 | 00:00:00 | |
| DO2SHX-10 | 2026-09-02 01:02:02 | 52.77907 | 10.88683 | 88° | 53km/h | 13492m | -13.1m/s | -50.7°C | 3.3% | 158.6hPa | 2.5V | 00:00:00 | 03:09:48 | 00:00:00 | |
| DL1XH-15 | 2026-09-02 01:02:01 | 52.77900 | 10.88553 | 82° | 53km/h | 13570m | -13.5m/s | -50.7°C | 3.3% | 156.8hPa | 2.5V | 02:52:23 | 03:09:42 | 00:00:00 | |
| DF8AY | 2026-09-02 01:01:58 | 52.77903 | 10.88596 | 84° | 51km/h | 13544m | -13.3m/s | -50.7°C | 0% | 157.4hPa | 2.6V | 02:52:32 | 03:09:44 | 00:00:00 | |
| DB0DAN | 2026-09-02 01:01:55 | 52.77898 | 10.88531 | 83° | 51km/h | 13583m | -13.7m/s | -50.8°C | 1% | 156.47hPa | 2.5V | 00:00:00 | 00:00:00 | 00:00:00 | |
| BIOWL1-15 | 2026-09-02 01:01:55 | 52.77898 | 10.88531 | 83° | 53km/h | 13583m | -13.7m/s | -50.8°C | 0% | 156.5hPa | 2.5V | 02:52:32 | 03:09:41 | 00:00:00 | |
| DL1XH-west | 2026-09-02 01:01:53 | 52.77895 | 10.88486 | 83° | 55km/h | 13610m | -13.4m/s | -50.8°C | 0% | 155.8hPa | 2.6V | 02:52:32 | 03:09:39 | 00:00:00 | |
| AA1-15 | 2026-09-02 01:01:52 | 52.77893 | 10.88464 | 83° | 55km/h | 13623m | -13.4m/s | -50.9°C | 0% | 155.5hPa | 2.6V | 02:52:32 | 03:09:38 | 00:00:00 | |
| DL1XH1-15 | 2026-09-02 01:01:52 | 52.77885 | 10.88343 | 84° | 62km/h | 13689m | -13.5m/s | -50.8°C | 3.3% | 153.9hPa | 2.6V | 02:52:32 | 03:09:33 | 00:00:00 | |
| DF8AY | 2026-09-02 01:01:47 | 52.77885 | 10.88343 | 84° | 62km/h | 13689m | -13.5m/s | -50.8°C | 0% | 153.9hPa | 2.6V | 02:52:32 | 03:09:33 | 00:00:00 | |
| BIOWL1-15 | 2026-09-02 01:01:44 | 52.77880 | 10.88263 | 86° | 68km/h | 13730m | -13.4m/s | -50.4°C | 0% | 153hPa | 2.5V | 02:53:23 | 03:09:30 | 00:00:00 | |
| DO2SHX-10 | 2026-09-02 01:01:44 | 52.77880 | 10.88263 | 86° | 68km/h | 13730m | -13.4m/s | -50.3°C | 3.2% | 152.9hPa | 2.5V | 00:00:00 | 03:09:30 | 00:00:00 | |
| DM0DOS-11 | 2026-09-02 01:01:43 | 52.77876 | 10.88121 | 87° | 68km/h | 13797m | -13.6m/s | -50.3°C | 3.1% | 151.4hPa | 2.5V | 02:52:40 | 03:09:25 | 00:00:00 | |
| DL1XH-west | 2026-09-02 01:01:42 | 52.77878 | 10.88206 | 87° | 68km/h | 13756m | -13.6m/s | -50.2°C | 0% | 152.3hPa | 2.6V | 02:53:23 | 03:09:28 | 00:00:00 | |
| DL1XH1-15 | 2026-09-02 01:01:42 | 52.77875 | 10.88064 | 87° | 68km/h | 13824m | -13.5m/s | -50.2°C | 3.1% | 150.8hPa | 2.5V | 02:52:42 | 03:09:23 | 00:00:00 | |
| AA1-15 | 2026-09-02 01:01:41 | 52.77878 | 10.88178 | 87° | 69km/h | 13770m | -13.7m/s | -50.3°C | 0% | 152.1hPa | 2.6V | 02:53:23 | 03:09:27 | 00:00:00 | |
| DB0DAN | 2026-09-02 01:01:40 | 52.77877 | 10.88149 | 88° | 66km/h | 13783m | -13.7m/s | -50.3°C | 0.9% | 151.78hPa | 2.6V | 00:00:00 | 00:00:00 | 00:00:00 | |
| DF8AY | 2026-09-02 01:01:37 | 52.77875 | 10.88064 | 88° | 68km/h | 13824m | -13.5m/s | -50.2°C | 0% | 150.8hPa | 2.5V | 02:53:23 | 03:09:23 | 00:00:00 | |
| BIOWL1-15 | 2026-09-02 01:01:34 | 52.77872 | 10.87956 | 87° | 62km/h | 13877m | -13.5m/s | -50°C | 0% | 149.6hPa | 2.5V | 02:53:23 | 03:09:19 | 00:00:00 | |
| DL1XH-west | 2026-09-02 01:01:33 | 52.77871 | 10.87930 | 87° | 62km/h | 13890m | -13.5m/s | -50°C | 0% | 149.2hPa | 2.6V | 02:53:23 | 03:09:18 | 00:00:00 | |
| AA1-15 | 2026-09-02 01:01:30 | 52.77870 | 10.87880 | 86° | 58km/h | 13916m | -13.3m/s | -50°C | 0% | 148.7hPa | 2.5V | 02:53:23 | 03:09:16 | 00:00:00 | |
| DF8AY | 2026-09-02 01:01:27 | 52.77867 | 10.87809 | 87° | 57km/h | 13956m | -13.7m/s | -50.1°C | 0% | 147.8hPa | 2.6V | 02:53:23 | 03:09:13 | 00:00:00 | |
| BIOWL1-15 | 2026-09-02 01:01:24 | 52.77866 | 10.87624 | 94° | 57km/h | 14065m | -14m/s | -50.5°C | 0% | 145.4hPa | 2.5V | 02:53:23 | 03:09:05 | 00:00:00 | |
| DM0DOS-11 | 2026-09-02 01:01:23 | 52.77866 | 10.87624 | 93° | 57km/h | 14065m | -14m/s | -50.5°C | 3.2% | 145.4hPa | 2.5V | 02:53:00 | 03:09:05 | 00:00:00 | |
| DL1XH1-15 | 2026-09-02 01:01:22 | 52.77868 | 10.87577 | 94° | 57km/h | 14092m | -13.9m/s | -50.6°C | 3.2% | 144.8hPa | 2.6V | 02:53:02 | 03:09:03 | 00:00:00 | |
| DL1XH-west | 2026-09-02 01:01:22 | 52.77865 | 10.87693 | 91° | 55km/h | 14024m | -13.8m/s | -50.4°C | 0% | 146.2hPa | 2.5V | 02:53:23 | 03:09:08 | 00:00:00 | |
| AA1-15 | 2026-09-02 01:01:20 | 52.77865 | 10.87647 | 94° | 55km/h | 14051m | -14.2m/s | -50.4°C | 0% | 145.6hPa | 2.6V | 02:53:23 | 03:09:06 | 00:00:00 | |
| BIOWL9-15 | 2026-09-02 01:01:20 | 52.77866 | 10.87624 | 93° | 57km/h | 14065m | -14.0m/s | -50.5°C | 0.9% | 145.4hPa | 2.5V | 00:00:00 | 00:00:00 | 00:00:00 | |
| HTAHTA | 2026-09-02 01:01:19 | 52.77866 | 10.87624 | 93° | 57km/h | 14065m | -14.0m/s | -50.5°C | 0.9% | 145.4hPa | 2.5V | 00:00:00 | 00:00:00 | 00:00:00 | |
| DB0NH | 2026-09-02 01:01:18 | 52.77867 | 10.87600 | 95° | 55km/h | 14079m | -13.9m/s | -50.5°C | 3.2% | 145.0hPa | 2.5V | 00:00:00 | 03:09:04 | 00:00:00 | |
| DO2SHX-10 | 2026-09-02 01:01:17 | 52.77868 | 10.87577 | 95° | 57km/h | 14092m | -13.8m/s | -50.6°C | 3.2% | 144.7hPa | 2.5V | 00:00:00 | 03:09:03 | 00:00:00 | |
| GOEST3-10 | 2026-09-02 01:01:16 | 52.77869 | 10.87553 | 95° | 55km/h | 14106m | -14.0m/s | -50.4°C | 3.2% | 144.4hPa | 2.5V | 00:00:00 | 00:00:00 | 00:00:00 | |
| DM0DOS-11 | 2026-09-02 01:01:14 | 52.77874 | 10.87396 | 92° | 51km/h | 14202m | -13.7m/s | -50.3°C | 3.1% | 142.3hPa | 2.5V | 02:53:10 | 03:08:55 | 00:00:00 | |
| BIOWL1-15 | 2026-09-02 01:01:13 | 52.77872 | 10.87484 | 93° | 55km/h | 14147m | -13.9m/s | -50.2°C | 0% | 143.6hPa | 2.5V | 02:53:23 | 03:08:59 | 00:00:00 | |
| DD8BA-10 | 2026-09-02 01:01:13 | 52.77872 | 10.87484 | 93° | 53km/h | 14148m | -13.9m/s | -50.2°C | 3.1% | 143.5hPa | 2.5V | 00:00:00 | 00:00:00 | 00:00:00 | |
| DL1XH1-15 | 2026-09-02 01:01:12 | 52.77876 | 10.87351 | 92° | 53km/h | 14230m | -13.9m/s | -50.2°C | 3.1% | 141.7hPa | 2.5V | 02:53:12 | 03:08:53 | 00:00:00 | |
| DL1XH-west | 2026-09-02 01:01:11 | 52.77873 | 10.87439 | 92° | 53km/h | 14175m | -13.7m/s | -50.3°C | 0% | 142.9hPa | 2.6V | 02:53:23 | 03:08:57 | 00:00:00 | |
| DB0DAN | 2026-09-02 01:01:10 | 52.77874 | 10.87417 | 92° | 51km/h | 14188m | -14m/s | -50.3°C | 0.9% | 142.63hPa | 2.6V | 00:00:00 | 00:00:00 | 00:00:00 | |
| AA1-15 | 2026-09-02 01:01:10 | 52.77874 | 10.87417 | 92° | 53km/h | 14188m | -14m/s | -50.3°C | 0% | 142.6hPa | 2.6V | 02:53:23 | 03:08:56 | 00:00:00 | |
| BIOWL1-15 | 2026-09-02 01:01:03 | 52.77878 | 10.87237 | 92° | 57km/h | 14298m | -14m/s | -50.5°C | 0% | 140.3hPa | 2.6V | 02:53:23 | 03:08:48 | 00:00:00 | |
| DM0DOS-11 | 2026-09-02 01:01:03 | 52.77880 | 10.87167 | 91° | 57km/h | 14340m | -14.6m/s | -50.4°C | 3.1% | 139.4hPa | 2.5V | 02:53:20 | 03:08:45 | 00:00:00 | |
| DL1XH1-15 | 2026-09-02 01:01:03 | 52.77881 | 10.87121 | 91° | 55km/h | 14368m | -14.3m/s | -50.4°C | 3.1% | 138.8hPa | 2.6V | 02:53:22 | 03:08:43 | 00:00:00 | |
| DL1XH-west | 2026-09-02 01:01:00 | 52.77880 | 10.87190 | 93° | 55km/h | 14326m | -14.5m/s | -50.4°C | 0% | 139.6hPa | 2.5V | 02:53:23 | 03:08:46 | 00:00:00 | |
| AA1-15 | 2026-09-02 01:00:59 | 52.77880 | 10.87167 | 91° | 57km/h | 14340m | -14.6m/s | -50.4°C | 0% | 139.4hPa | 2.5V | 02:53:23 | 03:08:45 | 00:00:00 | |
| DL3AQ-11 | 2026-09-02 01:00:59 | 52.77881 | 10.87144 | 92° | 55km/h | 14354m | -14.6m/s | -50.4°C | 0.9% | 139.1hPa | 2.6V | 00:00:00 | 00:00:00 | 00:00:00 | |
| EDDB2-11 | 2026-09-02 01:00:58 | 52.77881 | 10.87144 | 92° | 55km/h | 14354m | -14.6m/s | -50.4°C | 0.9% | 139.1hPa | 2.6V | 00:00:00 | 00:00:00 | 00:00:00 | |
| DL1XH-15 | 2026-09-02 01:00:57 | 52.77882 | 10.87098 | 91° | 55km/h | 14382m | -14.3m/s | -50.5°C | 3.1% | 138.5hPa | 2.6V | 02:53:23 | 03:08:42 | 00:00:00 | |
| GOEST3-10 | 2026-09-02 01:00:57 | 52.77882 | 10.87097 | 92° | 53km/h | 14382m | -14.2m/s | -50.4°C | 3.1% | 138.4hPa | 2.6V | 02:53:00 | 00:00:00 | 00:00:00 | |
| MECKS9 | 2026-09-02 01:00:54 | 52.77882 | 10.87075 | 93° | 53km/h | 14396m | -14.4m/s | -50.5°C | 0.9% | 138.2hPa | 2.5V | 00:00:00 | 00:00:00 | 00:00:00 | |
| DD8BA-10 | 2026-09-02 01:00:53 | 52.77882 | 10.87031 | 91° | 53km/h | 14424m | -14.3m/s | -50.5°C | 3.1% | 137.5hPa | 2.5V | 00:00:00 | 00:00:00 | 00:00:00 | |
| DM0DOS-11 | 2026-09-02 01:00:52 | 52.77882 | 10.86943 | 85° | 53km/h | 14481m | -14.5m/s | -50.7°C | 3.2% | 136.4hPa | 2.5V | 02:53:30 | 03:08:35 | 00:00:00 | |
| DL1XH1-15 | 2026-09-02 01:00:52 | 52.77879 | 10.86899 | 83° | 53km/h | 14509m | -14.6m/s | -50.7°C | 3.2% | 135.8hPa | 2.5V | 02:53:32 | 03:08:33 | 00:00:00 | |
| BIOWL1-15 | 2026-09-02 01:00:51 | 52.77879 | 10.86899 | 83° | 53km/h | 14509m | -14.6m/s | -50.7°C | 0% | 135.8hPa | 2.5V | 02:54:14 | 03:08:33 | 00:00:00 | |
| DL1XH-west | 2026-09-02 01:00:50 | 52.77882 | 10.86965 | 88° | 51km/h | 14466m | -14.6m/s | -50.6°C | 0% | 136.7hPa | 2.6V | 02:54:14 | 03:08:36 | 00:00:00 | |
| AA1-15 | 2026-09-02 01:00:48 | 52.77880 | 10.86921 | 85° | 53km/h | 14495m | -14.5m/s | -50.8°C | 0% | 136.1hPa | 2.5V | 02:54:14 | 03:08:34 | 00:00:00 | |
| DL3AQ-11 | 2026-09-02 01:00:48 | 52.77879 | 10.86899 | 83° | 53km/h | 14509m | -14.6m/s | -50.7°C | 0.9% | 135.8hPa | 2.6V | 00:00:00 | 00:00:00 | 00:00:00 | |
| DL1XH-15 | 2026-09-02 01:00:47 | 52.77877 | 10.86877 | 82° | 53km/h | 14523m | -14.4m/s | -50.8°C | 3.1% | 135.5hPa | 2.6V | 02:53:33 | 03:08:32 | 00:00:00 | |
| GOEST3-10 | 2026-09-02 01:00:46 | 52.77877 | 10.86877 | 83° | 55km/h | 14524m | -14.4m/s | -50.7°C | 3.1% | 135.4hPa | 2.6V | 00:00:00 | 00:00:00 | 00:00:00 | |
| DO2SHX-10 | 2026-09-02 01:00:44 | 52.77873 | 10.86832 | 81° | 55km/h | 14552m | -14.2m/s | -50.7°C | 3.2% | 134.9hPa | 2.6V | 00:00:00 | 03:08:30 | 00:00:00 | |
| DD8BA-10 | 2026-09-02 01:00:43 | 52.77871 | 10.86810 | 81° | 60km/h | 14566m | -14.8m/s | -50.7°C | 3.2% | 134.6hPa | 2.6V | 00:00:00 | 00:00:00 | 00:00:00 | |
| DM0DOS-11 | 2026-09-02 01:00:42 | 52.77861 | 10.86715 | 81° | 60km/h | 14623m | -14.6m/s | -51°C | 3.2% | 133.4hPa | 2.6V | 02:53:40 | 03:08:25 | 00:00:00 | |
| DL1XH-15 | 2026-09-02 01:00:41 | 52.77855 | 10.86640 | 84° | 62km/h | 14667m | -15m/s | -51.2°C | 3.3% | 132.5hPa | 2.5V | 02:53:43 | 03:08:22 | 00:00:00 | |
| DB0DAN | 2026-09-02 01:00:40 | 52.77864 | 10.86740 | 81° | 57km/h | 14609m | -14.5m/s | -50.9°C | 0.9% | 133.73hPa | 2.6V | 00:00:00 | 00:00:00 | 00:00:00 | |
| DF8AY | 2026-09-02 01:00:39 | 52.77861 | 10.86715 | 81° | 60km/h | 14623m | -14.6m/s | -51°C | 0% | 133.4hPa | 2.6V | 02:54:14 | 03:08:25 | 00:00:00 | |
| BIOWL1-15 | 2026-09-02 01:00:39 | 52.77852 | 10.86585 | 85° | 68km/h | 14696m | -14.8m/s | -51.2°C | 0% | 132hPa | 2.5V | 02:54:14 | 03:08:20 | 00:00:00 | |
| AA1-15 | 2026-09-02 01:00:38 | 52.77859 | 10.86691 | 83° | 60km/h | 14638m | -14.8m/s | -51.1°C | 0% | 133.2hPa | 2.6V | 02:54:14 | 03:08:24 | 00:00:00 | |
| DO2SHX-10 | 2026-09-02 01:00:38 | 52.77859 | 10.86690 | 83° | 62km/h | 14638m | -14.8m/s | -51.0°C | 3.3% | 133.1hPa | 2.6V | 02:53:00 | 03:08:24 | 00:00:00 | |
| EDDB2-12 | 2026-09-02 01:00:37 | 52.77855 | 10.86640 | 84° | 62km/h | 14667m | -15.0m/s | -51.3°C | 0.9% | 132.6hPa | 2.6V | 00:00:00 | 00:00:00 | 00:00:00 | |
| GOEST3-10 | 2026-09-02 01:00:36 | 52.77855 | 10.86640 | 85° | 66km/h | 14668m | -14.9m/s | -51.2°C | 3.3% | 132.5hPa | 2.6V | 00:00:00 | 00:00:00 | 00:00:00 | |
| SMARD9-15 | 2026-09-02 01:00:35 | 52.77852 | 10.86585 | 84° | 66km/h | 14696m | -14.8m/s | -51.2°C | 0.9% | 132.0hPa | 2.6V | 00:00:00 | 00:00:00 | 00:00:00 | |
| DD8BA-10 | 2026-09-02 01:00:33 | 52.77851 | 10.86557 | 87° | 68km/h | 14711m | -14.7m/s | -51.1°C | 3.3% | 131.6hPa | 2.6V | 02:53:00 | 00:00:00 | 00:00:00 | |
| DM0DOS-11 | 2026-09-02 01:00:32 | 52.77848 | 10.86443 | 88° | 69km/h | 14768m | -14.9m/s | -51.1°C | 3.2% | 130.6hPa | 2.5V | 02:53:50 | 03:08:15 | 00:00:00 | |
| DL1XH1-15 | 2026-09-02 01:00:32 | 52.77847 | 10.86386 | 89° | 68km/h | 14797m | -15m/s | -51.2°C | 3.2% | 129.9hPa | 2.6V | 02:53:52 | 03:08:13 | 00:00:00 | |
| DO2SHX-10 | 2026-09-02 01:00:32 | 52.77850 | 10.86529 | 87° | 69km/h | 14725m | -14.5m/s | -51.1°C | 3.3% | 131.4hPa | 2.6V | 00:00:00 | 03:08:18 | 00:00:00 | |
| DL1XH-15 | 2026-09-02 01:00:31 | 52.77847 | 10.86357 | 89° | 68km/h | 14812m | -14.6m/s | -51.3°C | 3.3% | 129.7hPa | 2.6V | 02:53:53 | 03:08:12 | 00:00:00 | |
| DF8AY | 2026-09-02 01:00:29 | 52.77848 | 10.86443 | 88° | 69km/h | 14768m | -14.9m/s | -51.1°C | 0% | 130.6hPa | 2.5V | 02:54:14 | 03:08:15 | 00:00:00 | |
| DL1XH-west | 2026-09-02 01:00:28 | 52.77847 | 10.86414 | 88° | 69km/h | 14783m | -14.9m/s | -51.1°C | 0% | 130.2hPa | 2.5V | 02:54:14 | 03:08:14 | 00:00:00 | |
| AA1-15 | 2026-09-02 01:00:27 | 52.77847 | 10.86386 | 89° | 68km/h | 14797m | -15m/s | -51.2°C | 0% | 129.9hPa | 2.6V | 02:54:14 | 03:08:13 | 00:00:00 | |
| DB0DAN | 2026-09-02 01:00:25 | 52.77847 | 10.86329 | 91° | 64km/h | 14826m | -14.7m/s | -51.4°C | 0.9% | 129.4hPa | 2.6V | 00:00:00 | 00:00:00 | 00:00:00 | |
| DM0DOS-11 | 2026-09-02 01:00:25 | 52.77855 | 10.86167 | 98° | 62km/h | 14914m | -15.2m/s | -50.7°C | 3.1% | 127.6hPa | 2.5V | 02:54:00 | 03:08:05 | 00:00:00 | |
| BIOWL1-15 | 2026-09-02 01:00:23 | 52.77851 | 10.86219 | 95° | 64km/h | 14885m | -14.9m/s | -50.9°C | 0% | 128.2hPa | 2.6V | 02:54:14 | 03:08:07 | 00:00:00 | |
| DD8BA-10 | 2026-09-02 01:00:23 | 52.77848 | 10.86273 | 95° | 62km/h | 14855m | -15.1m/s | -51.1°C | 3.3% | 128.7hPa | 2.5V | 00:00:00 | 00:00:00 | 00:00:00 | |
| DL1XH1-15 | 2026-09-02 01:00:22 | 52.77859 | 10.86116 | 99° | 62km/h | 14943m | -15.1m/s | -50.8°C | 3.1% | 127.1hPa | 2.5V | 02:54:02 | 03:08:03 | 00:00:00 | |
| DL1XH-15 | 2026-09-02 01:00:22 | 52.77863 | 10.86091 | 101° | 60km/h | 14958m | -15m/s | -50.9°C | 3.1% | 126.8hPa | 2.6V | 02:54:03 | 03:08:02 | 00:00:00 | |
| DF8AY | 2026-09-02 01:00:18 | 52.77857 | 10.86141 | 100° | 62km/h | 14928m | -15.4m/s | -50.7°C | 0% | 127.3hPa | 2.5V | 02:54:14 | 03:08:04 | 00:00:00 | |
| AA1-15 | 2026-09-02 01:00:17 | 52.77862 | 10.86091 | 101° | 60km/h | 14958m | -15m/s | -50.9°C | 0% | 126.8hPa | 2.6V | 02:54:14 | 03:08:02 | 00:00:00 | |
| GOEST3-10 | 2026-09-02 01:00:17 | 52.77862 | 10.86091 | 102° | 58km/h | 14958m | -14.9m/s | -50.8°C | 3.1% | 126.7hPa | 2.6V | 00:00:00 | 00:00:00 | 00:00:00 | |
| SMARD9-10 | 2026-09-02 01:00:16 | 52.77862 | 10.86091 | 102° | 60km/h | 14958m | -15.0m/s | -50.9°C | 0.8% | 126.8hPa | 2.6V | 00:00:00 | 00:00:00 | 00:00:00 | |
| SONDE2-11 | 2026-09-02 01:00:15 | 52.77866 | 10.86066 | 102° | 58km/h | 14973m | -14.8m/s | -50.9°C | 0.8% | 126.5hPa | 2.6V | 00:00:00 | 00:00:00 | 00:00:00 | |
| DM0DOS-11 | 2026-09-02 01:00:14 | 52.77885 | 10.85924 | 102° | 55km/h | 15062m | -14.9m/s | -51.1°C | 3.2% | 124.8hPa | 2.6V | 02:54:10 | 03:07:55 | 00:00:00 | |
| DO2SHX-10 | 2026-09-02 01:00:14 | 52.77869 | 10.86042 | 104° | 58km/h | 14988m | -15.2m/s | -51.0°C | 3.2% | 126.2hPa | 2.5V | 00:00:00 | 03:08:00 | 00:00:00 | |
| DD8BA-10 | 2026-09-02 01:00:13 | 52.77872 | 10.86018 | 103° | 57km/h | 15003m | -14.9m/s | -51.0°C | 3.2% | 125.9hPa | 2.5V | 00:00:00 | 00:00:00 | 00:00:00 | |
| DL1XH1-15 | 2026-09-02 01:00:12 | 52.77891 | 10.85879 | 102° | 55km/h | 15091m | -15.2m/s | -51°C | 3.2% | 124.2hPa | 2.5V | 02:54:12 | 03:07:53 | 00:00:00 | |
| BIOWL1-15 | 2026-09-02 01:00:11 | 52.77904 | 10.85707 | 92° | 49km/h | 15210m | -15.2m/s | -51°C | 0% | 122hPa | 2.5V | 02:55:05 | 03:07:45 | 00:00:00 | |
| DB0DAN | 2026-09-02 01:00:10 | 52.77882 | 10.85947 | 102° | 55km/h | 15047m | -15.1m/s | -51.1°C | 0.8% | 125.07hPa | 2.6V | 00:00:00 | 00:00:00 | 00:00:00 | |
| DL1XH-west | 2026-09-02 01:00:08 | 52.77888 | 10.85901 | 102° | 55km/h | 15077m | -14.9m/s | -51.1°C | 0% | 124.5hPa | 2.6V | 02:54:14 | 03:07:54 | 00:00:00 | |
| AA1-15 | 2026-09-02 01:00:06 | 52.77894 | 10.85857 | 101° | 53km/h | 15106m | -15m/s | -51°C | 0% | 123.9hPa | 2.5V | 02:54:14 | 03:07:52 | 00:00:00 | |
| EDDB2-12 | 2026-09-02 01:00:06 | 52.77896 | 10.85835 | 100° | 53km/h | 15121m | -15.4m/s | -51.0°C | 0.9% | 123.6hPa | 2.5V | 00:00:00 | 00:00:00 | 00:00:00 | |
| DO2SHX-10 | 2026-09-02 01:00:05 | 52.77896 | 10.85835 | 101° | 53km/h | 15121m | -15.4m/s | -51.0°C | 3.2% | 123.6hPa | 2.5V | 00:00:00 | 03:07:51 | 00:00:00 | |
| SMARD9-15 | 2026-09-02 01:00:04 | 52.77900 | 10.85792 | 97° | 51km/h | 15151m | -15.1m/s | -51.0°C | 0.8% | 123.1hPa | 2.5V | 00:00:00 | 00:00:00 | 00:00:00 | |
| DM0DOS-11 | 2026-09-02 01:00:03 | 52.77904 | 10.85707 | 92° | 49km/h | 15210m | -15.2m/s | -51°C | 3.2% | 122hPa | 2.5V | 02:54:20 | 03:07:45 | 00:00:00 | |
| DL1XH1-15 | 2026-09-02 01:00:02 | 52.77904 | 10.85665 | 88° | 51km/h | 15240m | -15.1m/s | -51.1°C | 3.2% | 121.4hPa | 2.6V | 02:54:22 | 03:07:43 | 00:00:00 | |
| DO2SHX-10 | 2026-09-02 01:00:02 | 52.77902 | 10.85771 | 96° | 51km/h | 15166m | -15.0m/s | -50.9°C | 3.2% | 122.8hPa | 2.6V | 02:54:00 | 03:07:48 | 00:00:00 | |
| DL1XH-15 | 2026-09-02 01:00:01 | 52.77904 | 10.85643 | 88° | 53km/h | 15255m | -15.6m/s | -51.2°C | 3.2% | 121.1hPa | 2.6V | 02:54:23 | 03:07:42 | 00:00:00 | |
| DL1XH-west | 2026-09-02 00:59:57 | 52.77904 | 10.85665 | 88° | 51km/h | 15240m | -15.1m/s | -51.1°C | 0% | 121.4hPa | 2.6V | 02:55:05 | 03:07:43 | 00:00:00 | |
| DF8AY | 2026-09-02 00:59:56 | 52.77904 | 10.85643 | 88° | 53km/h | 15255m | -15.6m/s | -51.2°C | 0% | 121.1hPa | 2.6V | 02:55:05 | 03:07:42 | 00:00:00 | |
| DB0DAN | 2026-09-02 00:59:55 | 52.77903 | 10.85620 | 88° | 51km/h | 15270m | -15.7m/s | -51.3°C | 0.9% | 120.89hPa | 2.6V | 00:00:00 | 00:00:00 | 00:00:00 | |
| AA1-15 | 2026-09-02 00:59:55 | 52.77903 | 10.85620 | 88° | 53km/h | 15270m | -15.7m/s | -51.3°C | 0% | 120.9hPa | 2.6V | 02:55:05 | 03:07:41 | 00:00:00 | |
| BIOWL1-15 | 2026-09-02 00:59:52 | 52.77898 | 10.85506 | 86° | 55km/h | 15345m | -15.4m/s | -51.5°C | 0% | 119.5hPa | 2.6V | 02:55:05 | 03:07:36 | 00:00:00 | |
| DL1XH1-15 | 2026-09-02 00:59:52 | 52.77896 | 10.85436 | 87° | 57km/h | 15390m | -15.7m/s | -51.4°C | 3.3% | 118.7hPa | 2.5V | 02:54:32 | 03:07:33 | 00:00:00 | |
| DL3AQ-11 | 2026-09-02 00:59:52 | 52.77899 | 10.85529 | 85° | 55km/h | 15330m | -15.3m/s | -51.5°C | 0.8% | 119.8hPa | 2.6V | 00:00:00 | 00:00:00 | 00:00:00 | |
| GOEST3-10 | 2026-09-02 00:59:51 | 52.77899 | 10.85529 | 86° | 57km/h | 15330m | -15.3m/s | -51.4°C | 3.3% | 119.7hPa | 2.6V | 00:00:00 | 03:07:37 | 00:00:00 | |
| DO2SHX-10 | 2026-09-02 00:59:50 | 52.77898 | 10.85506 | 86° | 57km/h | 15345m | -15.3m/s | -51.4°C | 3.3% | 119.4hPa | 2.6V | 00:00:00 | 03:07:36 | 00:00:00 | |
| DL1XH-15 | 2026-09-02 00:59:49 | 52.77895 | 10.85412 | 86° | 58km/h | 15406m | -15.6m/s | -51.3°C | 3.3% | 118.4hPa | 2.6V | 02:54:33 | 03:07:32 | 00:00:00 | |
| DL1XH-west | 2026-09-02 00:59:46 | 52.77895 | 10.85412 | 87° | 58km/h | 15406m | -15.6m/s | -51.3°C | 0% | 118.4hPa | 2.6V | 02:55:05 | 03:07:32 | 00:00:00 | |
| DF8AY | 2026-09-02 00:59:45 | 52.77895 | 10.85388 | 89° | 57km/h | 15421m | -15.6m/s | -51.2°C | 0% | 118.1hPa | 2.6V | 02:55:05 | 03:07:31 | 00:00:00 | |
| AA1-15 | 2026-09-02 00:59:44 | 52.77894 | 10.85364 | 90° | 57km/h | 15436m | -15.7m/s | -51°C | 0% | 117.8hPa | 2.6V | 02:55:05 | 03:07:30 | 00:00:00 | |
| DO2SHX-10 | 2026-09-02 00:59:44 | 52.77894 | 10.85364 | 91° | 57km/h | 15436m | -15.6m/s | -51.0°C | 3.2% | 117.8hPa | 2.6V | 02:54:00 | 03:07:30 | 00:00:00 | |
| DD8BA-10 | 2026-09-02 00:59:43 | 52.77894 | 10.85340 | 90° | 57km/h | 15452m | -15.8m/s | -50.9°C | 3.2% | 117.5hPa | 2.5V | 00:00:00 | 00:00:00 | 00:00:00 | |
| DL1XH1-15 | 2026-09-02 00:59:42 | 52.77897 | 10.85199 | 93° | 55km/h | 15544m | -15.8m/s | -50.5°C | 3.1% | 115.9hPa | 2.5V | 02:54:42 | 03:07:23 | 00:00:00 | |
| DL1XH-15 | 2026-09-02 00:59:41 | 52.77898 | 10.85176 | 93° | 55km/h | 15559m | -16.1m/s | -50.5°C | 3% | 115.6hPa | 2.5V | 02:54:43 | 03:07:22 | 00:00:00 | |
| BIOWL1-15 | 2026-09-02 00:59:40 | 52.77897 | 10.85199 | 93° | 55km/h | 15544m | -15.9m/s | -50.5°C | 0% | 115.9hPa | 2.5V | 02:55:05 | 03:07:23 | 00:00:00 | |
| DL1XH-west | 2026-09-02 00:59:36 | 52.77898 | 10.85176 | 94° | 55km/h | 15559m | -16.1m/s | -50.5°C | 0% | 115.6hPa | 2.5V | 02:55:05 | 03:07:22 | 00:00:00 | |
| DF8AY | 2026-09-02 00:59:35 | 52.77899 | 10.85153 | 95° | 55km/h | 15575m | -15.7m/s | -50.6°C | 0% | 115.3hPa | 2.5V | 02:55:05 | 03:07:21 | 00:00:00 | |
| EDDB2-12 | 2026-09-02 00:59:35 | 52.77900 | 10.85130 | 95° | 55km/h | 15591m | -15.8m/s | -50.6°C | 0.8% | 115.1hPa | 2.6V | 00:00:00 | 00:00:00 | 00:00:00 | |
| DM0DOS-11 | 2026-09-02 00:59:34 | 52.77909 | 10.85015 | 98° | 55km/h | 15668m | -15.6m/s | -50.9°C | 3.1% | 113.8hPa | 2.6V | 02:54:50 | 03:07:15 | 00:00:00 | |
| AA1-15 | 2026-09-02 00:59:33 | 52.77901 | 10.85107 | 97° | 57km/h | 15606m | -15.6m/s | -50.6°C | 0% | 114.8hPa | 2.6V | 02:55:05 | 03:07:19 | 00:00:00 | |
| DD8BA-10 | 2026-09-02 00:59:33 | 52.77901 | 10.85107 | 97° | 55km/h | 15606m | -15.6m/s | -50.6°C | 3.1% | 114.8hPa | 2.6V | 02:54:00 | 00:00:00 | 00:00:00 | |
| DL1XH1-15 | 2026-09-02 00:59:32 | 52.77914 | 10.84970 | 98° | 53km/h | 15699m | -15.7m/s | -51°C | 3.2% | 113.2hPa | 2.6V | 02:54:52 | 03:07:13 | 00:00:00 | |
| DO2SHX-10 | 2026-09-02 00:59:32 | 52.77903 | 10.85084 | 99° | 55km/h | 15622m | -15.9m/s | -50.7°C | 3.1% | 114.5hPa | 2.5V | 00:00:00 | 03:07:18 | 00:00:00 | |
| DL1XH-15 | 2026-09-02 00:59:31 | 52.77916 | 10.84949 | 98° | 51km/h | 15714m | -15.7m/s | -51°C | 3.2% | 112.9hPa | 2.5V | 02:54:53 | 03:07:12 | 00:00:00 | |
| BIOWL1-15 | 2026-09-02 00:59:28 | 52.77911 | 10.84993 | 98° | 55km/h | 15683m | -15.8m/s | -51°C | 0% | 113.5hPa | 2.6V | 02:55:05 | 03:07:14 | 00:00:00 | |
| DL3AQ-11 | 2026-09-02 00:59:28 | 52.77914 | 10.84970 | 98° | 53km/h | 15699m | -15.7m/s | -51.0°C | 0.8% | 113.2hPa | 2.5V | 00:00:00 | 00:00:00 | 00:00:00 | |
| DB0DAN | 2026-09-02 00:59:25 | 52.77917 | 10.84928 | 98° | 49km/h | 15730m | -15.9m/s | -51.1°C | 0.8% | 112.66hPa | 2.5V | 00:00:00 | 00:00:00 | 00:00:00 | |
| DL1XH-west | 2026-09-02 00:59:25 | 52.77917 | 10.84928 | 98° | 51km/h | 15730m | -15.9m/s | -51.1°C | 0% | 112.7hPa | 2.5V | 02:55:05 | 03:07:11 | 00:00:00 | |
| DF8AY | 2026-09-02 00:59:24 | 52.77919 | 10.84906 | 98° | 51km/h | 15745m | -15.9m/s | -51.2°C | 0% | 112.4hPa | 2.5V | 02:55:05 | 03:07:10 | 00:00:00 | |
| AA1-15 | 2026-09-02 00:59:23 | 52.77921 | 10.84886 | 97° | 49km/h | 15761m | -15.9m/s | -51.2°C | 0% | 112.1hPa | 2.6V | 02:55:05 | 03:07:09 | 00:00:00 | |
| DD8BA-10 | 2026-09-02 00:59:23 | 52.77921 | 10.84886 | 98° | 47km/h | 15761m | -15.8m/s | -51.1°C | 3.2% | 112.0hPa | 2.6V | 00:00:00 | 00:00:00 | 00:00:00 | |
| DL1XH1-15 | 2026-09-02 00:59:22 | 52.77929 | 10.84769 | 95° | 46km/h | 15854m | -16m/s | -51.4°C | 3.2% | 110.5hPa | 2.6V | 02:55:02 | 03:07:03 | 00:00:00 | |
| DL1XH-15 | 2026-09-02 00:59:21 | 52.77930 | 10.84750 | 93° | 46km/h | 15870m | -15.7m/s | -51.4°C | 3.2% | 110.2hPa | 2.6V | 02:55:03 | 03:07:02 | 00:00:00 | |
| DL1XH-west | 2026-09-02 00:59:14 | 52.77931 | 10.84711 | 91° | 49km/h | 15901m | -16.2m/s | -51.4°C | 0% | 109.7hPa | 2.5V | 02:55:05 | 03:07:00 | 00:00:00 | |
| AA1-15 | 2026-09-02 00:59:12 | 52.77931 | 10.84670 | 89° | 49km/h | 15932m | -15.9m/s | -51.5°C | 0% | 109.2hPa | 2.6V | 02:55:56 | 03:06:58 | 00:00:00 | |
| DL3AQ-11 | 2026-09-02 00:59:12 | 52.77930 | 10.84649 | 87° | 51km/h | 15948m | -15.9m/s | -51.6°C | 0.8% | 108.9hPa | 2.6V | 00:00:00 | 00:00:00 | 00:00:00 | |
| DL1XH-15 | 2026-09-02 00:59:11 | 52.77925 | 10.84541 | 84° | 53km/h | 16026m | -16.2m/s | -51.6°C | 3.3% | 107.7hPa | 2.6V | 02:55:13 | 03:06:52 | 00:00:00 | |
| DB0DAN | 2026-09-02 00:59:10 | 52.77930 | 10.84628 | 87° | 47km/h | 15963m | -15.8m/s | -51.7°C | 0.8% | 108.7hPa | 2.6V | 00:00:00 | 00:00:00 | 00:00:00 | |
| DL1XH-west | 2026-09-02 00:59:04 | 52.77923 | 10.84497 | 87° | 53km/h | 16057m | -16.3m/s | -51.6°C | 0% | 107.1hPa | 2.6V | 02:55:56 | 03:06:50 | 00:00:00 | |
| DF8AY | 2026-09-02 00:59:03 | 52.77922 | 10.84475 | 88° | 53km/h | 16073m | -16.3m/s | -51.5°C | 0% | 106.9hPa | 2.5V | 02:55:56 | 03:06:49 | 00:00:00 | |
| AA1-15 | 2026-09-02 00:59:02 | 52.77922 | 10.84453 | 89° | 53km/h | 16089m | -16m/s | -51.5°C | 0% | 106.6hPa | 2.5V | 02:55:56 | 03:06:48 | 00:00:00 | |
| DL1XH1-15 | 2026-09-02 00:59:02 | 52.77926 | 10.84341 | 97° | 57km/h | 16168m | -16.2m/s | -51°C | 3.2% | 105.3hPa | 2.5V | 02:55:22 | 03:06:43 | 00:00:00 | |
| BIOWL1-15 | 2026-09-02 00:59:01 | 52.77928 | 10.84318 | 99° | 57km/h | 16183m | -16.1m/s | -51°C | 0% | 105.1hPa | 2.5V | 02:55:56 | 03:06:42 | 00:00:00 | |
| DL1XH-west | 2026-09-02 00:58:53 | 52.77936 | 10.84250 | 101° | 53km/h | 16231m | -16.1m/s | -51.1°C | 0% | 104.3hPa | 2.6V | 02:55:56 | 03:06:39 | 00:00:00 | |
| AA1-15 | 2026-09-02 00:58:52 | 52.77941 | 10.84207 | 102° | 53km/h | 16263m | -16.4m/s | -51.2°C | 0% | 103.8hPa | 2.5V | 02:55:56 | 03:06:37 | 00:00:00 | |
| DL1XH-15 | 2026-09-02 00:58:51 | 52.77954 | 10.84108 | 100° | 46km/h | 16342m | -16.5m/s | -50.7°C | 3.1% | 102.5hPa | 2.5V | 02:55:33 | 03:06:32 | 00:00:00 | |
| BIOWL1-15 | 2026-09-02 00:58:46 | 52.77955 | 10.84089 | 98° | 46km/h | 16359m | -16.5m/s | -50.6°C | 0% | 102.3hPa | 2.5V | 02:55:56 | 03:06:31 | 00:00:00 | |
| S3001 | 2026-09-02 00:58:45 | 52.77957 | 10.84071 | 96° | 42km/h | 16374m | -16.5m/s | -50.5°C | 0.7% | 102.0hPa | 2.6V | 00:00:00 | 00:00:00 | 00:00:00 | |
| BIOWL9-15 | 2026-09-02 00:58:44 | 52.77957 | 10.84071 | 96° | 42km/h | 16374m | -16.5m/s | -50.5°C | 0.7% | 102.0hPa | 2.6V | 00:00:00 | 00:00:00 | 00:00:00 | |
| DL1XH-west | 2026-09-02 00:58:43 | 52.77958 | 10.84052 | 94° | 46km/h | 16390m | -16.6m/s | -50.5°C | 0% | 101.8hPa | 2.6V | 02:55:56 | 03:06:29 | 00:00:00 | |
| DM0DOS-11 | 2026-09-02 00:58:43 | 52.77960 | 10.83975 | 90° | 47km/h | 16455m | -17m/s | -50.3°C | 3% | 100.8hPa | 2.5V | 02:55:40 | 03:06:25 | 00:00:00 | |
| DF8AY | 2026-09-02 00:58:42 | 52.77959 | 10.84033 | 93° | 47km/h | 16406m | -16.6m/s | -50.5°C | 0% | 101.5hPa | 2.6V | 02:55:56 | 03:06:28 | 00:00:00 | |
| AA1-15 | 2026-09-02 00:58:40 | 52.77960 | 10.83995 | 92° | 46km/h | 16438m | -17.1m/s | -50.4°C | 0% | 101hPa | 2.5V | 02:55:56 | 03:06:26 | 00:00:00 | |
| DB0DAN | 2026-09-02 00:58:40 | 52.77960 | 10.83995 | 92° | 44km/h | 16438m | -17.1m/s | -50.4°C | 0.6% | 101.03hPa | 2.5V | 00:00:00 | 00:00:00 | 00:00:00 | |
| BIOWL1-15 | 2026-09-02 00:58:36 | 52.77960 | 10.83854 | 90° | 47km/h | 16552m | -17m/s | -49.9°C | 0% | 99.3hPa | 2.5V | 02:55:56 | 03:06:19 | 00:00:00 | |
| DO2SHX-10 | 2026-09-02 00:58:35 | 52.77960 | 10.83894 | 90° | 47km/h | 16520m | -16.5m/s | -49.9°C | 3.0% | 99.8hPa | 2.5V | 00:00:00 | 03:06:21 | 00:00:00 | |
| DM0DOS-11 | 2026-09-02 00:58:33 | 52.77961 | 10.83773 | 92° | 47km/h | 16617m | -17.1m/s | -49.9°C | 2.9% | 98.4hPa | 2.5V | 02:55:50 | 03:06:15 | 00:00:00 | |
| DL1XH-west | 2026-09-02 00:58:32 | 52.77960 | 10.83834 | 91° | 47km/h | 16568m | -17m/s | -49.9°C | 0% | 99hPa | 2.6V | 02:55:56 | 03:06:18 | 00:00:00 | |
| DF8AY | 2026-09-02 00:58:31 | 52.77960 | 10.83814 | 91° | 47km/h | 16584m | -16.8m/s | -49.8°C | 0% | 98.8hPa | 2.6V | 02:55:56 | 03:06:17 | 00:00:00 | |
| AA1-15 | 2026-09-02 00:58:30 | 52.77961 | 10.83773 | 93° | 47km/h | 16617m | -17.1m/s | -49.9°C | 0% | 98.4hPa | 2.5V | 02:55:56 | 03:06:15 | 00:00:00 | |
| BIOWL1-15 | 2026-09-02 00:58:23 | 52.77964 | 10.83619 | 91° | 35km/h | 16765m | -17m/s | -49.2°C | 0% | 96.2hPa | 2.6V | 02:56:47 | 03:06:06 | 00:00:00 | |
| DM0DOS-11 | 2026-09-02 00:58:23 | 52.77964 | 10.83604 | 90° | 35km/h | 16781m | -17.3m/s | -49.1°C | 2.8% | 95.9hPa | 2.6V | 02:56:00 | 03:06:05 | 00:00:00 | |
| DL1XH1-15 | 2026-09-02 00:58:22 | 52.77964 | 10.83574 | 91° | 35km/h | 16815m | -17.9m/s | -48.9°C | 2.7% | 95.4hPa | 2.5V | 02:56:02 | 03:06:03 | 00:00:00 | |
| DL1XH-west | 2026-09-02 00:58:21 | 52.77964 | 10.83634 | 92° | 37km/h | 16748m | -17.1m/s | -49.2°C | 0% | 96.4hPa | 2.6V | 02:56:47 | 03:06:07 | 00:00:00 | |
| DF8AY | 2026-09-02 00:58:20 | 52.77964 | 10.83604 | 90° | 35km/h | 16781m | -17.3m/s | -49.1°C | 0% | 95.9hPa | 2.6V | 02:56:47 | 03:06:05 | 00:00:00 | |
| AA1-15 | 2026-09-02 00:58:18 | 52.77964 | 10.83589 | 90° | 35km/h | 16798m | -17.6m/s | -49°C | 0% | 95.7hPa | 2.5V | 02:56:47 | 03:06:04 | 00:00:00 | |
| BIOWL1-15 | 2026-09-02 00:58:14 | 52.77962 | 10.83468 | 85° | 37km/h | 16933m | -17m/s | -49.1°C | 0% | 93.7hPa | 2.5V | 02:56:47 | 03:05:56 | 00:00:00 | |
| S3001 | 2026-09-02 00:58:14 | 52.77964 | 10.83514 | 87° | 35km/h | 16883m | -17.2m/s | -49.1°C | 0.6% | 94.5hPa | 2.5V | 00:00:00 | 00:00:00 | 00:00:00 | |
| HTAHTA | 2026-09-02 00:58:13 | 52.77962 | 10.83468 | 85° | 35km/h | 16933m | -17.0m/s | -49.1°C | 0.5% | 93.7hPa | 2.5V | 00:00:00 | 00:00:00 | 00:00:00 | |
| DM0DOS-11 | 2026-09-02 00:58:13 | 52.77961 | 10.83452 | 85° | 37km/h | 16950m | -17.1m/s | -49.2°C | 2.7% | 93.5hPa | 2.6V | 02:56:10 | 03:05:55 | 00:00:00 | |
| DL1XH1-15 | 2026-09-02 00:58:12 | 52.77959 | 10.83421 | 80° | 37km/h | 16983m | -17.5m/s | -49.4°C | 2.8% | 93hPa | 2.5V | 02:56:12 | 03:05:53 | 00:00:00 | |
| DL1XH-west | 2026-09-02 00:58:11 | 52.77963 | 10.83484 | 86° | 37km/h | 16916m | -17.1m/s | -49.1°C | 0% | 94hPa | 2.5V | 02:56:47 | 03:05:57 | 00:00:00 | |
| DB0DAN | 2026-09-02 00:58:10 | 52.77962 | 10.83468 | 85° | 35km/h | 16933m | -17m/s | -49.1°C | 0.5% | 93.74hPa | 2.5V | 00:00:00 | 00:00:00 | 00:00:00 | |
| DF8AY | 2026-09-02 00:58:09 | 52.77961 | 10.83437 | 82° | 37km/h | 16966m | -17.4m/s | -49.3°C | 0% | 93.2hPa | 2.6V | 02:56:47 | 03:05:54 | 00:00:00 | |
| AA1-15 | 2026-09-02 00:58:07 | 52.77959 | 10.83421 | 80° | 37km/h | 16983m | -17.5m/s | -49.4°C | 0% | 93hPa | 2.5V | 02:56:47 | 03:05:53 | 00:00:00 | |
| GOEST3-10 | 2026-09-02 00:58:06 | 52.77958 | 10.83406 | 78° | 33km/h | 17000m | -17.7m/s | -49.4°C | 2.8% | 92.7hPa | 2.5V | 00:00:00 | 00:00:00 | 00:00:00 | |
| DO2SHX-10 | 2026-09-02 00:58:05 | 52.77955 | 10.83392 | 74° | 35km/h | 17018m | -17.3m/s | -49.4°C | 2.8% | 92.5hPa | 2.5V | 02:56:00 | 03:05:51 | 00:00:00 | |
| DL4XJ-10 | 2026-09-02 00:58:04 | 52.77953 | 10.83378 | 73° | 37km/h | 17035m | -17.2m/s | -49.1°C | 0% | 0hPa | 2.5V | 00:00:00 | 00:00:00 | 00:00:00 | |
| DM0DOS-11 | 2026-09-02 00:58:03 | 52.77937 | 10.83318 | 58° | 31km/h | 17119m | -17.8m/s | -49.1°C | 2.7% | 91.1hPa | 2.5V | 02:56:20 | 03:05:45 | 00:00:00 | |
| DL1NUX | 2026-09-02 00:58:02 | 52.77928 | 10.83296 | 54° | 33km/h | 17153m | -17.7m/s | -49.3°C | 2.7% | 90.6hPa | 2.6V | 02:56:22 | 03:05:43 | 00:00:00 | |
| DO2SHX-10 | 2026-09-02 00:58:02 | 52.77947 | 10.83352 | 69° | 31km/h | 17068m | -17.1m/s | -49.1°C | 2.7% | 91.8hPa | 2.6V | 00:00:00 | 03:05:48 | 00:00:00 | |
| DL1XH-15 | 2026-09-02 00:58:01 | 52.77923 | 10.83285 | 51° | 33km/h | 17170m | -18m/s | -49.4°C | 2.7% | 90.4hPa | 2.6V | 02:56:23 | 03:05:42 | 00:00:00 | |
| DL1XH-west | 2026-09-02 00:58:00 | 52.77941 | 10.83329 | 61° | 31km/h | 17102m | -17.7m/s | -49°C | 0% | 91.3hPa | 2.5V | 02:56:47 | 03:05:46 | 00:00:00 | |
| BIOWL1-15 | 2026-09-02 00:57:59 | 52.77937 | 10.83318 | 59° | 31km/h | 17119m | -17.8m/s | -49.1°C | 0% | 91.1hPa | 2.5V | 02:56:47 | 03:05:45 | 00:00:00 | |
| DF8AY | 2026-09-02 00:57:57 | 52.77899 | 10.83243 | 43° | 38km/h | 17239m | -17.7m/s | -49.7°C | 0% | 89.5hPa | 2.6V | 02:56:47 | 03:05:38 | 00:00:00 | |
| AA1-15 | 2026-09-02 00:57:57 | 52.77928 | 10.83296 | 55° | 33km/h | 17153m | -17.7m/s | -49.3°C | 0% | 90.6hPa | 2.6V | 02:56:47 | 03:05:43 | 00:00:00 | |
| SMARD9-10 | 2026-09-02 00:57:56 | 52.77928 | 10.83296 | 56° | 33km/h | 17153m | -17.7m/s | -49.3°C | 0.5% | 90.6hPa | 2.5V | 00:00:00 | 00:00:00 | 00:00:00 | |
| DB0DAN | 2026-09-02 00:57:55 | 52.77917 | 10.83275 | 49° | 33km/h | 17188m | -17.9m/s | -49.4°C | 0.6% | 90.15hPa | 2.5V | 00:00:00 | 00:00:00 | 00:00:00 | |
| SP3WXH-11 | 2026-09-02 00:57:55 | 52.77912 | 10.83264 | 47° | 35km/h | 17206m | -18.0m/s | -49.5°C | 0.6% | 89.9hPa | 2.5V | 00:00:00 | 00:00:00 | 00:00:00 | |
| AM1SDL-15 | 2026-09-02 00:57:54 | 52.77912 | 10.83264 | 48° | 40km/h | 17206m | -18.0m/s | -49.4°C | 2.8% | 89.9hPa | 2.5V | 00:00:00 | 03:05:40 | 00:00:00 | |
| DM0DOS-11 | 2026-09-02 00:57:53 | 52.77876 | 10.83209 | 42° | 42km/h | 17291m | -18m/s | -49.8°C | 2.8% | 88.7hPa | 2.5V | 02:56:30 | 03:05:35 | 00:00:00 | |
| DL1NUX | 2026-09-02 00:57:52 | 52.77861 | 10.83184 | 45° | 44km/h | 17326m | -18.2m/s | -50.1°C | 2.9% | 88.3hPa | 2.6V | 02:56:32 | 03:05:33 | 00:00:00 | |
| DL3AQ-11 | 2026-09-02 00:57:52 | 52.77891 | 10.83232 | 43° | 38km/h | 17257m | -17.8m/s | -49.8°C | 0.6% | 89.2hPa | 2.5V | 00:00:00 | 00:00:00 | 00:00:00 | |
| GOEST3-10 | 2026-09-02 00:57:51 | 52.77891 | 10.83232 | 44° | 42km/h | 17257m | -17.8m/s | -49.8°C | 2.8% | 89.2hPa | 2.5V | 00:00:00 | 03:05:37 | 00:00:00 | |
| DL1XH-15 | 2026-09-02 00:57:50 | 52.77853 | 10.83171 | 48° | 42km/h | 17344m | -18.3m/s | -50.1°C | 2.9% | 88hPa | 2.5V | 02:56:33 | 03:05:32 | 00:00:00 | |
| DL1XH-west | 2026-09-02 00:57:50 | 52.77884 | 10.83220 | 43° | 40km/h | 17274m | -18.1m/s | -49.8°C | 0% | 89hPa | 2.5V | 02:56:47 | 03:05:36 | 00:00:00 | |
| AA1-15 | 2026-09-02 00:57:46 | 52.77853 | 10.83171 | 49° | 42km/h | 17344m | -18.3m/s | -50.1°C | 0% | 88hPa | 2.5V | 02:56:47 | 03:05:32 | 00:00:00 | |
| GOEST3-10 | 2026-09-02 00:57:46 | 52.77853 | 10.83171 | 49° | 44km/h | 17344m | -18.3m/s | -50.1°C | 2.9% | 88.0hPa | 2.5V | 00:00:00 | 00:00:00 | 00:00:00 | |
| DM0DOS-11 | 2026-09-02 00:57:44 | 52.77810 | 10.83063 | 66° | 44km/h | 17466m | -17.9m/s | -50.6°C | 3% | 86.4hPa | 2.5V | 02:56:40 | 03:05:25 | 00:00:00 | |
| DF8AY | 2026-09-02 00:57:42 | 52.77825 | 10.83112 | 58° | 44km/h | 17414m | -18.1m/s | -50.4°C | 0% | 87.1hPa | 2.6V | 02:56:47 | 03:05:28 | 00:00:00 | |
| DL1NUX | 2026-09-02 00:57:42 | 52.77802 | 10.83028 | 69° | 44km/h | 17500m | -17.7m/s | -50.6°C | 3% | 86hPa | 2.6V | 02:56:42 | 03:05:23 | 00:00:00 | |
| MECKS9 | 2026-09-02 00:57:41 | 52.77825 | 10.83112 | 59° | 44km/h | 17414m | -18.1m/s | -50.4°C | 0.6% | 87.1hPa | 2.5V | 02:56:00 | 00:00:00 | 00:00:00 | |
| DB0DAN | 2026-09-02 00:57:40 | 52.77814 | 10.83080 | 63° | 42km/h | 17449m | -17.8m/s | -50.6°C | 0.6% | 86.68hPa | 2.5V | 00:00:00 | 00:00:00 | 00:00:00 | |
| DL1XH-west | 2026-09-02 00:57:39 | 52.77810 | 10.83063 | 66° | 44km/h | 17466m | -17.9m/s | -50.7°C | 0% | 86.4hPa | 2.5V | 02:56:47 | 03:05:25 | 00:00:00 | |
| BIOWL1-15 | 2026-09-02 00:57:37 | 52.77795 | 10.82993 | 76° | 42km/h | 17535m | -17.7m/s | -50.6°C | 0% | 85.5hPa | 2.6V | 02:56:47 | 03:05:21 | 00:00:00 | |
| DL1XH-15 | 2026-09-02 00:57:37 | 52.77798 | 10.83011 | 72° | 42km/h | 17517m | -17.6m/s | -50.5°C | 2.9% | 85.7hPa | 2.6V | 02:56:43 | 03:05:22 | 00:00:00 | |
| AA1-15 | 2026-09-02 00:57:36 | 52.77798 | 10.83011 | 73° | 44km/h | 17517m | -17.6m/s | -50.6°C | 0% | 85.7hPa | 2.6V | 02:56:47 | 03:05:22 | 00:00:00 | |
| DF8AY | 2026-09-02 00:57:32 | 52.77789 | 10.82942 | 81° | 38km/h | 17586m | -18.6m/s | -50.7°C | 0% | 84.8hPa | 2.5V | 02:56:47 | 03:05:18 | 00:00:00 | |
| DO2SHX-10 | 2026-09-02 00:57:32 | 52.77788 | 10.82942 | 82° | 37km/h | 17587m | -18.6m/s | -50.6°C | 3.0% | 84.8hPa | 2.5V | 00:00:00 | 03:05:18 | 00:00:00 | |
| DM0DOS-11 | 2026-09-02 00:57:31 | 52.77785 | 10.82895 | 84° | 35km/h | 17640m | -18.8m/s | -50.6°C | 2.9% | 84.1hPa | 2.5V | 02:56:50 | 03:05:15 | 00:00:00 | |
| DL1XH-west | 2026-09-02 00:57:29 | 52.77785 | 10.82895 | 84° | 35km/h | 17640m | -18.8m/s | -50.6°C | 0% | 84.2hPa | 2.5V | 02:57:38 | 03:05:15 | 00:00:00 | |
| BIOWL1-15 | 2026-09-02 00:57:26 | 52.77783 | 10.82853 | 84° | 31km/h | 17693m | -18.5m/s | -50.8°C | 0% | 83.4hPa | 2.6V | 02:57:38 | 03:05:12 | 00:00:00 | |
| AA1-15 | 2026-09-02 00:57:25 | 52.77782 | 10.82839 | 85° | 31km/h | 17711m | -18.6m/s | -50.9°C | 0% | 83.2hPa | 2.5V | 02:57:38 | 03:05:11 | 00:00:00 | |
| DB0DAN | 2026-09-02 00:57:25 | 52.77782 | 10.82839 | 85° | 31km/h | 17711m | -18.6m/s | -50.9°C | 0.6% | 83.24hPa | 2.5V | 00:00:00 | 00:00:00 | 00:00:00 | |
| DF8AY | 2026-09-02 00:57:22 | 52.77779 | 10.82797 | 81° | 35km/h | 17764m | -18.8m/s | -50.7°C | 0% | 82.5hPa | 2.6V | 02:57:38 | 03:05:08 | 00:00:00 | |
| DL1NUX | 2026-09-02 00:57:22 | 52.77773 | 10.82716 | 81° | 44km/h | 17854m | -18.5m/s | -51°C | 3% | 81.4hPa | 2.5V | 02:57:02 | 03:05:03 | 00:00:00 | |
| DL1XH-west | 2026-09-02 00:57:19 | 52.77773 | 10.82716 | 82° | 44km/h | 17854m | -18.5m/s | -51°C | 0% | 81.4hPa | 2.5V | 02:57:38 | 03:05:03 | 00:00:00 | |
| BIOWL1-15 | 2026-09-02 00:57:15 | 52.77766 | 10.82584 | 86° | 40km/h | 17980m | -18.9m/s | -51.7°C | 0% | 79.9hPa | 2.6V | 02:57:38 | 03:04:56 | 00:00:00 | |
| AA1-15 | 2026-09-02 00:57:14 | 52.77769 | 10.82659 | 85° | 44km/h | 17908m | -18.9m/s | -51.3°C | 0% | 80.8hPa | 2.6V | 02:57:38 | 03:05:00 | 00:00:00 | |
| DO2SHX-10 | 2026-09-02 00:57:14 | 52.77769 | 10.82659 | 85° | 44km/h | 17908m | -18.8m/s | -51.3°C | 3.1% | 80.7hPa | 2.5V | 00:00:00 | 03:05:00 | 00:00:00 | |
| DM0DOS-11 | 2026-09-02 00:57:13 | 52.77765 | 10.82550 | 88° | 38km/h | 18017m | -19m/s | -51.6°C | 3.2% | 79.4hPa | 2.5V | 02:57:11 | 03:04:54 | 00:00:00 | |
| DD8BA-10 | 2026-09-02 00:57:13 | 52.77768 | 10.82640 | 86° | 40km/h | 17926m | -18.7m/s | -51.4°C | 3.1% | 80.5hPa | 2.5V | 00:00:00 | 00:00:00 | 00:00:00 | |
| DL1NUX | 2026-09-02 00:57:12 | 52.77765 | 10.82534 | 90° | 38km/h | 18035m | -18.8m/s | -51.6°C | 3.2% | 79.2hPa | 2.5V | 02:57:12 | 03:04:53 | 00:00:00 | |
| DF8AY | 2026-09-02 00:57:11 | 52.77767 | 10.82602 | 85° | 42km/h | 17962m | -18.6m/s | -51.6°C | 0% | 80.1hPa | 2.5V | 02:57:38 | 03:04:57 | 00:00:00 | |
| DL1XH-15 | 2026-09-02 00:57:11 | 52.77766 | 10.82517 | 92° | 38km/h | 18053m | -18.9m/s | -51.6°C | 3.2% | 79hPa | 2.6V | 02:57:13 | 03:04:52 | 00:00:00 | |
| DB0DAN | 2026-09-02 00:57:10 | 52.77766 | 10.82584 | 86° | 38km/h | 17980m | -18.9m/s | -51.7°C | 0.6% | 79.86hPa | 2.6V | 00:00:00 | 00:00:00 | 00:00:00 | |
| DL1XH-west | 2026-09-02 00:57:07 | 52.77765 | 10.82534 | 91° | 38km/h | 18035m | -18.8m/s | -51.6°C | 0% | 79.2hPa | 2.5V | 02:57:38 | 03:04:53 | 00:00:00 | |
| AA1-15 | 2026-09-02 00:57:03 | 52.77767 | 10.82467 | 94° | 40km/h | 18109m | -19m/s | -51.3°C | 0% | 78.3hPa | 2.5V | 02:57:38 | 03:04:49 | 00:00:00 | |
| DD8BA-10 | 2026-09-02 00:57:03 | 52.77767 | 10.82467 | 94° | 42km/h | 18109m | -19.0m/s | -51.2°C | 3.1% | 78.3hPa | 2.5V | 02:57:00 | 00:00:00 | 00:00:00 | |
| DL1NUX | 2026-09-02 00:57:02 | 52.77771 | 10.82361 | 91° | 42km/h | 18218m | -19.2m/s | -51.6°C | 3.3% | 77hPa | 2.5V | 02:57:22 | 03:04:43 | 00:00:00 | |
| DO2SHX-10 | 2026-09-02 00:57:02 | 52.77768 | 10.82450 | 94° | 40km/h | 18127m | -18.8m/s | -51.2°C | 3.1% | 78.0hPa | 2.5V | 02:57:00 | 03:04:48 | 00:00:00 | |
| DL1XH-15 | 2026-09-02 00:57:01 | 52.77771 | 10.82343 | 91° | 42km/h | 18236m | -19m/s | -51.6°C | 3.3% | 76.8hPa | 2.5V | 02:57:23 | 03:04:42 | 00:00:00 | |
| DF8AY | 2026-09-02 00:57:00 | 52.77769 | 10.82415 | 93° | 42km/h | 18163m | -18.6m/s | -51.5°C | 0% | 77.7hPa | 2.6V | 02:57:38 | 03:04:46 | 00:00:00 | |
| BIOWL1-15 | 2026-09-02 00:57:00 | 52.77771 | 10.82325 | 91° | 40km/h | 18255m | -19.3m/s | -51.7°C | 0% | 76.6hPa | 2.6V | 02:57:38 | 03:04:41 | 00:00:00 | |
| DL1XH-west | 2026-09-02 00:56:56 | 52.77771 | 10.82343 | 92° | 42km/h | 18236m | -19m/s | -51.7°C | 0% | 76.8hPa | 2.5V | 02:57:38 | 03:04:42 | 00:00:00 | |
| DF7PN | 2026-09-02 00:56:56 | 52.77769 | 10.82222 | 83° | 40km/h | 18367m | -19.2m/s | -51.5°C | 0.6% | 75.3hPa | 2.6V | 00:00:00 | 00:00:00 | 00:00:00 | |
| DB0DAN | 2026-09-02 00:56:55 | 52.77771 | 10.82325 | 91° | 38km/h | 18255m | -19.3m/s | -51.7°C | 0.6% | 76.57hPa | 2.6V | 00:00:00 | 00:00:00 | 00:00:00 | |
| HSKMA3-T | 2026-09-02 00:56:54 | 52.77771 | 10.82308 | 90° | 42km/h | 18274m | -19m/s | -51.8°C | 0% | 76.4hPa | 2.6V | 02:57:38 | 03:04:40 | 00:00:00 | |
| AA1-15 | 2026-09-02 00:56:53 | 52.77771 | 10.82291 | 90° | 40km/h | 18292m | -19.1m/s | -51.8°C | 0% | 76.1hPa | 2.6V | 02:57:38 | 03:04:39 | 00:00:00 | |
| SP3WXH-11 | 2026-09-02 00:56:53 | 52.77771 | 10.82273 | 89° | 40km/h | 18311m | -19.3m/s | -51.8°C | 0.7% | 75.9hPa | 2.5V | 00:00:00 | 00:00:00 | 00:00:00 | |
| DL1NUX | 2026-09-02 00:56:52 | 52.77766 | 10.82188 | 80° | 40km/h | 18405m | -19.7m/s | -51.5°C | 3.4% | 74.8hPa | 2.5V | 02:57:32 | 03:04:33 | 00:00:00 | |
| DL1XH-15 | 2026-09-02 00:56:51 | 52.77765 | 10.82171 | 78° | 37km/h | 18423m | -19.4m/s | -51.4°C | 3.3% | 74.6hPa | 2.5V | 02:57:33 | 03:04:32 | 00:00:00 | |
| DF8AY | 2026-09-02 00:56:50 | 52.77760 | 10.82142 | 76° | 37km/h | 18461m | -19.6m/s | -51.3°C | 0% | 74.2hPa | 2.6V | 02:57:38 | 03:04:30 | 00:00:00 | |
| BIOWL1-15 | 2026-09-02 00:56:47 | 52.77766 | 10.82188 | 80° | 40km/h | 18405m | -19.7m/s | -51.5°C | 0% | 74.8hPa | 2.5V | 02:57:38 | 03:04:33 | 00:00:00 | |
| DL1XH-west | 2026-09-02 00:56:46 | 52.77762 | 10.82157 | 76° | 35km/h | 18442m | -19.4m/s | -51.4°C | 0% | 74.4hPa | 2.6V | 02:57:38 | 03:04:31 | 00:00:00 | |
| HSKMA3-T | 2026-09-02 00:56:43 | 52.77758 | 10.82127 | 76° | 35km/h | 18480m | -19.8m/s | -51.2°C | 0% | 74hPa | 2.5V | 02:57:38 | 03:04:29 | 00:00:00 | |
| AA1-15 | 2026-09-02 00:56:42 | 52.77756 | 10.82114 | 77° | 33km/h | 18499m | -20m/s | -51.1°C | 0% | 73.8hPa | 2.5V | 02:57:38 | 03:04:28 | 00:00:00 | |
| TFSTFS | 2026-09-02 00:56:41 | 52.77756 | 10.82114 | 78° | 33km/h | 18499m | -20.0m/s | -51.1°C | 0.6% | 73.8hPa | 2.6V | 02:57:00 | 00:00:00 | 00:00:00 | |
| DB0DAN | 2026-09-02 00:56:40 | 52.77753 | 10.82087 | 83° | 31km/h | 18537m | -19.7m/s | -50.7°C | 0.6% | 73.33hPa | 2.6V | 00:00:00 | 00:00:00 | 00:00:00 | |
| DF8AY | 2026-09-02 00:56:39 | 52.77752 | 10.82073 | 83° | 33km/h | 18556m | -19.9m/s | -50.4°C | 0% | 73.2hPa | 2.6V | 02:58:29 | 03:04:25 | 00:00:00 | |
| DO2SHX-10 | 2026-09-02 00:56:38 | 52.77751 | 10.82059 | 81° | 33km/h | 18575m | -20.1m/s | -50.2°C | 3.1% | 72.8hPa | 2.5V | 00:00:00 | 03:04:24 | 00:00:00 | |
| DL1XH-15 | 2026-09-02 00:56:37 | 52.77747 | 10.82031 | 78° | 33km/h | 18614m | -20.4m/s | -49.9°C | 3% | 72.5hPa | 2.5V | 02:57:43 | 03:04:22 | 00:00:00 | |
| DL1XH-west | 2026-09-02 00:56:35 | 52.77746 | 10.82018 | 79° | 33km/h | 18634m | -19.5m/s | -49.6°C | 0% | 72.3hPa | 2.5V | 02:58:29 | 03:04:21 | 00:00:00 | |
| HSKMA3-T | 2026-09-02 00:56:32 | 52.77740 | 10.81977 | 77° | 31km/h | 18692m | -19.5m/s | -49.4°C | 0% | 71.7hPa | 2.6V | 02:58:29 | 03:04:18 | 00:00:00 | |
| DF8AY | 2026-09-02 00:56:28 | 52.77733 | 10.81929 | 78° | 26km/h | 18768m | -20m/s | -49.8°C | 0% | 70.8hPa | 2.6V | 02:58:29 | 03:04:14 | 00:00:00 | |
| DB0DAN | 2026-09-02 00:56:25 | 52.77730 | 10.81900 | 76° | 20km/h | 18826m | -20.3m/s | -49.7°C | 0.5% | 70.21hPa | 2.5V | 00:00:00 | 00:00:00 | 00:00:00 | |
| BIOWL1-15 | 2026-09-02 00:56:25 | 52.77730 | 10.81900 | 76° | 20km/h | 18826m | -20.3m/s | -49.7°C | 0% | 70.2hPa | 2.5V | 02:58:29 | 03:04:11 | 00:00:00 | |
| DL1XH-west | 2026-09-02 00:56:25 | 52.77728 | 10.81892 | 74° | 18km/h | 18845m | -19.9m/s | -49.7°C | 0% | 70hPa | 2.6V | 02:58:29 | 03:04:10 | 00:00:00 | |
| HSKMA3-T | 2026-09-02 00:56:22 | 52.77726 | 10.81876 | 75° | 18km/h | 18885m | -20.6m/s | -49.7°C | 0% | 69.5hPa | 2.5V | 02:58:29 | 03:04:08 | 00:00:00 | |
| AA1-15 | 2026-09-02 00:56:21 | 52.77725 | 10.81868 | 75° | 18km/h | 18905m | -20.2m/s | -49.6°C | 0% | 69.3hPa | 2.5V | 02:58:29 | 03:04:07 | 00:00:00 | |
| DL1XH-15 | 2026-09-02 00:56:21 | 52.77714 | 10.81822 | 66° | 26km/h | 19002m | -20.5m/s | -49.3°C | 2.8% | 68.3hPa | 2.5V | 02:58:03 | 03:04:02 | 00:00:00 | |
| DF8AY | 2026-09-02 00:56:18 | 52.77719 | 10.81842 | 70° | 24km/h | 18963m | -20.5m/s | -49.4°C | 0% | 68.7hPa | 2.6V | 02:58:29 | 03:04:04 | 00:00:00 | |
| BIOWL1-15 | 2026-09-02 00:56:14 | 52.77703 | 10.81782 | 63° | 22km/h | 19082m | -20.9m/s | -49.6°C | 0% | 67.5hPa | 2.6V | 02:58:29 | 03:03:58 | 00:00:00 | |
| DL1XH-west | 2026-09-02 00:56:13 | 52.77706 | 10.81792 | 65° | 27km/h | 19062m | -20.8m/s | -49.5°C | 0% | 67.7hPa | 2.6V | 02:58:29 | 03:03:59 | 00:00:00 | |
| DD8BA-10 | 2026-09-02 00:56:13 | 52.77706 | 10.81792 | 66° | 22km/h | 19062m | -20.8m/s | -49.4°C | 2.8% | 67.7hPa | 2.6V | 00:00:00 | 00:00:00 | 00:00:00 | |
| DL1XH-15 | 2026-09-02 00:56:11 | 52.77684 | 10.81733 | 52° | 22km/h | 19204m | -21.1m/s | -49.6°C | 2.7% | 66.2hPa | 2.6V | 02:58:13 | 03:03:52 | 00:00:00 | |
| HSKMA3-T | 2026-09-02 00:56:11 | 52.77700 | 10.81773 | 64° | 26km/h | 19102m | -21.2m/s | -49.6°C | 0% | 67.3hPa | 2.6V | 02:58:29 | 03:03:57 | 00:00:00 | |
| DB0DAN | 2026-09-02 00:56:10 | 52.77697 | 10.81764 | 59° | 22km/h | 19123m | -21.8m/s | -49.7°C | 0.6% | 67.06hPa | 2.5V | 00:00:00 | 00:00:00 | 00:00:00 | |
| AA1-15 | 2026-09-02 00:56:10 | 52.77697 | 10.81764 | 59° | 22km/h | 19123m | -21.8m/s | -49.7°C | 0% | 67.1hPa | 2.5V | 02:58:29 | 03:03:56 | 00:00:00 | |
| DF8AY | 2026-09-02 00:56:07 | 52.77688 | 10.81740 | 47° | 20km/h | 19184m | -21.2m/s | -49.4°C | 0% | 66.5hPa | 2.6V | 02:58:29 | 03:03:53 | 00:00:00 | |
| BIOWL1-15 | 2026-09-02 00:56:06 | 52.77677 | 10.81720 | 39° | 20km/h | 19245m | -20.5m/s | -49.9°C | 0% | 65.8hPa | 2.5V | 02:58:29 | 03:03:50 | 00:00:00 | |
| DL1XH-west | 2026-09-02 00:56:02 | 52.77668 | 10.81708 | 33° | 22km/h | 19285m | -20.6m/s | -50.1°C | 0% | 65.4hPa | 2.5V | 02:58:29 | 03:03:48 | 00:00:00 | |
| DL1NUX | 2026-09-02 00:56:02 | 52.77648 | 10.81684 | 30° | 15km/h | 19386m | -20.9m/s | -50.8°C | 2.9% | 64.4hPa | 2.6V | 02:58:22 | 03:03:43 | 00:00:00 | |
| HSKMA3-T | 2026-09-02 00:56:01 | 52.77664 | 10.81703 | 40° | 22km/h | 19305m | -21.1m/s | -50.2°C | 0% | 65.3hPa | 2.6V | 02:58:29 | 03:03:47 | 00:00:00 | |
| AA1-15 | 2026-09-02 00:55:59 | 52.77655 | 10.81693 | 37° | 18km/h | 19346m | -20.9m/s | -50.5°C | 0% | 64.9hPa | 2.5V | 02:58:29 | 03:03:45 | 00:00:00 | |
| DF8AY | 2026-09-02 00:55:57 | 52.77648 | 10.81684 | 30° | 15km/h | 19386m | -20.9m/s | -50.8°C | 0% | 64.4hPa | 2.6V | 02:58:29 | 03:03:43 | 00:00:00 | |
| 13BRC | 2026-09-02 00:55:57 | 52.77648 | 10.81684 | 31° | 15km/h | 19386m | -20.9m/s | -50.8°C | 0.6% | 64.4hPa | 2.5V | 00:00:00 | 00:00:00 | 00:00:00 | |
| DB0DAN | 2026-09-02 00:55:55 | 52.77642 | 10.81676 | 30° | 13km/h | 19427m | -21.2m/s | -51.1°C | 0.6% | 64.06hPa | 2.5V | 00:00:00 | 00:00:00 | 00:00:00 | |
| DL1XH-west | 2026-09-02 00:55:52 | 52.77634 | 10.81664 | 35° | 13km/h | 19488m | -20.5m/s | -51.4°C | 0% | 63.4hPa | 2.6V | 02:58:29 | 03:03:38 | 00:00:00 | |
| DL1NUX | 2026-09-02 00:55:52 | 52.77623 | 10.81645 | 35° | 11km/h | 19588m | -20.5m/s | -51.4°C | 2.9% | 62.5hPa | 2.6V | 02:58:32 | 03:03:33 | 00:00:00 | |
| DL3AQ-11 | 2026-09-02 00:55:52 | 52.77632 | 10.81660 | 47° | 13km/h | 19508m | -21.2m/s | 0°C | -1.0% | -1.0hPa | 2.6V | 00:00:00 | 00:00:00 | 00:00:00 | |
| DL1XH-15 | 2026-09-02 00:55:51 | 52.77621 | 10.81641 | 45° | 13km/h | 19608m | -21.2m/s | -51.5°C | 3% | 62.3hPa | 2.6V | 02:58:33 | 03:03:32 | 00:00:00 | |
| HSKMA3-T | 2026-09-02 00:55:51 | 52.77632 | 10.81660 | 47° | 13km/h | 19508m | -21.2m/s | -51.4°C | 0% | 63.2hPa | 2.5V | 02:58:29 | 03:03:37 | 00:00:00 | |
| AA1-15 | 2026-09-02 00:55:48 | 52.77625 | 10.81648 | 47° | 13km/h | 19568m | -20.9m/s | -51.3°C | 0% | 62.7hPa | 2.6V | 02:59:20 | 03:03:34 | 00:00:00 | |
| DF8AY | 2026-09-02 00:55:46 | 52.77619 | 10.81638 | 31° | 11km/h | 19629m | -21m/s | -51.6°C | 0% | 62.1hPa | 2.5V | 02:59:20 | 03:03:31 | 00:00:00 | |
| GOEST3-10 | 2026-09-02 00:55:46 | 52.77621 | 10.81641 | 46° | 13km/h | 19608m | -21.2m/s | -51.4°C | 3.0% | 62.2hPa | 2.5V | 00:00:00 | 00:00:00 | 00:00:00 | |
| DO2SHX-10 | 2026-09-02 00:55:44 | 52.77617 | 10.81635 | 46° | 13km/h | 19649m | -21.3m/s | -51.7°C | 3.1% | 61.9hPa | 2.5V | 00:00:00 | 03:03:30 | 00:00:00 | |
| DM0DOS-11 | 2026-09-02 00:55:43 | 52.77600 | 10.81607 | 44° | 18km/h | 19771m | -21.3m/s | -52.6°C | 3.3% | 60.7hPa | 2.5V | 02:58:41 | 03:03:24 | 00:00:00 | |
| DL1XH-west | 2026-09-02 00:55:42 | 52.77612 | 10.81627 | 48° | 15km/h | 19690m | -20.9m/s | -52°C | 0% | 61.5hPa | 2.6V | 02:59:20 | 03:03:28 | 00:00:00 | |
| SP6BVK | 2026-09-02 00:55:42 | 52.77614 | 10.81631 | 41° | 11km/h | 19670m | -21.3m/s | -51.9°C | 0.6% | 61.7hPa | 2.6V | 02:59:00 | 00:00:00 | 00:00:00 | |
| DL1XH-15 | 2026-09-02 00:55:41 | 52.77593 | 10.81593 | 42° | 24km/h | 19811m | -21.4m/s | -52.9°C | 3.4% | 60.4hPa | 2.6V | 02:58:43 | 03:03:22 | 00:00:00 | |
| HSKMA3-T | 2026-09-02 00:55:40 | 52.77607 | 10.81618 | 44° | 16km/h | 19730m | -20.8m/s | -52.3°C | 0% | 61.1hPa | 2.6V | 02:59:20 | 03:03:26 | 00:00:00 | |
| DB0DAN | 2026-09-02 00:55:40 | 52.77607 | 10.81618 | 44° | 15km/h | 19730m | -20.8m/s | -52.3°C | 0.6% | 61.14hPa | 2.6V | 00:00:00 | 00:00:00 | 00:00:00 | |
| AA1-15 | 2026-09-02 00:55:38 | 52.77600 | 10.81607 | 44° | 18km/h | 19771m | -21.3m/s | -52.6°C | 0% | 60.7hPa | 2.5V | 02:59:20 | 03:03:24 | 00:00:00 | |
| DF8AY | 2026-09-02 00:55:34 | 52.77584 | 10.81577 | 44° | 26km/h | 19853m | -21.7m/s | -53.1°C | 0% | 60hPa | 2.6V | 02:59:20 | 03:03:20 | 00:00:00 | |
| DM0DOS-11 | 2026-09-02 00:55:33 | 52.77556 | 10.81537 | 44° | 22km/h | 19978m | -22.1m/s | -52.8°C | 3.4% | 58.9hPa | 2.6V | 02:58:51 | 03:03:14 | 00:00:00 | |
| DL1XH-west | 2026-09-02 00:55:32 | 52.77575 | 10.81563 | 41° | 26km/h | 19894m | -21.9m/s | -53.2°C | 0% | 59.6hPa | 2.5V | 02:59:20 | 03:03:18 | 00:00:00 | |
| HSKMA3-T | 2026-09-02 00:55:29 | 52.77560 | 10.81543 | 37° | 22km/h | 19957m | -21.8m/s | -53°C | 0% | 59hPa | 2.6V | 02:59:20 | 03:03:15 | 00:00:00 | |
| AA1-15 | 2026-09-02 00:55:27 | 52.77552 | 10.81530 | 42° | 22km/h | 19999m | -22.1m/s | -52.7°C | 0% | 58.7hPa | 2.5V | 02:59:20 | 03:03:13 | 00:00:00 | |
| DB0DAN | 2026-09-02 00:55:25 | 52.77544 | 10.81515 | 53° | 24km/h | 20042m | -21.6m/s | -52.9°C | 0.7% | 58.27hPa | 2.5V | 00:00:00 | 00:00:00 | 00:00:00 | |
| DF8AY | 2026-09-02 00:55:23 | 52.77523 | 10.81440 | 69° | 33km/h | 20188m | -22m/s | -52.8°C | 0% | 56.9hPa | 2.5V | 02:59:20 | 03:03:04 | 00:00:00 | |
| DM0DOS-11 | 2026-09-02 00:55:23 | 52.77523 | 10.81440 | 69° | 33km/h | 20188m | -22m/s | -52.8°C | 3.4% | 56.9hPa | 2.5V | 02:59:01 | 03:03:04 | 00:00:00 | |
| DL1XH-west | 2026-09-02 00:55:21 | 52.77532 | 10.81477 | 68° | 31km/h | 20125m | -22m/s | -52.7°C | 0% | 57.5hPa | 2.5V | 02:59:20 | 03:03:07 | 00:00:00 | |
| DL1XH-15 | 2026-09-02 00:55:21 | 52.77517 | 10.81413 | 73° | 35km/h | 20230m | -21.9m/s | -53.1°C | 3.5% | 56.6hPa | 2.6V | 02:59:03 | 03:03:02 | 00:00:00 | |
| HSKMA3-T | 2026-09-02 00:55:19 | 52.77525 | 10.81453 | 69° | 33km/h | 20167m | -21.7m/s | -52.6°C | 0% | 57.2hPa | 2.6V | 02:59:20 | 03:03:05 | 00:00:00 | |
| BIOWL1-15 | 2026-09-02 00:55:19 | 52.77505 | 10.81290 | 78° | 29km/h | 20423m | -22.7m/s | -52.9°C | 0% | 54.9hPa | 2.6V | 02:59:20 | 03:02:53 | 00:00:00 | |
| AA1-15 | 2026-09-02 00:55:16 | 52.77517 | 10.81412 | 73° | 35km/h | 20230m | -21.9m/s | -53.1°C | 0% | 56.6hPa | 2.6V | 02:59:20 | 03:03:02 | 00:00:00 | |
| GOEST3-10 | 2026-09-02 00:55:16 | 52.77517 | 10.81412 | 74° | 35km/h | 20231m | -21.9m/s | -53.0°C | 3.5% | 56.5hPa | 2.5V | 00:00:00 | 00:00:00 | 00:00:00 | |
| DO2SHX-10 | 2026-09-02 00:55:14 | 52.77512 | 10.81384 | 79° | 35km/h | 20273m | -22.2m/s | -53.2°C | 3.6% | 56.2hPa | 2.5V | 02:59:00 | 03:03:00 | 00:00:00 | |
| DD8BA-10 | 2026-09-02 00:55:13 | 52.77511 | 10.81369 | 82° | 29km/h | 20294m | -22.2m/s | -53.2°C | 3.6% | 56.0hPa | 2.5V | 00:00:00 | 00:00:00 | 00:00:00 | |
| DM0DOS-11 | 2026-09-02 00:55:12 | 52.77507 | 10.81302 | 84° | 27km/h | 20402m | -22.2m/s | -52.9°C | 3.5% | 55.1hPa | 2.5V | 02:59:11 | 03:02:54 | 00:00:00 | |
| DL1NUX | 2026-09-02 00:55:12 | 52.77505 | 10.81290 | 78° | 29km/h | 20423m | -22.7m/s | -52.9°C | 3.5% | 54.9hPa | 2.6V | 02:59:12 | 03:02:53 | 00:00:00 | |
| DF8AY | 2026-09-02 00:55:11 | 52.77509 | 10.81341 | 86° | 31km/h | 20337m | -22.6m/s | -52.9°C | 0% | 55.7hPa | 2.6V | 02:59:20 | 03:02:57 | 00:00:00 | |
| DL1XH-west | 2026-09-02 00:55:10 | 52.77508 | 10.81327 | 88° | 33km/h | 20359m | -22.5m/s | -52.9°C | 0% | 55.5hPa | 2.5V | 02:59:20 | 03:02:56 | 00:00:00 | |
| HSKMA3-T | 2026-09-02 00:55:08 | 52.77507 | 10.81302 | 84° | 27km/h | 20402m | -22.2m/s | -52.9°C | 0% | 55.1hPa | 2.5V | 02:59:20 | 03:02:54 | 00:00:00 | |
| AA1-15 | 2026-09-02 00:55:06 | 52.77504 | 10.81279 | 78° | 26km/h | 20445m | -22m/s | -52.7°C | 0% | 54.8hPa | 2.6V | 02:59:20 | 03:02:52 | 00:00:00 | |
| GOEST3-10 | 2026-09-02 00:55:06 | 52.77504 | 10.81279 | 78° | 26km/h | 20445m | -21.9m/s | -52.7°C | 3.5% | 54.7hPa | 2.5V | 00:00:00 | 00:00:00 | 00:00:00 | |
| SONDE2-11 | 2026-09-02 00:55:05 | 52.77501 | 10.81257 | 72° | 22km/h | 20489m | -22.7m/s | -52.5°C | 0.7% | 54.4hPa | 2.5V | 00:00:00 | 00:00:00 | 00:00:00 | |
| 13BRC | 2026-09-02 00:55:04 | 52.77501 | 10.81257 | 74° | 24km/h | 20489m | -22.7m/s | -52.5°C | 0.7% | 54.4hPa | 2.5V | 02:59:00 | 00:00:00 | 00:00:00 | |
| DD8BA-10 | 2026-09-02 00:55:03 | 52.77499 | 10.81247 | 78° | 26km/h | 20511m | -22.8m/s | -52.4°C | 3.5% | 54.2hPa | 2.5V | 02:59:00 | 00:00:00 | 00:00:00 | |
| DM0DOS-11 | 2026-09-02 00:55:02 | 52.77491 | 10.81193 | 78° | 27km/h | 20621m | -23.2m/s | -52.5°C | 3.5% | 53.3hPa | 2.5V | 02:59:21 | 03:02:44 | 00:00:00 | |
| DL1NUX | 2026-09-02 00:55:02 | 52.77490 | 10.81182 | 79° | 24km/h | 20643m | -22.6m/s | -52.4°C | 3.5% | 53.1hPa | 2.5V | 02:59:22 | 03:02:43 | 00:00:00 | |
| DF8AY | 2026-09-02 00:55:01 | 52.77496 | 10.81227 | 79° | 27km/h | 20555m | -22.7m/s | -52.5°C | 0% | 53.8hPa | 2.6V | 02:59:20 | 03:02:47 | 00:00:00 | |
| DL1XH-west | 2026-09-02 00:54:59 | 52.77493 | 10.81205 | 79° | 27km/h | 20599m | -22.6m/s | -52.5°C | 0% | 53.5hPa | 2.6V | 02:59:20 | 03:02:45 | 00:00:00 | |
| HSKMA3-T | 2026-09-02 00:54:58 | 52.77491 | 10.81193 | 79° | 27km/h | 20621m | -23.2m/s | -52.5°C | 0% | 53.3hPa | 2.5V | 03:00:11 | 03:02:44 | 00:00:00 | |
| BIOWL1-15 | 2026-09-02 00:54:56 | 52.77489 | 10.81172 | 78° | 27km/h | 20665m | -22.9m/s | -52.4°C | 0% | 52.9hPa | 2.5V | 03:00:11 | 03:02:42 | 00:00:00 | |
| DB0DAN | 2026-09-02 00:54:55 | 52.77487 | 10.81161 | 76° | 22km/h | 20687m | -22.4m/s | -52.3°C | 0.7% | 52.78hPa | 2.6V | 00:00:00 | 00:00:00 | 00:00:00 | |
| AA1-15 | 2026-09-02 00:54:55 | 52.77487 | 10.81161 | 76° | 22km/h | 20687m | -22.4m/s | -52.3°C | 0% | 52.8hPa | 2.6V | 03:00:11 | 03:02:41 | 00:00:00 | |
| DD8BA-10 | 2026-09-02 00:54:53 | 52.77484 | 10.81142 | 69° | 20km/h | 20731m | -22.9m/s | -52.0°C | 3.4% | 52.4hPa | 2.6V | 00:00:00 | 00:00:00 | 00:00:00 | |
| DM0DOS-11 | 2026-09-02 00:54:52 | 52.77477 | 10.81098 | 83° | 18km/h | 20843m | -22.9m/s | -51.8°C | 3.3% | 51.5hPa | 2.6V | 02:59:31 | 03:02:34 | 00:00:00 | |
| BUE01 | 2026-09-02 00:54:52 | 52.77481 | 10.81124 | 75° | 20km/h | 20776m | -22.9m/s | -51.8°C | 0.6% | 52.0hPa | 2.5V | 00:00:00 | 00:00:00 | 00:00:00 | |
| DL1XH-15 | 2026-09-02 00:54:51 | 52.77476 | 10.81082 | 90° | 16km/h | 20887m | -23.1m/s | -51.5°C | 3.2% | 51.1hPa | 2.5V | 02:59:33 | 03:02:32 | 00:00:00 | |
| DF8AY | 2026-09-02 00:54:50 | 52.77479 | 10.81115 | 83° | 22km/h | 20798m | -23.3m/s | -51.8°C | 0% | 51.9hPa | 2.5V | 03:00:11 | 03:02:36 | 00:00:00 | |
| DL1XH-west | 2026-09-02 00:54:49 | 52.77478 | 10.81106 | 76° | 20km/h | 20821m | -23.1m/s | -51.8°C | 0% | 51.7hPa | 2.6V | 03:00:11 | 03:02:35 | 00:00:00 | |
| HSKMA3-T | 2026-09-02 00:54:47 | 52.77477 | 10.81090 | 82° | 18km/h | 20865m | -23.5m/s | -51.6°C | 0% | 51.4hPa | 2.6V | 03:00:11 | 03:02:33 | 00:00:00 | |
| BIOWL1-15 | 2026-09-02 00:54:46 | 52.77476 | 10.81073 | 92° | 22km/h | 20910m | -23.9m/s | -51.7°C | 0% | 51hPa | 2.5V | 03:00:11 | 03:02:31 | 00:00:00 | |
| AA1-15 | 2026-09-02 00:54:44 | 52.77476 | 10.81064 | 97° | 20km/h | 20933m | -23.3m/s | -51.8°C | 0% | 50.8hPa | 2.5V | 03:00:11 | 03:02:30 | 00:00:00 | |
| DO2SHX-10 | 2026-09-02 00:54:44 | 52.77476 | 10.81064 | 98° | 22km/h | 20933m | -23.2m/s | -51.7°C | 3.3% | 50.7hPa | 2.6V | 00:00:00 | 03:02:30 | 00:00:00 | |
| DD8BA-10 | 2026-09-02 00:54:43 | 52.77477 | 10.81055 | 100° | 26km/h | 20956m | -23.4m/s | -51.8°C | 3.3% | 50.6hPa | 2.6V | 00:00:00 | 00:00:00 | 00:00:00 | |
| DL1NUX | 2026-09-02 00:54:42 | 52.77489 | 10.80994 | 116° | 26km/h | 21093m | -23.7m/s | -51.7°C | 3.3% | 49.5hPa | 2.6V | 02:59:42 | 03:02:23 | 00:00:00 | |
| DK7RCA | 2026-09-02 00:54:41 | 52.77478 | 10.81045 | 105° | 22km/h | 20978m | -23.1m/s | -51.8°C | 0.7% | 50.5hPa | 2.5V | 00:00:00 | 00:00:00 | 00:00:00 | |
| DB0DAN | 2026-09-02 00:54:40 | 52.77482 | 10.81025 | 109° | 24km/h | 21024m | -23.8m/s | -51.7°C | 0.6% | 50.09hPa | 2.5V | 00:00:00 | 00:00:00 | 00:00:00 | |
| DF8AY | 2026-09-02 00:54:40 | 52.77482 | 10.81025 | 109° | 24km/h | 21024m | -23.8m/s | -51.7°C | 0% | 50.1hPa | 2.5V | 03:00:11 | 03:02:26 | 00:00:00 | |
| DL1XH-west | 2026-09-02 00:54:38 | 52.77487 | 10.81004 | 114° | 26km/h | 21070m | -23.8m/s | -51.7°C | 0% | 49.8hPa | 2.5V | 03:00:11 | 03:02:24 | 00:00:00 | |
| HSKMA3-T | 2026-09-02 00:54:36 | 52.77492 | 10.80984 | 110° | 24km/h | 21117m | -23.5m/s | -51.8°C | 0% | 49.4hPa | 2.6V | 03:00:11 | 03:02:22 | 00:00:00 | |
| BIOWL1-15 | 2026-09-02 00:54:35 | 52.77499 | 10.80937 | 92° | 18km/h | 21230m | -23.4m/s | -51.7°C | 0% | 48.5hPa | 2.6V | 03:00:11 | 03:02:17 | 00:00:00 | |
| AA1-15 | 2026-09-02 00:54:33 | 52.77498 | 10.80955 | 101° | 20km/h | 21185m | -23.5m/s | -51.8°C | 0% | 48.9hPa | 2.5V | 03:00:11 | 03:02:19 | 00:00:00 | |
| DD8BA-10 | 2026-09-02 00:54:33 | 52.77497 | 10.80955 | 102° | 18km/h | 21185m | -23.4m/s | -51.7°C | 3.3% | 48.8hPa | 2.5V | 02:59:00 | 00:00:00 | 00:00:00 | |
| DO2SHX-10 | 2026-09-02 00:54:32 | 52.77498 | 10.80945 | 95° | 20km/h | 21208m | -23.8m/s | -51.7°C | 3.3% | 48.7hPa | 2.5V | 00:00:00 | 03:02:18 | 00:00:00 | |
| DL1XH-15 | 2026-09-02 00:54:31 | 52.77496 | 10.80896 | 78° | 18km/h | 21346m | -24.5m/s | -51.8°C | 3.3% | 47.7hPa | 2.5V | 02:59:53 | 03:02:12 | 00:00:00 | |
| GOEST3-10 | 2026-09-02 00:54:31 | 52.77499 | 10.80937 | 92° | 18km/h | 21231m | -23.3m/s | -51.6°C | 3.3% | 48.5hPa | 2.5V | 00:00:00 | 03:02:17 | 00:00:00 | |
| DM0DOS-11 | 2026-09-02 00:54:30 | 52.77498 | 10.80911 | 82° | 20km/h | 21299m | -24.3m/s | -51.8°C | 3.3% | 48hPa | 2.5V | 02:59:51 | 03:02:14 | 00:00:00 | |
| DF8AY | 2026-09-02 00:54:29 | 52.77499 | 10.80919 | 87° | 18km/h | 21276m | -23.9m/s | -51.7°C | 0% | 48.2hPa | 2.6V | 03:00:11 | 03:02:15 | 00:00:00 | |
| DL1XH-west | 2026-09-02 00:54:28 | 52.77497 | 10.80903 | 79° | 16km/h | 21322m | -24.9m/s | -51.8°C | 0% | 47.9hPa | 2.5V | 03:00:11 | 03:02:13 | 00:00:00 | |
| DB0DAN | 2026-09-02 00:54:25 | 52.77495 | 10.80888 | 74° | 15km/h | 21370m | -24.4m/s | -51.6°C | 0.6% | 47.52hPa | 2.6V | 00:00:00 | 00:00:00 | 00:00:00 | |
| HSKMA3-T | 2026-09-02 00:54:25 | 52.77495 | 10.80888 | 74° | 15km/h | 21370m | -24.4m/s | -51.6°C | 0% | 47.5hPa | 2.6V | 03:00:11 | 03:02:11 | 00:00:00 | |
| AA1-15 | 2026-09-02 00:54:23 | 52.77493 | 10.80871 | 75° | 9km/h | 21441m | -24.2m/s | -51.1°C | 0% | 47hPa | 2.5V | 03:00:11 | 03:02:08 | 00:00:00 | |
| DM0DOS-11 | 2026-09-02 00:54:23 | 52.77487 | 10.80859 | 27° | 7km/h | 21535m | -23.5m/s | -50.9°C | 3.1% | 46.4hPa | 2.6V | 03:00:01 | 03:02:04 | 00:00:00 | |
| DL1NUX | 2026-09-02 00:54:23 | 52.77486 | 10.80857 | 40° | 7km/h | 21559m | -24.2m/s | -51°C | 3.1% | 46.1hPa | 2.6V | 03:00:02 | 03:02:03 | 00:00:00 | |
| BIOWL1-15 | 2026-09-02 00:54:20 | 52.77490 | 10.80864 | 52° | 7km/h | 21488m | -24.3m/s | -51.1°C | 0% | 46.7hPa | 2.5V | 03:00:11 | 03:02:06 | 00:00:00 | |
| DF8AY | 2026-09-02 00:54:19 | 52.77489 | 10.80862 | 43° | 9km/h | 21512m | -24.1m/s | -51°C | 0% | 46.5hPa | 2.6V | 03:00:11 | 03:02:05 | 00:00:00 | |
| DL1XH-west | 2026-09-02 00:54:17 | 52.77486 | 10.80857 | 41° | 7km/h | 21559m | -24.2m/s | -51°C | 0% | 46.2hPa | 2.6V | 03:00:11 | 03:02:03 | 00:00:00 | |
| HSKMA3-T | 2026-09-02 00:54:14 | 52.77481 | 10.80851 | 27° | 9km/h | 21629m | -24.2m/s | -51°C | 0% | 45.7hPa | 2.5V | 03:00:11 | 03:02:00 | 00:00:00 | |
| DO2SHX-10 | 2026-09-02 00:54:14 | 52.77480 | 10.80851 | 28° | 9km/h | 21629m | -24.2m/s | -51.0°C | 3.1% | 45.6hPa | 2.6V | 00:00:00 | 03:02:00 | 00:00:00 | |
| DD8BA-10 | 2026-09-02 00:54:13 | 52.77479 | 10.80848 | 51° | 13km/h | 21653m | -24.3m/s | -51.1°C | 3.1% | 45.4hPa | 2.6V | 00:00:00 | 00:00:00 | 00:00:00 | |
| DL1NUX | 2026-09-02 00:54:12 | 52.77465 | 10.80824 | 52° | 15km/h | 21796m | -24.5m/s | -51.5°C | 3.2% | 44.5hPa | 2.6V | 03:00:12 | 03:01:53 | 00:00:00 | |
| AA1-15 | 2026-09-02 00:54:11 | 52.77475 | 10.80841 | 50° | 15km/h | 21699m | -24.9m/s | -51.1°C | 0% | 45.2hPa | 2.6V | 03:00:11 | 03:01:57 | 00:00:00 | |
| DB0DAN | 2026-09-02 00:54:10 | 52.77472 | 10.80837 | 39° | 11km/h | 21723m | -24.5m/s | -51.1°C | 0.6% | 44.96hPa | 2.5V | 00:00:00 | 00:00:00 | 00:00:00 | |
| DM0DOS-11 | 2026-09-02 00:54:10 | 52.77467 | 10.80828 | 37° | 13km/h | 21772m | -24.8m/s | -51.4°C | 3.1% | 44.7hPa | 2.5V | 03:00:11 | 03:01:54 | 00:00:00 | |
| BIOWL1-15 | 2026-09-02 00:54:10 | 52.77460 | 10.80815 | 58° | 11km/h | 21843m | -24.5m/s | -51.6°C | 0% | 44.2hPa | 2.6V | 03:01:02 | 03:01:51 | 00:00:00 | |
| DL1XH-west | 2026-09-02 00:54:06 | 52.77462 | 10.80819 | 48° | 13km/h | 21820m | -24.3m/s | -51.6°C | 0% | 44.3hPa | 2.6V | 03:01:02 | 03:01:52 | 00:00:00 | |
| HSKMA3-T | 2026-09-02 00:54:03 | 52.77458 | 10.80807 | 86° | 7km/h | 21891m | -25m/s | -51.5°C | 0% | 43.9hPa | 2.5V | 03:01:02 | 03:01:49 | 00:00:00 | |
| BIOWL1-15 | 2026-09-02 00:54:01 | 52.77466 | 10.80776 | 138° | 16km/h | 22037m | -24.9m/s | -51.9°C | 0% | 42.9hPa | 2.5V | 03:01:02 | 03:01:43 | 00:00:00 | |
| DL1XH-15 | 2026-09-02 00:54:01 | 52.77470 | 10.80771 | 136° | 20km/h | 22061m | -25.8m/s | -52°C | 3.3% | 42.7hPa | 2.5V | 03:00:23 | 03:01:42 | 00:00:00 | |
| DL1NUX | 2026-09-02 00:54:01 | 52.77466 | 10.80776 | 138° | 16km/h | 22037m | -24.9m/s | -51.9°C | 3.3% | 42.9hPa | 2.5V | 03:00:22 | 03:01:43 | 00:00:00 | |
| AA1-15 | 2026-09-02 00:54:00 | 52.77459 | 10.80793 | 113° | 15km/h | 21964m | -25.1m/s | -51.5°C | 0% | 43.4hPa | 2.6V | 03:01:02 | 03:01:46 | 00:00:00 | |
| DO2SHX-10 | 2026-09-02 00:53:59 | 52.77461 | 10.80788 | 130° | 16km/h | 21989m | -24.7m/s | -51.5°C | 3.2% | 43.2hPa | 2.6V | 00:00:00 | 03:01:45 | 00:00:00 | |
| NBG1-10 | 2026-09-02 00:53:58 | 52.77463 | 10.80782 | 126° | 15km/h | 22013m | -25.3m/s | -51.6°C | 3.2% | 43.0hPa | 2.6V | 03:00:00 | 03:01:44 | 00:00:00 | |
| SP6BVK | 2026-09-02 00:53:57 | 52.77463 | 10.80782 | 127° | 18km/h | 22013m | -25.3m/s | -51.7°C | 0.6% | 43.0hPa | 2.6V | 03:01:00 | 00:00:00 | 00:00:00 | |
| DB0DAN | 2026-09-02 00:53:55 | 52.77473 | 10.80766 | 146° | 16km/h | 22085m | -25.1m/s | -52.1°C | 0.6% | 42.6hPa | 2.6V | 00:00:00 | 00:00:00 | 00:00:00 | |
| DF8AY | 2026-09-02 00:53:55 | 52.77473 | 10.80766 | 146° | 16km/h | 22085m | -25.1m/s | -52.1°C | 0% | 42.6hPa | 2.6V | 03:01:02 | 03:01:41 | 00:00:00 | |
| HSKMA3-T | 2026-09-02 00:53:53 | 52.77481 | 10.80757 | 158° | 18km/h | 22135m | -25.4m/s | -51.9°C | 0% | 42.2hPa | 2.6V | 03:01:02 | 03:01:39 | 00:00:00 | |
| DD8BA-10 | 2026-09-02 00:53:53 | 52.77481 | 10.80757 | 158° | 15km/h | 22135m | -25.4m/s | -51.9°C | 3.4% | 42.2hPa | 2.5V | 03:00:00 | 00:00:00 | 00:00:00 | |
| DO3MHA-11 | 2026-09-02 00:53:52 | 52.77485 | 10.80753 | 158° | 13km/h | 22160m | -25.7m/s | -51.8°C | 3.4% | 42.0hPa | 2.5V | 00:00:00 | 03:01:38 | 00:00:00 | |
| DL1XH-15 | 2026-09-02 00:53:51 | 52.77508 | 10.80750 | 201° | 11km/h | 22309m | -25.5m/s | -50.8°C | 3.1% | 41.1hPa | 2.5V | 03:00:33 | 03:01:32 | 00:00:00 | |
| AA1-15 | 2026-09-02 00:53:50 | 52.77494 | 10.80749 | 168° | 18km/h | 22209m | -25.6m/s | -51.5°C | 0% | 41.8hPa | 2.5V | 03:01:02 | 03:01:36 | 00:00:00 | |
| DM0DOS-11 | 2026-09-02 00:53:50 | 52.77502 | 10.80748 | 186° | 15km/h | 22259m | -25.7m/s | -51°C | 3.1% | 41.5hPa | 2.6V | 03:00:31 | 03:01:34 | 00:00:00 | |
| BIOWL1-15 | 2026-09-02 00:53:47 | 52.77508 | 10.80750 | 202° | 11km/h | 22309m | -25.5m/s | -50.8°C | 0% | 41.1hPa | 2.5V | 03:01:02 | 03:01:32 | 00:00:00 | |
| DF8AY | 2026-09-02 00:53:45 | 52.77510 | 10.80751 | 216° | 7km/h | 22334m | -25.6m/s | -50.9°C | 0% | 41hPa | 2.5V | 03:01:02 | 03:01:31 | 00:00:00 | |
| DL1XH-west | 2026-09-02 00:53:45 | 52.77512 | 10.80752 | 224° | 5km/h | 22359m | -25.6m/s | -51°C | 0% | 40.8hPa | 2.5V | 03:01:02 | 03:01:30 | 00:00:00 | |
| EDDB2-11 | 2026-09-02 00:53:44 | 52.77512 | 10.80752 | 224° | 5km/h | 22359m | -25.6m/s | -51.0°C | 0.5% | 40.8hPa | 2.6V | 00:00:00 | 00:00:00 | 00:00:00 | |
| HSKMA3-T | 2026-09-02 00:53:42 | 52.77513 | 10.80755 | 253° | 4km/h | 22409m | -25.3m/s | -51.3°C | 0% | 40.5hPa | 2.6V | 03:01:02 | 03:01:28 | 00:00:00 | |
| DO3MHA-11 | 2026-09-02 00:53:42 | 52.77513 | 10.80755 | 253° | 7km/h | 22409m | -25.3m/s | -51.3°C | 3.2% | 40.5hPa | 2.6V | 03:00:00 | 03:01:28 | 00:00:00 | |
| DL1XH-15 | 2026-09-02 00:53:41 | 52.77507 | 10.80747 | 39° | 9km/h | 22559m | -25.9m/s | -51.6°C | 3.3% | 39.6hPa | 2.6V | 03:00:43 | 03:01:22 | 00:00:00 | |
| DB0DAN | 2026-09-02 00:53:40 | 52.77512 | 10.80755 | 4° | 4km/h | 22458m | -25.7m/s | -51.5°C | 0.6% | 40.22hPa | 2.5V | 00:00:00 | 00:00:00 | 00:00:00 | |
| AA1-15 | 2026-09-02 00:53:39 | 52.77511 | 10.80754 | 41° | 5km/h | 22484m | -26.5m/s | -51.5°C | 0% | 40.1hPa | 2.5V | 03:01:02 | 03:01:25 | 00:00:00 | |
| DF8AY | 2026-09-02 00:53:35 | 52.77505 | 10.80743 | 55° | 13km/h | 22584m | -26.7m/s | -51.6°C | 0% | 39.4hPa | 2.6V | 03:01:02 | 03:01:21 | 00:00:00 | |
| DL1XH-west | 2026-09-02 00:53:33 | 52.77502 | 10.80735 | 62° | 11km/h | 22636m | -26.9m/s | -51.4°C | 0% | 39.1hPa | 2.5V | 03:01:02 | 03:01:19 | 00:00:00 | |
| HSKMA3-T | 2026-09-02 00:53:31 | 52.77500 | 10.80728 | 73° | 9km/h | 22688m | -26.8m/s | -51.1°C | 0% | 38.8hPa | 2.6V | 03:01:02 | 03:01:17 | 00:00:00 | |
| AA1-15 | 2026-09-02 00:53:29 | 52.77499 | 10.80722 | 87° | 7km/h | 22740m | -26.8m/s | -51.3°C | 0% | 38.5hPa | 2.6V | 03:01:02 | 03:01:15 | 00:00:00 | |
| DF7ER-10 | 2026-09-02 00:53:29 | 52.77499 | 10.80722 | 88° | 7km/h | 22740m | -26.8m/s | -51.3°C | 0.6% | 38.5hPa | 2.6V | 03:01:00 | 00:00:00 | 00:00:00 | |
| MECKS9 | 2026-09-02 00:53:26 | 52.77499 | 10.80717 | 94° | 7km/h | 22792m | -26.9m/s | -51.3°C | 0.5% | 38.2hPa | 2.6V | 03:01:00 | 00:00:00 | 00:00:00 | |
| DB0DAN | 2026-09-02 00:53:25 | 52.77499 | 10.80712 | 76° | 5km/h | 22844m | -26.8m/s | -51.2°C | 0.5% | 37.9hPa | 2.6V | 00:00:00 | 00:00:00 | 00:00:00 | |
| DF8AY | 2026-09-02 00:53:24 | 52.77498 | 10.80709 | 42° | 5km/h | 22871m | -26.9m/s | -51.1°C | 0% | 37.8hPa | 2.6V | 03:01:02 | 03:01:10 | 00:00:00 | |
| BIOWL1-15 | 2026-09-02 00:53:23 | 52.77497 | 10.80707 | 49° | 7km/h | 22897m | -26.7m/s | -51°C | 0% | 37.6hPa | 2.6V | 03:01:02 | 03:01:09 | 00:00:00 | |
| DL1XH-west | 2026-09-02 00:53:23 | 52.77495 | 10.80705 | 22° | 13km/h | 22923m | -26.7m/s | -51°C | 0% | 37.5hPa | 2.5V | 03:01:02 | 03:01:08 | 00:00:00 | |
| HSKMA3-T | 2026-09-02 00:53:21 | 52.77492 | 10.80703 | 28° | 11km/h | 22949m | -26.6m/s | -51°C | 0% | 37.3hPa | 2.5V | 03:01:02 | 03:01:07 | 00:00:00 | |
| GOEST3-10 | 2026-09-02 00:53:21 | 52.77492 | 10.80703 | 28° | 13km/h | 22949m | -26.5m/s | -51.0°C | 3.1% | 37.3hPa | 2.6V | 00:00:00 | 03:01:07 | 00:00:00 | |
| DM0DOS-11 | 2026-09-02 00:53:20 | 52.77483 | 10.80695 | 26° | 13km/h | 23027m | -27m/s | -51.1°C | 3.1% | 36.9hPa | 2.6V | 03:01:01 | 03:01:04 | 00:00:00 | |
| AA1-15 | 2026-09-02 00:53:18 | 52.77484 | 10.80695 | 27° | 13km/h | 23027m | -27m/s | -51.1°C | 0% | 36.9hPa | 2.6V | 03:01:02 | 03:01:04 | 00:00:00 | |
| BIOWL1-15 | 2026-09-02 00:53:13 | 52.77471 | 10.80675 | 72° | 11km/h | 23186m | -27.6m/s | -51.3°C | 0% | 36hPa | 2.6V | 03:01:53 | 03:00:58 | 00:00:00 | |
| DL1XH-west | 2026-09-02 00:53:11 | 52.77470 | 10.80671 | 73° | 7km/h | 23213m | -27.2m/s | -51.4°C | 0% | 35.9hPa | 2.6V | 03:01:53 | 03:00:57 | 00:00:00 | |
| DL1XH-15 | 2026-09-02 00:53:11 | 52.77470 | 10.80658 | 114° | 4km/h | 23347m | -28.1m/s | -51.4°C | 3.1% | 35.1hPa | 2.6V | 03:01:13 | 03:00:52 | 00:00:00 | |
| DB0DAN | 2026-09-02 00:53:10 | 52.77470 | 10.80667 | 76° | 9km/h | 23239m | -27.7m/s | -51.5°C | 0.5% | 35.69hPa | 2.5V | 00:00:00 | 00:00:00 | 00:00:00 | |
| HSKMA3-T | 2026-09-02 00:53:10 | 52.77470 | 10.80667 | 76° | 9km/h | 23239m | -27.7m/s | -51.5°C | 0% | 35.7hPa | 2.5V | 03:01:53 | 03:00:56 | 00:00:00 | |
| AA1-15 | 2026-09-02 00:53:07 | 52.77469 | 10.80660 | 130° | 2km/h | 23320m | -27.8m/s | -51.5°C | 0% | 35.3hPa | 2.6V | 03:01:53 | 03:00:53 | 00:00:00 | |
| DF8AY | 2026-09-02 00:53:03 | 52.77470 | 10.80659 | 262° | 4km/h | 23429m | -28.2m/s | -51.4°C | 0% | 34.7hPa | 2.5V | 03:01:53 | 03:00:49 | 00:00:00 | |
| DM0DOS-11 | 2026-09-02 00:53:03 | 52.77469 | 10.80662 | 87° | 2km/h | 23568m | -28.2m/s | -51.4°C | 3.1% | 34hPa | 2.5V | 03:01:21 | 03:00:44 | 00:00:00 | |
| BIOWL1-15 | 2026-09-02 00:53:01 | 52.77470 | 10.80660 | 285° | 5km/h | 23484m | -28.3m/s | -51.4°C | 0% | 34.4hPa | 2.6V | 03:01:53 | 03:00:47 | 00:00:00 | |
| DL1XH-15 | 2026-09-02 00:53:01 | 52.77468 | 10.80661 | 85° | 4km/h | 23623m | -28.3m/s | -51.4°C | 3.1% | 33.7hPa | 2.5V | 03:01:23 | 03:00:42 | 00:00:00 | |
| HSKMA3-T | 2026-09-02 00:53:00 | 52.77469 | 10.80661 | 308° | 2km/h | 23512m | -28.3m/s | -51.5°C | 0% | 34.3hPa | 2.6V | 03:01:53 | 03:00:46 | 00:00:00 | |
| DJ2DS-15 | 2026-09-02 00:52:58 | 52.77469 | 10.80662 | 87° | 0km/h | 23568m | -28.2m/s | -51.4°C | 0.5% | 34.0hPa | 2.6V | 00:00:00 | 00:00:00 | 00:00:00 | |
| DF7ER-10 | 2026-09-02 00:52:56 | 52.77468 | 10.80661 | 358° | 4km/h | 23595m | -28.3m/s | -51.4°C | 0.6% | 33.8hPa | 2.6V | 03:01:00 | 00:00:00 | 00:00:00 | |
| AA1-15 | 2026-09-02 00:52:56 | 52.77468 | 10.80661 | 86° | 4km/h | 23623m | -28.3m/s | -51.4°C | 0% | 33.7hPa | 2.5V | 03:01:53 | 03:00:42 | 00:00:00 | |
| DB0DAN | 2026-09-02 00:52:55 | 52.77468 | 10.80660 | 77° | 2km/h | 23651m | -28m/s | -51.4°C | 0.6% | 33.53hPa | 2.6V | 00:00:00 | 00:00:00 | 00:00:00 | |
| DF8AY | 2026-09-02 00:52:53 | 52.77471 | 10.80656 | 162° | 7km/h | 23734m | -28.4m/s | -51.6°C | 0% | 33.1hPa | 2.5V | 03:01:53 | 03:00:38 | 00:00:00 | |
| DM0DOS-11 | 2026-09-02 00:52:52 | 52.77478 | 10.80653 | 182° | 9km/h | 23846m | -28.3m/s | -52°C | 3.3% | 32.5hPa | 2.5V | 03:01:31 | 03:00:34 | 00:00:00 | |
| BIOWL1-15 | 2026-09-02 00:52:51 | 52.77472 | 10.80655 | 174° | 7km/h | 23762m | -28.9m/s | -51.7°C | 0% | 33hPa | 2.5V | 03:01:53 | 03:00:37 | 00:00:00 | |
| DL1XH-15 | 2026-09-02 00:52:51 | 52.77481 | 10.80651 | 166° | 5km/h | 23902m | -28.6m/s | -52°C | 3.3% | 32.2hPa | 2.6V | 03:01:33 | 03:00:32 | 00:00:00 | |
| HSKMA3-T | 2026-09-02 00:52:49 | 52.77476 | 10.80653 | 177° | 7km/h | 23818m | -28.9m/s | -51.9°C | 0% | 32.7hPa | 2.6V | 03:01:53 | 03:00:35 | 00:00:00 | |
| AA1-15 | 2026-09-02 00:52:46 | 52.77481 | 10.80651 | 167° | 5km/h | 23902m | -28.6m/s | -52°C | 0% | 32.3hPa | 2.6V | 03:01:53 | 03:00:32 | 00:00:00 | |
| GOEST3-10 | 2026-09-02 00:52:46 | 52.77481 | 10.80651 | 167° | 7km/h | 23902m | -28.6m/s | -52.0°C | 3.3% | 32.2hPa | 2.6V | 00:00:00 | 00:00:00 | 00:00:00 | |
| DO3MHA-11 | 2026-09-02 00:52:45 | 52.77482 | 10.80649 | 139° | 9km/h | 23930m | -28.7m/s | -51.9°C | 3.3% | 32.1hPa | 2.6V | 00:00:00 | 03:00:31 | 00:00:00 | |
| DB0UT-7 | 2026-09-02 00:52:44 | 52.77484 | 10.80647 | 144° | 9km/h | 23958m | -28.5m/s | -51.8°C | 3.3% | 31.9hPa | 2.5V | 03:01:00 | 03:00:30 | 00:00:00 | |
| DM0DOS-11 | 2026-09-02 00:52:43 | 52.77487 | 10.80623 | 105° | 11km/h | 24127m | -28.9m/s | -51.8°C | 3.2% | 31.1hPa | 2.6V | 03:01:41 | 03:00:24 | 00:00:00 | |
| DF8AY | 2026-09-02 00:52:41 | 52.77486 | 10.80638 | 102° | 11km/h | 24041m | -29.8m/s | -51.8°C | 0% | 31.6hPa | 2.6V | 03:01:53 | 03:00:27 | 00:00:00 | |
| DL1XH-15 | 2026-09-02 00:52:41 | 52.77489 | 10.80611 | 107° | 11km/h | 24185m | -29.3m/s | -51.9°C | 3.3% | 30.9hPa | 2.6V | 03:01:43 | 03:00:22 | 00:00:00 | |
| DB0DAN | 2026-09-02 00:52:40 | 52.77486 | 10.80633 | 102° | 9km/h | 24071m | -29.4m/s | -51.8°C | 0.6% | 31.45hPa | 2.5V | 00:00:00 | 00:00:00 | 00:00:00 | |
| HSKMA3-T | 2026-09-02 00:52:39 | 52.77487 | 10.80628 | 99° | 15km/h | 24099m | -29.5m/s | -51.8°C | 0% | 31.3hPa | 2.5V | 03:01:53 | 03:00:25 | 00:00:00 | |
| DL1XH-west | 2026-09-02 00:52:38 | 52.77487 | 10.80623 | 106° | 11km/h | 24127m | -28.9m/s | -51.8°C | 0% | 31.1hPa | 2.6V | 03:01:53 | 03:00:24 | 00:00:00 | |
| AA1-15 | 2026-09-02 00:52:35 | 52.77489 | 10.80606 | 105° | 13km/h | 24213m | -29.8m/s | -52°C | 0% | 30.7hPa | 2.5V | 03:01:53 | 03:00:21 | 00:00:00 | |
| DO3MHA-11 | 2026-09-02 00:52:35 | 52.77489 | 10.80606 | 106° | 9km/h | 24214m | -29.8m/s | -51.9°C | 3.3% | 30.7hPa | 2.5V | 00:00:00 | 03:00:21 | 00:00:00 | |
| DM0DOS-11 | 2026-09-02 00:52:33 | 52.77502 | 10.80585 | 173° | 7km/h | 24446m | -30.9m/s | -52.2°C | 3.5% | 29.7hPa | 2.5V | 03:01:52 | 03:00:13 | 00:00:00 | |
| DD8BA-10 | 2026-09-02 00:52:33 | 52.77491 | 10.80596 | 115° | 7km/h | 24271m | -29.9m/s | -52.2°C | 3.4% | 30.4hPa | 2.5V | 03:01:00 | 00:00:00 | 00:00:00 | |
| BIOWL9-15 | 2026-09-02 00:52:32 | 52.77495 | 10.80590 | 140° | 9km/h | 24329m | -29.9m/s | -52.2°C | 0.6% | 30.2hPa | 2.6V | 00:00:00 | 00:00:00 | 00:00:00 | |
| DL1XH-15 | 2026-09-02 00:52:31 | 52.77503 | 10.80586 | 226° | 5km/h | 24477m | -30.6m/s | -52.2°C | 3.5% | 29.5hPa | 2.6V | 03:01:53 | 03:00:12 | 00:00:00 | |
| BIOWL1-15 | 2026-09-02 00:52:31 | 52.77495 | 10.80590 | 141° | 9km/h | 24329m | -29.9m/s | -52.2°C | 0% | 30.2hPa | 2.6V | 03:01:53 | 03:00:17 | 00:00:00 | |
| HSKMA3-T | 2026-09-02 00:52:28 | 52.77500 | 10.80586 | 192° | 7km/h | 24417m | -30.8m/s | -52.2°C | 0% | 29.8hPa | 2.5V | 03:01:53 | 03:00:14 | 00:00:00 | |
| DL1XH1-15 | 2026-09-02 00:52:28 | 52.77502 | 10.80585 | 173° | 7km/h | 24446m | -30.9m/s | -52.2°C | 3.5% | 29.7hPa | 2.5V | 03:01:52 | 03:00:13 | 00:00:00 | |
| DL1XH-west | 2026-09-02 00:52:28 | 52.77502 | 10.80586 | 174° | 7km/h | 24447m | -30.9m/s | -52.2°C | 0% | 29.7hPa | 2.5V | 03:01:53 | 03:00:13 | 00:00:00 | |
| DO9LL-15 | 2026-09-02 00:52:27 | 52.77502 | 10.80586 | 174° | 15km/h | 24447m | -30.9m/s | -52.1°C | 3.5% | 29.6hPa | 2.5V | 00:00:00 | 03:00:13 | 00:00:00 | |
| DB0DAN | 2026-09-02 00:52:25 | 52.77504 | 10.80587 | 242° | 2km/h | 24507m | -30.3m/s | -52.2°C | 0.6% | 29.4hPa | 2.6V | 00:00:00 | 00:00:00 | 00:00:00 | |
| AA1-15 | 2026-09-02 00:52:24 | 52.77504 | 10.80588 | 268° | 4km/h | 24536m | -30.1m/s | -52.2°C | 0% | 29.2hPa | 2.6V | 03:02:44 | 03:00:10 | 00:00:00 | |
| DO2SHX-10 | 2026-09-02 00:52:24 | 52.77504 | 10.80588 | 269° | 4km/h | 24537m | -30.0m/s | -52.2°C | 3.5% | 29.2hPa | 2.6V | 00:00:00 | 03:00:10 | 00:00:00 | |
| DD8BA-10 | 2026-09-02 00:52:23 | 52.77504 | 10.80588 | 298° | 7km/h | 24566m | -30.6m/s | -52.3°C | 3.6% | 29.1hPa | 2.5V | 00:00:00 | 00:00:00 | 00:00:00 | |
| DL1NUX | 2026-09-02 00:52:22 | 52.77500 | 10.80583 | 81° | 11km/h | 24747m | -31.2m/s | -52°C | 3.6% | 28.3hPa | 2.5V | 03:02:02 | 03:00:03 | 00:00:00 | |
| DF8AY | 2026-09-02 00:52:21 | 52.77503 | 10.80590 | 15° | 2km/h | 24626m | -31.1m/s | -52.5°C | 0% | 28.8hPa | 2.5V | 03:02:44 | 03:00:07 | 00:00:00 | |
| DL1XH-15 | 2026-09-02 00:52:21 | 52.77499 | 10.80579 | 76° | 11km/h | 24777m | -31m/s | -51.9°C | 3.6% | 28.2hPa | 2.5V | 03:02:03 | 03:00:02 | 00:00:00 | |
| HSKMA3-T | 2026-09-02 00:52:18 | 52.77500 | 10.80586 | 59° | 5km/h | 24716m | -30.8m/s | -52.2°C | 0% | 28.5hPa | 2.6V | 03:02:44 | 03:00:04 | 00:00:00 | |
| DL1XH-west | 2026-09-02 00:52:17 | 52.77499 | 10.80579 | 76° | 11km/h | 24777m | -31m/s | -51.9°C | 0% | 28.2hPa | 2.5V | 03:02:44 | 03:00:02 | 00:00:00 | |
| AA1-15 | 2026-09-02 00:52:14 | 52.77498 | 10.80566 | 77° | 16km/h | 24837m | -31.1m/s | -51.3°C | 0% | 27.9hPa | 2.6V | 03:02:44 | 03:00:00 | 00:00:00 | |
| DB0UT-7 | 2026-09-02 00:52:14 | 52.77498 | 10.80566 | 77° | 15km/h | 24838m | -31.1m/s | -51.2°C | 3.5% | 27.9hPa | 2.6V | 00:00:00 | 00:00:00 | 00:00:00 | |
| DD8BA-10 | 2026-09-02 00:52:13 | 52.77497 | 10.80558 | 81° | 20km/h | 24868m | -31.2m/s | -51.0°C | 3.4% | 27.8hPa | 2.6V | 00:00:00 | 00:00:00 | 00:00:00 | |
| DL1XH1-15 | 2026-09-02 00:52:12 | 52.77499 | 10.80506 | 118° | 18km/h | 25052m | -31.5m/s | -50.3°C | 3.1% | 27hPa | 2.6V | 03:02:12 | 02:59:53 | 00:00:00 | |
| DO2SHX-10 | 2026-09-02 00:52:12 | 52.77496 | 10.80550 | 85° | 22km/h | 24899m | -31.2m/s | -50.8°C | 3.3% | 27.6hPa | 2.6V | 00:00:00 | 02:59:58 | 00:00:00 | |
| DL1XH-15 | 2026-09-02 00:52:11 | 52.77501 | 10.80499 | 126° | 16km/h | 25083m | -31.8m/s | -50.3°C | 3.2% | 26.9hPa | 2.6V | 03:02:13 | 02:59:52 | 00:00:00 | |
| DF8AY | 2026-09-02 00:52:09 | 52.77496 | 10.80522 | 97° | 22km/h | 24991m | -31.5m/s | -50.3°C | 0% | 27.3hPa | 2.5V | 03:02:44 | 02:59:55 | 00:00:00 | |
| HSKMA3-T | 2026-09-02 00:52:08 | 52.77497 | 10.80514 | 103° | 20km/h | 25022m | -31.5m/s | -50.3°C | 0% | 27.2hPa | 2.6V | 03:02:44 | 02:59:54 | 00:00:00 | |
| DL1XH-west | 2026-09-02 00:52:06 | 52.77501 | 10.80499 | 127° | 16km/h | 25083m | -31.8m/s | -50.3°C | 0% | 26.9hPa | 2.6V | 03:02:44 | 02:59:52 | 00:00:00 | |
| AA1-15 | 2026-09-02 00:52:04 | 52.77508 | 10.80491 | 163° | 15km/h | 25144m | -32m/s | -50.1°C | 0% | 26.7hPa | 2.5V | 03:02:44 | 02:59:50 | 00:00:00 | |
| DL4XJ-10 | 2026-09-02 00:52:04 | 52.77508 | 10.80491 | 163° | 13km/h | 25145m | -32.0m/s | -49.8°C | 0% | 0hPa | 2.5V | 00:00:00 | 00:00:00 | 00:00:00 | |
| DF7ER-10 | 2026-09-02 00:52:03 | 52.77511 | 10.80489 | 178° | 18km/h | 25176m | -31.9m/s | -49.9°C | 0.5% | 26.5hPa | 2.5V | 03:02:00 | 00:00:00 | 00:00:00 | |
| DL1NUX | 2026-09-02 00:52:02 | 52.77537 | 10.80507 | 218° | 18km/h | 25365m | -32.4m/s | -48.8°C | 2.8% | 25.8hPa | 2.5V | 03:02:22 | 02:59:43 | 00:00:00 | |
| DK1YY | 2026-09-02 00:52:02 | 52.77516 | 10.80489 | 193° | 16km/h | 25208m | -32.2m/s | -49.8°C | 0.5% | 26.4hPa | 2.5V | 00:00:00 | 00:00:00 | 00:00:00 | |
| DL1XH-15 | 2026-09-02 00:52:01 | 52.77541 | 10.80511 | 223° | 15km/h | 25396m | -32.2m/s | -48.8°C | 2.8% | 25.7hPa | 2.5V | 03:02:23 | 02:59:42 | 00:00:00 | |
| BIOWL1-15 | 2026-09-02 00:51:58 | 52.77534 | 10.80502 | 222° | 18km/h | 25333m | -31.9m/s | -48.8°C | 0% | 25.9hPa | 2.6V | 03:02:44 | 02:59:44 | 00:00:00 | |
| HSKMA3-T | 2026-09-02 00:51:57 | 52.77537 | 10.80507 | 218° | 18km/h | 25365m | -32.4m/s | -48.8°C | 0% | 25.8hPa | 2.5V | 03:02:44 | 02:59:43 | 00:00:00 | |
| DL1XH-west | 2026-09-02 00:51:56 | 52.77541 | 10.80511 | 223° | 16km/h | 25396m | -32.2m/s | -48.8°C | 0% | 25.7hPa | 2.5V | 03:02:44 | 02:59:42 | 00:00:00 | |
| DB0DAN | 2026-09-02 00:51:55 | 52.77544 | 10.80515 | 220° | 15km/h | 25428m | -32.1m/s | -48.8°C | 0.4% | 25.54hPa | 2.6V | 00:00:00 | 00:00:00 | 00:00:00 | |
| AA1-15 | 2026-09-02 00:51:54 | 52.77548 | 10.80521 | 219° | 7km/h | 25491m | -31.8m/s | -48.7°C | 0% | 25.3hPa | 2.6V | 03:02:44 | 02:59:39 | 00:00:00 | |
| DF7ER-10 | 2026-09-02 00:51:53 | 52.77548 | 10.80521 | 220° | 7km/h | 25491m | -31.8m/s | -48.7°C | 0.5% | 25.3hPa | 2.6V | 03:02:00 | 00:00:00 | 00:00:00 | |
| DL1NUX | 2026-09-02 00:51:52 | 52.77552 | 10.80508 | 96° | 11km/h | 25680m | -32.4m/s | -49.2°C | 2.9% | 24.6hPa | 2.6V | 03:02:32 | 02:59:33 | 00:00:00 | |
| DL3AQ-11 | 2026-09-02 00:51:52 | 52.77550 | 10.80521 | 173° | 2km/h | 25554m | -32.2m/s | -48.8°C | 0.4% | 25.1hPa | 2.5V | 00:00:00 | 00:00:00 | 00:00:00 | |
| DL1XH-15 | 2026-09-02 00:51:51 | 52.77553 | 10.80503 | 105° | 13km/h | 25712m | -33m/s | -49.2°C | 2.9% | 24.4hPa | 2.5V | 03:02:33 | 02:59:32 | 00:00:00 | |
| HSKMA3-T | 2026-09-02 00:51:47 | 52.77552 | 10.80508 | 97° | 11km/h | 25680m | -32.4m/s | -49.2°C | 0% | 24.6hPa | 2.6V | 03:02:44 | 02:59:33 | 00:00:00 | |
| DL1XH-west | 2026-09-02 00:51:46 | 52.77554 | 10.80498 | 122° | 13km/h | 25744m | -32.8m/s | -49.2°C | 0% | 24.3hPa | 2.5V | 03:02:44 | 02:59:31 | 00:00:00 | |
| DF7PN | 2026-09-02 00:51:45 | 52.77556 | 10.80493 | 125° | 13km/h | 25776m | -33.1m/s | -49.2°C | 0.4% | 24.2hPa | 2.6V | 00:00:00 | 00:00:00 | 00:00:00 | |
| AA1-15 | 2026-09-02 00:51:43 | 52.77558 | 10.80489 | 153° | 15km/h | 25808m | -33m/s | -49.2°C | 0% | 24.1hPa | 2.6V | 03:02:44 | 02:59:29 | 00:00:00 | |
| DD8BA-10 | 2026-09-02 00:51:43 | 52.77558 | 10.80489 | 154° | 20km/h | 25808m | -32.9m/s | -49.2°C | 2.9% | 24.1hPa | 2.6V | 00:00:00 | 00:00:00 | 00:00:00 | |
| DO2SHX-10 | 2026-09-02 00:51:42 | 52.77562 | 10.80486 | 159° | 16km/h | 25840m | -33.1m/s | -49.2°C | 2.9% | 23.9hPa | 2.6V | 00:00:00 | 02:59:28 | 00:00:00 | |
| DL1XH-15 | 2026-09-02 00:51:41 | 52.77588 | 10.80499 | 218° | 22km/h | 26034m | -33.6m/s | -48.5°C | 2.7% | 23.3hPa | 2.6V | 03:02:43 | 02:59:22 | 00:00:00 | |
| DB0DAN | 2026-09-02 00:51:40 | 52.77569 | 10.80484 | 188° | 16km/h | 25904m | -33.6m/s | -49.1°C | 0.4% | 23.74hPa | 2.5V | 00:00:00 | 00:00:00 | 00:00:00 | |
| BIOWL1-15 | 2026-09-02 00:51:37 | 52.77584 | 10.80494 | 218° | 24km/h | 26002m | -33.3m/s | -48.6°C | 0% | 23.4hPa | 2.6V | 03:02:44 | 02:59:23 | 00:00:00 | |
| HSKMA3-T | 2026-09-02 00:51:36 | 52.77588 | 10.80499 | 218° | 22km/h | 26034m | -33.6m/s | -48.5°C | 0% | 23.3hPa | 2.6V | 03:02:44 | 02:59:22 | 00:00:00 | |
| DL1XH-west | 2026-09-02 00:51:35 | 52.77592 | 10.80505 | 226° | 24km/h | 26067m | -33.8m/s | -48.5°C | 0% | 23.2hPa | 2.6V | 03:02:44 | 02:59:21 | 00:00:00 | |
| AA1-15 | 2026-09-02 00:51:32 | 52.77603 | 10.80521 | 218° | 15km/h | 26166m | -34.2m/s | -48.4°C | 0% | 22.8hPa | 2.6V | 03:03:35 | 02:59:18 | 00:00:00 | |
| DL1XH-15 | 2026-09-02 00:51:31 | 52.77615 | 10.80530 | 127° | 7km/h | 26368m | -34.5m/s | -48.9°C | 2.8% | 22.2hPa | 2.6V | 03:02:53 | 02:59:12 | 00:00:00 | |
| BIOWL1-15 | 2026-09-02 00:51:27 | 52.77617 | 10.80526 | 135° | 9km/h | 26436m | -34.8m/s | -49.1°C | 0% | 22hPa | 2.5V | 03:03:35 | 02:59:10 | 00:00:00 | |
| DF8AY | 2026-09-02 00:51:27 | 52.77615 | 10.80530 | 128° | 7km/h | 26368m | -34.5m/s | -48.9°C | 0% | 22.2hPa | 2.6V | 03:03:35 | 02:59:12 | 00:00:00 | |
| DB0DAN | 2026-09-02 00:51:25 | 52.77616 | 10.80528 | 136° | 4km/h | 26402m | -34.6m/s | -49°C | 0.4% | 22.03hPa | 2.5V | 00:00:00 | 00:00:00 | 00:00:00 | |
| DL1XH-west | 2026-09-02 00:51:25 | 52.77616 | 10.80528 | 136° | 4km/h | 26402m | -34.6m/s | -49°C | 0% | 22hPa | 2.5V | 03:03:35 | 02:59:11 | 00:00:00 | |
| AA1-15 | 2026-09-02 00:51:22 | 52.77623 | 10.80517 | 149° | 13km/h | 26538m | -34.6m/s | -49.5°C | 0% | 21.6hPa | 2.6V | 03:03:35 | 02:59:07 | 00:00:00 | |
| BIOWL1-15 | 2026-09-02 00:51:17 | 52.77650 | 10.80514 | 235° | 9km/h | 26813m | -35.2m/s | -50.3°C | 0% | 20.8hPa | 2.5V | 03:03:35 | 02:58:59 | 00:00:00 | |
| DF8AY | 2026-09-02 00:51:15 | 52.77645 | 10.80509 | 201° | 13km/h | 26744m | -35m/s | -50.1°C | 0% | 21hPa | 2.6V | 03:03:35 | 02:59:01 | 00:00:00 | |
| HSKMA3-T | 2026-09-02 00:51:14 | 52.77648 | 10.80512 | 211° | 13km/h | 26779m | -34.8m/s | -50.2°C | 0% | 20.8hPa | 2.6V | 03:03:35 | 02:59:00 | 00:00:00 | |
| AA1-15 | 2026-09-02 00:51:11 | 52.77652 | 10.80522 | 274° | 11km/h | 26882m | -35.3m/s | -50.2°C | 0% | 20.5hPa | 2.5V | 03:03:35 | 02:58:57 | 00:00:00 | |
| DB0DAN | 2026-09-02 00:51:10 | 52.77652 | 10.80526 | 278° | 11km/h | 26917m | -35.2m/s | -50.1°C | 0.5% | 20.4hPa | 2.6V | 00:00:00 | 00:00:00 | 00:00:00 | |
| DJ2DS-15 | 2026-09-02 00:51:10 | 52.77652 | 10.80526 | 277° | 11km/h | 26917m | -35.2m/s | -50.1°C | 0.5% | 20.4hPa | 2.5V | 00:00:00 | 00:00:00 | 00:00:00 | |
| DL1XH1-15 | 2026-09-02 00:51:09 | 52.77648 | 10.80535 | 334° | 7km/h | 27021m | -35.6m/s | -49.7°C | 3.3% | 20.1hPa | 2.5V | 03:03:12 | 02:58:53 | 00:00:00 | |
| DF8AY | 2026-09-02 00:51:05 | 52.77644 | 10.80537 | 18° | 9km/h | 27091m | -35.4m/s | -49.1°C | 0% | 19.9hPa | 2.6V | 03:03:35 | 02:58:51 | 00:00:00 | |
| HSKMA3-T | 2026-09-02 00:51:04 | 52.77642 | 10.80535 | 32° | 7km/h | 27126m | -35.5m/s | -48.6°C | 0% | 19.7hPa | 2.6V | 03:03:35 | 02:58:50 | 00:00:00 | |
| DL1XH-west | 2026-09-02 00:51:03 | 52.77640 | 10.80532 | 48° | 15km/h | 27161m | -36.3m/s | -48.4°C | 0% | 19.6hPa | 2.5V | 03:03:35 | 02:58:49 | 00:00:00 | |
| BIOWL1-15 | 2026-09-02 00:51:02 | 52.77635 | 10.80515 | 71° | 15km/h | 27267m | -36m/s | -47.8°C | 0% | 19.3hPa | 2.6V | 03:03:35 | 02:58:46 | 00:00:00 | |
| AA1-15 | 2026-09-02 00:51:01 | 52.77636 | 10.80521 | 65° | 16km/h | 27232m | -36.1m/s | -48°C | 0% | 19.4hPa | 2.6V | 03:03:35 | 02:58:47 | 00:00:00 | |
| DF8AY | 2026-09-02 00:50:55 | 52.77632 | 10.80487 | 92° | 11km/h | 27446m | -37m/s | -47.3°C | 0% | 18.8hPa | 2.6V | 03:03:35 | 02:58:41 | 00:00:00 | |
| HSKMA3-T | 2026-09-02 00:50:53 | 52.77633 | 10.80481 | 81° | 5km/h | 27519m | -37.3m/s | -47°C | 0% | 18.6hPa | 2.6V | 03:03:35 | 02:58:39 | 00:00:00 | |
| DL1XH-west | 2026-09-02 00:50:52 | 52.77632 | 10.80480 | 300° | 2km/h | 27556m | -36.9m/s | -46.9°C | 0% | 18.5hPa | 2.5V | 03:03:35 | 02:58:38 | 00:00:00 | |
| AA1-15 | 2026-09-02 00:50:50 | 52.77630 | 10.80481 | 317° | 7km/h | 27630m | -36.9m/s | -47.1°C | 0% | 18.3hPa | 2.5V | 03:03:35 | 02:58:36 | 00:00:00 | |
| DF8AY | 2026-09-02 00:50:44 | 52.77615 | 10.80484 | 12° | 11km/h | 27850m | -37.8m/s | -47.1°C | 0% | 17.7hPa | 2.5V | 03:03:35 | 02:58:30 | 00:00:00 | |
| HSKMA3-T | 2026-09-02 00:50:43 | 52.77609 | 10.80478 | 38° | 15km/h | 27924m | -38.4m/s | -47°C | 0% | 17.5hPa | 2.6V | 03:04:26 | 02:58:28 | 00:00:00 | |
| DL1XH-west | 2026-09-02 00:50:42 | 52.77607 | 10.80474 | 55° | 16km/h | 27961m | -38.7m/s | -46.9°C | 0% | 17.4hPa | 2.6V | 03:04:26 | 02:58:27 | 00:00:00 | |
| DO2SHX-10 | 2026-09-02 00:50:42 | 52.77609 | 10.80478 | 38° | 16km/h | 27924m | -38.3m/s | -47.0°C | 2.7% | 17.5hPa | 2.5V | 00:00:00 | 02:58:28 | 00:00:00 | |
| DL1XH-15 | 2026-09-02 00:50:41 | 52.77597 | 10.80436 | 80° | 18km/h | 28151m | -39.2m/s | -46.9°C | 2.6% | 16.9hPa | 2.5V | 03:03:43 | 02:58:22 | 00:00:00 | |
| AA1-15 | 2026-09-02 00:50:40 | 52.77604 | 10.80468 | 53° | 16km/h | 28000m | -38.5m/s | -46.8°C | 0% | 17.3hPa | 2.5V | 03:04:26 | 02:58:26 | 00:00:00 | |
| DB0DAN | 2026-09-02 00:50:40 | 52.77604 | 10.80468 | 53° | 15km/h | 28000m | -38.5m/s | -46.8°C | 0.3% | 17.33hPa | 2.5V | 00:00:00 | 00:00:00 | 00:00:00 | |
| DF8AY | 2026-09-02 00:50:34 | 52.77596 | 10.80420 | 91° | 15km/h | 28229m | -39.1m/s | -47.1°C | 0% | 16.8hPa | 2.6V | 03:06:08 | 02:58:20 | 00:00:00 | |
| BIOWL1-15 | 2026-09-02 00:50:33 | 52.77599 | 10.80402 | 121° | 15km/h | 28345m | -39.6m/s | -46.8°C | 0% | 16.5hPa | 2.5V | 03:04:26 | 02:58:17 | 00:00:00 | |
| HSKMA3-T | 2026-09-02 00:50:32 | 52.77598 | 10.80407 | 115° | 15km/h | 28306m | -39.4m/s | -46.9°C | 0% | 16.6hPa | 2.6V | 03:04:26 | 02:58:18 | 00:00:00 | |
| DL1XH-west | 2026-09-02 00:50:30 | 52.77601 | 10.80397 | 129° | 9km/h | 28384m | -39.8m/s | -46.9°C | 0% | 16.4hPa | 2.5V | 03:04:26 | 02:58:16 | 00:00:00 | |
| AA1-15 | 2026-09-02 00:50:29 | 52.77602 | 10.80393 | 126° | 11km/h | 28423m | -39.9m/s | -46.8°C | 0% | 16.3hPa | 2.5V | 03:04:26 | 02:58:15 | 00:00:00 | |
| DF8AY | 2026-09-02 00:50:23 | 52.77599 | 10.80380 | 27° | 11km/h | 28693m | -39.8m/s | -46.1°C | 0% | 15.6hPa | 2.6V | 03:06:08 | 02:58:08 | 00:00:00 | |
| HSKMA3-T | 2026-09-02 00:50:21 | 52.77596 | 10.80378 | 26° | 11km/h | 28733m | -40.2m/s | -46.1°C | 0% | 15.5hPa | 2.6V | 03:04:26 | 02:58:07 | 00:00:00 | |
| BIOWL1-15 | 2026-09-02 00:50:21 | 52.77600 | 10.80273 | 128° | 22km/h | 29300m | -42.2m/s | -44.8°C | 0% | 14.3hPa | 2.6V | 03:04:26 | 02:57:53 | 00:00:00 | |
| AA1-15 | 2026-09-02 00:50:19 | 52.77591 | 10.80371 | 51° | 15km/h | 28813m | -41.2m/s | -46°C | 0% | 15.3hPa | 2.5V | 03:04:26 | 02:58:05 | 00:00:00 | |
| DL1XH1-15 | 2026-09-02 00:50:19 | 52.77586 | 10.80359 | 68° | 16km/h | 28894m | -40.8m/s | -45.9°C | 2.6% | 15.1hPa | 2.6V | 03:04:02 | 02:58:03 | 00:00:00 | |
| DF8AY | 2026-09-02 00:50:13 | 52.77588 | 10.80307 | 114° | 20km/h | 29135m | -41.8m/s | -45.6°C | 0% | 14.6hPa | 2.6V | 03:06:08 | 02:57:57 | 00:00:00 | |
| DL1XH1-15 | 2026-09-02 00:50:13 | 52.77600 | 10.80273 | 128° | 22km/h | 29300m | -42.2m/s | -44.8°C | 2.4% | 14.3hPa | 2.6V | 03:04:12 | 02:57:53 | 00:00:00 | |
| BUE01 | 2026-09-02 00:50:13 | 52.77587 | 10.80316 | 107° | 22km/h | 29094m | -41.3m/s | -45.9°C | 0.3% | 14.7hPa | 2.6V | 00:00:00 | 00:00:00 | 00:00:00 | |
| DL1XH-15 | 2026-09-02 00:50:12 | 52.77604 | 10.80266 | 135° | 24km/h | 29341m | -42.1m/s | -44.8°C | 2.5% | 14.2hPa | 2.6V | 03:04:13 | 02:57:52 | 00:00:00 | |
| BIOWL1-15 | 2026-09-02 00:50:10 | 52.77612 | 10.80253 | 146° | 22km/h | 29424m | -41.9m/s | -44.6°C | 0% | 14hPa | 2.5V | 03:04:26 | 02:57:50 | 00:00:00 | |
| HSKMA3-T | 2026-09-02 00:50:10 | 52.77591 | 10.80299 | 118° | 26km/h | 29176m | -42.2m/s | -45.4°C | 0% | 14.5hPa | 2.5V | 03:04:26 | 02:57:56 | 00:00:00 | |
| AA1-15 | 2026-09-02 00:50:09 | 52.77594 | 10.80290 | 123° | 22km/h | 29217m | -42.2m/s | -45.1°C | 0% | 14.4hPa | 2.5V | 03:04:26 | 02:57:55 | 00:00:00 | |
| DL3AQ-11 | 2026-09-02 00:50:08 | 52.77600 | 10.80273 | 128° | 20km/h | 29300m | -42.2m/s | -44.8°C | 0.3% | 14.3hPa | 2.5V | 00:00:00 | 00:00:00 | 00:00:00 | |
| EDDB2-11 | 2026-09-02 00:50:07 | 52.77604 | 10.80266 | 135° | 22km/h | 29341m | -42.1m/s | -44.8°C | 0.3% | 14.2hPa | 2.5V | 00:00:00 | 00:00:00 | 00:00:00 | |
| GOEST3-10 | 2026-09-02 00:50:06 | 52.77604 | 10.80266 | 136° | 22km/h | 29341m | -42.1m/s | -44.8°C | 2.5% | 14.1hPa | 2.5V | 00:00:00 | 00:00:00 | 00:00:00 | |
| DL4XJ-10 | 2026-09-02 00:50:05 | 52.77608 | 10.80259 | 134° | 11km/h | 29383m | -42.1m/s | -44.4°C | 0% | 0hPa | 2.5V | 00:00:00 | 00:00:00 | 00:00:00 | |
| DO2SHX-10 | 2026-09-02 00:50:04 | 52.77612 | 10.80253 | 146° | 20km/h | 29424m | -41.8m/s | -44.5°C | 2.4% | 13.9hPa | 2.5V | 00:00:00 | 02:57:50 | 00:00:00 | |
| DD8BA-10 | 2026-09-02 00:50:03 | 52.77616 | 10.80248 | 146° | 9km/h | 29466m | -42.5m/s | -44.3°C | 2.4% | 13.8hPa | 2.5V | 00:00:00 | 00:00:00 | 00:00:00 | |
| DL1XH1-15 | 2026-09-02 00:50:02 | 52.77634 | 10.80228 | 141° | 7km/h | 29719m | -43m/s | -43.4°C | 2.2% | 13.4hPa | 2.5V | 03:04:22 | 02:57:43 | 00:00:00 | |
| DL1XH-15 | 2026-09-02 00:50:01 | 52.77636 | 10.80226 | 147° | 7km/h | 29762m | -43m/s | -43°C | 2.2% | 13.3hPa | 2.6V | 03:04:23 | 02:57:42 | 00:00:00 | |
| DF8AY | 2026-09-02 00:50:01 | 52.77628 | 10.80236 | 143° | 15km/h | 29592m | -43m/s | -44.1°C | 0% | 13.7hPa | 2.6V | 03:06:08 | 02:57:46 | 00:00:00 | |
| HSKMA3-T | 2026-09-02 00:49:59 | 52.77630 | 10.80233 | 147° | 11km/h | 29634m | -43.1m/s | -44°C | 0% | 13.6hPa | 2.6V | 03:04:26 | 02:57:45 | 00:00:00 | |
| AA1-15 | 2026-09-02 00:49:58 | 52.77633 | 10.80230 | 139° | 11km/h | 29677m | -42.9m/s | -43.8°C | 0% | 13.5hPa | 2.5V | 03:04:26 | 02:57:44 | 00:00:00 | |
| BIOWL1-15 | 2026-09-02 00:49:54 | 52.77645 | 10.80212 | 130° | 5km/h | 30060m | -42.9m/s | 0°C | 0% | 12.7hPa | 2.5V | 18:12:15 | 02:57:35 | 00:00:00 | |
| DJ8HS-15 | 2026-09-02 00:49:53 | 52.77639 | 10.80220 | 127° | 13km/h | 29890m | -43.8m/s | -43.1°C | 2.2% | 13.0hPa | 2.5V | 03:04:00 | 02:57:39 | 00:00:00 | |
| DL1XH1-15 | 2026-09-02 00:49:52 | 52.77646 | 10.80206 | 91° | 7km/h | 30142m | -41.6m/s | -43.4°C | 2.3% | 12.6hPa | 2.5V | 03:04:32 | 02:57:33 | 00:00:00 | |
| DO2SHX-10 | 2026-09-02 00:49:52 | 52.77640 | 10.80218 | 155° | 7km/h | 29934m | -43.2m/s | -43.1°C | 2.2% | 12.9hPa | 2.6V | 00:00:00 | 02:57:38 | 00:00:00 | |
| DL1XH-15 | 2026-09-02 00:49:51 | 52.77646 | 10.80203 | 87° | 9km/h | 30183m | -40.9m/s | -43.3°C | 2.3% | 12.5hPa | 2.6V | 03:04:33 | 02:57:32 | 00:00:00 | |
| AA1-15 | 2026-09-02 00:49:48 | 52.77645 | 10.80209 | 105° | 5km/h | 30102m | -42.3m/s | -43.4°C | 0% | 12.6hPa | 2.5V | 03:05:17 | 02:57:34 | 00:00:00 | |
| DB0NH | 2026-09-02 00:49:48 | 52.77645 | 10.80209 | 105° | 15km/h | 30102m | -42.2m/s | -43.3°C | 2.3% | 12.6hPa | 2.5V | 00:00:00 | 02:57:34 | 00:00:00 | |
| DF8AY | 2026-09-02 00:49:47 | 52.77605 | 10.80111 | 100° | 13km/h | 30887m | -36.7m/s | -41.3°C | 0% | 11.2hPa | 2.5V | 03:06:08 | 02:57:12 | 00:00:00 | |
| EDDB2-12 | 2026-09-02 00:49:45 | 52.77645 | 10.80194 | 79° | 9km/h | 30257m | -35.3m/s | -43.2°C | 0.2% | 12.3hPa | 2.6V | 00:00:00 | 00:00:00 | 00:00:00 | |
| DB0UT-7 | 2026-09-02 00:49:44 | 52.77645 | 10.80194 | 80° | 15km/h | 30257m | -35.3m/s | -43.2°C | 2.3% | 12.2hPa | 2.6V | 00:00:00 | 02:57:30 | 00:00:00 | |
| DO2SHX-10 | 2026-09-02 00:49:43 | 52.77644 | 10.80190 | 59° | 9km/h | 30292m | -35.1m/s | -43.1°C | 2.3% | 12.2hPa | 2.5V | 03:04:00 | 02:57:29 | 00:00:00 | |
| DL1NUX | 2026-09-02 00:49:42 | 52.77605 | 10.80123 | 99° | 15km/h | 30816m | -34.2m/s | -41.4°C | 2.1% | 11.3hPa | 2.5V | 03:04:51 | 02:57:14 | 00:00:00 | |
| DL1XH-15 | 2026-09-02 00:49:41 | 52.77605 | 10.80116 | 92° | 13km/h | 30851m | -37m/s | -41.4°C | 2% | 11.3hPa | 2.5V | 03:04:52 | 02:57:13 | 00:00:00 | |
| DB0DAN | 2026-09-02 00:49:40 | 52.77637 | 10.80183 | 16° | 11km/h | 30391m | -33.5m/s | -42.6°C | 0.3% | 12.08hPa | 2.6V | 00:00:00 | 00:00:00 | 00:00:00 | |
| HSKMA3-T | 2026-09-02 00:49:39 | 52.77606 | 10.80071 | 114° | 18km/h | 31162m | -38.4m/s | -40.4°C | 0% | 10.8hPa | 2.6V | 03:05:17 | 02:57:05 | 00:00:00 | |
| AA1-15 | 2026-09-02 00:49:38 | 52.77605 | 10.80092 | 88° | 15km/h | 31046m | -41.7m/s | -40.6°C | 0% | 11hPa | 2.5V | 03:05:17 | 02:57:08 | 00:00:00 | |
| DF8AY | 2026-09-02 00:49:37 | 52.77613 | 10.80052 | 111° | 16km/h | 31270m | -35.6m/s | -40.3°C | 0% | 10.6hPa | 2.5V | 03:06:08 | 02:57:02 | 00:00:00 | |
| DL1XH1-15 | 2026-09-02 00:49:37 | 52.77605 | 10.80079 | 105° | 16km/h | 31124m | -37.7m/s | -40.4°C | 2% | 10.8hPa | 2.5V | 03:04:59 | 02:57:06 | 00:00:00 | |
| DO2SHX-10 | 2026-09-02 00:49:37 | 52.77625 | 10.80176 | 17° | 22km/h | 30494m | -39.0m/s | -41.6°C | 2.1% | 11.9hPa | 2.6V | 00:00:00 | 02:57:23 | 00:00:00 | |
| DL1XH-15 | 2026-09-02 00:49:36 | 52.77611 | 10.80059 | 118° | 16km/h | 31233m | -37.7m/s | -40.3°C | 1.9% | 10.7hPa | 2.6V | 03:05:02 | 02:57:03 | 00:00:00 | |
| HSKMA3-T | 2026-09-02 00:49:31 | 52.77608 | 10.80065 | 119° | 20km/h | 31199m | -38m/s | -40.3°C | 0% | 10.7hPa | 2.6V | 03:05:17 | 02:57:04 | 00:00:00 | |
| DD8BA-10 | 2026-09-02 00:49:31 | 52.77604 | 10.80143 | 85° | 15km/h | 30715m | -34.9m/s | -41.5°C | 2.1% | 11.5hPa | 2.6V | 00:00:00 | 00:00:00 | 00:00:00 | |
| GOEST3-10 | 2026-09-02 00:49:30 | 52.77604 | 10.80136 | 91° | 15km/h | 30749m | -34.2m/s | -41.4°C | 2.1% | 11.3hPa | 2.6V | 00:00:00 | 02:57:16 | 00:00:00 | |
| SP3BTT-10 | 2026-09-02 00:49:29 | 52.77604 | 10.80129 | 101° | 15km/h | 30783m | -33.6m/s | -41.4°C | 2.1% | 11.3hPa | 2.6V | 00:00:00 | 00:00:00 | 00:00:00 | |
| DL3AQ-11 | 2026-09-02 00:49:28 | 52.77605 | 10.80116 | 92° | 13km/h | 30851m | -37.0m/s | -41.4°C | 0.2% | 11.3hPa | 2.6V | 00:00:00 | 00:00:00 | 00:00:00 | |
| AU51GT2 | 2026-09-02 00:49:27 | 52.77605 | 10.80116 | 92° | 13km/h | 30851m | -37.0m/s | -41.4°C | 0.2% | 11.3hPa | 2.6V | 00:00:00 | 00:00:00 | 00:00:00 | |
| TFSTFS | 2026-09-02 00:49:26 | 52.77605 | 10.80116 | 94° | 13km/h | 30852m | -37.0m/s | -41.4°C | 0.2% | 11.3hPa | 2.6V | 00:00:00 | 00:00:00 | 00:00:00 | |
| DB0DAN | 2026-09-02 00:49:25 | 52.77605 | 10.80106 | 84° | 11km/h | 30923m | -40.7m/s | -41°C | 0.2% | 11.16hPa | 2.6V | 00:00:00 | 00:00:00 | 00:00:00 | |
| DF8AY | 2026-09-02 00:49:18 | 52.77614 | 10.80046 | 101° | 15km/h | 31305m | -36.7m/s | -40.2°C | 0% | 10.5hPa | 2.5V | 03:06:08 | 02:57:01 | 00:00:00 | |
| DF8AY-15 | 2026-09-02 00:49:18 | 52.77608 | 10.80065 | 120° | 18km/h | 31199m | -38.0m/s | -40.3°C | 1.9% | 10.7hPa | 2.5V | 03:05:00 | 02:57:04 | 00:00:00 | |
| DL3OBA | 2026-09-02 00:49:17 | 52.77608 | 10.80065 | 120° | 20km/h | 31199m | -38.0m/s | -40.3°C | 0.2% | 10.7hPa | 2.5V | 03:05:00 | 00:00:00 | 00:00:00 | |
| DO2SHX-10 | 2026-09-02 00:49:16 | 52.77613 | 10.80052 | 112° | 16km/h | 31270m | -35.5m/s | -40.2°C | 1.9% | 10.6hPa | 2.5V | 00:00:00 | 02:57:02 | 00:00:00 | |
| DL1XH1-15 | 2026-09-02 00:49:15 | 52.77615 | 10.80033 | 85° | 18km/h | 31378m | -38.3m/s | -40°C | 1.9% | 10.4hPa | 2.6V | 03:05:06 | 02:56:59 | 00:00:00 | |
| AA1-15 | 2026-09-02 00:49:11 | 52.77613 | 10.80018 | 79° | 16km/h | 31457m | -38m/s | -39.8°C | 0% | 10.3hPa | 2.5V | 03:05:17 | 02:56:57 | 00:00:00 | |
| DL1XH-15 | 2026-09-02 00:49:11 | 52.77612 | 10.80005 | 91° | 16km/h | 31532m | -39m/s | -39.6°C | 1.8% | 10.2hPa | 2.6V | 03:05:10 | 02:56:55 | 00:00:00 | |
| DD8BA-10 | 2026-09-02 00:49:11 | 52.77613 | 10.80018 | 80° | 16km/h | 31458m | -38.0m/s | -39.7°C | 1.9% | 10.3hPa | 2.6V | 03:05:00 | 00:00:00 | 00:00:00 | |
| DM0DOS-11 | 2026-09-02 00:49:10 | 52.77612 | 10.79998 | 101° | 16km/h | 31573m | -42.4m/s | -39.6°C | 1.9% | 10.2hPa | 2.6V | 03:05:11 | 02:56:54 | 00:00:00 | |
| DB0DAN | 2026-09-02 00:49:10 | 52.77612 | 10.80011 | 80° | 16km/h | 31494m | -38.1m/s | -39.7°C | 0.1% | 10.25hPa | 2.6V | 00:00:00 | 00:00:00 | 00:00:00 | |
| DL1XH-west | 2026-09-02 00:49:10 | 52.77612 | 10.80005 | 92° | 16km/h | 31532m | -39m/s | -39.6°C | 0% | 10.2hPa | 2.6V | 03:05:17 | 02:56:55 | 00:00:00 | |
| HSKMA3-T | 2026-09-02 00:49:07 | 52.77614 | 10.79991 | 125° | 18km/h | 31615m | -42m/s | -39.5°C | 0% | 10.1hPa | 2.5V | 03:05:17 | 02:56:53 | 00:00:00 | |
| DF8AY | 2026-09-02 00:49:04 | 52.77623 | 10.79972 | 129° | 16km/h | 31740m | -44.5m/s | -39.4°C | 0% | 9.9hPa | 2.6V | 03:06:08 | 02:56:50 | 00:00:00 | |
| DO2SHX-10 | 2026-09-02 00:49:04 | 52.77623 | 10.79972 | 130° | 15km/h | 31741m | -44.5m/s | -39.4°C | 1.8% | 9.9hPa | 2.6V | 00:00:00 | 02:56:50 | 00:00:00 | |
| DM0DOS-11 | 2026-09-02 00:49:03 | 52.77634 | 10.79947 | 114° | 7km/h | 32000m | -44.1m/s | -39.5°C | 1.8% | 9.6hPa | 2.6V | 03:05:21 | 02:56:44 | 00:00:00 | |
| AA1-15 | 2026-09-02 00:49:01 | 52.77632 | 10.79954 | 119° | 11km/h | 31916m | -44.1m/s | -39.6°C | 0% | 9.7hPa | 2.5V | 03:06:08 | 02:56:46 | 00:00:00 | |
| DL1XH-west | 2026-09-02 00:48:59 | 52.77634 | 10.79947 | 115° | 7km/h | 32001m | -44.1m/s | -39.5°C | 0% | 9.6hPa | 2.6V | 03:06:08 | 02:56:44 | 00:00:00 | |
| DL3AQ-11 | 2026-09-02 00:48:59 | 52.77634 | 10.79947 | 114° | 5km/h | 32001m | -44.1m/s | -39.5°C | -1.0% | 9.6hPa | 2.5V | 00:00:00 | 00:00:00 | 00:00:00 | |
| DL1NUX | 2026-09-02 00:48:58 | 52.77637 | 10.79943 | 177° | 4km/h | 32227m | -45.9m/s | -39.1°C | 1.8% | 9.3hPa | 2.5V | 03:05:26 | 02:56:39 | 00:00:00 | |
| HSKMA3-T | 2026-09-02 00:48:56 | 52.77635 | 10.79943 | 143° | 2km/h | 32090m | -44.8m/s | -39.2°C | 0% | 9.4hPa | 2.6V | 03:06:08 | 02:56:42 | 00:00:00 | |
| DF8AY | 2026-09-02 00:48:54 | 52.77636 | 10.79943 | 198° | 5km/h | 32181m | -48.3m/s | -39.1°C | 0% | 9.3hPa | 2.5V | 03:06:08 | 02:56:40 | 00:00:00 | |
| AA1-15 | 2026-09-02 00:48:50 | 52.77639 | 10.79940 | 84° | 2km/h | 32358m | -41.2m/s | -39°C | 0% | 9.1hPa | 2.6V | 03:06:08 | 02:56:36 | 00:00:00 | |
| DM0DOS-11 | 2026-09-02 00:48:50 | 52.77638 | 10.79936 | 39° | 7km/h | 32440m | -43m/s | -39.1°C | 1.8% | 9hPa | 2.5V | 03:05:31 | 02:56:34 | 00:00:00 | |
| GOEST3-10 | 2026-09-02 00:48:50 | 52.77639 | 10.79940 | 84° | 5km/h | 32358m | -41.1m/s | -39.0°C | 1.8% | 9.0hPa | 2.5V | 00:00:00 | 02:56:36 | 00:00:00 | |
| DO2SHX-10 | 2026-09-02 00:48:49 | 52.77639 | 10.79938 | 61° | 7km/h | 32399m | -41.9m/s | -39.0°C | 1.8% | 9.0hPa | 2.5V | 00:00:00 | 02:56:35 | 00:00:00 | |
| DL1NUX | 2026-09-02 00:48:48 | 52.77633 | 10.79934 | 268° | 4km/h | 32623m | -36.3m/s | -39.5°C | 1.9% | 8.7hPa | 2.6V | 03:05:36 | 02:56:29 | 00:00:00 | |
| DL1XH-west | 2026-09-02 00:48:47 | 52.77636 | 10.79934 | 31° | 7km/h | 32480m | -38.6m/s | -39.3°C | 0% | 8.9hPa | 2.6V | 03:06:08 | 02:56:33 | 00:00:00 | |
| DL1XH1-15 | 2026-09-02 00:48:47 | 52.77633 | 10.79936 | 240° | 5km/h | 32659m | -36.7m/s | -39.6°C | 1.9% | 8.7hPa | 2.6V | 03:05:37 | 02:56:28 | 00:00:00 | |
| HSKMA3-T | 2026-09-02 00:48:45 | 52.77634 | 10.79932 | 359° | 5km/h | 32551m | -36.1m/s | -39.4°C | 0% | 8.8hPa | 2.5V | 03:06:08 | 02:56:31 | 00:00:00 | |
| GOEST3-10 | 2026-09-02 00:48:45 | 52.77634 | 10.79932 | 359° | 4km/h | 32551m | -36.0m/s | -39.4°C | 1.9% | 8.7hPa | 2.5V | 00:00:00 | 00:00:00 | 00:00:00 | |
| DL1XH-15 | 2026-09-02 00:48:44 | 52.77634 | 10.79939 | 97° | 2km/h | 32773m | -37.8m/s | -39.9°C | 2% | 8.5hPa | 2.5V | 03:05:40 | 02:56:25 | 00:00:00 | |
| DF8AY | 2026-09-02 00:48:43 | 52.77633 | 10.79934 | 268° | 4km/h | 32623m | -36.3m/s | -39.5°C | 0% | 8.7hPa | 2.6V | 03:06:08 | 02:56:29 | 00:00:00 | |
| DM0DOS-11 | 2026-09-02 00:48:43 | 52.77633 | 10.79937 | 55° | 5km/h | 32810m | -38.2m/s | -39.9°C | 2% | 8.5hPa | 2.5V | 03:05:41 | 02:56:24 | 00:00:00 | |
| AA1-15 | 2026-09-02 00:48:40 | 52.77634 | 10.79939 | 98° | 2km/h | 32773m | -37.8m/s | -39.9°C | 0% | 8.5hPa | 2.5V | 03:06:08 | 02:56:25 | 00:00:00 | |
| BUE01 | 2026-09-02 00:48:39 | 52.77634 | 10.79939 | 97° | 0km/h | 32773m | -37.8m/s | -39.9°C | 0.2% | 8.5hPa | 2.5V | 00:00:00 | 00:00:00 | 00:00:00 | |
| DO3MHA-11 | 2026-09-02 00:48:38 | 52.77633 | 10.79937 | 56° | 18km/h | 32811m | -38.2m/s | -39.9°C | 2.0% | 8.4hPa | 2.5V | 03:05:00 | 02:56:24 | 00:00:00 | |
| DL1XH1-15 | 2026-09-02 00:48:37 | 52.77624 | 10.79903 | 80° | 24km/h | 33030m | -38.7m/s | -38.4°C | 1.8% | 8.2hPa | 2.5V | 03:05:47 | 02:56:18 | 00:00:00 | |
| DL1XH-west | 2026-09-02 00:48:37 | 52.77631 | 10.79931 | 52° | 13km/h | 32884m | -35.1m/s | -39.6°C | 0% | 8.3hPa | 2.6V | 03:06:08 | 02:56:22 | 00:00:00 | |
| HSKMA3-T | 2026-09-02 00:48:35 | 52.77629 | 10.79926 | 63° | 16km/h | 32919m | -36.6m/s | -39.3°C | 0% | 8.3hPa | 2.6V | 03:06:08 | 02:56:21 | 00:00:00 | |
| DF8AY | 2026-09-02 00:48:33 | 52.77625 | 10.79912 | 70° | 22km/h | 32992m | -38.2m/s | -38.6°C | 0% | 8.2hPa | 2.5V | 03:06:08 | 02:56:19 | 00:00:00 | |
| DO2SHX-10 | 2026-09-02 00:48:31 | 52.77623 | 10.79893 | 83° | 22km/h | 33069m | -38.5m/s | -38.2°C | 1.8% | 8.1hPa | 2.6V | 03:05:00 | 02:56:17 | 00:00:00 | |
| DM0DOS-11 | 2026-09-02 00:48:30 | 52.77623 | 10.79866 | 98° | 24km/h | 33181m | -38.8m/s | -38.1°C | 1.8% | 8hPa | 2.5V | 03:05:51 | 02:56:14 | 00:00:00 | |
| DD8BA-10 | 2026-09-02 00:48:30 | 52.77622 | 10.79884 | 89° | 22km/h | 33107m | -37.5m/s | -38.1°C | 1.7% | 8.1hPa | 2.6V | 03:05:00 | 00:00:00 | 00:00:00 | |
| SP3BTT-10 | 2026-09-02 00:48:29 | 52.77622 | 10.79875 | 96° | 15km/h | 33144m | -37.6m/s | -38.1°C | 1.8% | 8.0hPa | 2.6V | 03:05:00 | 00:00:00 | 00:00:00 | |
| DL1NUX | 2026-09-02 00:48:28 | 52.77633 | 10.79822 | 120° | 18km/h | 33373m | -38.6m/s | -38.1°C | 1.8% | 7.8hPa | 2.6V | 03:05:56 | 02:56:09 | 00:00:00 | |
| AA1-15 | 2026-09-02 00:48:28 | 52.77623 | 10.79866 | 99° | 24km/h | 33181m | -38.8m/s | -38.1°C | 0% | 8hPa | 2.5V | 03:06:08 | 02:56:14 | 00:00:00 | |
| DL1XH-west | 2026-09-02 00:48:26 | 52.77628 | 10.79838 | 111° | 26km/h | 33296m | -39.6m/s | -38.2°C | 0% | 7.9hPa | 2.6V | 03:06:08 | 02:56:11 | 00:00:00 | |
| DB0DAN | 2026-09-02 00:48:25 | 52.77628 | 10.79838 | 110° | 24km/h | 33296m | -39.6m/s | -38.2°C | 0.1% | 7.87hPa | 2.6V | 00:00:00 | 00:00:00 | 00:00:00 | |
| GOEST3-10 | 2026-09-02 00:48:25 | 52.77628 | 10.79838 | 111° | 18km/h | 33296m | -39.6m/s | -38.2°C | 1.8% | 7.8hPa | 2.6V | 00:00:00 | 00:00:00 | 00:00:00 | |
| DL1XH-15 | 2026-09-02 00:48:24 | 52.77638 | 10.79805 | 68° | 5km/h | 33525m | -39.4m/s | -37.9°C | 1.9% | 7.6hPa | 2.6V | 03:06:00 | 02:56:05 | 00:00:00 | |
| HSKMA3-T | 2026-09-02 00:48:24 | 52.77630 | 10.79829 | 115° | 24km/h | 33335m | -38.7m/s | -38.2°C | 0% | 7.8hPa | 2.6V | 03:06:08 | 02:56:10 | 00:00:00 | |
| DF8AY | 2026-09-02 00:48:21 | 52.77637 | 10.79810 | 129° | 11km/h | 33449m | -37.6m/s | -38°C | 0% | 7.7hPa | 2.5V | 03:06:08 | 02:56:07 | 00:00:00 | |
| DL4BBY-15 | 2026-09-02 00:48:21 | 52.77636 | 10.79810 | 130° | 15km/h | 33449m | -37.6m/s | -37.7°C | 0% | 0hPa | 2.6V | 00:00:00 | 00:00:00 | 00:00:00 | |
| DD8BA-10 | 2026-09-02 00:48:20 | 52.77638 | 10.79807 | 119° | 13km/h | 33486m | -38.3m/s | -38.0°C | 1.9% | 7.6hPa | 2.6V | 00:00:00 | 00:00:00 | 00:00:00 | |
| DO2SHX-10 | 2026-09-02 00:48:19 | 52.77638 | 10.79805 | 69° | 7km/h | 33525m | -39.3m/s | -37.8°C | 1.9% | 7.6hPa | 2.6V | 00:00:00 | 02:56:05 | 00:00:00 | |
| DL1NUX | 2026-09-02 00:48:18 | 52.77625 | 10.79785 | 66° | 16km/h | 33761m | -45.9m/s | -36.3°C | 1.7% | 7.4hPa | 2.5V | 03:06:06 | 02:55:59 | 00:00:00 | |
| AA1-15 | 2026-09-02 00:48:18 | 52.77635 | 10.79801 | 33° | 11km/h | 33603m | -38.1m/s | -37.5°C | 0% | 7.5hPa | 2.5V | 03:06:08 | 02:56:03 | 00:00:00 | |
| DL1XH-west | 2026-09-02 00:48:14 | 52.77627 | 10.79791 | 45° | 16km/h | 33719m | -41.5m/s | -36.5°C | 0% | 7.4hPa | 2.6V | 03:06:08 | 02:56:00 | 00:00:00 | |
| DB0UT-7 | 2026-09-02 00:48:14 | 52.77627 | 10.79790 | 45° | 18km/h | 33720m | -41.5m/s | -36.5°C | 1.7% | 7.4hPa | 2.6V | 00:00:00 | 00:00:00 | 00:00:00 | |
| DM0DOS-11 | 2026-09-02 00:48:13 | 52.77626 | 10.79757 | 123° | 9km/h | 33983m | -42.5m/s | -35.5°C | 1.6% | 7.1hPa | 2.6V | 03:06:11 | 02:55:54 | 00:00:00 | |
| HSKMA3-T | 2026-09-02 00:48:13 | 52.77625 | 10.79785 | 66° | 16km/h | 33761m | -45.9m/s | -36.3°C | 0% | 7.4hPa | 2.5V | 03:06:08 | 02:55:59 | 00:00:00 | |
| DF8AY | 2026-09-02 00:48:11 | 52.77623 | 10.79773 | 97° | 16km/h | 33851m | -45.6m/s | -36.1°C | 0% | 7.3hPa | 2.5V | 03:06:08 | 02:55:57 | 00:00:00 | |
| DL1XH-15 | 2026-09-02 00:48:11 | 52.77625 | 10.79761 | 106° | 11km/h | 33940m | -43.7m/s | -35.8°C | 1.6% | 7.2hPa | 2.6V | 03:06:10 | 02:55:55 | 00:00:00 | |
| DB0DAN | 2026-09-02 00:48:10 | 52.77624 | 10.79767 | 98° | 15km/h | 33896m | -44.4m/s | -36°C | 0.1% | 7.24hPa | 2.6V | 00:00:00 | 00:00:00 | 00:00:00 | |
| AA1-15 | 2026-09-02 00:48:08 | 52.77628 | 10.79757 | 249° | 7km/h | 34069m | -41.4m/s | -35°C | 0% | 7hPa | 2.5V | 03:06:59 | 02:55:52 | 00:00:00 | |
| DL1XH-west | 2026-09-02 00:48:04 | 52.77629 | 10.79769 | 275° | 18km/h | 34153m | -44.2m/s | -34.5°C | 0% | 7hPa | 2.6V | 03:06:59 | 02:55:50 | 00:00:00 | |
| HSKMA3-T | 2026-09-02 00:48:02 | 52.77627 | 10.79785 | 293° | 16km/h | 34242m | -44m/s | -34.4°C | 0% | 6.9hPa | 2.6V | 03:06:59 | 02:55:48 | 00:00:00 | |
| DO2SHX-10 | 2026-09-02 00:48:01 | 52.77625 | 10.79790 | 304° | 11km/h | 34285m | -41.8m/s | -34.5°C | 1.5% | 6.8hPa | 2.5V | 00:00:00 | 02:55:47 | 00:00:00 | |
| DM0DOS-11 | 2026-09-02 00:48:00 | 52.77620 | 10.79789 | 62° | 16km/h | 34412m | -44m/s | -34.8°C | 1.5% | 6.7hPa | 2.6V | 03:06:21 | 02:55:44 | 00:00:00 | |
| DF8AY | 2026-09-02 00:47:58 | 52.77620 | 10.79789 | 63° | 16km/h | 34412m | -44m/s | -34.8°C | 0% | 6.7hPa | 2.6V | 03:06:59 | 02:55:44 | 00:00:00 | |
| DL1NUX | 2026-09-02 00:47:58 | 52.77613 | 10.79736 | 62° | 24km/h | 34635m | -46.2m/s | -34.6°C | 1.5% | 6.5hPa | 2.6V | 03:06:26 | 02:55:39 | 00:00:00 | |
| AA1-15 | 2026-09-02 00:47:57 | 52.77617 | 10.79770 | 82° | 29km/h | 34499m | -42.6m/s | -34.8°C | 0% | 6.6hPa | 2.6V | 03:06:59 | 02:55:42 | 00:00:00 | |
| MECKS9 | 2026-09-02 00:47:56 | 52.77618 | 10.79781 | 79° | 24km/h | 34457m | -43.1m/s | -34.8°C | 0.1% | 6.7hPa | 2.5V | 00:00:00 | 00:00:00 | 00:00:00 | |
| DB0DAN | 2026-09-02 00:47:55 | 52.77616 | 10.79758 | 81° | 27km/h | 34543m | -45.4m/s | -34.8°C | 0.1% | 6.59hPa | 2.5V | 00:00:00 | 00:00:00 | 00:00:00 | |
| DL1XH-west | 2026-09-02 00:47:54 | 52.77615 | 10.79746 | 72° | 27km/h | 34589m | -47.2m/s | -34.8°C | 0% | 6.6hPa | 2.5V | 03:06:59 | 02:55:40 | 00:00:00 | |
| AU51GT2 | 2026-09-02 00:47:54 | 52.77613 | 10.79736 | 62° | 22km/h | 34636m | -46.2m/s | -34.7°C | 0.1% | 6.5hPa | 2.6V | 00:00:00 | 00:00:00 | 00:00:00 | |
| SONCRA | 2026-09-02 00:47:53 | 52.77613 | 10.79736 | 62° | 22km/h | 34636m | -46.2m/s | -34.7°C | 0.1% | 6.5hPa | 2.6V | 00:00:00 | 00:00:00 | 00:00:00 | |
| HTAHTA | 2026-09-02 00:47:52 | 52.77601 | 10.79721 | 353° | 18km/h | 34767m | -45.6m/s | -33.8°C | 0.1% | 6.4hPa | 2.6V | 00:00:00 | 00:00:00 | 00:00:00 | |
| DL1XH-15 | 2026-09-02 00:47:51 | 52.77597 | 10.79722 | 333° | 11km/h | 34815m | -51.5m/s | -33.3°C | 1.3% | 6.4hPa | 2.6V | 03:06:30 | 02:55:35 | 00:00:00 | |
| HSKMA3-T | 2026-09-02 00:47:51 | 52.77605 | 10.79722 | 23° | 20km/h | 34723m | -43.3m/s | -34.2°C | 0% | 6.4hPa | 2.5V | 03:06:59 | 02:55:37 | 00:00:00 | |
| DL4BBY-15 | 2026-09-02 00:47:51 | 52.77605 | 10.79722 | 23° | 40km/h | 34724m | -43.2m/s | -33.8°C | 0% | 0hPa | 2.6V | 00:00:00 | 00:00:00 | 00:00:00 | |
| DD8BA-10 | 2026-09-02 00:47:50 | 52.77601 | 10.79721 | 354° | 35km/h | 34768m | -45.5m/s | -33.8°C | 1.4% | 6.3hPa | 2.6V | 03:06:00 | 00:00:00 | 00:00:00 | |
| DO2SHX-10 | 2026-09-02 00:47:49 | 52.77597 | 10.79722 | 334° | 13km/h | 34816m | -51.5m/s | -33.3°C | 1.3% | 6.3hPa | 2.6V | 00:00:00 | 02:55:35 | 00:00:00 | |
| DL1NUX | 2026-09-02 00:47:48 | 52.77625 | 10.79671 | 123° | 55km/h | 35111m | -35.1m/s | -33.3°C | 1.3% | 6hPa | 2.6V | 03:06:36 | 02:55:29 | 00:00:00 | |
| DF8AY | 2026-09-02 00:47:47 | 52.77600 | 10.79719 | 136° | 18km/h | 34925m | -57.2m/s | -32.7°C | 0% | 6.3hPa | 2.5V | 03:06:59 | 02:55:33 | 00:00:00 | |
| DL1XH1-15 | 2026-09-02 00:47:47 | 52.77633 | 10.79651 | 123° | 58km/h | 35142m | -27m/s | -33.4°C | 1.4% | 6hPa | 2.5V | 03:06:37 | 02:55:28 | 00:00:00 | |
| AA1-15 | 2026-09-02 00:47:46 | 52.77604 | 10.79712 | 133° | 29km/h | 34978m | -53.2m/s | -32.5°C | 0% | 6.2hPa | 2.5V | 03:06:59 | 02:55:32 | 00:00:00 | |
| DL1XH-west | 2026-09-02 00:47:43 | 52.77625 | 10.79671 | 124° | 55km/h | 35111m | -35.1m/s | -33.3°C | 0% | 6hPa | 2.6V | 03:06:59 | 02:55:29 | 00:00:00 | |
| HSKMA3-T | 2026-09-02 00:47:41 | 52.77641 | 10.79631 | 123° | 62km/h | 35165m | -18.1m/s | -33.4°C | 0% | 6hPa | 2.5V | 03:06:59 | 02:55:27 | 00:00:00 | |
| DB0DAN | 2026-09-02 00:47:40 | 52.77650 | 10.79609 | 122° | 60km/h | 35178m | -8m/s | -33.5°C | 0.1% | 5.92hPa | 2.5V | 00:00:00 | 00:00:00 | 00:00:00 | |
| DD8BA-10 | 2026-09-02 00:47:40 | 52.77650 | 10.79609 | 122° | 57km/h | 35179m | -7.9m/s | -33.4°C | 1.4% | 5.9hPa | 2.6V | 00:00:00 | 00:00:00 | 00:00:00 | |
| SMARD9-15 | 2026-09-02 00:47:38 | 52.77667 | 10.79565 | 125° | 44km/h | 35177m | 8.1m/s | -33.5°C | 0.1% | 5.9hPa | 2.6V | 00:00:00 | 00:00:00 | 00:00:00 | |
| DL1XH1-15 | 2026-09-02 00:47:37 | 52.77654 | 10.79443 | 17° | 38km/h | 35144m | 7.1m/s | -33.5°C | 1.4% | 6hPa | 2.6V | 03:06:47 | 02:55:18 | 00:00:00 | |
| DF8AY | 2026-09-02 00:47:37 | 52.77676 | 10.79517 | 93° | 68km/h | 35165m | 4.1m/s | -33.6°C | 0% | 5.9hPa | 2.5V | 03:06:59 | 02:55:22 | 00:00:00 | |
| AA1-15 | 2026-09-02 00:47:36 | 52.77670 | 10.79468 | 61° | 55km/h | 35157m | 5.1m/s | -33.6°C | 0% | 6hPa | 2.5V | 03:06:59 | 02:55:20 | 00:00:00 | |
| DL1NUX | 2026-09-02 00:47:36 | 52.77662 | 10.79451 | 42° | 46km/h | 35151m | 6.3m/s | -33.5°C | 1.4% | 6hPa | 2.6V | 03:06:46 | 02:55:19 | 00:00:00 | |
| DL1XH-west | 2026-09-02 00:47:33 | 52.77653 | 10.79443 | 18° | 38km/h | 35144m | 7.1m/s | -33.5°C | 0% | 6hPa | 2.6V | 03:06:59 | 02:55:18 | 00:00:00 | |
| DL3OBA | 2026-09-02 00:47:32 | 52.77662 | 10.79451 | 43° | 46km/h | 35151m | 6.3m/s | -33.5°C | 0.1% | 6.0hPa | 2.5V | 03:06:00 | 00:00:00 | 00:00:00 | |
| DL1XH-15 | 2026-09-02 00:47:31 | 52.77635 | 10.79453 | 286° | 18km/h | 35127m | 3.6m/s | -33.5°C | 1.4% | 6hPa | 2.5V | 03:06:50 | 02:55:15 | 00:00:00 | |
| HSKMA3-T | 2026-09-02 00:47:30 | 52.77638 | 10.79446 | 323° | 26km/h | 35132m | 5.1m/s | -33.5°C | 0% | 6hPa | 2.5V | 03:06:59 | 02:55:16 | 00:00:00 | |
| DD8BA-10 | 2026-09-02 00:47:30 | 52.77638 | 10.79446 | 323° | 44km/h | 35132m | 5.0m/s | -33.4°C | 1.4% | 5.9hPa | 2.5V | 00:00:00 | 00:00:00 | 00:00:00 | |
| SP3BTT-10 | 2026-09-02 00:47:29 | 52.77634 | 10.79453 | 287° | 29km/h | 35128m | 3.5m/s | -33.4°C | 1.4% | 5.9hPa | 2.5V | 00:00:00 | 00:00:00 | 00:00:00 | |
| DL1NUX | 2026-09-02 00:47:28 | 52.77667 | 10.79398 | 106° | 71km/h | 35095m | 5.9m/s | -33.3°C | 1.4% | 6hPa | 2.5V | 03:06:56 | 02:55:09 | 00:00:00 | |
| DL3AQ-11 | 2026-09-02 00:47:28 | 52.77639 | 10.79460 | 171° | 20km/h | 35120m | 4.3m/s | -33.4°C | -1.0% | -1.0hPa | 2.6V | 00:00:00 | 00:00:00 | 00:00:00 | |
| DL1XH1-15 | 2026-09-02 00:47:27 | 52.77670 | 10.79369 | 93° | 71km/h | 35090m | 4.2m/s | -33.3°C | 1.3% | 6hPa | 2.6V | 03:06:57 | 02:55:08 | 00:00:00 | |
| DO2SHX-10 | 2026-09-02 00:47:27 | 52.77639 | 10.79460 | 172° | 37km/h | 35120m | 4.2m/s | -33.4°C | 1.4% | 6.0hPa | 2.6V | 00:00:00 | 02:55:13 | 00:00:00 | |
| DB0DAN | 2026-09-02 00:47:25 | 52.77653 | 10.79443 | 130° | 47km/h | 35108m | 6.7m/s | -33.4°C | 0.1% | 5.97hPa | 2.6V | 00:00:00 | 00:00:00 | 00:00:00 | |
| DF8AY | 2026-09-02 00:47:25 | 52.77653 | 10.79443 | 130° | 49km/h | 35108m | 6.7m/s | -33.4°C | 0% | 6hPa | 2.6V | 03:06:59 | 02:55:11 | 00:00:00 | |
| AA1-15 | 2026-09-02 00:47:23 | 52.77667 | 10.79398 | 106° | 71km/h | 35095m | 5.9m/s | -33.3°C | 0% | 6hPa | 2.5V | 03:06:59 | 02:55:09 | 00:00:00 | |
| DL1XH-west | 2026-09-02 00:47:22 | 52.77670 | 10.79369 | 94° | 71km/h | 35090m | 4.3m/s | -33.3°C | 0% | 6hPa | 2.6V | 03:06:59 | 02:55:08 | 00:00:00 | |
| DJ8HS-15 | 2026-09-02 00:47:22 | 52.77670 | 10.79369 | 94° | 46km/h | 35091m | 4.2m/s | -33.3°C | 1.3% | 6.0hPa | 2.6V | 00:00:00 | 02:55:08 | 00:00:00 | |
| TFSTFS | 2026-09-02 00:47:21 | 52.77669 | 10.79341 | 82° | 64km/h | 35087m | 3.7m/s | -33.3°C | 0.1% | 6.0hPa | 2.6V | 00:00:00 | 00:00:00 | 00:00:00 | |
| DM0DOS-11 | 2026-09-02 00:47:20 | 52.77653 | 10.79292 | 26° | 31km/h | 35071m | 6.7m/s | -33.2°C | 1.3% | 6hPa | 2.6V | 03:07:01 | 02:55:04 | 00:00:00 | |
| HSKMA3-T | 2026-09-02 00:47:19 | 52.77659 | 10.79301 | 51° | 42km/h | 35077m | 5.4m/s | -33.3°C | 0% | 6hPa | 2.5V | 03:07:50 | 02:55:05 | 00:00:00 | |
| DL1NUX | 2026-09-02 00:47:18 | 52.77645 | 10.79307 | 174° | 22km/h | 35044m | 4.6m/s | -33.2°C | 1.3% | 6hPa | 2.6V | 03:07:06 | 02:54:59 | 00:00:00 | |
| DL1XH1-15 | 2026-09-02 00:47:17 | 52.77652 | 10.79303 | 146° | 33km/h | 35039m | 5.7m/s | -33.2°C | 1.3% | 6.1hPa | 2.6V | 03:07:07 | 02:54:58 | 00:00:00 | |
| DF8AY | 2026-09-02 00:47:14 | 52.77641 | 10.79305 | 218° | 16km/h | 35048m | 4.1m/s | -33.2°C | 0% | 6hPa | 2.6V | 03:07:50 | 02:55:00 | 00:00:00 | |
| AA1-15 | 2026-09-02 00:47:13 | 52.77652 | 10.79303 | 146° | 33km/h | 35039m | 5.7m/s | -33.2°C | 0% | 6.1hPa | 2.6V | 03:07:50 | 02:54:58 | 00:00:00 | |
| DL1XH-west | 2026-09-02 00:47:11 | 52.77659 | 10.79292 | 130° | 44km/h | 35033m | 6.8m/s | -33.2°C | 0% | 6.1hPa | 2.5V | 03:07:50 | 02:54:57 | 00:00:00 | |
| DL1XH-15 | 2026-09-02 00:47:11 | 52.77670 | 10.79252 | 102° | 60km/h | 35019m | 6m/s | -33.2°C | 1.3% | 6.1hPa | 2.5V | 03:07:10 | 02:54:55 | 00:00:00 | |
| DB0DAN | 2026-09-02 00:47:10 | 52.77665 | 10.79275 | 115° | 51km/h | 35026m | 6.9m/s | -33.2°C | 0.1% | 6.06hPa | 2.5V | 00:00:00 | 00:00:00 | 00:00:00 | |
| HSKMA3-T | 2026-09-02 00:47:09 | 52.77670 | 10.79252 | 102° | 60km/h | 35019m | 6m/s | -33.2°C | 0% | 6.1hPa | 2.5V | 03:07:50 | 02:54:55 | 00:00:00 | |
| DO2SHX-10 | 2026-09-02 00:47:09 | 52.77669 | 10.79252 | 103° | 58km/h | 35020m | 6.0m/s | -33.1°C | 1.3% | 6.0hPa | 2.5V | 00:00:00 | 02:54:55 | 00:00:00 | |
| DL1NUX | 2026-09-02 00:47:08 | 52.77650 | 10.79162 | 346° | 22km/h | 34988m | 6.6m/s | -33.3°C | 1.3% | 6.1hPa | 2.5V | 03:07:16 | 02:54:49 | 00:00:00 | |
| SMARD9-15 | 2026-09-02 00:47:08 | 52.77670 | 10.79204 | 78° | 53km/h | 35010m | 4.0m/s | -33.2°C | 0.1% | 6.1hPa | 2.6V | 00:00:00 | 00:00:00 | 00:00:00 | |
| DL1XH1-15 | 2026-09-02 00:47:07 | 52.77645 | 10.79167 | 312° | 18km/h | 34982m | 6m/s | -33.3°C | 1.3% | 6.1hPa | 2.6V | 03:07:17 | 02:54:48 | 00:00:00 | |
| DO2SHX-10 | 2026-09-02 00:47:06 | 52.77667 | 10.79184 | 65° | 37km/h | 35006m | 4.3m/s | -33.1°C | 1.3% | 6.0hPa | 2.5V | 00:00:00 | 02:54:52 | 00:00:00 | |
| DL1XH-15 | 2026-09-02 00:47:05 | 52.77646 | 10.79182 | 186° | 15km/h | 34968m | 4.4m/s | -33.6°C | 1.3% | 6.1hPa | 2.5V | 03:07:20 | 02:54:45 | 00:00:00 | |
| DF8AY | 2026-09-02 00:47:05 | 52.77650 | 10.79162 | 347° | 22km/h | 34988m | 6.6m/s | -33.3°C | 0% | 6.1hPa | 2.5V | 03:07:50 | 02:54:49 | 00:00:00 | |
| DM0DOS-11 | 2026-09-02 00:47:04 | 52.77654 | 10.79171 | 117° | 33km/h | 34958m | 6.4m/s | -33.8°C | 1.3% | 6.2hPa | 2.5V | 03:07:22 | 02:54:43 | 00:00:00 | |
| AA1-15 | 2026-09-02 00:47:01 | 52.77644 | 10.79173 | 282° | 16km/h | 34976m | 5m/s | -33.4°C | 0% | 6.1hPa | 2.6V | 03:07:50 | 02:54:47 | 00:00:00 | |
| HSKMA3-T | 2026-09-02 00:46:58 | 52.77650 | 10.79180 | 141° | 20km/h | 34963m | 5.3m/s | -33.7°C | 0% | 6.1hPa | 2.5V | 03:07:50 | 02:54:44 | 00:00:00 | |
| DL1XH1-15 | 2026-09-02 00:46:57 | 52.77652 | 10.79069 | 59° | 31km/h | 34925m | 5.1m/s | -34.2°C | 1.4% | 6.2hPa | 2.6V | 03:07:28 | 02:54:37 | 00:00:00 | |
| DB0DAN | 2026-09-02 00:46:55 | 52.77660 | 10.79139 | 99° | 46km/h | 34945m | 6m/s | -34°C | 0.1% | 6.16hPa | 2.6V | 00:00:00 | 00:00:00 | 00:00:00 | |
| DF8AY | 2026-09-02 00:46:52 | 52.77656 | 10.79082 | 70° | 40km/h | 34930m | 4.5m/s | -34.2°C | 0% | 6.2hPa | 2.5V | 03:07:50 | 02:54:38 | 00:00:00 | |
| DM0DOS-11 | 2026-09-02 00:46:52 | 52.77641 | 10.79054 | 0° | 2km/h | 34901m | 5m/s | -34.3°C | 1.4% | 6.2hPa | 2.6V | 03:07:32 | 02:54:33 | 00:00:00 | |
| DL1NUX | 2026-09-02 00:46:52 | 52.77652 | 10.79069 | 59° | 31km/h | 34925m | 5.1m/s | -34.2°C | 1.4% | 6.2hPa | 2.6V | 03:07:28 | 02:54:37 | 00:00:00 | |
| DL1XH-15 | 2026-09-02 00:46:52 | 52.77645 | 10.79055 | 28° | 15km/h | 34913m | 6.3m/s | -34.3°C | 1.4% | 6.2hPa | 2.5V | 03:07:30 | 02:54:35 | 00:00:00 | |
| AA1-15 | 2026-09-02 00:46:50 | 52.77649 | 10.79060 | 44° | 22km/h | 34920m | 5.9m/s | -34.2°C | 0% | 6.2hPa | 2.6V | 03:07:50 | 02:54:36 | 00:00:00 | |
| HSKMA3-T | 2026-09-02 00:46:48 | 52.77642 | 10.79054 | 360° | 7km/h | 34907m | 5.7m/s | -34.3°C | 0% | 6.2hPa | 2.5V | 03:07:50 | 02:54:34 | 00:00:00 | |
| DO2SHX-10 | 2026-09-02 00:46:48 | 52.77642 | 10.79054 | 360° | 4km/h | 34908m | 5.6m/s | -34.3°C | 1.4% | 6.1hPa | 2.6V | 03:07:00 | 02:54:34 | 00:00:00 | |
| DL1XH1-15 | 2026-09-02 00:46:46 | 52.77645 | 10.79017 | 87° | 40km/h | 34876m | 6m/s | -34.4°C | 1.4% | 6.2hPa | 2.6V | 03:07:37 | 02:54:28 | 00:00:00 | |
| DB0NH | 2026-09-02 00:46:46 | 52.77642 | 10.79053 | 108° | 26km/h | 34897m | 4.3m/s | -34.3°C | 1.4% | 6.1hPa | 2.6V | 03:07:00 | 02:54:32 | 00:00:00 | |
| DO2SHX-10 | 2026-09-02 00:46:45 | 52.77642 | 10.79049 | 114° | 22km/h | 34893m | 4.8m/s | -34.3°C | 1.4% | 6.1hPa | 2.5V | 00:00:00 | 02:54:31 | 00:00:00 | |
| DL1XH-15 | 2026-09-02 00:46:44 | 52.77639 | 10.78967 | 67° | 38km/h | 34861m | 4.5m/s | -34.5°C | 1.4% | 6.2hPa | 2.5V | 03:07:40 | 02:54:25 | 00:00:00 | |
| DB0UT-7 | 2026-09-02 00:46:44 | 52.77644 | 10.79042 | 107° | 27km/h | 34888m | 5.5m/s | -34.3°C | 1.4% | 6.1hPa | 2.5V | 03:07:00 | 02:54:30 | 00:00:00 | |
| DL1NUX | 2026-09-02 00:46:42 | 52.77644 | 10.79000 | 80° | 42km/h | 34870m | 5.5m/s | -34.4°C | 1.4% | 6.2hPa | 2.6V | 03:07:38 | 02:54:27 | 00:00:00 | |
| DF8AY | 2026-09-02 00:46:41 | 52.77644 | 10.79000 | 81° | 42km/h | 34870m | 5.5m/s | -34.4°C | 0% | 6.2hPa | 2.6V | 03:07:50 | 02:54:27 | 00:00:00 | |
| DO9LL-15 | 2026-09-02 00:46:41 | 52.77644 | 10.79000 | 81° | 27km/h | 34871m | 5.5m/s | -34.4°C | 1.4% | 6.2hPa | 2.6V | 00:00:00 | 02:54:27 | 00:00:00 | |
| DM0DOS-11 | 2026-09-02 00:46:40 | 52.77631 | 10.78943 | 53° | 24km/h | 34850m | 5.7m/s | -34.5°C | 1.4% | 6.2hPa | 2.6V | 03:07:42 | 02:54:23 | 00:00:00 | |
| DB0DAN | 2026-09-02 00:46:40 | 52.77642 | 10.78983 | 74° | 42km/h | 34865m | 4.8m/s | -34.5°C | 0.1% | 6.21hPa | 2.5V | 00:00:00 | 00:00:00 | 00:00:00 | |
| AA1-15 | 2026-09-02 00:46:39 | 52.77639 | 10.78967 | 68° | 38km/h | 34861m | 4.5m/s | -34.5°C | 0% | 6.2hPa | 2.5V | 03:07:50 | 02:54:25 | 00:00:00 | |
| HSKMA3-T | 2026-09-02 00:46:37 | 52.77631 | 10.78943 | 54° | 24km/h | 34850m | 5.7m/s | -34.5°C | 0% | 6.2hPa | 2.6V | 03:07:50 | 02:54:23 | 00:00:00 | |
| DO2SHX-10 | 2026-09-02 00:46:36 | 52.77628 | 10.78937 | 43° | 7km/h | 34845m | 6.4m/s | -34.5°C | 1.4% | 6.2hPa | 2.6V | 03:07:00 | 02:54:22 | 00:00:00 | |
| BUE01 | 2026-09-02 00:46:35 | 52.77626 | 10.78935 | 28° | 5km/h | 34839m | 6.2m/s | -34.6°C | 0.1% | 6.3hPa | 2.6V | 00:00:00 | 00:00:00 | 00:00:00 | |
| GOEST3-10 | 2026-09-02 00:46:34 | 52.77625 | 10.78934 | 23° | 13km/h | 34833m | 5.3m/s | -34.5°C | 1.4% | 6.2hPa | 2.6V | 03:07:00 | 00:00:00 | 00:00:00 | |
| DO2SHX-10 | 2026-09-02 00:46:33 | 52.77625 | 10.78933 | 149° | 13km/h | 34828m | 4.2m/s | -34.5°C | 1.4% | 6.2hPa | 2.6V | 00:00:00 | 02:54:19 | 00:00:00 | |
| DL1NUX | 2026-09-02 00:46:32 | 52.77628 | 10.78925 | 104° | 20km/h | 34819m | 4.7m/s | -34.6°C | 1.4% | 6.2hPa | 2.6V | 03:07:48 | 02:54:17 | 00:00:00 | |
| DL1XH-15 | 2026-09-02 00:46:31 | 52.77629 | 10.78900 | 85° | 38km/h | 34806m | 6.8m/s | -34.7°C | 1.4% | 6.2hPa | 2.6V | 03:07:50 | 02:54:15 | 00:00:00 | |
| DF8AY | 2026-09-02 00:46:30 | 52.77629 | 10.78914 | 95° | 29km/h | 34813m | 6.6m/s | -34.7°C | 0% | 6.2hPa | 2.6V | 03:07:50 | 02:54:16 | 00:00:00 | |
| AA1-15 | 2026-09-02 00:46:29 | 52.77629 | 10.78900 | 86° | 38km/h | 34806m | 6.8m/s | -34.7°C | 0% | 6.3hPa | 2.6V | 03:07:50 | 02:54:15 | 00:00:00 | |
| GOEST3-10 | 2026-09-02 00:46:29 | 52.77629 | 10.78900 | 86° | 44km/h | 34807m | 6.7m/s | -34.7°C | 1.4% | 6.2hPa | 2.5V | 00:00:00 | 02:54:15 | 00:00:00 | |
| DM0DOS-11 | 2026-09-02 00:46:28 | 52.77623 | 10.78864 | 66° | 47km/h | 34795m | 4.2m/s | -34.9°C | 1.4% | 6.3hPa | 2.5V | 03:07:52 | 02:54:13 | 00:00:00 | |
| HSKMA3-T | 2026-09-02 00:46:27 | 52.77623 | 10.78864 | 66° | 47km/h | 34795m | 4.2m/s | -34.9°C | 0% | 6.3hPa | 2.5V | 03:08:41 | 02:54:13 | 00:00:00 | |
| DO2SHX-10 | 2026-09-02 00:46:27 | 52.77623 | 10.78864 | 67° | 42km/h | 34796m | 4.2m/s | -34.8°C | 1.4% | 6.2hPa | 2.5V | 00:00:00 | 02:54:13 | 00:00:00 | |
| DB0DAN | 2026-09-02 00:46:25 | 52.77612 | 10.78835 | 43° | 37km/h | 34787m | 5.3m/s | -35°C | 0.1% | 6.29hPa | 2.6V | 00:00:00 | 00:00:00 | 00:00:00 | |
| DL1XH-15 | 2026-09-02 00:46:24 | 52.77579 | 10.78841 | 330° | 7km/h | 34753m | 4.4m/s | -35.2°C | 1.5% | 6.3hPa | 2.6V | 03:08:00 | 02:54:05 | 00:00:00 | |
| GOEST3-10 | 2026-09-02 00:46:24 | 52.77604 | 10.78827 | 25° | 26km/h | 34781m | 7.0m/s | -35.1°C | 1.5% | 6.3hPa | 2.6V | 00:00:00 | 00:00:00 | 00:00:00 | |
| DM0DOS-11 | 2026-09-02 00:46:22 | 52.77577 | 10.78835 | 88° | 20km/h | 34742m | 7m/s | -35.2°C | 1.4% | 6.3hPa | 2.6V | 03:08:02 | 02:54:03 | 00:00:00 | |
| DL1NUX | 2026-09-02 00:46:22 | 52.77585 | 10.78832 | 319° | 24km/h | 34762m | 4.6m/s | -35.1°C | 1.4% | 6.3hPa | 2.5V | 03:07:58 | 02:54:07 | 00:00:00 | |
| DF8AY | 2026-09-02 00:46:20 | 52.77581 | 10.78838 | 315° | 16km/h | 34757m | 3.7m/s | -35.2°C | 0% | 6.3hPa | 2.5V | 03:08:41 | 02:54:06 | 00:00:00 | |
| DL1XH-west | 2026-09-02 00:46:19 | 52.77579 | 10.78841 | 330° | 7km/h | 34753m | 4.4m/s | -35.2°C | 0% | 6.3hPa | 2.6V | 03:08:41 | 02:54:05 | 00:00:00 | |
| AA1-15 | 2026-09-02 00:46:18 | 52.77578 | 10.78840 | 73° | 7km/h | 34748m | 5.9m/s | -35.2°C | 0% | 6.3hPa | 2.6V | 03:08:41 | 02:54:04 | 00:00:00 | |
| HSKMA3-T | 2026-09-02 00:46:16 | 52.77577 | 10.78823 | 89° | 35km/h | 34735m | 6.8m/s | -35.2°C | 0% | 6.3hPa | 2.5V | 03:08:41 | 02:54:02 | 00:00:00 | |
| DB0NH | 2026-09-02 00:46:16 | 52.77577 | 10.78823 | 89° | 22km/h | 34735m | 6.8m/s | -35.2°C | 1.5% | 6.3hPa | 2.5V | 00:00:00 | 02:54:02 | 00:00:00 | |
| DO2SHX-10 | 2026-09-02 00:46:15 | 52.77577 | 10.78807 | 88° | 40km/h | 34729m | 5.8m/s | -35.2°C | 1.5% | 6.3hPa | 2.5V | 00:00:00 | 02:54:01 | 00:00:00 | |
| DB0UT-7 | 2026-09-02 00:46:14 | 52.77576 | 10.78790 | 84° | 20km/h | 34724m | 4.3m/s | -35.2°C | 1.5% | 6.3hPa | 2.5V | 00:00:00 | 00:00:00 | 00:00:00 | |
| DL1NUX | 2026-09-02 00:46:12 | 52.77568 | 10.78751 | 42° | 22km/h | 34710m | 5.9m/s | -35.4°C | 1.5% | 6.3hPa | 2.5V | 03:08:08 | 02:53:57 | 00:00:00 | |
| DO2SHX-10 | 2026-09-02 00:46:12 | 52.77572 | 10.78760 | 65° | 24km/h | 34716m | 4.7m/s | -35.3°C | 1.5% | 6.3hPa | 2.6V | 03:08:00 | 02:53:58 | 00:00:00 | |
| DL1XH-15 | 2026-09-02 00:46:11 | 52.77559 | 10.78750 | 332° | 20km/h | 34697m | 6.2m/s | -35.5°C | 1.5% | 6.4hPa | 2.6V | 03:08:10 | 02:53:55 | 00:00:00 | |
| DO9LL-15 | 2026-09-02 00:46:11 | 52.77568 | 10.78751 | 43° | 18km/h | 34710m | 5.8m/s | -35.3°C | 1.5% | 6.3hPa | 2.5V | 00:00:00 | 02:53:57 | 00:00:00 | |
| DM0DOS-11 | 2026-09-02 00:46:10 | 52.77550 | 10.78762 | 312° | 22km/h | 34686m | 4.6m/s | -35.4°C | 1.5% | 6.4hPa | 2.5V | 03:08:12 | 02:53:53 | 00:00:00 | |
| DB0DAN | 2026-09-02 00:46:10 | 52.77564 | 10.78748 | 2° | 16km/h | 34704m | 6.4m/s | -35.4°C | 0.1% | 6.37hPa | 2.6V | 00:00:00 | 00:00:00 | 00:00:00 | |
| DL1XH-west | 2026-09-02 00:46:09 | 52.77559 | 10.78750 | 332° | 20km/h | 34697m | 6.2m/s | -35.5°C | 0% | 6.4hPa | 2.6V | 03:08:41 | 02:53:55 | 00:00:00 | |
| AA1-15 | 2026-09-02 00:46:07 | 52.77550 | 10.78762 | 313° | 24km/h | 34686m | 4.6m/s | -35.4°C | 0% | 6.4hPa | 2.5V | 03:08:41 | 02:53:53 | 00:00:00 | |
| DL1XH1-15 | 2026-09-02 00:46:07 | 52.77539 | 10.78754 | 83° | 26km/h | 34658m | 5.8m/s | -35.4°C | 1.5% | 6.4hPa | 2.5V | 03:08:17 | 02:53:48 | 00:00:00 | |
| HSKMA3-T | 2026-09-02 00:46:06 | 52.77546 | 10.78768 | 318° | 16km/h | 34681m | 4.7m/s | -35.4°C | 0% | 6.4hPa | 2.6V | 03:08:41 | 02:53:52 | 00:00:00 | |
| DO2SHX-10 | 2026-09-02 00:46:06 | 52.77546 | 10.78768 | 318° | 13km/h | 34682m | 4.7m/s | -35.3°C | 1.5% | 6.3hPa | 2.6V | 00:00:00 | 02:53:52 | 00:00:00 | |
| SMARD9-15 | 2026-09-02 00:46:05 | 52.77544 | 10.78771 | 347° | 9km/h | 34676m | 5.5m/s | -35.4°C | 0.1% | 6.4hPa | 2.6V | 00:00:00 | 00:00:00 | 00:00:00 | |
| DL1XH-15 | 2026-09-02 00:46:04 | 52.77538 | 10.78722 | 88° | 18km/h | 34644m | 4.3m/s | -35.5°C | 1.5% | 6.4hPa | 2.6V | 03:08:20 | 02:53:45 | 00:00:00 | |
| DF8AY | 2026-09-02 00:46:00 | 52.77538 | 10.78722 | 88° | 18km/h | 34644m | 4.3m/s | -35.5°C | 0% | 6.4hPa | 2.6V | 03:08:41 | 02:53:45 | 00:00:00 | |
| GOEST3-10 | 2026-09-02 00:45:59 | 52.77538 | 10.78722 | 89° | 15km/h | 34644m | 4.2m/s | -35.4°C | 1.5% | 6.4hPa | 2.5V | 00:00:00 | 02:53:45 | 00:00:00 | |
| DM0DOS-11 | 2026-09-02 00:45:58 | 52.77537 | 10.78715 | 329° | 4km/h | 34633m | 6.6m/s | -35.5°C | 1.5% | 6.4hPa | 2.5V | 03:08:22 | 02:53:43 | 00:00:00 | |
| DL1XH-west | 2026-09-02 00:45:58 | 52.77537 | 10.78716 | 82° | 9km/h | 34639m | 5.3m/s | -35.5°C | 0% | 6.4hPa | 2.6V | 03:08:41 | 02:53:44 | 00:00:00 | |
| HSKMA3-T | 2026-09-02 00:45:56 | 52.77535 | 10.78718 | 295° | 15km/h | 34626m | 6.5m/s | -35.6°C | 0% | 6.4hPa | 2.5V | 03:08:41 | 02:53:42 | 00:00:00 | |
| DB0DAN | 2026-09-02 00:45:55 | 52.77533 | 10.78725 | 296° | 22km/h | 34620m | 5.9m/s | -35.6°C | 0.1% | 6.44hPa | 2.5V | 00:00:00 | 00:00:00 | 00:00:00 | |
| DO2SHX-10 | 2026-09-02 00:45:54 | 52.77530 | 10.78734 | 302° | 24km/h | 34615m | 4.8m/s | -35.6°C | 1.5% | 6.4hPa | 2.6V | 00:00:00 | 02:53:40 | 00:00:00 | |
| DL1XH1-15 | 2026-09-02 00:45:53 | 52.77522 | 10.78748 | 331° | 20km/h | 34605m | 5.4m/s | -35.7°C | 1.5% | 6.5hPa | 2.6V | 03:08:27 | 02:53:38 | 00:00:00 | |
| DM0DOS-11 | 2026-09-02 00:45:52 | 52.77508 | 10.78727 | 89° | 16km/h | 34577m | 4.9m/s | -35.6°C | 1.5% | 6.5hPa | 2.6V | 03:08:32 | 02:53:33 | 00:00:00 | |
| DL3AQ-11 | 2026-09-02 00:45:52 | 52.77510 | 10.78742 | 57° | 20km/h | 34587m | 5.6m/s | 0°C | -1.0% | -1.0hPa | 2.5V | 00:00:00 | 00:00:00 | 00:00:00 | |
| DL1XH-15 | 2026-09-02 00:45:51 | 52.77510 | 10.78742 | 57° | 20km/h | 34587m | 5.5m/s | -35.6°C | 1.5% | 6.5hPa | 2.5V | 03:08:30 | 02:53:35 | 00:00:00 | |
| BIOWL1-15 | 2026-09-02 00:45:51 | 52.77514 | 10.78747 | 33° | 18km/h | 34593m | 5.9m/s | -35.7°C | 0% | 6.5hPa | 2.5V | 03:10:23 | 02:53:36 | 00:00:00 | |
| DO2JMG | 2026-09-02 00:45:49 | 52.77510 | 10.78742 | 57° | 20km/h | 34587m | 5.6m/s | 0°C | 0% | 0hPa | 2.5V | 18:12:15 | 02:53:35 | 00:00:00 | |
| DF8AY | 2026-09-02 00:45:48 | 52.77508 | 10.78727 | 90° | 16km/h | 34577m | 4.9m/s | -35.6°C | 0% | 6.5hPa | 2.6V | 03:08:41 | 02:53:33 | 00:00:00 | |
| DL1XH-west | 2026-09-02 00:45:48 | 52.77508 | 10.78734 | 73° | 20km/h | 34582m | 5.1m/s | -35.6°C | 0% | 6.5hPa | 2.6V | 03:08:41 | 02:53:34 | 00:00:00 | |
| DL1XH1-15 | 2026-09-02 00:45:48 | 52.77515 | 10.78737 | 258° | 22km/h | 34548m | 5.3m/s | -35.5°C | 1.5% | 6.5hPa | 2.6V | 03:08:37 | 02:53:28 | 00:00:00 | |
| HSKMA3-T | 2026-09-02 00:45:45 | 52.77509 | 10.78720 | 185° | 7km/h | 34566m | 6.3m/s | -35.6°C | 0% | 6.5hPa | 2.5V | 03:08:41 | 02:53:31 | 00:00:00 | |
| DO2SHX-10 | 2026-09-02 00:45:45 | 52.77509 | 10.78720 | 186° | 13km/h | 34567m | 6.2m/s | -35.6°C | 1.5% | 6.4hPa | 2.5V | 00:00:00 | 02:53:31 | 00:00:00 | |
| DL1XH-15 | 2026-09-02 00:45:44 | 52.77514 | 10.78759 | 309° | 11km/h | 34532m | 5.9m/s | -35.5°C | 1.5% | 6.5hPa | 2.5V | 03:08:40 | 02:53:25 | 00:00:00 | |
| DB0UT-7 | 2026-09-02 00:45:44 | 52.77511 | 10.78722 | 230° | 13km/h | 34561m | 6.1m/s | -35.5°C | 1.5% | 6.5hPa | 2.6V | 00:00:00 | 02:53:30 | 00:00:00 | |
| DO2SHX-10 | 2026-09-02 00:45:42 | 52.77514 | 10.78737 | 259° | 20km/h | 34549m | 5.3m/s | -35.5°C | 1.5% | 6.4hPa | 2.6V | 00:00:00 | 02:53:28 | 00:00:00 | |
| DM0DOS-11 | 2026-09-02 00:45:41 | 52.77509 | 10.78761 | 20° | 13km/h | 34520m | 6.1m/s | -35.4°C | 1.5% | 6.5hPa | 2.6V | 03:08:42 | 02:53:23 | 00:00:00 | |
| DB0DAN | 2026-09-02 00:45:40 | 52.77515 | 10.78754 | 282° | 16km/h | 34538m | 5.7m/s | -35.5°C | 0.1% | 6.52hPa | 2.6V | 00:00:00 | 00:00:00 | 00:00:00 | |
| DL1XH-west | 2026-09-02 00:45:37 | 52.77509 | 10.78761 | 20° | 13km/h | 34520m | 6.1m/s | -35.4°C | 0% | 6.5hPa | 2.6V | 03:09:32 | 02:53:23 | 00:00:00 | |
| HSKMA3-T | 2026-09-02 00:45:35 | 52.77504 | 10.78756 | 45° | 9km/h | 34509m | 5.5m/s | -35.3°C | 0% | 6.5hPa | 2.5V | 03:09:32 | 02:53:21 | 00:00:00 | |
| AA1-15 | 2026-09-02 00:45:34 | 52.77503 | 10.78754 | 35° | 5km/h | 34503m | 5.8m/s | -35.3°C | 0% | 6.5hPa | 2.5V | 03:09:32 | 02:53:20 | 00:00:00 | |
| GOEST3-10 | 2026-09-02 00:45:34 | 52.77503 | 10.78753 | 36° | 7km/h | 34503m | 5.8m/s | -35.2°C | 1.5% | 6.5hPa | 2.6V | 03:08:00 | 00:00:00 | 00:00:00 | |
| DO2SHX-10 | 2026-09-02 00:45:33 | 52.77502 | 10.78753 | 270° | 7km/h | 34498m | 5.8m/s | -35.2°C | 1.5% | 6.5hPa | 2.6V | 00:00:00 | 02:53:19 | 00:00:00 | |
| DF7PN | 2026-09-02 00:45:32 | 52.77503 | 10.78755 | 237° | 5km/h | 34491m | 5.4m/s | -35.3°C | 0.1% | 6.6hPa | 2.5V | 00:00:00 | 00:00:00 | 00:00:00 | |
| SP3WXH-11 | 2026-09-02 00:45:31 | 52.77506 | 10.78763 | 235° | 13km/h | 34481m | 5.3m/s | -35.3°C | 0.1% | 6.5hPa | 2.5V | 00:00:00 | 00:00:00 | 00:00:00 | |
| DF8AY-15 | 2026-09-02 00:45:30 | 52.77506 | 10.78762 | 236° | 15km/h | 34481m | 5.2m/s | -35.3°C | 1.5% | 6.5hPa | 2.5V | 03:08:00 | 02:53:16 | 00:00:00 | |
| GOEST3-10 | 2026-09-02 00:45:29 | 52.77507 | 10.78768 | 242° | 13km/h | 34476m | 6.0m/s | -35.3°C | 1.5% | 6.5hPa | 2.5V | 00:00:00 | 02:53:15 | 00:00:00 | |
| DM0DOS-11 | 2026-09-02 00:45:28 | 52.77510 | 10.78778 | 264° | 11km/h | 34463m | 6m/s | -35.3°C | 1.5% | 6.6hPa | 2.5V | 03:08:52 | 02:53:13 | 00:00:00 | |
| DF8AY | 2026-09-02 00:45:27 | 52.77510 | 10.78778 | 264° | 11km/h | 34463m | 6m/s | -35.3°C | 0% | 6.6hPa | 2.5V | 03:09:32 | 02:53:13 | 00:00:00 | |
| DL1XH1-15 | 2026-09-02 00:45:27 | 52.77505 | 10.78807 | 278° | 20km/h | 34434m | 6.5m/s | -35.3°C | 1.5% | 6.6hPa | 2.5V | 03:08:57 | 02:53:08 | 00:00:00 | |
| DD8BA-10 | 2026-09-02 00:45:27 | 52.77510 | 10.78778 | 265° | 15km/h | 34463m | 5.9m/s | -35.3°C | 1.5% | 6.6hPa | 2.5V | 00:00:00 | 00:00:00 | 00:00:00 | |
| DB0DAN | 2026-09-02 00:45:25 | 52.77509 | 10.78787 | 288° | 13km/h | 34452m | 5.5m/s | -35.4°C | 0.1% | 6.59hPa | 2.6V | 00:00:00 | 00:00:00 | 00:00:00 | |
| HSKMA3-T | 2026-09-02 00:45:25 | 52.77509 | 10.78787 | 288° | 13km/h | 34452m | 5.5m/s | -35.4°C | 0% | 6.6hPa | 2.6V | 03:09:32 | 02:53:11 | 00:00:00 | |
| AA1-15 | 2026-09-02 00:45:24 | 52.77508 | 10.78793 | 289° | 15km/h | 34446m | 5.7m/s | -35.4°C | 0% | 6.6hPa | 2.6V | 03:09:32 | 02:53:10 | 00:00:00 | |
| DL1XH-15 | 2026-09-02 00:45:24 | 52.77505 | 10.78832 | 259° | 16km/h | 34416m | 5.1m/s | -35.2°C | 1.5% | 6.7hPa | 2.6V | 03:09:00 | 02:53:05 | 00:00:00 | |
| DO2SHX-10 | 2026-09-02 00:45:24 | 52.77508 | 10.78792 | 289° | 18km/h | 34446m | 5.7m/s | -35.3°C | 1.6% | 6.5hPa | 2.6V | 03:08:00 | 02:53:10 | 00:00:00 | |
| DM0DOS-11 | 2026-09-02 00:45:23 | 52.77507 | 10.78840 | 208° | 5km/h | 34405m | 6.4m/s | -35.1°C | 1.5% | 6.6hPa | 2.6V | 03:09:02 | 02:53:03 | 00:00:00 | |
| SP3BTT-10 | 2026-09-02 00:45:22 | 52.77506 | 10.78807 | 279° | 20km/h | 34434m | 6.5m/s | -35.3°C | 1.5% | 6.6hPa | 2.5V | 00:00:00 | 00:00:00 | 00:00:00 | |
| DO2SHX-10 | 2026-09-02 00:45:21 | 52.77505 | 10.78816 | 274° | 20km/h | 34428m | 5.9m/s | -35.2°C | 1.5% | 6.6hPa | 2.6V | 00:00:00 | 02:53:07 | 00:00:00 | |
| DO3MHA-11 | 2026-09-02 00:45:20 | 52.77505 | 10.78825 | 269° | 13km/h | 34422m | 5.1m/s | -35.2°C | 1.5% | 6.6hPa | 2.6V | 00:00:00 | 02:53:06 | 00:00:00 | |
| GOEST3-10 | 2026-09-02 00:45:19 | 52.77505 | 10.78832 | 260° | 9km/h | 34417m | 5.1m/s | -35.2°C | 1.5% | 6.6hPa | 2.6V | 00:00:00 | 02:53:05 | 00:00:00 | |
| DO2SHX-10 | 2026-09-02 00:45:18 | 52.77506 | 10.78838 | 243° | 7km/h | 34411m | 5.2m/s | -35.1°C | 1.5% | 6.6hPa | 2.6V | 00:00:00 | 02:53:04 | 00:00:00 | |
| DL1XH1-15 | 2026-09-02 00:45:17 | 52.77518 | 10.78840 | 212° | 16km/h | 34377m | 5.9m/s | -35°C | 1.5% | 6.7hPa | 2.6V | 03:09:07 | 02:52:58 | 00:00:00 | |
| DL1XH-west | 2026-09-02 00:45:17 | 52.77509 | 10.78841 | 162° | 5km/h | 34399m | 6.9m/s | -35.1°C | 0% | 6.6hPa | 2.5V | 03:09:32 | 02:53:02 | 00:00:00 | |
| HSKMA3-T | 2026-09-02 00:45:16 | 52.77511 | 10.78839 | 147° | 9km/h | 34393m | 5.6m/s | -35.1°C | 0% | 6.7hPa | 2.5V | 03:09:32 | 02:53:01 | 00:00:00 | |
| AA1-15 | 2026-09-02 00:45:13 | 52.77515 | 10.78838 | 190° | 11km/h | 34383m | 4.8m/s | -35°C | 0% | 6.7hPa | 2.6V | 03:09:32 | 02:52:59 | 00:00:00 | |
| DL1NUX | 2026-09-02 00:45:12 | 52.77522 | 10.78846 | 229° | 24km/h | 34371m | 7m/s | -35°C | 1.5% | 6.7hPa | 2.6V | 03:09:08 | 02:52:57 | 00:00:00 | |
| DO2SHX-10 | 2026-09-02 00:45:12 | 52.77518 | 10.78840 | 213° | 24km/h | 34377m | 5.9m/s | -35.0°C | 1.5% | 6.6hPa | 2.5V | 03:09:00 | 02:52:58 | 00:00:00 | |
| DB0DAN | 2026-09-02 00:45:10 | 52.77526 | 10.78855 | 241° | 29km/h | 34364m | 6.4m/s | -35°C | 0.1% | 6.69hPa | 2.5V | 00:00:00 | 00:00:00 | 00:00:00 | |
| DF8AY-15 | 2026-09-02 00:45:10 | 52.77526 | 10.78855 | 242° | 22km/h | 34364m | 6.3m/s | -34.9°C | 1.5% | 6.6hPa | 2.5V | 00:00:00 | 02:52:56 | 00:00:00 | |
| DO2SHX-10 | 2026-09-02 00:45:09 | 52.77529 | 10.78868 | 249° | 33km/h | 34359m | 5.0m/s | -34.9°C | 1.5% | 6.7hPa | 2.5V | 00:00:00 | 02:52:55 | 00:00:00 | |
| DF7ER-10 | 2026-09-02 00:45:08 | 52.77532 | 10.78881 | 256° | 35km/h | 34354m | 4.4m/s | -34.9°C | 0.1% | 6.7hPa | 2.5V | 03:09:00 | 00:00:00 | 00:00:00 | |
| DL1XH1-15 | 2026-09-02 00:45:07 | 52.77528 | 10.78907 | 74° | 11km/h | 34319m | 4.5m/s | -34.7°C | 1.4% | 6.7hPa | 2.5V | 03:09:17 | 02:52:48 | 00:00:00 | |
| DL1XH-west | 2026-09-02 00:45:05 | 52.77533 | 10.78911 | 301° | 13km/h | 34337m | 7m/s | -34.8°C | 0% | 6.7hPa | 2.6V | 03:09:32 | 02:52:51 | 00:00:00 | |
| AA1-15 | 2026-09-02 00:45:03 | 52.77528 | 10.78907 | 75° | 11km/h | 34319m | 4.5m/s | -34.7°C | 0% | 6.7hPa | 2.5V | 03:09:32 | 02:52:48 | 00:00:00 | |
| DM0DOS-11 | 2026-09-02 00:45:03 | 52.77542 | 10.78912 | 227° | 29km/h | 34292m | 5.3m/s | -34.7°C | 1.5% | 6.7hPa | 2.5V | 03:09:22 | 02:52:43 | 00:00:00 | |
| DL1NUX | 2026-09-02 00:45:02 | 52.77528 | 10.78903 | 110° | 11km/h | 34314m | 4.7m/s | -34.7°C | 1.5% | 6.8hPa | 2.6V | 03:09:18 | 02:52:47 | 00:00:00 | |
| DF7PN | 2026-09-02 00:45:01 | 52.77530 | 10.78900 | 162° | 9km/h | 34310m | 6.0m/s | -34.7°C | 0.1% | 6.7hPa | 2.6V | 00:00:00 | 00:00:00 | 00:00:00 | |
| SP3WXH-11 | 2026-09-02 00:45:00 | 52.77537 | 10.78904 | 217° | 24km/h | 34297m | 5.8m/s | -34.7°C | 0.1% | 6.8hPa | 2.6V | 00:00:00 | 00:00:00 | 00:00:00 | |
| EDDB2-11 | 2026-09-02 00:44:56 | 52.77547 | 10.78921 | 237° | 29km/h | 34286m | 4.8m/s | -34.7°C | 0.1% | 6.7hPa | 2.6V | 00:00:00 | 00:00:00 | 00:00:00 | |
| DB0DAN | 2026-09-02 00:44:55 | 52.77550 | 10.78932 | 250° | 27km/h | 34281m | 5m/s | -34.7°C | 0.1% | 6.77hPa | 2.6V | 00:00:00 | 00:00:00 | 00:00:00 | |
| HSKMA3-T | 2026-09-02 00:44:55 | 52.77551 | 10.78951 | 293° | 18km/h | 34270m | 6.4m/s | -34.8°C | 0% | 6.8hPa | 2.6V | 03:09:32 | 02:52:39 | 00:00:00 | |
| DL1XH-west | 2026-09-02 00:44:54 | 52.77551 | 10.78943 | 265° | 24km/h | 34276m | 6m/s | -34.8°C | 0% | 6.8hPa | 2.6V | 03:09:32 | 02:52:40 | 00:00:00 | |
| DO2SHX-10 | 2026-09-02 00:44:54 | 52.77551 | 10.78942 | 266° | 20km/h | 34276m | 5.9m/s | -34.7°C | 1.5% | 6.7hPa | 2.5V | 00:00:00 | 02:52:40 | 00:00:00 | |
| DL1XH1-15 | 2026-09-02 00:44:53 | 52.77548 | 10.78957 | 325° | 18km/h | 34263m | 6.3m/s | -34.8°C | 1.5% | 6.8hPa | 2.5V | 03:09:27 | 02:52:38 | 00:00:00 | |
| DL1NUX | 2026-09-02 00:44:52 | 52.77544 | 10.78960 | 349° | 18km/h | 34257m | 5.8m/s | -34.7°C | 1.5% | 6.8hPa | 2.5V | 03:09:28 | 02:52:37 | 00:00:00 | |
| AA1-15 | 2026-09-02 00:44:51 | 52.77544 | 10.78960 | 349° | 18km/h | 34257m | 5.8m/s | -34.7°C | 0% | 6.8hPa | 2.5V | 03:09:32 | 02:52:37 | 00:00:00 | |
| DO2SHX-10 | 2026-09-02 00:44:51 | 52.77543 | 10.78960 | 350° | 15km/h | 34257m | 5.7m/s | -34.7°C | 1.5% | 6.7hPa | 2.5V | 00:00:00 | 02:52:37 | 00:00:00 | |
| DF8AY-15 | 2026-09-02 00:44:50 | 52.77539 | 10.78960 | 3° | 13km/h | 34252m | 4.5m/s | -34.6°C | 1.5% | 6.7hPa | 2.5V | 00:00:00 | 02:52:36 | 00:00:00 | |
| GOEST3-10 | 2026-09-02 00:44:49 | 52.77536 | 10.78959 | 14° | 13km/h | 34248m | 4.5m/s | -34.6°C | 1.4% | 6.7hPa | 2.6V | 00:00:00 | 02:52:35 | 00:00:00 | |
| DM0DOS-11 | 2026-09-02 00:44:48 | 52.77535 | 10.78958 | 188° | 9km/h | 34236m | 6.6m/s | -34.6°C | 1.4% | 6.8hPa | 2.6V | 03:09:32 | 02:52:33 | 00:00:00 | |
| AU51GT2 | 2026-09-02 00:44:48 | 52.77535 | 10.78958 | 188° | 7km/h | 34236m | 6.6m/s | -34.6°C | 0.1% | 6.8hPa | 2.6V | 00:00:00 | 00:00:00 | 00:00:00 | |
| DD8BA-10 | 2026-09-02 00:44:47 | 52.77535 | 10.78958 | 189° | 16km/h | 34236m | 6.6m/s | -34.5°C | 1.4% | 6.8hPa | 2.6V | 00:00:00 | 00:00:00 | 00:00:00 | |
| DB0NH | 2026-09-02 00:44:46 | 52.77538 | 10.78960 | 199° | 11km/h | 34230m | 6.4m/s | -34.5°C | 1.4% | 6.7hPa | 2.6V | 03:09:00 | 02:52:32 | 00:00:00 | |
| DO2SHX-10 | 2026-09-02 00:44:45 | 52.77543 | 10.78963 | 203° | 26km/h | 34223m | 6.0m/s | -34.5°C | 1.4% | 6.8hPa | 2.6V | 00:00:00 | 02:52:31 | 00:00:00 | |
| DL1XH-15 | 2026-09-02 00:44:44 | 52.77561 | 10.78988 | 337° | 11km/h | 34188m | 6.2m/s | -34.5°C | 1.4% | 6.8hPa | 2.6V | 03:09:40 | 02:52:25 | 00:00:00 | |
| DL1XH-west | 2026-09-02 00:44:44 | 52.77555 | 10.78972 | 209° | 26km/h | 34213m | 5m/s | -34.5°C | 0% | 6.9hPa | 2.6V | 03:10:23 | 02:52:29 | 00:00:00 | |
| BIOWL1-15 | 2026-09-02 00:44:44 | 52.77561 | 10.78988 | 338° | 11km/h | 34188m | 6.2m/s | -34.5°C | 0% | 6.8hPa | 2.6V | 03:10:23 | 02:52:25 | 00:00:00 | |
| DL1NUX | 2026-09-02 00:44:42 | 52.77562 | 10.78981 | 237° | 11km/h | 34201m | 6.6m/s | -34.5°C | 1.4% | 6.8hPa | 2.5V | 03:09:38 | 02:52:27 | 00:00:00 | |
| DO2SHX-10 | 2026-09-02 00:44:42 | 52.77560 | 10.78977 | 219° | 13km/h | 34208m | 5.9m/s | -34.4°C | 1.4% | 6.8hPa | 2.6V | 00:00:00 | 02:52:28 | 00:00:00 | |
| DB0DAN | 2026-09-02 00:44:40 | 52.77563 | 10.78985 | 294° | 7km/h | 34195m | 6.4m/s | -34.5°C | 0.1% | 6.86hPa | 2.6V | 00:00:00 | 00:00:00 | 00:00:00 | |
| AA1-15 | 2026-09-02 00:44:40 | 52.77563 | 10.78985 | 294° | 7km/h | 34195m | 6.4m/s | -34.5°C | 0% | 6.9hPa | 2.6V | 03:10:23 | 02:52:26 | 00:00:00 | |
| HSKMA3-T | 2026-09-02 00:44:34 | 52.77549 | 10.78997 | 219° | 9km/h | 34154m | 5.4m/s | -34.8°C | 0% | 6.9hPa | 2.5V | 03:10:23 | 02:52:19 | 00:00:00 | |
| DF8AY | 2026-09-02 00:44:33 | 52.77551 | 10.78999 | 203° | 13km/h | 34149m | 5.6m/s | -34.9°C | 0% | 6.9hPa | 2.6V | 03:10:23 | 02:52:18 | 00:00:00 | |
| DL1NUX | 2026-09-02 00:44:32 | 52.77554 | 10.79001 | 195° | 13km/h | 34143m | 5.7m/s | -34.9°C | 1.4% | 6.9hPa | 2.6V | 03:09:48 | 02:52:17 | 00:00:00 | |
| SMARD9-15 | 2026-09-02 00:44:32 | 52.77551 | 10.78999 | 202° | 11km/h | 34149m | 5.6m/s | -34.9°C | 0.1% | 6.9hPa | 2.5V | 00:00:00 | 00:00:00 | 00:00:00 | |
| DL1XH-15 | 2026-09-02 00:44:31 | 52.77560 | 10.79001 | 157° | 9km/h | 34131m | 6.3m/s | -35.1°C | 1.5% | 6.9hPa | 2.5V | 03:09:50 | 02:52:15 | 00:00:00 | |
| AA1-15 | 2026-09-02 00:44:29 | 52.77560 | 10.79001 | 158° | 9km/h | 34131m | 6.3m/s | -35.1°C | 0% | 6.9hPa | 2.5V | 03:10:23 | 02:52:15 | 00:00:00 | |
| BIOWL1-15 | 2026-09-02 00:44:29 | 52.77561 | 10.78992 | 65° | 7km/h | 34113m | 5.7m/s | -35.3°C | 0% | 7hPa | 2.6V | 03:10:23 | 02:52:12 | 00:00:00 | |
| SP3WXH-11 | 2026-09-02 00:44:28 | 52.77562 | 10.78996 | 88° | 7km/h | 34119m | 6.1m/s | -35.2°C | 0.1% | 6.9hPa | 2.5V | 00:00:00 | 00:00:00 | 00:00:00 | |
| DL1XH1-15 | 2026-09-02 00:44:27 | 52.77561 | 10.78991 | 230° | 9km/h | 34089m | 6.3m/s | -35.4°C | 1.5% | 6.9hPa | 2.5V | 03:09:57 | 02:52:08 | 00:00:00 | |
| DD8BA-10 | 2026-09-02 00:44:27 | 52.77562 | 10.78995 | 89° | 7km/h | 34119m | 6.0m/s | -35.2°C | 1.4% | 6.9hPa | 2.5V | 03:09:00 | 00:00:00 | 00:00:00 | |
| EDDB2-11 | 2026-09-02 00:44:26 | 52.77560 | 10.78990 | 62° | 5km/h | 34108m | 5.6m/s | -35.3°C | 0.1% | 6.9hPa | 2.6V | 00:00:00 | 00:00:00 | 00:00:00 | |
| DB0DAN | 2026-09-02 00:44:25 | 52.77560 | 10.78990 | 62° | 5km/h | 34108m | 5.6m/s | -35.3°C | 0.1% | 6.92hPa | 2.6V | 00:00:00 | 00:00:00 | 00:00:00 | |
| DL1XH-15 | 2026-09-02 00:44:24 | 52.77566 | 10.78999 | 200° | 5km/h | 34073m | 5.2m/s | -35.4°C | 1.4% | 7hPa | 2.6V | 03:10:00 | 02:52:05 | 00:00:00 | |
| DF8AY | 2026-09-02 00:44:22 | 52.77561 | 10.78991 | 231° | 9km/h | 34089m | 6.3m/s | -35.4°C | 0% | 6.9hPa | 2.5V | 03:10:23 | 02:52:08 | 00:00:00 | |
| DL1NUX | 2026-09-02 00:44:22 | 52.77562 | 10.78994 | 226° | 11km/h | 34083m | 5.5m/s | -35.4°C | 1.5% | 7hPa | 2.5V | 03:09:58 | 02:52:07 | 00:00:00 | |
| DL1XH-west | 2026-09-02 00:44:21 | 52.77562 | 10.78994 | 227° | 11km/h | 34083m | 5.5m/s | -35.4°C | 0% | 7hPa | 2.5V | 03:10:23 | 02:52:07 | 00:00:00 | |
| AA1-15 | 2026-09-02 00:44:19 | 52.77566 | 10.78999 | 201° | 5km/h | 34073m | 5.2m/s | -35.4°C | 0% | 7hPa | 2.6V | 03:10:23 | 02:52:05 | 00:00:00 | |
| BIOWL1-15 | 2026-09-02 00:44:18 | 52.77566 | 10.78990 | 69° | 16km/h | 34055m | 6.5m/s | -35.5°C | 0% | 7hPa | 2.5V | 03:10:23 | 02:52:02 | 00:00:00 | |
| DO2SHX-10 | 2026-09-02 00:44:18 | 52.77567 | 10.78998 | 121° | 11km/h | 34068m | 6.0m/s | -35.4°C | 1.4% | 6.9hPa | 2.6V | 00:00:00 | 02:52:04 | 00:00:00 | |
| DL1XH1-15 | 2026-09-02 00:44:17 | 52.77561 | 10.78959 | 98° | 15km/h | 34034m | 5.6m/s | -35.7°C | 1.5% | 7hPa | 2.6V | 03:10:07 | 02:51:58 | 00:00:00 | |
| HSKMA3-T | 2026-09-02 00:44:12 | 52.77561 | 10.78958 | 98° | 15km/h | 34034m | 5.6m/s | -35.7°C | 0% | 7hPa | 2.6V | 03:10:23 | 02:51:58 | 00:00:00 | |
| DL1NUX | 2026-09-02 00:44:12 | 52.77562 | 10.78954 | 133° | 13km/h | 34028m | 6.5m/s | -35.7°C | 1.5% | 7hPa | 2.5V | 03:10:08 | 02:51:57 | 00:00:00 | |
| DF8AY | 2026-09-02 00:44:11 | 52.77562 | 10.78954 | 134° | 13km/h | 34028m | 6.5m/s | -35.7°C | 0% | 7hPa | 2.5V | 03:10:23 | 02:51:57 | 00:00:00 | |
| DL1XH-15 | 2026-09-02 00:44:11 | 52.77570 | 10.78951 | 181° | 18km/h | 34015m | 5.6m/s | -35.8°C | 1.5% | 7hPa | 2.5V | 03:10:10 | 02:51:55 | 00:00:00 | |
| DB0DAN | 2026-09-02 00:44:10 | 52.77565 | 10.78951 | 167° | 15km/h | 34021m | 6.6m/s | -35.8°C | 0.1% | 7.02hPa | 2.5V | 00:00:00 | 00:00:00 | 00:00:00 | |
| DL1XH-west | 2026-09-02 00:44:10 | 52.77565 | 10.78951 | 167° | 15km/h | 34021m | 6.6m/s | -35.8°C | 0% | 7hPa | 2.5V | 03:10:23 | 02:51:56 | 00:00:00 | |
| AA1-15 | 2026-09-02 00:44:08 | 52.77574 | 10.78951 | 182° | 18km/h | 34010m | 4.4m/s | -35.8°C | 0% | 7.1hPa | 2.6V | 03:10:23 | 02:51:54 | 00:00:00 | |
| DD8BA-10 | 2026-09-02 00:44:07 | 52.77578 | 10.78951 | 165° | 20km/h | 34006m | 4.0m/s | -35.8°C | 1.5% | 7.0hPa | 2.5V | 00:00:00 | 00:00:00 | 00:00:00 | |
| DO2SHX-10 | 2026-09-02 00:44:06 | 52.77580 | 10.78948 | 126° | 18km/h | 34002m | 5.0m/s | -35.9°C | 1.5% | 7.0hPa | 2.5V | 00:00:00 | 02:51:52 | 00:00:00 | |
| DL1XH-15 | 2026-09-02 00:44:04 | 52.77559 | 10.78887 | 52° | 15km/h | 33960m | 5.8m/s | -36.2°C | 1.5% | 7.1hPa | 2.5V | 03:10:20 | 02:51:45 | 00:00:00 | |
| GOEST3-10 | 2026-09-02 00:44:04 | 52.77579 | 10.78935 | 68° | 29km/h | 33989m | 7.2m/s | -35.9°C | 1.5% | 7.0hPa | 2.5V | 00:00:00 | 00:00:00 | 00:00:00 | |
| DO2SHX-10 | 2026-09-02 00:44:03 | 52.77576 | 10.78924 | 59° | 33km/h | 33982m | 6.4m/s | -36.0°C | 1.5% | 7.0hPa | 2.5V | 00:00:00 | 02:51:49 | 00:00:00 | |
| DM0DOS-11 | 2026-09-02 00:44:02 | 52.77559 | 10.78883 | 192° | 7km/h | 33947m | 6.4m/s | -36.3°C | 1.5% | 7.1hPa | 2.5V | 03:10:22 | 02:51:43 | 00:00:00 | |
| HSKMA3-T | 2026-09-02 00:44:02 | 52.77571 | 10.78913 | 54° | 37km/h | 33975m | 5.2m/s | -36.1°C | 0% | 7.1hPa | 2.6V | 03:10:23 | 02:51:48 | 00:00:00 | |
| DL1NUX | 2026-09-02 00:44:02 | 52.77566 | 10.78902 | 51° | 31km/h | 33970m | 4.6m/s | -36.1°C | 1.5% | 7.1hPa | 2.6V | 03:10:18 | 02:51:47 | 00:00:00 | |
| DF8AY | 2026-09-02 00:44:01 | 52.77566 | 10.78902 | 52° | 31km/h | 33970m | 4.6m/s | -36.1°C | 0% | 7.1hPa | 2.6V | 03:10:23 | 02:51:47 | 00:00:00 | |
| DL1XH-west | 2026-09-02 00:43:59 | 52.77559 | 10.78887 | 52° | 15km/h | 33960m | 5.8m/s | -36.2°C | 0% | 7.1hPa | 2.5V | 03:10:23 | 02:51:45 | 00:00:00 | |
| AA1-15 | 2026-09-02 00:43:57 | 52.77559 | 10.78883 | 193° | 7km/h | 33947m | 6.4m/s | -36.3°C | 0% | 7.1hPa | 2.5V | 03:10:23 | 02:51:43 | 00:00:00 | |
| DL1XH1-15 | 2026-09-02 00:43:57 | 52.77567 | 10.78876 | 69° | 18km/h | 33920m | 5.7m/s | -36.5°C | 1.6% | 7.1hPa | 2.5V | 03:10:27 | 02:51:38 | 00:00:00 | |
| HSKMA3-T | 2026-09-02 00:43:52 | 52.77565 | 10.78868 | 57° | 24km/h | 33914m | 5.7m/s | -36.5°C | 0% | 7.1hPa | 2.5V | 03:11:14 | 02:51:37 | 00:00:00 | |
| DL1XH-15 | 2026-09-02 00:43:51 | 52.77555 | 10.78851 | 38° | 33km/h | 33902m | 6.6m/s | -36.6°C | 1.5% | 7.1hPa | 2.6V | 03:10:30 | 02:51:35 | 00:00:00 | |
| DF8AY | 2026-09-02 00:43:50 | 52.77561 | 10.78860 | 46° | 29km/h | 33908m | 5.9m/s | -36.6°C | 0% | 7.1hPa | 2.6V | 03:11:14 | 02:51:36 | 00:00:00 | |
| BIOWL1-15 | 2026-09-02 00:43:49 | 52.77555 | 10.78851 | 39° | 33km/h | 33902m | 6.6m/s | -36.6°C | 0% | 7.1hPa | 2.6V | 03:12:05 | 02:51:35 | 00:00:00 | |
| AA1-15 | 2026-09-02 00:43:46 | 52.77536 | 10.78833 | 22° | 22km/h | 33884m | 5.4m/s | -36.7°C | 0% | 7.2hPa | 2.5V | 03:11:14 | 02:51:32 | 00:00:00 | |
| AU51GT2 | 2026-09-02 00:43:46 | 52.77532 | 10.78830 | 23° | 15km/h | 33879m | 5.3m/s | -36.7°C | 0.1% | 7.2hPa | 2.6V | 00:00:00 | 00:00:00 | 00:00:00 | |
| SONCRA | 2026-09-02 00:43:45 | 52.77529 | 10.78828 | 40° | 11km/h | 33874m | 5.6m/s | -36.7°C | 0.1% | 7.2hPa | 2.6V | 00:00:00 | 00:00:00 | 00:00:00 | |
| GOEST3-10 | 2026-09-02 00:43:44 | 52.77529 | 10.78827 | 41° | 16km/h | 33874m | 5.5m/s | -36.6°C | 1.6% | 7.1hPa | 2.6V | 00:00:00 | 00:00:00 | 00:00:00 | |
| HTAHTA | 2026-09-02 00:43:43 | 52.77529 | 10.78811 | 102° | 18km/h | 33854m | 6.3m/s | -36.7°C | 0.1% | 7.2hPa | 2.6V | 00:00:00 | 00:00:00 | 00:00:00 | |
| DM0DOS-11 | 2026-09-02 00:43:42 | 52.77530 | 10.78781 | 59° | 11km/h | 33834m | 5.4m/s | -36.8°C | 1.6% | 7.2hPa | 2.6V | 03:10:42 | 02:51:23 | 00:00:00 | |
| DL1NUX | 2026-09-02 00:43:42 | 52.77529 | 10.78811 | 102° | 20km/h | 33854m | 6.3m/s | -36.7°C | 1.6% | 7.2hPa | 2.5V | 03:10:38 | 02:51:27 | 00:00:00 | |
| HSKMA3-T | 2026-09-02 00:43:40 | 52.77530 | 10.78803 | 101° | 22km/h | 33848m | 5m/s | -36.7°C | 0% | 7.2hPa | 2.5V | 03:11:14 | 02:51:26 | 00:00:00 | |
| DB0DAN | 2026-09-02 00:43:40 | 52.77530 | 10.78803 | 101° | 22km/h | 33848m | 5m/s | -36.7°C | 0.1% | 7.19hPa | 2.5V | 00:00:00 | 00:00:00 | 00:00:00 | |
| DF8AY | 2026-09-02 00:43:40 | 52.77501 | 10.78687 | 33° | 16km/h | 33756m | 6.9m/s | -37.1°C | 0% | 7.3hPa | 2.5V | 03:11:14 | 02:51:09 | 00:00:00 | |
| DL1XH-west | 2026-09-02 00:43:39 | 52.77531 | 10.78794 | 98° | 22km/h | 33843m | 4.2m/s | -36.7°C | 0% | 7.2hPa | 2.5V | 03:11:14 | 02:51:25 | 00:00:00 | |
| BIOWL1-15 | 2026-09-02 00:43:39 | 52.77509 | 10.78790 | 40° | 13km/h | 33801m | 4.2m/s | -36.9°C | 0% | 7.2hPa | 2.6V | 03:12:05 | 02:51:17 | 00:00:00 | |
| DL1XH1-15 | 2026-09-02 00:43:37 | 52.77512 | 10.78791 | 348° | 15km/h | 33805m | 3.2m/s | -36.9°C | 1.6% | 7.2hPa | 2.6V | 03:10:47 | 02:51:18 | 00:00:00 | |
| AA1-15 | 2026-09-02 00:43:35 | 52.77525 | 10.78780 | 338° | 15km/h | 33820m | 7m/s | -36.8°C | 0% | 7.2hPa | 2.5V | 03:11:14 | 02:51:21 | 00:00:00 | |
| GOEST3-10 | 2026-09-02 00:43:34 | 52.77521 | 10.78783 | 330° | 18km/h | 33814m | 5.9m/s | -36.7°C | 1.6% | 7.2hPa | 2.6V | 03:10:00 | 00:00:00 | 00:00:00 | |
| DL1NUX | 2026-09-02 00:43:33 | 52.77509 | 10.78790 | 39° | 13km/h | 33801m | 4.2m/s | -36.9°C | 1.5% | 7.2hPa | 2.6V | 03:10:48 | 02:51:17 | 00:00:00 | |
| HSKMA3-T | 2026-09-02 00:43:30 | 52.77507 | 10.78784 | 68° | 20km/h | 33796m | 6.5m/s | -36.9°C | 0% | 7.3hPa | 2.6V | 03:11:14 | 02:51:16 | 00:00:00 | |
| DL1XH-west | 2026-09-02 00:43:29 | 52.77505 | 10.78774 | 86° | 31km/h | 33789m | 8.3m/s | -36.9°C | 0% | 7.2hPa | 2.5V | 03:11:14 | 02:51:15 | 00:00:00 | |
| DF7PN | 2026-09-02 00:43:28 | 52.77505 | 10.78740 | 92° | 46km/h | 33775m | 5.0m/s | -36.9°C | 0.1% | 7.3hPa | 2.5V | 00:00:00 | 00:00:00 | 00:00:00 | |
| DL1XH1-15 | 2026-09-02 00:43:27 | 52.77497 | 10.78686 | 347° | 18km/h | 33749m | 7.1m/s | -37.2°C | 1.6% | 7.3hPa | 2.5V | 03:10:57 | 02:51:08 | 00:00:00 | |
| BIOWL1-15 | 2026-09-02 00:43:26 | 52.77506 | 10.78721 | 90° | 44km/h | 33771m | 3.1m/s | -37°C | 0% | 7.3hPa | 2.6V | 03:12:05 | 02:51:12 | 00:00:00 | |
| DB0DAN | 2026-09-02 00:43:25 | 52.77505 | 10.78705 | 84° | 33km/h | 33767m | 3.7m/s | -37°C | 0.1% | 7.29hPa | 2.6V | 00:00:00 | 00:00:00 | 00:00:00 | |
| AA1-15 | 2026-09-02 00:43:24 | 52.77504 | 10.78693 | 70° | 24km/h | 33763m | 5.4m/s | -37°C | 0% | 7.3hPa | 2.6V | 03:11:14 | 02:51:10 | 00:00:00 | |
| DL1XH-15 | 2026-09-02 00:43:24 | 52.77482 | 10.78702 | 325° | 22km/h | 33732m | 5.2m/s | -37.4°C | 1.6% | 7.3hPa | 2.6V | 03:11:00 | 02:51:05 | 00:00:00 | |
| DO2SHX-10 | 2026-09-02 00:43:24 | 52.77503 | 10.78693 | 70° | 20km/h | 33763m | 5.4m/s | -37.0°C | 1.6% | 7.3hPa | 2.5V | 03:10:00 | 02:51:10 | 00:00:00 | |
| DM0DOS-11 | 2026-09-02 00:43:23 | 52.77475 | 10.78706 | 27° | 9km/h | 33721m | 5.4m/s | -37.6°C | 1.6% | 7.3hPa | 2.5V | 03:11:02 | 02:51:03 | 00:00:00 | |
| DL1NUX | 2026-09-02 00:43:22 | 52.77492 | 10.78690 | 326° | 24km/h | 33743m | 6.2m/s | -37.3°C | 1.6% | 7.3hPa | 2.5V | 03:10:58 | 02:51:07 | 00:00:00 | |
| HSKMA3-T | 2026-09-02 00:43:19 | 52.77482 | 10.78702 | 325° | 22km/h | 33732m | 5.2m/s | -37.4°C | 0% | 7.3hPa | 2.6V | 03:11:14 | 02:51:05 | 00:00:00 | |
| DL1XH-west | 2026-09-02 00:43:18 | 52.77478 | 10.78706 | 343° | 15km/h | 33727m | 5.1m/s | -37.5°C | 0% | 7.3hPa | 2.6V | 03:11:14 | 02:51:04 | 00:00:00 | |
| DO2SHX-10 | 2026-09-02 00:43:18 | 52.77478 | 10.78706 | 343° | 13km/h | 33727m | 5.1m/s | -37.5°C | 1.6% | 7.3hPa | 2.6V | 00:00:00 | 02:51:04 | 00:00:00 | |
| DL1XH1-15 | 2026-09-02 00:43:17 | 52.77475 | 10.78661 | 99° | 27km/h | 33690m | 5.3m/s | -37.9°C | 1.7% | 7.4hPa | 2.6V | 03:11:07 | 02:50:58 | 00:00:00 | |
| AA1-15 | 2026-09-02 00:43:14 | 52.77474 | 10.78673 | 97° | 29km/h | 33696m | 6.4m/s | -37.9°C | 0% | 7.4hPa | 2.6V | 03:11:14 | 02:50:59 | 00:00:00 | |
| S3001 | 2026-09-02 00:43:14 | 52.77474 | 10.78673 | 96° | 27km/h | 33697m | 6.4m/s | -37.9°C | 0.1% | 7.4hPa | 2.5V | 00:00:00 | 00:00:00 | 00:00:00 | |
| DL1NUX | 2026-09-02 00:43:12 | 52.77477 | 10.78652 | 100° | 22km/h | 33685m | 4.7m/s | -37.9°C | 1.7% | 7.4hPa | 2.5V | 03:11:08 | 02:50:57 | 00:00:00 | |
| DF8AY | 2026-09-02 00:43:11 | 52.77476 | 10.78652 | 100° | 22km/h | 33685m | 4.7m/s | -37.9°C | 0% | 7.4hPa | 2.5V | 03:11:14 | 02:50:57 | 00:00:00 | |
| DL1XH-15 | 2026-09-02 00:43:11 | 52.77478 | 10.78640 | 89° | 7km/h | 33676m | 5m/s | -38°C | 1.7% | 7.4hPa | 2.5V | 03:11:10 | 02:50:55 | 00:00:00 | |
| DB0DAN | 2026-09-02 00:43:10 | 52.77477 | 10.78645 | 100° | 13km/h | 33681m | 4.5m/s | -38°C | 0.2% | 7.4hPa | 2.5V | 00:00:00 | 00:00:00 | 00:00:00 | |
| HSKMA3-T | 2026-09-02 00:43:09 | 52.77478 | 10.78640 | 89° | 7km/h | 33676m | 5m/s | -38°C | 0% | 7.4hPa | 2.5V | 03:11:14 | 02:50:55 | 00:00:00 | |
| DL1XH-west | 2026-09-02 00:43:08 | 52.77477 | 10.78639 | 6° | 2km/h | 33671m | 5.7m/s | -38.1°C | 0% | 7.4hPa | 2.6V | 03:11:14 | 02:50:54 | 00:00:00 | |
| DM0DOS-11 | 2026-09-02 00:43:08 | 52.77477 | 10.78640 | 326° | 7km/h | 33665m | 6.8m/s | -38.1°C | 1.7% | 7.4hPa | 2.6V | 03:11:12 | 02:50:53 | 00:00:00 | |
| DL1XH1-15 | 2026-09-02 00:43:07 | 52.77463 | 10.78666 | 302° | 16km/h | 33637m | 5m/s | -38.2°C | 1.7% | 7.4hPa | 2.6V | 03:11:17 | 02:50:48 | 00:00:00 | |
| AA1-15 | 2026-09-02 00:43:03 | 52.77463 | 10.78666 | 303° | 18km/h | 33637m | 5m/s | -38.3°C | 0% | 7.4hPa | 2.6V | 03:12:05 | 02:50:48 | 00:00:00 | |
| DL1NUX | 2026-09-02 00:43:02 | 52.77462 | 10.78671 | 310° | 11km/h | 33632m | 4.3m/s | -38.3°C | 1.7% | 7.4hPa | 2.6V | 03:11:18 | 02:50:47 | 00:00:00 | |
| HSKMA3-T | 2026-09-02 00:42:59 | 52.77461 | 10.78668 | 96° | 15km/h | 33623m | 5.3m/s | -38.3°C | 0% | 7.5hPa | 2.5V | 03:12:05 | 02:50:45 | 00:00:00 | |
| SMARD9-15 | 2026-09-02 00:42:59 | 52.77461 | 10.78660 | 103° | 26km/h | 33617m | 7.0m/s | -38.3°C | 0.2% | 7.4hPa | 2.5V | 00:00:00 | 00:00:00 | 00:00:00 | |
| BUE01 | 2026-09-02 00:42:58 | 52.77461 | 10.78660 | 103° | 26km/h | 33617m | 7.0m/s | -38.3°C | 0.2% | 7.4hPa | 2.5V | 00:00:00 | 00:00:00 | 00:00:00 | |
| DL1XH-west | 2026-09-02 00:42:58 | 52.77464 | 10.78647 | 106° | 37km/h | 33610m | 7.5m/s | -38.4°C | 0% | 7.4hPa | 2.5V | 03:12:05 | 02:50:43 | 00:00:00 | |
| DL1XH1-15 | 2026-09-02 00:42:57 | 52.77486 | 10.78582 | 164° | 22km/h | 33587m | 7.1m/s | -38.5°C | 1.7% | 7.5hPa | 2.5V | 03:11:27 | 02:50:38 | 00:00:00 | |
| DF7PN | 2026-09-02 00:42:56 | 52.77466 | 10.78631 | 107° | 44km/h | 33603m | 6.5m/s | -38.4°C | 0.2% | 7.5hPa | 2.6V | 00:00:00 | 00:00:00 | 00:00:00 | |
| DB0DAN | 2026-09-02 00:42:55 | 52.77470 | 10.78613 | 113° | 44km/h | 33598m | 3.6m/s | -38.4°C | 0.2% | 7.48hPa | 2.6V | 00:00:00 | 00:00:00 | 00:00:00 | |
| AA1-15 | 2026-09-02 00:42:52 | 52.77486 | 10.78582 | 165° | 22km/h | 33587m | 7.1m/s | -38.5°C | 0% | 7.5hPa | 2.5V | 03:12:05 | 02:50:38 | 00:00:00 | |
| DL1NUX | 2026-09-02 00:42:52 | 52.77491 | 10.78583 | 206° | 22km/h | 33579m | 8.8m/s | -38.5°C | 1.7% | 7.5hPa | 2.5V | 03:11:28 | 02:50:37 | 00:00:00 | |
| DL1XH-15 | 2026-09-02 00:42:51 | 52.77498 | 10.78601 | 255° | 31km/h | 33565m | 4.4m/s | -38.6°C | 1.7% | 7.5hPa | 2.6V | 03:11:30 | 02:50:35 | 00:00:00 | |
| HSKMA3-T | 2026-09-02 00:42:49 | 52.77498 | 10.78600 | 255° | 31km/h | 33565m | 4.4m/s | -38.6°C | 0% | 7.5hPa | 2.6V | 03:12:05 | 02:50:35 | 00:00:00 | |
| DL1XH-west | 2026-09-02 00:42:47 | 52.77499 | 10.78620 | 286° | 15km/h | 33560m | 2.9m/s | -38.7°C | 0% | 7.5hPa | 2.5V | 03:12:05 | 02:50:33 | 00:00:00 | |
| DL1XH1-15 | 2026-09-02 00:42:47 | 52.77499 | 10.78566 | 104° | 57km/h | 33530m | 5.2m/s | -38.8°C | 1.8% | 7.5hPa | 2.6V | 03:11:37 | 02:50:28 | 00:00:00 | |
| BIOWL1-15 | 2026-09-02 00:42:45 | 52.77497 | 10.78587 | 97° | 49km/h | 33536m | 6.9m/s | -38.8°C | 0% | 7.6hPa | 2.6V | 03:12:05 | 02:50:29 | 00:00:00 | |
| DJ2DS-15 | 2026-09-02 00:42:45 | 52.77497 | 10.78617 | 75° | 20km/h | 33550m | 6.6m/s | -38.7°C | 0.2% | 7.5hPa | 2.5V | 00:00:00 | 00:00:00 | 00:00:00 | |
| DL1XH-15 | 2026-09-02 00:42:44 | 52.77517 | 10.78513 | 138° | 37km/h | 33516m | 5m/s | -38.7°C | 1.8% | 7.5hPa | 2.5V | 03:11:40 | 02:50:25 | 00:00:00 | |
| GOEST3-10 | 2026-09-02 00:42:44 | 52.77496 | 10.78605 | 89° | 49km/h | 33544m | 7.6m/s | -38.7°C | 1.8% | 7.5hPa | 2.5V | 00:00:00 | 00:00:00 | 00:00:00 | |
| AU51GT2 | 2026-09-02 00:42:43 | 52.77497 | 10.78587 | 96° | 49km/h | 33536m | 6.9m/s | -38.8°C | 0.2% | 7.6hPa | 2.5V | 00:00:00 | 00:00:00 | 00:00:00 | |
| DL1NUX | 2026-09-02 00:42:42 | 52.77504 | 10.78544 | 114° | 55km/h | 33525m | 4m/s | -38.8°C | 1.8% | 7.5hPa | 2.5V | 03:11:38 | 02:50:27 | 00:00:00 | |
| AA1-15 | 2026-09-02 00:42:41 | 52.77504 | 10.78544 | 114° | 55km/h | 33525m | 4.1m/s | -38.8°C | 0% | 7.5hPa | 2.5V | 03:12:05 | 02:50:27 | 00:00:00 | |
| DB0DAN | 2026-09-02 00:42:40 | 52.77510 | 10.78526 | 125° | 44km/h | 33521m | 3.9m/s | -38.8°C | 0.2% | 7.55hPa | 2.5V | 00:00:00 | 00:00:00 | 00:00:00 | |
| DF8AY | 2026-09-02 00:42:39 | 52.77533 | 10.78520 | 309° | 13km/h | 33486m | 5m/s | -38.6°C | 0% | 7.6hPa | 2.5V | 03:12:05 | 02:50:20 | 00:00:00 | |
| HSKMA3-T | 2026-09-02 00:42:38 | 52.77523 | 10.78506 | 159° | 26km/h | 33511m | 5.8m/s | -38.7°C | 0% | 7.5hPa | 2.6V | 03:12:05 | 02:50:24 | 00:00:00 | |
| DL1XH-west | 2026-09-02 00:42:37 | 52.77528 | 10.78505 | 193° | 20km/h | 33504m | 6.8m/s | -38.7°C | 0% | 7.6hPa | 2.6V | 03:12:05 | 02:50:23 | 00:00:00 | |
| DO2SHX-10 | 2026-09-02 00:42:37 | 52.77528 | 10.78505 | 193° | 16km/h | 33505m | 6.7m/s | -38.7°C | 1.8% | 7.5hPa | 2.6V | 00:00:00 | 02:50:23 | 00:00:00 | |
| SP3BTT-10 | 2026-09-02 00:42:36 | 52.77532 | 10.78508 | 229° | 29km/h | 33498m | 6.8m/s | -38.6°C | 1.7% | 7.5hPa | 2.6V | 03:11:00 | 00:00:00 | 00:00:00 | |
| DO2SHX-10 | 2026-09-02 00:42:34 | 52.77533 | 10.78519 | 309° | 24km/h | 33487m | 5.0m/s | -38.6°C | 1.7% | 7.6hPa | 2.5V | 00:00:00 | 02:50:20 | 00:00:00 | |
| DL1NUX | 2026-09-02 00:42:32 | 52.77523 | 10.78512 | 62° | 27km/h | 33471m | 5.7m/s | -38.6°C | 1.7% | 7.6hPa | 2.6V | 03:11:48 | 02:50:17 | 00:00:00 | |
| AA1-15 | 2026-09-02 00:42:31 | 52.77524 | 10.78512 | 62° | 27km/h | 33471m | 5.7m/s | -38.6°C | 0% | 7.6hPa | 2.6V | 03:12:05 | 02:50:17 | 00:00:00 | |
| DL1XH-15 | 2026-09-02 00:42:31 | 52.77520 | 10.78485 | 89° | 40km/h | 33459m | 6.3m/s | -38.5°C | 1.7% | 7.6hPa | 2.5V | 03:11:50 | 02:50:15 | 00:00:00 | |
| DM0DOS-11 | 2026-09-02 00:42:31 | 52.77524 | 10.78450 | 111° | 44km/h | 33447m | 5.6m/s | -38.6°C | 1.7% | 7.7hPa | 2.5V | 03:11:52 | 02:50:13 | 00:00:00 | |
| DO2JMG | 2026-09-02 00:42:29 | 52.77520 | 10.78485 | 90° | 40km/h | 33459m | 6.3m/s | 0°C | 0% | 0hPa | 2.5V | 18:12:15 | 02:50:15 | 00:00:00 | |
| HSKMA3-T | 2026-09-02 00:42:28 | 52.77521 | 10.78467 | 100° | 44km/h | 33453m | 6.1m/s | -38.5°C | 0% | 7.6hPa | 2.5V | 03:12:05 | 02:50:14 | 00:00:00 | |
| DL1XH-west | 2026-09-02 00:42:27 | 52.77524 | 10.78450 | 112° | 44km/h | 33447m | 5.6m/s | -38.6°C | 0% | 7.7hPa | 2.5V | 03:12:05 | 02:50:13 | 00:00:00 | |
| DD8BA-10 | 2026-09-02 00:42:27 | 52.77524 | 10.78450 | 112° | 22km/h | 33448m | 5.6m/s | -38.5°C | 1.7% | 7.6hPa | 2.5V | 03:11:00 | 00:00:00 | 00:00:00 | |
| DB0DAN | 2026-09-02 00:42:25 | 52.77534 | 10.78422 | 133° | 35km/h | 33437m | 4.9m/s | -38.7°C | 0.1% | 7.64hPa | 2.6V | 00:00:00 | 00:00:00 | 00:00:00 | |
| DF8AY | 2026-09-02 00:42:24 | 52.77540 | 10.78412 | 143° | 31km/h | 33432m | 5.2m/s | -38.7°C | 0% | 7.7hPa | 2.6V | 03:12:05 | 02:50:10 | 00:00:00 | |
| DL1XH-15 | 2026-09-02 00:42:24 | 52.77558 | 10.78405 | 250° | 5km/h | 33403m | 5.5m/s | -38.8°C | 1.8% | 7.7hPa | 2.6V | 03:12:00 | 02:50:05 | 00:00:00 | |
| BIOWL1-15 | 2026-09-02 00:42:23 | 52.77551 | 10.78403 | 165° | 16km/h | 33421m | 5.9m/s | -38.8°C | 0% | 7.7hPa | 2.5V | 03:12:05 | 02:50:08 | 00:00:00 | |
| DL1NUX | 2026-09-02 00:42:22 | 52.77555 | 10.78402 | 181° | 11km/h | 33414m | 6.2m/s | -38.8°C | 1.8% | 7.7hPa | 2.5V | 03:11:58 | 02:50:07 | 00:00:00 | |
| DO3MHA-11 | 2026-09-02 00:42:21 | 52.77555 | 10.78402 | 182° | 13km/h | 33415m | 6.2m/s | 0°C | 0% | 0hPa | 2.5V | 00:00:00 | 02:50:07 | 00:00:00 | |
| AA1-15 | 2026-09-02 00:42:21 | 52.77555 | 10.78402 | 182° | 11km/h | 33414m | 6.2m/s | -38.8°C | 0% | 7.7hPa | 2.5V | 03:12:05 | 02:50:07 | 00:00:00 | |
| DO2SHX-10 | 2026-09-02 00:42:20 | 52.77557 | 10.78403 | 215° | 7km/h | 33409m | 5.7m/s | -38.7°C | 1.8% | 7.6hPa | 2.6V | 00:00:00 | 02:50:06 | 00:00:00 | |
| GOEST3-10 | 2026-09-02 00:42:19 | 52.77558 | 10.78405 | 251° | 5km/h | 33404m | 5.5m/s | -38.7°C | 1.8% | 7.6hPa | 2.6V | 00:00:00 | 02:50:05 | 00:00:00 | |
| DL1XH1-15 | 2026-09-02 00:42:17 | 52.77566 | 10.78388 | 110° | 33km/h | 33365m | 7.4m/s | -38.9°C | 1.8% | 7.7hPa | 2.6V | 03:12:07 | 02:49:58 | 00:00:00 | |
| DL1XH-west | 2026-09-02 00:42:17 | 52.77558 | 10.78411 | 208° | 4km/h | 33387m | 5.5m/s | -38.8°C | 0% | 7.7hPa | 2.5V | 03:12:05 | 02:50:02 | 00:00:00 | |
| DF8AY | 2026-09-02 00:42:14 | 52.77561 | 10.78406 | 123° | 15km/h | 33377m | 5m/s | 0°C | 0% | 7.7hPa | 2.6V | 03:12:05 | 02:50:00 | 00:00:00 | |
| BIOWL1-15 | 2026-09-02 00:42:13 | 52.77585 | 10.78322 | 140° | 26km/h | 33339m | 6.4m/s | -38.9°C | 0% | 7.7hPa | 2.6V | 03:12:56 | 02:49:53 | 00:00:00 | |
| DO2JMG | 2026-09-02 00:42:12 | 52.77566 | 10.78388 | 110° | 33km/h | 33365m | 7.4m/s | 0°C | 0% | 0hPa | 2.6V | 18:12:15 | 02:49:58 | 00:00:00 | |
| DM0DOS-11 | 2026-09-02 00:42:12 | 52.77585 | 10.78322 | 140° | 26km/h | 33338m | 6.4m/s | -38.9°C | 1.8% | 7.7hPa | 2.6V | 03:12:12 | 02:49:53 | 00:00:00 | |
| AA1-15 | 2026-09-02 00:42:10 | 52.77573 | 10.78358 | 110° | 42km/h | 33352m | 4.6m/s | -38.9°C | 0% | 7.8hPa | 2.5V | 03:12:56 | 02:49:56 | 00:00:00 | |
| DB0DAN | 2026-09-02 00:42:10 | 52.77573 | 10.78358 | 109° | 40km/h | 33352m | 4.6m/s | -38.9°C | 0.2% | 7.77hPa | 2.5V | 00:00:00 | 00:00:00 | 00:00:00 | |
| DF8AY-15 | 2026-09-02 00:42:10 | 52.77573 | 10.78358 | 110° | 26km/h | 33353m | 4.6m/s | -38.9°C | 1.8% | 7.7hPa | 2.6V | 00:00:00 | 02:49:56 | 00:00:00 | |
| DJ8HS-15 | 2026-09-02 00:42:09 | 52.77576 | 10.78342 | 116° | 22km/h | 33348m | 3.5m/s | -38.8°C | 1.7% | 7.7hPa | 2.6V | 00:00:00 | 02:49:55 | 00:00:00 | |
| DL4XJ-10 | 2026-09-02 00:42:08 | 52.77580 | 10.78330 | 126° | 24km/h | 33344m | 4.1m/s | -38.5°C | 0% | 0hPa | 2.6V | 00:00:00 | 00:00:00 | 00:00:00 | |
| DL1XH1-15 | 2026-09-02 00:42:07 | 52.77602 | 10.78328 | 344° | 2km/h | 33313m | 3.8m/s | -38.8°C | 1.8% | 7.8hPa | 2.6V | 03:12:17 | 02:49:48 | 00:00:00 | |
| HSKMA3-T | 2026-09-02 00:42:06 | 52.77590 | 10.78317 | 168° | 20km/h | 33332m | 7.2m/s | -38.9°C | 0% | 7.8hPa | 2.6V | 03:12:56 | 02:49:52 | 00:00:00 | |
| DF8AY | 2026-09-02 00:42:04 | 52.77599 | 10.78322 | 223° | 18km/h | 33319m | 4m/s | 0°C | 0% | 0hPa | 2.5V | 18:12:15 | 02:49:50 | 00:00:00 | |
| DL1XH-15 | 2026-09-02 00:42:04 | 52.77595 | 10.78305 | 72° | 42km/h | 33294m | 6.7m/s | -38.7°C | 1.8% | 7.8hPa | 2.5V | 03:12:20 | 02:49:45 | 00:00:00 | |
| BIOWL1-15 | 2026-09-02 00:42:01 | 52.77601 | 10.78326 | 60° | 13km/h | 33308m | 5.9m/s | -38.7°C | 0% | 7.8hPa | 2.6V | 03:12:56 | 02:49:47 | 00:00:00 | |
| AA1-15 | 2026-09-02 00:42:00 | 52.77598 | 10.78319 | 65° | 27km/h | 33301m | 7.1m/s | -38.7°C | 0% | 7.8hPa | 2.6V | 03:12:56 | 02:49:46 | 00:00:00 | |
| DO2JMG | 2026-09-02 00:41:59 | 52.77592 | 10.78286 | 78° | 51km/h | 33288m | 5.1m/s | 0°C | 0% | 0hPa | 2.5V | 18:12:15 | 02:49:44 | 00:00:00 | |
| DM0DOS-11 | 2026-09-02 00:41:58 | 52.77590 | 10.78265 | 84° | 51km/h | 33284m | 3.7m/s | -38.6°C | 1.7% | 7.8hPa | 2.5V | 03:12:22 | 02:49:43 | 00:00:00 | |
| DL1XH1-15 | 2026-09-02 00:41:57 | 52.77597 | 10.78205 | 169° | 7km/h | 33258m | 6.4m/s | -38.7°C | 1.7% | 7.8hPa | 2.5V | 03:12:27 | 02:49:38 | 00:00:00 | |
| HSKMA3-T | 2026-09-02 00:41:56 | 52.77590 | 10.78227 | 99° | 37km/h | 33276m | 4.9m/s | -38.7°C | 0% | 7.8hPa | 2.6V | 03:12:56 | 02:49:41 | 00:00:00 | |
| DF8AY | 2026-09-02 00:41:53 | 52.77595 | 10.78208 | 135° | 15km/h | 33265m | 6.4m/s | 0°C | 0% | 0hPa | 2.5V | 18:12:15 | 02:49:39 | 00:00:00 | |
| SP3WXH-11 | 2026-09-02 00:41:53 | 52.77597 | 10.78205 | 169° | 7km/h | 33259m | 6.4m/s | -38.7°C | 0.2% | 7.9hPa | 2.5V | 00:00:00 | 00:00:00 | 00:00:00 | |
| DL1NUX | 2026-09-02 00:41:52 | 52.77598 | 10.78207 | 246° | 5km/h | 33252m | 5.3m/s | -38.7°C | 1.8% | 7.8hPa | 2.5V | 03:12:28 | 02:49:37 | 00:00:00 | |
| AA1-15 | 2026-09-02 00:41:50 | 52.77598 | 10.78208 | 330° | 5km/h | 33247m | 5.2m/s | -38.7°C | 0% | 7.9hPa | 2.6V | 03:12:56 | 02:49:36 | 00:00:00 | |
| BIOWL1-15 | 2026-09-02 00:41:49 | 52.77596 | 10.78208 | 14° | 11km/h | 33242m | 4.5m/s | -38.7°C | 0% | 7.9hPa | 2.6V | 03:12:56 | 02:49:35 | 00:00:00 | |
| DJ8HS-15 | 2026-09-02 00:41:49 | 52.77596 | 10.78208 | 15° | 29km/h | 33242m | 4.5m/s | -38.7°C | 1.8% | 7.8hPa | 2.5V | 00:00:00 | 02:49:35 | 00:00:00 | |
| DM0DOS-11 | 2026-09-02 00:41:48 | 52.77589 | 10.78197 | 62° | 31km/h | 33232m | 5.2m/s | -38.7°C | 1.7% | 7.9hPa | 2.5V | 03:12:32 | 02:49:33 | 00:00:00 | |
| DO2SHX-10 | 2026-09-02 00:41:48 | 52.77593 | 10.78205 | 44° | 20km/h | 33238m | 4.6m/s | -38.6°C | 1.7% | 7.8hPa | 2.6V | 00:00:00 | 02:49:34 | 00:00:00 | |
| DL1XH1-15 | 2026-09-02 00:41:47 | 52.77583 | 10.78106 | 94° | 44km/h | 33204m | 4.7m/s | -38.7°C | 1.8% | 7.9hPa | 2.6V | 03:12:37 | 02:49:28 | 00:00:00 | |
| DO2JMG | 2026-09-02 00:41:46 | 52.77584 | 10.78166 | 80° | 47km/h | 33220m | 6.3m/s | 0°C | 0% | 0hPa | 2.5V | 18:12:15 | 02:49:31 | 00:00:00 | |
| DL1XH-west | 2026-09-02 00:41:45 | 52.77582 | 10.78146 | 87° | 51km/h | 33214m | 5.9m/s | -38.7°C | 0% | 7.9hPa | 2.6V | 03:12:56 | 02:49:30 | 00:00:00 | |
| GOEST3-10 | 2026-09-02 00:41:44 | 52.77582 | 10.78145 | 88° | 40km/h | 33215m | 5.8m/s | -38.6°C | 1.7% | 7.8hPa | 2.5V | 00:00:00 | 00:00:00 | 00:00:00 | |
| DO2SHX-10 | 2026-09-02 00:41:43 | 52.77582 | 10.78125 | 92° | 42km/h | 33209m | 5.3m/s | -38.6°C | 1.7% | 7.9hPa | 2.5V | 00:00:00 | 02:49:29 | 00:00:00 | |
| DL1NUX | 2026-09-02 00:41:42 | 52.77583 | 10.78090 | 93° | 35km/h | 33199m | 4.3m/s | -38.7°C | 1.7% | 7.9hPa | 2.5V | 03:12:38 | 02:49:27 | 00:00:00 | |
| AA1-15 | 2026-09-02 00:41:39 | 52.77582 | 10.78067 | 71° | 24km/h | 33189m | 5.8m/s | -38.7°C | 0% | 8hPa | 2.5V | 03:12:56 | 02:49:25 | 00:00:00 | |
| BIOWL1-15 | 2026-09-02 00:41:39 | 52.77535 | 10.77888 | 24° | 40km/h | 33092m | 3.7m/s | -39°C | 0% | 8.1hPa | 2.5V | 03:13:47 | 02:49:07 | 00:00:00 | |
| DL1XH1-15 | 2026-09-02 00:41:37 | 52.77554 | 10.78009 | 80° | 26km/h | 33152m | 5.7m/s | -38.8°C | 1.8% | 8hPa | 2.6V | 03:12:47 | 02:49:18 | 00:00:00 | |
| HSKMA3-T | 2026-09-02 00:41:35 | 52.77559 | 10.78028 | 52° | 29km/h | 33161m | 4.2m/s | -38.7°C | 0% | 8hPa | 2.5V | 03:12:56 | 02:49:20 | 00:00:00 | |
| DL1XH-west | 2026-09-02 00:41:34 | 52.77556 | 10.78019 | 62° | 26km/h | 33156m | 4.6m/s | -38.8°C | 0% | 8hPa | 2.5V | 03:12:56 | 02:49:19 | 00:00:00 | |
| DO2SHX-10 | 2026-09-02 00:41:34 | 52.77559 | 10.78028 | 52° | 27km/h | 33162m | 4.2m/s | -38.7°C | 1.7% | 7.9hPa | 2.6V | 00:00:00 | 02:49:20 | 00:00:00 | |
| DF7ER-10 | 2026-09-02 00:41:33 | 52.77559 | 10.78028 | 53° | 29km/h | 33162m | 4.2m/s | -38.7°C | 0.2% | 8.0hPa | 2.6V | 03:12:00 | 00:00:00 | 00:00:00 | |
| DL1NUX | 2026-09-02 00:41:32 | 52.77554 | 10.77999 | 97° | 24km/h | 33145m | 6.7m/s | -38.8°C | 1.8% | 8hPa | 2.6V | 03:12:48 | 02:49:17 | 00:00:00 | |
| BIOWL1-15 | 2026-09-02 00:41:31 | 52.77527 | 10.77882 | 23° | 27km/h | 33088m | 4.9m/s | -39°C | 0% | 8hPa | 2.6V | 03:13:47 | 02:49:06 | 00:00:00 | |
| AA1-15 | 2026-09-02 00:41:28 | 52.77562 | 10.77968 | 120° | 29km/h | 33128m | 4.4m/s | -38.9°C | 0% | 8.1hPa | 2.5V | 03:12:56 | 02:49:14 | 00:00:00 | |
| HSKMA3-T | 2026-09-02 00:41:25 | 52.77560 | 10.77920 | 55° | 38km/h | 33108m | 7.7m/s | -38.9°C | 0% | 8hPa | 2.6V | 03:12:56 | 02:49:10 | 00:00:00 | |
| DL1XH-15 | 2026-09-02 00:41:24 | 52.77522 | 10.77879 | 11° | 16km/h | 33082m | 6.1m/s | -39°C | 1.8% | 8.1hPa | 2.6V | 03:13:00 | 02:49:05 | 00:00:00 | |
| DL1XH-west | 2026-09-02 00:41:23 | 52.77553 | 10.77907 | 42° | 46km/h | 33101m | 6.6m/s | -38.9°C | 0% | 8hPa | 2.5V | 03:12:56 | 02:49:09 | 00:00:00 | |
| DF7PN | 2026-09-02 00:41:23 | 52.77553 | 10.77907 | 41° | 44km/h | 33102m | 6.6m/s | -38.9°C | 0.2% | 8.0hPa | 2.5V | 00:00:00 | 00:00:00 | 00:00:00 | |
| DL1NUX | 2026-09-02 00:41:22 | 52.77534 | 10.77888 | 23° | 38km/h | 33092m | 3.7m/s | -39°C | 1.7% | 8hPa | 2.5V | 03:12:58 | 02:49:07 | 00:00:00 | |
| AA1-15 | 2026-09-02 00:41:18 | 52.77521 | 10.77879 | 183° | 11km/h | 33070m | 6m/s | -39°C | 0% | 8.1hPa | 2.5V | 03:13:47 | 02:49:03 | 00:00:00 | |
| HSKMA3-T | 2026-09-02 00:41:14 | 52.77541 | 10.77856 | 113° | 33km/h | 33049m | 5.9m/s | -39.2°C | 0% | 8.1hPa | 2.6V | 03:13:47 | 02:48:59 | 00:00:00 | |
| DL1XH-west | 2026-09-02 00:41:13 | 52.77543 | 10.77842 | 92° | 37km/h | 33043m | 5.7m/s | -39.2°C | 0% | 8.1hPa | 2.6V | 03:13:47 | 02:48:58 | 00:00:00 | |
| DL1NUX | 2026-09-02 00:41:12 | 52.77541 | 10.77827 | 73° | 38km/h | 33038m | 5.2m/s | -39.3°C | 1.8% | 8.1hPa | 2.5V | 03:13:08 | 02:48:57 | 00:00:00 | |
| DO2JMG | 2026-09-02 00:41:11 | 52.77541 | 10.77827 | 74° | 38km/h | 33038m | 5.2m/s | 0°C | 0% | 0hPa | 2.5V | 18:12:15 | 02:48:57 | 00:00:00 | |
| DL1XH-15 | 2026-09-02 00:41:11 | 52.77531 | 10.77801 | 38° | 37km/h | 33027m | 5.2m/s | -39.4°C | 1.8% | 8.1hPa | 2.5V | 03:13:10 | 02:48:55 | 00:00:00 | |
| BIOWL1-15 | 2026-09-02 00:41:10 | 52.77510 | 10.77795 | 332° | 26km/h | 33008m | 6.1m/s | -39.5°C | 0% | 8.1hPa | 2.6V | 03:13:47 | 02:48:52 | 00:00:00 | |
| AA1-15 | 2026-09-02 00:41:07 | 52.77516 | 10.77792 | 358° | 27km/h | 33015m | 6.4m/s | -39.5°C | 0% | 8.1hPa | 2.6V | 03:13:47 | 02:48:53 | 00:00:00 | |
| DD8BA-10 | 2026-09-02 00:41:07 | 52.77516 | 10.77792 | 358° | 20km/h | 33015m | 6.4m/s | -39.4°C | 1.8% | 8.1hPa | 2.6V | 03:13:00 | 00:00:00 | 00:00:00 | |
| SONDE2-11 | 2026-09-02 00:41:06 | 52.77510 | 10.77795 | 331° | 24km/h | 33009m | 6.1m/s | -39.5°C | 0.2% | 8.1hPa | 2.6V | 00:00:00 | 00:00:00 | 00:00:00 | |
| DL1XH1-15 | 2026-09-02 00:41:05 | 52.77504 | 10.77816 | 213° | 5km/h | 32988m | 5.9m/s | -39.7°C | 1.8% | 8.2hPa | 2.6V | 03:13:17 | 02:48:48 | 00:00:00 | |
| DO2SHX-10 | 2026-09-02 00:41:05 | 52.77506 | 10.77800 | 309° | 16km/h | 33003m | 5.1m/s | -39.5°C | 1.8% | 8.1hPa | 2.5V | 00:00:00 | 02:48:51 | 00:00:00 | |
| DL1XH-15 | 2026-09-02 00:41:04 | 52.77507 | 10.77800 | 92° | 26km/h | 32969m | 5.7m/s | -39.9°C | 1.8% | 8.2hPa | 2.5V | 03:13:20 | 02:48:45 | 00:00:00 | |
| HSKMA3-T | 2026-09-02 00:41:04 | 52.77504 | 10.77816 | 214° | 5km/h | 32988m | 5.9m/s | -39.7°C | 0% | 8.2hPa | 2.6V | 03:13:47 | 02:48:48 | 00:00:00 | |
| MECKS9 | 2026-09-02 00:41:04 | 52.77503 | 10.77808 | 287° | 18km/h | 32999m | 4.4m/s | -39.6°C | 0.2% | 8.1hPa | 2.5V | 03:13:00 | 00:00:00 | 00:00:00 | |
| DM0DOS-11 | 2026-09-02 00:41:03 | 52.77507 | 10.77775 | 86° | 31km/h | 32959m | 4.9m/s | -40°C | 1.9% | 8.2hPa | 2.5V | 03:13:22 | 02:48:43 | 00:00:00 | |
| DL1XH-west | 2026-09-02 00:41:02 | 52.77505 | 10.77815 | 122° | 11km/h | 32982m | 6.5m/s | -39.8°C | 0% | 8.2hPa | 2.6V | 03:13:47 | 02:48:47 | 00:00:00 | |
| AA1-15 | 2026-09-02 00:40:57 | 52.77506 | 10.77763 | 81° | 26km/h | 32953m | 5.3m/s | -40.1°C | 0% | 8.2hPa | 2.6V | 03:13:47 | 02:48:42 | 00:00:00 | |
| BIOWL1-15 | 2026-09-02 00:40:56 | 52.77496 | 10.77749 | 331° | 16km/h | 32932m | 6m/s | -40.1°C | 0% | 8.2hPa | 2.5V | 03:13:47 | 02:48:38 | 00:00:00 | |
| DL1XH1-15 | 2026-09-02 00:40:55 | 52.77496 | 10.77749 | 330° | 16km/h | 32932m | 6m/s | -40.1°C | 1.9% | 8.2hPa | 2.5V | 03:13:27 | 02:48:38 | 00:00:00 | |
| BUE01 | 2026-09-02 00:40:54 | 52.77500 | 10.77748 | 353° | 11km/h | 32937m | 5.7m/s | -40.1°C | 0.2% | 8.2hPa | 2.5V | 00:00:00 | 00:00:00 | 00:00:00 | |
| DL1NUX | 2026-09-02 00:40:52 | 52.77492 | 10.77754 | 328° | 22km/h | 32925m | 6m/s | -40.2°C | 1.9% | 8.2hPa | 2.5V | 03:13:28 | 02:48:37 | 00:00:00 | |
| HSKMA3-T | 2026-09-02 00:40:52 | 52.77492 | 10.77754 | 328° | 22km/h | 32925m | 6m/s | -40.2°C | 0% | 8.2hPa | 2.5V | 03:13:47 | 02:48:37 | 00:00:00 | |
| DO2SHX-10 | 2026-09-02 00:40:52 | 52.77496 | 10.77749 | 331° | 15km/h | 32932m | 5.9m/s | -40.1°C | 1.9% | 8.2hPa | 2.5V | 00:00:00 | 02:48:38 | 00:00:00 | |
| DL1XH-15 | 2026-09-02 00:40:51 | 52.77482 | 10.77763 | 337° | 22km/h | 32913m | 5.9m/s | -40.2°C | 1.9% | 8.3hPa | 2.6V | 03:13:30 | 02:48:35 | 00:00:00 | |
| DL1XH-west | 2026-09-02 00:40:50 | 52.77487 | 10.77758 | 329° | 24km/h | 32919m | 6.6m/s | -40.2°C | 0% | 8.2hPa | 2.6V | 03:13:47 | 02:48:36 | 00:00:00 | |
| DO3MHA-11 | 2026-09-02 00:40:50 | 52.77487 | 10.77758 | 330° | 18km/h | 32919m | 6.5m/s | -40.2°C | 1.8% | 8.2hPa | 2.6V | 03:13:00 | 02:48:36 | 00:00:00 | |
| GOEST3-10 | 2026-09-02 00:40:49 | 52.77482 | 10.77763 | 338° | 15km/h | 32914m | 5.9m/s | -40.2°C | 1.9% | 8.2hPa | 2.5V | 00:00:00 | 02:48:35 | 00:00:00 | |
| DM0DOS-11 | 2026-09-02 00:40:48 | 52.77473 | 10.77766 | 7° | 13km/h | 32903m | 4.7m/s | -40.3°C | 1.9% | 8.3hPa | 2.5V | 03:13:32 | 02:48:33 | 00:00:00 | |
| AA1-15 | 2026-09-02 00:40:45 | 52.77471 | 10.77761 | 103° | 11km/h | 32891m | 6.9m/s | -40.3°C | 0% | 8.3hPa | 2.5V | 03:13:47 | 02:48:31 | 00:00:00 | |
| DL1XH1-15 | 2026-09-02 00:40:45 | 52.77477 | 10.77745 | 109° | 15km/h | 32874m | 4m/s | -40.4°C | 1.9% | 8.3hPa | 2.6V | 03:13:37 | 02:48:28 | 00:00:00 | |
| DB0UT-7 | 2026-09-02 00:40:44 | 52.77472 | 10.77756 | 125° | 20km/h | 32885m | 6.4m/s | -40.3°C | 1.9% | 8.3hPa | 2.6V | 03:13:00 | 02:48:30 | 00:00:00 | |
| DM0DOS-11 | 2026-09-02 00:40:42 | 52.77454 | 10.77734 | 346° | 38km/h | 32845m | 5.6m/s | -40.4°C | 1.9% | 8.3hPa | 2.6V | 03:13:42 | 02:48:23 | 00:00:00 | |
| DL1NUX | 2026-09-02 00:40:42 | 52.77477 | 10.77739 | 75° | 13km/h | 32870m | 4.9m/s | -40.4°C | 1.9% | 8.3hPa | 2.5V | 03:13:38 | 02:48:27 | 00:00:00 | |
| HSKMA3-T | 2026-09-02 00:40:41 | 52.77474 | 10.77735 | 34° | 16km/h | 32864m | 6.3m/s | -40.4°C | 0% | 8.3hPa | 2.5V | 03:13:47 | 02:48:26 | 00:00:00 | |
| DB0DAN | 2026-09-02 00:40:40 | 52.77474 | 10.77735 | 34° | 15km/h | 32864m | 6.3m/s | -40.4°C | 0.2% | 8.33hPa | 2.5V | 00:00:00 | 00:00:00 | 00:00:00 | |
| DL1XH-west | 2026-09-02 00:40:39 | 52.77470 | 10.77732 | 12° | 24km/h | 32858m | 7.1m/s | -40.4°C | 0% | 8.3hPa | 2.5V | 03:13:47 | 02:48:25 | 00:00:00 | |
| DO2SHX-10 | 2026-09-02 00:40:39 | 52.77469 | 10.77732 | 12° | 33km/h | 32858m | 7.1m/s | -40.4°C | 1.9% | 8.3hPa | 2.6V | 00:00:00 | 02:48:25 | 00:00:00 | |
| S3001 | 2026-09-02 00:40:38 | 52.77454 | 10.77734 | 346° | 38km/h | 32845m | 5.6m/s | -40.4°C | 0% | 8.3hPa | 2.6V | 00:00:00 | 00:00:00 | 00:00:00 | |
| DD8BA-10 | 2026-09-02 00:40:37 | 52.77453 | 10.77734 | 347° | 24km/h | 32845m | 5.6m/s | -40.4°C | 1.9% | 8.3hPa | 2.6V | 00:00:00 | 00:00:00 | 00:00:00 | |
| DL1NUX | 2026-09-02 00:40:36 | 52.77429 | 10.77774 | 201° | 11km/h | 32810m | 5.9m/s | -40.4°C | 2% | 8.4hPa | 2.6V | 03:13:48 | 02:48:17 | 00:00:00 | |
| DO2SHX-10 | 2026-09-02 00:40:36 | 52.77444 | 10.77739 | 336° | 35km/h | 32840m | 4.6m/s | -40.4°C | 2.0% | 8.3hPa | 2.6V | 03:13:00 | 02:48:22 | 00:00:00 | |
| DL1XH1-15 | 2026-09-02 00:40:35 | 52.77428 | 10.77771 | 254° | 15km/h | 32816m | 6.3m/s | -40.4°C | 2% | 8.4hPa | 2.6V | 03:13:47 | 02:48:18 | 00:00:00 | |
| AA1-15 | 2026-09-02 00:40:34 | 52.77431 | 10.77755 | 309° | 27km/h | 32829m | 5.8m/s | -40.4°C | 0% | 8.3hPa | 2.5V | 03:13:47 | 02:48:20 | 00:00:00 | |
| HSKMA3-T | 2026-09-02 00:40:31 | 52.77432 | 10.77774 | 161° | 13km/h | 32804m | 5.4m/s | -40.4°C | 0% | 8.4hPa | 2.6V | 03:14:38 | 02:48:16 | 00:00:00 | |
| DL1XH-west | 2026-09-02 00:40:29 | 52.77434 | 10.77771 | 118° | 15km/h | 32799m | 4.9m/s | -40.4°C | 0% | 8.4hPa | 2.5V | 03:14:38 | 02:48:15 | 00:00:00 | |
| GOEST3-10 | 2026-09-02 00:40:29 | 52.77434 | 10.77771 | 119° | 20km/h | 32799m | 4.9m/s | -40.3°C | 2.0% | 8.3hPa | 2.5V | 00:00:00 | 02:48:15 | 00:00:00 | |
| DM0DOS-11 | 2026-09-02 00:40:28 | 52.77433 | 10.77757 | 53° | 22km/h | 32788m | 5.4m/s | -40.3°C | 1.9% | 8.4hPa | 2.5V | 03:13:52 | 02:48:13 | 00:00:00 | |
| DL1XH1-15 | 2026-09-02 00:40:27 | 52.77407 | 10.77758 | 307° | 22km/h | 32760m | 5.8m/s | -40.3°C | 2% | 8.4hPa | 2.5V | 03:13:57 | 02:48:08 | 00:00:00 | |
| DD8BA-10 | 2026-09-02 00:40:27 | 52.77433 | 10.77757 | 54° | 20km/h | 32789m | 5.4m/s | -40.3°C | 1.9% | 8.4hPa | 2.5V | 03:13:00 | 00:00:00 | 00:00:00 | |
| DB0DAN | 2026-09-02 00:40:25 | 52.77423 | 10.77748 | 8° | 24km/h | 32777m | 5.5m/s | -40.3°C | 0.2% | 8.43hPa | 2.6V | 00:00:00 | 00:00:00 | 00:00:00 | |
| AA1-15 | 2026-09-02 00:40:23 | 52.77411 | 10.77752 | 330° | 24km/h | 32766m | 6.2m/s | -40.3°C | 0% | 8.4hPa | 2.5V | 03:14:38 | 02:48:09 | 00:00:00 | |
| DO2SHX-10 | 2026-09-02 00:40:23 | 52.77411 | 10.77752 | 330° | 22km/h | 32766m | 6.1m/s | -40.2°C | 2.0% | 8.4hPa | 2.5V | 00:00:00 | 02:48:09 | 00:00:00 | |
| DL1NUX | 2026-09-02 00:40:22 | 52.77404 | 10.77765 | 283° | 20km/h | 32754m | 6.1m/s | -40.3°C | 2% | 8.5hPa | 2.5V | 03:13:58 | 02:48:07 | 00:00:00 | |
| DL1XH-15 | 2026-09-02 00:40:21 | 52.77406 | 10.77779 | 231° | 15km/h | 32742m | 5.7m/s | -40.2°C | 2% | 8.4hPa | 2.6V | 03:14:00 | 02:48:05 | 00:00:00 | |
| HSKMA3-T | 2026-09-02 00:40:20 | 52.77404 | 10.77773 | 258° | 16km/h | 32747m | 6.1m/s | -40.3°C | 0% | 8.4hPa | 2.6V | 03:14:38 | 02:48:06 | 00:00:00 | |
| DL1XH-west | 2026-09-02 00:40:18 | 52.77408 | 10.77782 | 200° | 11km/h | 32736m | 5.8m/s | -40.2°C | 0% | 8.5hPa | 2.6V | 03:14:38 | 02:48:04 | 00:00:00 | |
| EDDB2-11 | 2026-09-02 00:40:17 | 52.77411 | 10.77782 | 166° | 7km/h | 32730m | 6.0m/s | -40.1°C | 0.2% | 8.5hPa | 2.5V | 00:00:00 | 00:00:00 | 00:00:00 | |
| DB0NH | 2026-09-02 00:40:16 | 52.77412 | 10.77780 | 116° | 18km/h | 32724m | 6.3m/s | -40.0°C | 1.9% | 8.5hPa | 2.5V | 00:00:00 | 02:48:02 | 00:00:00 | |
| DL1XH-15 | 2026-09-02 00:40:14 | 52.77404 | 10.77767 | 248° | 9km/h | 32682m | 6.9m/s | -39.8°C | 1.9% | 8.6hPa | 2.5V | 03:14:10 | 02:47:55 | 00:00:00 | |
| BIOWL1-15 | 2026-09-02 00:40:13 | 52.77405 | 10.77785 | 356° | 13km/h | 32654m | 6.9m/s | -39.7°C | 0% | 8.6hPa | 2.5V | 03:14:38 | 02:47:50 | 00:00:00 | |
| AA1-15 | 2026-09-02 00:40:13 | 52.77409 | 10.77767 | 43° | 13km/h | 32706m | 5.1m/s | -39.9°C | 0% | 8.5hPa | 2.6V | 03:14:38 | 02:47:59 | 00:00:00 | |
| DO2SHX-10 | 2026-09-02 00:40:13 | 52.77409 | 10.77767 | 44° | 13km/h | 32707m | 5.0m/s | -39.9°C | 1.9% | 8.5hPa | 2.6V | 00:00:00 | 02:47:59 | 00:00:00 | |
| DM0DOS-11 | 2026-09-02 00:40:12 | 52.77407 | 10.77776 | 243° | 13km/h | 32671m | 4.8m/s | -39.8°C | 1.9% | 8.6hPa | 2.6V | 03:14:12 | 02:47:53 | 00:00:00 | |
| DL1NUX | 2026-09-02 00:40:12 | 52.77404 | 10.77763 | 1° | 5km/h | 32696m | 6.1m/s | -39.8°C | 1.9% | 8.5hPa | 2.5V | 03:14:08 | 02:47:57 | 00:00:00 | |
| HSKMA3-T | 2026-09-02 00:40:10 | 52.77403 | 10.77764 | 287° | 5km/h | 32689m | 7.1m/s | -39.8°C | 0% | 8.5hPa | 2.5V | 03:14:38 | 02:47:56 | 00:00:00 | |
| DL1XH-west | 2026-09-02 00:40:07 | 52.77407 | 10.77776 | 244° | 13km/h | 32671m | 4.8m/s | -39.8°C | 0% | 8.6hPa | 2.6V | 03:14:38 | 02:47:53 | 00:00:00 | |
| AA1-15 | 2026-09-02 00:40:02 | 52.77390 | 10.77776 | 32° | 27km/h | 32634m | 4.7m/s | -39.6°C | 0% | 8.6hPa | 2.6V | 03:14:38 | 02:47:47 | 00:00:00 | |
| DL1NUX | 2026-09-02 00:40:02 | 52.77390 | 10.77776 | 32° | 27km/h | 32634m | 4.7m/s | -39.6°C | 1.9% | 8.6hPa | 2.6V | 03:14:18 | 02:47:47 | 00:00:00 | |
| DL1XH-15 | 2026-09-02 00:40:02 | 52.77382 | 10.77763 | 70° | 18km/h | 32625m | 4.8m/s | -39.6°C | 1.9% | 8.6hPa | 2.5V | 03:14:20 | 02:47:45 | 00:00:00 | |
| HSKMA3-T | 2026-09-02 00:40:00 | 52.77385 | 10.77770 | 47° | 24km/h | 32629m | 4m/s | -39.6°C | 0% | 8.6hPa | 2.6V | 03:14:38 | 02:47:46 | 00:00:00 | |
| GOEST3-10 | 2026-09-02 00:39:59 | 52.77382 | 10.77763 | 71° | 18km/h | 32625m | 4.8m/s | -39.5°C | 1.9% | 8.6hPa | 2.5V | 00:00:00 | 02:47:45 | 00:00:00 | |
| DM0DOS-11 | 2026-09-02 00:39:58 | 52.77384 | 10.77750 | 142° | 16km/h | 32612m | 6.7m/s | -39.5°C | 1.9% | 8.6hPa | 2.5V | 03:14:22 | 02:47:43 | 00:00:00 | |
| DL1XH1-15 | 2026-09-02 00:39:57 | 52.77400 | 10.77761 | 300° | 15km/h | 32585m | 6.4m/s | -39.4°C | 1.8% | 8.7hPa | 2.5V | 03:14:27 | 02:47:38 | 00:00:00 | |
| DL1XH-west | 2026-09-02 00:39:56 | 52.77388 | 10.77748 | 169° | 20km/h | 32605m | 5.8m/s | -39.5°C | 0% | 8.7hPa | 2.6V | 03:14:38 | 02:47:42 | 00:00:00 | |
| DB0DAN | 2026-09-02 00:39:55 | 52.77393 | 10.77748 | 190° | 20km/h | 32600m | 4.7m/s | -39.5°C | 0.2% | 8.66hPa | 2.6V | 00:00:00 | 00:00:00 | 00:00:00 | |
| EDDB2-12 | 2026-09-02 00:39:55 | 52.77393 | 10.77748 | 190° | 20km/h | 32601m | 4.7m/s | -39.5°C | 0.2% | 8.7hPa | 2.6V | 00:00:00 | 00:00:00 | 00:00:00 | |
| DL1XH-15 | 2026-09-02 00:39:54 | 52.77383 | 10.77766 | 17° | 33km/h | 32566m | 5.4m/s | -39.4°C | 1.8% | 8.7hPa | 2.6V | 03:14:30 | 02:47:35 | 00:00:00 | |
| BIOWL1-15 | 2026-09-02 00:39:53 | 52.77370 | 10.77750 | 55° | 33km/h | 32555m | 5.2m/s | -39.4°C | 0% | 8.7hPa | 2.5V | 03:14:38 | 02:47:33 | 00:00:00 | |
| HSKMA3-T | 2026-09-02 00:39:50 | 52.77383 | 10.77766 | 18° | 33km/h | 32566m | 5.4m/s | -39.4°C | 0% | 8.7hPa | 2.6V | 03:14:38 | 02:47:35 | 00:00:00 | |
| DO2JMG | 2026-09-02 00:39:48 | 52.77375 | 10.77760 | 36° | 35km/h | 32560m | 5.2m/s | 0°C | 0% | 0hPa | 2.6V | 18:12:15 | 02:47:34 | 00:00:00 | |
| DM0DOS-11 | 2026-09-02 00:39:48 | 52.77370 | 10.77750 | 55° | 33km/h | 32555m | 5.2m/s | -39.4°C | 1.9% | 8.7hPa | 2.5V | 03:14:32 | 02:47:33 | 00:00:00 | |
| DL1XH-west | 2026-09-02 00:39:46 | 52.77367 | 10.77739 | 79° | 29km/h | 32550m | 5.6m/s | -39.4°C | 0% | 8.7hPa | 2.5V | 03:14:38 | 02:47:32 | 00:00:00 | |
| DJ2DS-15 | 2026-09-02 00:39:45 | 52.77370 | 10.77718 | 133° | 26km/h | 32538m | 6.5m/s | -39.3°C | 0.2% | 8.7hPa | 2.6V | 00:00:00 | 00:00:00 | 00:00:00 | |
| DB0UT-7 | 2026-09-02 00:39:44 | 52.77370 | 10.77718 | 134° | 15km/h | 32538m | 6.5m/s | -39.3°C | 1.8% | 8.7hPa | 2.6V | 00:00:00 | 02:47:30 | 00:00:00 | |
| DL1XH1-15 | 2026-09-02 00:39:43 | 52.77382 | 10.77710 | 180° | 24km/h | 32526m | 5.7m/s | -39.3°C | 1.8% | 8.8hPa | 2.6V | 03:14:37 | 02:47:28 | 00:00:00 | |
| DO3MHA-11 | 2026-09-02 00:39:43 | 52.77376 | 10.77712 | 158° | 22km/h | 32532m | 6.3m/s | -39.3°C | 1.9% | 8.7hPa | 2.6V | 00:00:00 | 02:47:29 | 00:00:00 | |
| DM0DOS-11 | 2026-09-02 00:39:42 | 52.77381 | 10.77720 | 15° | 26km/h | 32497m | 6.2m/s | -39.2°C | 1.8% | 8.8hPa | 2.6V | 03:14:42 | 02:47:23 | 00:00:00 | |
| DO2SHX-10 | 2026-09-02 00:39:42 | 52.77382 | 10.77710 | 181° | 16km/h | 32526m | 5.7m/s | -39.2°C | 1.8% | 8.7hPa | 2.6V | 03:14:00 | 02:47:28 | 00:00:00 | |
| DL1XH-15 | 2026-09-02 00:39:41 | 52.77390 | 10.77719 | 306° | 11km/h | 32509m | 5.9m/s | -39.2°C | 1.8% | 8.8hPa | 2.5V | 03:14:40 | 02:47:25 | 00:00:00 | |
| BIOWL1-15 | 2026-09-02 00:39:39 | 52.77370 | 10.77665 | 165° | 18km/h | 32455m | 6.6m/s | -39.1°C | 0% | 8.8hPa | 2.6V | 03:15:29 | 02:47:16 | 00:00:00 | |
| AA1-15 | 2026-09-02 00:39:38 | 52.77387 | 10.77721 | 352° | 16km/h | 32503m | 6.4m/s | -39.2°C | 0% | 8.8hPa | 2.6V | 03:15:29 | 02:47:24 | 00:00:00 | |
| AM1SDL-15 | 2026-09-02 00:39:38 | 52.77375 | 10.77716 | 33° | 22km/h | 32491m | 6.3m/s | -39.1°C | 1.8% | 8.7hPa | 2.6V | 00:00:00 | 02:47:22 | 00:00:00 | |
| DL1XH1-15 | 2026-09-02 00:39:37 | 52.77363 | 10.77676 | 110° | 22km/h | 32468m | 5.9m/s | -39.1°C | 1.8% | 8.8hPa | 2.6V | 03:14:47 | 02:47:18 | 00:00:00 | |
| DL1XH-west | 2026-09-02 00:39:35 | 52.77369 | 10.77708 | 47° | 31km/h | 32485m | 5.6m/s | -39.2°C | 0% | 8.8hPa | 2.5V | 03:15:29 | 02:47:21 | 00:00:00 | |
| HTAHTA | 2026-09-02 00:39:35 | 52.77365 | 10.77697 | 63° | 29km/h | 32480m | 5.6m/s | -39.2°C | 0.2% | 8.8hPa | 2.5V | 00:00:00 | 00:00:00 | 00:00:00 | |
| DL1XH-15 | 2026-09-02 00:39:34 | 52.77375 | 10.77665 | 191° | 18km/h | 32448m | 6.3m/s | -39.1°C | 1.9% | 8.8hPa | 2.5V | 03:14:50 | 02:47:15 | 00:00:00 | |
| GOEST3-10 | 2026-09-02 00:39:34 | 52.77364 | 10.77697 | 64° | 24km/h | 32480m | 5.5m/s | -39.1°C | 1.8% | 8.7hPa | 2.5V | 03:14:00 | 00:00:00 | 00:00:00 | |
| DO3MHA-11 | 2026-09-02 00:39:33 | 52.77362 | 10.77686 | 86° | 18km/h | 32474m | 5.9m/s | -39.1°C | 1.8% | 8.8hPa | 2.5V | 00:00:00 | 02:47:19 | 00:00:00 | |
| DM0DOS-11 | 2026-09-02 00:39:32 | 52.77381 | 10.77671 | 230° | 13km/h | 32436m | 5.7m/s | -39°C | 1.8% | 8.8hPa | 2.5V | 03:14:52 | 02:47:13 | 00:00:00 | |
| AA1-15 | 2026-09-02 00:39:28 | 52.77378 | 10.77667 | 212° | 16km/h | 32442m | 6.2m/s | -39°C | 0% | 8.9hPa | 2.5V | 03:15:29 | 02:47:14 | 00:00:00 | |
| DL3AQ-11 | 2026-09-02 00:39:28 | 52.77381 | 10.77671 | 230° | 13km/h | 32436m | 5.7m/s | -39.0°C | 0.2% | 8.8hPa | 2.5V | 00:00:00 | 00:00:00 | 00:00:00 | |
| DD8BA-10 | 2026-09-02 00:39:27 | 52.77381 | 10.77671 | 231° | 7km/h | 32436m | 5.6m/s | -38.9°C | 1.8% | 8.8hPa | 2.5V | 00:00:00 | 00:00:00 | 00:00:00 | |
| DL1NUX | 2026-09-02 00:39:26 | 52.77384 | 10.77670 | 103° | 11km/h | 32401m | 6.1m/s | -38.9°C | 1.8% | 8.9hPa | 2.5V | 03:14:58 | 02:47:07 | 00:00:00 | |
| DB0DAN | 2026-09-02 00:39:25 | 52.77383 | 10.77677 | 258° | 4km/h | 32424m | 5.4m/s | -38.9°C | 0.2% | 8.9hPa | 2.6V | 00:00:00 | 00:00:00 | 00:00:00 | |
| DL1XH-west | 2026-09-02 00:39:25 | 52.77383 | 10.77677 | 258° | 4km/h | 32424m | 5.4m/s | -38.9°C | 0% | 8.9hPa | 2.6V | 03:15:29 | 02:47:11 | 00:00:00 | |
| DO2SHX-10 | 2026-09-02 00:39:25 | 52.77383 | 10.77677 | 258° | 4km/h | 32425m | 5.3m/s | -38.9°C | 1.8% | 8.9hPa | 2.6V | 03:14:00 | 02:47:11 | 00:00:00 | |
| DJ8HS-15 | 2026-09-02 00:39:24 | 52.77383 | 10.77678 | 314° | 7km/h | 32419m | 5.4m/s | -38.9°C | 1.8% | 8.8hPa | 2.6V | 00:00:00 | 02:47:10 | 00:00:00 | |
| DL1XH1-15 | 2026-09-02 00:39:23 | 52.77384 | 10.77674 | 101° | 9km/h | 32407m | 6.3m/s | -38.9°C | 1.8% | 8.9hPa | 2.5V | 03:14:57 | 02:47:08 | 00:00:00 | |
| DO3MHA-11 | 2026-09-02 00:39:23 | 52.77384 | 10.77677 | 110° | 7km/h | 32413m | 6.1m/s | -38.8°C | 1.8% | 8.8hPa | 2.5V | 00:00:00 | 02:47:09 | 00:00:00 | |
| DO2SHX-10 | 2026-09-02 00:39:22 | 52.77384 | 10.77674 | 102° | 9km/h | 32408m | 6.2m/s | -38.8°C | 1.8% | 8.9hPa | 2.5V | 00:00:00 | 02:47:08 | 00:00:00 | |
| DM0DOS-11 | 2026-09-02 00:39:21 | 52.77383 | 10.77657 | 20° | 5km/h | 32377m | 6.3m/s | -38.8°C | 1.8% | 8.9hPa | 2.5V | 03:15:02 | 02:47:03 | 00:00:00 | |
| BIOWL1-15 | 2026-09-02 00:39:20 | 52.77385 | 10.77662 | 90° | 9km/h | 32389m | 5.9m/s | -38.8°C | 0% | 8.9hPa | 2.6V | 03:15:29 | 02:47:05 | 00:00:00 | |
| AA1-15 | 2026-09-02 00:39:18 | 52.77385 | 10.77659 | 67° | 5km/h | 32383m | 6.1m/s | -38.9°C | 0% | 8.9hPa | 2.6V | 03:15:29 | 02:47:04 | 00:00:00 | |
| DF8AY | 2026-09-02 00:39:18 | 52.77381 | 10.77657 | 349° | 5km/h | 32365m | 5.2m/s | -38.9°C | 0% | 8.9hPa | 2.5V | 03:16:20 | 02:47:01 | 00:00:00 | |
| DL1XH-west | 2026-09-02 00:39:14 | 52.77380 | 10.77657 | 65° | 2km/h | 32360m | 5.5m/s | -38.9°C | 0% | 9hPa | 2.6V | 03:15:29 | 02:47:00 | 00:00:00 | |
| DB0UT-7 | 2026-09-02 00:39:14 | 52.77380 | 10.77657 | 66° | 7km/h | 32360m | 5.5m/s | -38.8°C | 1.8% | 8.9hPa | 2.6V | 00:00:00 | 00:00:00 | 00:00:00 | |
| DO3MHA-11 | 2026-09-02 00:39:13 | 52.77380 | 10.77656 | 124° | 9km/h | 32354m | 7.2m/s | -38.8°C | 1.8% | 8.9hPa | 2.5V | 03:15:00 | 02:46:59 | 00:00:00 | |
| DL1NUX | 2026-09-02 00:39:12 | 52.77384 | 10.77651 | 152° | 11km/h | 32340m | 5.8m/s | -38.9°C | 1.8% | 9hPa | 2.5V | 03:15:08 | 02:46:57 | 00:00:00 | |
| DO2SHX-10 | 2026-09-02 00:39:12 | 52.77382 | 10.77654 | 140° | 11km/h | 32347m | 6.9m/s | -38.8°C | 1.8% | 8.9hPa | 2.5V | 03:15:00 | 02:46:58 | 00:00:00 | |
| DB0DAN | 2026-09-02 00:39:10 | 52.77386 | 10.77649 | 159° | 11km/h | 32335m | 5.6m/s | -38.9°C | 0.2% | 8.99hPa | 2.5V | 00:00:00 | 00:00:00 | 00:00:00 | |
| BIOWL1-15 | 2026-09-02 00:39:10 | 52.77391 | 10.77649 | 208° | 9km/h | 32322m | 7.3m/s | -38.9°C | 0% | 9hPa | 2.6V | 03:15:29 | 02:46:54 | 00:00:00 | |
| DM0DOS-11 | 2026-09-02 00:39:09 | 52.77393 | 10.77652 | 238° | 9km/h | 32316m | 6.7m/s | -38.9°C | 1.8% | 9hPa | 2.6V | 03:15:12 | 02:46:53 | 00:00:00 | |
| HSKMA3-T | 2026-09-02 00:39:07 | 52.77393 | 10.77652 | 238° | 9km/h | 32316m | 6.7m/s | -38.9°C | 0% | 9hPa | 2.6V | 03:15:29 | 02:46:53 | 00:00:00 | |
| DL1XH-west | 2026-09-02 00:39:03 | 52.77394 | 10.77661 | 97° | 4km/h | 32292m | 7.1m/s | -38.9°C | 0% | 9.1hPa | 2.5V | 03:15:29 | 02:46:49 | 00:00:00 | |
| DO2SHX-10 | 2026-09-02 00:39:03 | 52.77394 | 10.77661 | 97° | 4km/h | 32292m | 7.1m/s | -38.8°C | 1.8% | 9.0hPa | 2.5V | 00:00:00 | 02:46:49 | 00:00:00 | |
| SONDE2-11 | 2026-09-02 00:39:02 | 52.77394 | 10.77659 | 100° | 9km/h | 32285m | 7.1m/s | -38.9°C | 0.2% | 9.1hPa | 2.5V | 00:00:00 | 00:00:00 | 00:00:00 | |
| DL1XH-15 | 2026-09-02 00:39:01 | 52.77396 | 10.77642 | 98° | 11km/h | 32267m | 5m/s | -38.9°C | 1.8% | 9.1hPa | 2.5V | 03:15:20 | 02:46:45 | 00:00:00 | |
| BIOWL1-15 | 2026-09-02 00:38:59 | 52.77397 | 10.77639 | 108° | 5km/h | 32262m | 6.6m/s | -38.9°C | 0% | 9.1hPa | 2.5V | 03:15:29 | 02:46:44 | 00:00:00 | |
| AA1-15 | 2026-09-02 00:38:56 | 52.77397 | 10.77641 | 275° | 9km/h | 32248m | 6.4m/s | -39°C | 0% | 9.1hPa | 2.6V | 03:15:29 | 02:46:42 | 00:00:00 | |
| DB0DAN | 2026-09-02 00:38:55 | 52.77397 | 10.77645 | 280° | 9km/h | 32241m | 5.7m/s | -39°C | 0.2% | 9.14hPa | 2.6V | 00:00:00 | 00:00:00 | 00:00:00 | |
| DL1XH-15 | 2026-09-02 00:38:54 | 52.77399 | 10.77644 | 118° | 9km/h | 32204m | 6.5m/s | -39.1°C | 1.8% | 9.2hPa | 2.6V | 03:15:30 | 02:46:35 | 00:00:00 | |
| DF8AY | 2026-09-02 00:38:54 | 52.77396 | 10.77651 | 253° | 4km/h | 32229m | 6.8m/s | -39°C | 0% | 9.1hPa | 2.5V | 03:16:20 | 02:46:39 | 00:00:00 | |
| DL1XH-west | 2026-09-02 00:38:52 | 52.77396 | 10.77652 | 124° | 2km/h | 32222m | 6.4m/s | -39°C | 0% | 9.2hPa | 2.5V | 03:15:29 | 02:46:38 | 00:00:00 | |
| SMARD9-15 | 2026-09-02 00:38:50 | 52.77398 | 10.77647 | 118° | 9km/h | 32211m | 5.7m/s | -39.1°C | 0.2% | 9.2hPa | 2.5V | 00:00:00 | 00:00:00 | 00:00:00 | |
| BUE01 | 2026-09-02 00:38:49 | 52.77399 | 10.77644 | 118° | 7km/h | 32205m | 6.5m/s | -39.1°C | 0.2% | 9.2hPa | 2.5V | 00:00:00 | 00:00:00 | 00:00:00 | |
| BIOWL1-15 | 2026-09-02 00:38:48 | 52.77411 | 10.77606 | 100° | 16km/h | 32151m | 5.3m/s | -39°C | 0% | 9.2hPa | 2.5V | 03:16:20 | 02:46:26 | 00:00:00 | |
| DM0DOS-11 | 2026-09-02 00:38:48 | 52.77401 | 10.77638 | 135° | 7km/h | 32191m | 5.9m/s | -39°C | 1.8% | 9.2hPa | 2.5V | 03:15:32 | 02:46:33 | 00:00:00 | |
| HSKMA3-T | 2026-09-02 00:38:46 | 52.77402 | 10.77636 | 144° | 7km/h | 32186m | 5.1m/s | -39°C | 0% | 9.2hPa | 2.5V | 03:16:20 | 02:46:32 | 00:00:00 | |
| AA1-15 | 2026-09-02 00:38:46 | 52.77404 | 10.77634 | 138° | 7km/h | 32180m | 5.1m/s | -39°C | 0% | 9.2hPa | 2.5V | 03:16:20 | 02:46:31 | 00:00:00 | |
| DO2SHX-10 | 2026-09-02 00:38:46 | 52.77402 | 10.77636 | 144° | 9km/h | 32186m | 5.1m/s | -39.0°C | 1.8% | 9.1hPa | 2.6V | 03:15:00 | 02:46:32 | 00:00:00 | |
| DJ8HS-15 | 2026-09-02 00:38:44 | 52.77406 | 10.77631 | 127° | 11km/h | 32175m | 6.0m/s | -39.0°C | 1.8% | 9.1hPa | 2.6V | 00:00:00 | 02:46:30 | 00:00:00 | |
| DL1XH1-15 | 2026-09-02 00:38:43 | 52.77409 | 10.77621 | 111° | 18km/h | 32162m | 6.7m/s | -39°C | 1.8% | 9.2hPa | 2.6V | 03:15:37 | 02:46:28 | 00:00:00 | |
| DF8AY | 2026-09-02 00:38:42 | 52.77409 | 10.77621 | 111° | 18km/h | 32162m | 6.7m/s | -39°C | 0% | 9.2hPa | 2.6V | 03:16:20 | 02:46:28 | 00:00:00 | |
| AM1SDL-15 | 2026-09-02 00:38:42 | 52.77410 | 10.77614 | 106° | 18km/h | 32156m | 5.8m/s | -39.0°C | 1.8% | 9.2hPa | 2.5V | 00:00:00 | 02:46:27 | 00:00:00 | |
| DL1XH-15 | 2026-09-02 00:38:41 | 52.77412 | 10.77601 | 90° | 11km/h | 32145m | 6.2m/s | -39°C | 1.8% | 9.2hPa | 2.5V | 03:15:40 | 02:46:25 | 00:00:00 | |
| DL1XH-west | 2026-09-02 00:38:41 | 52.77410 | 10.77614 | 106° | 18km/h | 32156m | 5.8m/s | -39°C | 0% | 9.3hPa | 2.5V | 03:16:20 | 02:46:27 | 00:00:00 | |
| DO3MHA-11 | 2026-09-02 00:38:41 | 52.77410 | 10.77614 | 106° | 13km/h | 32156m | 5.8m/s | -39.0°C | 1.8% | 9.2hPa | 2.5V | 00:00:00 | 02:46:27 | 00:00:00 | |
| DO2SHX-10 | 2026-09-02 00:38:40 | 52.77411 | 10.77606 | 101° | 11km/h | 32151m | 5.3m/s | -39.0°C | 1.8% | 9.2hPa | 2.5V | 00:00:00 | 02:46:26 | 00:00:00 | |
| DO9LL-15 | 2026-09-02 00:38:39 | 52.77411 | 10.77601 | 91° | 9km/h | 32145m | 6.1m/s | -39.0°C | 1.8% | 9.2hPa | 2.6V | 00:00:00 | 02:46:25 | 00:00:00 | |
| GOEST3-10 | 2026-09-02 00:38:38 | 52.77411 | 10.77598 | 64° | 5km/h | 32139m | 7.5m/s | -39.0°C | 1.8% | 9.2hPa | 2.6V | 00:00:00 | 02:46:24 | 00:00:00 | |
| DL1XH1-15 | 2026-09-02 00:38:37 | 52.77420 | 10.77593 | 141° | 22km/h | 32100m | 6.3m/s | -39.1°C | 1.8% | 9.3hPa | 2.6V | 03:15:47 | 02:46:18 | 00:00:00 | |
| HSKMA3-T | 2026-09-02 00:38:36 | 52.77410 | 10.77598 | 270° | 4km/h | 32125m | 5.8m/s | -39.1°C | 0% | 9.3hPa | 2.6V | 03:16:20 | 02:46:22 | 00:00:00 | |
| AA1-15 | 2026-09-02 00:38:36 | 52.77411 | 10.77599 | 202° | 5km/h | 32120m | 5m/s | -39.1°C | 0% | 9.3hPa | 2.5V | 03:16:20 | 02:46:21 | 00:00:00 | |
| DK1YY | 2026-09-02 00:38:35 | 52.77413 | 10.77599 | 169° | 9km/h | 32114m | 6.6m/s | -39.1°C | 0.2% | 9.3hPa | 2.5V | 00:00:00 | 00:00:00 | 00:00:00 | |
| DL1XH-15 | 2026-09-02 00:38:34 | 52.77431 | 10.77572 | 124° | 20km/h | 32082m | 6.3m/s | -39.1°C | 1.8% | 9.3hPa | 2.5V | 03:15:50 | 02:46:15 | 00:00:00 | |
| DF8AY | 2026-09-02 00:38:32 | 52.77420 | 10.77593 | 141° | 22km/h | 32100m | 6.3m/s | -39.1°C | 0% | 9.3hPa | 2.6V | 03:16:20 | 02:46:18 | 00:00:00 | |
| DL1XH-west | 2026-09-02 00:38:30 | 52.77428 | 10.77579 | 130° | 22km/h | 32088m | 5.5m/s | -39.1°C | 0% | 9.3hPa | 2.6V | 03:16:20 | 02:46:16 | 00:00:00 | |
| BIOWL1-15 | 2026-09-02 00:38:29 | 52.77434 | 10.77566 | 112° | 15km/h | 32075m | 6.3m/s | -39.1°C | 0% | 9.3hPa | 2.5V | 03:16:20 | 02:46:14 | 00:00:00 | |
| DO2SHX-10 | 2026-09-02 00:38:29 | 52.77432 | 10.77572 | 125° | 16km/h | 32083m | 6.2m/s | -39.1°C | 1.8% | 9.3hPa | 2.5V | 00:00:00 | 02:46:15 | 00:00:00 | |
| GOEST3-10 | 2026-09-02 00:38:28 | 52.77434 | 10.77566 | 113° | 15km/h | 32076m | 6.2m/s | -39.1°C | 1.8% | 9.3hPa | 2.5V | 00:00:00 | 02:46:14 | 00:00:00 | |
| DD8BA-10 | 2026-09-02 00:38:27 | 52.77434 | 10.77560 | 89° | 15km/h | 32070m | 5.6m/s | -39.1°C | 1.8% | 9.3hPa | 2.5V | 03:15:00 | 00:00:00 | 00:00:00 | |
| DB0DAN | 2026-09-02 00:38:25 | 52.77433 | 10.77551 | 67° | 13km/h | 32058m | 6.2m/s | -39.2°C | 0.2% | 9.38hPa | 2.6V | 00:00:00 | 00:00:00 | 00:00:00 | |
| HSKMA3-T | 2026-09-02 00:38:25 | 52.77433 | 10.77551 | 67° | 15km/h | 32058m | 6.2m/s | -39.2°C | 0% | 9.4hPa | 2.6V | 03:16:20 | 02:46:11 | 00:00:00 | |
| DL1XH1-15 | 2026-09-02 00:38:23 | 52.77431 | 10.77533 | 106° | 16km/h | 32040m | 5.3m/s | -39.1°C | 1.8% | 9.4hPa | 2.5V | 03:15:57 | 02:46:08 | 00:00:00 | |
| DM0DOS-11 | 2026-09-02 00:38:23 | 52.77449 | 10.77524 | 201° | 18km/h | 32009m | 5.8m/s | -39.1°C | 1.8% | 9.4hPa | 2.5V | 03:16:02 | 02:46:03 | 00:00:00 | |
| DF8AY | 2026-09-02 00:38:22 | 52.77433 | 10.77527 | 130° | 16km/h | 32034m | 5.2m/s | -39.1°C | 0% | 9.4hPa | 2.5V | 03:16:20 | 02:46:07 | 00:00:00 | |
| DL1XH-15 | 2026-09-02 00:38:21 | 52.77440 | 10.77521 | 174° | 16km/h | 32022m | 6.3m/s | -39.1°C | 1.8% | 9.4hPa | 2.6V | 03:16:00 | 02:46:05 | 00:00:00 | |
| DL1XH-west | 2026-09-02 00:38:20 | 52.77436 | 10.77523 | 153° | 16km/h | 32028m | 5.7m/s | -39.1°C | 0% | 9.4hPa | 2.6V | 03:16:20 | 02:46:06 | 00:00:00 | |
| DO2SHX-10 | 2026-09-02 00:38:20 | 52.77436 | 10.77523 | 153° | 16km/h | 32029m | 5.6m/s | -39.1°C | 1.8% | 9.4hPa | 2.6V | 03:15:00 | 02:46:06 | 00:00:00 | |
| DL3AQ-11 | 2026-09-02 00:38:19 | 52.77444 | 10.77521 | 191° | 18km/h | 32016m | 7.3m/s | -39.1°C | 0.2% | 9.4hPa | 2.6V | 00:00:00 | 00:00:00 | 00:00:00 | |
| BUE01 | 2026-09-02 00:38:18 | 52.77444 | 10.77521 | 191° | 18km/h | 32016m | 7.3m/s | -39.1°C | 0.2% | 9.4hPa | 2.6V | 00:00:00 | 00:00:00 | 00:00:00 | |
| DL1XH1-15 | 2026-09-02 00:38:17 | 52.77468 | 10.77507 | 109° | 31km/h | 31979m | 6.3m/s | -39.1°C | 1.8% | 9.5hPa | 2.6V | 03:16:07 | 02:45:58 | 00:00:00 | |
| BIOWL1-15 | 2026-09-02 00:38:16 | 52.77470 | 10.77494 | 103° | 33km/h | 31974m | 5.4m/s | -39.2°C | 0% | 9.5hPa | 2.5V | 03:16:20 | 02:45:57 | 00:00:00 | |
| DF8AY | 2026-09-02 00:38:16 | 52.77472 | 10.77482 | 98° | 29km/h | 31968m | 5.6m/s | -39.2°C | 0% | 9.5hPa | 2.5V | 03:16:20 | 02:45:56 | 00:00:00 | |
| HSKMA3-T | 2026-09-02 00:38:15 | 52.77458 | 10.77526 | 172° | 16km/h | 31999m | 5m/s | -39.1°C | 0% | 9.4hPa | 2.5V | 03:16:20 | 02:46:01 | 00:00:00 | |
| DL1XH-15 | 2026-09-02 00:38:14 | 52.77472 | 10.77470 | 95° | 26km/h | 31962m | 6.3m/s | -39.2°C | 1.8% | 9.5hPa | 2.5V | 03:16:10 | 02:45:55 | 00:00:00 | |
| DO2SHX-10 | 2026-09-02 00:38:14 | 52.77461 | 10.77523 | 144° | 18km/h | 31994m | 6.8m/s | -39.1°C | 1.8% | 9.4hPa | 2.6V | 00:00:00 | 02:46:00 | 00:00:00 | |
| GOEST3-10 | 2026-09-02 00:38:13 | 52.77465 | 10.77517 | 124° | 29km/h | 31987m | 7.7m/s | -39.1°C | 1.8% | 9.4hPa | 2.6V | 03:16:00 | 00:00:00 | 00:00:00 | |
| DF8AY-15 | 2026-09-02 00:38:12 | 52.77468 | 10.77507 | 110° | 26km/h | 31980m | 6.3m/s | -39.1°C | 1.8% | 9.5hPa | 2.6V | 00:00:00 | 02:45:58 | 00:00:00 | |
| DB0DAN | 2026-09-02 00:38:10 | 52.77472 | 10.77482 | 98° | 29km/h | 31968m | 5.6m/s | -39.2°C | 0.2% | 9.49hPa | 2.5V | 00:00:00 | 00:00:00 | 00:00:00 | |
| DL1XH-west | 2026-09-02 00:38:09 | 52.77472 | 10.77470 | 96° | 26km/h | 31962m | 6.3m/s | -39.2°C | 0% | 9.5hPa | 2.5V | 03:16:20 | 02:45:55 | 00:00:00 | |
| DL3AQ-11 | 2026-09-02 00:38:08 | 52.77475 | 10.77455 | 123° | 13km/h | 31951m | 5.3m/s | -39.2°C | 0.2% | 9.5hPa | 2.6V | 00:00:00 | 00:00:00 | 00:00:00 | |
| DD8BA-10 | 2026-09-02 00:38:07 | 52.77475 | 10.77455 | 124° | 24km/h | 31951m | 5.2m/s | -39.2°C | 1.8% | 9.5hPa | 2.6V | 00:00:00 | 00:00:00 | 00:00:00 | |
| DL1NUX | 2026-09-02 00:38:06 | 52.77503 | 10.77428 | 139° | 29km/h | 31916m | 5.1m/s | -39.2°C | 1.9% | 9.6hPa | 2.6V | 03:16:18 | 02:45:47 | 00:00:00 | |
| HSKMA3-T | 2026-09-02 00:38:05 | 52.77481 | 10.77448 | 159° | 18km/h | 31939m | 6m/s | -39.2°C | 0% | 9.5hPa | 2.5V | 03:16:20 | 02:45:51 | 00:00:00 | |
| DF8AY | 2026-09-02 00:38:00 | 52.77509 | 10.77420 | 133° | 27km/h | 31910m | 5.4m/s | -39.3°C | 0% | 9.6hPa | 2.6V | 03:16:20 | 02:45:46 | 00:00:00 | |
| DL1XH-west | 2026-09-02 00:37:59 | 52.77513 | 10.77412 | 126° | 24km/h | 31905m | 6m/s | -39.3°C | 0% | 9.6hPa | 2.5V | 03:16:20 | 02:45:45 | 00:00:00 | |
| DO2SHX-10 | 2026-09-02 00:37:59 | 52.77513 | 10.77412 | 126° | 20km/h | 31905m | 6.0m/s | -39.2°C | 1.8% | 9.5hPa | 2.5V | 00:00:00 | 02:45:45 | 00:00:00 | |
| GOEST3-10 | 2026-09-02 00:37:58 | 52.77516 | 10.77404 | 120° | 20km/h | 31899m | 6.2m/s | -39.2°C | 1.8% | 9.5hPa | 2.5V | 00:00:00 | 02:45:44 | 00:00:00 | |
| DL1XH1-15 | 2026-09-02 00:37:57 | 52.77536 | 10.77355 | 133° | 37km/h | 31863m | 6m/s | -39.2°C | 1.9% | 9.6hPa | 2.5V | 03:16:27 | 02:45:38 | 00:00:00 | |
| DD8BA-10 | 2026-09-02 00:37:57 | 52.77518 | 10.77397 | 113° | 27km/h | 31892m | 5.9m/s | -39.2°C | 1.9% | 9.5hPa | 2.5V | 00:00:00 | 00:00:00 | 00:00:00 | |
| 13BRC | 2026-09-02 00:37:56 | 52.77518 | 10.77397 | 114° | 18km/h | 31892m | 6.0m/s | -39.3°C | 0.2% | 9.6hPa | 2.6V | 00:00:00 | 00:00:00 | 00:00:00 | |
| DB0DAN | 2026-09-02 00:37:55 | 52.77522 | 10.77383 | 119° | 20km/h | 31881m | 5m/s | -39.2°C | 0.2% | 9.61hPa | 2.6V | 00:00:00 | 00:00:00 | 00:00:00 | |
| AA1-15 | 2026-09-02 00:37:55 | 52.77522 | 10.77383 | 119° | 20km/h | 31881m | 5m/s | -39.2°C | 0% | 9.6hPa | 2.6V | 03:17:11 | 02:45:41 | 00:00:00 | |
| HSKMA3-T | 2026-09-02 00:37:54 | 52.77525 | 10.77374 | 126° | 26km/h | 31876m | 6.2m/s | -39.2°C | 0% | 9.6hPa | 2.6V | 03:17:11 | 02:45:40 | 00:00:00 | |
| DO2SHX-10 | 2026-09-02 00:37:53 | 52.77530 | 10.77365 | 131° | 35km/h | 31869m | 7.0m/s | -39.2°C | 1.8% | 9.6hPa | 2.5V | 00:00:00 | 02:45:39 | 00:00:00 | |
| DL1NUX | 2026-09-02 00:37:52 | 52.77542 | 10.77344 | 136° | 37km/h | 31857m | 4.8m/s | -39.3°C | 1.9% | 9.6hPa | 2.5V | 03:16:28 | 02:45:37 | 00:00:00 | |
| BIOWL1-15 | 2026-09-02 00:37:51 | 52.77543 | 10.77344 | 137° | 37km/h | 31857m | 4.9m/s | -39.3°C | 0% | 9.7hPa | 2.5V | 03:17:11 | 02:45:37 | 00:00:00 | |
| DF8AY | 2026-09-02 00:37:49 | 52.77564 | 10.77306 | 108° | 16km/h | 31828m | 5.9m/s | -39.3°C | 0% | 9.7hPa | 2.6V | 03:18:02 | 02:45:32 | 00:00:00 | |
| DL1XH-west | 2026-09-02 00:37:48 | 52.77560 | 10.77317 | 133° | 22km/h | 31839m | 6.3m/s | -39.2°C | 0% | 9.6hPa | 2.5V | 03:17:11 | 02:45:34 | 00:00:00 | |
| DM0DOS-11 | 2026-09-02 00:37:48 | 52.77563 | 10.77311 | 123° | 16km/h | 31833m | 5.8m/s | -39.2°C | 1.8% | 9.7hPa | 2.5V | 03:16:32 | 02:45:33 | 00:00:00 | |
| GOEST3-10 | 2026-09-02 00:37:48 | 52.77560 | 10.77317 | 134° | 18km/h | 31840m | 6.2m/s | -39.2°C | 1.8% | 9.6hPa | 2.6V | 00:00:00 | 02:45:34 | 00:00:00 | |
| DD8BA-10 | 2026-09-02 00:37:47 | 52.77563 | 10.77311 | 124° | 18km/h | 31834m | 5.8m/s | -39.2°C | 1.8% | 9.6hPa | 2.6V | 03:16:00 | 00:00:00 | 00:00:00 | |
| DL1NUX | 2026-09-02 00:37:46 | 52.77565 | 10.77263 | 86° | 22km/h | 31797m | 6m/s | -39.3°C | 1.9% | 9.7hPa | 2.6V | 03:16:38 | 02:45:27 | 00:00:00 | |
| AA1-15 | 2026-09-02 00:37:45 | 52.77566 | 10.77291 | 92° | 20km/h | 31815m | 6.5m/s | -39.3°C | 0% | 9.7hPa | 2.5V | 03:17:11 | 02:45:30 | 00:00:00 | |
| DF8AY | 2026-09-02 00:37:45 | 52.77565 | 10.77246 | 90° | 16km/h | 31785m | 5.9m/s | -39.3°C | 0% | 9.8hPa | 2.5V | 03:18:02 | 02:45:25 | 00:00:00 | |
| DO2SHX-10 | 2026-09-02 00:37:44 | 52.77566 | 10.77291 | 93° | 24km/h | 31815m | 6.4m/s | -39.2°C | 1.9% | 9.6hPa | 2.5V | 03:16:00 | 02:45:30 | 00:00:00 | |
| DL1XH1-15 | 2026-09-02 00:37:43 | 52.77566 | 10.77272 | 85° | 24km/h | 31803m | 5.6m/s | -39.3°C | 1.9% | 9.7hPa | 2.6V | 03:16:37 | 02:45:28 | 00:00:00 | |
| HSKMA3-T | 2026-09-02 00:37:43 | 52.77566 | 10.77282 | 90° | 24km/h | 31809m | 5.8m/s | -39.3°C | 0% | 9.7hPa | 2.5V | 03:17:11 | 02:45:29 | 00:00:00 | |
| DM0DOS-11 | 2026-09-02 00:37:42 | 52.77567 | 10.77234 | 116° | 15km/h | 31774m | 5m/s | -39.2°C | 1.9% | 9.8hPa | 2.6V | 03:16:42 | 02:45:23 | 00:00:00 | |
| BIOWL1-15 | 2026-09-02 00:37:41 | 52.77565 | 10.77263 | 86° | 22km/h | 31797m | 6m/s | -39.3°C | 0% | 9.7hPa | 2.6V | 03:17:11 | 02:45:27 | 00:00:00 | |
| DB0DAN | 2026-09-02 00:37:40 | 52.77565 | 10.77254 | 88° | 18km/h | 31791m | 6.8m/s | -39.3°C | 0.2% | 9.74hPa | 2.5V | 00:00:00 | 00:00:00 | 00:00:00 | |
| DL1XH-west | 2026-09-02 00:37:38 | 52.77565 | 10.77240 | 101° | 15km/h | 31779m | 5m/s | -39.3°C | 0% | 9.8hPa | 2.6V | 03:17:11 | 02:45:24 | 00:00:00 | |
| AA1-15 | 2026-09-02 00:37:33 | 52.77581 | 10.77206 | 130° | 24km/h | 31750m | 4.5m/s | -39.2°C | 0% | 9.8hPa | 2.6V | 03:17:11 | 02:45:19 | 00:00:00 | |
| GOEST3-10 | 2026-09-02 00:37:33 | 52.77581 | 10.77206 | 131° | 16km/h | 31750m | 4.5m/s | -39.2°C | 1.8% | 9.8hPa | 2.6V | 03:16:00 | 00:00:00 | 00:00:00 | |
| DL1NUX | 2026-09-02 00:37:32 | 52.77586 | 10.77194 | 100° | 13km/h | 31740m | 6.5m/s | -39.2°C | 1.8% | 9.8hPa | 2.6V | 03:16:48 | 02:45:17 | 00:00:00 | |
| HSKMA3-T | 2026-09-02 00:37:32 | 52.77584 | 10.77200 | 119° | 18km/h | 31746m | 4.4m/s | -39.2°C | 0% | 9.8hPa | 2.6V | 03:17:11 | 02:45:18 | 00:00:00 | |
| BIOWL1-15 | 2026-09-02 00:37:31 | 52.77582 | 10.77147 | 139° | 33km/h | 31694m | 5.5m/s | -39°C | 0% | 9.9hPa | 2.5V | 03:17:11 | 02:45:09 | 00:00:00 | |
| DL1XH-west | 2026-09-02 00:37:27 | 52.77576 | 10.77177 | 47° | 16km/h | 31717m | 4m/s | -39.1°C | 0% | 9.8hPa | 2.6V | 03:17:11 | 02:45:13 | 00:00:00 | |
| DD8BA-10 | 2026-09-02 00:37:27 | 52.77576 | 10.77177 | 48° | 22km/h | 31718m | 4.0m/s | -39.0°C | 1.8% | 9.8hPa | 2.6V | 00:00:00 | 00:00:00 | 00:00:00 | |
| TFSTFS | 2026-09-02 00:37:26 | 52.77576 | 10.77177 | 48° | 16km/h | 31718m | 4.0m/s | -39.1°C | 0.2% | 9.8hPa | 2.5V | 03:17:00 | 00:00:00 | 00:00:00 | |
| DO3MHA-11 | 2026-09-02 00:37:25 | 52.77574 | 10.77164 | 106° | 16km/h | 31707m | 6.7m/s | -39.0°C | 1.8% | 9.8hPa | 2.5V | 00:00:00 | 02:45:11 | 00:00:00 | |
| DL1XH1-15 | 2026-09-02 00:37:23 | 52.77589 | 10.77138 | 147° | 35km/h | 31689m | 4.7m/s | -39°C | 1.8% | 9.9hPa | 2.5V | 03:16:57 | 02:45:08 | 00:00:00 | |
| DO2SHX-10 | 2026-09-02 00:37:23 | 52.77582 | 10.77147 | 140° | 33km/h | 31694m | 5.4m/s | -39.0°C | 1.8% | 9.8hPa | 2.5V | 00:00:00 | 02:45:09 | 00:00:00 | |
| DM0DOS-11 | 2026-09-02 00:37:22 | 52.77610 | 10.77128 | 318° | 7km/h | 31661m | 5.7m/s | -39°C | 1.8% | 9.9hPa | 2.5V | 03:17:02 | 02:45:03 | 00:00:00 | |
| HSKMA3-T | 2026-09-02 00:37:22 | 52.77589 | 10.77138 | 148° | 35km/h | 31689m | 4.7m/s | -39°C | 0% | 9.9hPa | 2.5V | 03:17:11 | 02:45:08 | 00:00:00 | |
| DL4BBY-15 | 2026-09-02 00:37:21 | 52.77596 | 10.77132 | 155° | 18km/h | 31685m | 4.4m/s | -38.7°C | 0% | 0hPa | 2.5V | 00:00:00 | 00:00:00 | 00:00:00 | |
| EDDB2-12 | 2026-09-02 00:37:20 | 52.77607 | 10.77126 | 176° | 13km/h | 31674m | 6.6m/s | -39.0°C | 0.2% | 9.9hPa | 2.5V | 00:00:00 | 00:00:00 | 00:00:00 | |
| GOEST3-10 | 2026-09-02 00:37:18 | 52.77610 | 10.77126 | 226° | 11km/h | 31668m | 6.4m/s | -39.0°C | 1.8% | 9.9hPa | 2.5V | 00:00:00 | 02:45:04 | 00:00:00 | |
| DL1XH1-15 | 2026-09-02 00:37:17 | 52.77600 | 10.77111 | 94° | 24km/h | 31632m | 6.3m/s | -39.1°C | 1.8% | 10hPa | 2.5V | 03:17:07 | 02:44:58 | 00:00:00 | |
| DL1XH-west | 2026-09-02 00:37:17 | 52.77609 | 10.77128 | 319° | 7km/h | 31661m | 5.7m/s | -39.1°C | 0% | 9.9hPa | 2.5V | 03:17:11 | 02:45:03 | 00:00:00 | |
| DF8AY | 2026-09-02 00:37:16 | 52.77607 | 10.77130 | 346° | 13km/h | 31656m | 4.9m/s | -39.1°C | 0% | 9.9hPa | 2.5V | 03:18:02 | 02:45:02 | 00:00:00 | |
| DB0NH | 2026-09-02 00:37:16 | 52.77607 | 10.77130 | 347° | 16km/h | 31656m | 4.9m/s | -39.0°C | 1.8% | 9.9hPa | 2.6V | 00:00:00 | 02:45:02 | 00:00:00 | |
| DF7PN | 2026-09-02 00:37:15 | 52.77602 | 10.77126 | 54° | 15km/h | 31645m | 5.9m/s | -39.1°C | 0.2% | 9.9hPa | 2.6V | 00:00:00 | 00:00:00 | 00:00:00 | |
| DL1XH-15 | 2026-09-02 00:37:14 | 52.77608 | 10.77079 | 127° | 27km/h | 31616m | 5.4m/s | -39.1°C | 1.8% | 10hPa | 2.6V | 03:17:10 | 02:44:55 | 00:00:00 | |
| BIOWL1-15 | 2026-09-02 00:37:13 | 52.77600 | 10.77120 | 77° | 20km/h | 31639m | 6.4m/s | -39.1°C | 0% | 9.9hPa | 2.6V | 03:17:11 | 02:44:59 | 00:00:00 | |
| DO2JMG | 2026-09-02 00:37:12 | 52.77600 | 10.77111 | 95° | 24km/h | 31632m | 6.3m/s | 0°C | 0% | 0hPa | 2.5V | 18:12:15 | 02:44:58 | 00:00:00 | |
| AA1-15 | 2026-09-02 00:37:11 | 52.77601 | 10.77100 | 110° | 29km/h | 31627m | 5.5m/s | -39.1°C | 0% | 10hPa | 2.5V | 03:17:11 | 02:44:57 | 00:00:00 | |
| DB0DAN | 2026-09-02 00:37:10 | 52.77605 | 10.77089 | 121° | 29km/h | 31621m | 4.7m/s | -39.1°C | 0.2% | 9.98hPa | 2.5V | 00:00:00 | 00:00:00 | 00:00:00 | |
| DO2SHX-10 | 2026-09-02 00:37:10 | 52.77605 | 10.77088 | 121° | 27km/h | 31621m | 4.6m/s | -39.1°C | 1.8% | 9.9hPa | 2.6V | 00:00:00 | 02:44:56 | 00:00:00 | |
| DM0DOS-11 | 2026-09-02 00:37:08 | 52.77617 | 10.77067 | 151° | 16km/h | 31603m | 6m/s | -39.1°C | 1.8% | 10hPa | 2.6V | 03:17:12 | 02:44:53 | 00:00:00 | |
| DL1XH-west | 2026-09-02 00:37:07 | 52.77617 | 10.77067 | 152° | 16km/h | 31603m | 6m/s | -39.1°C | 0% | 10hPa | 2.6V | 03:18:02 | 02:44:53 | 00:00:00 | |
| DF8AY | 2026-09-02 00:37:05 | 52.77622 | 10.77065 | 186° | 5km/h | 31592m | 4.9m/s | -39.1°C | 0% | 10hPa | 2.5V | 03:18:02 | 02:44:51 | 00:00:00 | |
| DL1XH-15 | 2026-09-02 00:37:04 | 52.77622 | 10.77040 | 83° | 18km/h | 31557m | 6.3m/s | -39.3°C | 1.8% | 10.1hPa | 2.6V | 03:17:20 | 02:44:45 | 00:00:00 | |
| BIOWL1-15 | 2026-09-02 00:37:03 | 52.77623 | 10.77063 | 97° | 5km/h | 31581m | 6.3m/s | -39.2°C | 0% | 10.1hPa | 2.6V | 03:18:02 | 02:44:49 | 00:00:00 | |
| GOEST3-10 | 2026-09-02 00:37:03 | 52.77623 | 10.77063 | 97° | 13km/h | 31582m | 6.2m/s | -39.1°C | 1.8% | 10.0hPa | 2.5V | 00:00:00 | 00:00:00 | 00:00:00 | |
| DM0DOS-11 | 2026-09-02 00:37:02 | 52.77621 | 10.77025 | 94° | 16km/h | 31545m | 5.2m/s | -39.4°C | 1.8% | 10.1hPa | 2.5V | 03:17:22 | 02:44:43 | 00:00:00 | |
| HSKMA3-T | 2026-09-02 00:37:00 | 52.77622 | 10.77047 | 85° | 18km/h | 31563m | 5.3m/s | -39.3°C | 0% | 10.1hPa | 2.5V | 03:18:02 | 02:44:46 | 00:00:00 | |
| DL3AQ-11 | 2026-09-02 00:36:59 | 52.77621 | 10.77033 | 86° | 16km/h | 31551m | 6.4m/s | -39.3°C | 0.2% | 10.1hPa | 2.6V | 00:00:00 | 00:00:00 | 00:00:00 | |
| DO2SHX-10 | 2026-09-02 00:36:58 | 52.77621 | 10.77032 | 87° | 18km/h | 31551m | 6.3m/s | -39.3°C | 1.8% | 10.1hPa | 2.6V | 00:00:00 | 02:44:44 | 00:00:00 | |
| DL1XH1-15 | 2026-09-02 00:36:57 | 52.77632 | 10.76984 | 126° | 20km/h | 31516m | 4.8m/s | -39.3°C | 1.8% | 10.1hPa | 2.5V | 03:17:27 | 02:44:38 | 00:00:00 | |
| DL1XH-west | 2026-09-02 00:36:57 | 52.77622 | 10.77025 | 95° | 16km/h | 31545m | 5.2m/s | -39.4°C | 0% | 10.1hPa | 2.5V | 03:18:02 | 02:44:43 | 00:00:00 | |
| DF8AY | 2026-09-02 00:36:55 | 52.77623 | 10.77010 | 109° | 22km/h | 31534m | 6.5m/s | -39.3°C | 0% | 10.1hPa | 2.6V | 03:18:02 | 02:44:41 | 00:00:00 | |
| DB0DAN | 2026-09-02 00:36:55 | 52.77623 | 10.77010 | 108° | 20km/h | 31534m | 6.5m/s | -39.3°C | 0.2% | 10.12hPa | 2.6V | 00:00:00 | 00:00:00 | 00:00:00 | |
| DO2SHX-10 | 2026-09-02 00:36:55 | 52.77623 | 10.77010 | 109° | 24km/h | 31535m | 6.4m/s | -39.3°C | 1.8% | 10.1hPa | 2.6V | 03:17:00 | 02:44:41 | 00:00:00 | |
| DL1XH-15 | 2026-09-02 00:36:54 | 52.77640 | 10.76975 | 187° | 7km/h | 31498m | 5.7m/s | -39.4°C | 1.8% | 10.1hPa | 2.6V | 03:17:30 | 02:44:35 | 00:00:00 | |
| BIOWL1-15 | 2026-09-02 00:36:52 | 52.77642 | 10.76975 | 186° | 4km/h | 31493m | 4.5m/s | -39.4°C | 0% | 10.2hPa | 2.6V | 03:18:02 | 02:44:34 | 00:00:00 | |
| HSKMA3-T | 2026-09-02 00:36:50 | 52.77638 | 10.76975 | 161° | 11km/h | 31504m | 6.8m/s | -39.4°C | 0% | 10.2hPa | 2.6V | 03:18:02 | 02:44:36 | 00:00:00 | |
| DF8AY | 2026-09-02 00:36:46 | 52.77644 | 10.76965 | 95° | 18km/h | 31477m | 6.1m/s | -39.4°C | 0% | 10.2hPa | 2.5V | 03:18:02 | 02:44:31 | 00:00:00 | |
| DL1XH-west | 2026-09-02 00:36:46 | 52.77643 | 10.76971 | 95° | 11km/h | 31483m | 5.9m/s | -39.4°C | 0% | 10.2hPa | 2.5V | 03:18:02 | 02:44:32 | 00:00:00 | |
| DO2JMG | 2026-09-02 00:36:44 | 52.77644 | 10.76957 | 91° | 26km/h | 31471m | 5.8m/s | 0°C | 0% | 0hPa | 2.6V | 18:12:15 | 02:44:30 | 00:00:00 | |
| DL1XH-15 | 2026-09-02 00:36:44 | 52.77646 | 10.76906 | 106° | 16km/h | 31443m | 5.1m/s | -39.6°C | 1.8% | 10.3hPa | 2.5V | 03:17:40 | 02:44:25 | 00:00:00 | |
| DB0UT-7 | 2026-09-02 00:36:44 | 52.77644 | 10.76956 | 91° | 20km/h | 31471m | 5.7m/s | -39.4°C | 1.8% | 10.2hPa | 2.6V | 03:17:00 | 02:44:30 | 00:00:00 | |
| DL1XH1-15 | 2026-09-02 00:36:43 | 52.77644 | 10.76934 | 92° | 27km/h | 31460m | 5.6m/s | -39.5°C | 1.8% | 10.2hPa | 2.6V | 03:17:37 | 02:44:28 | 00:00:00 | |
| DO2SHX-10 | 2026-09-02 00:36:43 | 52.77644 | 10.76945 | 93° | 27km/h | 31466m | 4.8m/s | -39.4°C | 1.8% | 10.2hPa | 2.6V | 03:17:00 | 02:44:29 | 00:00:00 | |
| DM0DOS-11 | 2026-09-02 00:36:42 | 52.77653 | 10.76888 | 128° | 20km/h | 31425m | 6.6m/s | -39.7°C | 1.8% | 10.3hPa | 2.6V | 03:17:43 | 02:44:22 | 00:00:00 | |
| DL1NUX | 2026-09-02 00:36:42 | 52.77644 | 10.76923 | 91° | 24km/h | 31454m | 6m/s | -39.6°C | 1.8% | 10.2hPa | 2.5V | 03:17:38 | 02:44:27 | 00:00:00 | |
| BIOWL1-15 | 2026-09-02 00:36:42 | 52.77644 | 10.76934 | 92° | 27km/h | 31460m | 5.6m/s | -39.5°C | 0% | 10.2hPa | 2.6V | 03:18:02 | 02:44:28 | 00:00:00 | |
| HSKMA3-T | 2026-09-02 00:36:39 | 52.77646 | 10.76906 | 106° | 16km/h | 31443m | 5.1m/s | -39.7°C | 0% | 10.3hPa | 2.5V | 03:18:02 | 02:44:25 | 00:00:00 | |
| GOEST3-10 | 2026-09-02 00:36:38 | 52.77647 | 10.76900 | 118° | 20km/h | 31438m | 5.1m/s | -39.6°C | 1.8% | 10.2hPa | 2.6V | 00:00:00 | 02:44:24 | 00:00:00 | |
| DL1XH1-15 | 2026-09-02 00:36:37 | 52.77664 | 10.76861 | 99° | 15km/h | 31403m | 6.5m/s | -39.9°C | 1.8% | 10.3hPa | 2.6V | 03:17:47 | 02:44:18 | 00:00:00 | |
| DL1NUX | 2026-09-02 00:36:37 | 52.77663 | 10.76856 | 68° | 11km/h | 31397m | 6.8m/s | -39.9°C | 1.9% | 10.3hPa | 2.6V | 03:17:48 | 02:44:17 | 00:00:00 | |
| DL1XH-west | 2026-09-02 00:36:35 | 52.77656 | 10.76881 | 130° | 22km/h | 31420m | 5.6m/s | -39.8°C | 0% | 10.3hPa | 2.5V | 03:18:02 | 02:44:21 | 00:00:00 | |
| DF8AY | 2026-09-02 00:36:34 | 52.77660 | 10.76874 | 125° | 20km/h | 31414m | 5.2m/s | -39.9°C | 0% | 10.3hPa | 2.5V | 03:18:02 | 02:44:20 | 00:00:00 | |
| BIOWL1-15 | 2026-09-02 00:36:33 | 52.77664 | 10.76856 | 68° | 11km/h | 31397m | 6.8m/s | -39.9°C | 0% | 10.3hPa | 2.6V | 03:18:02 | 02:44:17 | 00:00:00 | |
| DL3AQ-11 | 2026-09-02 00:36:32 | 52.77664 | 10.76856 | 68° | 11km/h | 31397m | 6.8m/s | -39.9°C | 0.2% | 10.3hPa | 2.5V | 00:00:00 | 00:00:00 | 00:00:00 | |
| DM0DOS-11 | 2026-09-02 00:36:31 | 52.77656 | 10.76830 | 80° | 24km/h | 31375m | 7.1m/s | -40°C | 1.9% | 10.3hPa | 2.5V | 03:17:52 | 02:44:13 | 00:00:00 | |
| AA1-15 | 2026-09-02 00:36:29 | 52.77660 | 10.76846 | 58° | 18km/h | 31386m | 4.3m/s | -40°C | 0% | 10.3hPa | 2.5V | 03:18:02 | 02:44:15 | 00:00:00 | |
| DO2SHX-10 | 2026-09-02 00:36:28 | 52.77658 | 10.76839 | 68° | 24km/h | 31381m | 5.4m/s | -40.0°C | 1.9% | 10.3hPa | 2.5V | 00:00:00 | 02:44:14 | 00:00:00 | |
| DO3MHA-11 | 2026-09-02 00:36:27 | 52.77656 | 10.76830 | 81° | 22km/h | 31375m | 7.0m/s | -40.0°C | 1.9% | 10.3hPa | 2.5V | 00:00:00 | 02:44:13 | 00:00:00 | |
| DB0DAN | 2026-09-02 00:36:25 | 52.77656 | 10.76807 | 96° | 29km/h | 31361m | 5.6m/s | -40.2°C | 0.2% | 10.37hPa | 2.6V | 00:00:00 | 00:00:00 | 00:00:00 | |
| DL1XH-west | 2026-09-02 00:36:24 | 52.77657 | 10.76795 | 98° | 27km/h | 31356m | 5.2m/s | -40.2°C | 0% | 10.4hPa | 2.6V | 03:18:02 | 02:44:10 | 00:00:00 | |
| GOEST3-10 | 2026-09-02 00:36:23 | 52.77658 | 10.76785 | 102° | 18km/h | 31351m | 6.2m/s | -40.2°C | 1.9% | 10.3hPa | 2.5V | 00:00:00 | 00:00:00 | 00:00:00 | |
| DL1NUX | 2026-09-02 00:36:22 | 52.77660 | 10.76769 | 106° | 15km/h | 31339m | 5m/s | -40.2°C | 1.9% | 10.4hPa | 2.5V | 03:17:58 | 02:44:07 | 00:00:00 | |
| BIOWL1-15 | 2026-09-02 00:36:20 | 52.77661 | 10.76763 | 105° | 15km/h | 31334m | 5m/s | -40.3°C | 0% | 10.4hPa | 2.6V | 03:18:02 | 02:44:06 | 00:00:00 | |
| HSKMA3-T | 2026-09-02 00:36:18 | 52.77663 | 10.76749 | 96° | 20km/h | 31322m | 6.3m/s | -40.3°C | 0% | 10.4hPa | 2.5V | 03:18:02 | 02:44:04 | 00:00:00 | |
| DL1XH-west | 2026-09-02 00:36:13 | 52.77656 | 10.76704 | 57° | 22km/h | 31294m | 6.5m/s | -40.3°C | 0% | 10.5hPa | 2.5V | 03:18:53 | 02:43:59 | 00:00:00 | |
| DL1XH-15 | 2026-09-02 00:36:13 | 52.77650 | 10.76676 | 98° | 22km/h | 31273m | 5.4m/s | -40.3°C | 1.9% | 10.5hPa | 2.5V | 03:18:10 | 02:43:55 | 00:00:00 | |
| DO2SHX-10 | 2026-09-02 00:36:13 | 52.77656 | 10.76703 | 57° | 18km/h | 31294m | 6.4m/s | -40.2°C | 2.0% | 10.4hPa | 2.5V | 00:00:00 | 02:43:59 | 00:00:00 | |
| DL1NUX | 2026-09-02 00:36:12 | 52.77651 | 10.76691 | 59° | 16km/h | 31282m | 4.5m/s | -40.3°C | 1.9% | 10.5hPa | 2.6V | 03:18:08 | 02:43:57 | 00:00:00 | |
| DF8AY | 2026-09-02 00:36:11 | 52.77658 | 10.76642 | 116° | 35km/h | 31254m | 4.8m/s | -40.3°C | 0% | 10.6hPa | 2.6V | 03:18:53 | 02:43:52 | 00:00:00 | |
| BIOWL1-15 | 2026-09-02 00:36:10 | 52.77659 | 10.76608 | 2° | 18km/h | 31226m | 5.9m/s | -40.3°C | 0% | 10.6hPa | 2.6V | 03:18:53 | 02:43:47 | 00:00:00 | |
| HSKMA3-T | 2026-09-02 00:36:08 | 52.77651 | 10.76666 | 106° | 27km/h | 31267m | 7.3m/s | -40.3°C | 0% | 10.5hPa | 2.5V | 03:18:53 | 02:43:54 | 00:00:00 | |
| AA1-15 | 2026-09-02 00:36:07 | 52.77654 | 10.76655 | 115° | 33km/h | 31260m | 6.7m/s | -40.3°C | 0% | 10.5hPa | 2.6V | 03:18:53 | 02:43:53 | 00:00:00 | |
| DF8AY-15 | 2026-09-02 00:36:06 | 52.77658 | 10.76642 | 117° | 22km/h | 31254m | 4.8m/s | -40.2°C | 1.9% | 10.5hPa | 2.6V | 03:18:00 | 02:43:52 | 00:00:00 | |
| DD8BA-10 | 2026-09-02 00:36:05 | 52.77661 | 10.76630 | 115° | 24km/h | 31250m | 4.1m/s | -40.2°C | 1.9% | 10.5hPa | 2.5V | 00:00:00 | 00:00:00 | 00:00:00 | |
| DO2SHX-10 | 2026-09-02 00:36:04 | 52.77663 | 10.76620 | 108° | 15km/h | 31246m | 5.1m/s | -40.2°C | 1.9% | 10.5hPa | 2.5V | 00:00:00 | 02:43:50 | 00:00:00 | |
| DL1XH1-15 | 2026-09-02 00:36:03 | 52.77663 | 10.76609 | 27° | 13km/h | 31233m | 6.4m/s | -40.3°C | 1.9% | 10.6hPa | 2.5V | 03:18:17 | 02:43:48 | 00:00:00 | |
| DL1XH-west | 2026-09-02 00:36:03 | 52.77664 | 10.76613 | 86° | 13km/h | 31239m | 6.6m/s | -40.3°C | 0% | 10.5hPa | 2.5V | 03:18:53 | 02:43:49 | 00:00:00 | |
| AU51GT2 | 2026-09-02 00:36:00 | 52.77653 | 10.76607 | 0° | 24km/h | 31221m | 5.3m/s | -40.4°C | 0.2% | 10.6hPa | 2.5V | 00:00:00 | 00:00:00 | 00:00:00 | |
| S3001 | 2026-09-02 00:35:59 | 52.77641 | 10.76603 | 25° | 26km/h | 31210m | 5.5m/s | -40.4°C | 0.2% | 10.6hPa | 2.5V | 00:00:00 | 00:00:00 | 00:00:00 | |
| DM0DOS-11 | 2026-09-02 00:35:58 | 52.77636 | 10.76598 | 41° | 26km/h | 31204m | 5.2m/s | -40.4°C | 1.9% | 10.6hPa | 2.5V | 03:18:22 | 02:43:43 | 00:00:00 | |
| HSKMA3-T | 2026-09-02 00:35:58 | 52.77641 | 10.76603 | 25° | 26km/h | 31209m | 5.5m/s | -40.4°C | 0% | 10.6hPa | 2.5V | 03:18:53 | 02:43:44 | 00:00:00 | |
| DF8AY | 2026-09-02 00:35:58 | 52.77636 | 10.76598 | 41° | 26km/h | 31204m | 5.2m/s | -40.4°C | 0% | 10.6hPa | 2.5V | 03:18:53 | 02:43:43 | 00:00:00 | |
| HTAHTA | 2026-09-02 00:35:57 | 52.77636 | 10.76598 | 41° | 24km/h | 31204m | 5.2m/s | -40.4°C | 0.2% | 10.6hPa | 2.6V | 00:00:00 | 00:00:00 | 00:00:00 | |
| SONDE2-11 | 2026-09-02 00:35:56 | 52.77631 | 10.76581 | 89° | 22km/h | 31194m | 5.5m/s | -40.4°C | 0.2% | 10.6hPa | 2.6V | 00:00:00 | 00:00:00 | 00:00:00 | |
| AA1-15 | 2026-09-02 00:35:56 | 52.77632 | 10.76590 | 66° | 24km/h | 31199m | 4.9m/s | -40.4°C | 0% | 10.6hPa | 2.5V | 03:18:53 | 02:43:42 | 00:00:00 | |
| DB0DAN | 2026-09-02 00:35:55 | 52.77631 | 10.76581 | 89° | 22km/h | 31194m | 5.5m/s | -40.4°C | 0.2% | 10.63hPa | 2.6V | 00:00:00 | 00:00:00 | 00:00:00 | |
| DL1XH-west | 2026-09-02 00:35:53 | 52.77640 | 10.76559 | 152° | 24km/h | 31174m | 6m/s | -40.5°C | 0% | 10.7hPa | 2.5V | 03:18:53 | 02:43:38 | 00:00:00 | |
| DL1NUX | 2026-09-02 00:35:52 | 52.77645 | 10.76555 | 158° | 22km/h | 31169m | 4.7m/s | -40.6°C | 1.9% | 10.7hPa | 2.5V | 03:18:28 | 02:43:37 | 00:00:00 | |
| BIOWL1-15 | 2026-09-02 00:35:51 | 52.77645 | 10.76555 | 158° | 22km/h | 31169m | 4.7m/s | -40.6°C | 0% | 10.7hPa | 2.5V | 03:18:53 | 02:43:37 | 00:00:00 | |
| DL4BBY-15 | 2026-09-02 00:35:51 | 52.77645 | 10.76555 | 159° | 22km/h | 31169m | 4.6m/s | -40.2°C | 0% | 0hPa | 2.6V | 00:00:00 | 00:00:00 | 00:00:00 | |
| DL1XH-15 | 2026-09-02 00:35:50 | 52.77655 | 10.76548 | 145° | 18km/h | 31159m | 5.4m/s | -40.6°C | 1.9% | 10.7hPa | 2.6V | 03:18:30 | 02:43:35 | 00:00:00 | |
| DF8AY | 2026-09-02 00:35:47 | 52.77648 | 10.76507 | 33° | 20km/h | 31123m | 6.6m/s | -40.7°C | 0% | 10.7hPa | 2.6V | 03:18:53 | 02:43:29 | 00:00:00 | |
| HSKMA3-T | 2026-09-02 00:35:47 | 52.77659 | 10.76536 | 93° | 18km/h | 31147m | 6.4m/s | -40.7°C | 0% | 10.7hPa | 2.6V | 03:18:53 | 02:43:33 | 00:00:00 | |
| AA1-15 | 2026-09-02 00:35:45 | 52.77656 | 10.76520 | 56° | 24km/h | 31134m | 5.7m/s | -40.7°C | 0% | 10.7hPa | 2.5V | 03:18:53 | 02:43:31 | 00:00:00 | |
| SMARD9-15 | 2026-09-02 00:35:44 | 52.77652 | 10.76513 | 42° | 22km/h | 31129m | 6.0m/s | -40.7°C | 0.2% | 10.7hPa | 2.6V | 00:00:00 | 00:00:00 | 00:00:00 | |
| DL1XH-west | 2026-09-02 00:35:42 | 52.77644 | 10.76503 | 30° | 16km/h | 31117m | 5.2m/s | -40.7°C | 0% | 10.8hPa | 2.6V | 03:18:53 | 02:43:28 | 00:00:00 | |
| BIOWL1-15 | 2026-09-02 00:35:40 | 52.77640 | 10.76495 | 91° | 11km/h | 31108m | 5m/s | -40.8°C | 0% | 10.8hPa | 2.5V | 03:18:53 | 02:43:26 | 00:00:00 | |
| DB0DAN | 2026-09-02 00:35:40 | 52.77640 | 10.76495 | 91° | 11km/h | 31108m | 5m/s | -40.8°C | 0.2% | 10.75hPa | 2.5V | 00:00:00 | 00:00:00 | 00:00:00 | |
| DO2SHX-10 | 2026-09-02 00:35:40 | 52.77640 | 10.76495 | 92° | 18km/h | 31108m | 4.9m/s | -40.8°C | 1.9% | 10.7hPa | 2.5V | 00:00:00 | 02:43:26 | 00:00:00 | |
| DM0DOS-11 | 2026-09-02 00:35:38 | 52.77647 | 10.76471 | 123° | 33km/h | 31088m | 5.7m/s | -41°C | 2% | 10.8hPa | 2.5V | 03:18:42 | 02:43:23 | 00:00:00 | |
| DF8AY | 2026-09-02 00:35:37 | 52.77647 | 10.76471 | 124° | 33km/h | 31088m | 5.7m/s | -41°C | 0% | 10.8hPa | 2.5V | 03:18:53 | 02:43:23 | 00:00:00 | |
| DL1XH1-15 | 2026-09-02 00:35:37 | 52.77661 | 10.76430 | 52° | 11km/h | 31061m | 5.7m/s | -41.1°C | 2% | 10.8hPa | 2.5V | 03:18:47 | 02:43:18 | 00:00:00 | |
| HSKMA3-T | 2026-09-02 00:35:36 | 52.77652 | 10.76460 | 126° | 33km/h | 31083m | 4.8m/s | -41°C | 0% | 10.8hPa | 2.5V | 03:18:53 | 02:43:22 | 00:00:00 | |
| AA1-15 | 2026-09-02 00:35:34 | 52.77660 | 10.76441 | 121° | 22km/h | 31073m | 6.1m/s | -41.1°C | 0% | 10.8hPa | 2.6V | 03:18:53 | 02:43:20 | 00:00:00 | |
| DL1XH-west | 2026-09-02 00:35:31 | 52.77659 | 10.76426 | 31° | 16km/h | 31055m | 6m/s | -41.2°C | 0% | 10.9hPa | 2.5V | 03:18:53 | 02:43:17 | 00:00:00 | |
| BIOWL1-15 | 2026-09-02 00:35:31 | 52.77650 | 10.76417 | 36° | 26km/h | 31042m | 6.4m/s | -41.3°C | 0% | 10.9hPa | 2.6V | 03:18:53 | 02:43:15 | 00:00:00 | |
| DO2SHX-10 | 2026-09-02 00:35:31 | 52.77659 | 10.76426 | 32° | 22km/h | 31055m | 6.0m/s | -41.2°C | 2.0% | 10.8hPa | 2.6V | 03:18:00 | 02:43:17 | 00:00:00 | |
| DL1XH-15 | 2026-09-02 00:35:30 | 52.77650 | 10.76417 | 35° | 26km/h | 31042m | 6.4m/s | -41.3°C | 2% | 10.9hPa | 2.6V | 03:18:50 | 02:43:15 | 00:00:00 | |
| AU51GT2 | 2026-09-02 00:35:29 | 52.77650 | 10.76417 | 35° | 24km/h | 31042m | 6.4m/s | -41.3°C | 0.3% | 10.9hPa | 2.5V | 00:00:00 | 00:00:00 | 00:00:00 | |
| DM0DOS-11 | 2026-09-02 00:35:28 | 52.77641 | 10.76400 | 63° | 27km/h | 31031m | 5.1m/s | -41.3°C | 2% | 10.9hPa | 2.5V | 03:18:52 | 02:43:13 | 00:00:00 | |
| DF8AY | 2026-09-02 00:35:26 | 52.77639 | 10.76379 | 99° | 26km/h | 31020m | 5.6m/s | -41.4°C | 0% | 10.9hPa | 2.5V | 03:19:44 | 02:43:11 | 00:00:00 | |
| HSKMA3-T | 2026-09-02 00:35:26 | 52.77639 | 10.76390 | 81° | 26km/h | 31026m | 5.1m/s | -41.4°C | 0% | 10.9hPa | 2.5V | 03:18:53 | 02:43:12 | 00:00:00 | |
| DB0DAN | 2026-09-02 00:35:25 | 52.77639 | 10.76379 | 99° | 24km/h | 31020m | 5.6m/s | -41.4°C | 0.2% | 10.91hPa | 2.5V | 00:00:00 | 00:00:00 | 00:00:00 | |
| AA1-15 | 2026-09-02 00:35:23 | 52.77644 | 10.76361 | 133° | 24km/h | 31007m | 6.5m/s | -41.4°C | 0% | 10.9hPa | 2.6V | 03:19:44 | 02:43:09 | 00:00:00 | |
| DL1XH1-15 | 2026-09-02 00:35:23 | 52.77648 | 10.76354 | 141° | 24km/h | 31001m | 5.8m/s | -41.4°C | 2% | 10.9hPa | 2.6V | 03:18:57 | 02:43:08 | 00:00:00 | |
| DL1XH-west | 2026-09-02 00:35:21 | 52.77658 | 10.76342 | 134° | 24km/h | 30991m | 4.7m/s | -41.4°C | 0% | 10.9hPa | 2.5V | 03:19:44 | 02:43:06 | 00:00:00 | |
| DF7ER-10 | 2026-09-02 00:35:20 | 52.77653 | 10.76348 | 144° | 24km/h | 30996m | 4.6m/s | -41.4°C | 0.3% | 10.9hPa | 2.5V | 03:19:00 | 00:00:00 | 00:00:00 | |
| DO2SHX-10 | 2026-09-02 00:35:19 | 52.77661 | 10.76334 | 121° | 26km/h | 30986m | 6.1m/s | -41.4°C | 2.0% | 10.9hPa | 2.5V | 03:19:00 | 02:43:05 | 00:00:00 | |
| DJ8HS-15 | 2026-09-02 00:35:18 | 52.77664 | 10.76324 | 105° | 22km/h | 30980m | 6.4m/s | -41.4°C | 2.0% | 10.9hPa | 2.6V | 00:00:00 | 02:43:04 | 00:00:00 | |
| DL1XH1-15 | 2026-09-02 00:35:17 | 52.77656 | 10.76278 | 77° | 13km/h | 30944m | 4.7m/s | -41.8°C | 2.1% | 11hPa | 2.6V | 03:19:07 | 02:42:58 | 00:00:00 | |
| HSKMA3-T | 2026-09-02 00:35:15 | 52.77662 | 10.76295 | 64° | 22km/h | 30962m | 6.3m/s | -41.6°C | 0% | 11hPa | 2.5V | 03:19:44 | 02:43:01 | 00:00:00 | |
| DF8AY | 2026-09-02 00:35:15 | 52.77659 | 10.76288 | 58° | 16km/h | 30955m | 6.5m/s | -41.6°C | 0% | 11hPa | 2.5V | 03:19:44 | 02:43:00 | 00:00:00 | |
| DL1XH-15 | 2026-09-02 00:35:14 | 52.77660 | 10.76256 | 116° | 29km/h | 30925m | 6.3m/s | -42°C | 2.1% | 11.1hPa | 2.5V | 03:19:10 | 02:42:55 | 00:00:00 | |
| AA1-15 | 2026-09-02 00:35:13 | 52.77656 | 10.76278 | 77° | 13km/h | 30944m | 4.7m/s | -41.8°C | 0% | 11hPa | 2.6V | 03:19:44 | 02:42:58 | 00:00:00 | |
| DM0DOS-11 | 2026-09-02 00:35:12 | 52.77669 | 10.76233 | 127° | 35km/h | 30915m | 4.7m/s | -42.1°C | 2.1% | 11.1hPa | 2.6V | 03:19:12 | 02:42:53 | 00:00:00 | |
| DL1NUX | 2026-09-02 00:35:12 | 52.77656 | 10.76272 | 99° | 16km/h | 30938m | 5.9m/s | -41.9°C | 2% | 11.1hPa | 2.6V | 03:19:08 | 02:42:57 | 00:00:00 | |
| DB0DAN | 2026-09-02 00:35:10 | 52.77657 | 10.76265 | 110° | 20km/h | 30932m | 6.8m/s | -42°C | 0.3% | 11.07hPa | 2.5V | 00:00:00 | 00:00:00 | 00:00:00 | |
| DL1XH-west | 2026-09-02 00:35:09 | 52.77660 | 10.76255 | 117° | 29km/h | 30925m | 6.4m/s | -42.1°C | 0% | 11.1hPa | 2.5V | 03:19:44 | 02:42:55 | 00:00:00 | |
| GOEST3-10 | 2026-09-02 00:35:08 | 52.77664 | 10.76244 | 123° | 27km/h | 30920m | 5.0m/s | -42.0°C | 2.1% | 11.0hPa | 2.6V | 00:00:00 | 02:42:54 | 00:00:00 | |
| DO2SHX-10 | 2026-09-02 00:35:07 | 52.77669 | 10.76233 | 128° | 29km/h | 30915m | 4.6m/s | -42.0°C | 2.1% | 11.0hPa | 2.5V | 03:19:00 | 02:42:53 | 00:00:00 | |
| DL1NUX | 2026-09-02 00:35:06 | 52.77680 | 10.76192 | 48° | 20km/h | 30879m | 6.4m/s | -42.2°C | 2.1% | 11.1hPa | 2.5V | 03:19:18 | 02:42:47 | 00:00:00 | |
| HSKMA3-T | 2026-09-02 00:35:05 | 52.77679 | 10.76214 | 133° | 24km/h | 30904m | 6.5m/s | -42.1°C | 0% | 11.1hPa | 2.5V | 03:19:44 | 02:42:51 | 00:00:00 | |
| DF8AY | 2026-09-02 00:35:04 | 52.77683 | 10.76203 | 93° | 11km/h | 30891m | 5.7m/s | -42.2°C | 0% | 11.1hPa | 2.6V | 03:19:44 | 02:42:49 | 00:00:00 | |
| DL1XH-15 | 2026-09-02 00:35:04 | 52.77671 | 10.76176 | 55° | 29km/h | 30867m | 5.2m/s | -42.1°C | 2.1% | 11.2hPa | 2.6V | 03:19:20 | 02:42:45 | 00:00:00 | |
| DO2SHX-10 | 2026-09-02 00:35:04 | 52.77682 | 10.76208 | 127° | 15km/h | 30898m | 5.9m/s | -42.1°C | 2.1% | 11.1hPa | 2.5V | 00:00:00 | 02:42:50 | 00:00:00 | |
| DL1XH1-15 | 2026-09-02 00:35:03 | 52.77682 | 10.76198 | 59° | 15km/h | 30885m | 6.2m/s | -42.2°C | 2.1% | 11.1hPa | 2.5V | 03:19:17 | 02:42:48 | 00:00:00 | |
| GOEST3-10 | 2026-09-02 00:35:03 | 52.77683 | 10.76203 | 93° | 20km/h | 30892m | 5.7m/s | -42.1°C | 2.1% | 11.0hPa | 2.6V | 00:00:00 | 00:00:00 | 00:00:00 | |
| DM0DOS-11 | 2026-09-02 00:35:02 | 52.77665 | 10.76155 | 69° | 26km/h | 30856m | 6m/s | -42.1°C | 2.1% | 11.2hPa | 2.6V | 03:19:22 | 02:42:43 | 00:00:00 | |
| AA1-15 | 2026-09-02 00:35:01 | 52.77680 | 10.76192 | 49° | 20km/h | 30879m | 6.4m/s | -42.2°C | 0% | 11.1hPa | 2.5V | 03:19:44 | 02:42:47 | 00:00:00 | |
| DL1XH-west | 2026-09-02 00:34:58 | 52.77668 | 10.76165 | 62° | 29km/h | 30862m | 5.2m/s | -42.1°C | 0% | 11.2hPa | 2.6V | 03:19:44 | 02:42:44 | 00:00:00 | |
| AU51GT2 | 2026-09-02 00:34:58 | 52.77665 | 10.76155 | 69° | 24km/h | 30856m | 6.0m/s | -42.1°C | 0.2% | 11.2hPa | 2.5V | 00:00:00 | 00:00:00 | 00:00:00 | |
| SONCRA | 2026-09-02 00:34:57 | 52.77663 | 10.76146 | 79° | 22km/h | 30850m | 6.6m/s | -42.1°C | 0.3% | 11.2hPa | 2.5V | 00:00:00 | 00:00:00 | 00:00:00 | |
| BIOWL9-15 | 2026-09-02 00:34:56 | 52.77663 | 10.76137 | 92° | 18km/h | 30843m | 5.6m/s | -42.1°C | 0.3% | 11.2hPa | 2.5V | 00:00:00 | 00:00:00 | 00:00:00 | |
| DB0DAN | 2026-09-02 00:34:55 | 52.77663 | 10.76137 | 92° | 18km/h | 30843m | 5.6m/s | -42.1°C | 0.3% | 11.21hPa | 2.5V | 00:00:00 | 00:00:00 | 00:00:00 | |
| DF8AY | 2026-09-02 00:34:54 | 52.77664 | 10.76116 | 92° | 20km/h | 30828m | 5.1m/s | -42.1°C | 0% | 11.2hPa | 2.6V | 03:19:44 | 02:42:38 | 00:00:00 | |
| HSKMA3-T | 2026-09-02 00:34:54 | 52.77663 | 10.76130 | 101° | 16km/h | 30838m | 5.2m/s | -42.1°C | 0% | 11.2hPa | 2.5V | 03:19:44 | 02:42:40 | 00:00:00 | |
| SONDE2-11 | 2026-09-02 00:34:54 | 52.77664 | 10.76123 | 100° | 15km/h | 30833m | 4.7m/s | -42.1°C | 0.3% | 11.2hPa | 2.6V | 00:00:00 | 00:00:00 | 00:00:00 | |
| GOEST3-10 | 2026-09-02 00:34:53 | 52.77664 | 10.76123 | 101° | 24km/h | 30833m | 4.6m/s | -42.0°C | 2.1% | 11.2hPa | 2.6V | 03:19:00 | 00:00:00 | 00:00:00 | |
| DM0DOS-11 | 2026-09-02 00:34:52 | 52.77649 | 10.76065 | 44° | 29km/h | 30799m | 6.4m/s | -42.1°C | 2.1% | 11.3hPa | 2.6V | 03:19:32 | 02:42:33 | 00:00:00 | |
| DL1NUX | 2026-09-02 00:34:52 | 52.77664 | 10.76107 | 79° | 24km/h | 30822m | 6.4m/s | -42.1°C | 2.1% | 11.2hPa | 2.6V | 03:19:28 | 02:42:37 | 00:00:00 | |
| BIOWL1-15 | 2026-09-02 00:34:51 | 52.77654 | 10.76074 | 52° | 31km/h | 30805m | 4.9m/s | -42.1°C | 0% | 11.2hPa | 2.5V | 03:19:44 | 02:42:34 | 00:00:00 | |
| AA1-15 | 2026-09-02 00:34:51 | 52.77662 | 10.76097 | 70° | 29km/h | 30816m | 6.5m/s | -42.1°C | 0% | 11.2hPa | 2.5V | 03:19:44 | 02:42:36 | 00:00:00 | |
| DO2JMG | 2026-09-02 00:34:49 | 52.77659 | 10.76085 | 60° | 33km/h | 30810m | 5.4m/s | 0°C | 0% | 0hPa | 2.5V | 18:12:15 | 02:42:35 | 00:00:00 | |
| DL1XH-west | 2026-09-02 00:34:47 | 52.77649 | 10.76065 | 44° | 29km/h | 30799m | 6.4m/s | -42.1°C | 0% | 11.3hPa | 2.6V | 03:19:44 | 02:42:33 | 00:00:00 | |
| HSKMA3-T | 2026-09-02 00:34:44 | 52.77634 | 10.76050 | 17° | 18km/h | 30780m | 5.5m/s | -42.1°C | 0% | 11.3hPa | 2.5V | 03:19:44 | 02:42:30 | 00:00:00 | |
| DB0UT-7 | 2026-09-02 00:34:44 | 52.77634 | 10.76050 | 18° | 18km/h | 30780m | 5.5m/s | -42.0°C | 2.1% | 11.3hPa | 2.5V | 03:19:00 | 02:42:30 | 00:00:00 | |
| DL1XH1-15 | 2026-09-02 00:34:43 | 52.77625 | 10.76045 | 28° | 18km/h | 30768m | 6.8m/s | -42.1°C | 2.1% | 11.3hPa | 2.5V | 03:19:37 | 02:42:28 | 00:00:00 | |
| DO2SHX-10 | 2026-09-02 00:34:43 | 52.77629 | 10.76048 | 19° | 18km/h | 30774m | 5.5m/s | -42.1°C | 2.1% | 11.3hPa | 2.5V | 03:19:00 | 02:42:29 | 00:00:00 | |
| DM0DOS-11 | 2026-09-02 00:34:42 | 52.77612 | 10.76016 | 67° | 15km/h | 30737m | 5.9m/s | -42.1°C | 2.1% | 11.4hPa | 2.6V | 03:19:42 | 02:42:23 | 00:00:00 | |
| SMARD9-10 | 2026-09-02 00:34:41 | 52.77625 | 10.76045 | 30° | 18km/h | 30768m | 6.8m/s | -42.1°C | 0.3% | 11.3hPa | 2.6V | 00:00:00 | 00:00:00 | 00:00:00 | |
| DB0DAN | 2026-09-02 00:34:40 | 52.77618 | 10.76035 | 50° | 18km/h | 30755m | 5.7m/s | -42.1°C | 0.3% | 11.34hPa | 2.6V | 00:00:00 | 00:00:00 | 00:00:00 | |
| AA1-15 | 2026-09-02 00:34:39 | 52.77616 | 10.76028 | 61° | 18km/h | 30750m | 6m/s | -42.1°C | 0% | 11.3hPa | 2.5V | 03:19:44 | 02:42:25 | 00:00:00 | |
| BIOWL1-15 | 2026-09-02 00:34:37 | 52.77610 | 10.76010 | 59° | 16km/h | 30731m | 5.1m/s | -42.1°C | 0% | 11.4hPa | 2.6V | 03:19:44 | 02:42:22 | 00:00:00 | |
| DL1XH-west | 2026-09-02 00:34:37 | 52.77612 | 10.76016 | 68° | 15km/h | 30737m | 5.9m/s | -42.1°C | 0% | 11.4hPa | 2.6V | 03:19:44 | 02:42:23 | 00:00:00 | |
| DO2SHX-10 | 2026-09-02 00:34:37 | 52.77612 | 10.76016 | 68° | 16km/h | 30737m | 5.9m/s | -42.1°C | 2.1% | 11.3hPa | 2.5V | 00:00:00 | 02:42:23 | 00:00:00 | |
| DL1NUX | 2026-09-02 00:34:36 | 52.77586 | 10.75974 | 28° | 33km/h | 30702m | 3.5m/s | -42°C | 2% | 11.4hPa | 2.5V | 03:19:48 | 02:42:17 | 00:00:00 | |
| DD8BA-10 | 2026-09-02 00:34:35 | 52.77608 | 10.76004 | 55° | 24km/h | 30726m | 5.3m/s | -42.0°C | 2.1% | 11.3hPa | 2.5V | 00:00:00 | 00:00:00 | 00:00:00 | |
| DL1XH-15 | 2026-09-02 00:34:34 | 52.77574 | 10.75966 | 8° | 22km/h | 30692m | 6.5m/s | -42.1°C | 2.1% | 11.4hPa | 2.5V | 03:19:50 | 02:42:15 | 00:00:00 | |
| HSKMA3-T | 2026-09-02 00:34:33 | 52.77600 | 10.75990 | 40° | 31km/h | 30713m | 7m/s | -42°C | 0% | 11.4hPa | 2.6V | 03:20:35 | 02:42:19 | 00:00:00 | |
| GOEST3-10 | 2026-09-02 00:34:33 | 52.77599 | 10.75990 | 41° | 29km/h | 30713m | 6.9m/s | -42.0°C | 2.0% | 11.4hPa | 2.6V | 03:19:00 | 00:00:00 | 00:00:00 | |
| DL3AQ-11 | 2026-09-02 00:34:32 | 52.77586 | 10.75974 | 28° | 31km/h | 30702m | 3.5m/s | -42.0°C | 0.2% | 11.4hPa | 2.6V | 00:00:00 | 00:00:00 | 00:00:00 | |
| DM0DOS-11 | 2026-09-02 00:34:31 | 52.77566 | 10.75969 | 312° | 13km/h | 30678m | 6.7m/s | -42.2°C | 2.1% | 11.5hPa | 2.6V | 03:19:52 | 02:42:13 | 00:00:00 | |
| AA1-15 | 2026-09-02 00:34:29 | 52.77574 | 10.75966 | 8° | 22km/h | 30692m | 6.5m/s | -42.1°C | 0% | 11.4hPa | 2.5V | 03:20:35 | 02:42:15 | 00:00:00 | |
| DF8AY | 2026-09-02 00:34:28 | 52.77561 | 10.75979 | 339° | 7km/h | 30661m | 6.3m/s | -42.3°C | 0% | 11.5hPa | 2.5V | 03:20:35 | 02:42:10 | 00:00:00 | |
| DL1XH-west | 2026-09-02 00:34:27 | 52.77566 | 10.75969 | 313° | 13km/h | 30678m | 6.7m/s | -42.2°C | 0% | 11.5hPa | 2.6V | 03:20:35 | 02:42:13 | 00:00:00 | |
| DL4XJ-10 | 2026-09-02 00:34:27 | 52.77566 | 10.75969 | 313° | 16km/h | 30679m | 6.7m/s | -41.8°C | 0% | 0hPa | 2.5V | 00:00:00 | 00:00:00 | 00:00:00 | |
| DF7ER-10 | 2026-09-02 00:34:26 | 52.77566 | 10.75969 | 314° | 13km/h | 30678m | 6.7m/s | -42.2°C | 0.3% | 11.5hPa | 2.5V | 03:20:00 | 00:00:00 | 00:00:00 | |
| DB0DAN | 2026-09-02 00:34:25 | 52.77562 | 10.75977 | 302° | 9km/h | 30667m | 4.8m/s | -42.2°C | 0.3% | 11.51hPa | 2.5V | 00:00:00 | 00:00:00 | 00:00:00 | |
| BIOWL1-15 | 2026-09-02 00:34:25 | 52.77562 | 10.75977 | 302° | 9km/h | 30667m | 4.8m/s | -42.2°C | 0% | 11.5hPa | 2.5V | 03:20:35 | 02:42:11 | 00:00:00 | |
| BIOWL9-15 | 2026-09-02 00:34:25 | 52.77561 | 10.75979 | 339° | 5km/h | 30662m | 6.3m/s | -42.3°C | 0.2% | 11.5hPa | 2.5V | 00:00:00 | 00:00:00 | 00:00:00 | |
| HTAHTA | 2026-09-02 00:34:24 | 52.77561 | 10.75979 | 339° | 5km/h | 30662m | 6.3m/s | -42.3°C | 0.2% | 11.5hPa | 2.5V | 00:00:00 | 00:00:00 | 00:00:00 | |
| DL1XH-15 | 2026-09-02 00:34:23 | 52.77544 | 10.75958 | 40° | 20km/h | 30630m | 6.2m/s | -42.5°C | 2.1% | 11.6hPa | 2.5V | 03:20:00 | 02:42:05 | 00:00:00 | |
| HSKMA3-T | 2026-09-02 00:34:23 | 52.77559 | 10.75979 | 24° | 11km/h | 30655m | 6.1m/s | -42.3°C | 0% | 11.5hPa | 2.5V | 03:20:35 | 02:42:09 | 00:00:00 | |
| GOEST3-10 | 2026-09-02 00:34:23 | 52.77559 | 10.75979 | 25° | 18km/h | 30656m | 6.0m/s | -42.3°C | 2.1% | 11.5hPa | 2.5V | 00:00:00 | 00:00:00 | 00:00:00 | |
| DL1NUX | 2026-09-02 00:34:22 | 52.77552 | 10.75970 | 44° | 20km/h | 30643m | 5.7m/s | -42.4°C | 2.1% | 11.6hPa | 2.6V | 03:19:58 | 02:42:07 | 00:00:00 | |
| AA1-15 | 2026-09-02 00:34:19 | 52.77540 | 10.75953 | 32° | 18km/h | 30624m | 5.5m/s | -42.5°C | 0% | 11.5hPa | 2.5V | 03:20:35 | 02:42:04 | 00:00:00 | |
| DL1XH-west | 2026-09-02 00:34:16 | 52.77532 | 10.75947 | 14° | 15km/h | 30613m | 5.7m/s | -42.6°C | 0% | 11.6hPa | 2.6V | 03:20:35 | 02:42:02 | 00:00:00 | |
| BIOWL1-15 | 2026-09-02 00:34:15 | 52.77523 | 10.75945 | 0° | 20km/h | 30601m | 6.2m/s | -42.6°C | 0% | 11.6hPa | 2.6V | 03:20:35 | 02:42:00 | 00:00:00 | |
| DF8AY | 2026-09-02 00:34:14 | 52.77510 | 10.75976 | 250° | 16km/h | 30566m | 4.8m/s | -42.8°C | 0% | 11.7hPa | 2.5V | 03:20:35 | 02:41:54 | 00:00:00 | |
| HSKMA3-T | 2026-09-02 00:34:12 | 52.77514 | 10.75949 | 327° | 16km/h | 30591m | 4.6m/s | -42.7°C | 0% | 11.6hPa | 2.5V | 03:20:35 | 02:41:58 | 00:00:00 | |
| DL1XH-15 | 2026-09-02 00:34:11 | 52.77509 | 10.75968 | 264° | 20km/h | 30572m | 6.5m/s | -42.7°C | 2.1% | 11.7hPa | 2.6V | 03:20:10 | 02:41:55 | 00:00:00 | |
| AA1-15 | 2026-09-02 00:34:07 | 52.77511 | 10.75981 | 244° | 11km/h | 30561m | 4.8m/s | -42.8°C | 0% | 11.7hPa | 2.5V | 03:20:35 | 02:41:53 | 00:00:00 | |
| DL1XH-west | 2026-09-02 00:34:06 | 52.77512 | 10.75983 | 219° | 4km/h | 30556m | 6.6m/s | -42.9°C | 0% | 11.7hPa | 2.6V | 03:20:35 | 02:41:52 | 00:00:00 | |
| BIOWL1-15 | 2026-09-02 00:34:05 | 52.77502 | 10.75955 | 337° | 9km/h | 30514m | 5.8m/s | -43.3°C | 0% | 11.8hPa | 2.6V | 03:20:35 | 02:41:45 | 00:00:00 | |
| DD8BA-10 | 2026-09-02 00:34:05 | 52.77512 | 10.75982 | 66° | 15km/h | 30549m | 6.9m/s | -42.9°C | 2.1% | 11.6hPa | 2.6V | 00:00:00 | 00:00:00 | 00:00:00 | |
| DL1XH-15 | 2026-09-02 00:34:04 | 52.77502 | 10.75955 | 336° | 9km/h | 30514m | 5.8m/s | -43.3°C | 2.2% | 11.8hPa | 2.6V | 03:20:20 | 02:41:45 | 00:00:00 | |
| DF8AY | 2026-09-02 00:34:02 | 52.77507 | 10.75965 | 65° | 18km/h | 30532m | 5.4m/s | -43.1°C | 0% | 11.7hPa | 2.5V | 03:20:35 | 02:41:48 | 00:00:00 | |
| DL1NUX | 2026-09-02 00:34:02 | 52.77505 | 10.75959 | 57° | 15km/h | 30526m | 6.2m/s | -43.2°C | 2.2% | 11.8hPa | 2.6V | 03:20:18 | 02:41:47 | 00:00:00 | |
| HSKMA3-T | 2026-09-02 00:34:01 | 52.77506 | 10.75959 | 57° | 15km/h | 30526m | 6.2m/s | -43.2°C | 0% | 11.8hPa | 2.6V | 03:20:35 | 02:41:47 | 00:00:00 | |
| AA1-15 | 2026-09-02 00:33:57 | 52.77494 | 10.75967 | 316° | 18km/h | 30496m | 6.9m/s | -43.5°C | 0% | 11.8hPa | 2.5V | 03:20:35 | 02:41:42 | 00:00:00 | |
| DL1XH1-15 | 2026-09-02 00:33:57 | 52.77483 | 10.75976 | 38° | 4km/h | 30473m | 5.5m/s | -43.6°C | 2.2% | 11.8hPa | 2.5V | 03:20:27 | 02:41:38 | 00:00:00 | |
| DL1XH-west | 2026-09-02 00:33:55 | 52.77491 | 10.75972 | 322° | 16km/h | 30489m | 5.9m/s | -43.5°C | 0% | 11.8hPa | 2.6V | 03:20:35 | 02:41:41 | 00:00:00 | |
| DB0DAN | 2026-09-02 00:33:55 | 52.77491 | 10.75972 | 322° | 16km/h | 30489m | 5.9m/s | -43.5°C | 0.3% | 11.81hPa | 2.6V | 00:00:00 | 00:00:00 | 00:00:00 | |
| SONCRA | 2026-09-02 00:33:55 | 52.77487 | 10.75975 | 337° | 13km/h | 30484m | 5.4m/s | -43.6°C | 0.3% | 11.8hPa | 2.6V | 00:00:00 | 00:00:00 | 00:00:00 | |
| BIOWL9-15 | 2026-09-02 00:33:54 | 52.77485 | 10.75976 | 346° | 9km/h | 30479m | 5.2m/s | -43.6°C | 0.3% | 11.8hPa | 2.6V | 00:00:00 | 00:00:00 | 00:00:00 | |
| GOEST3-10 | 2026-09-02 00:33:53 | 52.77484 | 10.75976 | 347° | 9km/h | 30479m | 5.1m/s | -43.5°C | 2.3% | 11.8hPa | 2.6V | 03:20:00 | 00:00:00 | 00:00:00 | |
| DL1NUX | 2026-09-02 00:33:52 | 52.77483 | 10.75975 | 102° | 5km/h | 30466m | 7.2m/s | -43.6°C | 2.2% | 11.8hPa | 2.5V | 03:20:28 | 02:41:37 | 00:00:00 | |
| HSKMA3-T | 2026-09-02 00:33:51 | 52.77483 | 10.75975 | 103° | 5km/h | 30466m | 7.2m/s | -43.6°C | 0% | 11.8hPa | 2.5V | 03:20:35 | 02:41:37 | 00:00:00 | |
| BIOWL1-15 | 2026-09-02 00:33:51 | 52.77484 | 10.75972 | 127° | 13km/h | 30460m | 6.6m/s | -43.7°C | 0% | 11.8hPa | 2.5V | 03:20:35 | 02:41:36 | 00:00:00 | |
| DL1XH-15 | 2026-09-02 00:33:50 | 52.77486 | 10.75966 | 122° | 18km/h | 30453m | 5.4m/s | -43.7°C | 2.2% | 11.9hPa | 2.6V | 03:20:30 | 02:41:35 | 00:00:00 | |
| DO2SHX-10 | 2026-09-02 00:33:49 | 52.77486 | 10.75966 | 123° | 18km/h | 30453m | 5.3m/s | -43.7°C | 2.2% | 11.8hPa | 2.6V | 00:00:00 | 02:41:35 | 00:00:00 | |
| DM0DOS-11 | 2026-09-02 00:33:48 | 52.77489 | 10.75952 | 82° | 20km/h | 30444m | 5m/s | -43.8°C | 2.3% | 11.9hPa | 2.6V | 03:20:32 | 02:41:33 | 00:00:00 | |
| AA1-15 | 2026-09-02 00:33:46 | 52.77488 | 10.75944 | 61° | 20km/h | 30438m | 6.4m/s | -43.8°C | 0% | 11.9hPa | 2.5V | 03:20:35 | 02:41:32 | 00:00:00 | |
| DL1XH-west | 2026-09-02 00:33:44 | 52.77479 | 10.75935 | 12° | 26km/h | 30426m | 5m/s | -43.9°C | 0% | 11.9hPa | 2.5V | 03:20:35 | 02:41:30 | 00:00:00 | |
| DB0UT-7 | 2026-09-02 00:33:44 | 52.77479 | 10.75934 | 12° | 18km/h | 30426m | 5.0m/s | -43.8°C | 2.3% | 11.9hPa | 2.6V | 00:00:00 | 02:41:30 | 00:00:00 | |
| DL1XH1-15 | 2026-09-02 00:33:43 | 52.77466 | 10.75937 | 337° | 26km/h | 30415m | 6m/s | -44°C | 2.3% | 11.9hPa | 2.6V | 03:20:37 | 02:41:28 | 00:00:00 | |
| DM0DOS-11 | 2026-09-02 00:33:43 | 52.77459 | 10.75982 | 250° | 20km/h | 30386m | 5.2m/s | -44°C | 2.3% | 12hPa | 2.5V | 03:20:42 | 02:41:23 | 00:00:00 | |
| DF7ER-10 | 2026-09-02 00:33:43 | 52.77472 | 10.75934 | 354° | 27km/h | 30421m | 4.9m/s | -43.9°C | 0.3% | 11.9hPa | 2.5V | 03:21:00 | 00:00:00 | 00:00:00 | |
| DL1NUX | 2026-09-02 00:33:42 | 52.77461 | 10.75943 | 311° | 24km/h | 30409m | 6.6m/s | -44°C | 2.3% | 11.9hPa | 2.5V | 03:20:38 | 02:41:27 | 00:00:00 | |
| DF8AY | 2026-09-02 00:33:41 | 52.77461 | 10.75943 | 311° | 24km/h | 30409m | 6.6m/s | -44°C | 0% | 11.9hPa | 2.5V | 03:22:17 | 02:41:27 | 00:00:00 | |
| HSKMA3-T | 2026-09-02 00:33:40 | 52.77458 | 10.75952 | 288° | 26km/h | 30403m | 6.2m/s | -44°C | 0% | 12hPa | 2.5V | 03:21:26 | 02:41:26 | 00:00:00 | |
| DB0DAN | 2026-09-02 00:33:40 | 52.77458 | 10.75952 | 288° | 24km/h | 30403m | 6.2m/s | -44°C | 0.3% | 11.96hPa | 2.5V | 00:00:00 | 00:00:00 | 00:00:00 | |
| BIOWL1-15 | 2026-09-02 00:33:40 | 52.77457 | 10.75962 | 269° | 27km/h | 30396m | 5.5m/s | -44.1°C | 0% | 12hPa | 2.6V | 03:21:26 | 02:41:25 | 00:00:00 | |
| DL3AQ-11 | 2026-09-02 00:33:39 | 52.77458 | 10.75973 | 257° | 24km/h | 30391m | 5.0m/s | -44.0°C | 0.3% | 12.0hPa | 2.6V | 00:00:00 | 00:00:00 | 00:00:00 | |
| DJ8HS-15 | 2026-09-02 00:33:38 | 52.77458 | 10.75973 | 258° | 16km/h | 30391m | 4.9m/s | -44.0°C | 2.3% | 11.9hPa | 2.6V | 00:00:00 | 02:41:24 | 00:00:00 | |
| DL1XH1-15 | 2026-09-02 00:33:37 | 52.77465 | 10.75977 | 103° | 20km/h | 30355m | 6.9m/s | -44°C | 2.3% | 12hPa | 2.6V | 03:20:47 | 02:41:18 | 00:00:00 | |
| DL1XH-west | 2026-09-02 00:33:34 | 52.77463 | 10.75989 | 124° | 9km/h | 30368m | 6.5m/s | -44°C | 0% | 12hPa | 2.6V | 03:21:26 | 02:41:20 | 00:00:00 | |
| DO2SHX-10 | 2026-09-02 00:33:34 | 52.77463 | 10.75989 | 124° | 15km/h | 30369m | 6.5m/s | -44.0°C | 2.3% | 12.0hPa | 2.5V | 00:00:00 | 02:41:20 | 00:00:00 | |
| GOEST3-10 | 2026-09-02 00:33:33 | 52.77464 | 10.75985 | 105° | 18km/h | 30363m | 6.3m/s | -43.9°C | 2.3% | 12.0hPa | 2.5V | 03:20:00 | 00:00:00 | 00:00:00 | |
| DL1NUX | 2026-09-02 00:33:32 | 52.77467 | 10.75969 | 109° | 22km/h | 30349m | 6m/s | -44°C | 2.3% | 12hPa | 2.5V | 03:20:48 | 02:41:17 | 00:00:00 | |
| SP3BTT-10 | 2026-09-02 00:33:32 | 52.77465 | 10.75977 | 104° | 11km/h | 30356m | 6.9m/s | -43.9°C | 2.3% | 12.0hPa | 2.5V | 00:00:00 | 00:00:00 | 00:00:00 | |
| DO2SHX-10 | 2026-09-02 00:33:31 | 52.77467 | 10.75969 | 110° | 18km/h | 30349m | 5.9m/s | -43.9°C | 2.3% | 12.0hPa | 2.5V | 03:20:00 | 02:41:17 | 00:00:00 | |
| DF8AY | 2026-09-02 00:33:30 | 52.77480 | 10.75956 | 121° | 9km/h | 30247m | 6.3m/s | -44.3°C | 0% | 12.2hPa | 2.5V | 03:22:17 | 02:40:59 | 00:00:00 | |
| HSKMA3-T | 2026-09-02 00:33:29 | 52.77470 | 10.75954 | 105° | 13km/h | 30339m | 4.1m/s | -44°C | 0% | 12.1hPa | 2.5V | 03:21:26 | 02:41:15 | 00:00:00 | |
| DM0DOS-11 | 2026-09-02 00:33:28 | 52.77469 | 10.75948 | 5° | 5km/h | 30328m | 7m/s | -44°C | 2.3% | 12.1hPa | 2.6V | 03:20:52 | 02:41:13 | 00:00:00 | |
| DO2SHX-10 | 2026-09-02 00:33:28 | 52.77470 | 10.75950 | 75° | 9km/h | 30335m | 5.5m/s | -43.9°C | 2.3% | 12.0hPa | 2.5V | 00:00:00 | 02:41:14 | 00:00:00 | |
| DL4XJ-10 | 2026-09-02 00:33:27 | 52.77469 | 10.75948 | 6° | 13km/h | 30328m | 6.9m/s | -43.6°C | 0% | 0hPa | 2.5V | 00:00:00 | 00:00:00 | 00:00:00 | |
| DB0DAN | 2026-09-02 00:33:25 | 52.77464 | 10.75955 | 306° | 18km/h | 30315m | 5.2m/s | -44°C | 0.3% | 12.14hPa | 2.5V | 00:00:00 | 00:00:00 | 00:00:00 | |
| AU51GT2 | 2026-09-02 00:33:25 | 52.77462 | 10.75962 | 292° | 20km/h | 30310m | 4.4m/s | -44.0°C | 0.3% | 12.1hPa | 2.5V | 00:00:00 | 00:00:00 | 00:00:00 | |
| DL1XH-15 | 2026-09-02 00:33:24 | 52.77471 | 10.75985 | 163° | 16km/h | 30283m | 5.7m/s | -44.1°C | 2.3% | 12.2hPa | 2.5V | 03:21:00 | 02:41:05 | 00:00:00 | |
| DL1XH-west | 2026-09-02 00:33:24 | 52.77460 | 10.75970 | 274° | 20km/h | 30305m | 5.1m/s | -44.1°C | 0% | 12.1hPa | 2.5V | 03:21:26 | 02:41:09 | 00:00:00 | |
| DL1XH1-15 | 2026-09-02 00:33:23 | 52.77460 | 10.75977 | 249° | 18km/h | 30300m | 6.2m/s | -44.1°C | 2.3% | 12.1hPa | 2.6V | 03:20:57 | 02:41:08 | 00:00:00 | |
| DL1NUX | 2026-09-02 00:33:23 | 52.77463 | 10.75983 | 214° | 16km/h | 30294m | 5.3m/s | -44.1°C | 2.3% | 12.1hPa | 2.6V | 03:20:58 | 02:41:07 | 00:00:00 | |
| HSKMA3-T | 2026-09-02 00:33:19 | 52.77471 | 10.75985 | 164° | 16km/h | 30283m | 5.7m/s | -44.1°C | 0% | 12.2hPa | 2.5V | 03:21:26 | 02:41:05 | 00:00:00 | |
| DO2SHX-10 | 2026-09-02 00:33:19 | 52.77471 | 10.75984 | 164° | 16km/h | 30284m | 5.7m/s | -44.1°C | 2.3% | 12.1hPa | 2.5V | 03:21:00 | 02:41:05 | 00:00:00 | |
| DJ8HS-15 | 2026-09-02 00:33:18 | 52.77475 | 10.75982 | 151° | 18km/h | 30278m | 6.2m/s | -44.1°C | 2.3% | 12.1hPa | 2.5V | 00:00:00 | 02:41:04 | 00:00:00 | |
| DD8BA-10 | 2026-09-02 00:33:15 | 52.77479 | 10.75965 | 80° | 13km/h | 30259m | 5.2m/s | -44.2°C | 2.3% | 12.1hPa | 2.5V | 00:00:00 | 00:00:00 | 00:00:00 | |
| DL1XH-15 | 2026-09-02 00:33:14 | 52.77490 | 10.75965 | 234° | 20km/h | 30222m | 6.6m/s | -44.4°C | 2.4% | 12.3hPa | 2.5V | 03:21:10 | 02:40:55 | 00:00:00 | |
| DB0UT-7 | 2026-09-02 00:33:14 | 52.77479 | 10.75960 | 96° | 16km/h | 30254m | 5.0m/s | -44.2°C | 2.3% | 12.2hPa | 2.5V | 00:00:00 | 00:00:00 | 00:00:00 | |
| DL1XH1-15 | 2026-09-02 00:33:13 | 52.77481 | 10.75954 | 174° | 9km/h | 30242m | 6.6m/s | -44.3°C | 2.3% | 12.2hPa | 2.6V | 03:21:07 | 02:40:58 | 00:00:00 | |
| DL1XH-west | 2026-09-02 00:33:13 | 52.77481 | 10.75954 | 175° | 9km/h | 30242m | 6.6m/s | -44.3°C | 0% | 12.2hPa | 2.6V | 03:21:26 | 02:40:58 | 00:00:00 | |
| DL1NUX | 2026-09-02 00:33:13 | 52.77484 | 10.75955 | 207° | 15km/h | 30235m | 6m/s | -44.4°C | 2.3% | 12.2hPa | 2.6V | 03:21:08 | 02:40:57 | 00:00:00 | |
| DL1CLM-18 | 2026-09-02 00:33:12 | 52.77481 | 10.75954 | 176° | 9km/h | 30242m | 6.6m/s | -44.3°C | 0.3% | 12.3hPa | 2.5V | 00:00:00 | 00:00:00 | 00:00:00 | |
| DB0DAN | 2026-09-02 00:33:10 | 52.77487 | 10.75959 | 222° | 16km/h | 30229m | 6m/s | -44.4°C | 0.3% | 12.28hPa | 2.5V | 00:00:00 | 00:00:00 | 00:00:00 | |
| HSKMA3-T | 2026-09-02 00:33:09 | 52.77490 | 10.75965 | 235° | 20km/h | 30222m | 6.6m/s | -44.4°C | 0% | 12.3hPa | 2.5V | 03:21:26 | 02:40:55 | 00:00:00 | |
| DJ2DS-15 | 2026-09-02 00:33:08 | 52.77495 | 10.75977 | 237° | 13km/h | 30211m | 4.3m/s | -44.4°C | 0.3% | 12.3hPa | 2.6V | 00:00:00 | 00:00:00 | 00:00:00 | |
| DL1XH1-15 | 2026-09-02 00:33:07 | 52.77509 | 10.75961 | 108° | 29km/h | 30183m | 5.2m/s | -44.4°C | 2.4% | 12.4hPa | 2.6V | 03:21:17 | 02:40:48 | 00:00:00 | |
| DO2SHX-10 | 2026-09-02 00:33:07 | 52.77495 | 10.75977 | 238° | 11km/h | 30211m | 4.2m/s | -44.4°C | 2.4% | 12.2hPa | 2.6V | 03:21:00 | 02:40:53 | 00:00:00 | |
| DL1NUX | 2026-09-02 00:33:06 | 52.77511 | 10.75949 | 102° | 29km/h | 30178m | 4.8m/s | -44.3°C | 2.4% | 12.4hPa | 2.6V | 03:21:18 | 02:40:47 | 00:00:00 | |
| DD8BA-10 | 2026-09-02 00:33:05 | 52.77499 | 10.75980 | 169° | 20km/h | 30202m | 5.4m/s | -44.3°C | 2.3% | 12.3hPa | 2.5V | 03:21:00 | 00:00:00 | 00:00:00 | |
| DL1XH-15 | 2026-09-02 00:33:04 | 52.77511 | 10.75927 | 72° | 24km/h | 30166m | 6m/s | -44.3°C | 2.3% | 12.4hPa | 2.5V | 03:21:20 | 02:40:45 | 00:00:00 | |
| DF8AY | 2026-09-02 00:33:03 | 52.77509 | 10.75961 | 108° | 29km/h | 30183m | 5.2m/s | -44.4°C | 0% | 12.4hPa | 2.6V | 03:22:17 | 02:40:48 | 00:00:00 | |
| DL1XH-west | 2026-09-02 00:33:01 | 52.77511 | 10.75949 | 103° | 29km/h | 30178m | 4.8m/s | -44.3°C | 0% | 12.4hPa | 2.6V | 03:21:26 | 02:40:47 | 00:00:00 | |
| HSKMA3-T | 2026-09-02 00:32:58 | 52.77509 | 10.75919 | 51° | 18km/h | 30160m | 5.4m/s | -44.3°C | 0% | 12.4hPa | 2.5V | 03:21:26 | 02:40:44 | 00:00:00 | |
| DJ8HS-15 | 2026-09-02 00:32:58 | 52.77508 | 10.75919 | 51° | 13km/h | 30160m | 5.4m/s | -44.2°C | 2.4% | 12.4hPa | 2.6V | 03:21:00 | 02:40:44 | 00:00:00 | |
| DF7ER-10 | 2026-09-02 00:32:57 | 52.77508 | 10.75919 | 52° | 18km/h | 30160m | 5.4m/s | -44.3°C | 0.4% | 12.4hPa | 2.6V | 03:21:00 | 00:00:00 | 00:00:00 | |
| DB0DAN | 2026-09-02 00:32:55 | 52.77502 | 10.75916 | 265° | 5km/h | 30143m | 6m/s | -44.2°C | 0.3% | 12.42hPa | 2.6V | 00:00:00 | 00:00:00 | 00:00:00 | |
| AU51GT2 | 2026-09-02 00:32:54 | 52.77505 | 10.75920 | 199° | 13km/h | 30133m | 4.8m/s | -44.2°C | 0.4% | 12.4hPa | 2.5V | 00:00:00 | 00:00:00 | 00:00:00 | |
| DL1XH-15 | 2026-09-02 00:32:53 | 52.77515 | 10.75912 | 99° | 16km/h | 30110m | 5.7m/s | -44.2°C | 2.3% | 12.5hPa | 2.5V | 03:21:30 | 02:40:35 | 00:00:00 | |
| SONCRA | 2026-09-02 00:32:53 | 52.77508 | 10.75921 | 178° | 13km/h | 30127m | 5.0m/s | -44.2°C | 0.3% | 12.4hPa | 2.6V | 00:00:00 | 00:00:00 | 00:00:00 | |
| DL1NUX | 2026-09-02 00:32:52 | 52.77511 | 10.75920 | 156° | 13km/h | 30122m | 5.7m/s | -44.2°C | 2.3% | 12.5hPa | 2.6V | 03:21:28 | 02:40:37 | 00:00:00 | |
| DL1XH-west | 2026-09-02 00:32:51 | 52.77511 | 10.75920 | 157° | 13km/h | 30122m | 5.7m/s | -44.2°C | 0% | 12.5hPa | 2.6V | 03:22:17 | 02:40:37 | 00:00:00 | |
| 13BRC | 2026-09-02 00:32:51 | 52.77511 | 10.75920 | 158° | 13km/h | 30122m | 5.7m/s | -44.2°C | 0.3% | 12.5hPa | 2.6V | 00:00:00 | 00:00:00 | 00:00:00 | |
| DM0DOS-11 | 2026-09-02 00:32:50 | 52.77514 | 10.75897 | 84° | 20km/h | 30098m | 5.5m/s | -44.2°C | 2.3% | 12.5hPa | 2.6V | 03:21:32 | 02:40:33 | 00:00:00 | |
| AA1-15 | 2026-09-02 00:32:50 | 52.77513 | 10.75917 | 122° | 13km/h | 30116m | 6.3m/s | -44.2°C | 0% | 12.5hPa | 2.6V | 03:22:17 | 02:40:36 | 00:00:00 | |
| HSKMA3-T | 2026-09-02 00:32:47 | 52.77514 | 10.75897 | 85° | 20km/h | 30098m | 5.5m/s | -44.2°C | 0% | 12.5hPa | 2.6V | 03:22:17 | 02:40:33 | 00:00:00 | |
| DO3MHA-11 | 2026-09-02 00:32:47 | 52.77514 | 10.75897 | 85° | 18km/h | 30099m | 5.5m/s | -44.1°C | 2.3% | 12.4hPa | 2.6V | 00:00:00 | 02:40:33 | 00:00:00 | |
| DO2SHX-10 | 2026-09-02 00:32:46 | 52.77514 | 10.75888 | 88° | 16km/h | 30093m | 5.8m/s | -44.1°C | 2.3% | 12.5hPa | 2.6V | 00:00:00 | 02:40:32 | 00:00:00 | |
| DD8BA-10 | 2026-09-02 00:32:45 | 52.77514 | 10.75881 | 92° | 9km/h | 30087m | 5.9m/s | -44.1°C | 2.3% | 12.5hPa | 2.5V | 00:00:00 | 00:00:00 | 00:00:00 | |
| DF8AY-15 | 2026-09-02 00:32:44 | 52.77514 | 10.75874 | 100° | 7km/h | 30082m | 5.4m/s | -44.1°C | 2.3% | 12.5hPa | 2.5V | 00:00:00 | 02:40:30 | 00:00:00 | |
| DL1XH-15 | 2026-09-02 00:32:43 | 52.77509 | 10.75861 | 4° | 13km/h | 30051m | 5.4m/s | -44.1°C | 2.3% | 12.6hPa | 2.5V | 03:21:40 | 02:40:25 | 00:00:00 | |
| DO2SHX-10 | 2026-09-02 00:32:43 | 52.77514 | 10.75869 | 96° | 7km/h | 30076m | 4.8m/s | -44.1°C | 2.3% | 12.5hPa | 2.6V | 03:21:00 | 02:40:29 | 00:00:00 | |
| DL1NUX | 2026-09-02 00:32:42 | 52.77514 | 10.75863 | 38° | 7km/h | 30064m | 6.4m/s | -44.1°C | 2.3% | 12.6hPa | 2.6V | 03:21:38 | 02:40:27 | 00:00:00 | |
| DL1XH-west | 2026-09-02 00:32:41 | 52.77514 | 10.75863 | 38° | 7km/h | 30064m | 6.4m/s | -44.1°C | 0% | 12.6hPa | 2.6V | 03:22:17 | 02:40:27 | 00:00:00 | |
| DF8AY | 2026-09-02 00:32:40 | 52.77508 | 10.75861 | 4° | 13km/h | 30051m | 5.4m/s | -44.1°C | 0% | 12.6hPa | 2.5V | 03:22:17 | 02:40:25 | 00:00:00 | |
| AM1SDL-15 | 2026-09-02 00:32:39 | 52.77508 | 10.75861 | 5° | 5km/h | 30051m | 5.4m/s | -44.0°C | 2.3% | 12.6hPa | 2.5V | 03:21:00 | 02:40:25 | 00:00:00 | |
| DM0DOS-11 | 2026-09-02 00:32:38 | 52.77503 | 10.75861 | 2° | 4km/h | 30041m | 5.8m/s | -44.1°C | 2.3% | 12.6hPa | 2.5V | 03:21:42 | 02:40:23 | 00:00:00 | |
| BIOWL1-15 | 2026-09-02 00:32:36 | 52.77503 | 10.75859 | 143° | 4km/h | 30023m | 4.9m/s | -44.2°C | 0% | 12.7hPa | 2.6V | 03:22:17 | 02:40:20 | 00:00:00 | |
| HSKMA3-T | 2026-09-02 00:32:36 | 52.77502 | 10.75861 | 36° | 2km/h | 30035m | 7.2m/s | -44.1°C | 0% | 12.6hPa | 2.6V | 03:22:17 | 02:40:22 | 00:00:00 | |
| DL1NUX | 2026-09-02 00:32:36 | 52.77501 | 10.75855 | 38° | 7km/h | 30006m | 4.9m/s | -44.2°C | 2.4% | 12.7hPa | 2.5V | 03:21:48 | 02:40:17 | 00:00:00 | |
| DD8BA-10 | 2026-09-02 00:32:35 | 52.77503 | 10.75860 | 112° | 5km/h | 30030m | 5.8m/s | -44.1°C | 2.3% | 12.6hPa | 2.6V | 00:00:00 | 00:00:00 | 00:00:00 | |
| DO2SHX-10 | 2026-09-02 00:32:34 | 52.77503 | 10.75859 | 143° | 4km/h | 30024m | 4.8m/s | -44.1°C | 2.3% | 12.6hPa | 2.6V | 00:00:00 | 02:40:20 | 00:00:00 | |
| DL1XH-15 | 2026-09-02 00:32:33 | 52.77499 | 10.75851 | 53° | 5km/h | 29995m | 6.7m/s | -44.1°C | 2.3% | 12.7hPa | 2.6V | 03:21:50 | 02:40:15 | 00:00:00 | |
| DL1XH-west | 2026-09-02 00:32:31 | 52.77500 | 10.75853 | 42° | 7km/h | 30001m | 4.8m/s | -44.2°C | 0% | 12.7hPa | 2.6V | 03:22:17 | 02:40:16 | 00:00:00 | |
| DF8AY | 2026-09-02 00:32:29 | 52.77499 | 10.75851 | 54° | 5km/h | 29995m | 6.7m/s | -44.2°C | 0% | 12.7hPa | 2.6V | 03:22:17 | 02:40:15 | 00:00:00 | |
| AA1-15 | 2026-09-02 00:32:28 | 52.77498 | 10.75849 | 58° | 5km/h | 29988m | 6.3m/s | -44.2°C | 0% | 12.7hPa | 2.6V | 03:22:17 | 02:40:14 | 00:00:00 | |
| HSKMA3-T | 2026-09-02 00:32:26 | 52.77497 | 10.75846 | 33° | 5km/h | 29978m | 5m/s | -44.2°C | 0% | 12.7hPa | 2.5V | 03:22:17 | 02:40:12 | 00:00:00 | |
| DB0DAN | 2026-09-02 00:32:25 | 52.77495 | 10.75845 | 8° | 5km/h | 29972m | 6.8m/s | -44.1°C | 0.3% | 12.74hPa | 2.5V | 00:00:00 | 00:00:00 | 00:00:00 | |
| BIOWL1-15 | 2026-09-02 00:32:24 | 52.77494 | 10.75845 | 359° | 7km/h | 29966m | 5.8m/s | -44.2°C | 0% | 12.8hPa | 2.6V | 03:22:17 | 02:40:10 | 00:00:00 | |
| DL1XH-15 | 2026-09-02 00:32:23 | 52.77498 | 10.75850 | 188° | 16km/h | 29936m | 5.8m/s | -44.1°C | 2.3% | 12.8hPa | 2.6V | 03:22:00 | 02:40:05 | 00:00:00 | |
| GOEST3-10 | 2026-09-02 00:32:23 | 52.77492 | 10.75846 | 336° | 9km/h | 29961m | 4.6m/s | -44.1°C | 2.4% | 12.7hPa | 2.6V | 00:00:00 | 00:00:00 | 00:00:00 | |
| DL1NUX | 2026-09-02 00:32:22 | 52.77493 | 10.75848 | 202° | 7km/h | 29949m | 7.1m/s | -44.1°C | 2.3% | 12.8hPa | 2.5V | 03:21:58 | 02:40:07 | 00:00:00 | |
| DL1XH-west | 2026-09-02 00:32:20 | 52.77495 | 10.75849 | 192° | 13km/h | 29942m | 6.9m/s | -44.1°C | 0% | 12.8hPa | 2.6V | 03:22:17 | 02:40:06 | 00:00:00 | |
| DF8AY | 2026-09-02 00:32:19 | 52.77502 | 10.75851 | 190° | 15km/h | 29931m | 5.5m/s | -44.1°C | 0% | 12.8hPa | 2.5V | 03:22:17 | 02:40:04 | 00:00:00 | |
| AA1-15 | 2026-09-02 00:32:17 | 52.77505 | 10.75852 | 193° | 11km/h | 29925m | 6.3m/s | -44.1°C | 0% | 12.8hPa | 2.5V | 03:22:17 | 02:40:03 | 00:00:00 | |
| HSKMA3-T | 2026-09-02 00:32:16 | 52.77508 | 10.75853 | 191° | 7km/h | 29918m | 5.6m/s | -44.1°C | 0% | 12.8hPa | 2.5V | 03:22:17 | 02:40:02 | 00:00:00 | |
| BIOWL1-15 | 2026-09-02 00:32:13 | 52.77515 | 10.75851 | 172° | 13km/h | 29891m | 5.8m/s | -44°C | 0% | 12.9hPa | 2.5V | 03:22:17 | 02:39:57 | 00:00:00 | |
| DL1XH-15 | 2026-09-02 00:32:13 | 52.77522 | 10.75850 | 187° | 13km/h | 29880m | 4.6m/s | -44°C | 2.3% | 12.9hPa | 2.6V | 03:22:10 | 02:39:55 | 00:00:00 | |
| DM0DOS-11 | 2026-09-02 00:32:13 | 52.77526 | 10.75853 | 222° | 7km/h | 29869m | 6.6m/s | -44°C | 2.3% | 12.9hPa | 2.6V | 03:22:12 | 02:39:53 | 00:00:00 | |
| DL3OBA | 2026-09-02 00:32:12 | 52.77511 | 10.75852 | 166° | 5km/h | 29902m | 6.0m/s | -44.1°C | 0.3% | 12.9hPa | 2.5V | 03:22:00 | 00:00:00 | 00:00:00 | |
| TFSTFS | 2026-09-02 00:32:11 | 52.77513 | 10.75851 | 167° | 9km/h | 29897m | 6.4m/s | -44.0°C | 0.3% | 12.9hPa | 2.5V | 03:22:00 | 00:00:00 | 00:00:00 | |
| DB0DAN | 2026-09-02 00:32:10 | 52.77518 | 10.75850 | 179° | 11km/h | 29885m | 5.1m/s | -44°C | 0.3% | 12.94hPa | 2.5V | 00:00:00 | 00:00:00 | 00:00:00 | |
| DL1XH-west | 2026-09-02 00:32:09 | 52.77521 | 10.75850 | 187° | 13km/h | 29880m | 4.6m/s | -44°C | 0% | 12.9hPa | 2.6V | 03:22:17 | 02:39:55 | 00:00:00 | |
| DF8AY | 2026-09-02 00:32:08 | 52.77526 | 10.75853 | 222° | 7km/h | 29869m | 6.6m/s | -44°C | 0% | 13hPa | 2.6V | 03:22:17 | 02:39:53 | 00:00:00 | |
| HSKMA3-T | 2026-09-02 00:32:06 | 52.77527 | 10.75856 | 246° | 7km/h | 29863m | 5.7m/s | -44°C | 0% | 13hPa | 2.5V | 03:22:17 | 02:39:52 | 00:00:00 | |
| DO3MHA-11 | 2026-09-02 00:32:06 | 52.77527 | 10.75856 | 247° | 13km/h | 29864m | 5.7m/s | -44.0°C | 2.2% | 12.9hPa | 2.6V | 00:00:00 | 02:39:52 | 00:00:00 | |
| DD8BA-10 | 2026-09-02 00:32:05 | 52.77528 | 10.75858 | 233° | 13km/h | 29859m | 4.9m/s | -44.0°C | 2.3% | 12.9hPa | 2.6V | 00:00:00 | 00:00:00 | 00:00:00 | |
| DO2SHX-10 | 2026-09-02 00:32:04 | 52.77530 | 10.75860 | 204° | 13km/h | 29853m | 5.4m/s | -44.0°C | 2.3% | 12.9hPa | 2.6V | 00:00:00 | 02:39:50 | 00:00:00 | |
| GOEST3-10 | 2026-09-02 00:32:03 | 52.77532 | 10.75861 | 180° | 16km/h | 29847m | 6.9m/s | -44.1°C | 2.3% | 12.9hPa | 2.6V | 00:00:00 | 00:00:00 | 00:00:00 | |
| DL1XH-15 | 2026-09-02 00:32:02 | 52.77547 | 10.75849 | 135° | 15km/h | 29826m | 6.2m/s | -44.2°C | 2.3% | 13hPa | 2.6V | 03:22:20 | 02:39:45 | 00:00:00 | |
| BIOWL1-15 | 2026-09-02 00:32:01 | 52.77540 | 10.75857 | 156° | 20km/h | 29835m | 4m/s | -44.2°C | 0% | 13hPa | 2.5V | 03:23:08 | 02:39:47 | 00:00:00 | |
| DO2SHX-10 | 2026-09-02 00:32:01 | 52.77540 | 10.75857 | 156° | 18km/h | 29836m | 4.0m/s | -44.1°C | 2.3% | 13.0hPa | 2.5V | 00:00:00 | 02:39:47 | 00:00:00 | |
| DM0DOS-11 | 2026-09-02 00:32:00 | 52.77550 | 10.75842 | 81° | 7km/h | 29813m | 6m/s | -44.3°C | 2.3% | 13.1hPa | 2.5V | 03:22:22 | 02:39:43 | 00:00:00 | |
| DL1XH-west | 2026-09-02 00:31:58 | 52.77549 | 10.75845 | 119° | 9km/h | 29819m | 7m/s | -44.3°C | 0% | 13hPa | 2.6V | 03:23:08 | 02:39:44 | 00:00:00 | |
| HSKMA3-T | 2026-09-02 00:31:56 | 52.77549 | 10.75839 | 36° | 5km/h | 29808m | 4.8m/s | -44.3°C | 0% | 13.1hPa | 2.5V | 03:23:08 | 02:39:42 | 00:00:00 | |
| AA1-15 | 2026-09-02 00:31:55 | 52.77548 | 10.75838 | 36° | 4km/h | 29803m | 4.2m/s | -44.3°C | 0% | 13.1hPa | 2.5V | 03:23:08 | 02:39:41 | 00:00:00 | |
| DB0DAN | 2026-09-02 00:31:55 | 52.77548 | 10.75838 | 36° | 4km/h | 29803m | 4.2m/s | -44.3°C | 0.3% | 13.1hPa | 2.5V | 00:00:00 | 00:00:00 | 00:00:00 | |
| GOEST3-10 | 2026-09-02 00:31:53 | 52.77549 | 10.75836 | 167° | 22km/h | 29793m | 6.1m/s | -44.3°C | 2.3% | 13.0hPa | 2.6V | 03:22:00 | 00:00:00 | 00:00:00 | |
| DL1NUX | 2026-09-02 00:31:52 | 52.77559 | 10.75834 | 172° | 26km/h | 29780m | 6.2m/s | -44.5°C | 2.3% | 13.1hPa | 2.5V | 03:22:28 | 02:39:37 | 00:00:00 | |
| BIOWL1-15 | 2026-09-02 00:31:51 | 52.77566 | 10.75833 | 177° | 29km/h | 29774m | 5.2m/s | -44.6°C | 0% | 13.1hPa | 2.5V | 03:23:08 | 02:39:36 | 00:00:00 | |
| S3001 | 2026-09-02 00:31:51 | 52.77566 | 10.75833 | 176° | 27km/h | 29774m | 5.2m/s | -44.6°C | 0.3% | 13.1hPa | 2.6V | 00:00:00 | 00:00:00 | 00:00:00 | |
| DM0DOS-11 | 2026-09-02 00:31:49 | 52.77584 | 10.75833 | 176° | 18km/h | 29757m | 5.8m/s | -44.7°C | 2.4% | 13.2hPa | 2.6V | 03:22:32 | 02:39:33 | 00:00:00 | |
| DL1XH-west | 2026-09-02 00:31:47 | 52.77584 | 10.75833 | 176° | 18km/h | 29757m | 5.8m/s | -44.7°C | 0% | 13.2hPa | 2.6V | 03:23:08 | 02:39:33 | 00:00:00 | |
| DF8AY | 2026-09-02 00:31:46 | 52.77588 | 10.75831 | 161° | 13km/h | 29752m | 5m/s | -44.7°C | 0% | 13.2hPa | 2.6V | 03:23:59 | 02:39:32 | 00:00:00 | |
| HSKMA3-T | 2026-09-02 00:31:45 | 52.77591 | 10.75829 | 131° | 13km/h | 29746m | 5.1m/s | -44.8°C | 0% | 13.2hPa | 2.5V | 03:23:08 | 02:39:31 | 00:00:00 | |
| AA1-15 | 2026-09-02 00:31:44 | 52.77593 | 10.75824 | 119° | 16km/h | 29741m | 6.6m/s | -44.8°C | 0% | 13.2hPa | 2.5V | 03:23:08 | 02:39:30 | 00:00:00 | |
| DB0UT-7 | 2026-09-02 00:31:44 | 52.77593 | 10.75824 | 119° | 22km/h | 29741m | 6.6m/s | -44.8°C | 2.4% | 13.2hPa | 2.5V | 00:00:00 | 02:39:30 | 00:00:00 | |
| DB0NH | 2026-09-02 00:31:43 | 52.77595 | 10.75817 | 113° | 22km/h | 29734m | 6.1m/s | -44.8°C | 2.4% | 13.2hPa | 2.5V | 00:00:00 | 02:39:29 | 00:00:00 | |
| DL4XJ-10 | 2026-09-02 00:31:42 | 52.77597 | 10.75809 | 114° | 22km/h | 29729m | 5.5m/s | -44.6°C | 0% | 0hPa | 2.6V | 00:00:00 | 00:00:00 | 00:00:00 | |
| DB0DAN | 2026-09-02 00:31:40 | 52.77601 | 10.75793 | 120° | 16km/h | 29719m | 4.7m/s | -44.9°C | 0.4% | 13.27hPa | 2.6V | 00:00:00 | 00:00:00 | 00:00:00 | |
| DF8AY-15 | 2026-09-02 00:31:40 | 52.77601 | 10.75793 | 120° | 22km/h | 29719m | 4.6m/s | -44.8°C | 2.4% | 13.2hPa | 2.5V | 00:00:00 | 02:39:26 | 00:00:00 | |
| DM0DOS-11 | 2026-09-02 00:31:39 | 52.77608 | 10.75783 | 176° | 11km/h | 29701m | 5.3m/s | -45°C | 2.4% | 13.3hPa | 2.5V | 03:22:42 | 02:39:23 | 00:00:00 | |
| DL1XH-west | 2026-09-02 00:31:37 | 52.77608 | 10.75783 | 176° | 11km/h | 29702m | 5.3m/s | -45°C | 0% | 13.3hPa | 2.5V | 03:23:08 | 02:39:23 | 00:00:00 | |
| DF8AY | 2026-09-02 00:31:36 | 52.77611 | 10.75783 | 181° | 16km/h | 29696m | 5.4m/s | -45.1°C | 0% | 13.3hPa | 2.6V | 03:23:59 | 02:39:22 | 00:00:00 | |
| DL1NUX | 2026-09-02 00:31:36 | 52.77639 | 10.75775 | 163° | 22km/h | 29666m | 6.5m/s | -45°C | 2.4% | 13.3hPa | 2.6V | 03:22:48 | 02:39:17 | 00:00:00 | |
| HSKMA3-T | 2026-09-02 00:31:34 | 52.77621 | 10.75782 | 171° | 24km/h | 29684m | 6.1m/s | -45.1°C | 0% | 13.3hPa | 2.5V | 03:23:08 | 02:39:20 | 00:00:00 | |
| AA1-15 | 2026-09-02 00:31:33 | 52.77627 | 10.75780 | 168° | 24km/h | 29678m | 4.8m/s | -45.1°C | 0% | 13.3hPa | 2.5V | 03:23:08 | 02:39:19 | 00:00:00 | |
| BIOWL1-15 | 2026-09-02 00:31:30 | 52.77655 | 10.75752 | 123° | 29km/h | 29644m | 7.2m/s | -45°C | 0% | 13.4hPa | 2.6V | 03:23:08 | 02:39:13 | 00:00:00 | |
| EDDB2-11 | 2026-09-02 00:31:29 | 52.77648 | 10.75768 | 140° | 20km/h | 29656m | 4.6m/s | -45.0°C | 0.4% | 13.4hPa | 2.6V | 00:00:00 | 00:00:00 | 00:00:00 | |
| DM0DOS-11 | 2026-09-02 00:31:28 | 52.77655 | 10.75752 | 123° | 29km/h | 29644m | 7.2m/s | -45°C | 2.4% | 13.4hPa | 2.6V | 03:22:52 | 02:39:13 | 00:00:00 | |
| DL1XH-west | 2026-09-02 00:31:26 | 52.77659 | 10.75741 | 120° | 33km/h | 29638m | 5.9m/s | -44.9°C | 0% | 13.4hPa | 2.6V | 03:23:08 | 02:39:12 | 00:00:00 | |
| DF8AY | 2026-09-02 00:31:26 | 52.77664 | 10.75729 | 118° | 33km/h | 29632m | 5m/s | -44.9°C | 0% | 13.4hPa | 2.6V | 03:23:59 | 02:39:11 | 00:00:00 | |
| DB0DAN | 2026-09-02 00:31:25 | 52.77664 | 10.75729 | 118° | 31km/h | 29632m | 5m/s | -44.9°C | 0.3% | 13.43hPa | 2.6V | 00:00:00 | 00:00:00 | 00:00:00 | |
| DD8BA-10 | 2026-09-02 00:31:25 | 52.77664 | 10.75729 | 119° | 24km/h | 29633m | 5.0m/s | -44.9°C | 2.4% | 13.4hPa | 2.6V | 00:00:00 | 00:00:00 | 00:00:00 | |
| DL1XH-15 | 2026-09-02 00:31:24 | 52.77687 | 10.75694 | 164° | 22km/h | 29599m | 6.4m/s | -44.9°C | 2.4% | 13.5hPa | 2.6V | 03:23:00 | 02:39:05 | 00:00:00 | |
| DL1XH1-15 | 2026-09-02 00:31:23 | 52.77675 | 10.75702 | 140° | 18km/h | 29615m | 5.9m/s | -44.9°C | 2.4% | 13.4hPa | 2.5V | 03:22:57 | 02:39:08 | 00:00:00 | |
| HSKMA3-T | 2026-09-02 00:31:23 | 52.77671 | 10.75709 | 127° | 24km/h | 29622m | 6.3m/s | -44.9°C | 0% | 13.5hPa | 2.5V | 03:23:08 | 02:39:09 | 00:00:00 | |
| AA1-15 | 2026-09-02 00:31:23 | 52.77675 | 10.75702 | 140° | 18km/h | 29615m | 5.9m/s | -44.9°C | 0% | 13.4hPa | 2.5V | 03:23:08 | 02:39:08 | 00:00:00 | |
| DM0DOS-11 | 2026-09-02 00:31:22 | 52.77699 | 10.75687 | 153° | 27km/h | 29587m | 5m/s | -44.9°C | 2.4% | 13.5hPa | 2.5V | 03:23:02 | 02:39:03 | 00:00:00 | |
| BIOWL1-15 | 2026-09-02 00:31:19 | 52.77699 | 10.75687 | 154° | 27km/h | 29587m | 5m/s | -44.9°C | 0% | 13.5hPa | 2.5V | 03:23:08 | 02:39:03 | 00:00:00 | |
| DL1XH-west | 2026-09-02 00:31:16 | 52.77705 | 10.75681 | 147° | 27km/h | 29582m | 4.5m/s | -44.9°C | 0% | 13.5hPa | 2.5V | 03:23:08 | 02:39:02 | 00:00:00 | |
| DO2SHX-10 | 2026-09-02 00:31:16 | 52.77705 | 10.75681 | 147° | 24km/h | 29582m | 4.4m/s | -44.8°C | 2.4% | 13.5hPa | 2.5V | 00:00:00 | 02:39:02 | 00:00:00 | |
| DD8BA-10 | 2026-09-02 00:31:15 | 52.77710 | 10.75675 | 142° | 27km/h | 29577m | 5.9m/s | -44.9°C | 2.4% | 13.5hPa | 2.5V | 00:00:00 | 00:00:00 | 00:00:00 | |
| DB0UT-7 | 2026-09-02 00:31:14 | 52.77715 | 10.75668 | 130° | 24km/h | 29571m | 6.4m/s | -44.9°C | 2.4% | 13.5hPa | 2.5V | 00:00:00 | 00:00:00 | 00:00:00 | |
| DL1XH1-15 | 2026-09-02 00:31:13 | 52.77720 | 10.75653 | 112° | 24km/h | 29559m | 5m/s | -44.9°C | 2.4% | 13.6hPa | 2.5V | 03:23:07 | 02:38:58 | 00:00:00 | |
| HSKMA3-T | 2026-09-02 00:31:13 | 52.77718 | 10.75661 | 121° | 22km/h | 29564m | 5.4m/s | -44.9°C | 0% | 13.6hPa | 2.5V | 03:23:08 | 02:38:59 | 00:00:00 | |
| AA1-15 | 2026-09-02 00:31:12 | 52.77720 | 10.75653 | 113° | 24km/h | 29560m | 5.1m/s | -44.9°C | 0% | 13.6hPa | 2.5V | 03:23:08 | 02:38:58 | 00:00:00 | |
| DL1XH-15 | 2026-09-02 00:31:12 | 52.77729 | 10.75618 | 115° | 35km/h | 29542m | 5.5m/s | -44.9°C | 2.3% | 13.6hPa | 2.5V | 03:23:10 | 02:38:55 | 00:00:00 | |
| DL1NUX | 2026-09-02 00:31:12 | 52.77723 | 10.75642 | 111° | 29km/h | 29554m | 6.1m/s | -44.9°C | 2.3% | 13.6hPa | 2.6V | 03:23:08 | 02:38:57 | 00:00:00 | |
| DL3OBA | 2026-09-02 00:31:11 | 52.77720 | 10.75653 | 114° | 26km/h | 29560m | 5.1m/s | -44.9°C | 0.3% | 13.6hPa | 2.6V | 03:23:00 | 00:00:00 | 00:00:00 | |
| DB0DAN | 2026-09-02 00:31:10 | 52.77726 | 10.75631 | 114° | 31km/h | 29547m | 6.9m/s | -44.9°C | 0.4% | 13.56hPa | 2.6V | 00:00:00 | 00:00:00 | 00:00:00 | |
| BIOWL1-15 | 2026-09-02 00:31:07 | 52.77738 | 10.75594 | 124° | 29km/h | 29531m | 5.8m/s | -45°C | 0% | 13.6hPa | 2.5V | 03:23:59 | 02:38:53 | 00:00:00 | |
| DL1XH-west | 2026-09-02 00:31:07 | 52.77745 | 10.75580 | 144° | 18km/h | 29518m | 5.9m/s | -45°C | 0% | 13.7hPa | 2.6V | 03:23:59 | 02:38:51 | 00:00:00 | |
| DD8BA-10 | 2026-09-02 00:31:05 | 52.77745 | 10.75580 | 145° | 22km/h | 29518m | 5.9m/s | -45.0°C | 2.3% | 13.6hPa | 2.5V | 03:23:00 | 00:00:00 | 00:00:00 | |
| DO2SHX-10 | 2026-09-02 00:31:04 | 52.77749 | 10.75576 | 152° | 16km/h | 29513m | 5.0m/s | -45.0°C | 2.4% | 13.6hPa | 2.5V | 00:00:00 | 02:38:50 | 00:00:00 | |
| DL1XH1-15 | 2026-09-02 00:31:03 | 52.77757 | 10.75570 | 151° | 20km/h | 29502m | 5.8m/s | -45.2°C | 2.4% | 13.7hPa | 2.5V | 03:23:17 | 02:38:48 | 00:00:00 | |
| AA1-15 | 2026-09-02 00:31:03 | 52.77756 | 10.75570 | 152° | 20km/h | 29502m | 5.8m/s | -45.2°C | 0% | 13.7hPa | 2.5V | 03:23:59 | 02:38:48 | 00:00:00 | |
| DL1NUX | 2026-09-02 00:31:02 | 52.77761 | 10.75565 | 141° | 22km/h | 29495m | 6.2m/s | -45.3°C | 2.4% | 13.7hPa | 2.5V | 03:23:18 | 02:38:47 | 00:00:00 | |
| DF8AY | 2026-09-02 00:30:58 | 52.77774 | 10.75540 | 121° | 27km/h | 29480m | 4.9m/s | -45.5°C | 0% | 13.7hPa | 2.6V | 03:23:59 | 02:38:44 | 00:00:00 | |
| BIOWL1-15 | 2026-09-02 00:30:57 | 52.77777 | 10.75531 | 113° | 26km/h | 29474m | 6.2m/s | -45.5°C | 0% | 13.8hPa | 2.5V | 03:23:59 | 02:38:43 | 00:00:00 | |
| DL1NUX | 2026-09-02 00:30:56 | 52.77782 | 10.75477 | 109° | 27km/h | 29441m | 6.6m/s | -45.6°C | 2.5% | 13.8hPa | 2.5V | 03:23:28 | 02:38:37 | 00:00:00 | |
| DB0DAN | 2026-09-02 00:30:55 | 52.77779 | 10.75513 | 92° | 18km/h | 29463m | 5.1m/s | -45.5°C | 0.4% | 13.78hPa | 2.5V | 00:00:00 | 00:00:00 | 00:00:00 | |
| DL1XH-west | 2026-09-02 00:30:54 | 52.77780 | 10.75505 | 90° | 20km/h | 29458m | 4.7m/s | -45.6°C | 0% | 13.8hPa | 2.6V | 03:23:59 | 02:38:40 | 00:00:00 | |
| DL1XH1-15 | 2026-09-02 00:30:53 | 52.77781 | 10.75488 | 102° | 24km/h | 29447m | 6.1m/s | -45.6°C | 2.5% | 13.8hPa | 2.5V | 03:23:27 | 02:38:38 | 00:00:00 | |
| HSKMA3-T | 2026-09-02 00:30:51 | 52.77782 | 10.75477 | 109° | 27km/h | 29441m | 6.6m/s | -45.6°C | 0% | 13.8hPa | 2.5V | 03:23:59 | 02:38:37 | 00:00:00 | |
| SONCRA | 2026-09-02 00:30:49 | 52.77792 | 10.75443 | 117° | 27km/h | 29425m | 4.6m/s | -45.7°C | 0.3% | 13.8hPa | 2.5V | 00:00:00 | 00:00:00 | 00:00:00 | |
| S3001 | 2026-09-02 00:30:48 | 52.77792 | 10.75443 | 117° | 27km/h | 29425m | 4.6m/s | -45.7°C | 0.3% | 13.8hPa | 2.5V | 00:00:00 | 00:00:00 | 00:00:00 | |
| DF8AY | 2026-09-02 00:30:47 | 52.77808 | 10.75392 | 120° | 29km/h | 29380m | 5.7m/s | -45.6°C | 0% | 13.9hPa | 2.5V | 03:23:59 | 02:38:26 | 00:00:00 | |
| DO2SHX-10 | 2026-09-02 00:30:46 | 52.77797 | 10.75425 | 115° | 13km/h | 29414m | 6.2m/s | -45.6°C | 2.5% | 13.8hPa | 2.6V | 00:00:00 | 02:38:32 | 00:00:00 | |
| DD8BA-10 | 2026-09-02 00:30:45 | 52.77798 | 10.75420 | 113° | 24km/h | 29408m | 5.8m/s | -45.6°C | 2.5% | 13.8hPa | 2.6V | 00:00:00 | 00:00:00 | 00:00:00 | |
| DL1XH-15 | 2026-09-02 00:30:44 | 52.77811 | 10.75381 | 112° | 33km/h | 29374m | 5.3m/s | -45.6°C | 2.5% | 13.9hPa | 2.6V | 03:23:40 | 02:38:25 | 00:00:00 | |
| DB0UT-7 | 2026-09-02 00:30:44 | 52.77799 | 10.75416 | 112° | 26km/h | 29403m | 4.8m/s | -45.6°C | 2.5% | 13.9hPa | 2.5V | 03:23:00 | 02:38:30 | 00:00:00 | |
| DL1XH1-15 | 2026-09-02 00:30:43 | 52.77802 | 10.75408 | 121° | 15km/h | 29392m | 6m/s | -45.6°C | 2.5% | 13.9hPa | 2.5V | 03:23:37 | 02:38:28 | 00:00:00 | |
| DL1XH-west | 2026-09-02 00:30:43 | 52.77800 | 10.75412 | 117° | 11km/h | 29398m | 4.4m/s | -45.7°C | 0% | 13.9hPa | 2.6V | 03:23:59 | 02:38:29 | 00:00:00 | |
| DO2SHX-10 | 2026-09-02 00:30:43 | 52.77800 | 10.75412 | 117° | 16km/h | 29398m | 4.3m/s | -45.6°C | 2.5% | 13.9hPa | 2.6V | 03:23:00 | 02:38:29 | 00:00:00 | |
| DM0DOS-11 | 2026-09-02 00:30:42 | 52.77816 | 10.75354 | 96° | 33km/h | 29363m | 6.6m/s | -45.6°C | 2.5% | 14hPa | 2.6V | 03:23:42 | 02:38:23 | 00:00:00 | |
| DL1NUX | 2026-09-02 00:30:42 | 52.77805 | 10.75401 | 122° | 22km/h | 29386m | 6.7m/s | -45.6°C | 2.5% | 13.9hPa | 2.5V | 03:23:38 | 02:38:27 | 00:00:00 | |
| HSKMA3-T | 2026-09-02 00:30:41 | 52.77805 | 10.75401 | 123° | 22km/h | 29386m | 6.7m/s | -45.6°C | 0% | 13.9hPa | 2.5V | 03:23:59 | 02:38:27 | 00:00:00 | |
| DB0DAN | 2026-09-02 00:30:40 | 52.77808 | 10.75392 | 119° | 27km/h | 29380m | 5.7m/s | -45.6°C | 0.4% | 13.92hPa | 2.5V | 00:00:00 | 00:00:00 | 00:00:00 | |
| DO2SHX-10 | 2026-09-02 00:30:40 | 52.77808 | 10.75392 | 120° | 31km/h | 29380m | 5.7m/s | -45.6°C | 2.5% | 13.9hPa | 2.5V | 00:00:00 | 02:38:26 | 00:00:00 | |
| DJ8HS-15 | 2026-09-02 00:30:38 | 52.77814 | 10.75368 | 107° | 26km/h | 29370m | 5.8m/s | -45.5°C | 2.5% | 13.9hPa | 2.6V | 00:00:00 | 02:38:24 | 00:00:00 | |
| DO2SHX-10 | 2026-09-02 00:30:37 | 52.77816 | 10.75354 | 97° | 33km/h | 29363m | 6.6m/s | -45.5°C | 2.5% | 13.9hPa | 2.6V | 00:00:00 | 02:38:23 | 00:00:00 | |
| EDDB2-12 | 2026-09-02 00:30:36 | 52.77816 | 10.75341 | 89° | 33km/h | 29357m | 6.0m/s | -45.6°C | 0.4% | 14.0hPa | 2.6V | 00:00:00 | 00:00:00 | 00:00:00 | |
| DD8BA-10 | 2026-09-02 00:30:35 | 52.77815 | 10.75327 | 84° | 26km/h | 29352m | 4.8m/s | -45.5°C | 2.5% | 13.9hPa | 2.6V | 00:00:00 | 00:00:00 | 00:00:00 | |
| DL1XH-15 | 2026-09-02 00:30:34 | 52.77818 | 10.75253 | 105° | 24km/h | 29319m | 5m/s | -45.5°C | 2.4% | 14.1hPa | 2.6V | 03:23:50 | 02:38:15 | 00:00:00 | |
| DO2SHX-10 | 2026-09-02 00:30:34 | 52.77814 | 10.75313 | 84° | 33km/h | 29347m | 5.0m/s | -45.5°C | 2.4% | 14.0hPa | 2.6V | 00:00:00 | 02:38:20 | 00:00:00 | |
| DL1XH1-15 | 2026-09-02 00:30:33 | 52.77814 | 10.75287 | 93° | 31km/h | 29335m | 5.8m/s | -45.5°C | 2.4% | 14hPa | 2.6V | 03:23:47 | 02:38:18 | 00:00:00 | |
| DL1XH-west | 2026-09-02 00:30:33 | 52.77814 | 10.75300 | 88° | 31km/h | 29341m | 6.2m/s | -45.5°C | 0% | 14hPa | 2.6V | 03:23:59 | 02:38:19 | 00:00:00 | |
| GOEST3-10 | 2026-09-02 00:30:33 | 52.77814 | 10.75300 | 88° | 29km/h | 29341m | 6.1m/s | -45.5°C | 2.4% | 14.0hPa | 2.5V | 03:23:00 | 00:00:00 | 00:00:00 | |
| DL1NUX | 2026-09-02 00:30:32 | 52.77815 | 10.75274 | 100° | 29km/h | 29329m | 5m/s | -45.5°C | 2.4% | 14.1hPa | 2.5V | 03:23:48 | 02:38:17 | 00:00:00 | |
| AA1-15 | 2026-09-02 00:30:31 | 52.77815 | 10.75274 | 100° | 29km/h | 29329m | 5.1m/s | -45.5°C | 0% | 14.1hPa | 2.5V | 03:23:59 | 02:38:17 | 00:00:00 | |
| HSKMA3-T | 2026-09-02 00:30:30 | 52.77816 | 10.75263 | 105° | 27km/h | 29324m | 5.2m/s | -45.5°C | 0% | 14.1hPa | 2.5V | 03:23:59 | 02:38:16 | 00:00:00 | |
| DO3MHA-11 | 2026-09-02 00:30:30 | 52.77816 | 10.75263 | 106° | 18km/h | 29325m | 5.1m/s | -45.5°C | 2.5% | 14.0hPa | 2.5V | 00:00:00 | 02:38:16 | 00:00:00 | |
| DL3OBA | 2026-09-02 00:30:29 | 52.77816 | 10.75263 | 106° | 27km/h | 29325m | 5.2m/s | -45.5°C | 0.4% | 14.1hPa | 2.5V | 03:23:00 | 00:00:00 | 00:00:00 | |
| DO2SHX-10 | 2026-09-02 00:30:28 | 52.77819 | 10.75244 | 101° | 16km/h | 29314m | 6.4m/s | -45.5°C | 2.4% | 14.0hPa | 2.5V | 00:00:00 | 02:38:14 | 00:00:00 | |
| EDDB2-11 | 2026-09-02 00:30:27 | 52.77820 | 10.75237 | 92° | 15km/h | 29307m | 6.4m/s | -45.6°C | 0.4% | 14.1hPa | 2.5V | 00:00:00 | 00:00:00 | 00:00:00 | |
| DB0DAN | 2026-09-02 00:30:25 | 52.77820 | 10.75225 | 95° | 13km/h | 29296m | 4.6m/s | -45.8°C | 0.3% | 14.1hPa | 2.5V | 00:00:00 | 00:00:00 | 00:00:00 | |
| DD8BA-10 | 2026-09-02 00:30:25 | 52.77819 | 10.75225 | 95° | 27km/h | 29297m | 4.6m/s | -45.7°C | 2.4% | 14.1hPa | 2.5V | 03:23:00 | 00:00:00 | 00:00:00 | |
| DL1XH-15 | 2026-09-02 00:30:24 | 52.77832 | 10.75166 | 95° | 33km/h | 29261m | 6.6m/s | -46.1°C | 2.5% | 14.2hPa | 2.5V | 03:24:00 | 02:38:05 | 00:00:00 | |
| DL1XH-west | 2026-09-02 00:30:23 | 52.77825 | 10.75202 | 116° | 27km/h | 29279m | 6m/s | -45.9°C | 0% | 14.2hPa | 2.6V | 03:23:59 | 02:38:08 | 00:00:00 | |
| DL1XH1-15 | 2026-09-02 00:30:23 | 52.77825 | 10.75202 | 116° | 27km/h | 29279m | 6m/s | -45.9°C | 2.5% | 14.2hPa | 2.6V | 03:23:57 | 02:38:08 | 00:00:00 | |
| GOEST3-10 | 2026-09-02 00:30:23 | 52.77822 | 10.75212 | 116° | 29km/h | 29285m | 6.7m/s | -45.7°C | 2.4% | 14.1hPa | 2.6V | 00:00:00 | 00:00:00 | 00:00:00 | |
| DM0DOS-11 | 2026-09-02 00:30:22 | 52.77828 | 10.75112 | 81° | 33km/h | 29239m | 6.2m/s | -46.3°C | 2.5% | 14.2hPa | 2.5V | 03:24:04 | 02:38:01 | 00:00:00 | |
| DL1NUX | 2026-09-02 00:30:22 | 52.77828 | 10.75191 | 111° | 31km/h | 29273m | 5.2m/s | -45.9°C | 2.4% | 14.2hPa | 2.5V | 03:23:58 | 02:38:07 | 00:00:00 | |
| AA1-15 | 2026-09-02 00:30:20 | 52.77831 | 10.75179 | 106° | 31km/h | 29268m | 5.9m/s | -46°C | 0% | 14.2hPa | 2.5V | 03:23:59 | 02:38:06 | 00:00:00 | |
| DF8AY | 2026-09-02 00:30:20 | 52.77827 | 10.75075 | 93° | 26km/h | 29222m | 4.4m/s | -46.3°C | 0% | 14.3hPa | 2.6V | 03:24:50 | 02:37:58 | 00:00:00 | |
| DL3AQ-11 | 2026-09-02 00:30:19 | 52.77832 | 10.75152 | 84° | 31km/h | 29255m | 5.6m/s | -46.2°C | 0.4% | 14.2hPa | 2.6V | 00:00:00 | 00:00:00 | 00:00:00 | |
| DJ8HS-15 | 2026-09-02 00:30:18 | 52.77832 | 10.75152 | 85° | 27km/h | 29255m | 5.6m/s | -46.1°C | 2.5% | 14.1hPa | 2.6V | 03:24:00 | 02:38:04 | 00:00:00 | |
| BIOWL9-15 | 2026-09-02 00:30:17 | 52.77829 | 10.75126 | 78° | 31km/h | 29245m | 5.2m/s | -46.2°C | 0.4% | 14.2hPa | 2.5V | 00:00:00 | 00:00:00 | 00:00:00 | |
| DD8BA-10 | 2026-09-02 00:30:15 | 52.77828 | 10.75112 | 82° | 22km/h | 29239m | 6.1m/s | -46.2°C | 2.5% | 14.2hPa | 2.5V | 00:00:00 | 00:00:00 | 00:00:00 | |
| DB0UT-7 | 2026-09-02 00:30:14 | 52.77827 | 10.75099 | 88° | 27km/h | 29233m | 6.0m/s | -46.3°C | 2.5% | 14.2hPa | 2.5V | 00:00:00 | 00:00:00 | 00:00:00 | |
| GOEST3-10 | 2026-09-02 00:30:13 | 52.77827 | 10.75086 | 92° | 22km/h | 29227m | 4.9m/s | -46.3°C | 2.6% | 14.2hPa | 2.6V | 03:24:00 | 00:00:00 | 00:00:00 | |
| DL1NUX | 2026-09-02 00:30:12 | 52.77827 | 10.75065 | 87° | 22km/h | 29217m | 5.6m/s | -46.3°C | 2.6% | 14.3hPa | 2.6V | 03:24:08 | 02:37:57 | 00:00:00 | |
| DL1XH-west | 2026-09-02 00:30:12 | 52.77827 | 10.75065 | 88° | 22km/h | 29217m | 5.6m/s | -46.3°C | 0% | 14.3hPa | 2.6V | 03:24:50 | 02:37:57 | 00:00:00 | |
| MECKS9 | 2026-09-02 00:30:11 | 52.77827 | 10.75075 | 94° | 26km/h | 29222m | 4.4m/s | -46.3°C | 0.4% | 14.3hPa | 2.5V | 00:00:00 | 00:00:00 | 00:00:00 | |
| DL1XH-15 | 2026-09-02 00:30:10 | 52.77826 | 10.75051 | 73° | 15km/h | 29204m | 6.3m/s | -46.4°C | 2.5% | 14.3hPa | 2.5V | 03:24:10 | 02:37:55 | 00:00:00 | |
| HSKMA3-T | 2026-09-02 00:30:10 | 52.77827 | 10.75057 | 80° | 18km/h | 29211m | 6.9m/s | -46.3°C | 0% | 14.3hPa | 2.5V | 03:24:50 | 02:37:56 | 00:00:00 | |
| BIOWL1-15 | 2026-09-02 00:30:10 | 52.77825 | 10.75039 | 84° | 15km/h | 29193m | 5.2m/s | -46.4°C | 0% | 14.3hPa | 2.6V | 03:24:50 | 02:37:53 | 00:00:00 | |
| DB0DAN | 2026-09-02 00:30:10 | 52.77827 | 10.75057 | 80° | 16km/h | 29211m | 6.9m/s | -46.3°C | 0.4% | 14.28hPa | 2.5V | 00:00:00 | 00:00:00 | 00:00:00 | |
| AA1-15 | 2026-09-02 00:30:10 | 52.77826 | 10.75051 | 73° | 15km/h | 29204m | 6.3m/s | -46.4°C | 0% | 14.3hPa | 2.5V | 03:24:50 | 02:37:55 | 00:00:00 | |
| DL3OBA | 2026-09-02 00:30:09 | 52.77827 | 10.75057 | 81° | 18km/h | 29211m | 6.9m/s | -46.3°C | 0.4% | 14.3hPa | 2.6V | 03:24:00 | 00:00:00 | 00:00:00 | |
| DM0DOS-11 | 2026-09-02 00:30:08 | 52.77825 | 10.75039 | 83° | 15km/h | 29193m | 5.2m/s | -46.4°C | 2.5% | 14.3hPa | 2.6V | 03:24:12 | 02:37:53 | 00:00:00 | |
| DL3AQ-11 | 2026-09-02 00:30:08 | 52.77825 | 10.75039 | 83° | 15km/h | 29193m | 5.2m/s | -46.4°C | 0.4% | 14.3hPa | 2.5V | 00:00:00 | 00:00:00 | 00:00:00 | |
| DJ2DS-15 | 2026-09-02 00:30:07 | 52.77825 | 10.75039 | 83° | 15km/h | 29193m | 5.2m/s | -46.4°C | 0.4% | 14.3hPa | 2.5V | 00:00:00 | 00:00:00 | 00:00:00 | |
| DD8BA-10 | 2026-09-02 00:30:05 | 52.77825 | 10.75024 | 98° | 31km/h | 29182m | 6.0m/s | -46.4°C | 2.6% | 14.3hPa | 2.5V | 00:00:00 | 00:00:00 | 00:00:00 | |
| DL1XH-15 | 2026-09-02 00:30:04 | 52.77816 | 10.74950 | 59° | 35km/h | 29147m | 5.2m/s | -46.7°C | 2.6% | 14.4hPa | 2.5V | 03:24:20 | 02:37:45 | 00:00:00 | |
| DL1XH1-15 | 2026-09-02 00:30:03 | 52.77826 | 10.74988 | 80° | 31km/h | 29165m | 6.5m/s | -46.6°C | 2.6% | 14.4hPa | 2.6V | 03:24:17 | 02:37:48 | 00:00:00 | |
| DL1XH-west | 2026-09-02 00:30:00 | 52.77820 | 10.74962 | 62° | 35km/h | 29153m | 5.7m/s | -46.7°C | 0% | 14.4hPa | 2.5V | 03:24:50 | 02:37:46 | 00:00:00 | |
| HSKMA3-T | 2026-09-02 00:29:59 | 52.77816 | 10.74950 | 59° | 35km/h | 29147m | 5.2m/s | -46.7°C | 0% | 14.4hPa | 2.5V | 03:24:50 | 02:37:45 | 00:00:00 | |
| BIOWL1-15 | 2026-09-02 00:29:59 | 52.77797 | 10.74894 | 53° | 22km/h | 29118m | 6.5m/s | -46.6°C | 0% | 14.5hPa | 2.5V | 03:24:50 | 02:37:40 | 00:00:00 | |
| DF8AY | 2026-09-02 00:29:56 | 52.77804 | 10.74912 | 66° | 31km/h | 29129m | 5.2m/s | -46.6°C | 0% | 14.5hPa | 2.6V | 03:24:50 | 02:37:42 | 00:00:00 | |
| EDDB2-11 | 2026-09-02 00:29:56 | 52.77804 | 10.74912 | 65° | 29km/h | 29129m | 5.2m/s | -46.6°C | 0.4% | 14.5hPa | 2.6V | 00:00:00 | 00:00:00 | 00:00:00 | |
| DB0DAN | 2026-09-02 00:29:55 | 52.77801 | 10.74902 | 60° | 26km/h | 29124m | 5.3m/s | -46.6°C | 0.4% | 14.49hPa | 2.6V | 00:00:00 | 00:00:00 | 00:00:00 | |
| DD8BA-10 | 2026-09-02 00:29:55 | 52.77801 | 10.74902 | 61° | 27km/h | 29124m | 5.3m/s | -46.5°C | 2.6% | 14.4hPa | 2.6V | 00:00:00 | 00:00:00 | 00:00:00 | |
| DL1XH1-15 | 2026-09-02 00:29:53 | 52.77790 | 10.74881 | 40° | 18km/h | 29105m | 5.1m/s | -46.5°C | 2.6% | 14.5hPa | 2.5V | 03:24:27 | 02:37:38 | 00:00:00 | |
| DO2SHX-10 | 2026-09-02 00:29:53 | 52.77794 | 10.74887 | 45° | 20km/h | 29111m | 6.6m/s | -46.5°C | 2.6% | 14.5hPa | 2.5V | 00:00:00 | 02:37:39 | 00:00:00 | |
| DM0DOS-11 | 2026-09-02 00:29:52 | 52.77774 | 10.74833 | 64° | 38km/h | 29077m | 5m/s | -46.5°C | 2.5% | 14.6hPa | 2.6V | 03:24:32 | 02:37:33 | 00:00:00 | |
| DL1NUX | 2026-09-02 00:29:52 | 52.77787 | 10.74876 | 46° | 20km/h | 29100m | 4.8m/s | -46.5°C | 2.6% | 14.5hPa | 2.6V | 03:24:28 | 02:37:37 | 00:00:00 | |
| HSKMA3-T | 2026-09-02 00:29:49 | 52.77780 | 10.74859 | 67° | 29km/h | 29089m | 6.6m/s | -46.5°C | 0% | 14.6hPa | 2.5V | 03:24:50 | 02:37:35 | 00:00:00 | |
| AA1-15 | 2026-09-02 00:29:48 | 52.77777 | 10.74847 | 68° | 35km/h | 29082m | 5.4m/s | -46.5°C | 0% | 14.6hPa | 2.5V | 03:24:50 | 02:37:34 | 00:00:00 | |
| DF8AY | 2026-09-02 00:29:45 | 52.77762 | 10.74804 | 48° | 42km/h | 29066m | 6.3m/s | -46.6°C | 0% | 14.6hPa | 2.5V | 03:24:50 | 02:37:31 | 00:00:00 | |
| BIOWL1-15 | 2026-09-02 00:29:43 | 52.77729 | 10.74768 | 27° | 31km/h | 29043m | 6.3m/s | -46.6°C | 0% | 14.7hPa | 2.6V | 03:24:50 | 02:37:27 | 00:00:00 | |
| DO2SHX-10 | 2026-09-02 00:29:43 | 52.77746 | 10.74782 | 31° | 37km/h | 29054m | 5.5m/s | -46.6°C | 2.6% | 14.6hPa | 2.5V | 03:24:00 | 02:37:29 | 00:00:00 | |
| DL1NUX | 2026-09-02 00:29:42 | 52.77729 | 10.74768 | 26° | 31km/h | 29043m | 6.3m/s | -46.6°C | 2.6% | 14.7hPa | 2.6V | 03:24:38 | 02:37:27 | 00:00:00 | |
| DL4XJ-10 | 2026-09-02 00:29:42 | 52.77737 | 10.74774 | 27° | 26km/h | 29048m | 5.4m/s | -46.3°C | 0% | 0hPa | 2.6V | 00:00:00 | 00:00:00 | 00:00:00 | |
| DB0DAN | 2026-09-02 00:29:40 | 52.77723 | 10.74762 | 30° | 24km/h | 29036m | 6m/s | -46.6°C | 0.4% | 14.69hPa | 2.6V | 00:00:00 | 00:00:00 | 00:00:00 | |
| DL1XH-west | 2026-09-02 00:29:39 | 52.77715 | 10.74752 | 39° | 15km/h | 29025m | 4.8m/s | -46.6°C | 0% | 14.7hPa | 2.5V | 03:24:50 | 02:37:24 | 00:00:00 | |
| HSKMA3-T | 2026-09-02 00:29:39 | 52.77718 | 10.74757 | 36° | 20km/h | 29031m | 5.7m/s | -46.6°C | 0% | 14.7hPa | 2.5V | 03:24:50 | 02:37:25 | 00:00:00 | |
| DO3MHA-11 | 2026-09-02 00:29:39 | 52.77718 | 10.74757 | 36° | 22km/h | 29031m | 5.7m/s | -46.5°C | 2.6% | 14.6hPa | 2.5V | 03:24:00 | 02:37:25 | 00:00:00 | |
| DM0DOS-11 | 2026-09-02 00:29:38 | 52.77711 | 10.74749 | 34° | 15km/h | 29020m | 4.9m/s | -46.6°C | 2.6% | 14.7hPa | 2.5V | 03:24:42 | 02:37:23 | 00:00:00 | |
| AA1-15 | 2026-09-02 00:29:38 | 52.77712 | 10.74749 | 35° | 15km/h | 29020m | 4.9m/s | -46.6°C | 0% | 14.7hPa | 2.5V | 03:24:50 | 02:37:23 | 00:00:00 | |
| DF8AY | 2026-09-02 00:29:33 | 52.77694 | 10.74734 | 34° | 29km/h | 28998m | 6m/s | -46.6°C | 0% | 14.8hPa | 2.5V | 03:24:50 | 02:37:19 | 00:00:00 | |
| DM0DOS-11 | 2026-09-02 00:29:33 | 52.77650 | 10.74680 | 19° | 31km/h | 28965m | 5.1m/s | -46.6°C | 2.7% | 14.8hPa | 2.5V | 03:24:52 | 02:37:13 | 00:00:00 | |
| DL1NUX | 2026-09-02 00:29:33 | 52.77681 | 10.74716 | 44° | 37km/h | 28986m | 5.8m/s | -46.6°C | 2.6% | 14.8hPa | 2.5V | 03:24:48 | 02:37:17 | 00:00:00 | |
| BIOWL1-15 | 2026-09-02 00:29:31 | 52.77674 | 10.74705 | 41° | 40km/h | 28981m | 4.6m/s | -46.6°C | 0% | 14.8hPa | 2.6V | 03:24:50 | 02:37:16 | 00:00:00 | |
| HSKMA3-T | 2026-09-02 00:29:29 | 52.77666 | 10.74695 | 37° | 40km/h | 28976m | 4.8m/s | -46.6°C | 0% | 14.8hPa | 2.6V | 03:24:50 | 02:37:15 | 00:00:00 | |
| DL1XH-west | 2026-09-02 00:29:28 | 52.77650 | 10.74680 | 20° | 31km/h | 28965m | 5.1m/s | -46.6°C | 0% | 14.8hPa | 2.5V | 03:25:41 | 02:37:13 | 00:00:00 | |
| AA1-15 | 2026-09-02 00:29:27 | 52.77644 | 10.74677 | 10° | 24km/h | 28960m | 5.1m/s | -46.6°C | 0% | 14.8hPa | 2.6V | 03:25:41 | 02:37:12 | 00:00:00 | |
| DB0DAN | 2026-09-02 00:29:25 | 52.77639 | 10.74676 | 3° | 15km/h | 28954m | 5.8m/s | -46.6°C | 0.4% | 14.85hPa | 2.6V | 00:00:00 | 00:00:00 | 00:00:00 | |
| DD8BA-10 | 2026-09-02 00:29:25 | 52.77638 | 10.74676 | 4° | 11km/h | 28955m | 5.8m/s | -46.5°C | 2.6% | 14.8hPa | 2.6V | 00:00:00 | 00:00:00 | 00:00:00 | |
| DL1XH-15 | 2026-09-02 00:29:24 | 52.77638 | 10.74678 | 344° | 7km/h | 28919m | 6.2m/s | -46.6°C | 2.6% | 14.9hPa | 2.6V | 03:25:00 | 02:37:05 | 00:00:00 | |
| DF8AY | 2026-09-02 00:29:23 | 52.77635 | 10.74676 | 219° | 2km/h | 28941m | 6.6m/s | -46.6°C | 0% | 14.9hPa | 2.5V | 03:25:41 | 02:37:09 | 00:00:00 | |
| DO2SHX-10 | 2026-09-02 00:29:23 | 52.77635 | 10.74676 | 219° | 5km/h | 28942m | 6.6m/s | -46.5°C | 2.6% | 14.9hPa | 2.5V | 00:00:00 | 02:37:09 | 00:00:00 | |
| DL4XJ-10 | 2026-09-02 00:29:22 | 52.77636 | 10.74677 | 187° | 15km/h | 28936m | 5.2m/s | -46.2°C | 0% | 0hPa | 2.5V | 00:00:00 | 00:00:00 | 00:00:00 | |
| DM0DOS-11 | 2026-09-02 00:29:21 | 52.77631 | 10.74678 | 13° | 22km/h | 28909m | 5.2m/s | -46.7°C | 2.5% | 15hPa | 2.5V | 03:25:02 | 02:37:03 | 00:00:00 | |
| BIOWL1-15 | 2026-09-02 00:29:19 | 52.77607 | 10.74658 | 35° | 24km/h | 28886m | 5.1m/s | -46.9°C | 0% | 15hPa | 2.6V | 03:25:41 | 02:36:59 | 00:00:00 | |
| HSKMA3-T | 2026-09-02 00:29:18 | 52.77635 | 10.74679 | 2° | 15km/h | 28914m | 5.7m/s | -46.6°C | 0% | 14.9hPa | 2.5V | 03:25:41 | 02:37:04 | 00:00:00 | |
| DF8AY | 2026-09-02 00:29:17 | 52.77602 | 10.74653 | 27° | 20km/h | 28880m | 5.1m/s | -46.9°C | 0% | 15hPa | 2.5V | 03:25:41 | 02:36:58 | 00:00:00 | |
| AA1-15 | 2026-09-02 00:29:17 | 52.77625 | 10.74675 | 22° | 27km/h | 28903m | 6.4m/s | -46.7°C | 0% | 15hPa | 2.5V | 03:25:41 | 02:37:02 | 00:00:00 | |
| DK1YY | 2026-09-02 00:29:16 | 52.77619 | 10.74670 | 29° | 27km/h | 28897m | 6.8m/s | -46.8°C | 0.4% | 15.0hPa | 2.5V | 00:00:00 | 00:00:00 | 00:00:00 | |
| DD8BA-10 | 2026-09-02 00:29:15 | 52.77619 | 10.74670 | 30° | 18km/h | 28897m | 6.7m/s | -46.8°C | 2.6% | 15.0hPa | 2.5V | 00:00:00 | 00:00:00 | 00:00:00 | |
| DL1XH1-15 | 2026-09-02 00:29:14 | 52.77602 | 10.74653 | 27° | 20km/h | 28880m | 5.1m/s | -46.9°C | 2.6% | 15hPa | 2.5V | 03:25:07 | 02:36:58 | 00:00:00 | |
| DB0NH | 2026-09-02 00:29:13 | 52.77607 | 10.74658 | 35° | 11km/h | 28886m | 5.0m/s | -46.8°C | 2.6% | 14.9hPa | 2.5V | 00:00:00 | 02:36:59 | 00:00:00 | |
| DO2SHX-10 | 2026-09-02 00:29:12 | 52.77602 | 10.74653 | 28° | 16km/h | 28881m | 5.0m/s | -46.8°C | 2.6% | 15.0hPa | 2.5V | 00:00:00 | 02:36:58 | 00:00:00 | |
| DB0DAN | 2026-09-02 00:29:10 | 52.77594 | 10.74651 | 338° | 13km/h | 28869m | 5.7m/s | -46.9°C | 0.4% | 15.06hPa | 2.5V | 00:00:00 | 00:00:00 | 00:00:00 | |
| DL1XH-15 | 2026-09-02 00:29:10 | 52.77592 | 10.74655 | 305° | 13km/h | 28863m | 5.6m/s | -46.9°C | 2.6% | 15.1hPa | 2.6V | 03:25:10 | 02:36:55 | 00:00:00 | |
| BIOWL1-15 | 2026-09-02 00:29:08 | 52.77597 | 10.74672 | 196° | 7km/h | 28835m | 4.9m/s | -47°C | 0% | 15.1hPa | 2.6V | 03:25:41 | 02:36:50 | 00:00:00 | |
| HSKMA3-T | 2026-09-02 00:29:08 | 52.77590 | 10.74659 | 276° | 13km/h | 28858m | 5.6m/s | -47°C | 0% | 15.1hPa | 2.6V | 03:25:41 | 02:36:54 | 00:00:00 | |
| DM0DOS-11 | 2026-09-02 00:29:08 | 52.77591 | 10.74664 | 250° | 11km/h | 28852m | 6.6m/s | -47°C | 2.7% | 15.1hPa | 2.5V | 03:25:12 | 02:36:53 | 00:00:00 | |
| DL1XH-west | 2026-09-02 00:29:06 | 52.77592 | 10.74668 | 222° | 13km/h | 28846m | 6.4m/s | -47°C | 0% | 15.1hPa | 2.5V | 03:25:41 | 02:36:52 | 00:00:00 | |
| AA1-15 | 2026-09-02 00:29:05 | 52.77595 | 10.74670 | 203° | 11km/h | 28840m | 5.7m/s | -47°C | 0% | 15.2hPa | 2.6V | 03:25:41 | 02:36:51 | 00:00:00 | |
| DD8BA-10 | 2026-09-02 00:29:05 | 52.77595 | 10.74670 | 203° | 11km/h | 28840m | 5.6m/s | -47.0°C | 2.7% | 15.1hPa | 2.5V | 03:25:00 | 00:00:00 | 00:00:00 | |
| DM0DOS-11 | 2026-09-02 00:29:03 | 52.77580 | 10.74661 | 53° | 9km/h | 28788m | 5.2m/s | -47°C | 2.6% | 15.3hPa | 2.5V | 03:25:23 | 02:36:42 | 00:00:00 | |
| DF8AY | 2026-09-02 00:29:02 | 52.77597 | 10.74673 | 350° | 5km/h | 28823m | 6.7m/s | -47°C | 0% | 15.2hPa | 2.5V | 03:25:41 | 02:36:48 | 00:00:00 | |
| HSKMA3-T | 2026-09-02 00:28:57 | 52.77582 | 10.74665 | 45° | 13km/h | 28793m | 5.5m/s | -47°C | 0% | 15.2hPa | 2.5V | 03:25:41 | 02:36:43 | 00:00:00 | |
| DO2SHX-10 | 2026-09-02 00:28:57 | 52.77582 | 10.74665 | 46° | 9km/h | 28794m | 5.4m/s | -46.9°C | 2.7% | 15.2hPa | 2.5V | 00:00:00 | 02:36:43 | 00:00:00 | |
| DB0DAN | 2026-09-02 00:28:55 | 52.77579 | 10.74659 | 53° | 7km/h | 28782m | 6.2m/s | -47°C | 0.4% | 15.25hPa | 2.5V | 00:00:00 | 00:00:00 | 00:00:00 | |
| BIOWL1-15 | 2026-09-02 00:28:55 | 52.77579 | 10.74659 | 53° | 7km/h | 28782m | 6.2m/s | -47°C | 0% | 15.2hPa | 2.5V | 03:25:41 | 02:36:41 | 00:00:00 | |
| DD8BA-10 | 2026-09-02 00:28:55 | 52.77579 | 10.74658 | 54° | 7km/h | 28783m | 6.2m/s | -46.9°C | 2.7% | 15.2hPa | 2.5V | 00:00:00 | 00:00:00 | 00:00:00 | |
| AA1-15 | 2026-09-02 00:28:55 | 52.77578 | 10.74657 | 48° | 4km/h | 28776m | 6m/s | -47°C | 0% | 15.3hPa | 2.6V | 03:25:41 | 02:36:40 | 00:00:00 | |
| DO2SHX-10 | 2026-09-02 00:28:54 | 52.77578 | 10.74657 | 48° | 4km/h | 28776m | 6.0m/s | -46.9°C | 2.7% | 15.2hPa | 2.6V | 00:00:00 | 02:36:40 | 00:00:00 | |
| DL1NUX | 2026-09-02 00:28:52 | 52.77580 | 10.74654 | 153° | 9km/h | 28759m | 6.7m/s | -46.9°C | 2.7% | 15.3hPa | 2.5V | 03:25:28 | 02:36:37 | 00:00:00 | |
| DF8AY | 2026-09-02 00:28:51 | 52.77590 | 10.74643 | 11° | 5km/h | 28725m | 5.6m/s | -46.8°C | 0% | 15.4hPa | 2.5V | 03:25:41 | 02:36:31 | 00:00:00 | |
| DM0DOS-11 | 2026-09-02 00:28:51 | 52.77591 | 10.74643 | 49° | 0km/h | 28730m | 6.1m/s | -46.8°C | 2.6% | 15.4hPa | 2.5V | 03:25:33 | 02:36:32 | 00:00:00 | |
| HSKMA3-T | 2026-09-02 00:28:46 | 52.77591 | 10.74643 | 49° | 0km/h | 28730m | 6.1m/s | -46.8°C | 0% | 15.4hPa | 2.5V | 03:25:41 | 02:36:32 | 00:00:00 | |
| AU51GT2 | 2026-09-02 00:28:46 | 52.77590 | 10.74643 | 10° | 5km/h | 28725m | 5.6m/s | -46.8°C | 0.4% | 15.4hPa | 2.5V | 00:00:00 | 00:00:00 | 00:00:00 | |
| BIOWL1-15 | 2026-09-02 00:28:45 | 52.77585 | 10.74636 | 62° | 13km/h | 28707m | 5.6m/s | -46.7°C | 0% | 15.4hPa | 2.5V | 03:25:41 | 02:36:28 | 00:00:00 | |
| DL1XH-15 | 2026-09-02 00:28:44 | 52.77581 | 10.74619 | 76° | 15km/h | 28690m | 6.5m/s | -46.7°C | 2.6% | 15.5hPa | 2.6V | 03:25:40 | 02:36:25 | 00:00:00 | |
| AA1-15 | 2026-09-02 00:28:44 | 52.77587 | 10.74640 | 46° | 9km/h | 28713m | 6.4m/s | -46.8°C | 0% | 15.4hPa | 2.6V | 03:25:41 | 02:36:29 | 00:00:00 | |
| DB0NH | 2026-09-02 00:28:43 | 52.77586 | 10.74640 | 47° | 18km/h | 28714m | 6.3m/s | -46.7°C | 2.6% | 15.4hPa | 2.6V | 03:25:00 | 02:36:29 | 00:00:00 | |
| DL1NUX | 2026-09-02 00:28:42 | 52.77584 | 10.74631 | 70° | 15km/h | 28701m | 4.9m/s | -46.7°C | 2.6% | 15.4hPa | 2.5V | 03:25:38 | 02:36:27 | 00:00:00 | |
| DL4XJ-10 | 2026-09-02 00:28:42 | 52.77585 | 10.74636 | 62° | 15km/h | 28708m | 5.6m/s | -46.4°C | 0% | 0hPa | 2.5V | 00:00:00 | 00:00:00 | 00:00:00 | |
| DM0DOS-11 | 2026-09-02 00:28:41 | 52.77582 | 10.74602 | 122° | 15km/h | 28674m | 5.2m/s | -46.7°C | 2.6% | 15.5hPa | 2.5V | 03:25:43 | 02:36:22 | 00:00:00 | |
| DB0DAN | 2026-09-02 00:28:40 | 52.77582 | 10.74625 | 76° | 15km/h | 28696m | 5.3m/s | -46.7°C | 0.4% | 15.47hPa | 2.5V | 00:00:00 | 00:00:00 | 00:00:00 | |
| HSKMA3-T | 2026-09-02 00:28:36 | 52.77582 | 10.74602 | 123° | 15km/h | 28674m | 5.2m/s | -46.7°C | 0% | 15.5hPa | 2.5V | 03:26:32 | 02:36:22 | 00:00:00 | |
| DF8AY | 2026-09-02 00:28:35 | 52.77607 | 10.74567 | 92° | 4km/h | 28633m | 5.8m/s | -46.9°C | 0% | 15.6hPa | 2.5V | 03:26:32 | 02:36:15 | 00:00:00 | |
| DD8BA-10 | 2026-09-02 00:28:35 | 52.77585 | 10.74596 | 135° | 15km/h | 28669m | 6.3m/s | -46.6°C | 2.6% | 15.5hPa | 2.5V | 00:00:00 | 00:00:00 | 00:00:00 | |
| DL1XH-15 | 2026-09-02 00:28:34 | 52.77607 | 10.74567 | 91° | 4km/h | 28633m | 5.8m/s | -46.9°C | 2.6% | 15.6hPa | 2.5V | 03:25:50 | 02:36:15 | 00:00:00 | |
| BIOWL1-15 | 2026-09-02 00:28:33 | 52.77594 | 10.74583 | 143° | 27km/h | 28655m | 5.1m/s | -46.7°C | 0% | 15.5hPa | 2.6V | 03:27:23 | 02:36:19 | 00:00:00 | |
| DL1XH1-15 | 2026-09-02 00:28:33 | 52.77599 | 10.74577 | 144° | 24km/h | 28650m | 4.6m/s | -46.7°C | 2.6% | 15.6hPa | 2.6V | 03:25:47 | 02:36:18 | 00:00:00 | |
| AA1-15 | 2026-09-02 00:28:32 | 52.77599 | 10.74577 | 144° | 24km/h | 28650m | 4.6m/s | -46.7°C | 0% | 15.6hPa | 2.6V | 03:26:32 | 02:36:18 | 00:00:00 | |
| HSKMA3-T | 2026-09-02 00:28:26 | 52.77604 | 10.74559 | 72° | 13km/h | 28617m | 6.3m/s | -47°C | 0% | 15.6hPa | 2.6V | 03:26:32 | 02:36:12 | 00:00:00 | |
| DB0DAN | 2026-09-02 00:28:25 | 52.77604 | 10.74552 | 93° | 16km/h | 28611m | 5.5m/s | -47°C | 0.4% | 15.63hPa | 2.5V | 00:00:00 | 00:00:00 | 00:00:00 | |
| DD8BA-10 | 2026-09-02 00:28:25 | 52.77603 | 10.74552 | 94° | 22km/h | 28611m | 5.4m/s | -46.9°C | 2.6% | 15.6hPa | 2.5V | 03:25:00 | 00:00:00 | 00:00:00 | |
| DO2SHX-10 | 2026-09-02 00:28:24 | 52.77604 | 10.74545 | 106° | 18km/h | 28606m | 4.3m/s | -46.9°C | 2.7% | 15.6hPa | 2.6V | 00:00:00 | 02:36:10 | 00:00:00 | |
| DL1XH1-15 | 2026-09-02 00:28:23 | 52.77609 | 10.74531 | 132° | 18km/h | 28595m | 6.3m/s | -47°C | 2.6% | 15.7hPa | 2.6V | 03:25:57 | 02:36:08 | 00:00:00 | |
| EDDB2-11 | 2026-09-02 00:28:23 | 52.77609 | 10.74531 | 132° | 18km/h | 28595m | 6.3m/s | -47.0°C | 0.4% | 15.7hPa | 2.5V | 00:00:00 | 00:00:00 | 00:00:00 | |
| DL1XH-15 | 2026-09-02 00:28:22 | 52.77622 | 10.74518 | 153° | 26km/h | 28578m | 4.9m/s | -47.1°C | 2.6% | 15.7hPa | 2.5V | 03:26:00 | 02:36:05 | 00:00:00 | |
| AA1-15 | 2026-09-02 00:28:22 | 52.77609 | 10.74531 | 132° | 18km/h | 28595m | 6.3m/s | -47°C | 0% | 15.7hPa | 2.6V | 03:26:32 | 02:36:08 | 00:00:00 | |
| DL1XH-west | 2026-09-02 00:28:22 | 52.77613 | 10.74526 | 147° | 20km/h | 28589m | 5.8m/s | -47.1°C | 0% | 15.7hPa | 2.6V | 03:26:32 | 02:36:07 | 00:00:00 | |
| DF8AY | 2026-09-02 00:28:20 | 52.77622 | 10.74518 | 154° | 26km/h | 28578m | 4.9m/s | -47.1°C | 0% | 15.7hPa | 2.5V | 03:26:32 | 02:36:05 | 00:00:00 | |
| HSKMA3-T | 2026-09-02 00:28:15 | 52.77644 | 10.74491 | 130° | 26km/h | 28557m | 4.4m/s | -47.2°C | 0% | 15.8hPa | 2.6V | 03:26:32 | 02:36:01 | 00:00:00 | |
| DD8BA-10 | 2026-09-02 00:28:15 | 52.77644 | 10.74491 | 131° | 16km/h | 28557m | 4.4m/s | -47.2°C | 2.7% | 15.7hPa | 2.5V | 00:00:00 | 00:00:00 | 00:00:00 | |
| DB0UT-7 | 2026-09-02 00:28:14 | 52.77647 | 10.74483 | 123° | 18km/h | 28552m | 5.2m/s | -47.2°C | 2.6% | 15.7hPa | 2.5V | 00:00:00 | 00:00:00 | 00:00:00 | |
| DL1XH1-15 | 2026-09-02 00:28:13 | 52.77650 | 10.74473 | 86° | 7km/h | 28540m | 6m/s | -47.3°C | 2.6% | 15.8hPa | 2.5V | 03:26:07 | 02:35:58 | 00:00:00 | |
| DB0NH | 2026-09-02 00:28:13 | 52.77649 | 10.74477 | 112° | 18km/h | 28546m | 6.0m/s | -47.2°C | 2.6% | 15.8hPa | 2.6V | 00:00:00 | 02:35:59 | 00:00:00 | |
| DL1XH-15 | 2026-09-02 00:28:12 | 52.77648 | 10.74464 | 76° | 11km/h | 28524m | 5.3m/s | -47.3°C | 2.7% | 15.8hPa | 2.6V | 03:26:10 | 02:35:55 | 00:00:00 | |
| AA1-15 | 2026-09-02 00:28:12 | 52.77649 | 10.74470 | 61° | 7km/h | 28534m | 5m/s | -47.3°C | 0% | 15.8hPa | 2.5V | 03:26:32 | 02:35:57 | 00:00:00 | |
| DM0DOS-11 | 2026-09-02 00:28:11 | 52.77649 | 10.74440 | 108° | 27km/h | 28507m | 5m/s | -47.4°C | 2.7% | 15.9hPa | 2.6V | 03:26:13 | 02:35:52 | 00:00:00 | |
| DL1XH-west | 2026-09-02 00:28:11 | 52.77648 | 10.74468 | 59° | 7km/h | 28530m | 4.2m/s | -47.3°C | 0% | 15.9hPa | 2.6V | 03:26:32 | 02:35:56 | 00:00:00 | |
| DB0DAN | 2026-09-02 00:28:10 | 52.77648 | 10.74468 | 59° | 7km/h | 28530m | 4.2m/s | -47.3°C | 0.4% | 15.86hPa | 2.6V | 00:00:00 | 00:00:00 | 00:00:00 | |
| BIOWL1-15 | 2026-09-02 00:28:05 | 52.77652 | 10.74429 | 116° | 26km/h | 28503m | 4.1m/s | -47.4°C | 0% | 15.9hPa | 2.6V | 03:27:23 | 02:35:51 | 00:00:00 | |
| HSKMA3-T | 2026-09-02 00:28:04 | 52.77655 | 10.74421 | 125° | 22km/h | 28498m | 4.6m/s | -47.4°C | 0% | 15.9hPa | 2.5V | 03:26:32 | 02:35:50 | 00:00:00 | |
| SMARD9-10 | 2026-09-02 00:28:04 | 52.77651 | 10.74429 | 117° | 26km/h | 28503m | 4.1m/s | -47.4°C | 0.4% | 15.9hPa | 2.6V | 00:00:00 | 00:00:00 | 00:00:00 | |
| DO2SHX-10 | 2026-09-02 00:28:03 | 52.77658 | 10.74414 | 137° | 11km/h | 28493m | 5.7m/s | -47.4°C | 2.7% | 15.9hPa | 2.6V | 03:26:00 | 02:35:49 | 00:00:00 | |
| DL1NUX | 2026-09-02 00:28:02 | 52.77662 | 10.74409 | 160° | 4km/h | 28482m | 5.4m/s | -47.5°C | 2.8% | 16hPa | 2.6V | 03:26:18 | 02:35:47 | 00:00:00 | |
| DL4XJ-10 | 2026-09-02 00:28:02 | 52.77660 | 10.74410 | 149° | 20km/h | 28487m | 5.4m/s | -47.1°C | 0% | 0hPa | 2.5V | 00:00:00 | 00:00:00 | 00:00:00 | |
| DM0DOS-11 | 2026-09-02 00:28:01 | 52.77661 | 10.74391 | 103° | 22km/h | 28455m | 5.8m/s | -47.5°C | 2.8% | 16hPa | 2.5V | 03:26:23 | 02:35:42 | 00:00:00 | |
| AA1-15 | 2026-09-02 00:28:00 | 52.77662 | 10.74409 | 50° | 2km/h | 28476m | 5.4m/s | -47.5°C | 0% | 15.9hPa | 2.6V | 03:26:32 | 02:35:46 | 00:00:00 | |
| DL1XH-west | 2026-09-02 00:27:59 | 52.77662 | 10.74407 | 51° | 7km/h | 28471m | 5.2m/s | -47.5°C | 0% | 16hPa | 2.6V | 03:26:32 | 02:35:45 | 00:00:00 | |
| DF8AY | 2026-09-02 00:27:58 | 52.77660 | 10.74404 | 72° | 11km/h | 28466m | 5.3m/s | -47.5°C | 0% | 16hPa | 2.5V | 03:26:32 | 02:35:44 | 00:00:00 | |
| DJ8HS-15 | 2026-09-02 00:27:58 | 52.77660 | 10.74404 | 73° | 24km/h | 28466m | 5.3m/s | -47.5°C | 0% | 15.9hPa | 2.6V | 00:00:00 | 02:35:44 | 00:00:00 | |
| DO2SHX-10 | 2026-09-02 00:27:57 | 52.77660 | 10.74398 | 93° | 22km/h | 28460m | 5.2m/s | -47.5°C | 2.8% | 16.0hPa | 2.6V | 00:00:00 | 02:35:43 | 00:00:00 | |
| DB0DAN | 2026-09-02 00:27:55 | 52.77663 | 10.74381 | 111° | 26km/h | 28449m | 6.1m/s | -47.5°C | 0.4% | 16.04hPa | 2.6V | 00:00:00 | 00:00:00 | 00:00:00 | |
| BIOWL1-15 | 2026-09-02 00:27:55 | 52.77663 | 10.74381 | 111° | 26km/h | 28449m | 6.1m/s | -47.5°C | 0% | 16hPa | 2.6V | 03:27:23 | 02:35:41 | 00:00:00 | |
| HSKMA3-T | 2026-09-02 00:27:54 | 52.77665 | 10.74371 | 117° | 29km/h | 28442m | 5.8m/s | -47.5°C | 0% | 16hPa | 2.6V | 03:26:32 | 02:35:40 | 00:00:00 | |
| DO2SHX-10 | 2026-09-02 00:27:54 | 52.77665 | 10.74371 | 117° | 27km/h | 28443m | 5.7m/s | -47.5°C | 2.7% | 16.0hPa | 2.5V | 00:00:00 | 02:35:40 | 00:00:00 | |
| DL1XH1-15 | 2026-09-02 00:27:53 | 52.77672 | 10.74351 | 123° | 26km/h | 28432m | 5m/s | -47.5°C | 2.7% | 16.1hPa | 2.5V | 03:26:27 | 02:35:38 | 00:00:00 | |
| DL3AQ-11 | 2026-09-02 00:27:52 | 52.77675 | 10.74342 | 119° | 24km/h | 28427m | 4.3m/s | -47.5°C | 0.4% | 16.0hPa | 2.5V | 00:00:00 | 00:00:00 | 00:00:00 | |
| DM0DOS-11 | 2026-09-02 00:27:51 | 52.77682 | 10.74290 | 95° | 24km/h | 28401m | 4.6m/s | -47.5°C | 2.7% | 16.1hPa | 2.5V | 03:26:33 | 02:35:32 | 00:00:00 | |
| AA1-15 | 2026-09-02 00:27:49 | 52.77680 | 10.74323 | 105° | 26km/h | 28417m | 6.5m/s | -47.5°C | 0% | 16.1hPa | 2.6V | 03:26:32 | 02:35:35 | 00:00:00 | |
| DF8AY | 2026-09-02 00:27:47 | 52.77682 | 10.74290 | 96° | 24km/h | 28401m | 4.6m/s | -47.5°C | 0% | 16.1hPa | 2.5V | 03:28:14 | 02:35:32 | 00:00:00 | |
| BIOWL1-15 | 2026-09-02 00:27:44 | 52.77685 | 10.74274 | 116° | 18km/h | 28389m | 6.3m/s | -47.5°C | 0% | 16.2hPa | 2.6V | 03:27:23 | 02:35:30 | 00:00:00 | |
| DD8BA-10 | 2026-09-02 00:27:44 | 52.77685 | 10.74274 | 116° | 27km/h | 28389m | 6.2m/s | -47.4°C | 2.7% | 16.1hPa | 2.6V | 03:26:00 | 00:00:00 | 00:00:00 | |
| DL1XH1-15 | 2026-09-02 00:27:43 | 52.77691 | 10.74261 | 129° | 22km/h | 28378m | 5.4m/s | -47.5°C | 2.7% | 16.2hPa | 2.6V | 03:26:37 | 02:35:28 | 00:00:00 | |
| HSKMA3-T | 2026-09-02 00:27:43 | 52.77687 | 10.74267 | 129° | 18km/h | 28384m | 5.5m/s | -47.5°C | 0% | 16.2hPa | 2.6V | 03:27:23 | 02:35:29 | 00:00:00 | |
| DB0NH | 2026-09-02 00:27:43 | 52.77687 | 10.74267 | 130° | 27km/h | 28384m | 5.4m/s | -47.4°C | 2.7% | 16.1hPa | 2.5V | 00:00:00 | 02:35:29 | 00:00:00 | |
| DL1NUX | 2026-09-02 00:27:42 | 52.77694 | 10.74253 | 125° | 26km/h | 28372m | 6.2m/s | -47.5°C | 2.7% | 16.2hPa | 2.5V | 03:26:38 | 02:35:27 | 00:00:00 | |
| DL1XH-15 | 2026-09-02 00:27:42 | 52.77701 | 10.74230 | 111° | 33km/h | 28362m | 4.5m/s | -47.5°C | 2.7% | 16.2hPa | 2.5V | 03:26:40 | 02:35:25 | 00:00:00 | |
| DO2SHX-10 | 2026-09-02 00:27:42 | 52.77690 | 10.74261 | 130° | 26km/h | 28378m | 5.4m/s | -47.4°C | 2.7% | 16.2hPa | 2.6V | 00:00:00 | 02:35:28 | 00:00:00 | |
| DM0DOS-11 | 2026-09-02 00:27:41 | 52.77708 | 10.74193 | 99° | 27km/h | 28345m | 6.3m/s | -47.5°C | 2.8% | 16.3hPa | 2.6V | 03:26:43 | 02:35:22 | 00:00:00 | |
| DB0DAN | 2026-09-02 00:27:40 | 52.77698 | 10.74243 | 117° | 29km/h | 28367m | 5.3m/s | -47.5°C | 0.4% | 16.23hPa | 2.5V | 00:00:00 | 00:00:00 | 00:00:00 | |
| DL1XH-west | 2026-09-02 00:27:39 | 52.77701 | 10.74230 | 111° | 35km/h | 28362m | 4.5m/s | -47.5°C | 0% | 16.2hPa | 2.5V | 03:27:23 | 02:35:25 | 00:00:00 | |
| AA1-15 | 2026-09-02 00:27:38 | 52.77704 | 10.74217 | 108° | 33km/h | 28357m | 5m/s | -47.5°C | 0% | 16.3hPa | 2.6V | 03:27:23 | 02:35:24 | 00:00:00 | |
| DF8AY | 2026-09-02 00:27:36 | 52.77708 | 10.74182 | 93° | 26km/h | 28339m | 5.2m/s | -47.6°C | 0% | 16.3hPa | 2.5V | 03:28:14 | 02:35:21 | 00:00:00 | |
| HSKMA3-T | 2026-09-02 00:27:33 | 52.77708 | 10.74158 | 82° | 29km/h | 28328m | 6.7m/s | -47.6°C | 0% | 16.3hPa | 2.5V | 03:27:23 | 02:35:19 | 00:00:00 | |
| DL1XH-15 | 2026-09-02 00:27:33 | 52.77703 | 10.74110 | 86° | 24km/h | 28303m | 6.5m/s | -47.7°C | 2.8% | 16.4hPa | 2.5V | 03:26:50 | 02:35:15 | 00:00:00 | |
| DL1NUX | 2026-09-02 00:27:33 | 52.77705 | 10.74133 | 79° | 31km/h | 28316m | 5.2m/s | -47.7°C | 2.8% | 16.4hPa | 2.6V | 03:26:48 | 02:35:17 | 00:00:00 | |
| BIOWL1-15 | 2026-09-02 00:27:32 | 52.77706 | 10.74145 | 81° | 33km/h | 28321m | 6.1m/s | -47.7°C | 0% | 16.4hPa | 2.6V | 03:27:23 | 02:35:18 | 00:00:00 | |
| DM0DOS-11 | 2026-09-02 00:27:31 | 52.77705 | 10.74082 | 100° | 26km/h | 28288m | 5.5m/s | -47.8°C | 2.8% | 16.4hPa | 2.5V | 03:26:53 | 02:35:12 | 00:00:00 | |
| DL1XH-west | 2026-09-02 00:27:29 | 52.77703 | 10.74100 | 94° | 22km/h | 28298m | 5.1m/s | -47.7°C | 0% | 16.4hPa | 2.6V | 03:27:23 | 02:35:14 | 00:00:00 | |
| AA1-15 | 2026-09-02 00:27:27 | 52.77704 | 10.74092 | 100° | 22km/h | 28293m | 4.5m/s | -47.7°C | 0% | 16.4hPa | 2.6V | 03:27:23 | 02:35:13 | 00:00:00 | |
| DO2SHX-10 | 2026-09-02 00:27:27 | 52.77704 | 10.74092 | 100° | 26km/h | 28293m | 4.4m/s | -47.7°C | 2.8% | 16.4hPa | 2.5V | 03:26:00 | 02:35:13 | 00:00:00 | |
| DB0DAN | 2026-09-02 00:27:25 | 52.77706 | 10.74071 | 100° | 27km/h | 28282m | 6.5m/s | -47.8°C | 0.5% | 16.46hPa | 2.5V | 00:00:00 | 00:00:00 | 00:00:00 | |
| DF8AY | 2026-09-02 00:27:24 | 52.77678 | 10.73951 | 57° | 33km/h | 28222m | 4.1m/s | -47.6°C | 0% | 16.6hPa | 2.5V | 03:28:14 | 02:35:00 | 00:00:00 | |
| DO2SHX-10 | 2026-09-02 00:27:24 | 52.77707 | 10.74058 | 96° | 33km/h | 28276m | 5.5m/s | -47.7°C | 2.8% | 16.4hPa | 2.5V | 00:00:00 | 02:35:10 | 00:00:00 | |
| DL1XH-15 | 2026-09-02 00:27:22 | 52.77701 | 10.73999 | 50° | 24km/h | 28248m | 5.4m/s | -47.7°C | 2.8% | 16.5hPa | 2.5V | 03:27:00 | 02:35:05 | 00:00:00 | |
| DL1NUX | 2026-09-02 00:27:22 | 52.77704 | 10.74008 | 63° | 26km/h | 28254m | 6.4m/s | -47.7°C | 2.7% | 16.5hPa | 2.5V | 03:26:59 | 02:35:06 | 00:00:00 | |
| DL4XJ-10 | 2026-09-02 00:27:22 | 52.77707 | 10.74030 | 87° | 26km/h | 28266m | 4.6m/s | -47.4°C | 0% | 0hPa | 2.6V | 00:00:00 | 00:00:00 | 00:00:00 | |
| HSKMA3-T | 2026-09-02 00:27:22 | 52.77707 | 10.74030 | 86° | 31km/h | 28266m | 4.7m/s | -47.7°C | 0% | 16.5hPa | 2.6V | 03:27:23 | 02:35:08 | 00:00:00 | |
| DM0DOS-11 | 2026-09-02 00:27:21 | 52.77687 | 10.73973 | 51° | 31km/h | 28231m | 5.9m/s | -47.6°C | 2.7% | 16.6hPa | 2.6V | 03:27:03 | 02:35:02 | 00:00:00 | |
| BIOWL1-15 | 2026-09-02 00:27:21 | 52.77706 | 10.74018 | 76° | 27km/h | 28260m | 6.5m/s | -47.7°C | 0% | 16.5hPa | 2.6V | 03:27:23 | 02:35:07 | 00:00:00 | |
| DL1XH-west | 2026-09-02 00:27:17 | 52.77692 | 10.73983 | 47° | 29km/h | 28238m | 6m/s | -47.7°C | 0% | 16.6hPa | 2.6V | 03:27:23 | 02:35:03 | 00:00:00 | |
| AA1-15 | 2026-09-02 00:27:16 | 52.77687 | 10.73973 | 52° | 31km/h | 28231m | 5.9m/s | -47.6°C | 0% | 16.6hPa | 2.6V | 03:27:23 | 02:35:02 | 00:00:00 | |
| DF8AY | 2026-09-02 00:27:12 | 52.77669 | 10.73930 | 56° | 27km/h | 28211m | 6.1m/s | -47.6°C | 0% | 16.6hPa | 2.5V | 03:28:14 | 02:34:58 | 00:00:00 | |
| DL1XH-15 | 2026-09-02 00:27:12 | 52.77660 | 10.73900 | 71° | 27km/h | 28194m | 7.2m/s | -47.5°C | 2.8% | 16.7hPa | 2.5V | 03:27:10 | 02:34:55 | 00:00:00 | |
| HSKMA3-T | 2026-09-02 00:27:11 | 52.77665 | 10.73920 | 59° | 26km/h | 28206m | 5.1m/s | -47.5°C | 0% | 16.6hPa | 2.6V | 03:27:23 | 02:34:57 | 00:00:00 | |
| DB0DAN | 2026-09-02 00:27:10 | 52.77662 | 10.73911 | 66° | 26km/h | 28200m | 5.6m/s | -47.5°C | 0.4% | 16.65hPa | 2.6V | 00:00:00 | 00:00:00 | 00:00:00 | |
| BIOWL1-15 | 2026-09-02 00:27:08 | 52.77658 | 10.73890 | 76° | 27km/h | 28188m | 5.5m/s | -47.5°C | 0% | 16.7hPa | 2.5V | 03:27:23 | 02:34:54 | 00:00:00 | |
| DL1XH-west | 2026-09-02 00:27:07 | 52.77655 | 10.73871 | 75° | 18km/h | 28177m | 5.9m/s | -47.5°C | 0% | 16.7hPa | 2.6V | 03:27:23 | 02:34:52 | 00:00:00 | |
| AA1-15 | 2026-09-02 00:27:05 | 52.77654 | 10.73865 | 70° | 15km/h | 28171m | 6.8m/s | -47.5°C | 0% | 16.7hPa | 2.6V | 03:27:23 | 02:34:51 | 00:00:00 | |
| DL4BBY-15 | 2026-09-02 00:27:05 | 52.77654 | 10.73865 | 70° | 15km/h | 28170m | 6.7m/s | -47.2°C | 0% | 0hPa | 2.6V | 00:00:00 | 00:00:00 | 00:00:00 | |
| DD8BA-10 | 2026-09-02 00:27:04 | 52.77653 | 10.73860 | 60° | 18km/h | 28165m | 5.8m/s | -47.5°C | 2.8% | 16.7hPa | 2.6V | 03:27:00 | 00:00:00 | 00:00:00 | |
| DO2SHX-10 | 2026-09-02 00:27:03 | 52.77651 | 10.73856 | 54° | 16km/h | 28159m | 5.2m/s | -47.4°C | 2.7% | 16.7hPa | 2.6V | 03:27:00 | 02:34:49 | 00:00:00 | |
| DL1NUX | 2026-09-02 00:27:02 | 52.77644 | 10.73838 | 60° | 24km/h | 28141m | 5m/s | -47.5°C | 2.7% | 16.8hPa | 2.6V | 03:27:19 | 02:34:46 | 00:00:00 | |
| HSKMA3-T | 2026-09-02 00:27:01 | 52.77646 | 10.73846 | 53° | 20km/h | 28146m | 6.4m/s | -47.5°C | 0% | 16.8hPa | 2.5V | 03:27:23 | 02:34:47 | 00:00:00 | |
| BIOWL1-15 | 2026-09-02 00:26:57 | 52.77636 | 10.73812 | 68° | 20km/h | 28124m | 6m/s | -47.5°C | 0% | 16.9hPa | 2.5V | 03:27:23 | 02:34:43 | 00:00:00 | |
| DL1XH-west | 2026-09-02 00:26:57 | 52.77634 | 10.73804 | 74° | 18km/h | 28118m | 5.5m/s | -47.6°C | 0% | 16.9hPa | 2.5V | 03:27:23 | 02:34:42 | 00:00:00 | |
| SMARD9-15 | 2026-09-02 00:26:56 | 52.77634 | 10.73804 | 73° | 16km/h | 28118m | 5.5m/s | -47.6°C | 0.4% | 16.9hPa | 2.5V | 00:00:00 | 00:00:00 | 00:00:00 | |
| DB0DAN | 2026-09-02 00:26:55 | 52.77633 | 10.73797 | 81° | 16km/h | 28113m | 5.4m/s | -47.6°C | 0.4% | 16.89hPa | 2.5V | 00:00:00 | 00:00:00 | 00:00:00 | |
| BUE01 | 2026-09-02 00:26:55 | 52.77633 | 10.73797 | 81° | 16km/h | 28113m | 5.4m/s | -47.6°C | 0.4% | 16.9hPa | 2.6V | 00:00:00 | 00:00:00 | 00:00:00 | |
| DL1XH-15 | 2026-09-02 00:26:54 | 52.77631 | 10.73755 | 54° | 9km/h | 28078m | 7.2m/s | -47.7°C | 2.7% | 17hPa | 2.6V | 03:27:30 | 02:34:35 | 00:00:00 | |
| AA1-15 | 2026-09-02 00:26:54 | 52.77633 | 10.73790 | 87° | 18km/h | 28107m | 5.6m/s | -47.6°C | 0% | 16.9hPa | 2.6V | 03:28:14 | 02:34:40 | 00:00:00 | |
| DF7PN | 2026-09-02 00:26:54 | 52.77633 | 10.73782 | 90° | 20km/h | 28101m | 6.5m/s | -47.6°C | 0.4% | 16.9hPa | 2.6V | 00:00:00 | 00:00:00 | 00:00:00 | |
| DL1NUX | 2026-09-02 00:26:52 | 52.77632 | 10.73759 | 77° | 13km/h | 28085m | 5.7m/s | -47.6°C | 2.7% | 16.9hPa | 2.6V | 03:27:29 | 02:34:36 | 00:00:00 | |
| HSKMA3-T | 2026-09-02 00:26:51 | 52.77633 | 10.73766 | 87° | 18km/h | 28090m | 4.5m/s | -47.7°C | 0% | 16.9hPa | 2.5V | 03:28:14 | 02:34:37 | 00:00:00 | |
| DO2SHX-10 | 2026-09-02 00:26:51 | 52.77632 | 10.73766 | 87° | 13km/h | 28090m | 4.4m/s | -47.6°C | 2.7% | 16.9hPa | 2.6V | 03:27:00 | 02:34:37 | 00:00:00 | |
| DM0DOS-11 | 2026-09-02 00:26:50 | 52.77620 | 10.73752 | 20° | 15km/h | 28054m | 6.7m/s | -47.8°C | 2.7% | 17hPa | 2.6V | 03:27:34 | 02:34:31 | 00:00:00 | |
| DF8AY | 2026-09-02 00:26:50 | 52.77632 | 10.73759 | 78° | 13km/h | 28085m | 5.7m/s | -47.7°C | 0% | 16.9hPa | 2.6V | 03:28:14 | 02:34:36 | 00:00:00 | |
| BIOWL1-15 | 2026-09-02 00:26:47 | 52.77627 | 10.73753 | 358° | 11km/h | 28066m | 5m/s | -47.7°C | 0% | 17hPa | 2.5V | 03:28:14 | 02:34:33 | 00:00:00 | |
| DL1XH-west | 2026-09-02 00:26:46 | 52.77623 | 10.73753 | 4° | 13km/h | 28060m | 5.2m/s | -47.7°C | 0% | 17hPa | 2.5V | 03:28:14 | 02:34:32 | 00:00:00 | |
| DO2SHX-10 | 2026-09-02 00:26:45 | 52.77620 | 10.73752 | 21° | 15km/h | 28055m | 6.6m/s | -47.7°C | 2.7% | 17.0hPa | 2.6V | 00:00:00 | 02:34:31 | 00:00:00 | |
| DL1XH-15 | 2026-09-02 00:26:44 | 52.77610 | 10.73727 | 64° | 5km/h | 28020m | 5.5m/s | -47.9°C | 2.8% | 17.1hPa | 2.6V | 03:27:40 | 02:34:25 | 00:00:00 | |
| AA1-15 | 2026-09-02 00:26:43 | 52.77614 | 10.73744 | 58° | 16km/h | 28043m | 4.8m/s | -47.9°C | 0% | 17hPa | 2.6V | 03:28:14 | 02:34:29 | 00:00:00 | |
| DL1XH1-15 | 2026-09-02 00:26:43 | 52.77613 | 10.73738 | 68° | 15km/h | 28038m | 5m/s | -47.9°C | 2.8% | 17.1hPa | 2.5V | 03:27:37 | 02:34:28 | 00:00:00 | |
| DB0NH | 2026-09-02 00:26:43 | 52.77614 | 10.73744 | 58° | 11km/h | 28043m | 4.7m/s | -47.8°C | 2.8% | 17.0hPa | 2.5V | 03:27:00 | 02:34:29 | 00:00:00 | |
| DL1NUX | 2026-09-02 00:26:42 | 52.77611 | 10.73729 | 75° | 7km/h | 28026m | 6.1m/s | -47.9°C | 2.8% | 17.1hPa | 2.5V | 03:27:39 | 02:34:26 | 00:00:00 | |
| HSKMA3-T | 2026-09-02 00:26:40 | 52.77611 | 10.73729 | 76° | 7km/h | 28026m | 6.1m/s | -47.9°C | 0% | 17.1hPa | 2.5V | 03:28:14 | 02:34:26 | 00:00:00 | |
| DM0DOS-11 | 2026-09-02 00:26:40 | 52.77606 | 10.73721 | 39° | 9km/h | 27997m | 5.4m/s | -48.1°C | 2.9% | 17.2hPa | 2.5V | 03:27:44 | 02:34:21 | 00:00:00 | |
| DB0DAN | 2026-09-02 00:26:40 | 52.77611 | 10.73729 | 76° | 7km/h | 28026m | 6.1m/s | -47.9°C | 0.4% | 17.1hPa | 2.5V | 00:00:00 | 00:00:00 | 00:00:00 | |
| DF8AY | 2026-09-02 00:26:38 | 52.77610 | 10.73726 | 59° | 4km/h | 28015m | 5.3m/s | -48°C | 0% | 17.1hPa | 2.6V | 03:28:14 | 02:34:24 | 00:00:00 | |
| BIOWL1-15 | 2026-09-02 00:26:37 | 52.77593 | 10.73731 | 325° | 15km/h | 27956m | 6.9m/s | -48°C | 0% | 17.3hPa | 2.6V | 03:28:14 | 02:34:14 | 00:00:00 | |
| DL1XH-west | 2026-09-02 00:26:36 | 52.77608 | 10.73723 | 35° | 7km/h | 28004m | 6.3m/s | -48°C | 0% | 17.1hPa | 2.5V | 03:28:14 | 02:34:22 | 00:00:00 | |
| DO2SHX-10 | 2026-09-02 00:26:36 | 52.77608 | 10.73723 | 36° | 9km/h | 28004m | 6.2m/s | -48.0°C | 2.8% | 17.1hPa | 2.6V | 00:00:00 | 02:34:22 | 00:00:00 | |
| DL4BBY-15 | 2026-09-02 00:26:35 | 52.77606 | 10.73721 | 40° | 9km/h | 27998m | 5.3m/s | -47.8°C | 0% | 0hPa | 2.6V | 00:00:00 | 00:00:00 | 00:00:00 | |
| DL1XH-15 | 2026-09-02 00:26:34 | 52.77596 | 10.73727 | 310° | 15km/h | 27963m | 5.6m/s | -48°C | 2.8% | 17.2hPa | 2.6V | 03:27:50 | 02:34:15 | 00:00:00 | |
| DD8BA-10 | 2026-09-02 00:26:34 | 52.77604 | 10.73719 | 41° | 13km/h | 27993m | 4.9m/s | -48.0°C | 2.9% | 17.1hPa | 2.6V | 00:00:00 | 00:00:00 | 00:00:00 | |
| DL1XH1-15 | 2026-09-02 00:26:33 | 52.77601 | 10.73717 | 338° | 5km/h | 27982m | 6.7m/s | -48.1°C | 2.8% | 17.2hPa | 2.6V | 03:27:47 | 02:34:18 | 00:00:00 | |
| AA1-15 | 2026-09-02 00:26:33 | 52.77601 | 10.73717 | 339° | 5km/h | 27982m | 6.7m/s | -48.1°C | 0% | 17.2hPa | 2.6V | 03:28:14 | 02:34:18 | 00:00:00 | |
| HSKMA3-T | 2026-09-02 00:26:30 | 52.77598 | 10.73723 | 304° | 13km/h | 27969m | 5.8m/s | -48.1°C | 0% | 17.3hPa | 2.5V | 03:28:14 | 02:34:16 | 00:00:00 | |
| DM0DOS-11 | 2026-09-02 00:26:30 | 52.77582 | 10.73737 | 352° | 16km/h | 27939m | 5m/s | -48°C | 2.8% | 17.3hPa | 2.5V | 03:27:54 | 02:34:11 | 00:00:00 | |
| DO2SHX-10 | 2026-09-02 00:26:30 | 52.77598 | 10.73723 | 304° | 15km/h | 27969m | 5.8m/s | -48.0°C | 2.9% | 17.2hPa | 2.5V | 00:00:00 | 02:34:16 | 00:00:00 | |
| AM1SDL-15 | 2026-09-02 00:26:29 | 52.77596 | 10.73727 | 311° | 15km/h | 27963m | 5.6m/s | -48.0°C | 2.8% | 17.2hPa | 2.6V | 03:27:00 | 02:34:15 | 00:00:00 | |
| EDDB2-12 | 2026-09-02 00:26:28 | 52.77590 | 10.73734 | 342° | 15km/h | 27950m | 6.2m/s | -48.0°C | 0.4% | 17.3hPa | 2.6V | 00:00:00 | 00:00:00 | 00:00:00 | |
| DL1XH1-15 | 2026-09-02 00:26:27 | 52.77571 | 10.73744 | 315° | 15km/h | 27921m | 5.4m/s | -48°C | 2.8% | 17.4hPa | 2.6V | 03:27:57 | 02:34:08 | 00:00:00 | |
| DO2SHX-10 | 2026-09-02 00:26:27 | 52.77590 | 10.73734 | 343° | 16km/h | 27950m | 6.1m/s | -48.0°C | 2.8% | 17.3hPa | 2.5V | 03:27:00 | 02:34:13 | 00:00:00 | |
| DB0DAN | 2026-09-02 00:26:25 | 52.77582 | 10.73737 | 352° | 16km/h | 27939m | 5m/s | -48°C | 0.5% | 17.33hPa | 2.5V | 00:00:00 | 00:00:00 | 00:00:00 | |
| DL1XH-west | 2026-09-02 00:26:25 | 52.77582 | 10.73737 | 352° | 16km/h | 27939m | 5m/s | -48°C | 0% | 17.3hPa | 2.5V | 03:28:14 | 02:34:11 | 00:00:00 | |
| AA1-15 | 2026-09-02 00:26:21 | 52.77569 | 10.73749 | 310° | 13km/h | 27916m | 5.4m/s | -47.9°C | 0% | 17.4hPa | 2.6V | 03:28:14 | 02:34:07 | 00:00:00 | |
| HSKMA3-T | 2026-09-02 00:26:20 | 52.77567 | 10.73752 | 317° | 11km/h | 27910m | 5.9m/s | -47.9°C | 0% | 17.4hPa | 2.6V | 03:28:14 | 02:34:06 | 00:00:00 | |
| DM0DOS-11 | 2026-09-02 00:26:20 | 52.77557 | 10.73763 | 281° | 11km/h | 27874m | 5.9m/s | -48°C | 2.8% | 17.5hPa | 2.5V | 03:28:05 | 02:34:00 | 00:00:00 | |
| BIOWL1-15 | 2026-09-02 00:26:18 | 52.77558 | 10.73759 | 301° | 7km/h | 27880m | 6.6m/s | -47.9°C | 0% | 17.5hPa | 2.6V | 03:28:14 | 02:34:01 | 00:00:00 | |
| DL1XH-west | 2026-09-02 00:26:15 | 52.77557 | 10.73763 | 282° | 11km/h | 27874m | 5.9m/s | -48°C | 0% | 17.5hPa | 2.5V | 03:28:14 | 02:34:00 | 00:00:00 | |
| DD8BA-10 | 2026-09-02 00:26:14 | 52.77557 | 10.73763 | 282° | 7km/h | 27875m | 5.9m/s | -47.9°C | 2.8% | 17.5hPa | 2.5V | 00:00:00 | 00:00:00 | 00:00:00 | |
| DL1XH1-15 | 2026-09-02 00:26:13 | 52.77556 | 10.73773 | 275° | 11km/h | 27863m | 5.2m/s | -47.9°C | 2.8% | 17.5hPa | 2.5V | 03:28:07 | 02:33:58 | 00:00:00 | |
| DB0NH | 2026-09-02 00:26:13 | 52.77556 | 10.73768 | 276° | 7km/h | 27869m | 5.3m/s | -47.9°C | 2.8% | 17.5hPa | 2.6V | 00:00:00 | 02:33:59 | 00:00:00 | |
| DL1NUX | 2026-09-02 00:26:12 | 52.77556 | 10.73778 | 305° | 2km/h | 27850m | 6.6m/s | -48°C | 2.8% | 17.6hPa | 2.6V | 03:28:09 | 02:33:56 | 00:00:00 | |
| DF8AY | 2026-09-02 00:26:11 | 52.77556 | 10.73776 | 279° | 7km/h | 27857m | 7m/s | -48°C | 0% | 17.5hPa | 2.6V | 03:28:14 | 02:33:57 | 00:00:00 | |
| HSKMA3-T | 2026-09-02 00:26:10 | 52.77556 | 10.73778 | 306° | 2km/h | 27850m | 6.6m/s | -48°C | 0% | 17.6hPa | 2.6V | 03:28:14 | 02:33:56 | 00:00:00 | |
| DB0DAN | 2026-09-02 00:26:10 | 52.77556 | 10.73778 | 306° | 2km/h | 27850m | 6.6m/s | -48°C | 0.4% | 17.57hPa | 2.6V | 00:00:00 | 00:00:00 | 00:00:00 | |
| AU51GT2 | 2026-09-02 00:26:10 | 52.77556 | 10.73778 | 305° | 2km/h | 27850m | 6.6m/s | -48.0°C | 0.4% | 17.6hPa | 2.5V | 00:00:00 | 00:00:00 | 00:00:00 | |
| SONCRA | 2026-09-02 00:26:09 | 52.77556 | 10.73778 | 157° | 2km/h | 27838m | 5.8m/s | -48.0°C | 0.5% | 17.6hPa | 2.5V | 00:00:00 | 00:00:00 | 00:00:00 | |
| DL3AQ-11 | 2026-09-02 00:26:08 | 52.77556 | 10.73778 | 204° | 4km/h | 27832m | 6.7m/s | -48.0°C | 0.5% | 17.6hPa | 2.5V | 00:00:00 | 00:00:00 | 00:00:00 | |
| DL1XH1-15 | 2026-09-02 00:26:07 | 52.77565 | 10.73786 | 177° | 5km/h | 27801m | 6m/s | -48°C | 2.9% | 17.7hPa | 2.5V | 03:28:17 | 02:33:48 | 00:00:00 | |
| GOEST3-10 | 2026-09-02 00:26:07 | 52.77556 | 10.73778 | 205° | 7km/h | 27832m | 6.7m/s | -48.0°C | 2.8% | 17.6hPa | 2.5V | 00:00:00 | 02:33:53 | 00:00:00 | |
| DO2SHX-10 | 2026-09-02 00:26:06 | 52.77558 | 10.73779 | 219° | 9km/h | 27825m | 6.0m/s | -48.0°C | 2.9% | 17.6hPa | 2.6V | 00:00:00 | 02:33:52 | 00:00:00 | |
| DM0DOS-11 | 2026-09-02 00:26:05 | 52.77562 | 10.73784 | 211° | 9km/h | 27814m | 5.7m/s | -48°C | 2.9% | 17.7hPa | 2.6V | 03:28:15 | 02:33:50 | 00:00:00 | |
| BIOWL1-15 | 2026-09-02 00:26:04 | 52.77562 | 10.73784 | 211° | 9km/h | 27814m | 5.7m/s | -48°C | 0% | 17.7hPa | 2.6V | 03:29:05 | 02:33:50 | 00:00:00 | |
| DL1XH-west | 2026-09-02 00:26:03 | 52.77564 | 10.73785 | 201° | 7km/h | 27808m | 6.7m/s | -48°C | 0% | 17.7hPa | 2.6V | 03:29:05 | 02:33:49 | 00:00:00 | |
| DO2SHX-10 | 2026-09-02 00:26:03 | 52.77564 | 10.73785 | 201° | 5km/h | 27808m | 6.6m/s | -48.0°C | 2.8% | 17.6hPa | 2.6V | 03:28:00 | 02:33:49 | 00:00:00 | |
| DL1NUX | 2026-09-02 00:26:02 | 52.77567 | 10.73786 | 235° | 2km/h | 27790m | 5.5m/s | -48°C | 2.8% | 17.7hPa | 2.5V | 03:28:19 | 02:33:46 | 00:00:00 | |
| DF8AY | 2026-09-02 00:26:01 | 52.77566 | 10.73786 | 174° | 2km/h | 27795m | 5.1m/s | -48.1°C | 0% | 17.7hPa | 2.5V | 03:29:05 | 02:33:47 | 00:00:00 | |
| AA1-15 | 2026-09-02 00:26:00 | 52.77567 | 10.73786 | 236° | 2km/h | 27790m | 5.5m/s | -48°C | 0% | 17.7hPa | 2.5V | 03:29:05 | 02:33:46 | 00:00:00 | |
| EDDB2-12 | 2026-09-02 00:25:57 | 52.77567 | 10.73800 | 272° | 11km/h | 27766m | 4.8m/s | -48.0°C | 0.4% | 17.8hPa | 2.6V | 00:00:00 | 00:00:00 | 00:00:00 | |
| DM0DOS-11 | 2026-09-02 00:25:56 | 52.77567 | 10.73806 | 301° | 2km/h | 27755m | 6.5m/s | -48°C | 2.8% | 17.8hPa | 2.6V | 03:28:25 | 02:33:40 | 00:00:00 | |
| DB0DAN | 2026-09-02 00:25:55 | 52.77567 | 10.73804 | 277° | 7km/h | 27761m | 5.8m/s | -48°C | 0.5% | 17.82hPa | 2.5V | 00:00:00 | 00:00:00 | 00:00:00 | |
| DJ2DS-15 | 2026-09-02 00:25:55 | 52.77567 | 10.73806 | 301° | 0km/h | 27755m | 6.5m/s | -48.0°C | 0.5% | 17.8hPa | 2.5V | 00:00:00 | 00:00:00 | 00:00:00 | |
| DL1XH-15 | 2026-09-02 00:25:54 | 52.77568 | 10.73795 | 154° | 5km/h | 27724m | 6.3m/s | -47.9°C | 2.8% | 17.9hPa | 2.5V | 03:28:30 | 02:33:35 | 00:00:00 | |
| DD8BA-10 | 2026-09-02 00:25:54 | 52.77567 | 10.73806 | 302° | 5km/h | 27755m | 6.4m/s | -47.9°C | 2.8% | 17.8hPa | 2.6V | 00:00:00 | 00:00:00 | 00:00:00 | |
| DL1XH1-15 | 2026-09-02 00:25:53 | 52.77567 | 10.73803 | 88° | 7km/h | 27742m | 5.5m/s | -47.9°C | 2.8% | 17.9hPa | 2.6V | 03:28:27 | 02:33:38 | 00:00:00 | |
| BIOWL1-15 | 2026-09-02 00:25:53 | 52.77567 | 10.73805 | 73° | 4km/h | 27748m | 6.7m/s | -47.9°C | 0% | 17.9hPa | 2.6V | 03:29:05 | 02:33:39 | 00:00:00 | |
| DF8AY | 2026-09-02 00:25:52 | 52.77567 | 10.73800 | 93° | 7km/h | 27736m | 5m/s | -47.9°C | 0% | 17.9hPa | 2.5V | 03:29:05 | 02:33:37 | 00:00:00 | |
| DL1NUX | 2026-09-02 00:25:52 | 52.77567 | 10.73797 | 108° | 5km/h | 27731m | 6.4m/s | -47.9°C | 2.8% | 17.9hPa | 2.5V | 03:28:29 | 02:33:36 | 00:00:00 | |
| DL1XH-west | 2026-09-02 00:25:52 | 52.77567 | 10.73803 | 89° | 7km/h | 27742m | 5.6m/s | -47.9°C | 0% | 17.9hPa | 2.6V | 03:29:05 | 02:33:38 | 00:00:00 | |
| HSKMA3-T | 2026-09-02 00:25:50 | 52.77567 | 10.73797 | 109° | 5km/h | 27731m | 6.4m/s | -47.9°C | 0% | 17.9hPa | 2.5V | 03:29:05 | 02:33:36 | 00:00:00 | |
| EDDB2-11 | 2026-09-02 00:25:48 | 52.77571 | 10.73795 | 178° | 5km/h | 27713m | 5.9m/s | -47.8°C | 0.4% | 17.9hPa | 2.6V | 00:00:00 | 00:00:00 | 00:00:00 | |
| DL1XH1-15 | 2026-09-02 00:25:47 | 52.77580 | 10.73787 | 152° | 4km/h | 27683m | 6.4m/s | -47.7°C | 2.7% | 18hPa | 2.6V | 03:28:37 | 02:33:28 | 00:00:00 | |
| GOEST3-10 | 2026-09-02 00:25:47 | 52.77571 | 10.73795 | 179° | 9km/h | 27713m | 5.8m/s | -47.8°C | 2.8% | 17.9hPa | 2.6V | 00:00:00 | 02:33:33 | 00:00:00 | |
| DO3MHA-11 | 2026-09-02 00:25:46 | 52.77573 | 10.73794 | 167° | 5km/h | 27707m | 6.9m/s | -47.8°C | 2.8% | 17.9hPa | 2.6V | 00:00:00 | 02:33:32 | 00:00:00 | |
| DO2SHX-10 | 2026-09-02 00:25:45 | 52.77575 | 10.73793 | 153° | 9km/h | 27700m | 6.1m/s | -47.8°C | 2.7% | 17.9hPa | 2.5V | 00:00:00 | 02:33:31 | 00:00:00 | |
| DL1XH-15 | 2026-09-02 00:25:44 | 52.77581 | 10.73789 | 347° | 0km/h | 27665m | 5m/s | -47.7°C | 2.7% | 18.1hPa | 2.5V | 03:28:40 | 02:33:25 | 00:00:00 | |
| BIOWL1-15 | 2026-09-02 00:25:43 | 52.77579 | 10.73789 | 139° | 7km/h | 27689m | 5m/s | -47.8°C | 0% | 18hPa | 2.6V | 03:29:05 | 02:33:29 | 00:00:00 | |
| DB0NH | 2026-09-02 00:25:43 | 52.77579 | 10.73789 | 140° | 13km/h | 27689m | 5.0m/s | -47.7°C | 2.8% | 17.9hPa | 2.6V | 00:00:00 | 02:33:29 | 00:00:00 | |
| DL1NUX | 2026-09-02 00:25:42 | 52.77581 | 10.73788 | 266° | 2km/h | 27671m | 5.7m/s | -47.7°C | 2.8% | 18hPa | 2.5V | 03:28:39 | 02:33:26 | 00:00:00 | |
| DL1XH-west | 2026-09-02 00:25:42 | 52.77580 | 10.73787 | 152° | 4km/h | 27683m | 6.4m/s | -47.7°C | 0% | 18hPa | 2.6V | 03:29:05 | 02:33:28 | 00:00:00 | |
| DF8AY | 2026-09-02 00:25:40 | 52.77580 | 10.73784 | 81° | 11km/h | 27653m | 7.6m/s | -47.6°C | 0% | 18.1hPa | 2.6V | 03:29:05 | 02:33:23 | 00:00:00 | |
| DB0DAN | 2026-09-02 00:25:40 | 52.77581 | 10.73788 | 266° | 2km/h | 27671m | 5.7m/s | -47.7°C | 0.5% | 18.05hPa | 2.5V | 00:00:00 | 00:00:00 | 00:00:00 | |
| HSKMA3-T | 2026-09-02 00:25:39 | 52.77581 | 10.73789 | 348° | 0km/h | 27665m | 5m/s | -47.7°C | 0% | 18.1hPa | 2.5V | 03:29:05 | 02:33:25 | 00:00:00 | |
| DO2SHX-10 | 2026-09-02 00:25:39 | 52.77581 | 10.73789 | 348° | 5km/h | 27665m | 4.9m/s | -47.6°C | 2.7% | 18.0hPa | 2.5V | 03:28:00 | 02:33:25 | 00:00:00 | |
| S3001 | 2026-09-02 00:25:38 | 52.77580 | 10.73784 | 81° | 11km/h | 27653m | 7.6m/s | -47.6°C | 0.4% | 18.1hPa | 2.5V | 00:00:00 | 00:00:00 | 00:00:00 | |
| BIOWL9-15 | 2026-09-02 00:25:37 | 52.77580 | 10.73778 | 89° | 18km/h | 27646m | 6.5m/s | -47.6°C | 0.4% | 18.1hPa | 2.5V | 00:00:00 | 00:00:00 | 00:00:00 | |
| DO2SHX-10 | 2026-09-02 00:25:36 | 52.77580 | 10.73778 | 90° | 20km/h | 27646m | 6.5m/s | -47.6°C | 2.7% | 18.1hPa | 2.5V | 00:00:00 | 02:33:22 | 00:00:00 | |
| DL1NUX | 2026-09-02 00:25:35 | 52.77587 | 10.73740 | 138° | 7km/h | 27611m | 5m/s | -47.6°C | 2.8% | 18.2hPa | 2.5V | 03:28:49 | 02:33:16 | 00:00:00 | |
| DL4BBY-15 | 2026-09-02 00:25:35 | 52.77580 | 10.73770 | 95° | 18km/h | 27640m | 4.9m/s | -47.3°C | 0% | 0hPa | 2.5V | 00:00:00 | 00:00:00 | 00:00:00 | |
| DL1XH-15 | 2026-09-02 00:25:34 | 52.77589 | 10.73738 | 133° | 7km/h | 27605m | 6.2m/s | -47.6°C | 2.7% | 18.2hPa | 2.5V | 03:28:50 | 02:33:15 | 00:00:00 | |
| DL1XH-west | 2026-09-02 00:25:32 | 52.77586 | 10.73743 | 133° | 9km/h | 27616m | 5.5m/s | -47.6°C | 0% | 18.2hPa | 2.6V | 03:29:05 | 02:33:17 | 00:00:00 | |
| DF8AY | 2026-09-02 00:25:30 | 52.77587 | 10.73740 | 138° | 7km/h | 27611m | 5m/s | -47.6°C | 0% | 18.2hPa | 2.5V | 03:29:05 | 02:33:16 | 00:00:00 | |
| HSKMA3-T | 2026-09-02 00:25:29 | 52.77589 | 10.73738 | 133° | 7km/h | 27605m | 6.2m/s | -47.6°C | 0% | 18.2hPa | 2.5V | 03:29:05 | 02:33:15 | 00:00:00 | |
| AA1-15 | 2026-09-02 00:25:28 | 52.77589 | 10.73735 | 102° | 9km/h | 27599m | 5.9m/s | -47.6°C | 0% | 18.2hPa | 2.6V | 03:29:05 | 02:33:14 | 00:00:00 | |
| DO2SHX-10 | 2026-09-02 00:25:27 | 52.77589 | 10.73731 | 77° | 16km/h | 27594m | 6.0m/s | -47.6°C | 2.8% | 18.2hPa | 2.6V | 03:28:00 | 02:33:13 | 00:00:00 | |
| DB0DAN | 2026-09-02 00:25:25 | 52.77585 | 10.73719 | 50° | 18km/h | 27582m | 5.8m/s | -47.6°C | 0.5% | 18.31hPa | 2.6V | 00:00:00 | 00:00:00 | 00:00:00 | |
| DD8BA-10 | 2026-09-02 00:25:24 | 52.77582 | 10.73714 | 41° | 16km/h | 27576m | 6.1m/s | -47.6°C | 2.7% | 18.3hPa | 2.5V | 00:00:00 | 00:00:00 | 00:00:00 | |
| DL1XH1-15 | 2026-09-02 00:25:23 | 52.77576 | 10.73706 | 37° | 13km/h | 27564m | 5.2m/s | -47.6°C | 2.8% | 18.3hPa | 2.5V | 03:28:57 | 02:33:08 | 00:00:00 | |
| DL1NUX | 2026-09-02 00:25:22 | 52.77574 | 10.73698 | 94° | 13km/h | 27552m | 7.4m/s | -47.7°C | 2.7% | 18.4hPa | 2.6V | 03:28:59 | 02:33:06 | 00:00:00 | |
| DL1XH-west | 2026-09-02 00:25:21 | 52.77574 | 10.73703 | 64° | 11km/h | 27559m | 5.6m/s | -47.7°C | 0% | 18.4hPa | 2.5V | 03:29:05 | 02:33:07 | 00:00:00 | |
| DF8AY | 2026-09-02 00:25:19 | 52.77575 | 10.73691 | 110° | 18km/h | 27545m | 7.3m/s | -47.7°C | 0% | 18.4hPa | 2.6V | 03:29:05 | 02:33:05 | 00:00:00 | |
| BIOWL1-15 | 2026-09-02 00:25:18 | 52.77582 | 10.73668 | 114° | 18km/h | 27526m | 6.6m/s | -47.7°C | 0% | 18.5hPa | 2.5V | 03:29:05 | 02:33:02 | 00:00:00 | |
| AA1-15 | 2026-09-02 00:25:18 | 52.77577 | 10.73684 | 118° | 22km/h | 27538m | 5.7m/s | -47.7°C | 0% | 18.4hPa | 2.6V | 03:29:05 | 02:33:04 | 00:00:00 | |
| DO2SHX-10 | 2026-09-02 00:25:18 | 52.77577 | 10.73684 | 118° | 20km/h | 27539m | 5.7m/s | -47.6°C | 2.8% | 18.4hPa | 2.6V | 00:00:00 | 02:33:04 | 00:00:00 | |
| EDDB2-11 | 2026-09-02 00:25:17 | 52.77582 | 10.73668 | 113° | 16km/h | 27527m | 6.6m/s | -47.7°C | 0.4% | 18.5hPa | 2.6V | 00:00:00 | 00:00:00 | 00:00:00 | |
| DM0DOS-11 | 2026-09-02 00:25:16 | 52.77583 | 10.73657 | 69° | 13km/h | 27515m | 5.1m/s | -47.8°C | 2.8% | 18.5hPa | 2.6V | 03:29:05 | 02:33:00 | 00:00:00 | |
| AM1SDL-15 | 2026-09-02 00:25:16 | 52.77582 | 10.73668 | 114° | 20km/h | 27527m | 6.5m/s | -47.7°C | 2.7% | 18.4hPa | 2.5V | 00:00:00 | 02:33:02 | 00:00:00 | |
| DO2SHX-10 | 2026-09-02 00:25:15 | 52.77583 | 10.73662 | 98° | 15km/h | 27521m | 5.8m/s | -47.7°C | 2.7% | 18.4hPa | 2.5V | 03:29:00 | 02:33:01 | 00:00:00 | |
| DD8BA-10 | 2026-09-02 00:25:14 | 52.77582 | 10.73656 | 70° | 24km/h | 27515m | 5.0m/s | -47.7°C | 2.8% | 18.4hPa | 2.5V | 00:00:00 | 00:00:00 | 00:00:00 | |
| DB0NH | 2026-09-02 00:25:13 | 52.77581 | 10.73651 | 53° | 24km/h | 27509m | 5.5m/s | -47.7°C | 2.7% | 18.5hPa | 2.5V | 00:00:00 | 02:32:59 | 00:00:00 | |
| DL1XH-15 | 2026-09-02 00:25:12 | 52.77563 | 10.73615 | 52° | 31km/h | 27485m | 4.9m/s | -47.9°C | 2.8% | 18.6hPa | 2.5V | 03:29:10 | 02:32:55 | 00:00:00 | |
| DL1NUX | 2026-09-02 00:25:12 | 52.77568 | 10.73626 | 51° | 33km/h | 27490m | 5.7m/s | -47.9°C | 2.8% | 18.5hPa | 2.5V | 03:29:09 | 02:32:56 | 00:00:00 | |
| DL1XH-west | 2026-09-02 00:25:11 | 52.77573 | 10.73636 | 50° | 29km/h | 27497m | 6.7m/s | -47.9°C | 0% | 18.5hPa | 2.5V | 03:29:56 | 02:32:57 | 00:00:00 | |
| DB0DAN | 2026-09-02 00:25:10 | 52.77568 | 10.73626 | 51° | 31km/h | 27490m | 5.7m/s | -47.9°C | 0.5% | 18.55hPa | 2.5V | 00:00:00 | 00:00:00 | 00:00:00 | |
| HSKMA3-T | 2026-09-02 00:25:08 | 52.77558 | 10.73605 | 54° | 29km/h | 27480m | 5.4m/s | -47.9°C | 0% | 18.6hPa | 2.6V | 03:29:56 | 02:32:54 | 00:00:00 | |
| AA1-15 | 2026-09-02 00:25:07 | 52.77554 | 10.73596 | 54° | 24km/h | 27474m | 6.6m/s | -48°C | 0% | 18.6hPa | 2.6V | 03:29:56 | 02:32:53 | 00:00:00 | |
| BIOWL1-15 | 2026-09-02 00:25:06 | 52.77548 | 10.73570 | 89° | 20km/h | 27451m | 6.6m/s | -48.1°C | 0% | 18.6hPa | 2.6V | 03:29:56 | 02:32:49 | 00:00:00 | |
| DO2SHX-10 | 2026-09-02 00:25:06 | 52.77551 | 10.73589 | 57° | 16km/h | 27468m | 6.1m/s | -48.0°C | 2.8% | 18.6hPa | 2.6V | 00:00:00 | 02:32:52 | 00:00:00 | |
| DM0DOS-11 | 2026-09-02 00:25:05 | 52.77548 | 10.73577 | 82° | 16km/h | 27457m | 5.2m/s | -48.1°C | 2.8% | 18.6hPa | 2.6V | 03:29:15 | 02:32:50 | 00:00:00 | |
| DL4BBY-15 | 2026-09-02 00:25:05 | 52.77549 | 10.73583 | 68° | 22km/h | 27462m | 5.2m/s | -47.8°C | 0% | 0hPa | 2.5V | 00:00:00 | 00:00:00 | 00:00:00 | |
| DD8BA-10 | 2026-09-02 00:25:04 | 52.77548 | 10.73577 | 83° | 24km/h | 27457m | 5.2m/s | -48.1°C | 2.8% | 18.6hPa | 2.5V | 03:29:00 | 00:00:00 | 00:00:00 | |
| DL1XH1-15 | 2026-09-02 00:25:03 | 52.77548 | 10.73560 | 89° | 27km/h | 27444m | 6.7m/s | -48.1°C | 2.9% | 18.6hPa | 2.5V | 03:29:17 | 02:32:48 | 00:00:00 | |
| DO2SHX-10 | 2026-09-02 00:25:03 | 52.77548 | 10.73569 | 89° | 26km/h | 27451m | 6.6m/s | -48.1°C | 2.8% | 18.6hPa | 2.6V | 03:29:00 | 02:32:49 | 00:00:00 | |
| DL1XH-15 | 2026-09-02 00:25:02 | 52.77547 | 10.73521 | 84° | 31km/h | 27427m | 5.2m/s | -48.1°C | 2.8% | 18.7hPa | 2.6V | 03:29:20 | 02:32:45 | 00:00:00 | |
| DL1XH-west | 2026-09-02 00:25:01 | 52.77548 | 10.73548 | 89° | 31km/h | 27438m | 6m/s | -48.1°C | 0% | 18.7hPa | 2.5V | 03:29:56 | 02:32:47 | 00:00:00 | |
| HSKMA3-T | 2026-09-02 00:24:58 | 52.77545 | 10.73501 | 75° | 18km/h | 27414m | 6.6m/s | -48.1°C | 0% | 18.7hPa | 2.6V | 03:29:56 | 02:32:43 | 00:00:00 | |
| DF8AY | 2026-09-02 00:24:58 | 52.77541 | 10.73489 | 47° | 16km/h | 27402m | 5.6m/s | -48.1°C | 0% | 18.8hPa | 2.5V | 03:29:56 | 02:32:41 | 00:00:00 | |
| AA1-15 | 2026-09-02 00:24:57 | 52.77544 | 10.73494 | 63° | 16km/h | 27408m | 5.8m/s | -48.1°C | 0% | 18.8hPa | 2.5V | 03:29:56 | 02:32:42 | 00:00:00 | |
| DM0DOS-11 | 2026-09-02 00:24:57 | 52.77534 | 10.73478 | 39° | 22km/h | 27389m | 6.6m/s | -48°C | 2.8% | 18.8hPa | 2.6V | 03:29:26 | 02:32:39 | 00:00:00 | |
| DB0DAN | 2026-09-02 00:24:55 | 52.77541 | 10.73489 | 47° | 15km/h | 27402m | 5.6m/s | -48.1°C | 0.5% | 18.79hPa | 2.5V | 00:00:00 | 00:00:00 | 00:00:00 | |
| BIOWL1-15 | 2026-09-02 00:24:54 | 52.77530 | 10.73472 | 41° | 24km/h | 27383m | 5.4m/s | -48°C | 0% | 18.9hPa | 2.6V | 03:29:56 | 02:32:38 | 00:00:00 | |
| DL1XH-15 | 2026-09-02 00:24:53 | 52.77517 | 10.73453 | 47° | 18km/h | 27364m | 6.4m/s | -48°C | 2.8% | 18.9hPa | 2.5V | 03:29:30 | 02:32:35 | 00:00:00 | |
| DL1NUX | 2026-09-02 00:24:52 | 52.77521 | 10.73459 | 42° | 22km/h | 27371m | 7.1m/s | -48°C | 2.8% | 18.9hPa | 2.5V | 03:29:29 | 02:32:36 | 00:00:00 | |
| DL1XH-west | 2026-09-02 00:24:50 | 52.77521 | 10.73459 | 43° | 22km/h | 27371m | 7.1m/s | -48°C | 0% | 18.9hPa | 2.5V | 03:29:56 | 02:32:36 | 00:00:00 | |
| HSKMA3-T | 2026-09-02 00:24:47 | 52.77512 | 10.73440 | 68° | 20km/h | 27352m | 5.9m/s | -48.1°C | 0% | 18.9hPa | 2.6V | 03:29:56 | 02:32:33 | 00:00:00 | |
| GOEST3-10 | 2026-09-02 00:24:47 | 52.77512 | 10.73440 | 69° | 24km/h | 27353m | 5.9m/s | -48.0°C | 2.8% | 18.9hPa | 2.5V | 00:00:00 | 02:32:33 | 00:00:00 | |
| DM0DOS-11 | 2026-09-02 00:24:46 | 52.77503 | 10.73403 | 55° | 22km/h | 27329m | 5.2m/s | -48.1°C | 2.9% | 19hPa | 2.5V | 03:29:36 | 02:32:29 | 00:00:00 | |
| AA1-15 | 2026-09-02 00:24:46 | 52.77508 | 10.73422 | 72° | 26km/h | 27339m | 6.1m/s | -48.1°C | 0% | 19hPa | 2.6V | 03:29:56 | 02:32:31 | 00:00:00 | |
| EDDB2-11 | 2026-09-02 00:24:46 | 52.77508 | 10.73422 | 71° | 26km/h | 27340m | 6.1m/s | -48.1°C | 0.5% | 19.0hPa | 2.5V | 00:00:00 | 00:00:00 | 00:00:00 | |
| DF8AY | 2026-09-02 00:24:46 | 52.77506 | 10.73412 | 66° | 26km/h | 27334m | 4.9m/s | -48.1°C | 0% | 19hPa | 2.6V | 03:29:56 | 02:32:30 | 00:00:00 | |
| DO2SHX-10 | 2026-09-02 00:24:45 | 52.77508 | 10.73422 | 72° | 26km/h | 27340m | 6.1m/s | -48.1°C | 2.8% | 18.9hPa | 2.5V | 00:00:00 | 02:32:31 | 00:00:00 | |
| DL1XH1-15 | 2026-09-02 00:24:44 | 52.77499 | 10.73396 | 38° | 20km/h | 27323m | 7m/s | -48.1°C | 2.8% | 19hPa | 2.5V | 03:29:37 | 02:32:28 | 00:00:00 | |
| BIOWL1-15 | 2026-09-02 00:24:43 | 52.77499 | 10.73397 | 39° | 20km/h | 27323m | 7m/s | -48.1°C | 0% | 19hPa | 2.5V | 03:29:56 | 02:32:28 | 00:00:00 | |
| DL1XH-15 | 2026-09-02 00:24:42 | 52.77486 | 10.73392 | 358° | 20km/h | 27305m | 5.4m/s | -48°C | 2.8% | 19.1hPa | 2.6V | 03:29:40 | 02:32:25 | 00:00:00 | |
| GOEST3-10 | 2026-09-02 00:24:42 | 52.77499 | 10.73397 | 39° | 20km/h | 27323m | 6.9m/s | -48.0°C | 2.8% | 19.0hPa | 2.6V | 00:00:00 | 00:00:00 | 00:00:00 | |
| DB0DAN | 2026-09-02 00:24:40 | 52.77491 | 10.73392 | 359° | 18km/h | 27310m | 5.3m/s | -48°C | 0.5% | 19.07hPa | 2.6V | 00:00:00 | 00:00:00 | 00:00:00 | |
| DL1XH-west | 2026-09-02 00:24:39 | 52.77486 | 10.73392 | 359° | 20km/h | 27305m | 5.4m/s | -48°C | 0% | 19.1hPa | 2.6V | 03:29:56 | 02:32:25 | 00:00:00 | |
| DO2SHX-10 | 2026-09-02 00:24:39 | 52.77486 | 10.73392 | 359° | 22km/h | 27305m | 5.4m/s | -47.9°C | 2.8% | 19.0hPa | 2.5V | 03:29:00 | 02:32:25 | 00:00:00 | |
| DL1XH1-15 | 2026-09-02 00:24:37 | 52.77451 | 10.73358 | 32° | 20km/h | 27262m | 6.4m/s | -47.9°C | 2.8% | 19.2hPa | 2.5V | 03:29:47 | 02:32:18 | 00:00:00 | |
| HSKMA3-T | 2026-09-02 00:24:36 | 52.77470 | 10.73385 | 35° | 26km/h | 27286m | 6.1m/s | -47.9°C | 0% | 19.1hPa | 2.5V | 03:29:56 | 02:32:22 | 00:00:00 | |
| DF8AY | 2026-09-02 00:24:35 | 52.77465 | 10.73378 | 43° | 26km/h | 27280m | 5.5m/s | -47.9°C | 0% | 19.1hPa | 2.5V | 03:29:56 | 02:32:21 | 00:00:00 | |
| DM0DOS-11 | 2026-09-02 00:24:35 | 52.77456 | 10.73364 | 42° | 24km/h | 27268m | 6.4m/s | -47.9°C | 2.7% | 19.2hPa | 2.6V | 03:29:46 | 02:32:19 | 00:00:00 | |
| DL1XH-west | 2026-09-02 00:24:29 | 52.77440 | 10.73354 | 358° | 15km/h | 27242m | 5.9m/s | -48°C | 0% | 19.2hPa | 2.6V | 03:29:56 | 02:32:15 | 00:00:00 | |
| DO3MHA-11 | 2026-09-02 00:24:29 | 52.77440 | 10.73354 | 358° | 13km/h | 27243m | 5.9m/s | -47.9°C | 2.8% | 19.2hPa | 2.5V | 00:00:00 | 02:32:15 | 00:00:00 | |
| DM0DOS-11 | 2026-09-02 00:24:28 | 52.77419 | 10.73353 | 343° | 11km/h | 27198m | 5.3m/s | -48.2°C | 2.8% | 19.4hPa | 2.5V | 03:29:57 | 02:32:08 | 00:00:00 | |
| DF8AY | 2026-09-02 00:24:25 | 52.77426 | 10.73351 | 7° | 11km/h | 27218m | 5.5m/s | -48.1°C | 0% | 19.3hPa | 2.6V | 03:29:56 | 02:32:11 | 00:00:00 | |
| DB0DAN | 2026-09-02 00:24:25 | 52.77426 | 10.73351 | 7° | 11km/h | 27218m | 5.5m/s | -48.1°C | 0.5% | 19.32hPa | 2.6V | 00:00:00 | 00:00:00 | 00:00:00 | |
| AA1-15 | 2026-09-02 00:24:24 | 52.77423 | 10.73351 | 356° | 9km/h | 27211m | 7.4m/s | -48.1°C | 0% | 19.3hPa | 2.6V | 03:29:56 | 02:32:10 | 00:00:00 | |
| DD8BA-10 | 2026-09-02 00:24:24 | 52.77423 | 10.73351 | 356° | 16km/h | 27212m | 7.3m/s | -48.1°C | 2.8% | 19.3hPa | 2.6V | 03:29:00 | 00:00:00 | 00:00:00 | |
| DL1XH1-15 | 2026-09-02 00:24:23 | 52.77419 | 10.73353 | 343° | 11km/h | 27198m | 5.3m/s | -48.2°C | 2.8% | 19.4hPa | 2.5V | 03:29:57 | 02:32:08 | 00:00:00 | |
| BIOWL1-15 | 2026-09-02 00:24:21 | 52.77416 | 10.73354 | 357° | 11km/h | 27193m | 5.7m/s | -48.3°C | 0% | 19.4hPa | 2.5V | 03:30:47 | 02:32:07 | 00:00:00 | |
| DL1XH-west | 2026-09-02 00:24:18 | 52.77404 | 10.73350 | 13° | 22km/h | 27174m | 5.4m/s | -48.5°C | 0% | 19.4hPa | 2.6V | 03:30:47 | 02:32:04 | 00:00:00 | |
| DO2SHX-10 | 2026-09-02 00:24:18 | 52.77403 | 10.73350 | 13° | 22km/h | 27174m | 5.4m/s | -48.4°C | 2.8% | 19.4hPa | 2.6V | 00:00:00 | 02:32:04 | 00:00:00 | |
| GOEST3-10 | 2026-09-02 00:24:17 | 52.77398 | 10.73349 | 6° | 22km/h | 27169m | 5.3m/s | -48.5°C | 2.8% | 19.4hPa | 2.6V | 00:00:00 | 02:32:03 | 00:00:00 | |
| DL1NUX | 2026-09-02 00:24:15 | 52.77372 | 10.73376 | 308° | 9km/h | 27125m | 5.5m/s | -48.6°C | 2.9% | 19.6hPa | 2.6V | 03:30:09 | 02:31:56 | 00:00:00 | |
| DF8AY | 2026-09-02 00:24:14 | 52.77383 | 10.73356 | 321° | 22km/h | 27150m | 6.1m/s | -48.6°C | 0% | 19.5hPa | 2.5V | 03:30:47 | 02:32:00 | 00:00:00 | |
| AA1-15 | 2026-09-02 00:24:13 | 52.77380 | 10.73362 | 311° | 20km/h | 27144m | 5.6m/s | -48.6°C | 0% | 19.6hPa | 2.6V | 03:30:47 | 02:31:59 | 00:00:00 | |
| BIOWL1-15 | 2026-09-02 00:24:13 | 52.77374 | 10.73372 | 309° | 13km/h | 27132m | 6.4m/s | -48.6°C | 0% | 19.6hPa | 2.6V | 03:30:47 | 02:31:57 | 00:00:00 | |
| DF7ER-10 | 2026-09-02 00:24:13 | 52.77380 | 10.73362 | 312° | 20km/h | 27144m | 5.6m/s | -48.6°C | 0.5% | 19.6hPa | 2.6V | 03:30:00 | 00:00:00 | 00:00:00 | |
| DO2SHX-10 | 2026-09-02 00:24:12 | 52.77376 | 10.73368 | 309° | 13km/h | 27138m | 6.1m/s | -48.5°C | 2.9% | 19.5hPa | 2.6V | 00:00:00 | 02:31:58 | 00:00:00 | |
| DB0DAN | 2026-09-02 00:24:10 | 52.77372 | 10.73376 | 309° | 9km/h | 27126m | 5.5m/s | -48.6°C | 0.5% | 19.61hPa | 2.6V | 00:00:00 | 00:00:00 | 00:00:00 | |
| DF8AY | 2026-09-02 00:24:09 | 52.77369 | 10.73400 | 286° | 9km/h | 27090m | 6.5m/s | -48.6°C | 0% | 19.7hPa | 2.6V | 03:30:47 | 02:31:50 | 00:00:00 | |
| DL1XH-west | 2026-09-02 00:24:08 | 52.77370 | 10.73382 | 284° | 9km/h | 27115m | 6.1m/s | -48.6°C | 0% | 19.7hPa | 2.5V | 03:30:47 | 02:31:54 | 00:00:00 | |
| HSKMA3-T | 2026-09-02 00:24:03 | 52.77368 | 10.73404 | 303° | 9km/h | 27083m | 6.7m/s | -48.6°C | 0% | 19.8hPa | 2.5V | 03:30:47 | 02:31:49 | 00:00:00 | |
| AA1-15 | 2026-09-02 00:24:02 | 52.77367 | 10.73407 | 313° | 13km/h | 27077m | 5.2m/s | -48.6°C | 0% | 19.7hPa | 2.5V | 03:30:47 | 02:31:48 | 00:00:00 | |
| DL1NUX | 2026-09-02 00:24:02 | 52.77362 | 10.73418 | 299° | 20km/h | 27066m | 6.6m/s | -48.6°C | 2.8% | 19.8hPa | 2.6V | 03:30:19 | 02:31:46 | 00:00:00 | |
| BIOWL1-15 | 2026-09-02 00:24:00 | 52.77353 | 10.73458 | 295° | 26km/h | 27041m | 6m/s | -48.6°C | 0% | 19.9hPa | 2.6V | 03:30:47 | 02:31:42 | 00:00:00 | |
| DL1XH-west | 2026-09-02 00:23:57 | 52.77355 | 10.73448 | 290° | 27km/h | 27047m | 5.6m/s | -48.6°C | 0% | 19.8hPa | 2.5V | 03:30:47 | 02:31:43 | 00:00:00 | |
| DO2SHX-10 | 2026-09-02 00:23:57 | 52.77355 | 10.73447 | 290° | 26km/h | 27047m | 5.6m/s | -48.5°C | 2.8% | 19.8hPa | 2.5V | 00:00:00 | 02:31:43 | 00:00:00 | |
| SO1NDE-10 | 2026-09-02 00:23:56 | 52.77353 | 10.73458 | 295° | 15km/h | 27042m | 5.9m/s | -48.5°C | 2.8% | 19.8hPa | 2.6V | 00:00:00 | 02:31:42 | 00:00:00 | |
| DL1NUX | 2026-09-02 00:23:55 | 52.77342 | 10.73496 | 264° | 16km/h | 27005m | 5.8m/s | -48.9°C | 2.9% | 20hPa | 2.6V | 03:30:29 | 02:31:36 | 00:00:00 | |
| DB0DAN | 2026-09-02 00:23:55 | 52.77350 | 10.73467 | 299° | 22km/h | 27035m | 6.8m/s | -48.6°C | 0.5% | 19.87hPa | 2.6V | 00:00:00 | 00:00:00 | 00:00:00 | |
| HSKMA3-T | 2026-09-02 00:23:54 | 52.77344 | 10.73479 | 306° | 15km/h | 27023m | 5.3m/s | -48.8°C | 0% | 19.9hPa | 2.5V | 03:30:47 | 02:31:39 | 00:00:00 | |
| AA1-15 | 2026-09-02 00:23:52 | 52.77343 | 10.73484 | 292° | 13km/h | 27017m | 5.9m/s | -48.8°C | 0% | 19.9hPa | 2.6V | 03:30:47 | 02:31:38 | 00:00:00 | |
| BIOWL1-15 | 2026-09-02 00:23:48 | 52.77340 | 10.73524 | 297° | 16km/h | 26982m | 5.8m/s | -49°C | 0% | 20hPa | 2.6V | 03:30:47 | 02:31:32 | 00:00:00 | |
| DL1XH-west | 2026-09-02 00:23:47 | 52.77341 | 10.73517 | 287° | 16km/h | 26988m | 6.6m/s | -49°C | 0% | 20hPa | 2.5V | 03:30:47 | 02:31:33 | 00:00:00 | |
| GOEST3-10 | 2026-09-02 00:23:47 | 52.77341 | 10.73517 | 288° | 16km/h | 26988m | 6.6m/s | -49.0°C | 2.9% | 20.0hPa | 2.5V | 00:00:00 | 02:31:33 | 00:00:00 | |
| DO2SHX-10 | 2026-09-02 00:23:45 | 52.77338 | 10.73530 | 297° | 15km/h | 26976m | 5.2m/s | -49.0°C | 2.9% | 20.0hPa | 2.5V | 00:00:00 | 02:31:31 | 00:00:00 | |
| DD8BA-10 | 2026-09-02 00:23:44 | 52.77336 | 10.73536 | 290° | 13km/h | 26971m | 6.6m/s | -49.1°C | 2.9% | 20.0hPa | 2.5V | 03:30:00 | 00:00:00 | 00:00:00 | |
| DL1XH1-15 | 2026-09-02 00:23:43 | 52.77335 | 10.73548 | 269° | 15km/h | 26957m | 5.5m/s | -49.2°C | 2.9% | 20.1hPa | 2.5V | 03:30:37 | 02:31:28 | 00:00:00 | |
| HSKMA3-T | 2026-09-02 00:23:43 | 52.77336 | 10.73542 | 277° | 15km/h | 26964m | 6.7m/s | -49.2°C | 0% | 20.1hPa | 2.6V | 03:30:47 | 02:31:29 | 00:00:00 | |
| DB0NH | 2026-09-02 00:23:43 | 52.77336 | 10.73542 | 277° | 15km/h | 26964m | 6.6m/s | -49.1°C | 2.9% | 20.0hPa | 2.6V | 00:00:00 | 02:31:29 | 00:00:00 | |
| DL1XH-15 | 2026-09-02 00:23:42 | 52.77334 | 10.73563 | 288° | 11km/h | 26939m | 5.9m/s | -49.3°C | 2.9% | 20.1hPa | 2.6V | 03:30:40 | 02:31:25 | 00:00:00 | |
| DL1NUX | 2026-09-02 00:23:42 | 52.77335 | 10.73558 | 280° | 11km/h | 26946m | 6.8m/s | -49.2°C | 2.9% | 20.1hPa | 2.5V | 03:30:39 | 02:31:26 | 00:00:00 | |
| DF8AY | 2026-09-02 00:23:41 | 52.77335 | 10.73553 | 272° | 13km/h | 26952m | 5.5m/s | -49.2°C | 0% | 20.1hPa | 2.5V | 03:30:47 | 02:31:27 | 00:00:00 | |
| DL3OBA | 2026-09-02 00:23:41 | 52.77335 | 10.73548 | 271° | 15km/h | 26958m | 5.5m/s | -49.2°C | 0.5% | 20.1hPa | 2.5V | 03:30:00 | 00:00:00 | 00:00:00 | |
| DB0DAN | 2026-09-02 00:23:40 | 52.77335 | 10.73558 | 281° | 11km/h | 26946m | 6.8m/s | -49.3°C | 0.5% | 20.15hPa | 2.5V | 00:00:00 | 00:00:00 | 00:00:00 | |
| DL1XH-west | 2026-09-02 00:23:36 | 52.77334 | 10.73575 | 235° | 11km/h | 26922m | 7.2m/s | -49.5°C | 0% | 20.2hPa | 2.6V | 03:30:47 | 02:31:22 | 00:00:00 | |
| BIOWL1-15 | 2026-09-02 00:23:36 | 52.77342 | 10.73587 | 220° | 13km/h | 26904m | 6.1m/s | -49.5°C | 0% | 20.3hPa | 2.6V | 03:30:47 | 02:31:19 | 00:00:00 | |
| DO2SHX-10 | 2026-09-02 00:23:36 | 52.77334 | 10.73575 | 236° | 13km/h | 26922m | 7.2m/s | -49.4°C | 3.0% | 20.2hPa | 2.6V | 00:00:00 | 02:31:22 | 00:00:00 | |
| AU51GT2 | 2026-09-02 00:23:35 | 52.77339 | 10.73583 | 217° | 15km/h | 26910m | 4.8m/s | 0°C | -1.0% | -1.0hPa | 2.6V | 00:00:00 | 00:00:00 | 00:00:00 | |
| DD8BA-10 | 2026-09-02 00:23:34 | 52.77339 | 10.73583 | 218° | 13km/h | 26910m | 4.7m/s | -49.4°C | 3.0% | 20.2hPa | 2.6V | 00:00:00 | 00:00:00 | 00:00:00 | |
| DL1XH1-15 | 2026-09-02 00:23:33 | 52.77344 | 10.73590 | 231° | 11km/h | 26897m | 6.7m/s | -49.5°C | 3% | 20.3hPa | 2.6V | 03:30:47 | 02:31:18 | 00:00:00 | |
| DO2SHX-10 | 2026-09-02 00:23:33 | 52.77342 | 10.73586 | 221° | 11km/h | 26904m | 6.0m/s | -49.5°C | 3.0% | 20.2hPa | 2.5V | 00:00:00 | 02:31:19 | 00:00:00 | |
| HSKMA3-T | 2026-09-02 00:23:33 | 52.77344 | 10.73590 | 231° | 11km/h | 26897m | 6.7m/s | -49.5°C | 0% | 20.3hPa | 2.6V | 03:30:47 | 02:31:18 | 00:00:00 | |
| DL1XH-15 | 2026-09-02 00:23:32 | 52.77348 | 10.73599 | 225° | 11km/h | 26881m | 5.9m/s | -49.6°C | 3% | 20.4hPa | 2.5V | 03:30:50 | 02:31:15 | 00:00:00 | |
| DL1NUX | 2026-09-02 00:23:32 | 52.77347 | 10.73596 | 225° | 9km/h | 26886m | 5m/s | -49.5°C | 3% | 20.3hPa | 2.6V | 03:30:49 | 02:31:16 | 00:00:00 | |
| DF8AY | 2026-09-02 00:23:31 | 52.77345 | 10.73593 | 236° | 7km/h | 26891m | 5.3m/s | -49.5°C | 0% | 20.3hPa | 2.6V | 03:31:38 | 02:31:17 | 00:00:00 | |
| AA1-15 | 2026-09-02 00:23:30 | 52.77347 | 10.73596 | 226° | 9km/h | 26886m | 5m/s | -49.6°C | 0% | 20.3hPa | 2.6V | 03:31:38 | 02:31:16 | 00:00:00 | |
| DO2SHX-10 | 2026-09-02 00:23:30 | 52.77347 | 10.73596 | 226° | 11km/h | 26887m | 5.0m/s | -49.5°C | 3.0% | 20.3hPa | 2.6V | 00:00:00 | 02:31:16 | 00:00:00 | |
| DL3AQ-11 | 2026-09-02 00:23:28 | 52.77353 | 10.73607 | 227° | 16km/h | 26869m | 5.6m/s | -49.6°C | 0.5% | 20.4hPa | 2.6V | 00:00:00 | 00:00:00 | 00:00:00 | |
| DO2SHX-10 | 2026-09-02 00:23:27 | 52.77353 | 10.73606 | 228° | 18km/h | 26869m | 5.6m/s | -49.5°C | 3.0% | 20.4hPa | 2.6V | 03:30:00 | 02:31:13 | 00:00:00 | |
| DB0DAN | 2026-09-02 00:23:25 | 52.77358 | 10.73618 | 243° | 16km/h | 26857m | 6.8m/s | -49.6°C | 0.5% | 20.41hPa | 2.6V | 00:00:00 | 00:00:00 | 00:00:00 | |
| DL1XH-west | 2026-09-02 00:23:25 | 52.77358 | 10.73618 | 243° | 18km/h | 26857m | 6.8m/s | -49.6°C | 0% | 20.4hPa | 2.6V | 03:31:38 | 02:31:11 | 00:00:00 | |
| DD8BA-10 | 2026-09-02 00:23:24 | 52.77360 | 10.73625 | 255° | 16km/h | 26851m | 6.0m/s | -49.6°C | 3.0% | 20.4hPa | 2.5V | 00:00:00 | 00:00:00 | 00:00:00 | |
| DL1XH1-15 | 2026-09-02 00:23:23 | 52.77363 | 10.73640 | 247° | 18km/h | 26840m | 4.6m/s | -49.7°C | 3.1% | 20.5hPa | 2.6V | 03:30:57 | 02:31:08 | 00:00:00 | |
| DL1XH-15 | 2026-09-02 00:23:22 | 52.77373 | 10.73657 | 205° | 20km/h | 26823m | 5.4m/s | -49.8°C | 3.1% | 20.5hPa | 2.5V | 03:31:00 | 02:31:05 | 00:00:00 | |
| HSKMA3-T | 2026-09-02 00:23:22 | 52.77363 | 10.73640 | 248° | 18km/h | 26840m | 4.6m/s | -49.7°C | 0% | 20.5hPa | 2.6V | 03:31:38 | 02:31:08 | 00:00:00 | |
| DF8AY | 2026-09-02 00:23:21 | 52.77365 | 10.73646 | 234° | 20km/h | 26835m | 6.4m/s | -49.8°C | 0% | 20.5hPa | 2.6V | 03:31:38 | 02:31:07 | 00:00:00 | |
| AA1-15 | 2026-09-02 00:23:20 | 52.77369 | 10.73652 | 219° | 20km/h | 26828m | 6.2m/s | -49.8°C | 0% | 20.5hPa | 2.5V | 03:31:38 | 02:31:06 | 00:00:00 | |
| DL1XH-west | 2026-09-02 00:23:15 | 52.77388 | 10.73660 | 166° | 9km/h | 26799m | 5.4m/s | -49.9°C | 0% | 20.6hPa | 2.6V | 03:31:38 | 02:31:01 | 00:00:00 | |
| DO2SHX-10 | 2026-09-02 00:23:15 | 52.77388 | 10.73660 | 166° | 9km/h | 26800m | 5.3m/s | -49.8°C | 3.1% | 20.6hPa | 2.6V | 03:31:00 | 02:31:01 | 00:00:00 | |
| DD8BA-10 | 2026-09-02 00:23:14 | 52.77390 | 10.73659 | 167° | 15km/h | 26794m | 4.9m/s | -49.8°C | 3.1% | 20.6hPa | 2.6V | 00:00:00 | 00:00:00 | 00:00:00 | |
| DL1XH1-15 | 2026-09-02 00:23:13 | 52.77396 | 10.73658 | 174° | 15km/h | 26782m | 6.4m/s | -49.9°C | 3.1% | 20.6hPa | 2.6V | 03:31:07 | 02:30:58 | 00:00:00 | |
| DB0NH | 2026-09-02 00:23:13 | 52.77392 | 10.73658 | 169° | 16km/h | 26789m | 5.8m/s | -49.8°C | 3.2% | 20.6hPa | 2.6V | 00:00:00 | 02:30:59 | 00:00:00 | |
| DL1XH-15 | 2026-09-02 00:23:12 | 52.77409 | 10.73662 | 205° | 18km/h | 26766m | 5.5m/s | -49.9°C | 3.1% | 20.7hPa | 2.6V | 03:31:10 | 02:30:55 | 00:00:00 | |
| DF8AY | 2026-09-02 00:23:10 | 52.77404 | 10.73659 | 194° | 20km/h | 26771m | 4.8m/s | -49.9°C | 0% | 20.7hPa | 2.6V | 03:31:38 | 02:30:56 | 00:00:00 | |
| DB0DAN | 2026-09-02 00:23:10 | 52.77404 | 10.73659 | 194° | 18km/h | 26771m | 4.8m/s | -49.9°C | 0.6% | 20.67hPa | 2.6V | 00:00:00 | 00:00:00 | 00:00:00 | |
| AA1-15 | 2026-09-02 00:23:09 | 52.77409 | 10.73662 | 205° | 18km/h | 26766m | 5.5m/s | -49.9°C | 0% | 20.7hPa | 2.6V | 03:31:38 | 02:30:55 | 00:00:00 | |
| DL1XH-west | 2026-09-02 00:23:05 | 52.77424 | 10.73680 | 188° | 15km/h | 26739m | 5.1m/s | -49.7°C | 0% | 20.8hPa | 2.6V | 03:31:38 | 02:30:50 | 00:00:00 | |
| DF8AY | 2026-09-02 00:23:04 | 52.77454 | 10.73668 | 161° | 24km/h | 26713m | 5.2m/s | -49.6°C | 0% | 20.9hPa | 2.6V | 03:31:38 | 02:30:45 | 00:00:00 | |
| DD8BA-10 | 2026-09-02 00:23:04 | 52.77424 | 10.73680 | 188° | 15km/h | 26740m | 5.0m/s | -49.7°C | 3.1% | 20.8hPa | 2.6V | 03:31:00 | 00:00:00 | 00:00:00 | |
| DL1XH1-15 | 2026-09-02 00:23:03 | 52.77435 | 10.73678 | 166° | 27km/h | 26727m | 5.9m/s | -49.7°C | 3.1% | 20.8hPa | 2.6V | 03:31:17 | 02:30:48 | 00:00:00 | |
| DO2SHX-10 | 2026-09-02 00:23:03 | 52.77429 | 10.73680 | 173° | 26km/h | 26734m | 6.5m/s | -49.7°C | 3.1% | 20.8hPa | 2.6V | 03:31:00 | 02:30:49 | 00:00:00 | |
| DL1NUX | 2026-09-02 00:23:02 | 52.77448 | 10.73671 | 162° | 27km/h | 26718m | 4.2m/s | -49.6°C | 3.1% | 20.9hPa | 2.5V | 03:31:19 | 02:30:46 | 00:00:00 | |
| BIOWL1-15 | 2026-09-02 00:23:01 | 52.77441 | 10.73675 | 164° | 29km/h | 26722m | 4.6m/s | -49.6°C | 0% | 20.9hPa | 2.5V | 03:31:38 | 02:30:47 | 00:00:00 | |
| AA1-15 | 2026-09-02 00:22:58 | 52.77459 | 10.73665 | 158° | 16km/h | 26707m | 6.1m/s | -49.6°C | 0% | 20.9hPa | 2.6V | 03:31:38 | 02:30:44 | 00:00:00 | |
| NBG1-10 | 2026-09-02 00:22:58 | 52.77459 | 10.73665 | 159° | 13km/h | 26707m | 6.1m/s | -49.5°C | 3.1% | 20.8hPa | 2.5V | 00:00:00 | 02:30:44 | 00:00:00 | |
| DO2SHX-10 | 2026-09-02 00:22:57 | 52.77462 | 10.73662 | 157° | 5km/h | 26701m | 6.3m/s | -49.5°C | 3.1% | 20.9hPa | 2.5V | 00:00:00 | 02:30:43 | 00:00:00 | |
| DB0DAN | 2026-09-02 00:22:55 | 52.77465 | 10.73661 | 175° | 4km/h | 26690m | 4.7m/s | -49.4°C | 0.5% | 20.96hPa | 2.5V | 00:00:00 | 00:00:00 | 00:00:00 | |
| DL1XH-west | 2026-09-02 00:22:54 | 52.77466 | 10.73661 | 193° | 5km/h | 26685m | 5m/s | -49.4°C | 0% | 20.9hPa | 2.5V | 03:31:38 | 02:30:40 | 00:00:00 | |
| DD8BA-10 | 2026-09-02 00:22:54 | 52.77466 | 10.73661 | 194° | 15km/h | 26685m | 5.0m/s | -49.4°C | 3.0% | 20.9hPa | 2.5V | 00:00:00 | 00:00:00 | 00:00:00 | |
| DO3MHA-11 | 2026-09-02 00:22:53 | 52.77468 | 10.73662 | 192° | 16km/h | 26679m | 6.1m/s | -49.3°C | 3.1% | 20.9hPa | 2.6V | 00:00:00 | 02:30:39 | 00:00:00 | |
| DL1NUX | 2026-09-02 00:22:52 | 52.77482 | 10.73666 | 190° | 22km/h | 26663m | 4.7m/s | -49.3°C | 3.1% | 21hPa | 2.5V | 03:31:29 | 02:30:36 | 00:00:00 | |
| BIOWL1-15 | 2026-09-02 00:22:50 | 52.77491 | 10.73669 | 188° | 15km/h | 26651m | 5.7m/s | -49.3°C | 0% | 21.1hPa | 2.6V | 03:31:38 | 02:30:34 | 00:00:00 | |
| DF8AY | 2026-09-02 00:22:49 | 52.77487 | 10.73667 | 190° | 20km/h | 26658m | 6.1m/s | -49.3°C | 0% | 21hPa | 2.5V | 03:31:38 | 02:30:35 | 00:00:00 | |
| AA1-15 | 2026-09-02 00:22:47 | 52.77495 | 10.73669 | 177° | 11km/h | 26646m | 4.9m/s | -49.3°C | 0% | 21.1hPa | 2.6V | 03:31:38 | 02:30:33 | 00:00:00 | |
| BUE01 | 2026-09-02 00:22:47 | 52.77497 | 10.73668 | 159° | 11km/h | 26641m | 4.7m/s | -49.3°C | 0.6% | 21.1hPa | 2.6V | 00:00:00 | 00:00:00 | 00:00:00 | |
| DF7PN | 2026-09-02 00:22:45 | 52.77503 | 10.73662 | 138° | 15km/h | 26630m | 5.7m/s | -49.2°C | 0.5% | 21.1hPa | 2.6V | 00:00:00 | 00:00:00 | 00:00:00 | |
| DL1XH-west | 2026-09-02 00:22:43 | 52.77506 | 10.73657 | 136° | 16km/h | 26624m | 5.1m/s | -49.2°C | 0% | 21.1hPa | 2.6V | 03:31:38 | 02:30:29 | 00:00:00 | |
| DB0NH | 2026-09-02 00:22:43 | 52.77506 | 10.73657 | 137° | 15km/h | 26625m | 5.0m/s | -49.1°C | 3.0% | 21.1hPa | 2.6V | 03:31:00 | 02:30:29 | 00:00:00 | |
| DL1XH-15 | 2026-09-02 00:22:42 | 52.77514 | 10.73645 | 166° | 5km/h | 26602m | 5.1m/s | -49.1°C | 3% | 21.2hPa | 2.5V | 03:31:40 | 02:30:25 | 00:00:00 | |
| DL1NUX | 2026-09-02 00:22:42 | 52.77513 | 10.73646 | 139° | 5km/h | 26608m | 6.5m/s | -49.1°C | 3.1% | 21.2hPa | 2.5V | 03:31:39 | 02:30:26 | 00:00:00 | |
| GOEST3-10 | 2026-09-02 00:22:42 | 52.77509 | 10.73653 | 135° | 9km/h | 26620m | 5.0m/s | -49.1°C | 3.1% | 21.1hPa | 2.5V | 00:00:00 | 00:00:00 | 00:00:00 | |
| AP2371 | 2026-09-02 00:22:41 | 52.77509 | 10.73653 | 135° | 15km/h | 26620m | 5.0m/s | -49.2°C | 0.5% | 21.2hPa | 2.5V | 00:00:00 | 00:00:00 | 00:00:00 | |
| DB0DAN | 2026-09-02 00:22:40 | 52.77513 | 10.73646 | 139° | 5km/h | 26608m | 6.5m/s | -49.1°C | 0.5% | 21.22hPa | 2.5V | 00:00:00 | 00:00:00 | 00:00:00 | |
| DF8AY | 2026-09-02 00:22:39 | 52.77514 | 10.73645 | 167° | 5km/h | 26602m | 5.1m/s | -49.1°C | 0% | 21.2hPa | 2.5V | 03:33:20 | 02:30:25 | 00:00:00 | |
| AA1-15 | 2026-09-02 00:22:36 | 52.77521 | 10.73643 | 165° | 15km/h | 26585m | 6m/s | -49°C | 0% | 21.3hPa | 2.6V | 03:32:29 | 02:30:22 | 00:00:00 | |
| DL1XH-west | 2026-09-02 00:22:33 | 52.77533 | 10.73633 | 139° | 16km/h | 26570m | 6.3m/s | -49°C | 0% | 21.3hPa | 2.6V | 03:32:29 | 02:30:19 | 00:00:00 | |
| DL1XH1-15 | 2026-09-02 00:22:33 | 52.77535 | 10.73628 | 122° | 16km/h | 26564m | 5.8m/s | -49°C | 3% | 21.4hPa | 2.6V | 03:31:47 | 02:30:18 | 00:00:00 | |
| DO2SHX-10 | 2026-09-02 00:22:33 | 52.77532 | 10.73633 | 139° | 16km/h | 26570m | 6.2m/s | -49.0°C | 3.0% | 21.3hPa | 2.6V | 00:00:00 | 02:30:19 | 00:00:00 | |
| DL1XH-15 | 2026-09-02 00:22:32 | 52.77542 | 10.73611 | 126° | 16km/h | 26547m | 5.8m/s | -48.9°C | 3% | 21.4hPa | 2.6V | 03:31:50 | 02:30:15 | 00:00:00 | |
| DF8AY | 2026-09-02 00:22:29 | 52.77542 | 10.73611 | 126° | 16km/h | 26547m | 5.8m/s | -48.9°C | 0% | 21.4hPa | 2.6V | 03:33:20 | 02:30:15 | 00:00:00 | |
| BIOWL1-15 | 2026-09-02 00:22:28 | 52.77544 | 10.73606 | 131° | 15km/h | 26542m | 4.8m/s | -48.8°C | 0% | 21.4hPa | 2.6V | 03:32:29 | 02:30:14 | 00:00:00 | |
| HSKMA3-T | 2026-09-02 00:22:27 | 52.77548 | 10.73599 | 123° | 7km/h | 26532m | 6m/s | -48.8°C | 0% | 21.4hPa | 2.6V | 03:32:29 | 02:30:12 | 00:00:00 | |
| AA1-15 | 2026-09-02 00:22:25 | 52.77548 | 10.73597 | 95° | 4km/h | 26526m | 6m/s | -48.8°C | 0% | 21.5hPa | 2.5V | 03:32:29 | 02:30:11 | 00:00:00 | |
| DB0DAN | 2026-09-02 00:22:25 | 52.77548 | 10.73597 | 94° | 4km/h | 26526m | 6m/s | -48.8°C | 0.5% | 21.47hPa | 2.5V | 00:00:00 | 00:00:00 | 00:00:00 | |
| DL1XH1-15 | 2026-09-02 00:22:24 | 52.77549 | 10.73590 | 133° | 11km/h | 26510m | 5.9m/s | -48.7°C | 3% | 21.5hPa | 2.6V | 03:31:57 | 02:30:08 | 00:00:00 | |
| DL1XH-west | 2026-09-02 00:22:23 | 52.77549 | 10.73590 | 133° | 11km/h | 26510m | 5.9m/s | -48.7°C | 0% | 21.5hPa | 2.6V | 03:32:29 | 02:30:08 | 00:00:00 | |
| BIOWL1-15 | 2026-09-02 00:22:18 | 52.77564 | 10.73568 | 128° | 24km/h | 26488m | 5.5m/s | -48.7°C | 0% | 21.6hPa | 2.5V | 03:32:29 | 02:30:04 | 00:00:00 | |
| HSKMA3-T | 2026-09-02 00:22:16 | 52.77570 | 10.73548 | 107° | 11km/h | 26472m | 5.1m/s | -48.6°C | 0% | 21.7hPa | 2.6V | 03:32:29 | 02:30:01 | 00:00:00 | |
| AA1-15 | 2026-09-02 00:22:14 | 52.77571 | 10.73544 | 106° | 9km/h | 26466m | 6.2m/s | -48.6°C | 0% | 21.7hPa | 2.6V | 03:32:29 | 02:30:00 | 00:00:00 | |
| DF7PN | 2026-09-02 00:22:14 | 52.77571 | 10.73541 | 118° | 4km/h | 26460m | 5.2m/s | -48.6°C | 0.5% | 21.7hPa | 2.6V | 00:00:00 | 00:00:00 | 00:00:00 | |
| DB0NH | 2026-09-02 00:22:13 | 52.77571 | 10.73541 | 119° | 9km/h | 26460m | 5.2m/s | -48.6°C | 2.9% | 21.6hPa | 2.6V | 00:00:00 | 02:29:59 | 00:00:00 | |
| DL1NUX | 2026-09-02 00:22:12 | 52.77571 | 10.73538 | 28° | 5km/h | 26444m | 6.3m/s | -48.5°C | 2.9% | 21.7hPa | 2.6V | 03:32:09 | 02:29:56 | 00:00:00 | |
| DL1XH-west | 2026-09-02 00:22:12 | 52.77572 | 10.73539 | 38° | 4km/h | 26450m | 5.5m/s | -48.6°C | 0% | 21.7hPa | 2.6V | 03:32:29 | 02:29:57 | 00:00:00 | |
| DF8AY | 2026-09-02 00:22:11 | 52.77584 | 10.73508 | 132° | 11km/h | 26402m | 6m/s | -48.4°C | 0% | 21.9hPa | 2.6V | 03:33:20 | 02:29:48 | 00:00:00 | |
| DB0DAN | 2026-09-02 00:22:10 | 52.77571 | 10.73538 | 29° | 5km/h | 26444m | 6.3m/s | -48.6°C | 0.5% | 21.74hPa | 2.6V | 00:00:00 | 00:00:00 | 00:00:00 | |
| BIOWL1-15 | 2026-09-02 00:22:10 | 52.77569 | 10.73534 | 80° | 7km/h | 26434m | 4.3m/s | -48.5°C | 0% | 21.8hPa | 2.6V | 03:32:29 | 02:29:54 | 00:00:00 | |
| DO2SHX-10 | 2026-09-02 00:22:09 | 52.77569 | 10.73536 | 48° | 9km/h | 26439m | 5.0m/s | -48.5°C | 2.9% | 21.7hPa | 2.6V | 00:00:00 | 02:29:55 | 00:00:00 | |
| DL3AQ-11 | 2026-09-02 00:22:08 | 52.77569 | 10.73530 | 114° | 9km/h | 26429m | 5.6m/s | -48.5°C | 0.5% | 21.8hPa | 2.6V | 00:00:00 | 00:00:00 | 00:00:00 | |
| GOEST3-10 | 2026-09-02 00:22:07 | 52.77569 | 10.73530 | 115° | 16km/h | 26429m | 5.6m/s | -48.5°C | 2.9% | 21.8hPa | 2.6V | 00:00:00 | 02:29:53 | 00:00:00 | |
| DO2SHX-10 | 2026-09-02 00:22:06 | 52.77571 | 10.73526 | 135° | 18km/h | 26423m | 6.1m/s | -48.4°C | 2.9% | 21.8hPa | 2.5V | 00:00:00 | 02:29:52 | 00:00:00 | |
| DL1NUX | 2026-09-02 00:22:05 | 52.77585 | 10.73503 | 70° | 4km/h | 26391m | 5m/s | -48.4°C | 2.9% | 21.9hPa | 2.5V | 03:32:19 | 02:29:46 | 00:00:00 | |
| HSKMA3-T | 2026-09-02 00:22:04 | 52.77578 | 10.73516 | 143° | 20km/h | 26413m | 4.4m/s | -48.4°C | 0% | 21.9hPa | 2.6V | 03:32:29 | 02:29:50 | 00:00:00 | |
| AA1-15 | 2026-09-02 00:22:03 | 52.77581 | 10.73512 | 138° | 16km/h | 26408m | 5.7m/s | -48.4°C | 0% | 21.9hPa | 2.6V | 03:32:29 | 02:29:49 | 00:00:00 | |
| DL1XH1-15 | 2026-09-02 00:22:03 | 52.77584 | 10.73508 | 131° | 11km/h | 26402m | 6m/s | -48.4°C | 2.9% | 21.9hPa | 2.6V | 03:32:17 | 02:29:48 | 00:00:00 | |
| DL1XH-west | 2026-09-02 00:22:00 | 52.77585 | 10.73503 | 70° | 4km/h | 26391m | 5m/s | -48.4°C | 0% | 21.9hPa | 2.5V | 03:32:29 | 02:29:46 | 00:00:00 | |
| BIOWL1-15 | 2026-09-02 00:21:57 | 52.77583 | 10.73500 | 3° | 5km/h | 26375m | 4.3m/s | -48.3°C | 0% | 22hPa | 2.6V | 03:32:29 | 02:29:43 | 00:00:00 | |
| DF8AY | 2026-09-02 00:21:56 | 52.77581 | 10.73500 | 0° | 7km/h | 26370m | 5m/s | -48.3°C | 0% | 22hPa | 2.6V | 03:33:20 | 02:29:42 | 00:00:00 | |
| DB0DAN | 2026-09-02 00:21:55 | 52.77579 | 10.73500 | 3° | 9km/h | 26365m | 6.4m/s | -48.3°C | 0.5% | 22.01hPa | 2.6V | 00:00:00 | 00:00:00 | 00:00:00 | |
| DL1XH-15 | 2026-09-02 00:21:54 | 52.77586 | 10.73490 | 165° | 20km/h | 26332m | 4m/s | -48.2°C | 2.9% | 22.1hPa | 2.6V | 03:32:30 | 02:29:35 | 00:00:00 | |
| DO9LL-15 | 2026-09-02 00:21:54 | 52.77577 | 10.73499 | 12° | 9km/h | 26359m | 4.7m/s | -48.3°C | 2.9% | 22.0hPa | 2.6V | 00:00:00 | 02:29:40 | 00:00:00 | |
| DL1XH1-15 | 2026-09-02 00:21:53 | 52.77576 | 10.73497 | 127° | 5km/h | 26349m | 6m/s | -48.3°C | 2.9% | 22.1hPa | 2.6V | 03:32:27 | 02:29:38 | 00:00:00 | |
| AA1-15 | 2026-09-02 00:21:53 | 52.77576 | 10.73498 | 48° | 5km/h | 26354m | 4.5m/s | -48.3°C | 0% | 22hPa | 2.6V | 03:32:29 | 02:29:39 | 00:00:00 | |
| DL1NUX | 2026-09-02 00:21:52 | 52.77581 | 10.73492 | 162° | 20km/h | 26337m | 4.9m/s | -48.2°C | 2.9% | 22.1hPa | 2.5V | 03:32:29 | 02:29:36 | 00:00:00 | |
| DL1XH-west | 2026-09-02 00:21:50 | 52.77581 | 10.73492 | 163° | 20km/h | 26337m | 4.9m/s | -48.2°C | 0% | 22.1hPa | 2.5V | 03:32:29 | 02:29:36 | 00:00:00 | |
| DF8AY | 2026-09-02 00:21:48 | 52.77593 | 10.73492 | 194° | 5km/h | 26270m | 5.5m/s | -48.1°C | 0% | 22.3hPa | 2.6V | 03:33:20 | 02:29:23 | 00:00:00 | |
| SMARD9-15 | 2026-09-02 00:21:46 | 52.77597 | 10.73487 | 157° | 0km/h | 26312m | 4.9m/s | -48.2°C | 0.5% | 22.2hPa | 2.5V | 00:00:00 | 00:00:00 | 00:00:00 | |
| DL1NUX | 2026-09-02 00:21:45 | 52.77594 | 10.73487 | 323° | 5km/h | 26286m | 5.9m/s | -48.2°C | 2.9% | 22.3hPa | 2.5V | 03:32:39 | 02:29:26 | 00:00:00 | |
| BUE01 | 2026-09-02 00:21:45 | 52.77597 | 10.73487 | 22° | 0km/h | 26307m | 6.0m/s | -48.2°C | 0.5% | 22.2hPa | 2.6V | 00:00:00 | 00:00:00 | 00:00:00 | |
| HSKMA3-T | 2026-09-02 00:21:44 | 52.77597 | 10.73486 | 40° | 4km/h | 26301m | 5.6m/s | -48.2°C | 0% | 22.2hPa | 2.6V | 03:33:20 | 02:29:29 | 00:00:00 | |
| DL1XH1-15 | 2026-09-02 00:21:43 | 52.77596 | 10.73486 | 10° | 4km/h | 26296m | 4.4m/s | -48.2°C | 2.9% | 22.2hPa | 2.5V | 03:32:37 | 02:29:28 | 00:00:00 | |
| AA1-15 | 2026-09-02 00:21:42 | 52.77596 | 10.73486 | 11° | 4km/h | 26296m | 4.4m/s | -48.2°C | 0% | 22.2hPa | 2.5V | 03:33:20 | 02:29:28 | 00:00:00 | |
| DO2SHX-10 | 2026-09-02 00:21:42 | 52.77596 | 10.73486 | 11° | 4km/h | 26296m | 4.3m/s | -48.1°C | 2.9% | 22.2hPa | 2.5V | 00:00:00 | 02:29:28 | 00:00:00 | |
| DL1XH-15 | 2026-09-02 00:21:40 | 52.77593 | 10.73489 | 313° | 5km/h | 26280m | 5.1m/s | -48.1°C | 2.9% | 22.3hPa | 2.6V | 03:32:40 | 02:29:25 | 00:00:00 | |
| DB0DAN | 2026-09-02 00:21:40 | 52.77594 | 10.73487 | 324° | 5km/h | 26286m | 5.9m/s | -48.2°C | 0.5% | 22.31hPa | 2.5V | 00:00:00 | 00:00:00 | 00:00:00 | |
| DL1XH-west | 2026-09-02 00:21:39 | 52.77593 | 10.73489 | 314° | 5km/h | 26280m | 5.1m/s | -48.1°C | 0% | 22.3hPa | 2.6V | 03:33:20 | 02:29:25 | 00:00:00 | |
| DO2SHX-10 | 2026-09-02 00:21:39 | 52.77593 | 10.73488 | 314° | 5km/h | 26281m | 5.1m/s | -48.1°C | 2.9% | 22.2hPa | 2.6V | 03:32:00 | 02:29:25 | 00:00:00 | |
| DL3OBA | 2026-09-02 00:21:38 | 52.77593 | 10.73488 | 315° | 5km/h | 26281m | 5.1m/s | -48.1°C | 0.5% | 22.3hPa | 2.6V | 03:33:00 | 00:00:00 | 00:00:00 | |
| GOEST3-10 | 2026-09-02 00:21:37 | 52.77593 | 10.73492 | 194° | 16km/h | 26271m | 5.5m/s | -48.1°C | 2.8% | 22.3hPa | 2.6V | 00:00:00 | 02:29:23 | 00:00:00 | |
| DO2SHX-10 | 2026-09-02 00:21:36 | 52.77595 | 10.73491 | 173° | 18km/h | 26265m | 6.3m/s | -48.1°C | 2.8% | 22.3hPa | 2.6V | 00:00:00 | 02:29:22 | 00:00:00 | |
| DL4BBY-15 | 2026-09-02 00:21:35 | 52.77599 | 10.73490 | 167° | 18km/h | 26259m | 4.9m/s | -47.8°C | 0% | 0hPa | 2.6V | 00:00:00 | 00:00:00 | 00:00:00 | |
| DL1XH1-15 | 2026-09-02 00:21:33 | 52.77615 | 10.73487 | 185° | 18km/h | 26245m | 5.8m/s | -48.1°C | 2.9% | 22.4hPa | 2.6V | 03:32:47 | 02:29:18 | 00:00:00 | |
| HSKMA3-T | 2026-09-02 00:21:32 | 52.77615 | 10.73487 | 186° | 18km/h | 26245m | 5.8m/s | -48.1°C | 0% | 22.4hPa | 2.6V | 03:33:20 | 02:29:18 | 00:00:00 | |
| DL1NUX | 2026-09-02 00:21:32 | 52.77622 | 10.73491 | 234° | 11km/h | 26234m | 4.6m/s | -48.1°C | 2.9% | 22.4hPa | 2.5V | 03:32:49 | 02:29:16 | 00:00:00 | |
| AA1-15 | 2026-09-02 00:21:31 | 52.77620 | 10.73488 | 205° | 15km/h | 26239m | 5.4m/s | -48.1°C | 0% | 22.4hPa | 2.6V | 03:33:20 | 02:29:17 | 00:00:00 | |
| DL1XH-west | 2026-09-02 00:21:29 | 52.77623 | 10.73495 | 259° | 9km/h | 26230m | 4.9m/s | -48.1°C | 0% | 22.5hPa | 2.5V | 03:33:20 | 02:29:15 | 00:00:00 | |
| DF8AY | 2026-09-02 00:21:28 | 52.77623 | 10.73498 | 282° | 7km/h | 26224m | 5.6m/s | -48.1°C | 0% | 22.5hPa | 2.6V | 03:33:20 | 02:29:14 | 00:00:00 | |
| DL3AQ-11 | 2026-09-02 00:21:28 | 52.77623 | 10.73500 | 309° | 2km/h | 26219m | 5.6m/s | -48.1°C | 0.5% | 22.5hPa | 2.6V | 00:00:00 | 00:00:00 | 00:00:00 | |
| DO2SHX-10 | 2026-09-02 00:21:27 | 52.77623 | 10.73500 | 310° | 4km/h | 26219m | 5.5m/s | -48.1°C | 2.8% | 22.5hPa | 2.6V | 03:32:00 | 02:29:13 | 00:00:00 | |
| SO1NDE-10 | 2026-09-02 00:21:26 | 52.77623 | 10.73501 | 197° | 22km/h | 26214m | 4.7m/s | -48.1°C | 2.9% | 22.5hPa | 2.6V | 03:32:00 | 02:29:12 | 00:00:00 | |
| DL1NUX | 2026-09-02 00:21:25 | 52.77644 | 10.73518 | 214° | 29km/h | 26184m | 4.8m/s | -47.9°C | 2.8% | 22.6hPa | 2.6V | 03:32:59 | 02:29:06 | 00:00:00 | |
| DB0DAN | 2026-09-02 00:21:25 | 52.77624 | 10.73501 | 176° | 4km/h | 26209m | 4.1m/s | -48.1°C | 0.5% | 22.54hPa | 2.6V | 00:00:00 | 00:00:00 | 00:00:00 | |
| DO3MHA-11 | 2026-09-02 00:21:25 | 52.77623 | 10.73501 | 176° | 18km/h | 26209m | 4.1m/s | -48.1°C | 2.9% | 22.5hPa | 2.6V | 00:00:00 | 02:29:11 | 00:00:00 | |
| DL1XH-15 | 2026-09-02 00:21:24 | 52.77650 | 10.73525 | 210° | 27km/h | 26180m | 4.4m/s | -47.9°C | 2.8% | 22.6hPa | 2.6V | 03:33:00 | 02:29:05 | 00:00:00 | |
| DO2SHX-10 | 2026-09-02 00:21:24 | 52.77625 | 10.73501 | 189° | 16km/h | 26205m | 4.1m/s | -48.0°C | 2.9% | 22.5hPa | 2.6V | 00:00:00 | 02:29:10 | 00:00:00 | |
| DM0DOS-11 | 2026-09-02 00:21:23 | 52.77633 | 10.73506 | 208° | 22km/h | 26195m | 5.4m/s | -48°C | 2.8% | 22.6hPa | 2.6V | 03:32:57 | 02:29:08 | 00:00:00 | |
| BIOWL1-15 | 2026-09-02 00:21:22 | 52.77677 | 10.73539 | 212° | 15km/h | 26147m | 5.4m/s | -47.9°C | 0% | 22.8hPa | 2.6V | 03:33:20 | 02:28:59 | 00:00:00 | |
| HSKMA3-T | 2026-09-02 00:21:22 | 52.77633 | 10.73506 | 208° | 22km/h | 26195m | 5.4m/s | -48°C | 0% | 22.6hPa | 2.6V | 03:33:20 | 02:29:08 | 00:00:00 | |
| AA1-15 | 2026-09-02 00:21:21 | 52.77639 | 10.73512 | 216° | 27km/h | 26189m | 5.7m/s | -48°C | 0% | 22.6hPa | 2.6V | 03:33:20 | 02:29:07 | 00:00:00 | |
| DL1XH-west | 2026-09-02 00:21:18 | 52.77656 | 10.73530 | 204° | 26km/h | 26174m | 6m/s | -47.9°C | 0% | 22.6hPa | 2.6V | 03:33:20 | 02:29:04 | 00:00:00 | |
| DO2SHX-10 | 2026-09-02 00:21:18 | 52.77656 | 10.73530 | 205° | 22km/h | 26175m | 6.0m/s | -47.8°C | 2.8% | 22.6hPa | 2.6V | 00:00:00 | 02:29:04 | 00:00:00 | |
| GOEST3-10 | 2026-09-02 00:21:17 | 52.77662 | 10.73533 | 193° | 16km/h | 26169m | 5.4m/s | -47.9°C | 2.8% | 22.6hPa | 2.6V | 00:00:00 | 02:29:03 | 00:00:00 | |
| SMARD9-15 | 2026-09-02 00:21:15 | 52.77674 | 10.73536 | 200° | 13km/h | 26154m | 6.3m/s | -47.9°C | 0.5% | 22.7hPa | 2.6V | 00:00:00 | 00:00:00 | 00:00:00 | |
| DB0UT-7 | 2026-09-02 00:21:14 | 52.77674 | 10.73536 | 201° | 24km/h | 26154m | 6.2m/s | -47.9°C | 2.8% | 22.7hPa | 2.6V | 00:00:00 | 00:00:00 | 00:00:00 | |
| DM0DOS-11 | 2026-09-02 00:21:13 | 52.77680 | 10.73542 | 213° | 18km/h | 26142m | 4.3m/s | -47.9°C | 2.8% | 22.8hPa | 2.5V | 03:33:07 | 02:28:58 | 00:00:00 | |
| HSKMA3-T | 2026-09-02 00:21:11 | 52.77685 | 10.73546 | 206° | 22km/h | 26138m | 5.2m/s | -47.8°C | 0% | 22.8hPa | 2.6V | 03:33:20 | 02:28:57 | 00:00:00 | |
| BIOWL1-15 | 2026-09-02 00:21:10 | 52.77744 | 10.73600 | 190° | 20km/h | 26090m | 5.5m/s | -47.9°C | 0% | 23hPa | 2.6V | 03:33:20 | 02:28:48 | 00:00:00 | |
| AA1-15 | 2026-09-02 00:21:10 | 52.77690 | 10.73550 | 204° | 26km/h | 26132m | 5.9m/s | -47.8°C | 0% | 22.8hPa | 2.6V | 03:33:20 | 02:28:56 | 00:00:00 | |
| DL1XH-15 | 2026-09-02 00:21:10 | 52.77696 | 10.73555 | 201° | 29km/h | 26127m | 5.4m/s | -47.8°C | 2.8% | 22.8hPa | 2.6V | 03:33:10 | 02:28:55 | 00:00:00 | |
| DB0DAN | 2026-09-02 00:21:10 | 52.77690 | 10.73550 | 204° | 24km/h | 26132m | 5.9m/s | -47.8°C | 0.5% | 22.8hPa | 2.6V | 00:00:00 | 00:00:00 | 00:00:00 | |
| EDDB2-11 | 2026-09-02 00:21:08 | 52.77703 | 10.73560 | 204° | 33km/h | 26122m | 4.9m/s | -47.9°C | 0.5% | 22.8hPa | 2.6V | 00:00:00 | 00:00:00 | 00:00:00 | |
| DL1XH-west | 2026-09-02 00:21:08 | 52.77703 | 10.73560 | 205° | 33km/h | 26121m | 4.9m/s | -47.9°C | 0% | 22.8hPa | 2.6V | 03:33:20 | 02:28:54 | 00:00:00 | |
| GOEST3-10 | 2026-09-02 00:21:07 | 52.77711 | 10.73566 | 211° | 31km/h | 26116m | 5.8m/s | -47.8°C | 2.8% | 22.8hPa | 2.6V | 00:00:00 | 02:28:53 | 00:00:00 | |
| DF8AY-15 | 2026-09-02 00:21:06 | 52.77718 | 10.73574 | 215° | 24km/h | 26111m | 5.2m/s | -47.8°C | 2.8% | 22.8hPa | 2.6V | 00:00:00 | 02:28:52 | 00:00:00 | |
| DL4BBY-15 | 2026-09-02 00:21:05 | 52.77726 | 10.73583 | 217° | 22km/h | 26106m | 4.1m/s | -47.6°C | 0% | 0hPa | 2.6V | 00:00:00 | 00:00:00 | 00:00:00 | |
| DL1XH1-15 | 2026-09-02 00:21:03 | 52.77744 | 10.73600 | 190° | 20km/h | 26090m | 5.5m/s | -47.9°C | 2.8% | 23hPa | 2.6V | 03:33:17 | 02:28:48 | 00:00:00 | |
| DD8BA-10 | 2026-09-02 00:21:03 | 52.77738 | 10.73597 | 205° | 18km/h | 26096m | 6.1m/s | -47.9°C | 2.8% | 22.9hPa | 2.5V | 03:33:00 | 00:00:00 | 00:00:00 | |
| DL1NUX | 2026-09-02 00:21:02 | 52.77752 | 10.73599 | 169° | 15km/h | 26080m | 5.1m/s | -48°C | 2.8% | 23hPa | 2.5V | 03:33:19 | 02:28:46 | 00:00:00 | |
| HSKMA3-T | 2026-09-02 00:21:01 | 52.77749 | 10.73600 | 174° | 16km/h | 26084m | 4.9m/s | -48°C | 0% | 23hPa | 2.6V | 03:33:20 | 02:28:47 | 00:00:00 | |
| Es werden nur die letzten 3500 von 7641 Frames angezeigt. GPX/KML und Diagramme bleiben verfügbar. | |||||||||||||||